<?xml version="1.0" encoding="UTF-8" standalone="no" ?>
<gpx xmlns="http://www.topografix.com/GPX/1/1" xmlns:xsi="http://www.w3.org/2001/XMLSchema-instance" xsi:schemaLocation="http://www.topografix.com/GPX/1/1 http://www.topografix.com/GPX/1/1/gpx.xsd" version="1.1" creator="VisuGPX - https://www.visugpx.com">
  <metadata>
    <name>(Ain-01) Autour de Nantua</name>
    <desc><![CDATA[Super tour avec Captain comme guide, autour de Nantua et de belles découvertes de singles !]]></desc>
  </metadata>
  <trk>
    <name><![CDATA[Morning Ride]]></name>
    <trkseg>
      <trkpt lat="46.15674" lon="5.60361">
        <ele>478.4</ele>
        <time>2020-05-24T06:59:23Z</time>
      </trkpt>
      <trkpt lat="46.16602" lon="5.62397">
        <ele>817.1</ele>
        <time>2020-05-24T06:59:30Z</time>
      </trkpt>
      <trkpt lat="46.16603" lon="5.62394">
        <ele>817.2</ele>
        <time>2020-05-24T06:59:31Z</time>
      </trkpt>
      <trkpt lat="46.16604" lon="5.62392">
        <ele>817.2</ele>
        <time>2020-05-24T06:59:32Z</time>
      </trkpt>
      <trkpt lat="46.16607" lon="5.6239">
        <ele>817.4</ele>
        <time>2020-05-24T06:59:33Z</time>
      </trkpt>
      <trkpt lat="46.16607" lon="5.62389">
        <ele>817.4</ele>
        <time>2020-05-24T06:59:34Z</time>
      </trkpt>
      <trkpt lat="46.16607" lon="5.62383">
        <ele>817.5</ele>
        <time>2020-05-24T06:59:36Z</time>
      </trkpt>
      <trkpt lat="46.16607" lon="5.62381">
        <ele>817.6</ele>
        <time>2020-05-24T06:59:37Z</time>
      </trkpt>
      <trkpt lat="46.16605" lon="5.6238">
        <ele>817.6</ele>
        <time>2020-05-24T06:59:38Z</time>
      </trkpt>
      <trkpt lat="46.16604" lon="5.62378">
        <ele>817.7</ele>
        <time>2020-05-24T06:59:40Z</time>
      </trkpt>
      <trkpt lat="46.16604" lon="5.62376">
        <ele>818.2</ele>
        <time>2020-05-24T06:59:42Z</time>
      </trkpt>
      <trkpt lat="46.16605" lon="5.62377">
        <ele>818.1</ele>
        <time>2020-05-24T06:59:43Z</time>
      </trkpt>
      <trkpt lat="46.16606" lon="5.62379">
        <ele>817.7</ele>
        <time>2020-05-24T06:59:45Z</time>
      </trkpt>
      <trkpt lat="46.16607" lon="5.62379">
        <ele>817.7</ele>
        <time>2020-05-24T06:59:47Z</time>
      </trkpt>
      <trkpt lat="46.16607" lon="5.62378">
        <ele>817.7</ele>
        <time>2020-05-24T06:59:48Z</time>
      </trkpt>
      <trkpt lat="46.16607" lon="5.62376">
        <ele>817.7</ele>
        <time>2020-05-24T06:59:50Z</time>
      </trkpt>
      <trkpt lat="46.16607" lon="5.62376">
        <ele>818</ele>
        <time>2020-05-24T06:59:51Z</time>
      </trkpt>
      <trkpt lat="46.16607" lon="5.62376">
        <ele>818.1</ele>
        <time>2020-05-24T06:59:52Z</time>
      </trkpt>
      <trkpt lat="46.16607" lon="5.62376">
        <ele>818.1</ele>
        <time>2020-05-24T06:59:53Z</time>
      </trkpt>
      <trkpt lat="46.16607" lon="5.62376">
        <ele>818.1</ele>
        <time>2020-05-24T06:59:55Z</time>
      </trkpt>
      <trkpt lat="46.16606" lon="5.62377">
        <ele>817.7</ele>
        <time>2020-05-24T06:59:57Z</time>
      </trkpt>
      <trkpt lat="46.16606" lon="5.62379">
        <ele>817.7</ele>
        <time>2020-05-24T06:59:59Z</time>
      </trkpt>
      <trkpt lat="46.16603" lon="5.62384">
        <ele>817.7</ele>
        <time>2020-05-24T07:01:58Z</time>
      </trkpt>
      <trkpt lat="46.16604" lon="5.62381">
        <ele>817.7</ele>
        <time>2020-05-24T07:02:00Z</time>
      </trkpt>
      <trkpt lat="46.16604" lon="5.62381">
        <ele>817.7</ele>
        <time>2020-05-24T07:02:02Z</time>
      </trkpt>
      <trkpt lat="46.16606" lon="5.62382">
        <ele>817.7</ele>
        <time>2020-05-24T07:02:04Z</time>
      </trkpt>
      <trkpt lat="46.16606" lon="5.62382">
        <ele>817.7</ele>
        <time>2020-05-24T07:02:05Z</time>
      </trkpt>
      <trkpt lat="46.16607" lon="5.62381">
        <ele>817.7</ele>
        <time>2020-05-24T07:02:07Z</time>
      </trkpt>
      <trkpt lat="46.16607" lon="5.62378">
        <ele>817.7</ele>
        <time>2020-05-24T07:02:09Z</time>
      </trkpt>
      <trkpt lat="46.16608" lon="5.62377">
        <ele>817.7</ele>
        <time>2020-05-24T07:02:10Z</time>
      </trkpt>
      <trkpt lat="46.16608" lon="5.62376">
        <ele>817.7</ele>
        <time>2020-05-24T07:02:12Z</time>
      </trkpt>
      <trkpt lat="46.16609" lon="5.62376">
        <ele>817.7</ele>
        <time>2020-05-24T07:02:13Z</time>
      </trkpt>
      <trkpt lat="46.1661" lon="5.62376">
        <ele>817.7</ele>
        <time>2020-05-24T07:02:15Z</time>
      </trkpt>
      <trkpt lat="46.1661" lon="5.62376">
        <ele>817.7</ele>
        <time>2020-05-24T07:02:16Z</time>
      </trkpt>
      <trkpt lat="46.1661" lon="5.62376">
        <ele>817.7</ele>
        <time>2020-05-24T07:02:18Z</time>
      </trkpt>
      <trkpt lat="46.1661" lon="5.62376">
        <ele>817.7</ele>
        <time>2020-05-24T07:02:20Z</time>
      </trkpt>
      <trkpt lat="46.1661" lon="5.62377">
        <ele>817.7</ele>
        <time>2020-05-24T07:02:21Z</time>
      </trkpt>
      <trkpt lat="46.1661" lon="5.62377">
        <ele>817.7</ele>
        <time>2020-05-24T07:02:23Z</time>
      </trkpt>
      <trkpt lat="46.1661" lon="5.62377">
        <ele>817.7</ele>
        <time>2020-05-24T07:02:24Z</time>
      </trkpt>
      <trkpt lat="46.1661" lon="5.62377">
        <ele>817.7</ele>
        <time>2020-05-24T07:02:26Z</time>
      </trkpt>
      <trkpt lat="46.16607" lon="5.62376">
        <ele>817.7</ele>
        <time>2020-05-24T07:03:15Z</time>
      </trkpt>
      <trkpt lat="46.16606" lon="5.62375">
        <ele>818.1</ele>
        <time>2020-05-24T07:03:16Z</time>
      </trkpt>
      <trkpt lat="46.16605" lon="5.62371">
        <ele>818.4</ele>
        <time>2020-05-24T07:03:18Z</time>
      </trkpt>
      <trkpt lat="46.16605" lon="5.62368">
        <ele>818.6</ele>
        <time>2020-05-24T07:03:19Z</time>
      </trkpt>
      <trkpt lat="46.16604" lon="5.62366">
        <ele>818.7</ele>
        <time>2020-05-24T07:03:20Z</time>
      </trkpt>
      <trkpt lat="46.16603" lon="5.62362">
        <ele>819</ele>
        <time>2020-05-24T07:03:22Z</time>
      </trkpt>
      <trkpt lat="46.16603" lon="5.6236">
        <ele>819.2</ele>
        <time>2020-05-24T07:03:23Z</time>
      </trkpt>
      <trkpt lat="46.16603" lon="5.62359">
        <ele>819.3</ele>
        <time>2020-05-24T07:03:24Z</time>
      </trkpt>
      <trkpt lat="46.16603" lon="5.62357">
        <ele>819.4</ele>
        <time>2020-05-24T07:03:25Z</time>
      </trkpt>
      <trkpt lat="46.16603" lon="5.62354">
        <ele>819.6</ele>
        <time>2020-05-24T07:03:27Z</time>
      </trkpt>
      <trkpt lat="46.16602" lon="5.6235">
        <ele>819.9</ele>
        <time>2020-05-24T07:03:29Z</time>
      </trkpt>
      <trkpt lat="46.16602" lon="5.62346">
        <ele>820.3</ele>
        <time>2020-05-24T07:03:31Z</time>
      </trkpt>
      <trkpt lat="46.16602" lon="5.62343">
        <ele>820.4</ele>
        <time>2020-05-24T07:03:32Z</time>
      </trkpt>
      <trkpt lat="46.16603" lon="5.6234">
        <ele>820.7</ele>
        <time>2020-05-24T07:03:34Z</time>
      </trkpt>
      <trkpt lat="46.16603" lon="5.62339">
        <ele>820.8</ele>
        <time>2020-05-24T07:03:35Z</time>
      </trkpt>
      <trkpt lat="46.16604" lon="5.62338">
        <ele>820.9</ele>
        <time>2020-05-24T07:03:36Z</time>
      </trkpt>
      <trkpt lat="46.16603" lon="5.62334">
        <ele>821.1</ele>
        <time>2020-05-24T07:03:38Z</time>
      </trkpt>
      <trkpt lat="46.16603" lon="5.62333">
        <ele>821.3</ele>
        <time>2020-05-24T07:03:39Z</time>
      </trkpt>
      <trkpt lat="46.16603" lon="5.62331">
        <ele>821.4</ele>
        <time>2020-05-24T07:03:40Z</time>
      </trkpt>
      <trkpt lat="46.16603" lon="5.62328">
        <ele>821.7</ele>
        <time>2020-05-24T07:03:42Z</time>
      </trkpt>
      <trkpt lat="46.16602" lon="5.62325">
        <ele>821.9</ele>
        <time>2020-05-24T07:03:44Z</time>
      </trkpt>
      <trkpt lat="46.16602" lon="5.62323">
        <ele>822</ele>
        <time>2020-05-24T07:03:45Z</time>
      </trkpt>
      <trkpt lat="46.16603" lon="5.62318">
        <ele>822.4</ele>
        <time>2020-05-24T07:03:47Z</time>
      </trkpt>
      <trkpt lat="46.16604" lon="5.62317">
        <ele>822.6</ele>
        <time>2020-05-24T07:03:48Z</time>
      </trkpt>
      <trkpt lat="46.16604" lon="5.62314">
        <ele>822.8</ele>
        <time>2020-05-24T07:03:50Z</time>
      </trkpt>
      <trkpt lat="46.16604" lon="5.62313">
        <ele>822.9</ele>
        <time>2020-05-24T07:03:51Z</time>
      </trkpt>
      <trkpt lat="46.16603" lon="5.6231">
        <ele>823.1</ele>
        <time>2020-05-24T07:03:52Z</time>
      </trkpt>
      <trkpt lat="46.16601" lon="5.62306">
        <ele>823.5</ele>
        <time>2020-05-24T07:03:54Z</time>
      </trkpt>
      <trkpt lat="46.166" lon="5.62303">
        <ele>823.8</ele>
        <time>2020-05-24T07:03:56Z</time>
      </trkpt>
      <trkpt lat="46.16599" lon="5.62301">
        <ele>823.9</ele>
        <time>2020-05-24T07:03:57Z</time>
      </trkpt>
      <trkpt lat="46.16599" lon="5.62298">
        <ele>824.1</ele>
        <time>2020-05-24T07:03:59Z</time>
      </trkpt>
      <trkpt lat="46.16599" lon="5.62295">
        <ele>824.3</ele>
        <time>2020-05-24T07:04:01Z</time>
      </trkpt>
      <trkpt lat="46.16599" lon="5.62291">
        <ele>824.7</ele>
        <time>2020-05-24T07:04:03Z</time>
      </trkpt>
      <trkpt lat="46.16598" lon="5.62287">
        <ele>825</ele>
        <time>2020-05-24T07:04:05Z</time>
      </trkpt>
      <trkpt lat="46.16597" lon="5.62284">
        <ele>825.3</ele>
        <time>2020-05-24T07:04:07Z</time>
      </trkpt>
      <trkpt lat="46.16598" lon="5.6228">
        <ele>825.6</ele>
        <time>2020-05-24T07:04:09Z</time>
      </trkpt>
      <trkpt lat="46.166" lon="5.62275">
        <ele>826.1</ele>
        <time>2020-05-24T07:04:11Z</time>
      </trkpt>
      <trkpt lat="46.16601" lon="5.62273">
        <ele>826.2</ele>
        <time>2020-05-24T07:04:12Z</time>
      </trkpt>
      <trkpt lat="46.16601" lon="5.62273">
        <ele>826.3</ele>
        <time>2020-05-24T07:04:13Z</time>
      </trkpt>
      <trkpt lat="46.16602" lon="5.6227">
        <ele>826.6</ele>
        <time>2020-05-24T07:04:15Z</time>
      </trkpt>
      <trkpt lat="46.16602" lon="5.62264">
        <ele>827.1</ele>
        <time>2020-05-24T07:04:17Z</time>
      </trkpt>
      <trkpt lat="46.16602" lon="5.62262">
        <ele>827.2</ele>
        <time>2020-05-24T07:04:19Z</time>
      </trkpt>
      <trkpt lat="46.16602" lon="5.6226">
        <ele>827.4</ele>
        <time>2020-05-24T07:04:20Z</time>
      </trkpt>
      <trkpt lat="46.16601" lon="5.62257">
        <ele>827.7</ele>
        <time>2020-05-24T07:04:22Z</time>
      </trkpt>
      <trkpt lat="46.16601" lon="5.62254">
        <ele>827.9</ele>
        <time>2020-05-24T07:04:24Z</time>
      </trkpt>
      <trkpt lat="46.16602" lon="5.62252">
        <ele>828.2</ele>
        <time>2020-05-24T07:04:26Z</time>
      </trkpt>
      <trkpt lat="46.16603" lon="5.6225">
        <ele>828.4</ele>
        <time>2020-05-24T07:04:27Z</time>
      </trkpt>
      <trkpt lat="46.16603" lon="5.62247">
        <ele>828.6</ele>
        <time>2020-05-24T07:04:29Z</time>
      </trkpt>
      <trkpt lat="46.16603" lon="5.62246">
        <ele>828.8</ele>
        <time>2020-05-24T07:04:30Z</time>
      </trkpt>
      <trkpt lat="46.16602" lon="5.62243">
        <ele>829.1</ele>
        <time>2020-05-24T07:04:32Z</time>
      </trkpt>
      <trkpt lat="46.16602" lon="5.6224">
        <ele>829.3</ele>
        <time>2020-05-24T07:04:34Z</time>
      </trkpt>
      <trkpt lat="46.16601" lon="5.62238">
        <ele>829.5</ele>
        <time>2020-05-24T07:04:35Z</time>
      </trkpt>
      <trkpt lat="46.16602" lon="5.62234">
        <ele>829.9</ele>
        <time>2020-05-24T07:04:37Z</time>
      </trkpt>
      <trkpt lat="46.16602" lon="5.62232">
        <ele>830.1</ele>
        <time>2020-05-24T07:04:38Z</time>
      </trkpt>
      <trkpt lat="46.16603" lon="5.62228">
        <ele>830.6</ele>
        <time>2020-05-24T07:04:40Z</time>
      </trkpt>
      <trkpt lat="46.16604" lon="5.62224">
        <ele>831</ele>
        <time>2020-05-24T07:04:42Z</time>
      </trkpt>
      <trkpt lat="46.16605" lon="5.62222">
        <ele>831.3</ele>
        <time>2020-05-24T07:04:43Z</time>
      </trkpt>
      <trkpt lat="46.16606" lon="5.62219">
        <ele>831.5</ele>
        <time>2020-05-24T07:04:44Z</time>
      </trkpt>
      <trkpt lat="46.16606" lon="5.62215">
        <ele>832</ele>
        <time>2020-05-24T07:04:46Z</time>
      </trkpt>
      <trkpt lat="46.16607" lon="5.62211">
        <ele>832.5</ele>
        <time>2020-05-24T07:04:48Z</time>
      </trkpt>
      <trkpt lat="46.16608" lon="5.62209">
        <ele>832.7</ele>
        <time>2020-05-24T07:04:49Z</time>
      </trkpt>
      <trkpt lat="46.16609" lon="5.62206">
        <ele>833.1</ele>
        <time>2020-05-24T07:04:51Z</time>
      </trkpt>
      <trkpt lat="46.16609" lon="5.62204">
        <ele>833.3</ele>
        <time>2020-05-24T07:04:52Z</time>
      </trkpt>
      <trkpt lat="46.1661" lon="5.62201">
        <ele>833.7</ele>
        <time>2020-05-24T07:04:54Z</time>
      </trkpt>
      <trkpt lat="46.16611" lon="5.62198">
        <ele>834</ele>
        <time>2020-05-24T07:04:56Z</time>
      </trkpt>
      <trkpt lat="46.16611" lon="5.62197">
        <ele>834.2</ele>
        <time>2020-05-24T07:04:57Z</time>
      </trkpt>
      <trkpt lat="46.16612" lon="5.62192">
        <ele>834.7</ele>
        <time>2020-05-24T07:04:59Z</time>
      </trkpt>
      <trkpt lat="46.16613" lon="5.62191">
        <ele>834.8</ele>
        <time>2020-05-24T07:05:00Z</time>
      </trkpt>
      <trkpt lat="46.16614" lon="5.62188">
        <ele>835.3</ele>
        <time>2020-05-24T07:05:02Z</time>
      </trkpt>
      <trkpt lat="46.16615" lon="5.62184">
        <ele>835.6</ele>
        <time>2020-05-24T07:05:04Z</time>
      </trkpt>
      <trkpt lat="46.16616" lon="5.62182">
        <ele>835.8</ele>
        <time>2020-05-24T07:05:05Z</time>
      </trkpt>
      <trkpt lat="46.16616" lon="5.62179">
        <ele>836.1</ele>
        <time>2020-05-24T07:05:07Z</time>
      </trkpt>
      <trkpt lat="46.16617" lon="5.62176">
        <ele>836.4</ele>
        <time>2020-05-24T07:05:09Z</time>
      </trkpt>
      <trkpt lat="46.16617" lon="5.62174">
        <ele>836.5</ele>
        <time>2020-05-24T07:05:10Z</time>
      </trkpt>
      <trkpt lat="46.16617" lon="5.6217">
        <ele>836.9</ele>
        <time>2020-05-24T07:05:12Z</time>
      </trkpt>
      <trkpt lat="46.16616" lon="5.62169">
        <ele>836.9</ele>
        <time>2020-05-24T07:05:13Z</time>
      </trkpt>
      <trkpt lat="46.16616" lon="5.62164">
        <ele>837.3</ele>
        <time>2020-05-24T07:05:15Z</time>
      </trkpt>
      <trkpt lat="46.16616" lon="5.62162">
        <ele>837.4</ele>
        <time>2020-05-24T07:05:16Z</time>
      </trkpt>
      <trkpt lat="46.16616" lon="5.62158">
        <ele>837.6</ele>
        <time>2020-05-24T07:05:18Z</time>
      </trkpt>
      <trkpt lat="46.16615" lon="5.62154">
        <ele>837.9</ele>
        <time>2020-05-24T07:05:20Z</time>
      </trkpt>
      <trkpt lat="46.16615" lon="5.62153">
        <ele>837.9</ele>
        <time>2020-05-24T07:05:21Z</time>
      </trkpt>
      <trkpt lat="46.16615" lon="5.62148">
        <ele>838.1</ele>
        <time>2020-05-24T07:05:23Z</time>
      </trkpt>
      <trkpt lat="46.16615" lon="5.62147">
        <ele>838.2</ele>
        <time>2020-05-24T07:05:24Z</time>
      </trkpt>
      <trkpt lat="46.16615" lon="5.62143">
        <ele>838.4</ele>
        <time>2020-05-24T07:05:26Z</time>
      </trkpt>
      <trkpt lat="46.16616" lon="5.62139">
        <ele>838.5</ele>
        <time>2020-05-24T07:05:28Z</time>
      </trkpt>
      <trkpt lat="46.16616" lon="5.62137">
        <ele>838.6</ele>
        <time>2020-05-24T07:05:29Z</time>
      </trkpt>
      <trkpt lat="46.16616" lon="5.62135">
        <ele>838.7</ele>
        <time>2020-05-24T07:05:31Z</time>
      </trkpt>
      <trkpt lat="46.16616" lon="5.62134">
        <ele>838.7</ele>
        <time>2020-05-24T07:05:32Z</time>
      </trkpt>
      <trkpt lat="46.16618" lon="5.62133">
        <ele>838.8</ele>
        <time>2020-05-24T07:05:34Z</time>
      </trkpt>
      <trkpt lat="46.16618" lon="5.62133">
        <ele>838.9</ele>
        <time>2020-05-24T07:05:35Z</time>
      </trkpt>
      <trkpt lat="46.16618" lon="5.62133">
        <ele>838.9</ele>
        <time>2020-05-24T07:05:37Z</time>
      </trkpt>
      <trkpt lat="46.16618" lon="5.62133">
        <ele>838.9</ele>
        <time>2020-05-24T07:05:39Z</time>
      </trkpt>
      <trkpt lat="46.16618" lon="5.62133">
        <ele>838.9</ele>
        <time>2020-05-24T07:05:40Z</time>
      </trkpt>
      <trkpt lat="46.16618" lon="5.62133">
        <ele>838.9</ele>
        <time>2020-05-24T07:05:42Z</time>
      </trkpt>
      <trkpt lat="46.16618" lon="5.62133">
        <ele>838.9</ele>
        <time>2020-05-24T07:05:44Z</time>
      </trkpt>
      <trkpt lat="46.16618" lon="5.62133">
        <ele>838.9</ele>
        <time>2020-05-24T07:05:45Z</time>
      </trkpt>
      <trkpt lat="46.16618" lon="5.62134">
        <ele>838.9</ele>
        <time>2020-05-24T07:07:24Z</time>
      </trkpt>
      <trkpt lat="46.16618" lon="5.62132">
        <ele>839</ele>
        <time>2020-05-24T07:07:25Z</time>
      </trkpt>
      <trkpt lat="46.16617" lon="5.62128">
        <ele>839.2</ele>
        <time>2020-05-24T07:07:27Z</time>
      </trkpt>
      <trkpt lat="46.16617" lon="5.62126">
        <ele>839.3</ele>
        <time>2020-05-24T07:07:28Z</time>
      </trkpt>
      <trkpt lat="46.16616" lon="5.62121">
        <ele>839.6</ele>
        <time>2020-05-24T07:07:30Z</time>
      </trkpt>
      <trkpt lat="46.16616" lon="5.62116">
        <ele>839.9</ele>
        <time>2020-05-24T07:07:32Z</time>
      </trkpt>
      <trkpt lat="46.16615" lon="5.62114">
        <ele>840</ele>
        <time>2020-05-24T07:07:33Z</time>
      </trkpt>
      <trkpt lat="46.16615" lon="5.62111">
        <ele>840.1</ele>
        <time>2020-05-24T07:07:34Z</time>
      </trkpt>
      <trkpt lat="46.16614" lon="5.62106">
        <ele>840.4</ele>
        <time>2020-05-24T07:07:36Z</time>
      </trkpt>
      <trkpt lat="46.16613" lon="5.62102">
        <ele>840.7</ele>
        <time>2020-05-24T07:07:38Z</time>
      </trkpt>
      <trkpt lat="46.16612" lon="5.62097">
        <ele>841</ele>
        <time>2020-05-24T07:07:40Z</time>
      </trkpt>
      <trkpt lat="46.16612" lon="5.62091">
        <ele>841.3</ele>
        <time>2020-05-24T07:07:42Z</time>
      </trkpt>
      <trkpt lat="46.16612" lon="5.62087">
        <ele>841.5</ele>
        <time>2020-05-24T07:07:44Z</time>
      </trkpt>
      <trkpt lat="46.16612" lon="5.62083">
        <ele>841.8</ele>
        <time>2020-05-24T07:07:46Z</time>
      </trkpt>
      <trkpt lat="46.16611" lon="5.62081">
        <ele>841.9</ele>
        <time>2020-05-24T07:07:47Z</time>
      </trkpt>
      <trkpt lat="46.16611" lon="5.62078">
        <ele>842</ele>
        <time>2020-05-24T07:07:48Z</time>
      </trkpt>
      <trkpt lat="46.16611" lon="5.62073">
        <ele>842.3</ele>
        <time>2020-05-24T07:07:50Z</time>
      </trkpt>
      <trkpt lat="46.16611" lon="5.62068">
        <ele>842.5</ele>
        <time>2020-05-24T07:07:52Z</time>
      </trkpt>
      <trkpt lat="46.16611" lon="5.62066">
        <ele>842.6</ele>
        <time>2020-05-24T07:07:53Z</time>
      </trkpt>
      <trkpt lat="46.1661" lon="5.62064">
        <ele>842.6</ele>
        <time>2020-05-24T07:07:54Z</time>
      </trkpt>
      <trkpt lat="46.16608" lon="5.6206">
        <ele>842.8</ele>
        <time>2020-05-24T07:07:56Z</time>
      </trkpt>
      <trkpt lat="46.16606" lon="5.62055">
        <ele>843</ele>
        <time>2020-05-24T07:07:58Z</time>
      </trkpt>
      <trkpt lat="46.16605" lon="5.62053">
        <ele>843.1</ele>
        <time>2020-05-24T07:07:59Z</time>
      </trkpt>
      <trkpt lat="46.16603" lon="5.6205">
        <ele>843.3</ele>
        <time>2020-05-24T07:08:01Z</time>
      </trkpt>
      <trkpt lat="46.16602" lon="5.62049">
        <ele>843.3</ele>
        <time>2020-05-24T07:08:02Z</time>
      </trkpt>
      <trkpt lat="46.16599" lon="5.62047">
        <ele>843.5</ele>
        <time>2020-05-24T07:08:04Z</time>
      </trkpt>
      <trkpt lat="46.16596" lon="5.62046">
        <ele>843.6</ele>
        <time>2020-05-24T07:08:06Z</time>
      </trkpt>
      <trkpt lat="46.16595" lon="5.62045">
        <ele>843.7</ele>
        <time>2020-05-24T07:08:07Z</time>
      </trkpt>
      <trkpt lat="46.16592" lon="5.62044">
        <ele>843.9</ele>
        <time>2020-05-24T07:08:09Z</time>
      </trkpt>
      <trkpt lat="46.16588" lon="5.62042">
        <ele>844.1</ele>
        <time>2020-05-24T07:08:11Z</time>
      </trkpt>
      <trkpt lat="46.16587" lon="5.62041">
        <ele>844.1</ele>
        <time>2020-05-24T07:08:12Z</time>
      </trkpt>
      <trkpt lat="46.16586" lon="5.62041">
        <ele>844.2</ele>
        <time>2020-05-24T07:08:13Z</time>
      </trkpt>
      <trkpt lat="46.16585" lon="5.6204">
        <ele>844.2</ele>
        <time>2020-05-24T07:08:14Z</time>
      </trkpt>
      <trkpt lat="46.16584" lon="5.62038">
        <ele>844.4</ele>
        <time>2020-05-24T07:08:16Z</time>
      </trkpt>
      <trkpt lat="46.16583" lon="5.62037">
        <ele>844.4</ele>
        <time>2020-05-24T07:08:17Z</time>
      </trkpt>
      <trkpt lat="46.1658" lon="5.62035">
        <ele>844.6</ele>
        <time>2020-05-24T07:08:19Z</time>
      </trkpt>
      <trkpt lat="46.16578" lon="5.62035">
        <ele>844.7</ele>
        <time>2020-05-24T07:08:21Z</time>
      </trkpt>
      <trkpt lat="46.16577" lon="5.62034">
        <ele>844.8</ele>
        <time>2020-05-24T07:08:23Z</time>
      </trkpt>
      <trkpt lat="46.16576" lon="5.62033">
        <ele>844.8</ele>
        <time>2020-05-24T07:08:24Z</time>
      </trkpt>
      <trkpt lat="46.16575" lon="5.62031">
        <ele>844.9</ele>
        <time>2020-05-24T07:08:26Z</time>
      </trkpt>
      <trkpt lat="46.16574" lon="5.62028">
        <ele>845</ele>
        <time>2020-05-24T07:08:28Z</time>
      </trkpt>
      <trkpt lat="46.16572" lon="5.62027">
        <ele>845.1</ele>
        <time>2020-05-24T07:08:30Z</time>
      </trkpt>
      <trkpt lat="46.16571" lon="5.62026">
        <ele>845.2</ele>
        <time>2020-05-24T07:08:31Z</time>
      </trkpt>
      <trkpt lat="46.1657" lon="5.62026">
        <ele>845.3</ele>
        <time>2020-05-24T07:08:32Z</time>
      </trkpt>
      <trkpt lat="46.16567" lon="5.62024">
        <ele>845.4</ele>
        <time>2020-05-24T07:08:34Z</time>
      </trkpt>
      <trkpt lat="46.16564" lon="5.62022">
        <ele>845.6</ele>
        <time>2020-05-24T07:08:36Z</time>
      </trkpt>
      <trkpt lat="46.16561" lon="5.62021">
        <ele>845.8</ele>
        <time>2020-05-24T07:08:38Z</time>
      </trkpt>
      <trkpt lat="46.16557" lon="5.6202">
        <ele>846</ele>
        <time>2020-05-24T07:08:40Z</time>
      </trkpt>
      <trkpt lat="46.16553" lon="5.62019">
        <ele>846.2</ele>
        <time>2020-05-24T07:08:41Z</time>
      </trkpt>
      <trkpt lat="46.16548" lon="5.6202">
        <ele>846.5</ele>
        <time>2020-05-24T07:08:43Z</time>
      </trkpt>
      <trkpt lat="46.16544" lon="5.62019">
        <ele>846.7</ele>
        <time>2020-05-24T07:08:45Z</time>
      </trkpt>
      <trkpt lat="46.16542" lon="5.62017">
        <ele>846.9</ele>
        <time>2020-05-24T07:08:47Z</time>
      </trkpt>
      <trkpt lat="46.16541" lon="5.62016">
        <ele>847</ele>
        <time>2020-05-24T07:08:49Z</time>
      </trkpt>
      <trkpt lat="46.16537" lon="5.62014">
        <ele>847.2</ele>
        <time>2020-05-24T07:08:51Z</time>
      </trkpt>
      <trkpt lat="46.16534" lon="5.62012">
        <ele>847.4</ele>
        <time>2020-05-24T07:08:53Z</time>
      </trkpt>
      <trkpt lat="46.16533" lon="5.62011">
        <ele>847.5</ele>
        <time>2020-05-24T07:08:55Z</time>
      </trkpt>
      <trkpt lat="46.16533" lon="5.62011">
        <ele>847.5</ele>
        <time>2020-05-24T07:08:56Z</time>
      </trkpt>
      <trkpt lat="46.1653" lon="5.62009">
        <ele>847.8</ele>
        <time>2020-05-24T07:08:58Z</time>
      </trkpt>
      <trkpt lat="46.16529" lon="5.62008">
        <ele>847.8</ele>
        <time>2020-05-24T07:08:59Z</time>
      </trkpt>
      <trkpt lat="46.16526" lon="5.62005">
        <ele>848.1</ele>
        <time>2020-05-24T07:09:01Z</time>
      </trkpt>
      <trkpt lat="46.16523" lon="5.62003">
        <ele>848.3</ele>
        <time>2020-05-24T07:09:03Z</time>
      </trkpt>
      <trkpt lat="46.16521" lon="5.62002">
        <ele>848.6</ele>
        <time>2020-05-24T07:09:05Z</time>
      </trkpt>
      <trkpt lat="46.16518" lon="5.62">
        <ele>848.9</ele>
        <time>2020-05-24T07:09:07Z</time>
      </trkpt>
      <trkpt lat="46.16515" lon="5.61999">
        <ele>849.1</ele>
        <time>2020-05-24T07:09:09Z</time>
      </trkpt>
      <trkpt lat="46.16515" lon="5.61999">
        <ele>849.2</ele>
        <time>2020-05-24T07:09:10Z</time>
      </trkpt>
      <trkpt lat="46.1651" lon="5.61997">
        <ele>849.6</ele>
        <time>2020-05-24T07:09:12Z</time>
      </trkpt>
      <trkpt lat="46.16508" lon="5.61996">
        <ele>849.9</ele>
        <time>2020-05-24T07:09:13Z</time>
      </trkpt>
      <trkpt lat="46.16502" lon="5.61989">
        <ele>850.8</ele>
        <time>2020-05-24T07:09:15Z</time>
      </trkpt>
      <trkpt lat="46.16497" lon="5.61984">
        <ele>851.5</ele>
        <time>2020-05-24T07:09:17Z</time>
      </trkpt>
      <trkpt lat="46.16491" lon="5.61984">
        <ele>852.1</ele>
        <time>2020-05-24T07:09:19Z</time>
      </trkpt>
      <trkpt lat="46.16486" lon="5.61986">
        <ele>852.6</ele>
        <time>2020-05-24T07:09:21Z</time>
      </trkpt>
      <trkpt lat="46.16481" lon="5.61987">
        <ele>853</ele>
        <time>2020-05-24T07:09:23Z</time>
      </trkpt>
      <trkpt lat="46.1648" lon="5.61987">
        <ele>853.1</ele>
        <time>2020-05-24T07:09:24Z</time>
      </trkpt>
      <trkpt lat="46.16477" lon="5.61987">
        <ele>853.3</ele>
        <time>2020-05-24T07:09:26Z</time>
      </trkpt>
      <trkpt lat="46.16475" lon="5.61988">
        <ele>853.5</ele>
        <time>2020-05-24T07:09:27Z</time>
      </trkpt>
      <trkpt lat="46.1647" lon="5.6199">
        <ele>853.7</ele>
        <time>2020-05-24T07:09:29Z</time>
      </trkpt>
      <trkpt lat="46.16466" lon="5.61991">
        <ele>854</ele>
        <time>2020-05-24T07:09:31Z</time>
      </trkpt>
      <trkpt lat="46.16462" lon="5.6199">
        <ele>854.2</ele>
        <time>2020-05-24T07:09:33Z</time>
      </trkpt>
      <trkpt lat="46.1646" lon="5.6199">
        <ele>854.3</ele>
        <time>2020-05-24T07:09:34Z</time>
      </trkpt>
      <trkpt lat="46.16458" lon="5.6199">
        <ele>854.4</ele>
        <time>2020-05-24T07:09:35Z</time>
      </trkpt>
      <trkpt lat="46.16455" lon="5.61991">
        <ele>854.7</ele>
        <time>2020-05-24T07:09:37Z</time>
      </trkpt>
      <trkpt lat="46.16451" lon="5.6199">
        <ele>854.9</ele>
        <time>2020-05-24T07:09:39Z</time>
      </trkpt>
      <trkpt lat="46.16446" lon="5.6199">
        <ele>855.2</ele>
        <time>2020-05-24T07:09:41Z</time>
      </trkpt>
      <trkpt lat="46.16441" lon="5.6199">
        <ele>855.5</ele>
        <time>2020-05-24T07:09:43Z</time>
      </trkpt>
      <trkpt lat="46.1644" lon="5.61989">
        <ele>855.6</ele>
        <time>2020-05-24T07:09:44Z</time>
      </trkpt>
      <trkpt lat="46.16435" lon="5.6199">
        <ele>855.9</ele>
        <time>2020-05-24T07:09:46Z</time>
      </trkpt>
      <trkpt lat="46.16431" lon="5.6199">
        <ele>856.2</ele>
        <time>2020-05-24T07:09:48Z</time>
      </trkpt>
      <trkpt lat="46.16429" lon="5.6199">
        <ele>856.3</ele>
        <time>2020-05-24T07:09:49Z</time>
      </trkpt>
      <trkpt lat="46.16427" lon="5.6199">
        <ele>856.5</ele>
        <time>2020-05-24T07:09:50Z</time>
      </trkpt>
      <trkpt lat="46.16424" lon="5.6199">
        <ele>856.7</ele>
        <time>2020-05-24T07:09:52Z</time>
      </trkpt>
      <trkpt lat="46.16421" lon="5.61992">
        <ele>857</ele>
        <time>2020-05-24T07:09:54Z</time>
      </trkpt>
      <trkpt lat="46.1642" lon="5.61992">
        <ele>857.1</ele>
        <time>2020-05-24T07:09:56Z</time>
      </trkpt>
      <trkpt lat="46.16418" lon="5.61992">
        <ele>857.2</ele>
        <time>2020-05-24T07:09:58Z</time>
      </trkpt>
      <trkpt lat="46.16415" lon="5.61991">
        <ele>857.4</ele>
        <time>2020-05-24T07:10:00Z</time>
      </trkpt>
      <trkpt lat="46.16414" lon="5.6199">
        <ele>857.5</ele>
        <time>2020-05-24T07:10:01Z</time>
      </trkpt>
      <trkpt lat="46.16412" lon="5.61989">
        <ele>857.6</ele>
        <time>2020-05-24T07:10:02Z</time>
      </trkpt>
      <trkpt lat="46.16409" lon="5.61986">
        <ele>858</ele>
        <time>2020-05-24T07:10:04Z</time>
      </trkpt>
      <trkpt lat="46.16406" lon="5.61985">
        <ele>858.2</ele>
        <time>2020-05-24T07:10:05Z</time>
      </trkpt>
      <trkpt lat="46.16404" lon="5.61985">
        <ele>858.3</ele>
        <time>2020-05-24T07:10:06Z</time>
      </trkpt>
      <trkpt lat="46.16399" lon="5.61986">
        <ele>858.6</ele>
        <time>2020-05-24T07:10:08Z</time>
      </trkpt>
      <trkpt lat="46.16393" lon="5.61985">
        <ele>859.1</ele>
        <time>2020-05-24T07:10:10Z</time>
      </trkpt>
      <trkpt lat="46.1639" lon="5.61985">
        <ele>859.3</ele>
        <time>2020-05-24T07:10:11Z</time>
      </trkpt>
      <trkpt lat="46.16386" lon="5.61983">
        <ele>859.7</ele>
        <time>2020-05-24T07:10:13Z</time>
      </trkpt>
      <trkpt lat="46.16384" lon="5.61982">
        <ele>859.8</ele>
        <time>2020-05-24T07:10:14Z</time>
      </trkpt>
      <trkpt lat="46.16379" lon="5.61981">
        <ele>860.2</ele>
        <time>2020-05-24T07:10:16Z</time>
      </trkpt>
      <trkpt lat="46.16376" lon="5.61981">
        <ele>860.5</ele>
        <time>2020-05-24T07:10:17Z</time>
      </trkpt>
      <trkpt lat="46.16371" lon="5.61981">
        <ele>860.9</ele>
        <time>2020-05-24T07:10:19Z</time>
      </trkpt>
      <trkpt lat="46.16367" lon="5.61981">
        <ele>861.2</ele>
        <time>2020-05-24T07:10:20Z</time>
      </trkpt>
      <trkpt lat="46.16367" lon="5.61981">
        <ele>861.2</ele>
        <time>2020-05-24T07:10:21Z</time>
      </trkpt>
      <trkpt lat="46.16363" lon="5.6198">
        <ele>861.5</ele>
        <time>2020-05-24T07:10:23Z</time>
      </trkpt>
      <trkpt lat="46.1636" lon="5.61979">
        <ele>861.8</ele>
        <time>2020-05-24T07:10:25Z</time>
      </trkpt>
      <trkpt lat="46.16357" lon="5.61979">
        <ele>862.1</ele>
        <time>2020-05-24T07:10:27Z</time>
      </trkpt>
      <trkpt lat="46.16354" lon="5.61979">
        <ele>862.3</ele>
        <time>2020-05-24T07:10:29Z</time>
      </trkpt>
      <trkpt lat="46.1635" lon="5.61979">
        <ele>862.7</ele>
        <time>2020-05-24T07:10:31Z</time>
      </trkpt>
      <trkpt lat="46.16348" lon="5.6198">
        <ele>862.8</ele>
        <time>2020-05-24T07:10:32Z</time>
      </trkpt>
      <trkpt lat="46.16347" lon="5.61981">
        <ele>863</ele>
        <time>2020-05-24T07:10:33Z</time>
      </trkpt>
      <trkpt lat="46.16347" lon="5.61981">
        <ele>863</ele>
        <time>2020-05-24T07:10:35Z</time>
      </trkpt>
      <trkpt lat="46.16346" lon="5.61981">
        <ele>863.1</ele>
        <time>2020-05-24T07:10:36Z</time>
      </trkpt>
      <trkpt lat="46.16344" lon="5.61981">
        <ele>863.3</ele>
        <time>2020-05-24T07:10:38Z</time>
      </trkpt>
      <trkpt lat="46.16343" lon="5.6198">
        <ele>863.4</ele>
        <time>2020-05-24T07:10:39Z</time>
      </trkpt>
      <trkpt lat="46.16343" lon="5.6198">
        <ele>863.4</ele>
        <time>2020-05-24T07:10:41Z</time>
      </trkpt>
      <trkpt lat="46.16342" lon="5.6198">
        <ele>863.5</ele>
        <time>2020-05-24T07:10:42Z</time>
      </trkpt>
      <trkpt lat="46.1634" lon="5.61978">
        <ele>863.7</ele>
        <time>2020-05-24T07:10:44Z</time>
      </trkpt>
      <trkpt lat="46.16339" lon="5.61977">
        <ele>863.7</ele>
        <time>2020-05-24T07:10:45Z</time>
      </trkpt>
      <trkpt lat="46.16339" lon="5.61977">
        <ele>863.8</ele>
        <time>2020-05-24T07:10:47Z</time>
      </trkpt>
      <trkpt lat="46.16338" lon="5.61977">
        <ele>863.9</ele>
        <time>2020-05-24T07:10:48Z</time>
      </trkpt>
      <trkpt lat="46.16334" lon="5.61976">
        <ele>864.2</ele>
        <time>2020-05-24T07:10:50Z</time>
      </trkpt>
      <trkpt lat="46.16333" lon="5.61976">
        <ele>864.4</ele>
        <time>2020-05-24T07:10:51Z</time>
      </trkpt>
      <trkpt lat="46.16332" lon="5.61975">
        <ele>864.4</ele>
        <time>2020-05-24T07:10:53Z</time>
      </trkpt>
      <trkpt lat="46.16332" lon="5.61975">
        <ele>864.5</ele>
        <time>2020-05-24T07:10:54Z</time>
      </trkpt>
      <trkpt lat="46.16331" lon="5.61975">
        <ele>864.6</ele>
        <time>2020-05-24T07:10:55Z</time>
      </trkpt>
      <trkpt lat="46.1633" lon="5.61975">
        <ele>864.7</ele>
        <time>2020-05-24T07:10:56Z</time>
      </trkpt>
      <trkpt lat="46.16329" lon="5.61974">
        <ele>864.7</ele>
        <time>2020-05-24T07:10:57Z</time>
      </trkpt>
      <trkpt lat="46.16329" lon="5.61973">
        <ele>864.8</ele>
        <time>2020-05-24T07:10:59Z</time>
      </trkpt>
      <trkpt lat="46.16329" lon="5.61972">
        <ele>864.9</ele>
        <time>2020-05-24T07:11:00Z</time>
      </trkpt>
      <trkpt lat="46.16328" lon="5.61971">
        <ele>865</ele>
        <time>2020-05-24T07:11:02Z</time>
      </trkpt>
      <trkpt lat="46.16327" lon="5.61968">
        <ele>865.2</ele>
        <time>2020-05-24T07:11:04Z</time>
      </trkpt>
      <trkpt lat="46.16326" lon="5.61967">
        <ele>865.3</ele>
        <time>2020-05-24T07:11:05Z</time>
      </trkpt>
      <trkpt lat="46.16326" lon="5.61966">
        <ele>865.4</ele>
        <time>2020-05-24T07:11:07Z</time>
      </trkpt>
      <trkpt lat="46.16324" lon="5.61962">
        <ele>865.7</ele>
        <time>2020-05-24T07:11:09Z</time>
      </trkpt>
      <trkpt lat="46.16323" lon="5.61961">
        <ele>865.9</ele>
        <time>2020-05-24T07:11:10Z</time>
      </trkpt>
      <trkpt lat="46.1632" lon="5.61959">
        <ele>866.2</ele>
        <time>2020-05-24T07:11:12Z</time>
      </trkpt>
      <trkpt lat="46.16318" lon="5.61958">
        <ele>866.4</ele>
        <time>2020-05-24T07:11:13Z</time>
      </trkpt>
      <trkpt lat="46.16318" lon="5.61958">
        <ele>866.5</ele>
        <time>2020-05-24T07:11:15Z</time>
      </trkpt>
      <trkpt lat="46.16316" lon="5.61957">
        <ele>866.8</ele>
        <time>2020-05-24T07:11:17Z</time>
      </trkpt>
      <trkpt lat="46.16315" lon="5.61956">
        <ele>867</ele>
        <time>2020-05-24T07:11:19Z</time>
      </trkpt>
      <trkpt lat="46.16314" lon="5.61956">
        <ele>867</ele>
        <time>2020-05-24T07:11:20Z</time>
      </trkpt>
      <trkpt lat="46.16314" lon="5.61956">
        <ele>867.1</ele>
        <time>2020-05-24T07:11:22Z</time>
      </trkpt>
      <trkpt lat="46.16313" lon="5.61955">
        <ele>867.2</ele>
        <time>2020-05-24T07:11:23Z</time>
      </trkpt>
      <trkpt lat="46.16312" lon="5.61953">
        <ele>867.6</ele>
        <time>2020-05-24T07:11:25Z</time>
      </trkpt>
      <trkpt lat="46.16311" lon="5.61951">
        <ele>867.8</ele>
        <time>2020-05-24T07:11:27Z</time>
      </trkpt>
      <trkpt lat="46.1631" lon="5.61951">
        <ele>867.9</ele>
        <time>2020-05-24T07:11:28Z</time>
      </trkpt>
      <trkpt lat="46.16309" lon="5.6195">
        <ele>868.1</ele>
        <time>2020-05-24T07:11:30Z</time>
      </trkpt>
      <trkpt lat="46.16308" lon="5.61948">
        <ele>868.5</ele>
        <time>2020-05-24T07:11:32Z</time>
      </trkpt>
      <trkpt lat="46.16308" lon="5.61947">
        <ele>868.6</ele>
        <time>2020-05-24T07:11:33Z</time>
      </trkpt>
      <trkpt lat="46.16307" lon="5.61947">
        <ele>868.8</ele>
        <time>2020-05-24T07:11:35Z</time>
      </trkpt>
      <trkpt lat="46.16304" lon="5.61946">
        <ele>869.2</ele>
        <time>2020-05-24T07:11:37Z</time>
      </trkpt>
      <trkpt lat="46.16302" lon="5.61945">
        <ele>869.5</ele>
        <time>2020-05-24T07:11:39Z</time>
      </trkpt>
      <trkpt lat="46.16301" lon="5.61944">
        <ele>869.8</ele>
        <time>2020-05-24T07:11:41Z</time>
      </trkpt>
      <trkpt lat="46.163" lon="5.61943">
        <ele>870.1</ele>
        <time>2020-05-24T07:11:43Z</time>
      </trkpt>
      <trkpt lat="46.16297" lon="5.61941">
        <ele>870.6</ele>
        <time>2020-05-24T07:11:45Z</time>
      </trkpt>
      <trkpt lat="46.16296" lon="5.61939">
        <ele>870.9</ele>
        <time>2020-05-24T07:11:47Z</time>
      </trkpt>
      <trkpt lat="46.16296" lon="5.61939">
        <ele>871</ele>
        <time>2020-05-24T07:11:48Z</time>
      </trkpt>
      <trkpt lat="46.16296" lon="5.61939">
        <ele>871</ele>
        <time>2020-05-24T07:11:49Z</time>
      </trkpt>
      <trkpt lat="46.16295" lon="5.61938">
        <ele>871.1</ele>
        <time>2020-05-24T07:11:50Z</time>
      </trkpt>
      <trkpt lat="46.16292" lon="5.61936">
        <ele>871.6</ele>
        <time>2020-05-24T07:11:52Z</time>
      </trkpt>
      <trkpt lat="46.1629" lon="5.61936">
        <ele>871.9</ele>
        <time>2020-05-24T07:11:54Z</time>
      </trkpt>
      <trkpt lat="46.1629" lon="5.61936">
        <ele>871.9</ele>
        <time>2020-05-24T07:11:55Z</time>
      </trkpt>
      <trkpt lat="46.16288" lon="5.61934">
        <ele>872.2</ele>
        <time>2020-05-24T07:11:57Z</time>
      </trkpt>
      <trkpt lat="46.16286" lon="5.61932">
        <ele>872.5</ele>
        <time>2020-05-24T07:11:59Z</time>
      </trkpt>
      <trkpt lat="46.16285" lon="5.6193">
        <ele>872.7</ele>
        <time>2020-05-24T07:12:01Z</time>
      </trkpt>
      <trkpt lat="46.16284" lon="5.61928">
        <ele>873</ele>
        <time>2020-05-24T07:12:03Z</time>
      </trkpt>
      <trkpt lat="46.16283" lon="5.61927">
        <ele>873.1</ele>
        <time>2020-05-24T07:12:04Z</time>
      </trkpt>
      <trkpt lat="46.16282" lon="5.61927">
        <ele>873.2</ele>
        <time>2020-05-24T07:12:05Z</time>
      </trkpt>
      <trkpt lat="46.16281" lon="5.61925">
        <ele>873.5</ele>
        <time>2020-05-24T07:12:07Z</time>
      </trkpt>
      <trkpt lat="46.1628" lon="5.61924">
        <ele>873.6</ele>
        <time>2020-05-24T07:12:08Z</time>
      </trkpt>
      <trkpt lat="46.16279" lon="5.61924">
        <ele>873.7</ele>
        <time>2020-05-24T07:12:09Z</time>
      </trkpt>
      <trkpt lat="46.16277" lon="5.61922">
        <ele>873.9</ele>
        <time>2020-05-24T07:12:11Z</time>
      </trkpt>
      <trkpt lat="46.16276" lon="5.61921">
        <ele>874.1</ele>
        <time>2020-05-24T07:12:12Z</time>
      </trkpt>
      <trkpt lat="46.16274" lon="5.61919">
        <ele>874.3</ele>
        <time>2020-05-24T07:12:14Z</time>
      </trkpt>
      <trkpt lat="46.16274" lon="5.61919">
        <ele>874.3</ele>
        <time>2020-05-24T07:12:15Z</time>
      </trkpt>
      <trkpt lat="46.16273" lon="5.61918">
        <ele>874.4</ele>
        <time>2020-05-24T07:12:16Z</time>
      </trkpt>
      <trkpt lat="46.16272" lon="5.61917">
        <ele>874.6</ele>
        <time>2020-05-24T07:12:17Z</time>
      </trkpt>
      <trkpt lat="46.1627" lon="5.61915">
        <ele>874.7</ele>
        <time>2020-05-24T07:12:19Z</time>
      </trkpt>
      <trkpt lat="46.1627" lon="5.61914">
        <ele>874.8</ele>
        <time>2020-05-24T07:12:20Z</time>
      </trkpt>
      <trkpt lat="46.1627" lon="5.61913">
        <ele>874.8</ele>
        <time>2020-05-24T07:12:22Z</time>
      </trkpt>
      <trkpt lat="46.1627" lon="5.61913">
        <ele>874.8</ele>
        <time>2020-05-24T07:12:23Z</time>
      </trkpt>
      <trkpt lat="46.1627" lon="5.61913">
        <ele>874.9</ele>
        <time>2020-05-24T07:12:24Z</time>
      </trkpt>
      <trkpt lat="46.1627" lon="5.61912">
        <ele>874.9</ele>
        <time>2020-05-24T07:12:25Z</time>
      </trkpt>
      <trkpt lat="46.1627" lon="5.61911">
        <ele>874.9</ele>
        <time>2020-05-24T07:12:27Z</time>
      </trkpt>
      <trkpt lat="46.1627" lon="5.61911">
        <ele>874.9</ele>
        <time>2020-05-24T07:12:28Z</time>
      </trkpt>
      <trkpt lat="46.1627" lon="5.61911">
        <ele>875</ele>
        <time>2020-05-24T07:12:30Z</time>
      </trkpt>
      <trkpt lat="46.16272" lon="5.6191">
        <ele>875.1</ele>
        <time>2020-05-24T07:12:38Z</time>
      </trkpt>
      <trkpt lat="46.16272" lon="5.61908">
        <ele>875.1</ele>
        <time>2020-05-24T07:12:40Z</time>
      </trkpt>
      <trkpt lat="46.16272" lon="5.61908">
        <ele>875.1</ele>
        <time>2020-05-24T07:12:42Z</time>
      </trkpt>
      <trkpt lat="46.16272" lon="5.61907">
        <ele>875.2</ele>
        <time>2020-05-24T07:12:44Z</time>
      </trkpt>
      <trkpt lat="46.16272" lon="5.61904">
        <ele>875.2</ele>
        <time>2020-05-24T07:12:46Z</time>
      </trkpt>
      <trkpt lat="46.16271" lon="5.61903">
        <ele>875.3</ele>
        <time>2020-05-24T07:12:48Z</time>
      </trkpt>
      <trkpt lat="46.1627" lon="5.61902">
        <ele>875.4</ele>
        <time>2020-05-24T07:12:50Z</time>
      </trkpt>
      <trkpt lat="46.16266" lon="5.619">
        <ele>875.4</ele>
        <time>2020-05-24T07:12:52Z</time>
      </trkpt>
      <trkpt lat="46.16265" lon="5.61899">
        <ele>875.5</ele>
        <time>2020-05-24T07:12:53Z</time>
      </trkpt>
      <trkpt lat="46.16263" lon="5.61898">
        <ele>875.5</ele>
        <time>2020-05-24T07:12:55Z</time>
      </trkpt>
      <trkpt lat="46.16262" lon="5.61897">
        <ele>875.5</ele>
        <time>2020-05-24T07:12:56Z</time>
      </trkpt>
      <trkpt lat="46.16262" lon="5.61897">
        <ele>875.5</ele>
        <time>2020-05-24T07:12:57Z</time>
      </trkpt>
      <trkpt lat="46.16261" lon="5.61897">
        <ele>875.5</ele>
        <time>2020-05-24T07:12:58Z</time>
      </trkpt>
      <trkpt lat="46.16258" lon="5.61895">
        <ele>875.6</ele>
        <time>2020-05-24T07:13:00Z</time>
      </trkpt>
      <trkpt lat="46.16256" lon="5.61895">
        <ele>875.6</ele>
        <time>2020-05-24T07:13:01Z</time>
      </trkpt>
      <trkpt lat="46.16255" lon="5.61894">
        <ele>875.6</ele>
        <time>2020-05-24T07:13:02Z</time>
      </trkpt>
      <trkpt lat="46.16253" lon="5.61893">
        <ele>875.6</ele>
        <time>2020-05-24T07:13:03Z</time>
      </trkpt>
      <trkpt lat="46.16252" lon="5.61892">
        <ele>875.6</ele>
        <time>2020-05-24T07:13:04Z</time>
      </trkpt>
      <trkpt lat="46.16249" lon="5.61891">
        <ele>875.6</ele>
        <time>2020-05-24T07:13:06Z</time>
      </trkpt>
      <trkpt lat="46.16245" lon="5.61891">
        <ele>875.7</ele>
        <time>2020-05-24T07:13:08Z</time>
      </trkpt>
      <trkpt lat="46.16243" lon="5.6189">
        <ele>875.7</ele>
        <time>2020-05-24T07:13:09Z</time>
      </trkpt>
      <trkpt lat="46.16242" lon="5.6189">
        <ele>875.7</ele>
        <time>2020-05-24T07:13:10Z</time>
      </trkpt>
      <trkpt lat="46.16238" lon="5.61889">
        <ele>875.8</ele>
        <time>2020-05-24T07:13:12Z</time>
      </trkpt>
      <trkpt lat="46.16236" lon="5.61889">
        <ele>875.8</ele>
        <time>2020-05-24T07:13:13Z</time>
      </trkpt>
      <trkpt lat="46.16233" lon="5.61888">
        <ele>875.9</ele>
        <time>2020-05-24T07:13:15Z</time>
      </trkpt>
      <trkpt lat="46.16229" lon="5.61885">
        <ele>875.9</ele>
        <time>2020-05-24T07:13:17Z</time>
      </trkpt>
      <trkpt lat="46.16228" lon="5.61884">
        <ele>875.9</ele>
        <time>2020-05-24T07:13:18Z</time>
      </trkpt>
      <trkpt lat="46.16225" lon="5.61882">
        <ele>876</ele>
        <time>2020-05-24T07:13:20Z</time>
      </trkpt>
      <trkpt lat="46.16221" lon="5.61881">
        <ele>876</ele>
        <time>2020-05-24T07:13:22Z</time>
      </trkpt>
      <trkpt lat="46.16218" lon="5.61879">
        <ele>876.1</ele>
        <time>2020-05-24T07:13:24Z</time>
      </trkpt>
      <trkpt lat="46.16216" lon="5.61878">
        <ele>876.1</ele>
        <time>2020-05-24T07:13:25Z</time>
      </trkpt>
      <trkpt lat="46.16213" lon="5.61878">
        <ele>876.1</ele>
        <time>2020-05-24T07:13:27Z</time>
      </trkpt>
      <trkpt lat="46.1621" lon="5.61877">
        <ele>876.2</ele>
        <time>2020-05-24T07:13:29Z</time>
      </trkpt>
      <trkpt lat="46.16207" lon="5.61877">
        <ele>876.2</ele>
        <time>2020-05-24T07:13:31Z</time>
      </trkpt>
      <trkpt lat="46.16204" lon="5.61876">
        <ele>876.3</ele>
        <time>2020-05-24T07:13:33Z</time>
      </trkpt>
      <trkpt lat="46.16203" lon="5.61875">
        <ele>876.3</ele>
        <time>2020-05-24T07:13:34Z</time>
      </trkpt>
      <trkpt lat="46.16201" lon="5.61873">
        <ele>876.3</ele>
        <time>2020-05-24T07:13:36Z</time>
      </trkpt>
      <trkpt lat="46.16198" lon="5.61871">
        <ele>876.4</ele>
        <time>2020-05-24T07:13:38Z</time>
      </trkpt>
      <trkpt lat="46.16195" lon="5.6187">
        <ele>876.5</ele>
        <time>2020-05-24T07:13:40Z</time>
      </trkpt>
      <trkpt lat="46.16192" lon="5.61871">
        <ele>876.6</ele>
        <time>2020-05-24T07:13:42Z</time>
      </trkpt>
      <trkpt lat="46.1619" lon="5.61871">
        <ele>876.6</ele>
        <time>2020-05-24T07:13:43Z</time>
      </trkpt>
      <trkpt lat="46.16187" lon="5.61872">
        <ele>876.7</ele>
        <time>2020-05-24T07:13:45Z</time>
      </trkpt>
      <trkpt lat="46.16183" lon="5.61871">
        <ele>876.8</ele>
        <time>2020-05-24T07:13:47Z</time>
      </trkpt>
      <trkpt lat="46.16181" lon="5.61869">
        <ele>877</ele>
        <time>2020-05-24T07:13:49Z</time>
      </trkpt>
      <trkpt lat="46.16179" lon="5.61868">
        <ele>877</ele>
        <time>2020-05-24T07:13:50Z</time>
      </trkpt>
      <trkpt lat="46.16177" lon="5.61865">
        <ele>877.2</ele>
        <time>2020-05-24T07:13:52Z</time>
      </trkpt>
      <trkpt lat="46.16175" lon="5.61863">
        <ele>877.3</ele>
        <time>2020-05-24T07:13:53Z</time>
      </trkpt>
      <trkpt lat="46.16174" lon="5.61858">
        <ele>877.5</ele>
        <time>2020-05-24T07:13:55Z</time>
      </trkpt>
      <trkpt lat="46.16173" lon="5.61855">
        <ele>877.6</ele>
        <time>2020-05-24T07:13:56Z</time>
      </trkpt>
      <trkpt lat="46.16172" lon="5.61851">
        <ele>877.8</ele>
        <time>2020-05-24T07:13:58Z</time>
      </trkpt>
      <trkpt lat="46.16171" lon="5.61846">
        <ele>878</ele>
        <time>2020-05-24T07:14:00Z</time>
      </trkpt>
      <trkpt lat="46.16171" lon="5.61845">
        <ele>878.1</ele>
        <time>2020-05-24T07:14:01Z</time>
      </trkpt>
      <trkpt lat="46.16172" lon="5.61842">
        <ele>878.2</ele>
        <time>2020-05-24T07:14:02Z</time>
      </trkpt>
      <trkpt lat="46.16173" lon="5.61836">
        <ele>878.5</ele>
        <time>2020-05-24T07:14:04Z</time>
      </trkpt>
      <trkpt lat="46.16176" lon="5.61833">
        <ele>878.7</ele>
        <time>2020-05-24T07:14:06Z</time>
      </trkpt>
      <trkpt lat="46.16177" lon="5.6183">
        <ele>878.9</ele>
        <time>2020-05-24T07:14:08Z</time>
      </trkpt>
      <trkpt lat="46.16179" lon="5.61826">
        <ele>879.1</ele>
        <time>2020-05-24T07:14:10Z</time>
      </trkpt>
      <trkpt lat="46.16179" lon="5.61825">
        <ele>879.1</ele>
        <time>2020-05-24T07:14:11Z</time>
      </trkpt>
      <trkpt lat="46.16179" lon="5.61825">
        <ele>879.2</ele>
        <time>2020-05-24T07:14:12Z</time>
      </trkpt>
      <trkpt lat="46.1618" lon="5.61823">
        <ele>879.2</ele>
        <time>2020-05-24T07:14:14Z</time>
      </trkpt>
      <trkpt lat="46.16181" lon="5.61817">
        <ele>879.5</ele>
        <time>2020-05-24T07:14:16Z</time>
      </trkpt>
      <trkpt lat="46.16182" lon="5.61812">
        <ele>879.7</ele>
        <time>2020-05-24T07:14:18Z</time>
      </trkpt>
      <trkpt lat="46.16181" lon="5.61807">
        <ele>879.9</ele>
        <time>2020-05-24T07:14:20Z</time>
      </trkpt>
      <trkpt lat="46.16181" lon="5.61805">
        <ele>880</ele>
        <time>2020-05-24T07:14:21Z</time>
      </trkpt>
      <trkpt lat="46.16181" lon="5.61803">
        <ele>880.1</ele>
        <time>2020-05-24T07:14:22Z</time>
      </trkpt>
      <trkpt lat="46.16181" lon="5.618">
        <ele>880.2</ele>
        <time>2020-05-24T07:14:23Z</time>
      </trkpt>
      <trkpt lat="46.16182" lon="5.61796">
        <ele>880.3</ele>
        <time>2020-05-24T07:14:25Z</time>
      </trkpt>
      <trkpt lat="46.16181" lon="5.61792">
        <ele>880.5</ele>
        <time>2020-05-24T07:14:27Z</time>
      </trkpt>
      <trkpt lat="46.16181" lon="5.61791">
        <ele>880.5</ele>
        <time>2020-05-24T07:14:28Z</time>
      </trkpt>
      <trkpt lat="46.16181" lon="5.61789">
        <ele>880.6</ele>
        <time>2020-05-24T07:14:29Z</time>
      </trkpt>
      <trkpt lat="46.1618" lon="5.61784">
        <ele>880.7</ele>
        <time>2020-05-24T07:14:31Z</time>
      </trkpt>
      <trkpt lat="46.1618" lon="5.61778">
        <ele>880.8</ele>
        <time>2020-05-24T07:14:33Z</time>
      </trkpt>
      <trkpt lat="46.1618" lon="5.61772">
        <ele>880.9</ele>
        <time>2020-05-24T07:14:35Z</time>
      </trkpt>
      <trkpt lat="46.16179" lon="5.61765">
        <ele>880.9</ele>
        <time>2020-05-24T07:14:37Z</time>
      </trkpt>
      <trkpt lat="46.16179" lon="5.61761">
        <ele>880.8</ele>
        <time>2020-05-24T07:14:38Z</time>
      </trkpt>
      <trkpt lat="46.16177" lon="5.61751">
        <ele>880.6</ele>
        <time>2020-05-24T07:14:40Z</time>
      </trkpt>
      <trkpt lat="46.16176" lon="5.61743">
        <ele>880.3</ele>
        <time>2020-05-24T07:14:42Z</time>
      </trkpt>
      <trkpt lat="46.16174" lon="5.61736">
        <ele>879.9</ele>
        <time>2020-05-24T07:14:44Z</time>
      </trkpt>
      <trkpt lat="46.16173" lon="5.61733">
        <ele>879.9</ele>
        <time>2020-05-24T07:14:45Z</time>
      </trkpt>
      <trkpt lat="46.1617" lon="5.61728">
        <ele>880.2</ele>
        <time>2020-05-24T07:14:47Z</time>
      </trkpt>
      <trkpt lat="46.16169" lon="5.61725">
        <ele>880.3</ele>
        <time>2020-05-24T07:14:48Z</time>
      </trkpt>
      <trkpt lat="46.16165" lon="5.61721">
        <ele>880.5</ele>
        <time>2020-05-24T07:14:50Z</time>
      </trkpt>
      <trkpt lat="46.16161" lon="5.61719">
        <ele>880.7</ele>
        <time>2020-05-24T07:14:51Z</time>
      </trkpt>
      <trkpt lat="46.1616" lon="5.61719">
        <ele>880.8</ele>
        <time>2020-05-24T07:14:52Z</time>
      </trkpt>
      <trkpt lat="46.16156" lon="5.61716">
        <ele>881</ele>
        <time>2020-05-24T07:14:54Z</time>
      </trkpt>
      <trkpt lat="46.16154" lon="5.61714">
        <ele>881.1</ele>
        <time>2020-05-24T07:14:55Z</time>
      </trkpt>
      <trkpt lat="46.1615" lon="5.61711">
        <ele>881.3</ele>
        <time>2020-05-24T07:14:57Z</time>
      </trkpt>
      <trkpt lat="46.16147" lon="5.61709">
        <ele>881.4</ele>
        <time>2020-05-24T07:14:58Z</time>
      </trkpt>
      <trkpt lat="46.16146" lon="5.61708">
        <ele>881.4</ele>
        <time>2020-05-24T07:14:59Z</time>
      </trkpt>
      <trkpt lat="46.16145" lon="5.61707">
        <ele>881.5</ele>
        <time>2020-05-24T07:15:00Z</time>
      </trkpt>
      <trkpt lat="46.16142" lon="5.61706">
        <ele>881.6</ele>
        <time>2020-05-24T07:15:02Z</time>
      </trkpt>
      <trkpt lat="46.16138" lon="5.61704">
        <ele>881.7</ele>
        <time>2020-05-24T07:15:04Z</time>
      </trkpt>
      <trkpt lat="46.16137" lon="5.61703">
        <ele>881.8</ele>
        <time>2020-05-24T07:15:06Z</time>
      </trkpt>
      <trkpt lat="46.16136" lon="5.61702">
        <ele>881.8</ele>
        <time>2020-05-24T07:15:07Z</time>
      </trkpt>
      <trkpt lat="46.16133" lon="5.617">
        <ele>881.9</ele>
        <time>2020-05-24T07:15:08Z</time>
      </trkpt>
      <trkpt lat="46.16133" lon="5.61699">
        <ele>881.9</ele>
        <time>2020-05-24T07:15:09Z</time>
      </trkpt>
      <trkpt lat="46.16128" lon="5.61697">
        <ele>882</ele>
        <time>2020-05-24T07:15:11Z</time>
      </trkpt>
      <trkpt lat="46.16125" lon="5.61695">
        <ele>882.1</ele>
        <time>2020-05-24T07:15:12Z</time>
      </trkpt>
      <trkpt lat="46.16124" lon="5.61695">
        <ele>882.1</ele>
        <time>2020-05-24T07:15:13Z</time>
      </trkpt>
      <trkpt lat="46.16121" lon="5.61693">
        <ele>882.2</ele>
        <time>2020-05-24T07:15:15Z</time>
      </trkpt>
      <trkpt lat="46.16119" lon="5.61692">
        <ele>882.3</ele>
        <time>2020-05-24T07:15:16Z</time>
      </trkpt>
      <trkpt lat="46.16116" lon="5.6169">
        <ele>882.4</ele>
        <time>2020-05-24T07:15:18Z</time>
      </trkpt>
      <trkpt lat="46.16112" lon="5.61688">
        <ele>882.4</ele>
        <time>2020-05-24T07:15:20Z</time>
      </trkpt>
      <trkpt lat="46.16108" lon="5.61685">
        <ele>882.5</ele>
        <time>2020-05-24T07:15:22Z</time>
      </trkpt>
      <trkpt lat="46.16106" lon="5.61684">
        <ele>882.5</ele>
        <time>2020-05-24T07:15:23Z</time>
      </trkpt>
      <trkpt lat="46.16102" lon="5.61681">
        <ele>882.5</ele>
        <time>2020-05-24T07:15:25Z</time>
      </trkpt>
      <trkpt lat="46.16096" lon="5.61677">
        <ele>882.4</ele>
        <time>2020-05-24T07:15:27Z</time>
      </trkpt>
      <trkpt lat="46.16093" lon="5.61674">
        <ele>882.4</ele>
        <time>2020-05-24T07:15:28Z</time>
      </trkpt>
      <trkpt lat="46.16086" lon="5.61671">
        <ele>882.3</ele>
        <time>2020-05-24T07:15:30Z</time>
      </trkpt>
      <trkpt lat="46.1608" lon="5.61669">
        <ele>882.2</ele>
        <time>2020-05-24T07:15:32Z</time>
      </trkpt>
      <trkpt lat="46.16076" lon="5.61666">
        <ele>882.1</ele>
        <time>2020-05-24T07:15:34Z</time>
      </trkpt>
      <trkpt lat="46.16074" lon="5.61665">
        <ele>882.1</ele>
        <time>2020-05-24T07:15:35Z</time>
      </trkpt>
      <trkpt lat="46.16068" lon="5.61663">
        <ele>882.1</ele>
        <time>2020-05-24T07:15:37Z</time>
      </trkpt>
      <trkpt lat="46.16065" lon="5.61663">
        <ele>882.1</ele>
        <time>2020-05-24T07:15:38Z</time>
      </trkpt>
      <trkpt lat="46.1606" lon="5.61661">
        <ele>882.2</ele>
        <time>2020-05-24T07:15:40Z</time>
      </trkpt>
      <trkpt lat="46.16055" lon="5.6166">
        <ele>882.3</ele>
        <time>2020-05-24T07:15:42Z</time>
      </trkpt>
      <trkpt lat="46.16053" lon="5.6166">
        <ele>882.4</ele>
        <time>2020-05-24T07:15:43Z</time>
      </trkpt>
      <trkpt lat="46.1605" lon="5.6166">
        <ele>882.5</ele>
        <time>2020-05-24T07:15:44Z</time>
      </trkpt>
      <trkpt lat="46.16045" lon="5.61659">
        <ele>882.6</ele>
        <time>2020-05-24T07:15:46Z</time>
      </trkpt>
      <trkpt lat="46.1604" lon="5.61657">
        <ele>882.9</ele>
        <time>2020-05-24T07:15:48Z</time>
      </trkpt>
      <trkpt lat="46.16038" lon="5.61655">
        <ele>883</ele>
        <time>2020-05-24T07:15:49Z</time>
      </trkpt>
      <trkpt lat="46.16034" lon="5.61652">
        <ele>883.2</ele>
        <time>2020-05-24T07:15:51Z</time>
      </trkpt>
      <trkpt lat="46.16032" lon="5.61649">
        <ele>883.3</ele>
        <time>2020-05-24T07:15:52Z</time>
      </trkpt>
      <trkpt lat="46.16029" lon="5.61645">
        <ele>883.5</ele>
        <time>2020-05-24T07:15:54Z</time>
      </trkpt>
      <trkpt lat="46.16028" lon="5.61644">
        <ele>883.6</ele>
        <time>2020-05-24T07:15:55Z</time>
      </trkpt>
      <trkpt lat="46.16026" lon="5.6164">
        <ele>883.7</ele>
        <time>2020-05-24T07:15:57Z</time>
      </trkpt>
      <trkpt lat="46.16025" lon="5.61638">
        <ele>883.8</ele>
        <time>2020-05-24T07:15:58Z</time>
      </trkpt>
      <trkpt lat="46.16022" lon="5.61635">
        <ele>884</ele>
        <time>2020-05-24T07:16:00Z</time>
      </trkpt>
      <trkpt lat="46.1602" lon="5.61632">
        <ele>884.2</ele>
        <time>2020-05-24T07:16:02Z</time>
      </trkpt>
      <trkpt lat="46.16018" lon="5.61628">
        <ele>884.4</ele>
        <time>2020-05-24T07:16:04Z</time>
      </trkpt>
      <trkpt lat="46.16017" lon="5.61626">
        <ele>884.5</ele>
        <time>2020-05-24T07:16:05Z</time>
      </trkpt>
      <trkpt lat="46.16015" lon="5.61621">
        <ele>884.8</ele>
        <time>2020-05-24T07:16:07Z</time>
      </trkpt>
      <trkpt lat="46.16014" lon="5.61615">
        <ele>885.2</ele>
        <time>2020-05-24T07:16:09Z</time>
      </trkpt>
      <trkpt lat="46.16013" lon="5.61608">
        <ele>885.5</ele>
        <time>2020-05-24T07:16:11Z</time>
      </trkpt>
      <trkpt lat="46.16012" lon="5.61605">
        <ele>885.8</ele>
        <time>2020-05-24T07:16:12Z</time>
      </trkpt>
      <trkpt lat="46.16012" lon="5.61603">
        <ele>885.8</ele>
        <time>2020-05-24T07:16:13Z</time>
      </trkpt>
      <trkpt lat="46.16011" lon="5.61601">
        <ele>886</ele>
        <time>2020-05-24T07:16:14Z</time>
      </trkpt>
      <trkpt lat="46.16011" lon="5.61595">
        <ele>886.3</ele>
        <time>2020-05-24T07:16:16Z</time>
      </trkpt>
      <trkpt lat="46.16011" lon="5.61589">
        <ele>886.6</ele>
        <time>2020-05-24T07:16:18Z</time>
      </trkpt>
      <trkpt lat="46.16011" lon="5.61586">
        <ele>886.8</ele>
        <time>2020-05-24T07:16:19Z</time>
      </trkpt>
      <trkpt lat="46.16011" lon="5.6158">
        <ele>887</ele>
        <time>2020-05-24T07:16:21Z</time>
      </trkpt>
      <trkpt lat="46.16011" lon="5.61577">
        <ele>887.2</ele>
        <time>2020-05-24T07:16:22Z</time>
      </trkpt>
      <trkpt lat="46.1601" lon="5.61572">
        <ele>887.4</ele>
        <time>2020-05-24T07:16:24Z</time>
      </trkpt>
      <trkpt lat="46.16009" lon="5.61568">
        <ele>887.5</ele>
        <time>2020-05-24T07:16:26Z</time>
      </trkpt>
      <trkpt lat="46.16008" lon="5.61566">
        <ele>887.6</ele>
        <time>2020-05-24T07:16:27Z</time>
      </trkpt>
      <trkpt lat="46.16008" lon="5.61563">
        <ele>887.7</ele>
        <time>2020-05-24T07:16:28Z</time>
      </trkpt>
      <trkpt lat="46.16007" lon="5.61558">
        <ele>887.8</ele>
        <time>2020-05-24T07:16:30Z</time>
      </trkpt>
      <trkpt lat="46.16007" lon="5.61555">
        <ele>887.9</ele>
        <time>2020-05-24T07:16:31Z</time>
      </trkpt>
      <trkpt lat="46.16006" lon="5.6155">
        <ele>888</ele>
        <time>2020-05-24T07:16:33Z</time>
      </trkpt>
      <trkpt lat="46.16004" lon="5.61546">
        <ele>888.2</ele>
        <time>2020-05-24T07:16:35Z</time>
      </trkpt>
      <trkpt lat="46.16" lon="5.6154">
        <ele>888.3</ele>
        <time>2020-05-24T07:16:38Z</time>
      </trkpt>
      <trkpt lat="46.15998" lon="5.61537">
        <ele>888.4</ele>
        <time>2020-05-24T07:16:40Z</time>
      </trkpt>
      <trkpt lat="46.15998" lon="5.61537">
        <ele>888.4</ele>
        <time>2020-05-24T07:16:41Z</time>
      </trkpt>
      <trkpt lat="46.15999" lon="5.61538">
        <ele>888.5</ele>
        <time>2020-05-24T07:16:42Z</time>
      </trkpt>
      <trkpt lat="46.16001" lon="5.61539">
        <ele>888.5</ele>
        <time>2020-05-24T07:16:44Z</time>
      </trkpt>
      <trkpt lat="46.16002" lon="5.6154">
        <ele>888.5</ele>
        <time>2020-05-24T07:16:45Z</time>
      </trkpt>
      <trkpt lat="46.16" lon="5.61536">
        <ele>888.6</ele>
        <time>2020-05-24T07:16:47Z</time>
      </trkpt>
      <trkpt lat="46.15996" lon="5.61534">
        <ele>888.7</ele>
        <time>2020-05-24T07:16:49Z</time>
      </trkpt>
      <trkpt lat="46.15991" lon="5.61536">
        <ele>888.8</ele>
        <time>2020-05-24T07:16:50Z</time>
      </trkpt>
      <trkpt lat="46.1598" lon="5.61539">
        <ele>889</ele>
        <time>2020-05-24T07:16:52Z</time>
      </trkpt>
      <trkpt lat="46.15974" lon="5.61539">
        <ele>889.1</ele>
        <time>2020-05-24T07:16:53Z</time>
      </trkpt>
      <trkpt lat="46.15965" lon="5.61538">
        <ele>889.2</ele>
        <time>2020-05-24T07:16:55Z</time>
      </trkpt>
      <trkpt lat="46.15961" lon="5.61537">
        <ele>889.2</ele>
        <time>2020-05-24T07:16:56Z</time>
      </trkpt>
      <trkpt lat="46.15957" lon="5.61536">
        <ele>889.2</ele>
        <time>2020-05-24T07:16:57Z</time>
      </trkpt>
      <trkpt lat="46.1595" lon="5.61534">
        <ele>889.2</ele>
        <time>2020-05-24T07:16:59Z</time>
      </trkpt>
      <trkpt lat="46.15943" lon="5.61531">
        <ele>889</ele>
        <time>2020-05-24T07:17:01Z</time>
      </trkpt>
      <trkpt lat="46.15936" lon="5.61529">
        <ele>888.8</ele>
        <time>2020-05-24T07:17:03Z</time>
      </trkpt>
      <trkpt lat="46.15933" lon="5.61528">
        <ele>888.6</ele>
        <time>2020-05-24T07:17:04Z</time>
      </trkpt>
      <trkpt lat="46.1593" lon="5.61526">
        <ele>888.5</ele>
        <time>2020-05-24T07:17:05Z</time>
      </trkpt>
      <trkpt lat="46.15925" lon="5.61523">
        <ele>888.3</ele>
        <time>2020-05-24T07:17:07Z</time>
      </trkpt>
      <trkpt lat="46.15922" lon="5.61522">
        <ele>888.2</ele>
        <time>2020-05-24T07:17:08Z</time>
      </trkpt>
      <trkpt lat="46.15919" lon="5.6152">
        <ele>888.1</ele>
        <time>2020-05-24T07:17:09Z</time>
      </trkpt>
      <trkpt lat="46.15919" lon="5.6152">
        <ele>888.1</ele>
        <time>2020-05-24T07:17:10Z</time>
      </trkpt>
      <trkpt lat="46.15915" lon="5.61518">
        <ele>887.9</ele>
        <time>2020-05-24T07:17:12Z</time>
      </trkpt>
      <trkpt lat="46.15911" lon="5.61516">
        <ele>887.8</ele>
        <time>2020-05-24T07:17:14Z</time>
      </trkpt>
      <trkpt lat="46.15909" lon="5.61514">
        <ele>887.7</ele>
        <time>2020-05-24T07:17:15Z</time>
      </trkpt>
      <trkpt lat="46.15905" lon="5.61512">
        <ele>887.6</ele>
        <time>2020-05-24T07:17:17Z</time>
      </trkpt>
      <trkpt lat="46.15903" lon="5.61511">
        <ele>887.5</ele>
        <time>2020-05-24T07:17:18Z</time>
      </trkpt>
      <trkpt lat="46.15899" lon="5.6151">
        <ele>887.4</ele>
        <time>2020-05-24T07:17:20Z</time>
      </trkpt>
      <trkpt lat="46.15897" lon="5.61508">
        <ele>887.4</ele>
        <time>2020-05-24T07:17:21Z</time>
      </trkpt>
      <trkpt lat="46.15893" lon="5.61503">
        <ele>887.4</ele>
        <time>2020-05-24T07:17:23Z</time>
      </trkpt>
      <trkpt lat="46.15891" lon="5.61501">
        <ele>887.4</ele>
        <time>2020-05-24T07:17:24Z</time>
      </trkpt>
      <trkpt lat="46.15887" lon="5.61496">
        <ele>887.4</ele>
        <time>2020-05-24T07:17:26Z</time>
      </trkpt>
      <trkpt lat="46.15884" lon="5.61492">
        <ele>887.4</ele>
        <time>2020-05-24T07:17:28Z</time>
      </trkpt>
      <trkpt lat="46.15883" lon="5.6149">
        <ele>887.4</ele>
        <time>2020-05-24T07:17:29Z</time>
      </trkpt>
      <trkpt lat="46.1588" lon="5.61486">
        <ele>887.5</ele>
        <time>2020-05-24T07:17:31Z</time>
      </trkpt>
      <trkpt lat="46.15876" lon="5.61482">
        <ele>887.6</ele>
        <time>2020-05-24T07:17:33Z</time>
      </trkpt>
      <trkpt lat="46.15873" lon="5.61478">
        <ele>887.7</ele>
        <time>2020-05-24T07:17:35Z</time>
      </trkpt>
      <trkpt lat="46.15872" lon="5.61476">
        <ele>887.8</ele>
        <time>2020-05-24T07:17:36Z</time>
      </trkpt>
      <trkpt lat="46.15869" lon="5.61472">
        <ele>887.9</ele>
        <time>2020-05-24T07:17:38Z</time>
      </trkpt>
      <trkpt lat="46.15865" lon="5.61468">
        <ele>888</ele>
        <time>2020-05-24T07:17:40Z</time>
      </trkpt>
      <trkpt lat="46.15862" lon="5.61464">
        <ele>888.1</ele>
        <time>2020-05-24T07:17:42Z</time>
      </trkpt>
      <trkpt lat="46.15859" lon="5.61458">
        <ele>888.3</ele>
        <time>2020-05-24T07:17:44Z</time>
      </trkpt>
      <trkpt lat="46.15857" lon="5.61456">
        <ele>888.4</ele>
        <time>2020-05-24T07:17:45Z</time>
      </trkpt>
      <trkpt lat="46.15855" lon="5.61452">
        <ele>888.5</ele>
        <time>2020-05-24T07:17:47Z</time>
      </trkpt>
      <trkpt lat="46.15853" lon="5.61448">
        <ele>888.7</ele>
        <time>2020-05-24T07:17:49Z</time>
      </trkpt>
      <trkpt lat="46.15852" lon="5.61446">
        <ele>888.8</ele>
        <time>2020-05-24T07:17:50Z</time>
      </trkpt>
      <trkpt lat="46.15852" lon="5.61444">
        <ele>888.9</ele>
        <time>2020-05-24T07:17:51Z</time>
      </trkpt>
      <trkpt lat="46.1585" lon="5.61442">
        <ele>889.1</ele>
        <time>2020-05-24T07:17:53Z</time>
      </trkpt>
      <trkpt lat="46.15849" lon="5.61441">
        <ele>889.2</ele>
        <time>2020-05-24T07:17:54Z</time>
      </trkpt>
      <trkpt lat="46.15848" lon="5.61439">
        <ele>889.3</ele>
        <time>2020-05-24T07:17:55Z</time>
      </trkpt>
      <trkpt lat="46.15846" lon="5.61437">
        <ele>889.4</ele>
        <time>2020-05-24T07:17:57Z</time>
      </trkpt>
      <trkpt lat="46.15845" lon="5.61436">
        <ele>889.6</ele>
        <time>2020-05-24T07:17:58Z</time>
      </trkpt>
      <trkpt lat="46.15843" lon="5.61433">
        <ele>889.8</ele>
        <time>2020-05-24T07:18:00Z</time>
      </trkpt>
      <trkpt lat="46.15842" lon="5.6143">
        <ele>890</ele>
        <time>2020-05-24T07:18:02Z</time>
      </trkpt>
      <trkpt lat="46.15841" lon="5.61426">
        <ele>890.3</ele>
        <time>2020-05-24T07:18:04Z</time>
      </trkpt>
      <trkpt lat="46.1584" lon="5.61424">
        <ele>890.5</ele>
        <time>2020-05-24T07:18:05Z</time>
      </trkpt>
      <trkpt lat="46.1584" lon="5.6142">
        <ele>890.7</ele>
        <time>2020-05-24T07:18:07Z</time>
      </trkpt>
      <trkpt lat="46.1584" lon="5.61416">
        <ele>890.9</ele>
        <time>2020-05-24T07:18:09Z</time>
      </trkpt>
      <trkpt lat="46.15839" lon="5.61414">
        <ele>891.1</ele>
        <time>2020-05-24T07:18:10Z</time>
      </trkpt>
      <trkpt lat="46.15839" lon="5.6141">
        <ele>891.3</ele>
        <time>2020-05-24T07:18:12Z</time>
      </trkpt>
      <trkpt lat="46.1584" lon="5.61409">
        <ele>891.3</ele>
        <time>2020-05-24T07:18:13Z</time>
      </trkpt>
      <trkpt lat="46.1584" lon="5.61409">
        <ele>891.4</ele>
        <time>2020-05-24T07:18:15Z</time>
      </trkpt>
      <trkpt lat="46.15841" lon="5.61409">
        <ele>891.4</ele>
        <time>2020-05-24T07:18:17Z</time>
      </trkpt>
      <trkpt lat="46.15841" lon="5.61409">
        <ele>891.4</ele>
        <time>2020-05-24T07:18:18Z</time>
      </trkpt>
      <trkpt lat="46.15841" lon="5.61409">
        <ele>891.4</ele>
        <time>2020-05-24T07:18:20Z</time>
      </trkpt>
      <trkpt lat="46.15842" lon="5.6141">
        <ele>891.5</ele>
        <time>2020-05-24T07:18:21Z</time>
      </trkpt>
      <trkpt lat="46.15842" lon="5.61411">
        <ele>891.5</ele>
        <time>2020-05-24T07:18:22Z</time>
      </trkpt>
      <trkpt lat="46.15842" lon="5.6141">
        <ele>891.6</ele>
        <time>2020-05-24T07:18:24Z</time>
      </trkpt>
      <trkpt lat="46.15842" lon="5.61409">
        <ele>891.6</ele>
        <time>2020-05-24T07:18:26Z</time>
      </trkpt>
      <trkpt lat="46.15842" lon="5.61406">
        <ele>891.7</ele>
        <time>2020-05-24T07:18:28Z</time>
      </trkpt>
      <trkpt lat="46.15842" lon="5.61404">
        <ele>891.8</ele>
        <time>2020-05-24T07:18:30Z</time>
      </trkpt>
      <trkpt lat="46.15842" lon="5.61403">
        <ele>891.8</ele>
        <time>2020-05-24T07:18:32Z</time>
      </trkpt>
      <trkpt lat="46.15842" lon="5.61403">
        <ele>891.9</ele>
        <time>2020-05-24T07:18:34Z</time>
      </trkpt>
      <trkpt lat="46.15843" lon="5.61401">
        <ele>891.9</ele>
        <time>2020-05-24T07:18:36Z</time>
      </trkpt>
      <trkpt lat="46.15843" lon="5.61401">
        <ele>891.9</ele>
        <time>2020-05-24T07:18:38Z</time>
      </trkpt>
      <trkpt lat="46.15843" lon="5.61401">
        <ele>891.9</ele>
        <time>2020-05-24T07:18:39Z</time>
      </trkpt>
      <trkpt lat="46.15843" lon="5.61401">
        <ele>891.9</ele>
        <time>2020-05-24T07:18:41Z</time>
      </trkpt>
      <trkpt lat="46.15843" lon="5.61401">
        <ele>892</ele>
        <time>2020-05-24T07:18:42Z</time>
      </trkpt>
      <trkpt lat="46.15843" lon="5.61401">
        <ele>892</ele>
        <time>2020-05-24T07:18:44Z</time>
      </trkpt>
      <trkpt lat="46.15843" lon="5.61402">
        <ele>892</ele>
        <time>2020-05-24T07:18:46Z</time>
      </trkpt>
      <trkpt lat="46.15843" lon="5.61402">
        <ele>892</ele>
        <time>2020-05-24T07:19:23Z</time>
      </trkpt>
      <trkpt lat="46.15843" lon="5.61402">
        <ele>892</ele>
        <time>2020-05-24T07:19:24Z</time>
      </trkpt>
      <trkpt lat="46.15843" lon="5.61402">
        <ele>892</ele>
        <time>2020-05-24T07:19:27Z</time>
      </trkpt>
      <trkpt lat="46.15842" lon="5.61402">
        <ele>892</ele>
        <time>2020-05-24T07:19:28Z</time>
      </trkpt>
      <trkpt lat="46.15842" lon="5.61402">
        <ele>892</ele>
        <time>2020-05-24T07:19:30Z</time>
      </trkpt>
      <trkpt lat="46.15842" lon="5.61402">
        <ele>892</ele>
        <time>2020-05-24T07:19:33Z</time>
      </trkpt>
      <trkpt lat="46.15842" lon="5.61402">
        <ele>892</ele>
        <time>2020-05-24T07:19:34Z</time>
      </trkpt>
      <trkpt lat="46.15842" lon="5.61402">
        <ele>892</ele>
        <time>2020-05-24T07:19:35Z</time>
      </trkpt>
      <trkpt lat="46.15842" lon="5.61402">
        <ele>892</ele>
        <time>2020-05-24T07:19:38Z</time>
      </trkpt>
      <trkpt lat="46.15842" lon="5.61402">
        <ele>892</ele>
        <time>2020-05-24T07:19:39Z</time>
      </trkpt>
      <trkpt lat="46.15842" lon="5.61403">
        <ele>892.1</ele>
        <time>2020-05-24T07:19:40Z</time>
      </trkpt>
      <trkpt lat="46.15842" lon="5.61403">
        <ele>892.1</ele>
        <time>2020-05-24T07:19:42Z</time>
      </trkpt>
      <trkpt lat="46.15842" lon="5.61403">
        <ele>892.1</ele>
        <time>2020-05-24T07:19:44Z</time>
      </trkpt>
      <trkpt lat="46.15842" lon="5.61403">
        <ele>892.1</ele>
        <time>2020-05-24T07:19:46Z</time>
      </trkpt>
      <trkpt lat="46.15842" lon="5.61403">
        <ele>892.1</ele>
        <time>2020-05-24T07:19:48Z</time>
      </trkpt>
      <trkpt lat="46.15842" lon="5.61403">
        <ele>892.2</ele>
        <time>2020-05-24T07:19:49Z</time>
      </trkpt>
      <trkpt lat="46.15842" lon="5.61402">
        <ele>892.2</ele>
        <time>2020-05-24T07:19:51Z</time>
      </trkpt>
      <trkpt lat="46.15843" lon="5.61402">
        <ele>892.2</ele>
        <time>2020-05-24T07:19:52Z</time>
      </trkpt>
      <trkpt lat="46.15843" lon="5.61403">
        <ele>892.2</ele>
        <time>2020-05-24T07:19:53Z</time>
      </trkpt>
      <trkpt lat="46.15842" lon="5.61405">
        <ele>892.3</ele>
        <time>2020-05-24T07:19:55Z</time>
      </trkpt>
      <trkpt lat="46.15842" lon="5.61403">
        <ele>892.4</ele>
        <time>2020-05-24T07:19:57Z</time>
      </trkpt>
      <trkpt lat="46.15842" lon="5.61403">
        <ele>892.4</ele>
        <time>2020-05-24T07:19:58Z</time>
      </trkpt>
      <trkpt lat="46.15843" lon="5.61404">
        <ele>892.5</ele>
        <time>2020-05-24T07:20:01Z</time>
      </trkpt>
      <trkpt lat="46.15843" lon="5.61403">
        <ele>892.5</ele>
        <time>2020-05-24T07:20:02Z</time>
      </trkpt>
      <trkpt lat="46.15843" lon="5.61403">
        <ele>892.5</ele>
        <time>2020-05-24T07:20:04Z</time>
      </trkpt>
      <trkpt lat="46.15843" lon="5.61403">
        <ele>892.5</ele>
        <time>2020-05-24T07:20:05Z</time>
      </trkpt>
      <trkpt lat="46.15843" lon="5.61403">
        <ele>892.5</ele>
        <time>2020-05-24T07:20:06Z</time>
      </trkpt>
      <trkpt lat="46.15842" lon="5.61403">
        <ele>892.5</ele>
        <time>2020-05-24T07:20:09Z</time>
      </trkpt>
      <trkpt lat="46.15842" lon="5.61404">
        <ele>892.5</ele>
        <time>2020-05-24T07:20:10Z</time>
      </trkpt>
      <trkpt lat="46.15842" lon="5.61405">
        <ele>892.6</ele>
        <time>2020-05-24T07:20:11Z</time>
      </trkpt>
      <trkpt lat="46.15841" lon="5.61405">
        <ele>892.6</ele>
        <time>2020-05-24T07:20:13Z</time>
      </trkpt>
      <trkpt lat="46.15841" lon="5.61406">
        <ele>892.6</ele>
        <time>2020-05-24T07:20:14Z</time>
      </trkpt>
      <trkpt lat="46.1584" lon="5.61407">
        <ele>892.7</ele>
        <time>2020-05-24T07:20:16Z</time>
      </trkpt>
      <trkpt lat="46.1584" lon="5.61406">
        <ele>892.7</ele>
        <time>2020-05-24T07:20:18Z</time>
      </trkpt>
      <trkpt lat="46.1584" lon="5.61406">
        <ele>892.7</ele>
        <time>2020-05-24T07:20:20Z</time>
      </trkpt>
      <trkpt lat="46.1584" lon="5.61406">
        <ele>892.7</ele>
        <time>2020-05-24T07:20:21Z</time>
      </trkpt>
      <trkpt lat="46.1584" lon="5.61406">
        <ele>892.7</ele>
        <time>2020-05-24T07:20:22Z</time>
      </trkpt>
      <trkpt lat="46.1584" lon="5.61406">
        <ele>892.7</ele>
        <time>2020-05-24T07:20:24Z</time>
      </trkpt>
      <trkpt lat="46.1584" lon="5.61406">
        <ele>892.7</ele>
        <time>2020-05-24T07:20:25Z</time>
      </trkpt>
      <trkpt lat="46.1584" lon="5.61406">
        <ele>892.7</ele>
        <time>2020-05-24T07:20:27Z</time>
      </trkpt>
      <trkpt lat="46.1584" lon="5.61405">
        <ele>892.7</ele>
        <time>2020-05-24T07:20:28Z</time>
      </trkpt>
      <trkpt lat="46.1584" lon="5.61405">
        <ele>892.8</ele>
        <time>2020-05-24T07:20:29Z</time>
      </trkpt>
      <trkpt lat="46.15837" lon="5.61405">
        <ele>892.9</ele>
        <time>2020-05-24T07:20:33Z</time>
      </trkpt>
      <trkpt lat="46.15838" lon="5.61406">
        <ele>892.9</ele>
        <time>2020-05-24T07:20:35Z</time>
      </trkpt>
      <trkpt lat="46.15838" lon="5.61405">
        <ele>892.9</ele>
        <time>2020-05-24T07:20:36Z</time>
      </trkpt>
      <trkpt lat="46.15839" lon="5.61405">
        <ele>892.9</ele>
        <time>2020-05-24T07:20:38Z</time>
      </trkpt>
      <trkpt lat="46.15839" lon="5.61405">
        <ele>893</ele>
        <time>2020-05-24T07:20:39Z</time>
      </trkpt>
      <trkpt lat="46.15839" lon="5.61405">
        <ele>893</ele>
        <time>2020-05-24T07:20:41Z</time>
      </trkpt>
      <trkpt lat="46.15838" lon="5.61405">
        <ele>893</ele>
        <time>2020-05-24T07:20:42Z</time>
      </trkpt>
      <trkpt lat="46.15838" lon="5.61405">
        <ele>893</ele>
        <time>2020-05-24T07:20:44Z</time>
      </trkpt>
      <trkpt lat="46.15838" lon="5.61405">
        <ele>893</ele>
        <time>2020-05-24T07:20:46Z</time>
      </trkpt>
      <trkpt lat="46.15838" lon="5.61405">
        <ele>893</ele>
        <time>2020-05-24T07:20:47Z</time>
      </trkpt>
      <trkpt lat="46.15838" lon="5.61405">
        <ele>893</ele>
        <time>2020-05-24T07:20:49Z</time>
      </trkpt>
      <trkpt lat="46.1584" lon="5.61406">
        <ele>893.1</ele>
        <time>2020-05-24T07:22:43Z</time>
      </trkpt>
      <trkpt lat="46.15841" lon="5.61406">
        <ele>893.2</ele>
        <time>2020-05-24T07:22:45Z</time>
      </trkpt>
      <trkpt lat="46.15842" lon="5.61406">
        <ele>893.2</ele>
        <time>2020-05-24T07:22:47Z</time>
      </trkpt>
      <trkpt lat="46.15842" lon="5.61406">
        <ele>893.2</ele>
        <time>2020-05-24T07:22:48Z</time>
      </trkpt>
      <trkpt lat="46.15841" lon="5.61406">
        <ele>893.2</ele>
        <time>2020-05-24T07:22:50Z</time>
      </trkpt>
      <trkpt lat="46.15841" lon="5.61406">
        <ele>893.2</ele>
        <time>2020-05-24T07:22:51Z</time>
      </trkpt>
      <trkpt lat="46.15841" lon="5.61406">
        <ele>893.2</ele>
        <time>2020-05-24T07:22:53Z</time>
      </trkpt>
      <trkpt lat="46.15841" lon="5.61406">
        <ele>893.2</ele>
        <time>2020-05-24T07:22:54Z</time>
      </trkpt>
      <trkpt lat="46.15841" lon="5.61406">
        <ele>893.2</ele>
        <time>2020-05-24T07:22:56Z</time>
      </trkpt>
      <trkpt lat="46.15841" lon="5.61406">
        <ele>893.2</ele>
        <time>2020-05-24T07:22:57Z</time>
      </trkpt>
      <trkpt lat="46.15841" lon="5.61406">
        <ele>893.2</ele>
        <time>2020-05-24T07:22:59Z</time>
      </trkpt>
      <trkpt lat="46.15841" lon="5.61406">
        <ele>893.2</ele>
        <time>2020-05-24T07:23:00Z</time>
      </trkpt>
      <trkpt lat="46.15841" lon="5.61406">
        <ele>893.2</ele>
        <time>2020-05-24T07:23:02Z</time>
      </trkpt>
      <trkpt lat="46.15841" lon="5.61406">
        <ele>893.2</ele>
        <time>2020-05-24T07:23:04Z</time>
      </trkpt>
      <trkpt lat="46.15841" lon="5.61406">
        <ele>893.2</ele>
        <time>2020-05-24T07:23:06Z</time>
      </trkpt>
      <trkpt lat="46.15842" lon="5.61407">
        <ele>893.2</ele>
        <time>2020-05-24T07:23:08Z</time>
      </trkpt>
      <trkpt lat="46.15842" lon="5.61408">
        <ele>893.3</ele>
        <time>2020-05-24T07:23:09Z</time>
      </trkpt>
      <trkpt lat="46.15843" lon="5.6141">
        <ele>893.3</ele>
        <time>2020-05-24T07:23:10Z</time>
      </trkpt>
      <trkpt lat="46.15843" lon="5.61411">
        <ele>893.3</ele>
        <time>2020-05-24T07:23:11Z</time>
      </trkpt>
      <trkpt lat="46.15843" lon="5.61411">
        <ele>893.3</ele>
        <time>2020-05-24T07:23:12Z</time>
      </trkpt>
      <trkpt lat="46.15843" lon="5.61412">
        <ele>893.4</ele>
        <time>2020-05-24T07:23:14Z</time>
      </trkpt>
      <trkpt lat="46.15843" lon="5.61414">
        <ele>893.4</ele>
        <time>2020-05-24T07:23:15Z</time>
      </trkpt>
      <trkpt lat="46.15843" lon="5.61416">
        <ele>893.5</ele>
        <time>2020-05-24T07:23:16Z</time>
      </trkpt>
      <trkpt lat="46.15842" lon="5.61416">
        <ele>893.5</ele>
        <time>2020-05-24T07:23:18Z</time>
      </trkpt>
      <trkpt lat="46.15842" lon="5.61416">
        <ele>893.5</ele>
        <time>2020-05-24T07:23:19Z</time>
      </trkpt>
      <trkpt lat="46.15842" lon="5.61416">
        <ele>893.5</ele>
        <time>2020-05-24T07:23:20Z</time>
      </trkpt>
      <trkpt lat="46.15842" lon="5.61416">
        <ele>893.5</ele>
        <time>2020-05-24T07:23:21Z</time>
      </trkpt>
      <trkpt lat="46.15842" lon="5.61416">
        <ele>893.5</ele>
        <time>2020-05-24T07:23:22Z</time>
      </trkpt>
      <trkpt lat="46.15842" lon="5.61416">
        <ele>893.5</ele>
        <time>2020-05-24T07:23:24Z</time>
      </trkpt>
      <trkpt lat="46.15842" lon="5.61416">
        <ele>893.5</ele>
        <time>2020-05-24T07:23:25Z</time>
      </trkpt>
      <trkpt lat="46.15842" lon="5.61415">
        <ele>893.5</ele>
        <time>2020-05-24T07:23:27Z</time>
      </trkpt>
      <trkpt lat="46.1584" lon="5.61417">
        <ele>893.6</ele>
        <time>2020-05-24T07:23:45Z</time>
      </trkpt>
      <trkpt lat="46.1584" lon="5.6142">
        <ele>893.7</ele>
        <time>2020-05-24T07:23:46Z</time>
      </trkpt>
      <trkpt lat="46.15839" lon="5.61422">
        <ele>893.7</ele>
        <time>2020-05-24T07:23:47Z</time>
      </trkpt>
      <trkpt lat="46.15838" lon="5.61424">
        <ele>893.8</ele>
        <time>2020-05-24T07:23:48Z</time>
      </trkpt>
      <trkpt lat="46.15836" lon="5.61428">
        <ele>893.9</ele>
        <time>2020-05-24T07:23:50Z</time>
      </trkpt>
      <trkpt lat="46.15833" lon="5.61432">
        <ele>894</ele>
        <time>2020-05-24T07:23:52Z</time>
      </trkpt>
      <trkpt lat="46.15832" lon="5.61434">
        <ele>894</ele>
        <time>2020-05-24T07:23:53Z</time>
      </trkpt>
      <trkpt lat="46.15828" lon="5.61438">
        <ele>894.1</ele>
        <time>2020-05-24T07:23:55Z</time>
      </trkpt>
      <trkpt lat="46.15828" lon="5.61439">
        <ele>894.1</ele>
        <time>2020-05-24T07:23:56Z</time>
      </trkpt>
      <trkpt lat="46.15825" lon="5.61442">
        <ele>894.2</ele>
        <time>2020-05-24T07:23:58Z</time>
      </trkpt>
      <trkpt lat="46.15824" lon="5.61444">
        <ele>894.2</ele>
        <time>2020-05-24T07:23:59Z</time>
      </trkpt>
      <trkpt lat="46.15822" lon="5.61446">
        <ele>894.3</ele>
        <time>2020-05-24T07:24:01Z</time>
      </trkpt>
      <trkpt lat="46.15821" lon="5.61448">
        <ele>894.4</ele>
        <time>2020-05-24T07:24:02Z</time>
      </trkpt>
      <trkpt lat="46.1582" lon="5.6145">
        <ele>894.4</ele>
        <time>2020-05-24T07:24:04Z</time>
      </trkpt>
      <trkpt lat="46.1582" lon="5.61451">
        <ele>894.5</ele>
        <time>2020-05-24T07:24:05Z</time>
      </trkpt>
      <trkpt lat="46.15819" lon="5.61453">
        <ele>894.5</ele>
        <time>2020-05-24T07:24:06Z</time>
      </trkpt>
      <trkpt lat="46.15817" lon="5.61457">
        <ele>894.6</ele>
        <time>2020-05-24T07:24:08Z</time>
      </trkpt>
      <trkpt lat="46.15816" lon="5.61461">
        <ele>894.7</ele>
        <time>2020-05-24T07:24:09Z</time>
      </trkpt>
      <trkpt lat="46.15814" lon="5.61467">
        <ele>894.8</ele>
        <time>2020-05-24T07:24:10Z</time>
      </trkpt>
      <trkpt lat="46.15813" lon="5.61473">
        <ele>894.9</ele>
        <time>2020-05-24T07:24:11Z</time>
      </trkpt>
      <trkpt lat="46.1581" lon="5.61481">
        <ele>894.9</ele>
        <time>2020-05-24T07:24:13Z</time>
      </trkpt>
      <trkpt lat="46.15806" lon="5.61487">
        <ele>894.9</ele>
        <time>2020-05-24T07:24:14Z</time>
      </trkpt>
      <trkpt lat="46.15803" lon="5.61493">
        <ele>894.9</ele>
        <time>2020-05-24T07:24:16Z</time>
      </trkpt>
      <trkpt lat="46.15802" lon="5.61497">
        <ele>894.9</ele>
        <time>2020-05-24T07:24:17Z</time>
      </trkpt>
      <trkpt lat="46.158" lon="5.61504">
        <ele>895</ele>
        <time>2020-05-24T07:24:18Z</time>
      </trkpt>
      <trkpt lat="46.15796" lon="5.61507">
        <ele>895.2</ele>
        <time>2020-05-24T07:24:20Z</time>
      </trkpt>
      <trkpt lat="46.15794" lon="5.61511">
        <ele>895.3</ele>
        <time>2020-05-24T07:24:21Z</time>
      </trkpt>
      <trkpt lat="46.15793" lon="5.61517">
        <ele>895.5</ele>
        <time>2020-05-24T07:24:23Z</time>
      </trkpt>
      <trkpt lat="46.15792" lon="5.61519">
        <ele>895.6</ele>
        <time>2020-05-24T07:24:24Z</time>
      </trkpt>
      <trkpt lat="46.15792" lon="5.61521">
        <ele>895.7</ele>
        <time>2020-05-24T07:24:26Z</time>
      </trkpt>
      <trkpt lat="46.15792" lon="5.61522">
        <ele>895.8</ele>
        <time>2020-05-24T07:24:28Z</time>
      </trkpt>
      <trkpt lat="46.15792" lon="5.61524">
        <ele>895.9</ele>
        <time>2020-05-24T07:24:29Z</time>
      </trkpt>
      <trkpt lat="46.15791" lon="5.61526">
        <ele>896</ele>
        <time>2020-05-24T07:24:30Z</time>
      </trkpt>
      <trkpt lat="46.15791" lon="5.61528">
        <ele>896.1</ele>
        <time>2020-05-24T07:24:31Z</time>
      </trkpt>
      <trkpt lat="46.15791" lon="5.61532">
        <ele>896.3</ele>
        <time>2020-05-24T07:24:32Z</time>
      </trkpt>
      <trkpt lat="46.15789" lon="5.61535">
        <ele>896.6</ele>
        <time>2020-05-24T07:24:34Z</time>
      </trkpt>
      <trkpt lat="46.15787" lon="5.61538">
        <ele>896.9</ele>
        <time>2020-05-24T07:24:35Z</time>
      </trkpt>
      <trkpt lat="46.15785" lon="5.61544">
        <ele>897.2</ele>
        <time>2020-05-24T07:24:36Z</time>
      </trkpt>
      <trkpt lat="46.15785" lon="5.61552">
        <ele>897.6</ele>
        <time>2020-05-24T07:24:37Z</time>
      </trkpt>
      <trkpt lat="46.15785" lon="5.61557">
        <ele>897.8</ele>
        <time>2020-05-24T07:24:38Z</time>
      </trkpt>
      <trkpt lat="46.15783" lon="5.61562">
        <ele>897.9</ele>
        <time>2020-05-24T07:24:40Z</time>
      </trkpt>
      <trkpt lat="46.15781" lon="5.61565">
        <ele>898</ele>
        <time>2020-05-24T07:24:41Z</time>
      </trkpt>
      <trkpt lat="46.15781" lon="5.61566">
        <ele>898.1</ele>
        <time>2020-05-24T07:24:42Z</time>
      </trkpt>
      <trkpt lat="46.15778" lon="5.61568">
        <ele>898.1</ele>
        <time>2020-05-24T07:24:44Z</time>
      </trkpt>
      <trkpt lat="46.15777" lon="5.61568">
        <ele>898.2</ele>
        <time>2020-05-24T07:24:45Z</time>
      </trkpt>
      <trkpt lat="46.15774" lon="5.6157">
        <ele>898.2</ele>
        <time>2020-05-24T07:24:46Z</time>
      </trkpt>
      <trkpt lat="46.15773" lon="5.61571">
        <ele>898.3</ele>
        <time>2020-05-24T07:24:47Z</time>
      </trkpt>
      <trkpt lat="46.15771" lon="5.61575">
        <ele>898.4</ele>
        <time>2020-05-24T07:24:48Z</time>
      </trkpt>
      <trkpt lat="46.15771" lon="5.61576">
        <ele>898.4</ele>
        <time>2020-05-24T07:24:49Z</time>
      </trkpt>
      <trkpt lat="46.15768" lon="5.61581">
        <ele>898.5</ele>
        <time>2020-05-24T07:24:51Z</time>
      </trkpt>
      <trkpt lat="46.15767" lon="5.61583">
        <ele>898.6</ele>
        <time>2020-05-24T07:24:52Z</time>
      </trkpt>
      <trkpt lat="46.15765" lon="5.61587">
        <ele>898.8</ele>
        <time>2020-05-24T07:24:53Z</time>
      </trkpt>
      <trkpt lat="46.15764" lon="5.61589">
        <ele>898.8</ele>
        <time>2020-05-24T07:24:54Z</time>
      </trkpt>
      <trkpt lat="46.15761" lon="5.61596">
        <ele>899.2</ele>
        <time>2020-05-24T07:24:55Z</time>
      </trkpt>
      <trkpt lat="46.15759" lon="5.61601">
        <ele>899.4</ele>
        <time>2020-05-24T07:24:57Z</time>
      </trkpt>
      <trkpt lat="46.15758" lon="5.61606">
        <ele>899.7</ele>
        <time>2020-05-24T07:24:58Z</time>
      </trkpt>
      <trkpt lat="46.15758" lon="5.61607">
        <ele>899.7</ele>
        <time>2020-05-24T07:24:59Z</time>
      </trkpt>
      <trkpt lat="46.15757" lon="5.61611">
        <ele>900</ele>
        <time>2020-05-24T07:25:00Z</time>
      </trkpt>
      <trkpt lat="46.15757" lon="5.61613">
        <ele>900.1</ele>
        <time>2020-05-24T07:25:01Z</time>
      </trkpt>
      <trkpt lat="46.15754" lon="5.61617">
        <ele>900.3</ele>
        <time>2020-05-24T07:25:03Z</time>
      </trkpt>
      <trkpt lat="46.15753" lon="5.6162">
        <ele>900.5</ele>
        <time>2020-05-24T07:25:04Z</time>
      </trkpt>
      <trkpt lat="46.15752" lon="5.61621">
        <ele>900.6</ele>
        <time>2020-05-24T07:25:06Z</time>
      </trkpt>
      <trkpt lat="46.15751" lon="5.61623">
        <ele>900.7</ele>
        <time>2020-05-24T07:25:07Z</time>
      </trkpt>
      <trkpt lat="46.1575" lon="5.61624">
        <ele>900.8</ele>
        <time>2020-05-24T07:25:08Z</time>
      </trkpt>
      <trkpt lat="46.15749" lon="5.61628">
        <ele>901</ele>
        <time>2020-05-24T07:25:10Z</time>
      </trkpt>
      <trkpt lat="46.15748" lon="5.61631">
        <ele>901.1</ele>
        <time>2020-05-24T07:25:11Z</time>
      </trkpt>
      <trkpt lat="46.15747" lon="5.61632">
        <ele>901.2</ele>
        <time>2020-05-24T07:25:12Z</time>
      </trkpt>
      <trkpt lat="46.15746" lon="5.61635">
        <ele>901.4</ele>
        <time>2020-05-24T07:25:14Z</time>
      </trkpt>
      <trkpt lat="46.15746" lon="5.61636">
        <ele>901.4</ele>
        <time>2020-05-24T07:25:15Z</time>
      </trkpt>
      <trkpt lat="46.15745" lon="5.61637">
        <ele>901.5</ele>
        <time>2020-05-24T07:25:16Z</time>
      </trkpt>
      <trkpt lat="46.15744" lon="5.61639">
        <ele>901.6</ele>
        <time>2020-05-24T07:25:17Z</time>
      </trkpt>
      <trkpt lat="46.15743" lon="5.61642">
        <ele>901.8</ele>
        <time>2020-05-24T07:25:19Z</time>
      </trkpt>
      <trkpt lat="46.15742" lon="5.61643">
        <ele>901.9</ele>
        <time>2020-05-24T07:25:20Z</time>
      </trkpt>
      <trkpt lat="46.15742" lon="5.61645">
        <ele>902</ele>
        <time>2020-05-24T07:25:21Z</time>
      </trkpt>
      <trkpt lat="46.15742" lon="5.61645">
        <ele>902</ele>
        <time>2020-05-24T07:25:23Z</time>
      </trkpt>
      <trkpt lat="46.15742" lon="5.61647">
        <ele>902.1</ele>
        <time>2020-05-24T07:25:24Z</time>
      </trkpt>
      <trkpt lat="46.15742" lon="5.61648">
        <ele>902.2</ele>
        <time>2020-05-24T07:25:26Z</time>
      </trkpt>
      <trkpt lat="46.15742" lon="5.61648">
        <ele>902.2</ele>
        <time>2020-05-24T07:25:28Z</time>
      </trkpt>
      <trkpt lat="46.15743" lon="5.61651">
        <ele>902.4</ele>
        <time>2020-05-24T07:25:30Z</time>
      </trkpt>
      <trkpt lat="46.15742" lon="5.61654">
        <ele>902.6</ele>
        <time>2020-05-24T07:25:32Z</time>
      </trkpt>
      <trkpt lat="46.15742" lon="5.61654">
        <ele>902.6</ele>
        <time>2020-05-24T07:25:33Z</time>
      </trkpt>
      <trkpt lat="46.15742" lon="5.61654">
        <ele>902.6</ele>
        <time>2020-05-24T07:25:35Z</time>
      </trkpt>
      <trkpt lat="46.15742" lon="5.61655">
        <ele>902.7</ele>
        <time>2020-05-24T07:25:37Z</time>
      </trkpt>
      <trkpt lat="46.15742" lon="5.61655">
        <ele>902.7</ele>
        <time>2020-05-24T07:25:39Z</time>
      </trkpt>
      <trkpt lat="46.15742" lon="5.61656">
        <ele>902.8</ele>
        <time>2020-05-24T07:25:41Z</time>
      </trkpt>
      <trkpt lat="46.15743" lon="5.6166">
        <ele>903.1</ele>
        <time>2020-05-24T07:25:49Z</time>
      </trkpt>
      <trkpt lat="46.15743" lon="5.61662">
        <ele>903.2</ele>
        <time>2020-05-24T07:25:50Z</time>
      </trkpt>
      <trkpt lat="46.15743" lon="5.61663">
        <ele>903.3</ele>
        <time>2020-05-24T07:25:51Z</time>
      </trkpt>
      <trkpt lat="46.15744" lon="5.61663">
        <ele>903.3</ele>
        <time>2020-05-24T07:25:52Z</time>
      </trkpt>
      <trkpt lat="46.15744" lon="5.61664">
        <ele>903.4</ele>
        <time>2020-05-24T07:25:53Z</time>
      </trkpt>
      <trkpt lat="46.15744" lon="5.61664">
        <ele>903.4</ele>
        <time>2020-05-24T07:25:55Z</time>
      </trkpt>
      <trkpt lat="46.15743" lon="5.61665">
        <ele>903.5</ele>
        <time>2020-05-24T07:25:56Z</time>
      </trkpt>
      <trkpt lat="46.15743" lon="5.61666">
        <ele>903.6</ele>
        <time>2020-05-24T07:25:58Z</time>
      </trkpt>
      <trkpt lat="46.15743" lon="5.61667">
        <ele>903.6</ele>
        <time>2020-05-24T07:25:59Z</time>
      </trkpt>
      <trkpt lat="46.15743" lon="5.61668">
        <ele>903.7</ele>
        <time>2020-05-24T07:26:01Z</time>
      </trkpt>
      <trkpt lat="46.15743" lon="5.61668">
        <ele>903.7</ele>
        <time>2020-05-24T07:26:02Z</time>
      </trkpt>
      <trkpt lat="46.15743" lon="5.61669">
        <ele>903.8</ele>
        <time>2020-05-24T07:26:03Z</time>
      </trkpt>
      <trkpt lat="46.15743" lon="5.61669">
        <ele>903.8</ele>
        <time>2020-05-24T07:26:05Z</time>
      </trkpt>
      <trkpt lat="46.15744" lon="5.61672">
        <ele>904</ele>
        <time>2020-05-24T07:26:12Z</time>
      </trkpt>
      <trkpt lat="46.15745" lon="5.61674">
        <ele>904.2</ele>
        <time>2020-05-24T07:26:14Z</time>
      </trkpt>
      <trkpt lat="46.15745" lon="5.61674">
        <ele>904.2</ele>
        <time>2020-05-24T07:26:15Z</time>
      </trkpt>
      <trkpt lat="46.15745" lon="5.61675">
        <ele>904.3</ele>
        <time>2020-05-24T07:26:17Z</time>
      </trkpt>
      <trkpt lat="46.15744" lon="5.61675">
        <ele>904.3</ele>
        <time>2020-05-24T07:26:18Z</time>
      </trkpt>
      <trkpt lat="46.15744" lon="5.61674">
        <ele>904.4</ele>
        <time>2020-05-24T07:26:20Z</time>
      </trkpt>
      <trkpt lat="46.15744" lon="5.61675">
        <ele>904.4</ele>
        <time>2020-05-24T07:26:21Z</time>
      </trkpt>
      <trkpt lat="46.15744" lon="5.61675">
        <ele>904.4</ele>
        <time>2020-05-24T07:26:22Z</time>
      </trkpt>
      <trkpt lat="46.15744" lon="5.61675">
        <ele>904.4</ele>
        <time>2020-05-24T07:26:24Z</time>
      </trkpt>
      <trkpt lat="46.15743" lon="5.61675">
        <ele>904.5</ele>
        <time>2020-05-24T07:26:25Z</time>
      </trkpt>
      <trkpt lat="46.15743" lon="5.61676">
        <ele>904.5</ele>
        <time>2020-05-24T07:26:27Z</time>
      </trkpt>
      <trkpt lat="46.15743" lon="5.61677">
        <ele>904.6</ele>
        <time>2020-05-24T07:26:29Z</time>
      </trkpt>
      <trkpt lat="46.15742" lon="5.61677">
        <ele>904.7</ele>
        <time>2020-05-24T07:26:30Z</time>
      </trkpt>
      <trkpt lat="46.15742" lon="5.61678">
        <ele>904.7</ele>
        <time>2020-05-24T07:26:31Z</time>
      </trkpt>
      <trkpt lat="46.1574" lon="5.61678">
        <ele>904.8</ele>
        <time>2020-05-24T07:26:33Z</time>
      </trkpt>
      <trkpt lat="46.15737" lon="5.61681">
        <ele>905.1</ele>
        <time>2020-05-24T07:26:49Z</time>
      </trkpt>
      <trkpt lat="46.15738" lon="5.61683">
        <ele>905.1</ele>
        <time>2020-05-24T07:26:50Z</time>
      </trkpt>
      <trkpt lat="46.15738" lon="5.61684">
        <ele>905.2</ele>
        <time>2020-05-24T07:26:52Z</time>
      </trkpt>
      <trkpt lat="46.15738" lon="5.61685">
        <ele>905.2</ele>
        <time>2020-05-24T07:26:53Z</time>
      </trkpt>
      <trkpt lat="46.15739" lon="5.61686">
        <ele>905.2</ele>
        <time>2020-05-24T07:26:55Z</time>
      </trkpt>
      <trkpt lat="46.15738" lon="5.61688">
        <ele>905.3</ele>
        <time>2020-05-24T07:26:57Z</time>
      </trkpt>
      <trkpt lat="46.15737" lon="5.61689">
        <ele>905.3</ele>
        <time>2020-05-24T07:26:58Z</time>
      </trkpt>
      <trkpt lat="46.15736" lon="5.61689">
        <ele>905.3</ele>
        <time>2020-05-24T07:26:59Z</time>
      </trkpt>
      <trkpt lat="46.15734" lon="5.61687">
        <ele>905.2</ele>
        <time>2020-05-24T07:27:01Z</time>
      </trkpt>
      <trkpt lat="46.15732" lon="5.61686">
        <ele>905.2</ele>
        <time>2020-05-24T07:27:02Z</time>
      </trkpt>
      <trkpt lat="46.15731" lon="5.61685">
        <ele>905.1</ele>
        <time>2020-05-24T07:27:03Z</time>
      </trkpt>
      <trkpt lat="46.15729" lon="5.61683">
        <ele>904.9</ele>
        <time>2020-05-24T07:27:05Z</time>
      </trkpt>
      <trkpt lat="46.15728" lon="5.61682">
        <ele>904.8</ele>
        <time>2020-05-24T07:27:06Z</time>
      </trkpt>
      <trkpt lat="46.15727" lon="5.61681">
        <ele>904.7</ele>
        <time>2020-05-24T07:27:07Z</time>
      </trkpt>
      <trkpt lat="46.15726" lon="5.61681">
        <ele>904.6</ele>
        <time>2020-05-24T07:27:09Z</time>
      </trkpt>
      <trkpt lat="46.15726" lon="5.61681">
        <ele>904.5</ele>
        <time>2020-05-24T07:27:10Z</time>
      </trkpt>
      <trkpt lat="46.15726" lon="5.61682">
        <ele>904.5</ele>
        <time>2020-05-24T07:27:11Z</time>
      </trkpt>
      <trkpt lat="46.15726" lon="5.61684">
        <ele>904.3</ele>
        <time>2020-05-24T07:27:12Z</time>
      </trkpt>
      <trkpt lat="46.15726" lon="5.61685">
        <ele>904.1</ele>
        <time>2020-05-24T07:27:14Z</time>
      </trkpt>
      <trkpt lat="46.15726" lon="5.61686">
        <ele>904</ele>
        <time>2020-05-24T07:27:16Z</time>
      </trkpt>
      <trkpt lat="46.15726" lon="5.61687">
        <ele>903.9</ele>
        <time>2020-05-24T07:27:18Z</time>
      </trkpt>
      <trkpt lat="46.15726" lon="5.61689">
        <ele>903.7</ele>
        <time>2020-05-24T07:27:19Z</time>
      </trkpt>
      <trkpt lat="46.15726" lon="5.61693">
        <ele>903.2</ele>
        <time>2020-05-24T07:27:20Z</time>
      </trkpt>
      <trkpt lat="46.15726" lon="5.61694">
        <ele>903</ele>
        <time>2020-05-24T07:27:21Z</time>
      </trkpt>
      <trkpt lat="46.15725" lon="5.61695">
        <ele>902.8</ele>
        <time>2020-05-24T07:27:23Z</time>
      </trkpt>
      <trkpt lat="46.15725" lon="5.61696">
        <ele>902.6</ele>
        <time>2020-05-24T07:27:24Z</time>
      </trkpt>
      <trkpt lat="46.15725" lon="5.61698">
        <ele>902.4</ele>
        <time>2020-05-24T07:27:25Z</time>
      </trkpt>
      <trkpt lat="46.15724" lon="5.61699">
        <ele>902.2</ele>
        <time>2020-05-24T07:27:26Z</time>
      </trkpt>
      <trkpt lat="46.15724" lon="5.617">
        <ele>902</ele>
        <time>2020-05-24T07:27:28Z</time>
      </trkpt>
      <trkpt lat="46.15724" lon="5.61701">
        <ele>901.8</ele>
        <time>2020-05-24T07:27:29Z</time>
      </trkpt>
      <trkpt lat="46.15723" lon="5.61703">
        <ele>901.6</ele>
        <time>2020-05-24T07:27:30Z</time>
      </trkpt>
      <trkpt lat="46.15723" lon="5.61704">
        <ele>901.3</ele>
        <time>2020-05-24T07:27:31Z</time>
      </trkpt>
      <trkpt lat="46.15722" lon="5.61705">
        <ele>901.1</ele>
        <time>2020-05-24T07:27:33Z</time>
      </trkpt>
      <trkpt lat="46.15722" lon="5.61706">
        <ele>900.9</ele>
        <time>2020-05-24T07:27:34Z</time>
      </trkpt>
      <trkpt lat="46.15722" lon="5.61707">
        <ele>900.7</ele>
        <time>2020-05-24T07:27:35Z</time>
      </trkpt>
      <trkpt lat="46.15718" lon="5.6172">
        <ele>898.2</ele>
        <time>2020-05-24T07:27:37Z</time>
      </trkpt>
      <trkpt lat="46.15718" lon="5.61732">
        <ele>895.8</ele>
        <time>2020-05-24T07:27:39Z</time>
      </trkpt>
      <trkpt lat="46.15719" lon="5.61734">
        <ele>895.4</ele>
        <time>2020-05-24T07:27:41Z</time>
      </trkpt>
      <trkpt lat="46.15719" lon="5.61733">
        <ele>895.1</ele>
        <time>2020-05-24T07:27:42Z</time>
      </trkpt>
      <trkpt lat="46.15719" lon="5.61731">
        <ele>894.9</ele>
        <time>2020-05-24T07:27:44Z</time>
      </trkpt>
      <trkpt lat="46.1572" lon="5.6173">
        <ele>894.6</ele>
        <time>2020-05-24T07:27:46Z</time>
      </trkpt>
      <trkpt lat="46.1572" lon="5.61729">
        <ele>894.3</ele>
        <time>2020-05-24T07:27:47Z</time>
      </trkpt>
      <trkpt lat="46.1572" lon="5.61728">
        <ele>894.1</ele>
        <time>2020-05-24T07:27:48Z</time>
      </trkpt>
      <trkpt lat="46.1572" lon="5.61726">
        <ele>893.8</ele>
        <time>2020-05-24T07:27:50Z</time>
      </trkpt>
      <trkpt lat="46.1572" lon="5.61725">
        <ele>893.6</ele>
        <time>2020-05-24T07:27:51Z</time>
      </trkpt>
      <trkpt lat="46.1572" lon="5.61724">
        <ele>893.3</ele>
        <time>2020-05-24T07:27:52Z</time>
      </trkpt>
      <trkpt lat="46.1572" lon="5.61719">
        <ele>892.4</ele>
        <time>2020-05-24T07:27:53Z</time>
      </trkpt>
      <trkpt lat="46.15721" lon="5.61716">
        <ele>891.9</ele>
        <time>2020-05-24T07:27:55Z</time>
      </trkpt>
      <trkpt lat="46.15721" lon="5.61716">
        <ele>891.8</ele>
        <time>2020-05-24T07:27:56Z</time>
      </trkpt>
      <trkpt lat="46.15721" lon="5.61716">
        <ele>891.6</ele>
        <time>2020-05-24T07:27:57Z</time>
      </trkpt>
      <trkpt lat="46.15722" lon="5.61715">
        <ele>891.5</ele>
        <time>2020-05-24T07:27:58Z</time>
      </trkpt>
      <trkpt lat="46.15721" lon="5.61715">
        <ele>891.4</ele>
        <time>2020-05-24T07:28:01Z</time>
      </trkpt>
      <trkpt lat="46.15721" lon="5.61714">
        <ele>891.4</ele>
        <time>2020-05-24T07:28:02Z</time>
      </trkpt>
      <trkpt lat="46.15721" lon="5.61714">
        <ele>891.4</ele>
        <time>2020-05-24T07:28:03Z</time>
      </trkpt>
      <trkpt lat="46.15721" lon="5.61714">
        <ele>891.4</ele>
        <time>2020-05-24T07:28:04Z</time>
      </trkpt>
      <trkpt lat="46.15721" lon="5.61714">
        <ele>891.3</ele>
        <time>2020-05-24T07:28:06Z</time>
      </trkpt>
      <trkpt lat="46.15721" lon="5.61714">
        <ele>891.3</ele>
        <time>2020-05-24T07:28:07Z</time>
      </trkpt>
      <trkpt lat="46.15719" lon="5.61723">
        <ele>889.9</ele>
        <time>2020-05-24T07:28:13Z</time>
      </trkpt>
      <trkpt lat="46.15719" lon="5.61726">
        <ele>889.5</ele>
        <time>2020-05-24T07:28:14Z</time>
      </trkpt>
      <trkpt lat="46.1572" lon="5.61728">
        <ele>889.1</ele>
        <time>2020-05-24T07:28:16Z</time>
      </trkpt>
      <trkpt lat="46.1572" lon="5.61731">
        <ele>888.8</ele>
        <time>2020-05-24T07:28:17Z</time>
      </trkpt>
      <trkpt lat="46.1572" lon="5.61732">
        <ele>888.7</ele>
        <time>2020-05-24T07:28:18Z</time>
      </trkpt>
      <trkpt lat="46.1572" lon="5.61734">
        <ele>888.5</ele>
        <time>2020-05-24T07:28:20Z</time>
      </trkpt>
      <trkpt lat="46.1572" lon="5.61735">
        <ele>888.4</ele>
        <time>2020-05-24T07:28:21Z</time>
      </trkpt>
      <trkpt lat="46.1572" lon="5.61736">
        <ele>888.3</ele>
        <time>2020-05-24T07:28:22Z</time>
      </trkpt>
      <trkpt lat="46.15721" lon="5.61737">
        <ele>888.2</ele>
        <time>2020-05-24T07:28:24Z</time>
      </trkpt>
      <trkpt lat="46.15721" lon="5.61739">
        <ele>888.1</ele>
        <time>2020-05-24T07:28:25Z</time>
      </trkpt>
      <trkpt lat="46.1572" lon="5.6174">
        <ele>887.9</ele>
        <time>2020-05-24T07:28:26Z</time>
      </trkpt>
      <trkpt lat="46.15719" lon="5.61741">
        <ele>887.8</ele>
        <time>2020-05-24T07:28:28Z</time>
      </trkpt>
      <trkpt lat="46.15719" lon="5.61741">
        <ele>887.7</ele>
        <time>2020-05-24T07:28:30Z</time>
      </trkpt>
      <trkpt lat="46.15719" lon="5.61741">
        <ele>887.7</ele>
        <time>2020-05-24T07:28:32Z</time>
      </trkpt>
      <trkpt lat="46.15719" lon="5.61741">
        <ele>887.7</ele>
        <time>2020-05-24T07:28:33Z</time>
      </trkpt>
      <trkpt lat="46.15719" lon="5.61741">
        <ele>887.6</ele>
        <time>2020-05-24T07:28:35Z</time>
      </trkpt>
      <trkpt lat="46.15719" lon="5.6174">
        <ele>887.6</ele>
        <time>2020-05-24T07:28:37Z</time>
      </trkpt>
      <trkpt lat="46.15719" lon="5.6174">
        <ele>887.6</ele>
        <time>2020-05-24T07:28:39Z</time>
      </trkpt>
      <trkpt lat="46.15719" lon="5.6174">
        <ele>887.6</ele>
        <time>2020-05-24T07:28:40Z</time>
      </trkpt>
      <trkpt lat="46.15721" lon="5.6174">
        <ele>887.3</ele>
        <time>2020-05-24T07:33:33Z</time>
      </trkpt>
      <trkpt lat="46.15722" lon="5.61742">
        <ele>887.5</ele>
        <time>2020-05-24T07:33:35Z</time>
      </trkpt>
      <trkpt lat="46.15722" lon="5.61741">
        <ele>887.3</ele>
        <time>2020-05-24T07:33:37Z</time>
      </trkpt>
      <trkpt lat="46.15722" lon="5.6174">
        <ele>887.3</ele>
        <time>2020-05-24T07:33:38Z</time>
      </trkpt>
      <trkpt lat="46.15722" lon="5.6174">
        <ele>887.5</ele>
        <time>2020-05-24T07:33:39Z</time>
      </trkpt>
      <trkpt lat="46.15723" lon="5.61741">
        <ele>887.5</ele>
        <time>2020-05-24T07:33:40Z</time>
      </trkpt>
      <trkpt lat="46.15725" lon="5.61744">
        <ele>887.6</ele>
        <time>2020-05-24T07:33:42Z</time>
      </trkpt>
      <trkpt lat="46.15726" lon="5.61745">
        <ele>887.7</ele>
        <time>2020-05-24T07:33:43Z</time>
      </trkpt>
      <trkpt lat="46.15727" lon="5.61746">
        <ele>887.8</ele>
        <time>2020-05-24T07:33:44Z</time>
      </trkpt>
      <trkpt lat="46.15729" lon="5.61747">
        <ele>887.9</ele>
        <time>2020-05-24T07:33:45Z</time>
      </trkpt>
      <trkpt lat="46.1573" lon="5.61748">
        <ele>888</ele>
        <time>2020-05-24T07:33:46Z</time>
      </trkpt>
      <trkpt lat="46.15734" lon="5.61749">
        <ele>888.1</ele>
        <time>2020-05-24T07:33:48Z</time>
      </trkpt>
      <trkpt lat="46.15735" lon="5.6175">
        <ele>888.2</ele>
        <time>2020-05-24T07:33:49Z</time>
      </trkpt>
      <trkpt lat="46.15738" lon="5.61751">
        <ele>888.4</ele>
        <time>2020-05-24T07:33:51Z</time>
      </trkpt>
      <trkpt lat="46.1574" lon="5.61752">
        <ele>888.5</ele>
        <time>2020-05-24T07:33:52Z</time>
      </trkpt>
      <trkpt lat="46.15742" lon="5.61754">
        <ele>888.6</ele>
        <time>2020-05-24T07:33:54Z</time>
      </trkpt>
      <trkpt lat="46.15745" lon="5.61757">
        <ele>888.8</ele>
        <time>2020-05-24T07:33:57Z</time>
      </trkpt>
      <trkpt lat="46.15746" lon="5.61759">
        <ele>888.9</ele>
        <time>2020-05-24T07:33:58Z</time>
      </trkpt>
      <trkpt lat="46.15747" lon="5.6176">
        <ele>889</ele>
        <time>2020-05-24T07:33:59Z</time>
      </trkpt>
      <trkpt lat="46.15748" lon="5.61761">
        <ele>889.1</ele>
        <time>2020-05-24T07:34:00Z</time>
      </trkpt>
      <trkpt lat="46.15749" lon="5.61764">
        <ele>889.2</ele>
        <time>2020-05-24T07:34:02Z</time>
      </trkpt>
      <trkpt lat="46.15751" lon="5.61766">
        <ele>889.3</ele>
        <time>2020-05-24T07:34:03Z</time>
      </trkpt>
      <trkpt lat="46.15753" lon="5.61768">
        <ele>889.5</ele>
        <time>2020-05-24T07:34:05Z</time>
      </trkpt>
      <trkpt lat="46.15756" lon="5.61772">
        <ele>889.7</ele>
        <time>2020-05-24T07:34:07Z</time>
      </trkpt>
      <trkpt lat="46.15757" lon="5.61774">
        <ele>889.8</ele>
        <time>2020-05-24T07:34:08Z</time>
      </trkpt>
      <trkpt lat="46.15758" lon="5.61775">
        <ele>889.9</ele>
        <time>2020-05-24T07:34:09Z</time>
      </trkpt>
      <trkpt lat="46.1576" lon="5.61776">
        <ele>890</ele>
        <time>2020-05-24T07:34:11Z</time>
      </trkpt>
      <trkpt lat="46.15762" lon="5.61777">
        <ele>890.1</ele>
        <time>2020-05-24T07:34:12Z</time>
      </trkpt>
      <trkpt lat="46.15764" lon="5.61778">
        <ele>890.2</ele>
        <time>2020-05-24T07:34:14Z</time>
      </trkpt>
      <trkpt lat="46.15766" lon="5.6178">
        <ele>890.3</ele>
        <time>2020-05-24T07:34:15Z</time>
      </trkpt>
      <trkpt lat="46.15767" lon="5.61781">
        <ele>890.4</ele>
        <time>2020-05-24T07:34:16Z</time>
      </trkpt>
      <trkpt lat="46.15769" lon="5.61784">
        <ele>890.5</ele>
        <time>2020-05-24T07:34:18Z</time>
      </trkpt>
      <trkpt lat="46.1577" lon="5.61785">
        <ele>890.6</ele>
        <time>2020-05-24T07:34:19Z</time>
      </trkpt>
      <trkpt lat="46.15772" lon="5.61787">
        <ele>890.7</ele>
        <time>2020-05-24T07:34:20Z</time>
      </trkpt>
      <trkpt lat="46.15774" lon="5.61788">
        <ele>890.8</ele>
        <time>2020-05-24T07:34:21Z</time>
      </trkpt>
      <trkpt lat="46.15775" lon="5.6179">
        <ele>890.9</ele>
        <time>2020-05-24T07:34:23Z</time>
      </trkpt>
      <trkpt lat="46.15778" lon="5.61792">
        <ele>891</ele>
        <time>2020-05-24T07:34:24Z</time>
      </trkpt>
      <trkpt lat="46.15779" lon="5.61793">
        <ele>891</ele>
        <time>2020-05-24T07:34:25Z</time>
      </trkpt>
      <trkpt lat="46.15781" lon="5.61796">
        <ele>891.2</ele>
        <time>2020-05-24T07:34:27Z</time>
      </trkpt>
      <trkpt lat="46.15782" lon="5.61797">
        <ele>891.2</ele>
        <time>2020-05-24T07:34:28Z</time>
      </trkpt>
      <trkpt lat="46.15783" lon="5.61799">
        <ele>891.3</ele>
        <time>2020-05-24T07:34:29Z</time>
      </trkpt>
      <trkpt lat="46.15785" lon="5.618">
        <ele>891.3</ele>
        <time>2020-05-24T07:34:30Z</time>
      </trkpt>
      <trkpt lat="46.15787" lon="5.61804">
        <ele>891.5</ele>
        <time>2020-05-24T07:34:31Z</time>
      </trkpt>
      <trkpt lat="46.15789" lon="5.61806">
        <ele>891.5</ele>
        <time>2020-05-24T07:34:32Z</time>
      </trkpt>
      <trkpt lat="46.15789" lon="5.61807">
        <ele>891.6</ele>
        <time>2020-05-24T07:34:34Z</time>
      </trkpt>
      <trkpt lat="46.15791" lon="5.61809">
        <ele>891.6</ele>
        <time>2020-05-24T07:34:35Z</time>
      </trkpt>
      <trkpt lat="46.15793" lon="5.61813">
        <ele>891.8</ele>
        <time>2020-05-24T07:34:37Z</time>
      </trkpt>
      <trkpt lat="46.15794" lon="5.61814">
        <ele>891.8</ele>
        <time>2020-05-24T07:34:38Z</time>
      </trkpt>
      <trkpt lat="46.15795" lon="5.61815">
        <ele>891.9</ele>
        <time>2020-05-24T07:34:39Z</time>
      </trkpt>
      <trkpt lat="46.15796" lon="5.61817">
        <ele>891.9</ele>
        <time>2020-05-24T07:34:40Z</time>
      </trkpt>
      <trkpt lat="46.15799" lon="5.61822">
        <ele>892.1</ele>
        <time>2020-05-24T07:34:42Z</time>
      </trkpt>
      <trkpt lat="46.158" lon="5.61823">
        <ele>892.1</ele>
        <time>2020-05-24T07:34:43Z</time>
      </trkpt>
      <trkpt lat="46.15802" lon="5.61825">
        <ele>892.2</ele>
        <time>2020-05-24T07:34:44Z</time>
      </trkpt>
      <trkpt lat="46.15804" lon="5.61828">
        <ele>892.3</ele>
        <time>2020-05-24T07:34:46Z</time>
      </trkpt>
      <trkpt lat="46.15804" lon="5.61829">
        <ele>892.3</ele>
        <time>2020-05-24T07:34:47Z</time>
      </trkpt>
      <trkpt lat="46.15806" lon="5.61831">
        <ele>892.4</ele>
        <time>2020-05-24T07:34:48Z</time>
      </trkpt>
      <trkpt lat="46.15808" lon="5.61833">
        <ele>892.5</ele>
        <time>2020-05-24T07:34:50Z</time>
      </trkpt>
      <trkpt lat="46.1581" lon="5.61836">
        <ele>892.6</ele>
        <time>2020-05-24T07:34:51Z</time>
      </trkpt>
      <trkpt lat="46.1581" lon="5.61837">
        <ele>892.6</ele>
        <time>2020-05-24T07:34:52Z</time>
      </trkpt>
      <trkpt lat="46.15811" lon="5.61838">
        <ele>892.6</ele>
        <time>2020-05-24T07:34:53Z</time>
      </trkpt>
      <trkpt lat="46.15812" lon="5.61839">
        <ele>892.7</ele>
        <time>2020-05-24T07:34:54Z</time>
      </trkpt>
      <trkpt lat="46.15816" lon="5.61843">
        <ele>892.8</ele>
        <time>2020-05-24T07:34:56Z</time>
      </trkpt>
      <trkpt lat="46.15817" lon="5.61844">
        <ele>892.8</ele>
        <time>2020-05-24T07:34:57Z</time>
      </trkpt>
      <trkpt lat="46.15818" lon="5.61846">
        <ele>892.9</ele>
        <time>2020-05-24T07:34:58Z</time>
      </trkpt>
      <trkpt lat="46.15819" lon="5.61847">
        <ele>892.9</ele>
        <time>2020-05-24T07:34:59Z</time>
      </trkpt>
      <trkpt lat="46.1582" lon="5.61848">
        <ele>892.9</ele>
        <time>2020-05-24T07:35:00Z</time>
      </trkpt>
      <trkpt lat="46.15823" lon="5.61852">
        <ele>893.1</ele>
        <time>2020-05-24T07:35:02Z</time>
      </trkpt>
      <trkpt lat="46.15824" lon="5.61853">
        <ele>893.1</ele>
        <time>2020-05-24T07:35:03Z</time>
      </trkpt>
      <trkpt lat="46.15825" lon="5.61855">
        <ele>893.1</ele>
        <time>2020-05-24T07:35:04Z</time>
      </trkpt>
      <trkpt lat="46.15827" lon="5.61857">
        <ele>893.2</ele>
        <time>2020-05-24T07:35:05Z</time>
      </trkpt>
      <trkpt lat="46.15831" lon="5.61861">
        <ele>893.2</ele>
        <time>2020-05-24T07:35:07Z</time>
      </trkpt>
      <trkpt lat="46.15834" lon="5.61864">
        <ele>893.3</ele>
        <time>2020-05-24T07:35:09Z</time>
      </trkpt>
      <trkpt lat="46.15835" lon="5.61865">
        <ele>893.3</ele>
        <time>2020-05-24T07:35:10Z</time>
      </trkpt>
      <trkpt lat="46.15837" lon="5.61866">
        <ele>893.3</ele>
        <time>2020-05-24T07:35:11Z</time>
      </trkpt>
      <trkpt lat="46.15839" lon="5.61867">
        <ele>893.4</ele>
        <time>2020-05-24T07:35:13Z</time>
      </trkpt>
      <trkpt lat="46.15841" lon="5.6187">
        <ele>893.4</ele>
        <time>2020-05-24T07:35:14Z</time>
      </trkpt>
      <trkpt lat="46.15842" lon="5.61871">
        <ele>893.4</ele>
        <time>2020-05-24T07:35:15Z</time>
      </trkpt>
      <trkpt lat="46.15843" lon="5.61875">
        <ele>893.4</ele>
        <time>2020-05-24T07:35:17Z</time>
      </trkpt>
      <trkpt lat="46.15843" lon="5.61877">
        <ele>893.4</ele>
        <time>2020-05-24T07:35:18Z</time>
      </trkpt>
      <trkpt lat="46.15844" lon="5.61882">
        <ele>893.7</ele>
        <time>2020-05-24T07:35:19Z</time>
      </trkpt>
      <trkpt lat="46.15844" lon="5.61884">
        <ele>893.8</ele>
        <time>2020-05-24T07:35:20Z</time>
      </trkpt>
      <trkpt lat="46.15844" lon="5.61887">
        <ele>894.1</ele>
        <time>2020-05-24T07:35:22Z</time>
      </trkpt>
      <trkpt lat="46.15844" lon="5.61889">
        <ele>894.3</ele>
        <time>2020-05-24T07:35:23Z</time>
      </trkpt>
      <trkpt lat="46.15845" lon="5.61892">
        <ele>894.5</ele>
        <time>2020-05-24T07:35:24Z</time>
      </trkpt>
      <trkpt lat="46.15846" lon="5.61896">
        <ele>894.9</ele>
        <time>2020-05-24T07:35:26Z</time>
      </trkpt>
      <trkpt lat="46.15846" lon="5.61898">
        <ele>895</ele>
        <time>2020-05-24T07:35:27Z</time>
      </trkpt>
      <trkpt lat="46.15847" lon="5.619">
        <ele>895.2</ele>
        <time>2020-05-24T07:35:28Z</time>
      </trkpt>
      <trkpt lat="46.15849" lon="5.61904">
        <ele>895.6</ele>
        <time>2020-05-24T07:35:30Z</time>
      </trkpt>
      <trkpt lat="46.15851" lon="5.61907">
        <ele>896</ele>
        <time>2020-05-24T07:35:31Z</time>
      </trkpt>
      <trkpt lat="46.15853" lon="5.61909">
        <ele>896.3</ele>
        <time>2020-05-24T07:35:32Z</time>
      </trkpt>
      <trkpt lat="46.15854" lon="5.6191">
        <ele>896.4</ele>
        <time>2020-05-24T07:35:34Z</time>
      </trkpt>
      <trkpt lat="46.15855" lon="5.61912">
        <ele>896.6</ele>
        <time>2020-05-24T07:35:35Z</time>
      </trkpt>
      <trkpt lat="46.15856" lon="5.61913">
        <ele>896.7</ele>
        <time>2020-05-24T07:35:36Z</time>
      </trkpt>
      <trkpt lat="46.15859" lon="5.61915">
        <ele>897</ele>
        <time>2020-05-24T07:35:38Z</time>
      </trkpt>
      <trkpt lat="46.1586" lon="5.61916">
        <ele>897.1</ele>
        <time>2020-05-24T07:35:39Z</time>
      </trkpt>
      <trkpt lat="46.15863" lon="5.61918">
        <ele>897.4</ele>
        <time>2020-05-24T07:35:40Z</time>
      </trkpt>
      <trkpt lat="46.15868" lon="5.61922">
        <ele>897.8</ele>
        <time>2020-05-24T07:35:42Z</time>
      </trkpt>
      <trkpt lat="46.1587" lon="5.61925">
        <ele>897.9</ele>
        <time>2020-05-24T07:35:43Z</time>
      </trkpt>
      <trkpt lat="46.15872" lon="5.61929">
        <ele>898.2</ele>
        <time>2020-05-24T07:35:45Z</time>
      </trkpt>
      <trkpt lat="46.15872" lon="5.61931">
        <ele>898.2</ele>
        <time>2020-05-24T07:35:46Z</time>
      </trkpt>
      <trkpt lat="46.15871" lon="5.61933">
        <ele>898.4</ele>
        <time>2020-05-24T07:35:47Z</time>
      </trkpt>
      <trkpt lat="46.15869" lon="5.61937">
        <ele>898.7</ele>
        <time>2020-05-24T07:35:49Z</time>
      </trkpt>
      <trkpt lat="46.15869" lon="5.61937">
        <ele>898.7</ele>
        <time>2020-05-24T07:35:50Z</time>
      </trkpt>
      <trkpt lat="46.15867" lon="5.61939">
        <ele>898.9</ele>
        <time>2020-05-24T07:35:52Z</time>
      </trkpt>
      <trkpt lat="46.15867" lon="5.6194">
        <ele>899.1</ele>
        <time>2020-05-24T07:35:53Z</time>
      </trkpt>
      <trkpt lat="46.15866" lon="5.61942">
        <ele>899.3</ele>
        <time>2020-05-24T07:35:55Z</time>
      </trkpt>
      <trkpt lat="46.15865" lon="5.61944">
        <ele>899.6</ele>
        <time>2020-05-24T07:35:56Z</time>
      </trkpt>
      <trkpt lat="46.15865" lon="5.61945">
        <ele>899.8</ele>
        <time>2020-05-24T07:35:58Z</time>
      </trkpt>
      <trkpt lat="46.15865" lon="5.61947">
        <ele>900.1</ele>
        <time>2020-05-24T07:35:59Z</time>
      </trkpt>
      <trkpt lat="46.15865" lon="5.61949">
        <ele>900.4</ele>
        <time>2020-05-24T07:36:00Z</time>
      </trkpt>
      <trkpt lat="46.15865" lon="5.61951">
        <ele>900.7</ele>
        <time>2020-05-24T07:36:01Z</time>
      </trkpt>
      <trkpt lat="46.15865" lon="5.61953">
        <ele>901.1</ele>
        <time>2020-05-24T07:36:03Z</time>
      </trkpt>
      <trkpt lat="46.15865" lon="5.61954">
        <ele>901.3</ele>
        <time>2020-05-24T07:36:04Z</time>
      </trkpt>
      <trkpt lat="46.15865" lon="5.61956">
        <ele>901.6</ele>
        <time>2020-05-24T07:36:06Z</time>
      </trkpt>
      <trkpt lat="46.15865" lon="5.61959">
        <ele>902.1</ele>
        <time>2020-05-24T07:36:07Z</time>
      </trkpt>
      <trkpt lat="46.15866" lon="5.61959">
        <ele>902.3</ele>
        <time>2020-05-24T07:36:09Z</time>
      </trkpt>
      <trkpt lat="46.15866" lon="5.6196">
        <ele>902.4</ele>
        <time>2020-05-24T07:36:10Z</time>
      </trkpt>
      <trkpt lat="46.15865" lon="5.61961">
        <ele>902.8</ele>
        <time>2020-05-24T07:36:11Z</time>
      </trkpt>
      <trkpt lat="46.15865" lon="5.61962">
        <ele>902.9</ele>
        <time>2020-05-24T07:36:12Z</time>
      </trkpt>
      <trkpt lat="46.15865" lon="5.61963">
        <ele>903.1</ele>
        <time>2020-05-24T07:36:13Z</time>
      </trkpt>
      <trkpt lat="46.15865" lon="5.61963">
        <ele>903.3</ele>
        <time>2020-05-24T07:36:15Z</time>
      </trkpt>
      <trkpt lat="46.15864" lon="5.61964">
        <ele>903.5</ele>
        <time>2020-05-24T07:36:16Z</time>
      </trkpt>
      <trkpt lat="46.15864" lon="5.61965">
        <ele>903.7</ele>
        <time>2020-05-24T07:36:18Z</time>
      </trkpt>
      <trkpt lat="46.15863" lon="5.61967">
        <ele>904.1</ele>
        <time>2020-05-24T07:36:19Z</time>
      </trkpt>
      <trkpt lat="46.15863" lon="5.61967">
        <ele>904.3</ele>
        <time>2020-05-24T07:36:21Z</time>
      </trkpt>
      <trkpt lat="46.15863" lon="5.61968">
        <ele>904.6</ele>
        <time>2020-05-24T07:36:22Z</time>
      </trkpt>
      <trkpt lat="46.15863" lon="5.6197">
        <ele>904.8</ele>
        <time>2020-05-24T07:36:23Z</time>
      </trkpt>
      <trkpt lat="46.15862" lon="5.61971">
        <ele>905.2</ele>
        <time>2020-05-24T07:36:25Z</time>
      </trkpt>
      <trkpt lat="46.15862" lon="5.61972">
        <ele>905.3</ele>
        <time>2020-05-24T07:36:26Z</time>
      </trkpt>
      <trkpt lat="46.15862" lon="5.61973">
        <ele>905.5</ele>
        <time>2020-05-24T07:36:27Z</time>
      </trkpt>
      <trkpt lat="46.15862" lon="5.61974">
        <ele>905.8</ele>
        <time>2020-05-24T07:36:29Z</time>
      </trkpt>
      <trkpt lat="46.15861" lon="5.61975">
        <ele>906</ele>
        <time>2020-05-24T07:36:30Z</time>
      </trkpt>
      <trkpt lat="46.15861" lon="5.61976">
        <ele>906.3</ele>
        <time>2020-05-24T07:36:31Z</time>
      </trkpt>
      <trkpt lat="46.1586" lon="5.61978">
        <ele>907</ele>
        <time>2020-05-24T07:36:32Z</time>
      </trkpt>
      <trkpt lat="46.1586" lon="5.61979">
        <ele>907.3</ele>
        <time>2020-05-24T07:36:34Z</time>
      </trkpt>
      <trkpt lat="46.15859" lon="5.61981">
        <ele>907.5</ele>
        <time>2020-05-24T07:36:35Z</time>
      </trkpt>
      <trkpt lat="46.15859" lon="5.61982">
        <ele>907.9</ele>
        <time>2020-05-24T07:36:36Z</time>
      </trkpt>
      <trkpt lat="46.15859" lon="5.61983">
        <ele>908.2</ele>
        <time>2020-05-24T07:36:37Z</time>
      </trkpt>
      <trkpt lat="46.15858" lon="5.61985">
        <ele>908.6</ele>
        <time>2020-05-24T07:36:39Z</time>
      </trkpt>
      <trkpt lat="46.15858" lon="5.61986">
        <ele>908.9</ele>
        <time>2020-05-24T07:36:40Z</time>
      </trkpt>
      <trkpt lat="46.15858" lon="5.61987">
        <ele>909.1</ele>
        <time>2020-05-24T07:36:41Z</time>
      </trkpt>
      <trkpt lat="46.15858" lon="5.61988">
        <ele>909.4</ele>
        <time>2020-05-24T07:36:42Z</time>
      </trkpt>
      <trkpt lat="46.15858" lon="5.61989">
        <ele>909.7</ele>
        <time>2020-05-24T07:36:43Z</time>
      </trkpt>
      <trkpt lat="46.15858" lon="5.6199">
        <ele>909.9</ele>
        <time>2020-05-24T07:36:45Z</time>
      </trkpt>
      <trkpt lat="46.15857" lon="5.61991">
        <ele>910.2</ele>
        <time>2020-05-24T07:36:46Z</time>
      </trkpt>
      <trkpt lat="46.15857" lon="5.61993">
        <ele>910.6</ele>
        <time>2020-05-24T07:36:48Z</time>
      </trkpt>
      <trkpt lat="46.15857" lon="5.61994">
        <ele>910.9</ele>
        <time>2020-05-24T07:36:49Z</time>
      </trkpt>
      <trkpt lat="46.15857" lon="5.61995">
        <ele>911.1</ele>
        <time>2020-05-24T07:36:50Z</time>
      </trkpt>
      <trkpt lat="46.15857" lon="5.61997">
        <ele>911.5</ele>
        <time>2020-05-24T07:36:52Z</time>
      </trkpt>
      <trkpt lat="46.15857" lon="5.61998">
        <ele>911.9</ele>
        <time>2020-05-24T07:36:53Z</time>
      </trkpt>
      <trkpt lat="46.15857" lon="5.61999">
        <ele>912.2</ele>
        <time>2020-05-24T07:36:55Z</time>
      </trkpt>
      <trkpt lat="46.15857" lon="5.62">
        <ele>912.5</ele>
        <time>2020-05-24T07:36:56Z</time>
      </trkpt>
      <trkpt lat="46.15857" lon="5.62001">
        <ele>912.7</ele>
        <time>2020-05-24T07:36:57Z</time>
      </trkpt>
      <trkpt lat="46.15858" lon="5.62002">
        <ele>913</ele>
        <time>2020-05-24T07:36:58Z</time>
      </trkpt>
      <trkpt lat="46.15858" lon="5.62004">
        <ele>913.4</ele>
        <time>2020-05-24T07:37:00Z</time>
      </trkpt>
      <trkpt lat="46.15857" lon="5.62005">
        <ele>913.7</ele>
        <time>2020-05-24T07:37:01Z</time>
      </trkpt>
      <trkpt lat="46.15858" lon="5.62006">
        <ele>914</ele>
        <time>2020-05-24T07:37:02Z</time>
      </trkpt>
      <trkpt lat="46.15857" lon="5.62007">
        <ele>914.1</ele>
        <time>2020-05-24T07:37:03Z</time>
      </trkpt>
      <trkpt lat="46.15857" lon="5.62007">
        <ele>914.2</ele>
        <time>2020-05-24T07:37:05Z</time>
      </trkpt>
      <trkpt lat="46.15857" lon="5.62008">
        <ele>914.3</ele>
        <time>2020-05-24T07:37:06Z</time>
      </trkpt>
      <trkpt lat="46.15857" lon="5.62008">
        <ele>914.4</ele>
        <time>2020-05-24T07:37:08Z</time>
      </trkpt>
      <trkpt lat="46.15857" lon="5.62008">
        <ele>914.5</ele>
        <time>2020-05-24T07:37:09Z</time>
      </trkpt>
      <trkpt lat="46.15856" lon="5.62008">
        <ele>914.8</ele>
        <time>2020-05-24T07:37:11Z</time>
      </trkpt>
      <trkpt lat="46.15855" lon="5.62011">
        <ele>915.5</ele>
        <time>2020-05-24T07:37:14Z</time>
      </trkpt>
      <trkpt lat="46.15855" lon="5.62012">
        <ele>915.8</ele>
        <time>2020-05-24T07:37:15Z</time>
      </trkpt>
      <trkpt lat="46.15854" lon="5.62013">
        <ele>916.2</ele>
        <time>2020-05-24T07:37:17Z</time>
      </trkpt>
      <trkpt lat="46.15853" lon="5.62013">
        <ele>916.4</ele>
        <time>2020-05-24T07:37:18Z</time>
      </trkpt>
      <trkpt lat="46.15853" lon="5.62013">
        <ele>916.7</ele>
        <time>2020-05-24T07:37:19Z</time>
      </trkpt>
      <trkpt lat="46.15852" lon="5.62015">
        <ele>917</ele>
        <time>2020-05-24T07:37:21Z</time>
      </trkpt>
      <trkpt lat="46.15851" lon="5.62016">
        <ele>917.4</ele>
        <time>2020-05-24T07:37:22Z</time>
      </trkpt>
      <trkpt lat="46.1585" lon="5.62017">
        <ele>918</ele>
        <time>2020-05-24T07:37:24Z</time>
      </trkpt>
      <trkpt lat="46.15849" lon="5.62018">
        <ele>918.5</ele>
        <time>2020-05-24T07:37:26Z</time>
      </trkpt>
      <trkpt lat="46.15848" lon="5.62019">
        <ele>918.9</ele>
        <time>2020-05-24T07:37:27Z</time>
      </trkpt>
      <trkpt lat="46.15848" lon="5.6202">
        <ele>919.2</ele>
        <time>2020-05-24T07:37:28Z</time>
      </trkpt>
      <trkpt lat="46.15847" lon="5.6202">
        <ele>919.5</ele>
        <time>2020-05-24T07:37:30Z</time>
      </trkpt>
      <trkpt lat="46.15846" lon="5.62021">
        <ele>919.8</ele>
        <time>2020-05-24T07:37:32Z</time>
      </trkpt>
      <trkpt lat="46.15845" lon="5.62022">
        <ele>920.1</ele>
        <time>2020-05-24T07:37:33Z</time>
      </trkpt>
      <trkpt lat="46.15845" lon="5.62023">
        <ele>920.4</ele>
        <time>2020-05-24T07:37:34Z</time>
      </trkpt>
      <trkpt lat="46.15844" lon="5.62024">
        <ele>920.8</ele>
        <time>2020-05-24T07:37:36Z</time>
      </trkpt>
      <trkpt lat="46.15844" lon="5.62025">
        <ele>921.1</ele>
        <time>2020-05-24T07:37:37Z</time>
      </trkpt>
      <trkpt lat="46.15843" lon="5.62027">
        <ele>921.5</ele>
        <time>2020-05-24T07:37:39Z</time>
      </trkpt>
      <trkpt lat="46.15842" lon="5.62028">
        <ele>922</ele>
        <time>2020-05-24T07:37:40Z</time>
      </trkpt>
      <trkpt lat="46.15842" lon="5.62029">
        <ele>922.4</ele>
        <time>2020-05-24T07:37:42Z</time>
      </trkpt>
      <trkpt lat="46.15841" lon="5.62031">
        <ele>922.8</ele>
        <time>2020-05-24T07:37:43Z</time>
      </trkpt>
      <trkpt lat="46.15841" lon="5.62032">
        <ele>923</ele>
        <time>2020-05-24T07:37:44Z</time>
      </trkpt>
      <trkpt lat="46.15841" lon="5.62032">
        <ele>923.2</ele>
        <time>2020-05-24T07:37:45Z</time>
      </trkpt>
      <trkpt lat="46.15841" lon="5.62034">
        <ele>923.4</ele>
        <time>2020-05-24T07:37:47Z</time>
      </trkpt>
      <trkpt lat="46.1584" lon="5.62035">
        <ele>923.7</ele>
        <time>2020-05-24T07:37:48Z</time>
      </trkpt>
      <trkpt lat="46.1584" lon="5.62036">
        <ele>924</ele>
        <time>2020-05-24T07:37:50Z</time>
      </trkpt>
      <trkpt lat="46.1584" lon="5.62037">
        <ele>924.3</ele>
        <time>2020-05-24T07:37:51Z</time>
      </trkpt>
      <trkpt lat="46.1584" lon="5.62038">
        <ele>924.5</ele>
        <time>2020-05-24T07:37:52Z</time>
      </trkpt>
      <trkpt lat="46.1584" lon="5.6204">
        <ele>924.9</ele>
        <time>2020-05-24T07:37:54Z</time>
      </trkpt>
      <trkpt lat="46.1584" lon="5.62041">
        <ele>925.2</ele>
        <time>2020-05-24T07:37:55Z</time>
      </trkpt>
      <trkpt lat="46.1584" lon="5.62043">
        <ele>925.6</ele>
        <time>2020-05-24T07:37:57Z</time>
      </trkpt>
      <trkpt lat="46.1584" lon="5.62045">
        <ele>925.8</ele>
        <time>2020-05-24T07:37:58Z</time>
      </trkpt>
      <trkpt lat="46.1584" lon="5.62046">
        <ele>926.1</ele>
        <time>2020-05-24T07:37:59Z</time>
      </trkpt>
      <trkpt lat="46.1584" lon="5.62047">
        <ele>926.3</ele>
        <time>2020-05-24T07:38:01Z</time>
      </trkpt>
      <trkpt lat="46.15841" lon="5.62048">
        <ele>926.4</ele>
        <time>2020-05-24T07:38:03Z</time>
      </trkpt>
      <trkpt lat="46.15841" lon="5.62048">
        <ele>926.5</ele>
        <time>2020-05-24T07:38:04Z</time>
      </trkpt>
      <trkpt lat="46.15841" lon="5.62049">
        <ele>926.5</ele>
        <time>2020-05-24T07:38:05Z</time>
      </trkpt>
      <trkpt lat="46.15841" lon="5.62048">
        <ele>926.5</ele>
        <time>2020-05-24T07:38:06Z</time>
      </trkpt>
      <trkpt lat="46.15841" lon="5.62048">
        <ele>926.6</ele>
        <time>2020-05-24T07:38:07Z</time>
      </trkpt>
      <trkpt lat="46.15841" lon="5.62048">
        <ele>926.6</ele>
        <time>2020-05-24T07:38:09Z</time>
      </trkpt>
      <trkpt lat="46.15841" lon="5.62048">
        <ele>926.7</ele>
        <time>2020-05-24T07:38:10Z</time>
      </trkpt>
      <trkpt lat="46.15841" lon="5.62048">
        <ele>926.7</ele>
        <time>2020-05-24T07:38:12Z</time>
      </trkpt>
      <trkpt lat="46.15841" lon="5.62048">
        <ele>926.7</ele>
        <time>2020-05-24T07:38:14Z</time>
      </trkpt>
      <trkpt lat="46.15846" lon="5.62047">
        <ele>927.9</ele>
        <time>2020-05-24T07:38:48Z</time>
      </trkpt>
      <trkpt lat="46.15847" lon="5.62047">
        <ele>928</ele>
        <time>2020-05-24T07:38:49Z</time>
      </trkpt>
      <trkpt lat="46.15847" lon="5.62048">
        <ele>928.1</ele>
        <time>2020-05-24T07:38:51Z</time>
      </trkpt>
      <trkpt lat="46.15847" lon="5.62048">
        <ele>928.2</ele>
        <time>2020-05-24T07:38:53Z</time>
      </trkpt>
      <trkpt lat="46.15848" lon="5.62049">
        <ele>928.4</ele>
        <time>2020-05-24T07:38:54Z</time>
      </trkpt>
      <trkpt lat="46.15848" lon="5.62051">
        <ele>928.5</ele>
        <time>2020-05-24T07:38:55Z</time>
      </trkpt>
      <trkpt lat="46.15849" lon="5.62051">
        <ele>928.7</ele>
        <time>2020-05-24T07:38:56Z</time>
      </trkpt>
      <trkpt lat="46.15849" lon="5.62052">
        <ele>928.8</ele>
        <time>2020-05-24T07:38:58Z</time>
      </trkpt>
      <trkpt lat="46.15849" lon="5.62053">
        <ele>928.8</ele>
        <time>2020-05-24T07:38:59Z</time>
      </trkpt>
      <trkpt lat="46.15849" lon="5.62054">
        <ele>928.9</ele>
        <time>2020-05-24T07:39:00Z</time>
      </trkpt>
      <trkpt lat="46.15849" lon="5.62057">
        <ele>929.2</ele>
        <time>2020-05-24T07:39:02Z</time>
      </trkpt>
      <trkpt lat="46.15847" lon="5.62062">
        <ele>929.5</ele>
        <time>2020-05-24T07:39:03Z</time>
      </trkpt>
      <trkpt lat="46.15847" lon="5.62067">
        <ele>929.7</ele>
        <time>2020-05-24T07:39:04Z</time>
      </trkpt>
      <trkpt lat="46.15847" lon="5.62075">
        <ele>929.9</ele>
        <time>2020-05-24T07:39:05Z</time>
      </trkpt>
      <trkpt lat="46.15848" lon="5.62083">
        <ele>929.9</ele>
        <time>2020-05-24T07:39:07Z</time>
      </trkpt>
      <trkpt lat="46.15849" lon="5.62088">
        <ele>929.9</ele>
        <time>2020-05-24T07:39:08Z</time>
      </trkpt>
      <trkpt lat="46.15849" lon="5.62095">
        <ele>929.9</ele>
        <time>2020-05-24T07:39:10Z</time>
      </trkpt>
      <trkpt lat="46.15848" lon="5.62097">
        <ele>929.9</ele>
        <time>2020-05-24T07:39:11Z</time>
      </trkpt>
      <trkpt lat="46.15847" lon="5.62099">
        <ele>929.8</ele>
        <time>2020-05-24T07:39:12Z</time>
      </trkpt>
      <trkpt lat="46.15846" lon="5.62102">
        <ele>929.8</ele>
        <time>2020-05-24T07:39:14Z</time>
      </trkpt>
      <trkpt lat="46.15845" lon="5.62105">
        <ele>929.6</ele>
        <time>2020-05-24T07:39:16Z</time>
      </trkpt>
      <trkpt lat="46.15843" lon="5.62109">
        <ele>929.5</ele>
        <time>2020-05-24T07:39:17Z</time>
      </trkpt>
      <trkpt lat="46.15843" lon="5.6211">
        <ele>929.4</ele>
        <time>2020-05-24T07:39:18Z</time>
      </trkpt>
      <trkpt lat="46.15841" lon="5.62112">
        <ele>929.1</ele>
        <time>2020-05-24T07:39:19Z</time>
      </trkpt>
      <trkpt lat="46.15839" lon="5.62116">
        <ele>928.7</ele>
        <time>2020-05-24T07:39:21Z</time>
      </trkpt>
      <trkpt lat="46.15837" lon="5.6212">
        <ele>928.2</ele>
        <time>2020-05-24T07:39:23Z</time>
      </trkpt>
      <trkpt lat="46.15835" lon="5.62123">
        <ele>927.5</ele>
        <time>2020-05-24T07:39:24Z</time>
      </trkpt>
      <trkpt lat="46.1583" lon="5.62127">
        <ele>926.1</ele>
        <time>2020-05-24T07:39:25Z</time>
      </trkpt>
      <trkpt lat="46.15824" lon="5.62133">
        <ele>923.8</ele>
        <time>2020-05-24T07:39:27Z</time>
      </trkpt>
      <trkpt lat="46.15821" lon="5.62138">
        <ele>922.1</ele>
        <time>2020-05-24T07:39:28Z</time>
      </trkpt>
      <trkpt lat="46.15818" lon="5.62144">
        <ele>920.6</ele>
        <time>2020-05-24T07:39:29Z</time>
      </trkpt>
      <trkpt lat="46.15815" lon="5.62149">
        <ele>919</ele>
        <time>2020-05-24T07:39:31Z</time>
      </trkpt>
      <trkpt lat="46.15813" lon="5.62153">
        <ele>918</ele>
        <time>2020-05-24T07:39:32Z</time>
      </trkpt>
      <trkpt lat="46.15813" lon="5.62154">
        <ele>917.7</ele>
        <time>2020-05-24T07:39:33Z</time>
      </trkpt>
      <trkpt lat="46.15812" lon="5.6216">
        <ele>916.1</ele>
        <time>2020-05-24T07:39:35Z</time>
      </trkpt>
      <trkpt lat="46.15811" lon="5.62167">
        <ele>914.8</ele>
        <time>2020-05-24T07:39:36Z</time>
      </trkpt>
      <trkpt lat="46.15811" lon="5.62171">
        <ele>913.9</ele>
        <time>2020-05-24T07:39:37Z</time>
      </trkpt>
      <trkpt lat="46.15812" lon="5.62174">
        <ele>913.3</ele>
        <time>2020-05-24T07:39:38Z</time>
      </trkpt>
      <trkpt lat="46.15812" lon="5.62178">
        <ele>912.5</ele>
        <time>2020-05-24T07:39:40Z</time>
      </trkpt>
      <trkpt lat="46.15812" lon="5.62183">
        <ele>911.7</ele>
        <time>2020-05-24T07:39:41Z</time>
      </trkpt>
      <trkpt lat="46.15812" lon="5.62184">
        <ele>911.4</ele>
        <time>2020-05-24T07:39:42Z</time>
      </trkpt>
      <trkpt lat="46.15812" lon="5.6219">
        <ele>910.4</ele>
        <time>2020-05-24T07:39:43Z</time>
      </trkpt>
      <trkpt lat="46.15812" lon="5.622">
        <ele>909.1</ele>
        <time>2020-05-24T07:39:45Z</time>
      </trkpt>
      <trkpt lat="46.15812" lon="5.62205">
        <ele>908.4</ele>
        <time>2020-05-24T07:39:46Z</time>
      </trkpt>
      <trkpt lat="46.15815" lon="5.62215">
        <ele>907.1</ele>
        <time>2020-05-24T07:39:48Z</time>
      </trkpt>
      <trkpt lat="46.15818" lon="5.62219">
        <ele>906.5</ele>
        <time>2020-05-24T07:39:49Z</time>
      </trkpt>
      <trkpt lat="46.15821" lon="5.62224">
        <ele>905.9</ele>
        <time>2020-05-24T07:39:50Z</time>
      </trkpt>
      <trkpt lat="46.15824" lon="5.62228">
        <ele>905.5</ele>
        <time>2020-05-24T07:39:52Z</time>
      </trkpt>
      <trkpt lat="46.15826" lon="5.62231">
        <ele>905.2</ele>
        <time>2020-05-24T07:39:53Z</time>
      </trkpt>
      <trkpt lat="46.15826" lon="5.62232">
        <ele>905.1</ele>
        <time>2020-05-24T07:39:54Z</time>
      </trkpt>
      <trkpt lat="46.15828" lon="5.62235">
        <ele>905</ele>
        <time>2020-05-24T07:39:55Z</time>
      </trkpt>
      <trkpt lat="46.15829" lon="5.62238">
        <ele>904.9</ele>
        <time>2020-05-24T07:39:57Z</time>
      </trkpt>
      <trkpt lat="46.1583" lon="5.6224">
        <ele>904.9</ele>
        <time>2020-05-24T07:39:58Z</time>
      </trkpt>
      <trkpt lat="46.15831" lon="5.62244">
        <ele>904.8</ele>
        <time>2020-05-24T07:40:00Z</time>
      </trkpt>
      <trkpt lat="46.15832" lon="5.62248">
        <ele>904.8</ele>
        <time>2020-05-24T07:40:01Z</time>
      </trkpt>
      <trkpt lat="46.15832" lon="5.62249">
        <ele>904.9</ele>
        <time>2020-05-24T07:40:02Z</time>
      </trkpt>
      <trkpt lat="46.15833" lon="5.62254">
        <ele>904.9</ele>
        <time>2020-05-24T07:40:04Z</time>
      </trkpt>
      <trkpt lat="46.15833" lon="5.62256">
        <ele>905</ele>
        <time>2020-05-24T07:40:05Z</time>
      </trkpt>
      <trkpt lat="46.15833" lon="5.62258">
        <ele>905</ele>
        <time>2020-05-24T07:40:06Z</time>
      </trkpt>
      <trkpt lat="46.15832" lon="5.62262">
        <ele>905.1</ele>
        <time>2020-05-24T07:40:07Z</time>
      </trkpt>
      <trkpt lat="46.15832" lon="5.62265">
        <ele>905.2</ele>
        <time>2020-05-24T07:40:09Z</time>
      </trkpt>
      <trkpt lat="46.15834" lon="5.62269">
        <ele>905.2</ele>
        <time>2020-05-24T07:40:10Z</time>
      </trkpt>
      <trkpt lat="46.15834" lon="5.6227">
        <ele>905.3</ele>
        <time>2020-05-24T07:40:11Z</time>
      </trkpt>
      <trkpt lat="46.15835" lon="5.62273">
        <ele>905.3</ele>
        <time>2020-05-24T07:40:12Z</time>
      </trkpt>
      <trkpt lat="46.15835" lon="5.62274">
        <ele>905.3</ele>
        <time>2020-05-24T07:40:13Z</time>
      </trkpt>
      <trkpt lat="46.15836" lon="5.62278">
        <ele>905.4</ele>
        <time>2020-05-24T07:40:15Z</time>
      </trkpt>
      <trkpt lat="46.15837" lon="5.62282">
        <ele>905.4</ele>
        <time>2020-05-24T07:40:16Z</time>
      </trkpt>
      <trkpt lat="46.15838" lon="5.62288">
        <ele>905.5</ele>
        <time>2020-05-24T07:40:18Z</time>
      </trkpt>
      <trkpt lat="46.15838" lon="5.6229">
        <ele>905.5</ele>
        <time>2020-05-24T07:40:19Z</time>
      </trkpt>
      <trkpt lat="46.15838" lon="5.62292">
        <ele>905.6</ele>
        <time>2020-05-24T07:40:20Z</time>
      </trkpt>
      <trkpt lat="46.15838" lon="5.62294">
        <ele>905.6</ele>
        <time>2020-05-24T07:40:21Z</time>
      </trkpt>
      <trkpt lat="46.15838" lon="5.62298">
        <ele>905.7</ele>
        <time>2020-05-24T07:40:23Z</time>
      </trkpt>
      <trkpt lat="46.15838" lon="5.62301">
        <ele>905.7</ele>
        <time>2020-05-24T07:40:24Z</time>
      </trkpt>
      <trkpt lat="46.15838" lon="5.62306">
        <ele>905.8</ele>
        <time>2020-05-24T07:40:26Z</time>
      </trkpt>
      <trkpt lat="46.15839" lon="5.6231">
        <ele>905.9</ele>
        <time>2020-05-24T07:40:27Z</time>
      </trkpt>
      <trkpt lat="46.1584" lon="5.62314">
        <ele>906</ele>
        <time>2020-05-24T07:40:29Z</time>
      </trkpt>
      <trkpt lat="46.1584" lon="5.62318">
        <ele>906</ele>
        <time>2020-05-24T07:40:30Z</time>
      </trkpt>
      <trkpt lat="46.15841" lon="5.62322">
        <ele>906.1</ele>
        <time>2020-05-24T07:40:32Z</time>
      </trkpt>
      <trkpt lat="46.15842" lon="5.62325">
        <ele>906.2</ele>
        <time>2020-05-24T07:40:33Z</time>
      </trkpt>
      <trkpt lat="46.15843" lon="5.62329">
        <ele>906.2</ele>
        <time>2020-05-24T07:40:34Z</time>
      </trkpt>
      <trkpt lat="46.15843" lon="5.62331">
        <ele>906.3</ele>
        <time>2020-05-24T07:40:35Z</time>
      </trkpt>
      <trkpt lat="46.15845" lon="5.62337">
        <ele>906.4</ele>
        <time>2020-05-24T07:40:37Z</time>
      </trkpt>
      <trkpt lat="46.15846" lon="5.62339">
        <ele>906.4</ele>
        <time>2020-05-24T07:40:38Z</time>
      </trkpt>
      <trkpt lat="46.15846" lon="5.62341">
        <ele>906.4</ele>
        <time>2020-05-24T07:40:39Z</time>
      </trkpt>
      <trkpt lat="46.15846" lon="5.62343">
        <ele>906.4</ele>
        <time>2020-05-24T07:40:41Z</time>
      </trkpt>
      <trkpt lat="46.15847" lon="5.62345">
        <ele>906.4</ele>
        <time>2020-05-24T07:40:42Z</time>
      </trkpt>
      <trkpt lat="46.15848" lon="5.62347">
        <ele>906.4</ele>
        <time>2020-05-24T07:40:43Z</time>
      </trkpt>
      <trkpt lat="46.15849" lon="5.62353">
        <ele>906.4</ele>
        <time>2020-05-24T07:40:45Z</time>
      </trkpt>
      <trkpt lat="46.1585" lon="5.62357">
        <ele>906.4</ele>
        <time>2020-05-24T07:40:46Z</time>
      </trkpt>
      <trkpt lat="46.15851" lon="5.62361">
        <ele>906.3</ele>
        <time>2020-05-24T07:40:47Z</time>
      </trkpt>
      <trkpt lat="46.15851" lon="5.62368">
        <ele>906.1</ele>
        <time>2020-05-24T07:40:49Z</time>
      </trkpt>
      <trkpt lat="46.15851" lon="5.62372">
        <ele>906</ele>
        <time>2020-05-24T07:40:51Z</time>
      </trkpt>
      <trkpt lat="46.15852" lon="5.62376">
        <ele>905.9</ele>
        <time>2020-05-24T07:40:52Z</time>
      </trkpt>
      <trkpt lat="46.15852" lon="5.6238">
        <ele>905.8</ele>
        <time>2020-05-24T07:40:53Z</time>
      </trkpt>
      <trkpt lat="46.15852" lon="5.62381">
        <ele>905.7</ele>
        <time>2020-05-24T07:40:54Z</time>
      </trkpt>
      <trkpt lat="46.15853" lon="5.62385">
        <ele>905.6</ele>
        <time>2020-05-24T07:40:55Z</time>
      </trkpt>
      <trkpt lat="46.15853" lon="5.62387">
        <ele>905.5</ele>
        <time>2020-05-24T07:40:57Z</time>
      </trkpt>
      <trkpt lat="46.15853" lon="5.6239">
        <ele>905.4</ele>
        <time>2020-05-24T07:40:58Z</time>
      </trkpt>
      <trkpt lat="46.15854" lon="5.62392">
        <ele>905.3</ele>
        <time>2020-05-24T07:40:59Z</time>
      </trkpt>
      <trkpt lat="46.15854" lon="5.62394">
        <ele>905.2</ele>
        <time>2020-05-24T07:41:01Z</time>
      </trkpt>
      <trkpt lat="46.15854" lon="5.62397">
        <ele>905.1</ele>
        <time>2020-05-24T07:41:03Z</time>
      </trkpt>
      <trkpt lat="46.15854" lon="5.624">
        <ele>904.9</ele>
        <time>2020-05-24T07:41:04Z</time>
      </trkpt>
      <trkpt lat="46.15855" lon="5.62402">
        <ele>904.8</ele>
        <time>2020-05-24T07:41:06Z</time>
      </trkpt>
      <trkpt lat="46.15855" lon="5.62404">
        <ele>904.6</ele>
        <time>2020-05-24T07:41:07Z</time>
      </trkpt>
      <trkpt lat="46.15856" lon="5.62407">
        <ele>904.4</ele>
        <time>2020-05-24T07:41:08Z</time>
      </trkpt>
      <trkpt lat="46.15858" lon="5.62412">
        <ele>903.9</ele>
        <time>2020-05-24T07:41:10Z</time>
      </trkpt>
      <trkpt lat="46.15861" lon="5.62416">
        <ele>903.4</ele>
        <time>2020-05-24T07:41:12Z</time>
      </trkpt>
      <trkpt lat="46.15862" lon="5.62417">
        <ele>903.2</ele>
        <time>2020-05-24T07:41:13Z</time>
      </trkpt>
      <trkpt lat="46.15863" lon="5.6242">
        <ele>902.7</ele>
        <time>2020-05-24T07:41:14Z</time>
      </trkpt>
      <trkpt lat="46.15865" lon="5.62424">
        <ele>902.1</ele>
        <time>2020-05-24T07:41:16Z</time>
      </trkpt>
      <trkpt lat="46.15867" lon="5.62429">
        <ele>901.4</ele>
        <time>2020-05-24T07:41:18Z</time>
      </trkpt>
      <trkpt lat="46.15867" lon="5.6243">
        <ele>901.1</ele>
        <time>2020-05-24T07:41:19Z</time>
      </trkpt>
      <trkpt lat="46.15869" lon="5.62436">
        <ele>900.3</ele>
        <time>2020-05-24T07:41:21Z</time>
      </trkpt>
      <trkpt lat="46.15871" lon="5.62439">
        <ele>899.7</ele>
        <time>2020-05-24T07:41:23Z</time>
      </trkpt>
      <trkpt lat="46.15873" lon="5.62442">
        <ele>899.2</ele>
        <time>2020-05-24T07:41:24Z</time>
      </trkpt>
      <trkpt lat="46.15874" lon="5.62447">
        <ele>898.6</ele>
        <time>2020-05-24T07:41:26Z</time>
      </trkpt>
      <trkpt lat="46.15876" lon="5.6245">
        <ele>898.2</ele>
        <time>2020-05-24T07:41:27Z</time>
      </trkpt>
      <trkpt lat="46.15876" lon="5.62453">
        <ele>897.9</ele>
        <time>2020-05-24T07:41:29Z</time>
      </trkpt>
      <trkpt lat="46.15879" lon="5.62458">
        <ele>897.4</ele>
        <time>2020-05-24T07:41:30Z</time>
      </trkpt>
      <trkpt lat="46.15879" lon="5.62459">
        <ele>897.3</ele>
        <time>2020-05-24T07:41:31Z</time>
      </trkpt>
      <trkpt lat="46.15883" lon="5.62466">
        <ele>896.5</ele>
        <time>2020-05-24T07:41:33Z</time>
      </trkpt>
      <trkpt lat="46.15885" lon="5.62472">
        <ele>896</ele>
        <time>2020-05-24T07:41:34Z</time>
      </trkpt>
      <trkpt lat="46.1589" lon="5.62484">
        <ele>894.8</ele>
        <time>2020-05-24T07:41:36Z</time>
      </trkpt>
      <trkpt lat="46.15894" lon="5.62491">
        <ele>894</ele>
        <time>2020-05-24T07:41:38Z</time>
      </trkpt>
      <trkpt lat="46.15895" lon="5.62493">
        <ele>893.8</ele>
        <time>2020-05-24T07:41:40Z</time>
      </trkpt>
      <trkpt lat="46.15896" lon="5.62494">
        <ele>893.6</ele>
        <time>2020-05-24T07:41:41Z</time>
      </trkpt>
      <trkpt lat="46.15897" lon="5.62496">
        <ele>893.4</ele>
        <time>2020-05-24T07:41:42Z</time>
      </trkpt>
      <trkpt lat="46.15897" lon="5.62497">
        <ele>893.3</ele>
        <time>2020-05-24T07:41:43Z</time>
      </trkpt>
      <trkpt lat="46.15898" lon="5.62498">
        <ele>893.1</ele>
        <time>2020-05-24T07:41:44Z</time>
      </trkpt>
      <trkpt lat="46.15899" lon="5.62499">
        <ele>893</ele>
        <time>2020-05-24T07:41:45Z</time>
      </trkpt>
      <trkpt lat="46.15901" lon="5.62501">
        <ele>892.7</ele>
        <time>2020-05-24T07:41:47Z</time>
      </trkpt>
      <trkpt lat="46.15902" lon="5.62503">
        <ele>892.5</ele>
        <time>2020-05-24T07:41:48Z</time>
      </trkpt>
      <trkpt lat="46.15903" lon="5.62503">
        <ele>892.4</ele>
        <time>2020-05-24T07:41:49Z</time>
      </trkpt>
      <trkpt lat="46.15904" lon="5.62505">
        <ele>892.2</ele>
        <time>2020-05-24T07:41:51Z</time>
      </trkpt>
      <trkpt lat="46.15905" lon="5.62506">
        <ele>892</ele>
        <time>2020-05-24T07:41:52Z</time>
      </trkpt>
      <trkpt lat="46.15906" lon="5.62508">
        <ele>891.8</ele>
        <time>2020-05-24T07:41:54Z</time>
      </trkpt>
      <trkpt lat="46.15908" lon="5.6251">
        <ele>891.5</ele>
        <time>2020-05-24T07:41:56Z</time>
      </trkpt>
      <trkpt lat="46.15909" lon="5.62512">
        <ele>891.4</ele>
        <time>2020-05-24T07:41:57Z</time>
      </trkpt>
      <trkpt lat="46.1591" lon="5.62513">
        <ele>891.2</ele>
        <time>2020-05-24T07:41:58Z</time>
      </trkpt>
      <trkpt lat="46.15911" lon="5.62514">
        <ele>891.1</ele>
        <time>2020-05-24T07:41:59Z</time>
      </trkpt>
      <trkpt lat="46.15911" lon="5.62516">
        <ele>890.9</ele>
        <time>2020-05-24T07:42:01Z</time>
      </trkpt>
      <trkpt lat="46.15911" lon="5.62519">
        <ele>890.7</ele>
        <time>2020-05-24T07:42:02Z</time>
      </trkpt>
      <trkpt lat="46.15912" lon="5.62521">
        <ele>890.5</ele>
        <time>2020-05-24T07:42:03Z</time>
      </trkpt>
      <trkpt lat="46.15912" lon="5.62523">
        <ele>890.4</ele>
        <time>2020-05-24T07:42:05Z</time>
      </trkpt>
      <trkpt lat="46.15913" lon="5.62524">
        <ele>890.2</ele>
        <time>2020-05-24T07:42:06Z</time>
      </trkpt>
      <trkpt lat="46.15914" lon="5.62525">
        <ele>890.1</ele>
        <time>2020-05-24T07:42:07Z</time>
      </trkpt>
      <trkpt lat="46.15915" lon="5.62526">
        <ele>890</ele>
        <time>2020-05-24T07:42:08Z</time>
      </trkpt>
      <trkpt lat="46.15916" lon="5.62528">
        <ele>889.8</ele>
        <time>2020-05-24T07:42:10Z</time>
      </trkpt>
      <trkpt lat="46.15918" lon="5.62529">
        <ele>889.5</ele>
        <time>2020-05-24T07:42:12Z</time>
      </trkpt>
      <trkpt lat="46.15921" lon="5.6253">
        <ele>889.1</ele>
        <time>2020-05-24T07:42:13Z</time>
      </trkpt>
      <trkpt lat="46.15924" lon="5.6253">
        <ele>885.5</ele>
        <time>2020-05-24T07:42:15Z</time>
      </trkpt>
      <trkpt lat="46.15926" lon="5.62531">
        <ele>885.5</ele>
        <time>2020-05-24T07:42:16Z</time>
      </trkpt>
      <trkpt lat="46.15927" lon="5.62533">
        <ele>885.5</ele>
        <time>2020-05-24T07:42:18Z</time>
      </trkpt>
      <trkpt lat="46.15927" lon="5.62537">
        <ele>885.5</ele>
        <time>2020-05-24T07:42:19Z</time>
      </trkpt>
      <trkpt lat="46.15926" lon="5.62539">
        <ele>885.5</ele>
        <time>2020-05-24T07:42:20Z</time>
      </trkpt>
      <trkpt lat="46.15924" lon="5.62538">
        <ele>885.5</ele>
        <time>2020-05-24T07:42:22Z</time>
      </trkpt>
      <trkpt lat="46.15923" lon="5.62538">
        <ele>885.5</ele>
        <time>2020-05-24T07:42:23Z</time>
      </trkpt>
      <trkpt lat="46.15918" lon="5.62539">
        <ele>885.5</ele>
        <time>2020-05-24T07:42:25Z</time>
      </trkpt>
      <trkpt lat="46.15916" lon="5.62539">
        <ele>885.5</ele>
        <time>2020-05-24T07:42:26Z</time>
      </trkpt>
      <trkpt lat="46.15915" lon="5.62539">
        <ele>879.7</ele>
        <time>2020-05-24T07:42:27Z</time>
      </trkpt>
      <trkpt lat="46.15914" lon="5.62539">
        <ele>879.5</ele>
        <time>2020-05-24T07:42:28Z</time>
      </trkpt>
      <trkpt lat="46.15913" lon="5.62538">
        <ele>879.3</ele>
        <time>2020-05-24T07:42:30Z</time>
      </trkpt>
      <trkpt lat="46.15912" lon="5.62538">
        <ele>879.3</ele>
        <time>2020-05-24T07:42:31Z</time>
      </trkpt>
      <trkpt lat="46.15911" lon="5.62538">
        <ele>879.1</ele>
        <time>2020-05-24T07:42:33Z</time>
      </trkpt>
      <trkpt lat="46.15911" lon="5.62538">
        <ele>879.1</ele>
        <time>2020-05-24T07:42:34Z</time>
      </trkpt>
      <trkpt lat="46.15911" lon="5.62538">
        <ele>879.1</ele>
        <time>2020-05-24T07:42:35Z</time>
      </trkpt>
      <trkpt lat="46.15911" lon="5.62539">
        <ele>879.1</ele>
        <time>2020-05-24T07:42:37Z</time>
      </trkpt>
      <trkpt lat="46.15911" lon="5.62539">
        <ele>879.1</ele>
        <time>2020-05-24T07:42:38Z</time>
      </trkpt>
      <trkpt lat="46.15911" lon="5.62539">
        <ele>879</ele>
        <time>2020-05-24T07:42:39Z</time>
      </trkpt>
      <trkpt lat="46.15911" lon="5.62539">
        <ele>879</ele>
        <time>2020-05-24T07:42:40Z</time>
      </trkpt>
      <trkpt lat="46.15911" lon="5.62539">
        <ele>879</ele>
        <time>2020-05-24T07:42:42Z</time>
      </trkpt>
      <trkpt lat="46.15911" lon="5.62539">
        <ele>879</ele>
        <time>2020-05-24T07:42:44Z</time>
      </trkpt>
      <trkpt lat="46.1591" lon="5.6254">
        <ele>878.9</ele>
        <time>2020-05-24T07:42:46Z</time>
      </trkpt>
      <trkpt lat="46.1591" lon="5.6254">
        <ele>878.9</ele>
        <time>2020-05-24T07:42:48Z</time>
      </trkpt>
      <trkpt lat="46.1591" lon="5.6254">
        <ele>878.9</ele>
        <time>2020-05-24T07:42:49Z</time>
      </trkpt>
      <trkpt lat="46.1591" lon="5.6254">
        <ele>878.9</ele>
        <time>2020-05-24T07:42:50Z</time>
      </trkpt>
      <trkpt lat="46.1591" lon="5.6254">
        <ele>878.9</ele>
        <time>2020-05-24T07:42:52Z</time>
      </trkpt>
      <trkpt lat="46.1591" lon="5.6254">
        <ele>878.8</ele>
        <time>2020-05-24T07:42:53Z</time>
      </trkpt>
      <trkpt lat="46.1591" lon="5.6254">
        <ele>878.8</ele>
        <time>2020-05-24T07:42:54Z</time>
      </trkpt>
      <trkpt lat="46.1591" lon="5.62541">
        <ele>878.8</ele>
        <time>2020-05-24T07:42:55Z</time>
      </trkpt>
      <trkpt lat="46.1591" lon="5.62541">
        <ele>878.8</ele>
        <time>2020-05-24T07:42:57Z</time>
      </trkpt>
      <trkpt lat="46.15909" lon="5.62541">
        <ele>878.7</ele>
        <time>2020-05-24T07:42:58Z</time>
      </trkpt>
      <trkpt lat="46.15909" lon="5.62541">
        <ele>878.7</ele>
        <time>2020-05-24T07:43:00Z</time>
      </trkpt>
      <trkpt lat="46.15909" lon="5.62541">
        <ele>878.7</ele>
        <time>2020-05-24T07:43:19Z</time>
      </trkpt>
      <trkpt lat="46.15909" lon="5.62541">
        <ele>878.7</ele>
        <time>2020-05-24T07:43:20Z</time>
      </trkpt>
      <trkpt lat="46.15901" lon="5.62543">
        <ele>877.6</ele>
        <time>2020-05-24T07:43:21Z</time>
      </trkpt>
      <trkpt lat="46.15894" lon="5.6254">
        <ele>876.6</ele>
        <time>2020-05-24T07:43:22Z</time>
      </trkpt>
      <trkpt lat="46.1589" lon="5.62537">
        <ele>876</ele>
        <time>2020-05-24T07:43:24Z</time>
      </trkpt>
      <trkpt lat="46.15885" lon="5.62534">
        <ele>875.5</ele>
        <time>2020-05-24T07:43:25Z</time>
      </trkpt>
      <trkpt lat="46.15869" lon="5.62521">
        <ele>873.8</ele>
        <time>2020-05-24T07:43:27Z</time>
      </trkpt>
      <trkpt lat="46.15855" lon="5.62504">
        <ele>872</ele>
        <time>2020-05-24T07:43:29Z</time>
      </trkpt>
      <trkpt lat="46.15845" lon="5.6249">
        <ele>871</ele>
        <time>2020-05-24T07:43:31Z</time>
      </trkpt>
      <trkpt lat="46.15838" lon="5.62478">
        <ele>870.4</ele>
        <time>2020-05-24T07:43:33Z</time>
      </trkpt>
      <trkpt lat="46.15833" lon="5.62472">
        <ele>870.1</ele>
        <time>2020-05-24T07:43:34Z</time>
      </trkpt>
      <trkpt lat="46.15826" lon="5.6246">
        <ele>869.5</ele>
        <time>2020-05-24T07:43:36Z</time>
      </trkpt>
      <trkpt lat="46.15823" lon="5.62457">
        <ele>869.4</ele>
        <time>2020-05-24T07:43:37Z</time>
      </trkpt>
      <trkpt lat="46.15818" lon="5.62447">
        <ele>869</ele>
        <time>2020-05-24T07:43:39Z</time>
      </trkpt>
      <trkpt lat="46.15814" lon="5.62442">
        <ele>868.9</ele>
        <time>2020-05-24T07:43:40Z</time>
      </trkpt>
      <trkpt lat="46.15811" lon="5.62437">
        <ele>868.8</ele>
        <time>2020-05-24T07:43:42Z</time>
      </trkpt>
      <trkpt lat="46.15811" lon="5.62434">
        <ele>868.7</ele>
        <time>2020-05-24T07:43:43Z</time>
      </trkpt>
      <trkpt lat="46.15809" lon="5.62426">
        <ele>868.6</ele>
        <time>2020-05-24T07:43:45Z</time>
      </trkpt>
      <trkpt lat="46.15806" lon="5.6242">
        <ele>868.3</ele>
        <time>2020-05-24T07:43:46Z</time>
      </trkpt>
      <trkpt lat="46.15804" lon="5.62413">
        <ele>867.9</ele>
        <time>2020-05-24T07:43:48Z</time>
      </trkpt>
      <trkpt lat="46.15801" lon="5.62407">
        <ele>867.4</ele>
        <time>2020-05-24T07:43:49Z</time>
      </trkpt>
      <trkpt lat="46.15798" lon="5.624">
        <ele>866.6</ele>
        <time>2020-05-24T07:43:51Z</time>
      </trkpt>
      <trkpt lat="46.15797" lon="5.62396">
        <ele>866.1</ele>
        <time>2020-05-24T07:43:52Z</time>
      </trkpt>
      <trkpt lat="46.15793" lon="5.62391">
        <ele>865.1</ele>
        <time>2020-05-24T07:43:54Z</time>
      </trkpt>
      <trkpt lat="46.15792" lon="5.6239">
        <ele>864.8</ele>
        <time>2020-05-24T07:43:55Z</time>
      </trkpt>
      <trkpt lat="46.15791" lon="5.62388">
        <ele>864.5</ele>
        <time>2020-05-24T07:43:56Z</time>
      </trkpt>
      <trkpt lat="46.15789" lon="5.62385">
        <ele>863.8</ele>
        <time>2020-05-24T07:43:57Z</time>
      </trkpt>
      <trkpt lat="46.15784" lon="5.62377">
        <ele>862.1</ele>
        <time>2020-05-24T07:43:59Z</time>
      </trkpt>
      <trkpt lat="46.15782" lon="5.62372">
        <ele>861.2</ele>
        <time>2020-05-24T07:44:00Z</time>
      </trkpt>
      <trkpt lat="46.15777" lon="5.62354">
        <ele>858.4</ele>
        <time>2020-05-24T07:44:01Z</time>
      </trkpt>
      <trkpt lat="46.15774" lon="5.62336">
        <ele>855.6</ele>
        <time>2020-05-24T07:44:03Z</time>
      </trkpt>
      <trkpt lat="46.15771" lon="5.62327">
        <ele>854.1</ele>
        <time>2020-05-24T07:44:05Z</time>
      </trkpt>
      <trkpt lat="46.15769" lon="5.62322">
        <ele>853.1</ele>
        <time>2020-05-24T07:44:06Z</time>
      </trkpt>
      <trkpt lat="46.15764" lon="5.62318">
        <ele>851.7</ele>
        <time>2020-05-24T07:44:08Z</time>
      </trkpt>
      <trkpt lat="46.1576" lon="5.62317">
        <ele>850.7</ele>
        <time>2020-05-24T07:44:09Z</time>
      </trkpt>
      <trkpt lat="46.15756" lon="5.62315">
        <ele>849.7</ele>
        <time>2020-05-24T07:44:10Z</time>
      </trkpt>
      <trkpt lat="46.15744" lon="5.62303">
        <ele>846.6</ele>
        <time>2020-05-24T07:44:12Z</time>
      </trkpt>
      <trkpt lat="46.15733" lon="5.62289">
        <ele>843.8</ele>
        <time>2020-05-24T07:44:14Z</time>
      </trkpt>
      <trkpt lat="46.15724" lon="5.62277">
        <ele>842</ele>
        <time>2020-05-24T07:44:16Z</time>
      </trkpt>
      <trkpt lat="46.15713" lon="5.62268">
        <ele>839.9</ele>
        <time>2020-05-24T07:44:18Z</time>
      </trkpt>
      <trkpt lat="46.15704" lon="5.62266">
        <ele>838.2</ele>
        <time>2020-05-24T07:44:20Z</time>
      </trkpt>
      <trkpt lat="46.15701" lon="5.62265">
        <ele>837.6</ele>
        <time>2020-05-24T07:44:21Z</time>
      </trkpt>
      <trkpt lat="46.15696" lon="5.62265">
        <ele>836.7</ele>
        <time>2020-05-24T07:44:22Z</time>
      </trkpt>
      <trkpt lat="46.15688" lon="5.62264">
        <ele>834.9</ele>
        <time>2020-05-24T07:44:24Z</time>
      </trkpt>
      <trkpt lat="46.15681" lon="5.62262">
        <ele>833.4</ele>
        <time>2020-05-24T07:44:25Z</time>
      </trkpt>
      <trkpt lat="46.15677" lon="5.62261">
        <ele>832.4</ele>
        <time>2020-05-24T07:44:27Z</time>
      </trkpt>
      <trkpt lat="46.15676" lon="5.62262">
        <ele>832.3</ele>
        <time>2020-05-24T07:44:28Z</time>
      </trkpt>
      <trkpt lat="46.15676" lon="5.62261">
        <ele>832.2</ele>
        <time>2020-05-24T07:44:29Z</time>
      </trkpt>
      <trkpt lat="46.15676" lon="5.62261">
        <ele>832.2</ele>
        <time>2020-05-24T07:44:31Z</time>
      </trkpt>
      <trkpt lat="46.15676" lon="5.62261">
        <ele>832.2</ele>
        <time>2020-05-24T07:44:33Z</time>
      </trkpt>
      <trkpt lat="46.15676" lon="5.62261">
        <ele>832.1</ele>
        <time>2020-05-24T07:44:35Z</time>
      </trkpt>
      <trkpt lat="46.15676" lon="5.6226">
        <ele>832.1</ele>
        <time>2020-05-24T07:44:36Z</time>
      </trkpt>
      <trkpt lat="46.15676" lon="5.6226">
        <ele>832</ele>
        <time>2020-05-24T07:44:37Z</time>
      </trkpt>
      <trkpt lat="46.15676" lon="5.6226">
        <ele>832</ele>
        <time>2020-05-24T07:44:39Z</time>
      </trkpt>
      <trkpt lat="46.15676" lon="5.6226">
        <ele>832</ele>
        <time>2020-05-24T07:44:40Z</time>
      </trkpt>
      <trkpt lat="46.15676" lon="5.62259">
        <ele>831.9</ele>
        <time>2020-05-24T07:45:34Z</time>
      </trkpt>
      <trkpt lat="46.15676" lon="5.62259">
        <ele>831.9</ele>
        <time>2020-05-24T07:45:36Z</time>
      </trkpt>
      <trkpt lat="46.15675" lon="5.62259">
        <ele>831.8</ele>
        <time>2020-05-24T07:45:37Z</time>
      </trkpt>
      <trkpt lat="46.15675" lon="5.62259">
        <ele>831.8</ele>
        <time>2020-05-24T07:45:39Z</time>
      </trkpt>
      <trkpt lat="46.15675" lon="5.62258">
        <ele>831.8</ele>
        <time>2020-05-24T07:45:40Z</time>
      </trkpt>
      <trkpt lat="46.15675" lon="5.62258">
        <ele>831.7</ele>
        <time>2020-05-24T07:45:42Z</time>
      </trkpt>
      <trkpt lat="46.15675" lon="5.62258">
        <ele>831.7</ele>
        <time>2020-05-24T07:45:44Z</time>
      </trkpt>
      <trkpt lat="46.15675" lon="5.62258">
        <ele>831.7</ele>
        <time>2020-05-24T07:45:45Z</time>
      </trkpt>
      <trkpt lat="46.15675" lon="5.62258">
        <ele>831.6</ele>
        <time>2020-05-24T07:45:46Z</time>
      </trkpt>
      <trkpt lat="46.15675" lon="5.62257">
        <ele>831.6</ele>
        <time>2020-05-24T07:45:48Z</time>
      </trkpt>
      <trkpt lat="46.15675" lon="5.62257">
        <ele>831.6</ele>
        <time>2020-05-24T07:45:49Z</time>
      </trkpt>
      <trkpt lat="46.15675" lon="5.62257">
        <ele>831.5</ele>
        <time>2020-05-24T07:45:50Z</time>
      </trkpt>
      <trkpt lat="46.15675" lon="5.62257">
        <ele>831.5</ele>
        <time>2020-05-24T07:45:51Z</time>
      </trkpt>
      <trkpt lat="46.15675" lon="5.62256">
        <ele>831.5</ele>
        <time>2020-05-24T07:45:53Z</time>
      </trkpt>
      <trkpt lat="46.15675" lon="5.62256">
        <ele>831.4</ele>
        <time>2020-05-24T07:45:54Z</time>
      </trkpt>
      <trkpt lat="46.15674" lon="5.62256">
        <ele>831.4</ele>
        <time>2020-05-24T07:45:56Z</time>
      </trkpt>
      <trkpt lat="46.15674" lon="5.62256">
        <ele>831.4</ele>
        <time>2020-05-24T07:45:58Z</time>
      </trkpt>
      <trkpt lat="46.15674" lon="5.62255">
        <ele>831.3</ele>
        <time>2020-05-24T07:45:59Z</time>
      </trkpt>
      <trkpt lat="46.15674" lon="5.62255">
        <ele>831.3</ele>
        <time>2020-05-24T07:46:01Z</time>
      </trkpt>
      <trkpt lat="46.15674" lon="5.62255">
        <ele>831.3</ele>
        <time>2020-05-24T07:46:02Z</time>
      </trkpt>
      <trkpt lat="46.15674" lon="5.62255">
        <ele>831.2</ele>
        <time>2020-05-24T07:46:04Z</time>
      </trkpt>
      <trkpt lat="46.15674" lon="5.62254">
        <ele>831.2</ele>
        <time>2020-05-24T07:46:27Z</time>
      </trkpt>
      <trkpt lat="46.15674" lon="5.62254">
        <ele>831.2</ele>
        <time>2020-05-24T07:46:28Z</time>
      </trkpt>
      <trkpt lat="46.15674" lon="5.62254">
        <ele>831.1</ele>
        <time>2020-05-24T07:46:30Z</time>
      </trkpt>
      <trkpt lat="46.15674" lon="5.62254">
        <ele>831.1</ele>
        <time>2020-05-24T07:46:31Z</time>
      </trkpt>
      <trkpt lat="46.15674" lon="5.62249">
        <ele>830.6</ele>
        <time>2020-05-24T07:46:32Z</time>
      </trkpt>
      <trkpt lat="46.15674" lon="5.62242">
        <ele>829.9</ele>
        <time>2020-05-24T07:46:33Z</time>
      </trkpt>
      <trkpt lat="46.15675" lon="5.62237">
        <ele>829.3</ele>
        <time>2020-05-24T07:46:34Z</time>
      </trkpt>
      <trkpt lat="46.15674" lon="5.62233">
        <ele>829</ele>
        <time>2020-05-24T07:46:36Z</time>
      </trkpt>
      <trkpt lat="46.15674" lon="5.62231">
        <ele>828.8</ele>
        <time>2020-05-24T07:46:38Z</time>
      </trkpt>
      <trkpt lat="46.15674" lon="5.62229">
        <ele>828.5</ele>
        <time>2020-05-24T07:46:39Z</time>
      </trkpt>
      <trkpt lat="46.15673" lon="5.62225">
        <ele>828.1</ele>
        <time>2020-05-24T07:46:41Z</time>
      </trkpt>
      <trkpt lat="46.15671" lon="5.6222">
        <ele>827.5</ele>
        <time>2020-05-24T07:46:42Z</time>
      </trkpt>
      <trkpt lat="46.1567" lon="5.62214">
        <ele>826.8</ele>
        <time>2020-05-24T07:46:43Z</time>
      </trkpt>
      <trkpt lat="46.15669" lon="5.62212">
        <ele>826.4</ele>
        <time>2020-05-24T07:46:44Z</time>
      </trkpt>
      <trkpt lat="46.15668" lon="5.62209">
        <ele>826</ele>
        <time>2020-05-24T07:46:46Z</time>
      </trkpt>
      <trkpt lat="46.15667" lon="5.62205">
        <ele>825.5</ele>
        <time>2020-05-24T07:46:47Z</time>
      </trkpt>
      <trkpt lat="46.15667" lon="5.62199">
        <ele>824.4</ele>
        <time>2020-05-24T07:46:49Z</time>
      </trkpt>
      <trkpt lat="46.15668" lon="5.62192">
        <ele>823.1</ele>
        <time>2020-05-24T07:46:50Z</time>
      </trkpt>
      <trkpt lat="46.15667" lon="5.62185">
        <ele>821.6</ele>
        <time>2020-05-24T07:46:51Z</time>
      </trkpt>
      <trkpt lat="46.15667" lon="5.62179">
        <ele>820.4</ele>
        <time>2020-05-24T07:46:52Z</time>
      </trkpt>
      <trkpt lat="46.15666" lon="5.62172">
        <ele>819</ele>
        <time>2020-05-24T07:46:53Z</time>
      </trkpt>
      <trkpt lat="46.15665" lon="5.62165">
        <ele>817.6</ele>
        <time>2020-05-24T07:46:54Z</time>
      </trkpt>
      <trkpt lat="46.15662" lon="5.62151">
        <ele>815</ele>
        <time>2020-05-24T07:46:56Z</time>
      </trkpt>
      <trkpt lat="46.15661" lon="5.62144">
        <ele>813.8</ele>
        <time>2020-05-24T07:46:57Z</time>
      </trkpt>
      <trkpt lat="46.15659" lon="5.6213">
        <ele>811.7</ele>
        <time>2020-05-24T07:46:59Z</time>
      </trkpt>
      <trkpt lat="46.15657" lon="5.62122">
        <ele>810.2</ele>
        <time>2020-05-24T07:47:00Z</time>
      </trkpt>
      <trkpt lat="46.1565" lon="5.6211">
        <ele>807.4</ele>
        <time>2020-05-24T07:47:02Z</time>
      </trkpt>
      <trkpt lat="46.15648" lon="5.62105">
        <ele>806.1</ele>
        <time>2020-05-24T07:47:03Z</time>
      </trkpt>
      <trkpt lat="46.15641" lon="5.62093">
        <ele>803.1</ele>
        <time>2020-05-24T07:47:05Z</time>
      </trkpt>
      <trkpt lat="46.15638" lon="5.62087">
        <ele>801.8</ele>
        <time>2020-05-24T07:47:06Z</time>
      </trkpt>
      <trkpt lat="46.15635" lon="5.62082">
        <ele>800.7</ele>
        <time>2020-05-24T07:47:07Z</time>
      </trkpt>
      <trkpt lat="46.15631" lon="5.62078">
        <ele>799.6</ele>
        <time>2020-05-24T07:47:08Z</time>
      </trkpt>
      <trkpt lat="46.15623" lon="5.62066">
        <ele>797</ele>
        <time>2020-05-24T07:47:10Z</time>
      </trkpt>
      <trkpt lat="46.15621" lon="5.62059">
        <ele>795.8</ele>
        <time>2020-05-24T07:47:11Z</time>
      </trkpt>
      <trkpt lat="46.15619" lon="5.62053">
        <ele>794.8</ele>
        <time>2020-05-24T07:47:12Z</time>
      </trkpt>
      <trkpt lat="46.15613" lon="5.62039">
        <ele>792.7</ele>
        <time>2020-05-24T07:47:14Z</time>
      </trkpt>
      <trkpt lat="46.1561" lon="5.62033">
        <ele>791.6</ele>
        <time>2020-05-24T07:47:15Z</time>
      </trkpt>
      <trkpt lat="46.15602" lon="5.62022">
        <ele>788.7</ele>
        <time>2020-05-24T07:47:17Z</time>
      </trkpt>
      <trkpt lat="46.15597" lon="5.62015">
        <ele>786.8</ele>
        <time>2020-05-24T07:47:18Z</time>
      </trkpt>
      <trkpt lat="46.15588" lon="5.62003">
        <ele>783.2</ele>
        <time>2020-05-24T07:47:20Z</time>
      </trkpt>
      <trkpt lat="46.15582" lon="5.61995">
        <ele>780.8</ele>
        <time>2020-05-24T07:47:22Z</time>
      </trkpt>
      <trkpt lat="46.15575" lon="5.61984">
        <ele>777.7</ele>
        <time>2020-05-24T07:47:24Z</time>
      </trkpt>
      <trkpt lat="46.1557" lon="5.61975">
        <ele>775.5</ele>
        <time>2020-05-24T07:47:26Z</time>
      </trkpt>
      <trkpt lat="46.15565" lon="5.61963">
        <ele>772.7</ele>
        <time>2020-05-24T07:47:28Z</time>
      </trkpt>
      <trkpt lat="46.15561" lon="5.61955">
        <ele>771.1</ele>
        <time>2020-05-24T07:47:29Z</time>
      </trkpt>
      <trkpt lat="46.1555" lon="5.61943">
        <ele>768.1</ele>
        <time>2020-05-24T07:47:31Z</time>
      </trkpt>
      <trkpt lat="46.15543" lon="5.61936">
        <ele>766.5</ele>
        <time>2020-05-24T07:47:32Z</time>
      </trkpt>
      <trkpt lat="46.15536" lon="5.61929">
        <ele>764.9</ele>
        <time>2020-05-24T07:47:33Z</time>
      </trkpt>
      <trkpt lat="46.15528" lon="5.61914">
        <ele>762.1</ele>
        <time>2020-05-24T07:47:35Z</time>
      </trkpt>
      <trkpt lat="46.15529" lon="5.61903">
        <ele>760.6</ele>
        <time>2020-05-24T07:47:37Z</time>
      </trkpt>
      <trkpt lat="46.1553" lon="5.61896">
        <ele>759.7</ele>
        <time>2020-05-24T07:47:38Z</time>
      </trkpt>
      <trkpt lat="46.15533" lon="5.61884">
        <ele>758.3</ele>
        <time>2020-05-24T07:47:39Z</time>
      </trkpt>
      <trkpt lat="46.15535" lon="5.6187">
        <ele>756.6</ele>
        <time>2020-05-24T07:47:40Z</time>
      </trkpt>
      <trkpt lat="46.15538" lon="5.61839">
        <ele>751.7</ele>
        <time>2020-05-24T07:47:42Z</time>
      </trkpt>
      <trkpt lat="46.15537" lon="5.61826">
        <ele>749.7</ele>
        <time>2020-05-24T07:47:43Z</time>
      </trkpt>
      <trkpt lat="46.15535" lon="5.61811">
        <ele>747.2</ele>
        <time>2020-05-24T07:47:45Z</time>
      </trkpt>
      <trkpt lat="46.15531" lon="5.61805">
        <ele>745.9</ele>
        <time>2020-05-24T07:47:47Z</time>
      </trkpt>
      <trkpt lat="46.15519" lon="5.61802">
        <ele>743.5</ele>
        <time>2020-05-24T07:47:49Z</time>
      </trkpt>
      <trkpt lat="46.15509" lon="5.61791">
        <ele>741.4</ele>
        <time>2020-05-24T07:47:51Z</time>
      </trkpt>
      <trkpt lat="46.15504" lon="5.61775">
        <ele>739.5</ele>
        <time>2020-05-24T07:47:53Z</time>
      </trkpt>
      <trkpt lat="46.15502" lon="5.61766">
        <ele>738.4</ele>
        <time>2020-05-24T07:47:54Z</time>
      </trkpt>
      <trkpt lat="46.15499" lon="5.61756">
        <ele>737</ele>
        <time>2020-05-24T07:47:55Z</time>
      </trkpt>
      <trkpt lat="46.15496" lon="5.61746">
        <ele>735.3</ele>
        <time>2020-05-24T07:47:56Z</time>
      </trkpt>
      <trkpt lat="46.15489" lon="5.61727">
        <ele>731.8</ele>
        <time>2020-05-24T07:47:58Z</time>
      </trkpt>
      <trkpt lat="46.15481" lon="5.61707">
        <ele>727.3</ele>
        <time>2020-05-24T07:48:00Z</time>
      </trkpt>
      <trkpt lat="46.15473" lon="5.61689">
        <ele>723.3</ele>
        <time>2020-05-24T07:48:02Z</time>
      </trkpt>
      <trkpt lat="46.15471" lon="5.61683">
        <ele>722.1</ele>
        <time>2020-05-24T07:48:03Z</time>
      </trkpt>
      <trkpt lat="46.15472" lon="5.6168">
        <ele>721.6</ele>
        <time>2020-05-24T07:48:04Z</time>
      </trkpt>
      <trkpt lat="46.15477" lon="5.61678">
        <ele>720.3</ele>
        <time>2020-05-24T07:48:06Z</time>
      </trkpt>
      <trkpt lat="46.15481" lon="5.61677">
        <ele>719.4</ele>
        <time>2020-05-24T07:48:07Z</time>
      </trkpt>
      <trkpt lat="46.15484" lon="5.61675">
        <ele>718.3</ele>
        <time>2020-05-24T07:48:08Z</time>
      </trkpt>
      <trkpt lat="46.15491" lon="5.6166">
        <ele>715.2</ele>
        <time>2020-05-24T07:48:10Z</time>
      </trkpt>
      <trkpt lat="46.155" lon="5.61635">
        <ele>710.8</ele>
        <time>2020-05-24T07:48:12Z</time>
      </trkpt>
      <trkpt lat="46.15507" lon="5.61612">
        <ele>706.8</ele>
        <time>2020-05-24T07:48:14Z</time>
      </trkpt>
      <trkpt lat="46.15508" lon="5.61601">
        <ele>691.4</ele>
        <time>2020-05-24T07:48:15Z</time>
      </trkpt>
      <trkpt lat="46.15506" lon="5.6158">
        <ele>685.5</ele>
        <time>2020-05-24T07:48:17Z</time>
      </trkpt>
      <trkpt lat="46.15499" lon="5.61569">
        <ele>681.5</ele>
        <time>2020-05-24T07:48:19Z</time>
      </trkpt>
      <trkpt lat="46.15495" lon="5.61565">
        <ele>679.6</ele>
        <time>2020-05-24T07:48:20Z</time>
      </trkpt>
      <trkpt lat="46.1549" lon="5.6156">
        <ele>677.2</ele>
        <time>2020-05-24T07:48:21Z</time>
      </trkpt>
      <trkpt lat="46.15479" lon="5.61551">
        <ele>672.6</ele>
        <time>2020-05-24T07:48:23Z</time>
      </trkpt>
      <trkpt lat="46.15474" lon="5.61552">
        <ele>670.8</ele>
        <time>2020-05-24T07:48:25Z</time>
      </trkpt>
      <trkpt lat="46.15472" lon="5.61553">
        <ele>670.2</ele>
        <time>2020-05-24T07:48:26Z</time>
      </trkpt>
      <trkpt lat="46.15472" lon="5.61554">
        <ele>669.8</ele>
        <time>2020-05-24T07:48:27Z</time>
      </trkpt>
      <trkpt lat="46.15472" lon="5.61556">
        <ele>669.5</ele>
        <time>2020-05-24T07:48:28Z</time>
      </trkpt>
      <trkpt lat="46.15473" lon="5.61557">
        <ele>669.1</ele>
        <time>2020-05-24T07:48:30Z</time>
      </trkpt>
      <trkpt lat="46.15473" lon="5.61557">
        <ele>669</ele>
        <time>2020-05-24T07:48:32Z</time>
      </trkpt>
      <trkpt lat="46.15473" lon="5.61557">
        <ele>669</ele>
        <time>2020-05-24T07:48:34Z</time>
      </trkpt>
      <trkpt lat="46.15474" lon="5.61557">
        <ele>668.9</ele>
        <time>2020-05-24T07:48:35Z</time>
      </trkpt>
      <trkpt lat="46.15474" lon="5.61558">
        <ele>668.7</ele>
        <time>2020-05-24T07:48:37Z</time>
      </trkpt>
      <trkpt lat="46.15477" lon="5.61563">
        <ele>666.9</ele>
        <time>2020-05-24T07:50:01Z</time>
      </trkpt>
      <trkpt lat="46.15475" lon="5.61567">
        <ele>665.8</ele>
        <time>2020-05-24T07:50:03Z</time>
      </trkpt>
      <trkpt lat="46.15474" lon="5.61572">
        <ele>664.5</ele>
        <time>2020-05-24T07:50:04Z</time>
      </trkpt>
      <trkpt lat="46.15473" lon="5.61575">
        <ele>663.8</ele>
        <time>2020-05-24T07:50:05Z</time>
      </trkpt>
      <trkpt lat="46.1547" lon="5.61576">
        <ele>662.9</ele>
        <time>2020-05-24T07:50:07Z</time>
      </trkpt>
      <trkpt lat="46.15469" lon="5.61567">
        <ele>661.8</ele>
        <time>2020-05-24T07:50:09Z</time>
      </trkpt>
      <trkpt lat="46.15469" lon="5.61561">
        <ele>661.5</ele>
        <time>2020-05-24T07:50:10Z</time>
      </trkpt>
      <trkpt lat="46.15468" lon="5.61555">
        <ele>661.2</ele>
        <time>2020-05-24T07:50:11Z</time>
      </trkpt>
      <trkpt lat="46.15468" lon="5.61549">
        <ele>660.9</ele>
        <time>2020-05-24T07:50:13Z</time>
      </trkpt>
      <trkpt lat="46.15466" lon="5.61543">
        <ele>660.4</ele>
        <time>2020-05-24T07:50:14Z</time>
      </trkpt>
      <trkpt lat="46.15464" lon="5.61537">
        <ele>659.9</ele>
        <time>2020-05-24T07:50:16Z</time>
      </trkpt>
      <trkpt lat="46.15462" lon="5.61532">
        <ele>659.5</ele>
        <time>2020-05-24T07:50:17Z</time>
      </trkpt>
      <trkpt lat="46.1546" lon="5.61524">
        <ele>658.8</ele>
        <time>2020-05-24T07:50:19Z</time>
      </trkpt>
      <trkpt lat="46.15459" lon="5.61507">
        <ele>657.2</ele>
        <time>2020-05-24T07:50:20Z</time>
      </trkpt>
      <trkpt lat="46.1546" lon="5.61487">
        <ele>655.3</ele>
        <time>2020-05-24T07:50:22Z</time>
      </trkpt>
      <trkpt lat="46.1546" lon="5.61477">
        <ele>654.4</ele>
        <time>2020-05-24T07:50:23Z</time>
      </trkpt>
      <trkpt lat="46.15461" lon="5.61465">
        <ele>653.6</ele>
        <time>2020-05-24T07:50:24Z</time>
      </trkpt>
      <trkpt lat="46.15464" lon="5.61441">
        <ele>651.7</ele>
        <time>2020-05-24T07:50:26Z</time>
      </trkpt>
      <trkpt lat="46.15465" lon="5.61427">
        <ele>650.5</ele>
        <time>2020-05-24T07:50:27Z</time>
      </trkpt>
      <trkpt lat="46.15467" lon="5.61395">
        <ele>648.2</ele>
        <time>2020-05-24T07:50:29Z</time>
      </trkpt>
      <trkpt lat="46.1547" lon="5.61363">
        <ele>646.1</ele>
        <time>2020-05-24T07:50:31Z</time>
      </trkpt>
      <trkpt lat="46.15473" lon="5.61349">
        <ele>645.1</ele>
        <time>2020-05-24T07:50:32Z</time>
      </trkpt>
      <trkpt lat="46.15485" lon="5.61326">
        <ele>643.4</ele>
        <time>2020-05-24T07:50:34Z</time>
      </trkpt>
      <trkpt lat="46.15491" lon="5.61318">
        <ele>642.8</ele>
        <time>2020-05-24T07:50:35Z</time>
      </trkpt>
      <trkpt lat="46.15495" lon="5.61313">
        <ele>642.2</ele>
        <time>2020-05-24T07:50:36Z</time>
      </trkpt>
      <trkpt lat="46.15498" lon="5.61312">
        <ele>641.9</ele>
        <time>2020-05-24T07:50:38Z</time>
      </trkpt>
      <trkpt lat="46.15498" lon="5.61313">
        <ele>641.8</ele>
        <time>2020-05-24T07:50:39Z</time>
      </trkpt>
      <trkpt lat="46.15497" lon="5.61312">
        <ele>641.7</ele>
        <time>2020-05-24T07:50:41Z</time>
      </trkpt>
      <trkpt lat="46.15496" lon="5.61311">
        <ele>641.6</ele>
        <time>2020-05-24T07:50:42Z</time>
      </trkpt>
      <trkpt lat="46.15497" lon="5.61309">
        <ele>641.3</ele>
        <time>2020-05-24T07:50:44Z</time>
      </trkpt>
      <trkpt lat="46.15497" lon="5.61308">
        <ele>641.2</ele>
        <time>2020-05-24T07:50:45Z</time>
      </trkpt>
      <trkpt lat="46.15491" lon="5.6131">
        <ele>640.3</ele>
        <time>2020-05-24T07:50:47Z</time>
      </trkpt>
      <trkpt lat="46.15484" lon="5.61315">
        <ele>639</ele>
        <time>2020-05-24T07:50:49Z</time>
      </trkpt>
      <trkpt lat="46.15479" lon="5.61318">
        <ele>638.1</ele>
        <time>2020-05-24T07:50:50Z</time>
      </trkpt>
      <trkpt lat="46.15472" lon="5.61324">
        <ele>636.2</ele>
        <time>2020-05-24T07:50:52Z</time>
      </trkpt>
      <trkpt lat="46.15464" lon="5.61337">
        <ele>633.1</ele>
        <time>2020-05-24T07:50:53Z</time>
      </trkpt>
      <trkpt lat="46.15459" lon="5.61345">
        <ele>631.6</ele>
        <time>2020-05-24T07:50:55Z</time>
      </trkpt>
      <trkpt lat="46.15456" lon="5.6135">
        <ele>630.9</ele>
        <time>2020-05-24T07:50:56Z</time>
      </trkpt>
      <trkpt lat="46.15454" lon="5.61354">
        <ele>630.3</ele>
        <time>2020-05-24T07:50:57Z</time>
      </trkpt>
      <trkpt lat="46.15452" lon="5.61359">
        <ele>629.5</ele>
        <time>2020-05-24T07:50:58Z</time>
      </trkpt>
      <trkpt lat="46.15448" lon="5.61363">
        <ele>628.4</ele>
        <time>2020-05-24T07:51:00Z</time>
      </trkpt>
      <trkpt lat="46.15447" lon="5.61367">
        <ele>627.7</ele>
        <time>2020-05-24T07:51:01Z</time>
      </trkpt>
      <trkpt lat="46.15447" lon="5.61368">
        <ele>627.5</ele>
        <time>2020-05-24T07:51:02Z</time>
      </trkpt>
      <trkpt lat="46.15441" lon="5.6137">
        <ele>626.3</ele>
        <time>2020-05-24T07:51:04Z</time>
      </trkpt>
      <trkpt lat="46.15438" lon="5.6137">
        <ele>625.4</ele>
        <time>2020-05-24T07:51:05Z</time>
      </trkpt>
      <trkpt lat="46.15435" lon="5.61368">
        <ele>624.5</ele>
        <time>2020-05-24T07:51:06Z</time>
      </trkpt>
      <trkpt lat="46.15427" lon="5.61364">
        <ele>622.3</ele>
        <time>2020-05-24T07:51:07Z</time>
      </trkpt>
      <trkpt lat="46.15422" lon="5.61356">
        <ele>620.8</ele>
        <time>2020-05-24T07:51:09Z</time>
      </trkpt>
      <trkpt lat="46.15421" lon="5.61354">
        <ele>620.4</ele>
        <time>2020-05-24T07:51:10Z</time>
      </trkpt>
      <trkpt lat="46.1542" lon="5.61351">
        <ele>620</ele>
        <time>2020-05-24T07:51:12Z</time>
      </trkpt>
      <trkpt lat="46.1542" lon="5.61346">
        <ele>619.4</ele>
        <time>2020-05-24T07:51:14Z</time>
      </trkpt>
      <trkpt lat="46.1542" lon="5.61343">
        <ele>619.1</ele>
        <time>2020-05-24T07:51:15Z</time>
      </trkpt>
      <trkpt lat="46.15421" lon="5.61336">
        <ele>618.3</ele>
        <time>2020-05-24T07:51:16Z</time>
      </trkpt>
      <trkpt lat="46.15421" lon="5.61328">
        <ele>617.1</ele>
        <time>2020-05-24T07:51:17Z</time>
      </trkpt>
      <trkpt lat="46.15422" lon="5.61317">
        <ele>615.5</ele>
        <time>2020-05-24T07:51:18Z</time>
      </trkpt>
      <trkpt lat="46.15424" lon="5.61306">
        <ele>613.3</ele>
        <time>2020-05-24T07:51:19Z</time>
      </trkpt>
      <trkpt lat="46.15425" lon="5.61297">
        <ele>611.1</ele>
        <time>2020-05-24T07:51:20Z</time>
      </trkpt>
      <trkpt lat="46.1543" lon="5.61275">
        <ele>605.1</ele>
        <time>2020-05-24T07:51:22Z</time>
      </trkpt>
      <trkpt lat="46.15432" lon="5.61263">
        <ele>602.2</ele>
        <time>2020-05-24T07:51:23Z</time>
      </trkpt>
      <trkpt lat="46.15434" lon="5.61253">
        <ele>599.7</ele>
        <time>2020-05-24T07:51:24Z</time>
      </trkpt>
      <trkpt lat="46.15439" lon="5.61235">
        <ele>595.4</ele>
        <time>2020-05-24T07:51:26Z</time>
      </trkpt>
      <trkpt lat="46.15442" lon="5.61224">
        <ele>592.4</ele>
        <time>2020-05-24T07:51:28Z</time>
      </trkpt>
      <trkpt lat="46.15444" lon="5.61214">
        <ele>589.5</ele>
        <time>2020-05-24T07:51:30Z</time>
      </trkpt>
      <trkpt lat="46.15447" lon="5.61205">
        <ele>587.1</ele>
        <time>2020-05-24T07:51:31Z</time>
      </trkpt>
      <trkpt lat="46.15449" lon="5.61194">
        <ele>585.5</ele>
        <time>2020-05-24T07:51:33Z</time>
      </trkpt>
      <trkpt lat="46.1545" lon="5.61187">
        <ele>585.6</ele>
        <time>2020-05-24T07:51:35Z</time>
      </trkpt>
      <trkpt lat="46.15452" lon="5.61184">
        <ele>585.8</ele>
        <time>2020-05-24T07:51:36Z</time>
      </trkpt>
      <trkpt lat="46.15455" lon="5.61179">
        <ele>586.9</ele>
        <time>2020-05-24T07:51:38Z</time>
      </trkpt>
      <trkpt lat="46.15458" lon="5.6117">
        <ele>588.4</ele>
        <time>2020-05-24T07:51:39Z</time>
      </trkpt>
      <trkpt lat="46.1546" lon="5.61161">
        <ele>588.8</ele>
        <time>2020-05-24T07:51:40Z</time>
      </trkpt>
      <trkpt lat="46.15462" lon="5.61151">
        <ele>588</ele>
        <time>2020-05-24T07:51:42Z</time>
      </trkpt>
      <trkpt lat="46.15463" lon="5.61145">
        <ele>586.9</ele>
        <time>2020-05-24T07:51:43Z</time>
      </trkpt>
      <trkpt lat="46.15464" lon="5.6114">
        <ele>586</ele>
        <time>2020-05-24T07:51:44Z</time>
      </trkpt>
      <trkpt lat="46.15463" lon="5.61131">
        <ele>584.5</ele>
        <time>2020-05-24T07:51:46Z</time>
      </trkpt>
      <trkpt lat="46.15463" lon="5.61124">
        <ele>583.3</ele>
        <time>2020-05-24T07:51:47Z</time>
      </trkpt>
      <trkpt lat="46.15463" lon="5.61117">
        <ele>581.9</ele>
        <time>2020-05-24T07:51:48Z</time>
      </trkpt>
      <trkpt lat="46.15462" lon="5.6111">
        <ele>580.6</ele>
        <time>2020-05-24T07:51:49Z</time>
      </trkpt>
      <trkpt lat="46.15462" lon="5.61102">
        <ele>579</ele>
        <time>2020-05-24T07:51:50Z</time>
      </trkpt>
      <trkpt lat="46.15461" lon="5.6109">
        <ele>576.9</ele>
        <time>2020-05-24T07:51:52Z</time>
      </trkpt>
      <trkpt lat="46.15462" lon="5.61081">
        <ele>575.3</ele>
        <time>2020-05-24T07:51:53Z</time>
      </trkpt>
      <trkpt lat="46.15467" lon="5.61053">
        <ele>570.3</ele>
        <time>2020-05-24T07:51:55Z</time>
      </trkpt>
      <trkpt lat="46.15469" lon="5.61039">
        <ele>567.6</ele>
        <time>2020-05-24T07:51:56Z</time>
      </trkpt>
      <trkpt lat="46.15473" lon="5.61025">
        <ele>564.7</ele>
        <time>2020-05-24T07:51:58Z</time>
      </trkpt>
      <trkpt lat="46.15475" lon="5.61017">
        <ele>562.9</ele>
        <time>2020-05-24T07:52:00Z</time>
      </trkpt>
      <trkpt lat="46.15477" lon="5.61011">
        <ele>561.6</ele>
        <time>2020-05-24T07:52:01Z</time>
      </trkpt>
      <trkpt lat="46.1548" lon="5.61004">
        <ele>560</ele>
        <time>2020-05-24T07:52:02Z</time>
      </trkpt>
      <trkpt lat="46.15484" lon="5.60993">
        <ele>557.4</ele>
        <time>2020-05-24T07:52:04Z</time>
      </trkpt>
      <trkpt lat="46.15488" lon="5.60981">
        <ele>554.8</ele>
        <time>2020-05-24T07:52:05Z</time>
      </trkpt>
      <trkpt lat="46.15493" lon="5.60944">
        <ele>547.4</ele>
        <time>2020-05-24T07:52:07Z</time>
      </trkpt>
      <trkpt lat="46.15497" lon="5.60927">
        <ele>543.8</ele>
        <time>2020-05-24T07:52:09Z</time>
      </trkpt>
      <trkpt lat="46.15498" lon="5.60921">
        <ele>542.7</ele>
        <time>2020-05-24T07:52:11Z</time>
      </trkpt>
      <trkpt lat="46.15499" lon="5.60921">
        <ele>542.4</ele>
        <time>2020-05-24T07:52:12Z</time>
      </trkpt>
      <trkpt lat="46.155" lon="5.6092">
        <ele>542.2</ele>
        <time>2020-05-24T07:52:14Z</time>
      </trkpt>
      <trkpt lat="46.155" lon="5.60919">
        <ele>541.9</ele>
        <time>2020-05-24T07:52:15Z</time>
      </trkpt>
      <trkpt lat="46.15501" lon="5.60918">
        <ele>541.7</ele>
        <time>2020-05-24T07:52:16Z</time>
      </trkpt>
      <trkpt lat="46.15504" lon="5.60915">
        <ele>540.5</ele>
        <time>2020-05-24T07:52:18Z</time>
      </trkpt>
      <trkpt lat="46.15506" lon="5.60914">
        <ele>539.8</ele>
        <time>2020-05-24T07:52:19Z</time>
      </trkpt>
      <trkpt lat="46.15508" lon="5.60909">
        <ele>538.6</ele>
        <time>2020-05-24T07:52:21Z</time>
      </trkpt>
      <trkpt lat="46.15509" lon="5.60904">
        <ele>537.5</ele>
        <time>2020-05-24T07:52:22Z</time>
      </trkpt>
      <trkpt lat="46.1551" lon="5.609">
        <ele>536.5</ele>
        <time>2020-05-24T07:52:23Z</time>
      </trkpt>
      <trkpt lat="46.15512" lon="5.60892">
        <ele>534.6</ele>
        <time>2020-05-24T07:52:24Z</time>
      </trkpt>
      <trkpt lat="46.15515" lon="5.60878">
        <ele>531.5</ele>
        <time>2020-05-24T07:52:25Z</time>
      </trkpt>
      <trkpt lat="46.1552" lon="5.60863">
        <ele>529.4</ele>
        <time>2020-05-24T07:52:27Z</time>
      </trkpt>
      <trkpt lat="46.15522" lon="5.60854">
        <ele>528.7</ele>
        <time>2020-05-24T07:52:28Z</time>
      </trkpt>
      <trkpt lat="46.15527" lon="5.6084">
        <ele>526.8</ele>
        <time>2020-05-24T07:52:30Z</time>
      </trkpt>
      <trkpt lat="46.15528" lon="5.60833">
        <ele>525.5</ele>
        <time>2020-05-24T07:52:32Z</time>
      </trkpt>
      <trkpt lat="46.15528" lon="5.60825">
        <ele>524</ele>
        <time>2020-05-24T07:52:33Z</time>
      </trkpt>
      <trkpt lat="46.15527" lon="5.60818">
        <ele>522.6</ele>
        <time>2020-05-24T07:52:34Z</time>
      </trkpt>
      <trkpt lat="46.15527" lon="5.60811">
        <ele>521.5</ele>
        <time>2020-05-24T07:52:35Z</time>
      </trkpt>
      <trkpt lat="46.15526" lon="5.60806">
        <ele>520.6</ele>
        <time>2020-05-24T07:52:37Z</time>
      </trkpt>
      <trkpt lat="46.15525" lon="5.60799">
        <ele>519.2</ele>
        <time>2020-05-24T07:52:39Z</time>
      </trkpt>
      <trkpt lat="46.15524" lon="5.60791">
        <ele>517.6</ele>
        <time>2020-05-24T07:52:40Z</time>
      </trkpt>
      <trkpt lat="46.15522" lon="5.60782">
        <ele>515.7</ele>
        <time>2020-05-24T07:52:42Z</time>
      </trkpt>
      <trkpt lat="46.15523" lon="5.60771">
        <ele>513.6</ele>
        <time>2020-05-24T07:52:44Z</time>
      </trkpt>
      <trkpt lat="46.15523" lon="5.60767">
        <ele>512.7</ele>
        <time>2020-05-24T07:52:45Z</time>
      </trkpt>
      <trkpt lat="46.15523" lon="5.60765">
        <ele>512.4</ele>
        <time>2020-05-24T07:52:46Z</time>
      </trkpt>
      <trkpt lat="46.15522" lon="5.6076">
        <ele>511.3</ele>
        <time>2020-05-24T07:52:48Z</time>
      </trkpt>
      <trkpt lat="46.15521" lon="5.60758">
        <ele>510.9</ele>
        <time>2020-05-24T07:52:49Z</time>
      </trkpt>
      <trkpt lat="46.1552" lon="5.60751">
        <ele>509.3</ele>
        <time>2020-05-24T07:52:50Z</time>
      </trkpt>
      <trkpt lat="46.15518" lon="5.60738">
        <ele>506.5</ele>
        <time>2020-05-24T07:52:52Z</time>
      </trkpt>
      <trkpt lat="46.15515" lon="5.60728">
        <ele>504.2</ele>
        <time>2020-05-24T07:52:53Z</time>
      </trkpt>
      <trkpt lat="46.15512" lon="5.6072">
        <ele>502.8</ele>
        <time>2020-05-24T07:52:54Z</time>
      </trkpt>
      <trkpt lat="46.15508" lon="5.60716">
        <ele>501.7</ele>
        <time>2020-05-24T07:52:55Z</time>
      </trkpt>
      <trkpt lat="46.15502" lon="5.60711">
        <ele>499.6</ele>
        <time>2020-05-24T07:52:57Z</time>
      </trkpt>
      <trkpt lat="46.15489" lon="5.60707">
        <ele>495.3</ele>
        <time>2020-05-24T07:52:58Z</time>
      </trkpt>
      <trkpt lat="46.1548" lon="5.60709">
        <ele>492.9</ele>
        <time>2020-05-24T07:53:00Z</time>
      </trkpt>
      <trkpt lat="46.15477" lon="5.60706">
        <ele>492</ele>
        <time>2020-05-24T07:53:02Z</time>
      </trkpt>
      <trkpt lat="46.15472" lon="5.60704">
        <ele>490.7</ele>
        <time>2020-05-24T07:53:03Z</time>
      </trkpt>
      <trkpt lat="46.1547" lon="5.607">
        <ele>489.9</ele>
        <time>2020-05-24T07:53:04Z</time>
      </trkpt>
      <trkpt lat="46.15468" lon="5.60698">
        <ele>489.5</ele>
        <time>2020-05-24T07:53:06Z</time>
      </trkpt>
      <trkpt lat="46.15467" lon="5.60697">
        <ele>489.2</ele>
        <time>2020-05-24T07:53:07Z</time>
      </trkpt>
      <trkpt lat="46.15465" lon="5.60694">
        <ele>488.1</ele>
        <time>2020-05-24T07:53:09Z</time>
      </trkpt>
      <trkpt lat="46.15464" lon="5.60693">
        <ele>488.1</ele>
        <time>2020-05-24T07:53:10Z</time>
      </trkpt>
      <trkpt lat="46.15462" lon="5.6069">
        <ele>488.1</ele>
        <time>2020-05-24T07:53:11Z</time>
      </trkpt>
      <trkpt lat="46.15459" lon="5.60685">
        <ele>488</ele>
        <time>2020-05-24T07:53:13Z</time>
      </trkpt>
      <trkpt lat="46.15459" lon="5.60686">
        <ele>488</ele>
        <time>2020-05-24T07:53:14Z</time>
      </trkpt>
      <trkpt lat="46.15459" lon="5.60687">
        <ele>488</ele>
        <time>2020-05-24T07:53:15Z</time>
      </trkpt>
      <trkpt lat="46.1546" lon="5.60688">
        <ele>488</ele>
        <time>2020-05-24T07:53:17Z</time>
      </trkpt>
      <trkpt lat="46.15461" lon="5.60688">
        <ele>488</ele>
        <time>2020-05-24T07:53:18Z</time>
      </trkpt>
      <trkpt lat="46.15462" lon="5.60688">
        <ele>488</ele>
        <time>2020-05-24T07:53:19Z</time>
      </trkpt>
      <trkpt lat="46.15463" lon="5.60689">
        <ele>487.9</ele>
        <time>2020-05-24T07:53:21Z</time>
      </trkpt>
      <trkpt lat="46.15463" lon="5.6069">
        <ele>487.9</ele>
        <time>2020-05-24T07:53:23Z</time>
      </trkpt>
      <trkpt lat="46.15464" lon="5.6069">
        <ele>487.9</ele>
        <time>2020-05-24T07:53:24Z</time>
      </trkpt>
      <trkpt lat="46.15464" lon="5.60691">
        <ele>487.9</ele>
        <time>2020-05-24T07:53:25Z</time>
      </trkpt>
      <trkpt lat="46.15464" lon="5.60691">
        <ele>487.9</ele>
        <time>2020-05-24T07:53:26Z</time>
      </trkpt>
      <trkpt lat="46.15465" lon="5.60691">
        <ele>487.9</ele>
        <time>2020-05-24T07:53:27Z</time>
      </trkpt>
      <trkpt lat="46.15465" lon="5.60691">
        <ele>487.9</ele>
        <time>2020-05-24T07:53:29Z</time>
      </trkpt>
      <trkpt lat="46.15465" lon="5.60691">
        <ele>487.9</ele>
        <time>2020-05-24T07:53:31Z</time>
      </trkpt>
      <trkpt lat="46.15465" lon="5.60691">
        <ele>487.9</ele>
        <time>2020-05-24T07:53:32Z</time>
      </trkpt>
      <trkpt lat="46.15464" lon="5.60689">
        <ele>487.9</ele>
        <time>2020-05-24T07:53:34Z</time>
      </trkpt>
      <trkpt lat="46.15463" lon="5.6069">
        <ele>487.9</ele>
        <time>2020-05-24T07:53:35Z</time>
      </trkpt>
      <trkpt lat="46.15462" lon="5.60689">
        <ele>487.8</ele>
        <time>2020-05-24T07:53:37Z</time>
      </trkpt>
      <trkpt lat="46.15462" lon="5.60688">
        <ele>487.8</ele>
        <time>2020-05-24T07:53:39Z</time>
      </trkpt>
      <trkpt lat="46.15461" lon="5.60687">
        <ele>487.8</ele>
        <time>2020-05-24T07:53:41Z</time>
      </trkpt>
      <trkpt lat="46.15461" lon="5.60687">
        <ele>487.8</ele>
        <time>2020-05-24T07:53:42Z</time>
      </trkpt>
      <trkpt lat="46.15461" lon="5.60686">
        <ele>487.8</ele>
        <time>2020-05-24T07:53:43Z</time>
      </trkpt>
      <trkpt lat="46.15461" lon="5.60686">
        <ele>487.8</ele>
        <time>2020-05-24T07:53:45Z</time>
      </trkpt>
      <trkpt lat="46.15461" lon="5.60686">
        <ele>487.8</ele>
        <time>2020-05-24T07:53:47Z</time>
      </trkpt>
      <trkpt lat="46.1546" lon="5.60686">
        <ele>487.8</ele>
        <time>2020-05-24T07:53:49Z</time>
      </trkpt>
      <trkpt lat="46.1546" lon="5.60687">
        <ele>487.8</ele>
        <time>2020-05-24T07:53:50Z</time>
      </trkpt>
      <trkpt lat="46.1546" lon="5.60687">
        <ele>487.8</ele>
        <time>2020-05-24T07:53:51Z</time>
      </trkpt>
      <trkpt lat="46.1546" lon="5.60687">
        <ele>487.8</ele>
        <time>2020-05-24T07:53:53Z</time>
      </trkpt>
      <trkpt lat="46.15459" lon="5.60686">
        <ele>487.8</ele>
        <time>2020-05-24T07:53:55Z</time>
      </trkpt>
      <trkpt lat="46.15458" lon="5.60685">
        <ele>487.8</ele>
        <time>2020-05-24T07:53:57Z</time>
      </trkpt>
      <trkpt lat="46.15457" lon="5.60685">
        <ele>487.7</ele>
        <time>2020-05-24T07:53:59Z</time>
      </trkpt>
      <trkpt lat="46.15457" lon="5.60684">
        <ele>487.7</ele>
        <time>2020-05-24T07:54:01Z</time>
      </trkpt>
      <trkpt lat="46.15457" lon="5.60684">
        <ele>487.7</ele>
        <time>2020-05-24T07:54:02Z</time>
      </trkpt>
      <trkpt lat="46.15457" lon="5.60684">
        <ele>487.7</ele>
        <time>2020-05-24T07:54:04Z</time>
      </trkpt>
      <trkpt lat="46.15457" lon="5.60684">
        <ele>487.7</ele>
        <time>2020-05-24T07:54:06Z</time>
      </trkpt>
      <trkpt lat="46.15456" lon="5.60681">
        <ele>487.7</ele>
        <time>2020-05-24T07:55:31Z</time>
      </trkpt>
      <trkpt lat="46.15455" lon="5.6068">
        <ele>487.7</ele>
        <time>2020-05-24T07:55:33Z</time>
      </trkpt>
      <trkpt lat="46.15454" lon="5.6068">
        <ele>487.7</ele>
        <time>2020-05-24T07:55:35Z</time>
      </trkpt>
      <trkpt lat="46.15455" lon="5.6068">
        <ele>487.7</ele>
        <time>2020-05-24T07:55:36Z</time>
      </trkpt>
      <trkpt lat="46.15454" lon="5.6068">
        <ele>487.7</ele>
        <time>2020-05-24T07:55:38Z</time>
      </trkpt>
      <trkpt lat="46.15455" lon="5.6068">
        <ele>487.7</ele>
        <time>2020-05-24T07:55:39Z</time>
      </trkpt>
      <trkpt lat="46.15456" lon="5.60681">
        <ele>487.7</ele>
        <time>2020-05-24T07:55:40Z</time>
      </trkpt>
      <trkpt lat="46.15456" lon="5.60681">
        <ele>487.6</ele>
        <time>2020-05-24T07:55:42Z</time>
      </trkpt>
      <trkpt lat="46.15456" lon="5.60683">
        <ele>487.6</ele>
        <time>2020-05-24T07:55:43Z</time>
      </trkpt>
      <trkpt lat="46.15455" lon="5.60683">
        <ele>487.6</ele>
        <time>2020-05-24T07:55:45Z</time>
      </trkpt>
      <trkpt lat="46.15455" lon="5.60683">
        <ele>487.6</ele>
        <time>2020-05-24T07:55:47Z</time>
      </trkpt>
      <trkpt lat="46.15455" lon="5.60683">
        <ele>487.6</ele>
        <time>2020-05-24T07:55:48Z</time>
      </trkpt>
      <trkpt lat="46.15455" lon="5.60686">
        <ele>487.6</ele>
        <time>2020-05-24T07:55:50Z</time>
      </trkpt>
      <trkpt lat="46.15454" lon="5.60686">
        <ele>487.6</ele>
        <time>2020-05-24T07:55:51Z</time>
      </trkpt>
      <trkpt lat="46.15453" lon="5.60688">
        <ele>487.5</ele>
        <time>2020-05-24T07:55:53Z</time>
      </trkpt>
      <trkpt lat="46.15452" lon="5.6069">
        <ele>487.5</ele>
        <time>2020-05-24T07:55:55Z</time>
      </trkpt>
      <trkpt lat="46.15452" lon="5.60691">
        <ele>487.5</ele>
        <time>2020-05-24T07:55:56Z</time>
      </trkpt>
      <trkpt lat="46.15451" lon="5.60692">
        <ele>487.5</ele>
        <time>2020-05-24T07:55:57Z</time>
      </trkpt>
      <trkpt lat="46.15449" lon="5.60694">
        <ele>487.4</ele>
        <time>2020-05-24T07:55:59Z</time>
      </trkpt>
      <trkpt lat="46.15449" lon="5.60695">
        <ele>487.4</ele>
        <time>2020-05-24T07:56:01Z</time>
      </trkpt>
      <trkpt lat="46.15446" lon="5.60696">
        <ele>487.4</ele>
        <time>2020-05-24T07:56:03Z</time>
      </trkpt>
      <trkpt lat="46.15444" lon="5.60697">
        <ele>487.3</ele>
        <time>2020-05-24T07:56:05Z</time>
      </trkpt>
      <trkpt lat="46.15443" lon="5.60698">
        <ele>487.3</ele>
        <time>2020-05-24T07:56:07Z</time>
      </trkpt>
      <trkpt lat="46.15443" lon="5.60699">
        <ele>487.3</ele>
        <time>2020-05-24T07:56:09Z</time>
      </trkpt>
      <trkpt lat="46.15443" lon="5.60699">
        <ele>487.3</ele>
        <time>2020-05-24T07:56:11Z</time>
      </trkpt>
      <trkpt lat="46.15442" lon="5.60699">
        <ele>487.3</ele>
        <time>2020-05-24T07:56:12Z</time>
      </trkpt>
      <trkpt lat="46.15441" lon="5.60699">
        <ele>487.3</ele>
        <time>2020-05-24T07:56:14Z</time>
      </trkpt>
      <trkpt lat="46.1544" lon="5.607">
        <ele>487.3</ele>
        <time>2020-05-24T07:56:15Z</time>
      </trkpt>
      <trkpt lat="46.1544" lon="5.607">
        <ele>487.3</ele>
        <time>2020-05-24T07:56:17Z</time>
      </trkpt>
      <trkpt lat="46.1544" lon="5.607">
        <ele>487.3</ele>
        <time>2020-05-24T07:56:18Z</time>
      </trkpt>
      <trkpt lat="46.1544" lon="5.607">
        <ele>487.3</ele>
        <time>2020-05-24T07:56:19Z</time>
      </trkpt>
      <trkpt lat="46.1544" lon="5.607">
        <ele>487.3</ele>
        <time>2020-05-24T07:56:21Z</time>
      </trkpt>
      <trkpt lat="46.1544" lon="5.607">
        <ele>487.3</ele>
        <time>2020-05-24T07:56:23Z</time>
      </trkpt>
      <trkpt lat="46.15439" lon="5.60699">
        <ele>487.3</ele>
        <time>2020-05-24T07:56:25Z</time>
      </trkpt>
      <trkpt lat="46.15436" lon="5.60701">
        <ele>487.2</ele>
        <time>2020-05-24T07:56:37Z</time>
      </trkpt>
      <trkpt lat="46.15435" lon="5.60703">
        <ele>487.2</ele>
        <time>2020-05-24T07:56:38Z</time>
      </trkpt>
      <trkpt lat="46.15434" lon="5.60705">
        <ele>487.2</ele>
        <time>2020-05-24T07:56:40Z</time>
      </trkpt>
      <trkpt lat="46.15435" lon="5.60703">
        <ele>487.2</ele>
        <time>2020-05-24T07:56:42Z</time>
      </trkpt>
      <trkpt lat="46.15435" lon="5.60703">
        <ele>487.2</ele>
        <time>2020-05-24T07:56:44Z</time>
      </trkpt>
      <trkpt lat="46.15435" lon="5.60702">
        <ele>487.2</ele>
        <time>2020-05-24T07:56:45Z</time>
      </trkpt>
      <trkpt lat="46.15435" lon="5.60702">
        <ele>487.2</ele>
        <time>2020-05-24T07:56:47Z</time>
      </trkpt>
      <trkpt lat="46.15434" lon="5.60704">
        <ele>487.2</ele>
        <time>2020-05-24T07:56:49Z</time>
      </trkpt>
      <trkpt lat="46.15434" lon="5.60705">
        <ele>487.1</ele>
        <time>2020-05-24T07:56:50Z</time>
      </trkpt>
      <trkpt lat="46.15429" lon="5.60702">
        <ele>486.2</ele>
        <time>2020-05-24T07:56:58Z</time>
      </trkpt>
      <trkpt lat="46.1543" lon="5.60701">
        <ele>486.2</ele>
        <time>2020-05-24T07:57:00Z</time>
      </trkpt>
      <trkpt lat="46.15432" lon="5.60701">
        <ele>487.1</ele>
        <time>2020-05-24T07:57:01Z</time>
      </trkpt>
      <trkpt lat="46.15433" lon="5.60702">
        <ele>487.1</ele>
        <time>2020-05-24T07:57:03Z</time>
      </trkpt>
      <trkpt lat="46.15436" lon="5.60701">
        <ele>487.1</ele>
        <time>2020-05-24T07:57:05Z</time>
      </trkpt>
      <trkpt lat="46.15436" lon="5.60701">
        <ele>487.1</ele>
        <time>2020-05-24T07:57:06Z</time>
      </trkpt>
      <trkpt lat="46.15436" lon="5.60701">
        <ele>487.1</ele>
        <time>2020-05-24T07:57:07Z</time>
      </trkpt>
      <trkpt lat="46.15435" lon="5.60701">
        <ele>487.1</ele>
        <time>2020-05-24T07:57:09Z</time>
      </trkpt>
      <trkpt lat="46.15435" lon="5.60701">
        <ele>487.1</ele>
        <time>2020-05-24T07:57:10Z</time>
      </trkpt>
      <trkpt lat="46.15435" lon="5.60701">
        <ele>487.2</ele>
        <time>2020-05-24T07:57:11Z</time>
      </trkpt>
      <trkpt lat="46.15435" lon="5.60701">
        <ele>487.2</ele>
        <time>2020-05-24T07:57:12Z</time>
      </trkpt>
      <trkpt lat="46.15434" lon="5.60701">
        <ele>487.2</ele>
        <time>2020-05-24T07:57:14Z</time>
      </trkpt>
      <trkpt lat="46.15434" lon="5.60701">
        <ele>487.2</ele>
        <time>2020-05-24T07:57:15Z</time>
      </trkpt>
      <trkpt lat="46.15434" lon="5.60701">
        <ele>487.2</ele>
        <time>2020-05-24T07:57:16Z</time>
      </trkpt>
      <trkpt lat="46.15434" lon="5.60701">
        <ele>487.2</ele>
        <time>2020-05-24T07:57:18Z</time>
      </trkpt>
      <trkpt lat="46.15433" lon="5.60701">
        <ele>487.2</ele>
        <time>2020-05-24T07:57:20Z</time>
      </trkpt>
      <trkpt lat="46.15433" lon="5.607">
        <ele>487.2</ele>
        <time>2020-05-24T07:57:22Z</time>
      </trkpt>
      <trkpt lat="46.15433" lon="5.607">
        <ele>487.2</ele>
        <time>2020-05-24T07:57:24Z</time>
      </trkpt>
      <trkpt lat="46.15433" lon="5.607">
        <ele>487.2</ele>
        <time>2020-05-24T07:57:25Z</time>
      </trkpt>
      <trkpt lat="46.15432" lon="5.607">
        <ele>486.2</ele>
        <time>2020-05-24T07:57:27Z</time>
      </trkpt>
      <trkpt lat="46.15432" lon="5.607">
        <ele>486.2</ele>
        <time>2020-05-24T07:57:33Z</time>
      </trkpt>
      <trkpt lat="46.15432" lon="5.607">
        <ele>486.2</ele>
        <time>2020-05-24T07:57:34Z</time>
      </trkpt>
      <trkpt lat="46.15432" lon="5.607">
        <ele>486.2</ele>
        <time>2020-05-24T07:57:36Z</time>
      </trkpt>
      <trkpt lat="46.15431" lon="5.607">
        <ele>486.2</ele>
        <time>2020-05-24T07:57:37Z</time>
      </trkpt>
      <trkpt lat="46.15431" lon="5.607">
        <ele>486.1</ele>
        <time>2020-05-24T07:57:38Z</time>
      </trkpt>
      <trkpt lat="46.15431" lon="5.607">
        <ele>486.1</ele>
        <time>2020-05-24T07:57:39Z</time>
      </trkpt>
      <trkpt lat="46.1543" lon="5.60699">
        <ele>486</ele>
        <time>2020-05-24T07:57:40Z</time>
      </trkpt>
      <trkpt lat="46.15426" lon="5.60687">
        <ele>485.4</ele>
        <time>2020-05-24T07:57:42Z</time>
      </trkpt>
      <trkpt lat="46.15423" lon="5.60673">
        <ele>484.8</ele>
        <time>2020-05-24T07:57:44Z</time>
      </trkpt>
      <trkpt lat="46.15421" lon="5.60665">
        <ele>484.8</ele>
        <time>2020-05-24T07:57:46Z</time>
      </trkpt>
      <trkpt lat="46.1542" lon="5.60658">
        <ele>484.8</ele>
        <time>2020-05-24T07:57:48Z</time>
      </trkpt>
      <trkpt lat="46.15419" lon="5.60654">
        <ele>484.8</ele>
        <time>2020-05-24T07:57:49Z</time>
      </trkpt>
      <trkpt lat="46.15415" lon="5.60644">
        <ele>484.9</ele>
        <time>2020-05-24T07:57:50Z</time>
      </trkpt>
      <trkpt lat="46.15413" lon="5.60633">
        <ele>484.9</ele>
        <time>2020-05-24T07:57:52Z</time>
      </trkpt>
      <trkpt lat="46.15412" lon="5.60629">
        <ele>484.9</ele>
        <time>2020-05-24T07:57:53Z</time>
      </trkpt>
      <trkpt lat="46.15411" lon="5.60625">
        <ele>484.9</ele>
        <time>2020-05-24T07:57:54Z</time>
      </trkpt>
      <trkpt lat="46.15408" lon="5.60619">
        <ele>484.9</ele>
        <time>2020-05-24T07:57:56Z</time>
      </trkpt>
      <trkpt lat="46.15406" lon="5.60615">
        <ele>484.9</ele>
        <time>2020-05-24T07:57:57Z</time>
      </trkpt>
      <trkpt lat="46.15406" lon="5.60614">
        <ele>484.9</ele>
        <time>2020-05-24T07:57:58Z</time>
      </trkpt>
      <trkpt lat="46.15407" lon="5.60613">
        <ele>484.9</ele>
        <time>2020-05-24T07:58:00Z</time>
      </trkpt>
      <trkpt lat="46.15407" lon="5.60613">
        <ele>484.9</ele>
        <time>2020-05-24T07:58:01Z</time>
      </trkpt>
      <trkpt lat="46.15408" lon="5.60612">
        <ele>484.9</ele>
        <time>2020-05-24T07:58:02Z</time>
      </trkpt>
      <trkpt lat="46.15409" lon="5.60609">
        <ele>484.9</ele>
        <time>2020-05-24T07:58:04Z</time>
      </trkpt>
      <trkpt lat="46.15412" lon="5.60605">
        <ele>484.9</ele>
        <time>2020-05-24T07:58:06Z</time>
      </trkpt>
      <trkpt lat="46.15413" lon="5.60602">
        <ele>484.8</ele>
        <time>2020-05-24T07:58:07Z</time>
      </trkpt>
      <trkpt lat="46.15414" lon="5.60598">
        <ele>484.8</ele>
        <time>2020-05-24T07:58:09Z</time>
      </trkpt>
      <trkpt lat="46.15411" lon="5.60596">
        <ele>484.8</ele>
        <time>2020-05-24T07:58:11Z</time>
      </trkpt>
      <trkpt lat="46.1541" lon="5.60595">
        <ele>484.8</ele>
        <time>2020-05-24T07:58:12Z</time>
      </trkpt>
      <trkpt lat="46.1541" lon="5.60587">
        <ele>484.7</ele>
        <time>2020-05-24T07:58:14Z</time>
      </trkpt>
      <trkpt lat="46.15409" lon="5.60583">
        <ele>484.6</ele>
        <time>2020-05-24T07:58:15Z</time>
      </trkpt>
      <trkpt lat="46.15408" lon="5.60579">
        <ele>484.6</ele>
        <time>2020-05-24T07:58:16Z</time>
      </trkpt>
      <trkpt lat="46.15406" lon="5.60576">
        <ele>484.5</ele>
        <time>2020-05-24T07:58:17Z</time>
      </trkpt>
      <trkpt lat="46.15403" lon="5.60567">
        <ele>484.4</ele>
        <time>2020-05-24T07:58:19Z</time>
      </trkpt>
      <trkpt lat="46.15402" lon="5.60563">
        <ele>484.4</ele>
        <time>2020-05-24T07:58:20Z</time>
      </trkpt>
      <trkpt lat="46.15401" lon="5.60558">
        <ele>484.3</ele>
        <time>2020-05-24T07:58:21Z</time>
      </trkpt>
      <trkpt lat="46.15401" lon="5.60556">
        <ele>484.3</ele>
        <time>2020-05-24T07:58:22Z</time>
      </trkpt>
      <trkpt lat="46.15401" lon="5.60552">
        <ele>484.2</ele>
        <time>2020-05-24T07:58:23Z</time>
      </trkpt>
      <trkpt lat="46.15397" lon="5.60545">
        <ele>484.1</ele>
        <time>2020-05-24T07:58:25Z</time>
      </trkpt>
      <trkpt lat="46.15395" lon="5.60539">
        <ele>484</ele>
        <time>2020-05-24T07:58:26Z</time>
      </trkpt>
      <trkpt lat="46.15391" lon="5.60528">
        <ele>483.8</ele>
        <time>2020-05-24T07:58:28Z</time>
      </trkpt>
      <trkpt lat="46.15388" lon="5.60517">
        <ele>483.6</ele>
        <time>2020-05-24T07:58:30Z</time>
      </trkpt>
      <trkpt lat="46.15387" lon="5.60512">
        <ele>483.5</ele>
        <time>2020-05-24T07:58:31Z</time>
      </trkpt>
      <trkpt lat="46.15386" lon="5.60508">
        <ele>483.4</ele>
        <time>2020-05-24T07:58:32Z</time>
      </trkpt>
      <trkpt lat="46.15385" lon="5.60503">
        <ele>483.3</ele>
        <time>2020-05-24T07:58:33Z</time>
      </trkpt>
      <trkpt lat="46.15383" lon="5.60496">
        <ele>483.2</ele>
        <time>2020-05-24T07:58:35Z</time>
      </trkpt>
      <trkpt lat="46.15382" lon="5.60494">
        <ele>483.2</ele>
        <time>2020-05-24T07:58:37Z</time>
      </trkpt>
      <trkpt lat="46.15382" lon="5.60491">
        <ele>483.1</ele>
        <time>2020-05-24T07:58:38Z</time>
      </trkpt>
      <trkpt lat="46.15381" lon="5.60489">
        <ele>483.1</ele>
        <time>2020-05-24T07:58:40Z</time>
      </trkpt>
      <trkpt lat="46.15381" lon="5.60486">
        <ele>483.1</ele>
        <time>2020-05-24T07:58:41Z</time>
      </trkpt>
      <trkpt lat="46.15379" lon="5.60479">
        <ele>483</ele>
        <time>2020-05-24T07:58:42Z</time>
      </trkpt>
      <trkpt lat="46.15377" lon="5.60472">
        <ele>482.9</ele>
        <time>2020-05-24T07:58:43Z</time>
      </trkpt>
      <trkpt lat="46.15375" lon="5.60465">
        <ele>482.7</ele>
        <time>2020-05-24T07:58:44Z</time>
      </trkpt>
      <trkpt lat="46.15373" lon="5.60459">
        <ele>482.6</ele>
        <time>2020-05-24T07:58:45Z</time>
      </trkpt>
      <trkpt lat="46.15369" lon="5.60448">
        <ele>482.1</ele>
        <time>2020-05-24T07:58:47Z</time>
      </trkpt>
      <trkpt lat="46.15369" lon="5.60441">
        <ele>481.9</ele>
        <time>2020-05-24T07:58:48Z</time>
      </trkpt>
      <trkpt lat="46.15367" lon="5.60432">
        <ele>481.6</ele>
        <time>2020-05-24T07:58:50Z</time>
      </trkpt>
      <trkpt lat="46.15366" lon="5.60422">
        <ele>481.4</ele>
        <time>2020-05-24T07:58:52Z</time>
      </trkpt>
      <trkpt lat="46.15366" lon="5.60416">
        <ele>481.3</ele>
        <time>2020-05-24T07:58:53Z</time>
      </trkpt>
      <trkpt lat="46.15365" lon="5.60406">
        <ele>481.1</ele>
        <time>2020-05-24T07:58:55Z</time>
      </trkpt>
      <trkpt lat="46.15366" lon="5.604">
        <ele>481</ele>
        <time>2020-05-24T07:58:56Z</time>
      </trkpt>
      <trkpt lat="46.15367" lon="5.60395">
        <ele>480.9</ele>
        <time>2020-05-24T07:58:57Z</time>
      </trkpt>
      <trkpt lat="46.15368" lon="5.60389">
        <ele>480.8</ele>
        <time>2020-05-24T07:58:58Z</time>
      </trkpt>
      <trkpt lat="46.15369" lon="5.6038">
        <ele>480.6</ele>
        <time>2020-05-24T07:59:00Z</time>
      </trkpt>
      <trkpt lat="46.1537" lon="5.60375">
        <ele>480.5</ele>
        <time>2020-05-24T07:59:01Z</time>
      </trkpt>
      <trkpt lat="46.15372" lon="5.60367">
        <ele>480.3</ele>
        <time>2020-05-24T07:59:03Z</time>
      </trkpt>
      <trkpt lat="46.15373" lon="5.60361">
        <ele>480.3</ele>
        <time>2020-05-24T07:59:04Z</time>
      </trkpt>
      <trkpt lat="46.15374" lon="5.60352">
        <ele>480.2</ele>
        <time>2020-05-24T07:59:06Z</time>
      </trkpt>
      <trkpt lat="46.15374" lon="5.60343">
        <ele>480.1</ele>
        <time>2020-05-24T07:59:08Z</time>
      </trkpt>
      <trkpt lat="46.15374" lon="5.60338">
        <ele>480</ele>
        <time>2020-05-24T07:59:09Z</time>
      </trkpt>
      <trkpt lat="46.15373" lon="5.60329">
        <ele>479.8</ele>
        <time>2020-05-24T07:59:11Z</time>
      </trkpt>
      <trkpt lat="46.15372" lon="5.60322">
        <ele>479.7</ele>
        <time>2020-05-24T07:59:12Z</time>
      </trkpt>
      <trkpt lat="46.15371" lon="5.60316">
        <ele>479.6</ele>
        <time>2020-05-24T07:59:13Z</time>
      </trkpt>
      <trkpt lat="46.1537" lon="5.6031">
        <ele>479.6</ele>
        <time>2020-05-24T07:59:14Z</time>
      </trkpt>
      <trkpt lat="46.15369" lon="5.60305">
        <ele>479.5</ele>
        <time>2020-05-24T07:59:15Z</time>
      </trkpt>
      <trkpt lat="46.15366" lon="5.60293">
        <ele>479.4</ele>
        <time>2020-05-24T07:59:17Z</time>
      </trkpt>
      <trkpt lat="46.15361" lon="5.6028">
        <ele>479.2</ele>
        <time>2020-05-24T07:59:19Z</time>
      </trkpt>
      <trkpt lat="46.15357" lon="5.60271">
        <ele>479.1</ele>
        <time>2020-05-24T07:59:21Z</time>
      </trkpt>
      <trkpt lat="46.15355" lon="5.60266">
        <ele>479</ele>
        <time>2020-05-24T07:59:22Z</time>
      </trkpt>
      <trkpt lat="46.15353" lon="5.60263">
        <ele>479</ele>
        <time>2020-05-24T07:59:23Z</time>
      </trkpt>
      <trkpt lat="46.15349" lon="5.60254">
        <ele>478.8</ele>
        <time>2020-05-24T07:59:25Z</time>
      </trkpt>
      <trkpt lat="46.15345" lon="5.60246">
        <ele>478.8</ele>
        <time>2020-05-24T07:59:27Z</time>
      </trkpt>
      <trkpt lat="46.1534" lon="5.60239">
        <ele>478.7</ele>
        <time>2020-05-24T07:59:28Z</time>
      </trkpt>
      <trkpt lat="46.15337" lon="5.60234">
        <ele>478.7</ele>
        <time>2020-05-24T07:59:29Z</time>
      </trkpt>
      <trkpt lat="46.15334" lon="5.60229">
        <ele>478.7</ele>
        <time>2020-05-24T07:59:30Z</time>
      </trkpt>
      <trkpt lat="46.15332" lon="5.60225">
        <ele>478.7</ele>
        <time>2020-05-24T07:59:31Z</time>
      </trkpt>
      <trkpt lat="46.15328" lon="5.60218">
        <ele>478.7</ele>
        <time>2020-05-24T07:59:33Z</time>
      </trkpt>
      <trkpt lat="46.15325" lon="5.60214">
        <ele>478.7</ele>
        <time>2020-05-24T07:59:34Z</time>
      </trkpt>
      <trkpt lat="46.15321" lon="5.60208">
        <ele>478.7</ele>
        <time>2020-05-24T07:59:36Z</time>
      </trkpt>
      <trkpt lat="46.15318" lon="5.60202">
        <ele>478.7</ele>
        <time>2020-05-24T07:59:37Z</time>
      </trkpt>
      <trkpt lat="46.15316" lon="5.60198">
        <ele>478.7</ele>
        <time>2020-05-24T07:59:38Z</time>
      </trkpt>
      <trkpt lat="46.15313" lon="5.60193">
        <ele>478.7</ele>
        <time>2020-05-24T07:59:39Z</time>
      </trkpt>
      <trkpt lat="46.1531" lon="5.60187">
        <ele>478.7</ele>
        <time>2020-05-24T07:59:41Z</time>
      </trkpt>
      <trkpt lat="46.15308" lon="5.60183">
        <ele>478.7</ele>
        <time>2020-05-24T07:59:42Z</time>
      </trkpt>
      <trkpt lat="46.15305" lon="5.60177">
        <ele>478.7</ele>
        <time>2020-05-24T07:59:43Z</time>
      </trkpt>
      <trkpt lat="46.15303" lon="5.60173">
        <ele>478.7</ele>
        <time>2020-05-24T07:59:44Z</time>
      </trkpt>
      <trkpt lat="46.153" lon="5.60168">
        <ele>478.8</ele>
        <time>2020-05-24T07:59:45Z</time>
      </trkpt>
      <trkpt lat="46.15295" lon="5.6016">
        <ele>478.9</ele>
        <time>2020-05-24T07:59:47Z</time>
      </trkpt>
      <trkpt lat="46.15291" lon="5.60153">
        <ele>479</ele>
        <time>2020-05-24T07:59:48Z</time>
      </trkpt>
      <trkpt lat="46.15287" lon="5.60145">
        <ele>479.1</ele>
        <time>2020-05-24T07:59:50Z</time>
      </trkpt>
      <trkpt lat="46.15285" lon="5.60138">
        <ele>479.2</ele>
        <time>2020-05-24T07:59:52Z</time>
      </trkpt>
      <trkpt lat="46.15283" lon="5.60133">
        <ele>479.3</ele>
        <time>2020-05-24T07:59:53Z</time>
      </trkpt>
      <trkpt lat="46.15281" lon="5.6013">
        <ele>479.3</ele>
        <time>2020-05-24T07:59:54Z</time>
      </trkpt>
      <trkpt lat="46.15281" lon="5.60126">
        <ele>479.4</ele>
        <time>2020-05-24T07:59:55Z</time>
      </trkpt>
      <trkpt lat="46.1528" lon="5.60117">
        <ele>478.8</ele>
        <time>2020-05-24T07:59:57Z</time>
      </trkpt>
      <trkpt lat="46.15277" lon="5.6011">
        <ele>478.5</ele>
        <time>2020-05-24T07:59:59Z</time>
      </trkpt>
      <trkpt lat="46.15275" lon="5.60103">
        <ele>478.4</ele>
        <time>2020-05-24T08:00:00Z</time>
      </trkpt>
      <trkpt lat="46.15273" lon="5.60098">
        <ele>478.4</ele>
        <time>2020-05-24T08:00:01Z</time>
      </trkpt>
      <trkpt lat="46.1527" lon="5.60091">
        <ele>478.3</ele>
        <time>2020-05-24T08:00:03Z</time>
      </trkpt>
      <trkpt lat="46.15268" lon="5.60085">
        <ele>478.3</ele>
        <time>2020-05-24T08:00:04Z</time>
      </trkpt>
      <trkpt lat="46.15266" lon="5.60079">
        <ele>478.3</ele>
        <time>2020-05-24T08:00:06Z</time>
      </trkpt>
      <trkpt lat="46.15263" lon="5.6007">
        <ele>478.2</ele>
        <time>2020-05-24T08:00:08Z</time>
      </trkpt>
      <trkpt lat="46.15262" lon="5.60064">
        <ele>478.2</ele>
        <time>2020-05-24T08:00:09Z</time>
      </trkpt>
      <trkpt lat="46.1526" lon="5.6006">
        <ele>478.1</ele>
        <time>2020-05-24T08:00:10Z</time>
      </trkpt>
      <trkpt lat="46.15258" lon="5.60051">
        <ele>478.1</ele>
        <time>2020-05-24T08:00:12Z</time>
      </trkpt>
      <trkpt lat="46.15257" lon="5.60046">
        <ele>478</ele>
        <time>2020-05-24T08:00:13Z</time>
      </trkpt>
      <trkpt lat="46.15255" lon="5.6004">
        <ele>478</ele>
        <time>2020-05-24T08:00:14Z</time>
      </trkpt>
      <trkpt lat="46.15252" lon="5.60031">
        <ele>478</ele>
        <time>2020-05-24T08:00:16Z</time>
      </trkpt>
      <trkpt lat="46.15249" lon="5.60022">
        <ele>478</ele>
        <time>2020-05-24T08:00:17Z</time>
      </trkpt>
      <trkpt lat="46.15246" lon="5.60012">
        <ele>477.9</ele>
        <time>2020-05-24T08:00:19Z</time>
      </trkpt>
      <trkpt lat="46.15243" lon="5.6">
        <ele>477.9</ele>
        <time>2020-05-24T08:00:21Z</time>
      </trkpt>
      <trkpt lat="46.15241" lon="5.5999">
        <ele>477.9</ele>
        <time>2020-05-24T08:00:23Z</time>
      </trkpt>
      <trkpt lat="46.1524" lon="5.59983">
        <ele>477.9</ele>
        <time>2020-05-24T08:00:24Z</time>
      </trkpt>
      <trkpt lat="46.15238" lon="5.59974">
        <ele>478</ele>
        <time>2020-05-24T08:00:26Z</time>
      </trkpt>
      <trkpt lat="46.15237" lon="5.59968">
        <ele>478</ele>
        <time>2020-05-24T08:00:27Z</time>
      </trkpt>
      <trkpt lat="46.15235" lon="5.59963">
        <ele>478</ele>
        <time>2020-05-24T08:00:28Z</time>
      </trkpt>
      <trkpt lat="46.15233" lon="5.59952">
        <ele>478.1</ele>
        <time>2020-05-24T08:00:30Z</time>
      </trkpt>
      <trkpt lat="46.15229" lon="5.59939">
        <ele>478.2</ele>
        <time>2020-05-24T08:00:32Z</time>
      </trkpt>
      <trkpt lat="46.15227" lon="5.5993">
        <ele>478.2</ele>
        <time>2020-05-24T08:00:34Z</time>
      </trkpt>
      <trkpt lat="46.15225" lon="5.59923">
        <ele>478.2</ele>
        <time>2020-05-24T08:00:35Z</time>
      </trkpt>
      <trkpt lat="46.15223" lon="5.59917">
        <ele>478.2</ele>
        <time>2020-05-24T08:00:36Z</time>
      </trkpt>
      <trkpt lat="46.15222" lon="5.59912">
        <ele>478.2</ele>
        <time>2020-05-24T08:00:37Z</time>
      </trkpt>
      <trkpt lat="46.1522" lon="5.59903">
        <ele>478.3</ele>
        <time>2020-05-24T08:00:39Z</time>
      </trkpt>
      <trkpt lat="46.15218" lon="5.59896">
        <ele>478.4</ele>
        <time>2020-05-24T08:00:40Z</time>
      </trkpt>
      <trkpt lat="46.15216" lon="5.59888">
        <ele>478.4</ele>
        <time>2020-05-24T08:00:42Z</time>
      </trkpt>
      <trkpt lat="46.15215" lon="5.59884">
        <ele>478.5</ele>
        <time>2020-05-24T08:00:43Z</time>
      </trkpt>
      <trkpt lat="46.15213" lon="5.59876">
        <ele>478.6</ele>
        <time>2020-05-24T08:00:45Z</time>
      </trkpt>
      <trkpt lat="46.15211" lon="5.59868">
        <ele>478.7</ele>
        <time>2020-05-24T08:00:47Z</time>
      </trkpt>
      <trkpt lat="46.15208" lon="5.59862">
        <ele>478.8</ele>
        <time>2020-05-24T08:00:49Z</time>
      </trkpt>
      <trkpt lat="46.15206" lon="5.59861">
        <ele>478.8</ele>
        <time>2020-05-24T08:00:51Z</time>
      </trkpt>
      <trkpt lat="46.15204" lon="5.59861">
        <ele>478.9</ele>
        <time>2020-05-24T08:00:52Z</time>
      </trkpt>
      <trkpt lat="46.15203" lon="5.59861">
        <ele>478.9</ele>
        <time>2020-05-24T08:00:54Z</time>
      </trkpt>
      <trkpt lat="46.15201" lon="5.5986">
        <ele>478.9</ele>
        <time>2020-05-24T08:00:56Z</time>
      </trkpt>
      <trkpt lat="46.15197" lon="5.59858">
        <ele>479.4</ele>
        <time>2020-05-24T08:00:57Z</time>
      </trkpt>
      <trkpt lat="46.15193" lon="5.59855">
        <ele>479.7</ele>
        <time>2020-05-24T08:00:59Z</time>
      </trkpt>
      <trkpt lat="46.15194" lon="5.59857">
        <ele>479.8</ele>
        <time>2020-05-24T08:01:00Z</time>
      </trkpt>
      <trkpt lat="46.15197" lon="5.5986">
        <ele>480</ele>
        <time>2020-05-24T08:01:02Z</time>
      </trkpt>
      <trkpt lat="46.15195" lon="5.59861">
        <ele>480.2</ele>
        <time>2020-05-24T08:01:03Z</time>
      </trkpt>
      <trkpt lat="46.15192" lon="5.5986">
        <ele>480.4</ele>
        <time>2020-05-24T08:01:05Z</time>
      </trkpt>
      <trkpt lat="46.15189" lon="5.59859">
        <ele>480.6</ele>
        <time>2020-05-24T08:01:06Z</time>
      </trkpt>
      <trkpt lat="46.15188" lon="5.59859">
        <ele>480.7</ele>
        <time>2020-05-24T08:01:07Z</time>
      </trkpt>
      <trkpt lat="46.15186" lon="5.5986">
        <ele>480.8</ele>
        <time>2020-05-24T08:01:09Z</time>
      </trkpt>
      <trkpt lat="46.15185" lon="5.59861">
        <ele>480.9</ele>
        <time>2020-05-24T08:01:10Z</time>
      </trkpt>
      <trkpt lat="46.15184" lon="5.59862">
        <ele>481</ele>
        <time>2020-05-24T08:01:11Z</time>
      </trkpt>
      <trkpt lat="46.15183" lon="5.59862">
        <ele>481.1</ele>
        <time>2020-05-24T08:01:13Z</time>
      </trkpt>
      <trkpt lat="46.15182" lon="5.59863">
        <ele>481.2</ele>
        <time>2020-05-24T08:01:14Z</time>
      </trkpt>
      <trkpt lat="46.1518" lon="5.59864">
        <ele>481.3</ele>
        <time>2020-05-24T08:01:16Z</time>
      </trkpt>
      <trkpt lat="46.15179" lon="5.59865">
        <ele>481.5</ele>
        <time>2020-05-24T08:01:17Z</time>
      </trkpt>
      <trkpt lat="46.15178" lon="5.59865">
        <ele>481.6</ele>
        <time>2020-05-24T08:01:18Z</time>
      </trkpt>
      <trkpt lat="46.15177" lon="5.59866">
        <ele>481.6</ele>
        <time>2020-05-24T08:01:19Z</time>
      </trkpt>
      <trkpt lat="46.15176" lon="5.59867">
        <ele>481.8</ele>
        <time>2020-05-24T08:01:21Z</time>
      </trkpt>
      <trkpt lat="46.15175" lon="5.59869">
        <ele>481.9</ele>
        <time>2020-05-24T08:01:22Z</time>
      </trkpt>
      <trkpt lat="46.15172" lon="5.5987">
        <ele>482.1</ele>
        <time>2020-05-24T08:01:24Z</time>
      </trkpt>
      <trkpt lat="46.15171" lon="5.59871">
        <ele>482.2</ele>
        <time>2020-05-24T08:01:25Z</time>
      </trkpt>
      <trkpt lat="46.15168" lon="5.59873">
        <ele>482.4</ele>
        <time>2020-05-24T08:01:27Z</time>
      </trkpt>
      <trkpt lat="46.15168" lon="5.59873">
        <ele>482.5</ele>
        <time>2020-05-24T08:01:28Z</time>
      </trkpt>
      <trkpt lat="46.15166" lon="5.59874">
        <ele>482.6</ele>
        <time>2020-05-24T08:01:30Z</time>
      </trkpt>
      <trkpt lat="46.15164" lon="5.59874">
        <ele>482.7</ele>
        <time>2020-05-24T08:01:31Z</time>
      </trkpt>
      <trkpt lat="46.15161" lon="5.59875">
        <ele>482.9</ele>
        <time>2020-05-24T08:01:33Z</time>
      </trkpt>
      <trkpt lat="46.1516" lon="5.59876">
        <ele>483</ele>
        <time>2020-05-24T08:01:35Z</time>
      </trkpt>
      <trkpt lat="46.15158" lon="5.59876">
        <ele>483.1</ele>
        <time>2020-05-24T08:01:36Z</time>
      </trkpt>
      <trkpt lat="46.15155" lon="5.59876">
        <ele>483.3</ele>
        <time>2020-05-24T08:01:37Z</time>
      </trkpt>
      <trkpt lat="46.15154" lon="5.59876">
        <ele>483.4</ele>
        <time>2020-05-24T08:01:38Z</time>
      </trkpt>
      <trkpt lat="46.1515" lon="5.59877">
        <ele>483.7</ele>
        <time>2020-05-24T08:01:40Z</time>
      </trkpt>
      <trkpt lat="46.15149" lon="5.59877">
        <ele>483.8</ele>
        <time>2020-05-24T08:01:41Z</time>
      </trkpt>
      <trkpt lat="46.15147" lon="5.59877">
        <ele>483.9</ele>
        <time>2020-05-24T08:01:42Z</time>
      </trkpt>
      <trkpt lat="46.15141" lon="5.59878">
        <ele>484.3</ele>
        <time>2020-05-24T08:01:44Z</time>
      </trkpt>
      <trkpt lat="46.1514" lon="5.59878">
        <ele>484.3</ele>
        <time>2020-05-24T08:01:45Z</time>
      </trkpt>
      <trkpt lat="46.15138" lon="5.59878">
        <ele>484.4</ele>
        <time>2020-05-24T08:01:46Z</time>
      </trkpt>
      <trkpt lat="46.15135" lon="5.59879">
        <ele>484.6</ele>
        <time>2020-05-24T08:01:47Z</time>
      </trkpt>
      <trkpt lat="46.15134" lon="5.59879">
        <ele>484.7</ele>
        <time>2020-05-24T08:01:48Z</time>
      </trkpt>
      <trkpt lat="46.15132" lon="5.5988">
        <ele>484.8</ele>
        <time>2020-05-24T08:01:49Z</time>
      </trkpt>
      <trkpt lat="46.15129" lon="5.59881">
        <ele>485</ele>
        <time>2020-05-24T08:01:51Z</time>
      </trkpt>
      <trkpt lat="46.15126" lon="5.59881">
        <ele>485.2</ele>
        <time>2020-05-24T08:01:53Z</time>
      </trkpt>
      <trkpt lat="46.15123" lon="5.59882">
        <ele>485.3</ele>
        <time>2020-05-24T08:01:54Z</time>
      </trkpt>
      <trkpt lat="46.15119" lon="5.59882">
        <ele>485.6</ele>
        <time>2020-05-24T08:01:56Z</time>
      </trkpt>
      <trkpt lat="46.15117" lon="5.59882">
        <ele>485.6</ele>
        <time>2020-05-24T08:01:57Z</time>
      </trkpt>
      <trkpt lat="46.15115" lon="5.59883">
        <ele>485.8</ele>
        <time>2020-05-24T08:01:59Z</time>
      </trkpt>
      <trkpt lat="46.15111" lon="5.59883">
        <ele>486</ele>
        <time>2020-05-24T08:02:00Z</time>
      </trkpt>
      <trkpt lat="46.1511" lon="5.59883">
        <ele>486</ele>
        <time>2020-05-24T08:02:01Z</time>
      </trkpt>
      <trkpt lat="46.15108" lon="5.59884">
        <ele>486.2</ele>
        <time>2020-05-24T08:02:02Z</time>
      </trkpt>
      <trkpt lat="46.15106" lon="5.59884">
        <ele>486.2</ele>
        <time>2020-05-24T08:02:03Z</time>
      </trkpt>
      <trkpt lat="46.15104" lon="5.59884">
        <ele>486.3</ele>
        <time>2020-05-24T08:02:04Z</time>
      </trkpt>
      <trkpt lat="46.15102" lon="5.59885">
        <ele>486.5</ele>
        <time>2020-05-24T08:02:06Z</time>
      </trkpt>
      <trkpt lat="46.15098" lon="5.59886">
        <ele>486.7</ele>
        <time>2020-05-24T08:02:07Z</time>
      </trkpt>
      <trkpt lat="46.15096" lon="5.59886">
        <ele>486.8</ele>
        <time>2020-05-24T08:02:08Z</time>
      </trkpt>
      <trkpt lat="46.15093" lon="5.59887">
        <ele>486.9</ele>
        <time>2020-05-24T08:02:09Z</time>
      </trkpt>
      <trkpt lat="46.15092" lon="5.59888">
        <ele>487</ele>
        <time>2020-05-24T08:02:11Z</time>
      </trkpt>
      <trkpt lat="46.1509" lon="5.59888">
        <ele>487.1</ele>
        <time>2020-05-24T08:02:12Z</time>
      </trkpt>
      <trkpt lat="46.15088" lon="5.59888">
        <ele>487.2</ele>
        <time>2020-05-24T08:02:13Z</time>
      </trkpt>
      <trkpt lat="46.15085" lon="5.59889">
        <ele>487.4</ele>
        <time>2020-05-24T08:02:14Z</time>
      </trkpt>
      <trkpt lat="46.15084" lon="5.59889">
        <ele>487.4</ele>
        <time>2020-05-24T08:02:15Z</time>
      </trkpt>
      <trkpt lat="46.15082" lon="5.59889">
        <ele>487.6</ele>
        <time>2020-05-24T08:02:16Z</time>
      </trkpt>
      <trkpt lat="46.1508" lon="5.5989">
        <ele>487.7</ele>
        <time>2020-05-24T08:02:18Z</time>
      </trkpt>
      <trkpt lat="46.15075" lon="5.5989">
        <ele>487.9</ele>
        <time>2020-05-24T08:02:19Z</time>
      </trkpt>
      <trkpt lat="46.15074" lon="5.59891">
        <ele>488</ele>
        <time>2020-05-24T08:02:20Z</time>
      </trkpt>
      <trkpt lat="46.15071" lon="5.59891">
        <ele>488.2</ele>
        <time>2020-05-24T08:02:21Z</time>
      </trkpt>
      <trkpt lat="46.15068" lon="5.59893">
        <ele>488.3</ele>
        <time>2020-05-24T08:02:23Z</time>
      </trkpt>
      <trkpt lat="46.15064" lon="5.59894">
        <ele>488.6</ele>
        <time>2020-05-24T08:02:24Z</time>
      </trkpt>
      <trkpt lat="46.15063" lon="5.59895">
        <ele>488.7</ele>
        <time>2020-05-24T08:02:25Z</time>
      </trkpt>
      <trkpt lat="46.1506" lon="5.59897">
        <ele>488.8</ele>
        <time>2020-05-24T08:02:26Z</time>
      </trkpt>
      <trkpt lat="46.15058" lon="5.59898">
        <ele>489</ele>
        <time>2020-05-24T08:02:28Z</time>
      </trkpt>
      <trkpt lat="46.15054" lon="5.59899">
        <ele>489.3</ele>
        <time>2020-05-24T08:02:29Z</time>
      </trkpt>
      <trkpt lat="46.15053" lon="5.599">
        <ele>489.3</ele>
        <time>2020-05-24T08:02:30Z</time>
      </trkpt>
      <trkpt lat="46.1505" lon="5.59902">
        <ele>489.6</ele>
        <time>2020-05-24T08:02:31Z</time>
      </trkpt>
      <trkpt lat="46.15048" lon="5.59902">
        <ele>489.7</ele>
        <time>2020-05-24T08:02:32Z</time>
      </trkpt>
      <trkpt lat="46.15047" lon="5.59903">
        <ele>489.8</ele>
        <time>2020-05-24T08:02:33Z</time>
      </trkpt>
      <trkpt lat="46.15043" lon="5.59905">
        <ele>490</ele>
        <time>2020-05-24T08:02:35Z</time>
      </trkpt>
      <trkpt lat="46.15042" lon="5.59905">
        <ele>490.1</ele>
        <time>2020-05-24T08:02:36Z</time>
      </trkpt>
      <trkpt lat="46.1504" lon="5.59906">
        <ele>490.2</ele>
        <time>2020-05-24T08:02:37Z</time>
      </trkpt>
      <trkpt lat="46.15039" lon="5.59907">
        <ele>490.3</ele>
        <time>2020-05-24T08:02:38Z</time>
      </trkpt>
      <trkpt lat="46.15038" lon="5.59907">
        <ele>490.4</ele>
        <time>2020-05-24T08:02:40Z</time>
      </trkpt>
      <trkpt lat="46.15037" lon="5.59908">
        <ele>490.4</ele>
        <time>2020-05-24T08:02:41Z</time>
      </trkpt>
      <trkpt lat="46.15036" lon="5.59908">
        <ele>490.5</ele>
        <time>2020-05-24T08:02:42Z</time>
      </trkpt>
      <trkpt lat="46.15033" lon="5.5991">
        <ele>490.7</ele>
        <time>2020-05-24T08:02:43Z</time>
      </trkpt>
      <trkpt lat="46.15031" lon="5.59911">
        <ele>490.8</ele>
        <time>2020-05-24T08:02:44Z</time>
      </trkpt>
      <trkpt lat="46.1503" lon="5.59912">
        <ele>490.9</ele>
        <time>2020-05-24T08:02:45Z</time>
      </trkpt>
      <trkpt lat="46.15028" lon="5.59912">
        <ele>491</ele>
        <time>2020-05-24T08:02:46Z</time>
      </trkpt>
      <trkpt lat="46.15027" lon="5.59913">
        <ele>491.1</ele>
        <time>2020-05-24T08:02:47Z</time>
      </trkpt>
      <trkpt lat="46.15024" lon="5.59915">
        <ele>491.3</ele>
        <time>2020-05-24T08:02:49Z</time>
      </trkpt>
      <trkpt lat="46.15023" lon="5.59916">
        <ele>491.3</ele>
        <time>2020-05-24T08:02:50Z</time>
      </trkpt>
      <trkpt lat="46.15021" lon="5.59917">
        <ele>491.5</ele>
        <time>2020-05-24T08:02:51Z</time>
      </trkpt>
      <trkpt lat="46.1502" lon="5.59918">
        <ele>491.6</ele>
        <time>2020-05-24T08:02:52Z</time>
      </trkpt>
      <trkpt lat="46.15016" lon="5.59922">
        <ele>491.8</ele>
        <time>2020-05-24T08:02:54Z</time>
      </trkpt>
      <trkpt lat="46.15015" lon="5.59923">
        <ele>491.9</ele>
        <time>2020-05-24T08:02:55Z</time>
      </trkpt>
      <trkpt lat="46.15012" lon="5.59926">
        <ele>492.1</ele>
        <time>2020-05-24T08:02:57Z</time>
      </trkpt>
      <trkpt lat="46.15012" lon="5.59927">
        <ele>492.2</ele>
        <time>2020-05-24T08:02:58Z</time>
      </trkpt>
      <trkpt lat="46.15009" lon="5.5993">
        <ele>492.4</ele>
        <time>2020-05-24T08:03:00Z</time>
      </trkpt>
      <trkpt lat="46.15008" lon="5.59931">
        <ele>492.4</ele>
        <time>2020-05-24T08:03:01Z</time>
      </trkpt>
      <trkpt lat="46.15005" lon="5.59934">
        <ele>492.7</ele>
        <time>2020-05-24T08:03:02Z</time>
      </trkpt>
      <trkpt lat="46.15004" lon="5.59935">
        <ele>492.7</ele>
        <time>2020-05-24T08:03:03Z</time>
      </trkpt>
      <trkpt lat="46.15002" lon="5.59937">
        <ele>492.9</ele>
        <time>2020-05-24T08:03:04Z</time>
      </trkpt>
      <trkpt lat="46.15" lon="5.5994">
        <ele>493.1</ele>
        <time>2020-05-24T08:03:06Z</time>
      </trkpt>
      <trkpt lat="46.14996" lon="5.59944">
        <ele>493.4</ele>
        <time>2020-05-24T08:03:07Z</time>
      </trkpt>
      <trkpt lat="46.14993" lon="5.59947">
        <ele>493.6</ele>
        <time>2020-05-24T08:03:08Z</time>
      </trkpt>
      <trkpt lat="46.14993" lon="5.59948">
        <ele>493.7</ele>
        <time>2020-05-24T08:03:09Z</time>
      </trkpt>
      <trkpt lat="46.14991" lon="5.59949">
        <ele>493.8</ele>
        <time>2020-05-24T08:03:10Z</time>
      </trkpt>
      <trkpt lat="46.14987" lon="5.59952">
        <ele>494.1</ele>
        <time>2020-05-24T08:03:12Z</time>
      </trkpt>
      <trkpt lat="46.14985" lon="5.59954">
        <ele>494.2</ele>
        <time>2020-05-24T08:03:13Z</time>
      </trkpt>
      <trkpt lat="46.14984" lon="5.59955">
        <ele>494.3</ele>
        <time>2020-05-24T08:03:14Z</time>
      </trkpt>
      <trkpt lat="46.14981" lon="5.59958">
        <ele>494.5</ele>
        <time>2020-05-24T08:03:16Z</time>
      </trkpt>
      <trkpt lat="46.14979" lon="5.5996">
        <ele>494.7</ele>
        <time>2020-05-24T08:03:17Z</time>
      </trkpt>
      <trkpt lat="46.14975" lon="5.59963">
        <ele>495</ele>
        <time>2020-05-24T08:03:19Z</time>
      </trkpt>
      <trkpt lat="46.14973" lon="5.59965">
        <ele>495.1</ele>
        <time>2020-05-24T08:03:20Z</time>
      </trkpt>
      <trkpt lat="46.14971" lon="5.59967">
        <ele>495.3</ele>
        <time>2020-05-24T08:03:22Z</time>
      </trkpt>
      <trkpt lat="46.14967" lon="5.5997">
        <ele>495.6</ele>
        <time>2020-05-24T08:03:23Z</time>
      </trkpt>
      <trkpt lat="46.14965" lon="5.59971">
        <ele>495.7</ele>
        <time>2020-05-24T08:03:24Z</time>
      </trkpt>
      <trkpt lat="46.14962" lon="5.59975">
        <ele>496</ele>
        <time>2020-05-24T08:03:26Z</time>
      </trkpt>
      <trkpt lat="46.14961" lon="5.59976">
        <ele>496.1</ele>
        <time>2020-05-24T08:03:27Z</time>
      </trkpt>
      <trkpt lat="46.1496" lon="5.59978">
        <ele>496.2</ele>
        <time>2020-05-24T08:03:28Z</time>
      </trkpt>
      <trkpt lat="46.14957" lon="5.59982">
        <ele>496.4</ele>
        <time>2020-05-24T08:03:29Z</time>
      </trkpt>
      <trkpt lat="46.14955" lon="5.59983">
        <ele>496.5</ele>
        <time>2020-05-24T08:03:30Z</time>
      </trkpt>
      <trkpt lat="46.14954" lon="5.59986">
        <ele>496.7</ele>
        <time>2020-05-24T08:03:32Z</time>
      </trkpt>
      <trkpt lat="46.14953" lon="5.59987">
        <ele>496.8</ele>
        <time>2020-05-24T08:03:33Z</time>
      </trkpt>
      <trkpt lat="46.14949" lon="5.59993">
        <ele>497.1</ele>
        <time>2020-05-24T08:03:35Z</time>
      </trkpt>
      <trkpt lat="46.14948" lon="5.59995">
        <ele>497.2</ele>
        <time>2020-05-24T08:03:37Z</time>
      </trkpt>
      <trkpt lat="46.14947" lon="5.59997">
        <ele>497.3</ele>
        <time>2020-05-24T08:03:38Z</time>
      </trkpt>
      <trkpt lat="46.14945" lon="5.59999">
        <ele>497.4</ele>
        <time>2020-05-24T08:03:39Z</time>
      </trkpt>
      <trkpt lat="46.14943" lon="5.60001">
        <ele>497.6</ele>
        <time>2020-05-24T08:03:40Z</time>
      </trkpt>
      <trkpt lat="46.14941" lon="5.60005">
        <ele>497.8</ele>
        <time>2020-05-24T08:03:42Z</time>
      </trkpt>
      <trkpt lat="46.14938" lon="5.60009">
        <ele>498</ele>
        <time>2020-05-24T08:03:43Z</time>
      </trkpt>
      <trkpt lat="46.14936" lon="5.60012">
        <ele>498.2</ele>
        <time>2020-05-24T08:03:44Z</time>
      </trkpt>
      <trkpt lat="46.14935" lon="5.60012">
        <ele>498.3</ele>
        <time>2020-05-24T08:03:45Z</time>
      </trkpt>
      <trkpt lat="46.14934" lon="5.60014">
        <ele>498.4</ele>
        <time>2020-05-24T08:03:46Z</time>
      </trkpt>
      <trkpt lat="46.14933" lon="5.60016">
        <ele>498.5</ele>
        <time>2020-05-24T08:03:47Z</time>
      </trkpt>
      <trkpt lat="46.1493" lon="5.60019">
        <ele>498.7</ele>
        <time>2020-05-24T08:03:49Z</time>
      </trkpt>
      <trkpt lat="46.14929" lon="5.6002">
        <ele>498.8</ele>
        <time>2020-05-24T08:03:50Z</time>
      </trkpt>
      <trkpt lat="46.14927" lon="5.60022">
        <ele>498.9</ele>
        <time>2020-05-24T08:03:51Z</time>
      </trkpt>
      <trkpt lat="46.14924" lon="5.60026">
        <ele>499.2</ele>
        <time>2020-05-24T08:03:53Z</time>
      </trkpt>
      <trkpt lat="46.14921" lon="5.60029">
        <ele>499.4</ele>
        <time>2020-05-24T08:03:54Z</time>
      </trkpt>
      <trkpt lat="46.1492" lon="5.6003">
        <ele>499.5</ele>
        <time>2020-05-24T08:03:55Z</time>
      </trkpt>
      <trkpt lat="46.14918" lon="5.60034">
        <ele>499.7</ele>
        <time>2020-05-24T08:03:57Z</time>
      </trkpt>
      <trkpt lat="46.14915" lon="5.60037">
        <ele>499.9</ele>
        <time>2020-05-24T08:03:59Z</time>
      </trkpt>
      <trkpt lat="46.14913" lon="5.60039">
        <ele>500</ele>
        <time>2020-05-24T08:04:00Z</time>
      </trkpt>
      <trkpt lat="46.14911" lon="5.60042">
        <ele>500.2</ele>
        <time>2020-05-24T08:04:02Z</time>
      </trkpt>
      <trkpt lat="46.14909" lon="5.60045">
        <ele>500.4</ele>
        <time>2020-05-24T08:04:03Z</time>
      </trkpt>
      <trkpt lat="46.14906" lon="5.60049">
        <ele>500.6</ele>
        <time>2020-05-24T08:04:05Z</time>
      </trkpt>
      <trkpt lat="46.14903" lon="5.60052">
        <ele>500.8</ele>
        <time>2020-05-24T08:04:06Z</time>
      </trkpt>
      <trkpt lat="46.14901" lon="5.60056">
        <ele>501</ele>
        <time>2020-05-24T08:04:08Z</time>
      </trkpt>
      <trkpt lat="46.149" lon="5.60057">
        <ele>501.1</ele>
        <time>2020-05-24T08:04:09Z</time>
      </trkpt>
      <trkpt lat="46.14899" lon="5.60059">
        <ele>501.2</ele>
        <time>2020-05-24T08:04:10Z</time>
      </trkpt>
      <trkpt lat="46.14896" lon="5.60062">
        <ele>501.4</ele>
        <time>2020-05-24T08:04:12Z</time>
      </trkpt>
      <trkpt lat="46.14894" lon="5.60065">
        <ele>501.6</ele>
        <time>2020-05-24T08:04:14Z</time>
      </trkpt>
      <trkpt lat="46.14892" lon="5.60067">
        <ele>501.7</ele>
        <time>2020-05-24T08:04:15Z</time>
      </trkpt>
      <trkpt lat="46.14889" lon="5.60072">
        <ele>502</ele>
        <time>2020-05-24T08:04:18Z</time>
      </trkpt>
      <trkpt lat="46.14887" lon="5.60074">
        <ele>502.2</ele>
        <time>2020-05-24T08:04:19Z</time>
      </trkpt>
      <trkpt lat="46.14885" lon="5.60077">
        <ele>502.3</ele>
        <time>2020-05-24T08:04:21Z</time>
      </trkpt>
      <trkpt lat="46.14883" lon="5.6008">
        <ele>502.5</ele>
        <time>2020-05-24T08:04:22Z</time>
      </trkpt>
      <trkpt lat="46.14883" lon="5.60081">
        <ele>502.5</ele>
        <time>2020-05-24T08:04:23Z</time>
      </trkpt>
      <trkpt lat="46.14881" lon="5.60084">
        <ele>502.7</ele>
        <time>2020-05-24T08:04:25Z</time>
      </trkpt>
      <trkpt lat="46.1488" lon="5.60086">
        <ele>502.8</ele>
        <time>2020-05-24T08:04:26Z</time>
      </trkpt>
      <trkpt lat="46.14879" lon="5.60088">
        <ele>502.9</ele>
        <time>2020-05-24T08:04:27Z</time>
      </trkpt>
      <trkpt lat="46.14876" lon="5.60092">
        <ele>503.2</ele>
        <time>2020-05-24T08:04:29Z</time>
      </trkpt>
      <trkpt lat="46.14875" lon="5.60094">
        <ele>503.3</ele>
        <time>2020-05-24T08:04:30Z</time>
      </trkpt>
      <trkpt lat="46.14874" lon="5.60097">
        <ele>503.5</ele>
        <time>2020-05-24T08:04:32Z</time>
      </trkpt>
      <trkpt lat="46.14872" lon="5.601">
        <ele>503.6</ele>
        <time>2020-05-24T08:04:33Z</time>
      </trkpt>
      <trkpt lat="46.1487" lon="5.60103">
        <ele>503.8</ele>
        <time>2020-05-24T08:04:35Z</time>
      </trkpt>
      <trkpt lat="46.14869" lon="5.60107">
        <ele>504</ele>
        <time>2020-05-24T08:04:36Z</time>
      </trkpt>
      <trkpt lat="46.14868" lon="5.60108">
        <ele>504</ele>
        <time>2020-05-24T08:04:37Z</time>
      </trkpt>
      <trkpt lat="46.14866" lon="5.60115">
        <ele>504.4</ele>
        <time>2020-05-24T08:04:39Z</time>
      </trkpt>
      <trkpt lat="46.14865" lon="5.60117">
        <ele>504.5</ele>
        <time>2020-05-24T08:04:40Z</time>
      </trkpt>
      <trkpt lat="46.14864" lon="5.6012">
        <ele>504.6</ele>
        <time>2020-05-24T08:04:41Z</time>
      </trkpt>
      <trkpt lat="46.14863" lon="5.60121">
        <ele>504.7</ele>
        <time>2020-05-24T08:04:42Z</time>
      </trkpt>
      <trkpt lat="46.14862" lon="5.60124">
        <ele>504.8</ele>
        <time>2020-05-24T08:04:44Z</time>
      </trkpt>
      <trkpt lat="46.14861" lon="5.60126">
        <ele>504.9</ele>
        <time>2020-05-24T08:04:45Z</time>
      </trkpt>
      <trkpt lat="46.1486" lon="5.60128">
        <ele>505</ele>
        <time>2020-05-24T08:04:46Z</time>
      </trkpt>
      <trkpt lat="46.14859" lon="5.60132">
        <ele>505.2</ele>
        <time>2020-05-24T08:04:48Z</time>
      </trkpt>
      <trkpt lat="46.14859" lon="5.60133">
        <ele>505.2</ele>
        <time>2020-05-24T08:04:49Z</time>
      </trkpt>
      <trkpt lat="46.14858" lon="5.60135">
        <ele>505.3</ele>
        <time>2020-05-24T08:04:51Z</time>
      </trkpt>
      <trkpt lat="46.14857" lon="5.60136">
        <ele>505.4</ele>
        <time>2020-05-24T08:04:52Z</time>
      </trkpt>
      <trkpt lat="46.14854" lon="5.60142">
        <ele>505.7</ele>
        <time>2020-05-24T08:04:54Z</time>
      </trkpt>
      <trkpt lat="46.14853" lon="5.60144">
        <ele>505.8</ele>
        <time>2020-05-24T08:04:55Z</time>
      </trkpt>
      <trkpt lat="46.14852" lon="5.60147">
        <ele>506</ele>
        <time>2020-05-24T08:04:57Z</time>
      </trkpt>
      <trkpt lat="46.14851" lon="5.60149">
        <ele>506.1</ele>
        <time>2020-05-24T08:04:59Z</time>
      </trkpt>
      <trkpt lat="46.14851" lon="5.6015">
        <ele>506.1</ele>
        <time>2020-05-24T08:05:01Z</time>
      </trkpt>
      <trkpt lat="46.14851" lon="5.60153">
        <ele>506.3</ele>
        <time>2020-05-24T08:05:03Z</time>
      </trkpt>
      <trkpt lat="46.14851" lon="5.60155">
        <ele>506.4</ele>
        <time>2020-05-24T08:05:04Z</time>
      </trkpt>
      <trkpt lat="46.14851" lon="5.60156">
        <ele>506.4</ele>
        <time>2020-05-24T08:05:05Z</time>
      </trkpt>
      <trkpt lat="46.14851" lon="5.60158">
        <ele>506.5</ele>
        <time>2020-05-24T08:05:07Z</time>
      </trkpt>
      <trkpt lat="46.14851" lon="5.6016">
        <ele>506.6</ele>
        <time>2020-05-24T08:05:08Z</time>
      </trkpt>
      <trkpt lat="46.14851" lon="5.60161">
        <ele>506.7</ele>
        <time>2020-05-24T08:05:09Z</time>
      </trkpt>
      <trkpt lat="46.14851" lon="5.60162">
        <ele>506.7</ele>
        <time>2020-05-24T08:05:11Z</time>
      </trkpt>
      <trkpt lat="46.14852" lon="5.60168">
        <ele>507</ele>
        <time>2020-05-24T08:05:13Z</time>
      </trkpt>
      <trkpt lat="46.14852" lon="5.6017">
        <ele>507.1</ele>
        <time>2020-05-24T08:05:15Z</time>
      </trkpt>
      <trkpt lat="46.14853" lon="5.60172">
        <ele>507.2</ele>
        <time>2020-05-24T08:05:17Z</time>
      </trkpt>
      <trkpt lat="46.14853" lon="5.60173">
        <ele>507.3</ele>
        <time>2020-05-24T08:05:19Z</time>
      </trkpt>
      <trkpt lat="46.14853" lon="5.60173">
        <ele>507.3</ele>
        <time>2020-05-24T08:05:20Z</time>
      </trkpt>
      <trkpt lat="46.14853" lon="5.60173">
        <ele>507.3</ele>
        <time>2020-05-24T08:05:21Z</time>
      </trkpt>
      <trkpt lat="46.14853" lon="5.60173">
        <ele>507.3</ele>
        <time>2020-05-24T08:05:23Z</time>
      </trkpt>
      <trkpt lat="46.14853" lon="5.60173">
        <ele>507.3</ele>
        <time>2020-05-24T08:05:25Z</time>
      </trkpt>
      <trkpt lat="46.14853" lon="5.60173">
        <ele>507.3</ele>
        <time>2020-05-24T08:05:26Z</time>
      </trkpt>
      <trkpt lat="46.14853" lon="5.60173">
        <ele>507.3</ele>
        <time>2020-05-24T08:05:28Z</time>
      </trkpt>
      <trkpt lat="46.14856" lon="5.60174">
        <ele>507.5</ele>
        <time>2020-05-24T08:05:58Z</time>
      </trkpt>
      <trkpt lat="46.14856" lon="5.60176">
        <ele>507.6</ele>
        <time>2020-05-24T08:06:00Z</time>
      </trkpt>
      <trkpt lat="46.14856" lon="5.60176">
        <ele>507.6</ele>
        <time>2020-05-24T08:06:01Z</time>
      </trkpt>
      <trkpt lat="46.14856" lon="5.60176">
        <ele>507.6</ele>
        <time>2020-05-24T08:06:02Z</time>
      </trkpt>
      <trkpt lat="46.14856" lon="5.60176">
        <ele>507.6</ele>
        <time>2020-05-24T08:06:04Z</time>
      </trkpt>
      <trkpt lat="46.14856" lon="5.60176">
        <ele>507.6</ele>
        <time>2020-05-24T08:06:06Z</time>
      </trkpt>
      <trkpt lat="46.14856" lon="5.60177">
        <ele>507.7</ele>
        <time>2020-05-24T08:06:08Z</time>
      </trkpt>
      <trkpt lat="46.14855" lon="5.60177">
        <ele>507.7</ele>
        <time>2020-05-24T08:06:10Z</time>
      </trkpt>
      <trkpt lat="46.14855" lon="5.60177">
        <ele>507.7</ele>
        <time>2020-05-24T08:06:12Z</time>
      </trkpt>
      <trkpt lat="46.14855" lon="5.60177">
        <ele>507.7</ele>
        <time>2020-05-24T08:06:13Z</time>
      </trkpt>
      <trkpt lat="46.14855" lon="5.60177">
        <ele>507.7</ele>
        <time>2020-05-24T08:06:14Z</time>
      </trkpt>
      <trkpt lat="46.14854" lon="5.60176">
        <ele>507.8</ele>
        <time>2020-05-24T08:06:16Z</time>
      </trkpt>
      <trkpt lat="46.14854" lon="5.60176">
        <ele>507.8</ele>
        <time>2020-05-24T08:06:17Z</time>
      </trkpt>
      <trkpt lat="46.14854" lon="5.60176">
        <ele>507.8</ele>
        <time>2020-05-24T08:06:18Z</time>
      </trkpt>
      <trkpt lat="46.14854" lon="5.60176">
        <ele>507.9</ele>
        <time>2020-05-24T08:06:19Z</time>
      </trkpt>
      <trkpt lat="46.14854" lon="5.60177">
        <ele>507.9</ele>
        <time>2020-05-24T08:06:20Z</time>
      </trkpt>
      <trkpt lat="46.14854" lon="5.6018">
        <ele>508</ele>
        <time>2020-05-24T08:06:22Z</time>
      </trkpt>
      <trkpt lat="46.14854" lon="5.60179">
        <ele>508.1</ele>
        <time>2020-05-24T08:06:23Z</time>
      </trkpt>
      <trkpt lat="46.14853" lon="5.60179">
        <ele>508.1</ele>
        <time>2020-05-24T08:06:24Z</time>
      </trkpt>
      <trkpt lat="46.14852" lon="5.60179">
        <ele>508.2</ele>
        <time>2020-05-24T08:06:25Z</time>
      </trkpt>
      <trkpt lat="46.14852" lon="5.60178">
        <ele>508.2</ele>
        <time>2020-05-24T08:06:27Z</time>
      </trkpt>
      <trkpt lat="46.14851" lon="5.60177">
        <ele>508.3</ele>
        <time>2020-05-24T08:06:28Z</time>
      </trkpt>
      <trkpt lat="46.1485" lon="5.60176">
        <ele>508.4</ele>
        <time>2020-05-24T08:06:30Z</time>
      </trkpt>
      <trkpt lat="46.1485" lon="5.60175">
        <ele>508.5</ele>
        <time>2020-05-24T08:06:32Z</time>
      </trkpt>
      <trkpt lat="46.1485" lon="5.60175">
        <ele>508.5</ele>
        <time>2020-05-24T08:06:34Z</time>
      </trkpt>
      <trkpt lat="46.1485" lon="5.60175">
        <ele>508.5</ele>
        <time>2020-05-24T08:06:35Z</time>
      </trkpt>
      <trkpt lat="46.1485" lon="5.60175">
        <ele>508.5</ele>
        <time>2020-05-24T08:06:36Z</time>
      </trkpt>
      <trkpt lat="46.1485" lon="5.60175">
        <ele>508.5</ele>
        <time>2020-05-24T08:06:37Z</time>
      </trkpt>
      <trkpt lat="46.1485" lon="5.60175">
        <ele>508.5</ele>
        <time>2020-05-24T08:06:39Z</time>
      </trkpt>
      <trkpt lat="46.1485" lon="5.60175">
        <ele>508.5</ele>
        <time>2020-05-24T08:06:41Z</time>
      </trkpt>
      <trkpt lat="46.14851" lon="5.60173">
        <ele>508.6</ele>
        <time>2020-05-24T08:07:01Z</time>
      </trkpt>
      <trkpt lat="46.1485" lon="5.60173">
        <ele>508.7</ele>
        <time>2020-05-24T08:07:02Z</time>
      </trkpt>
      <trkpt lat="46.14847" lon="5.60176">
        <ele>509.1</ele>
        <time>2020-05-24T08:07:04Z</time>
      </trkpt>
      <trkpt lat="46.14847" lon="5.60177">
        <ele>509.3</ele>
        <time>2020-05-24T08:07:05Z</time>
      </trkpt>
      <trkpt lat="46.14845" lon="5.60179">
        <ele>509.5</ele>
        <time>2020-05-24T08:07:07Z</time>
      </trkpt>
      <trkpt lat="46.14844" lon="5.60179">
        <ele>509.7</ele>
        <time>2020-05-24T08:07:08Z</time>
      </trkpt>
      <trkpt lat="46.14843" lon="5.6018">
        <ele>509.9</ele>
        <time>2020-05-24T08:07:09Z</time>
      </trkpt>
      <trkpt lat="46.14841" lon="5.60182">
        <ele>510.3</ele>
        <time>2020-05-24T08:07:11Z</time>
      </trkpt>
      <trkpt lat="46.1484" lon="5.60183">
        <ele>510.4</ele>
        <time>2020-05-24T08:07:12Z</time>
      </trkpt>
      <trkpt lat="46.14838" lon="5.60186">
        <ele>510.9</ele>
        <time>2020-05-24T08:07:14Z</time>
      </trkpt>
      <trkpt lat="46.14837" lon="5.60188">
        <ele>511.1</ele>
        <time>2020-05-24T08:07:15Z</time>
      </trkpt>
      <trkpt lat="46.14836" lon="5.6019">
        <ele>511.2</ele>
        <time>2020-05-24T08:07:17Z</time>
      </trkpt>
      <trkpt lat="46.14835" lon="5.60192">
        <ele>511.4</ele>
        <time>2020-05-24T08:07:18Z</time>
      </trkpt>
      <trkpt lat="46.14834" lon="5.60195">
        <ele>511.8</ele>
        <time>2020-05-24T08:07:19Z</time>
      </trkpt>
      <trkpt lat="46.14833" lon="5.60197">
        <ele>511.9</ele>
        <time>2020-05-24T08:07:21Z</time>
      </trkpt>
      <trkpt lat="46.14833" lon="5.60198">
        <ele>512.1</ele>
        <time>2020-05-24T08:07:22Z</time>
      </trkpt>
      <trkpt lat="46.14832" lon="5.602">
        <ele>512.2</ele>
        <time>2020-05-24T08:07:23Z</time>
      </trkpt>
      <trkpt lat="46.14832" lon="5.60201">
        <ele>512.3</ele>
        <time>2020-05-24T08:07:24Z</time>
      </trkpt>
      <trkpt lat="46.14831" lon="5.60203">
        <ele>512.5</ele>
        <time>2020-05-24T08:07:26Z</time>
      </trkpt>
      <trkpt lat="46.1483" lon="5.60205">
        <ele>512.7</ele>
        <time>2020-05-24T08:07:27Z</time>
      </trkpt>
      <trkpt lat="46.14829" lon="5.60206">
        <ele>512.9</ele>
        <time>2020-05-24T08:07:28Z</time>
      </trkpt>
      <trkpt lat="46.14828" lon="5.60207">
        <ele>513</ele>
        <time>2020-05-24T08:07:29Z</time>
      </trkpt>
      <trkpt lat="46.14828" lon="5.60208">
        <ele>513.1</ele>
        <time>2020-05-24T08:07:31Z</time>
      </trkpt>
      <trkpt lat="46.14827" lon="5.6021">
        <ele>513.3</ele>
        <time>2020-05-24T08:07:32Z</time>
      </trkpt>
      <trkpt lat="46.14826" lon="5.60212">
        <ele>513.5</ele>
        <time>2020-05-24T08:07:33Z</time>
      </trkpt>
      <trkpt lat="46.14824" lon="5.60214">
        <ele>513.7</ele>
        <time>2020-05-24T08:07:35Z</time>
      </trkpt>
      <trkpt lat="46.14822" lon="5.60218">
        <ele>514.1</ele>
        <time>2020-05-24T08:07:37Z</time>
      </trkpt>
      <trkpt lat="46.14821" lon="5.60222">
        <ele>514.4</ele>
        <time>2020-05-24T08:07:38Z</time>
      </trkpt>
      <trkpt lat="46.1482" lon="5.60223">
        <ele>514.6</ele>
        <time>2020-05-24T08:07:39Z</time>
      </trkpt>
      <trkpt lat="46.1482" lon="5.60224">
        <ele>514.7</ele>
        <time>2020-05-24T08:07:40Z</time>
      </trkpt>
      <trkpt lat="46.14819" lon="5.60226">
        <ele>514.9</ele>
        <time>2020-05-24T08:07:42Z</time>
      </trkpt>
      <trkpt lat="46.14817" lon="5.60228">
        <ele>515.1</ele>
        <time>2020-05-24T08:07:43Z</time>
      </trkpt>
      <trkpt lat="46.14817" lon="5.6023">
        <ele>515.2</ele>
        <time>2020-05-24T08:07:44Z</time>
      </trkpt>
      <trkpt lat="46.14816" lon="5.60232">
        <ele>515.4</ele>
        <time>2020-05-24T08:07:45Z</time>
      </trkpt>
      <trkpt lat="46.14814" lon="5.60233">
        <ele>515.6</ele>
        <time>2020-05-24T08:07:46Z</time>
      </trkpt>
      <trkpt lat="46.14813" lon="5.60234">
        <ele>515.8</ele>
        <time>2020-05-24T08:07:48Z</time>
      </trkpt>
      <trkpt lat="46.14812" lon="5.60236">
        <ele>516</ele>
        <time>2020-05-24T08:07:49Z</time>
      </trkpt>
      <trkpt lat="46.1481" lon="5.60238">
        <ele>516.3</ele>
        <time>2020-05-24T08:07:51Z</time>
      </trkpt>
      <trkpt lat="46.14809" lon="5.60238">
        <ele>516.4</ele>
        <time>2020-05-24T08:07:52Z</time>
      </trkpt>
      <trkpt lat="46.14809" lon="5.6024">
        <ele>516.5</ele>
        <time>2020-05-24T08:07:53Z</time>
      </trkpt>
      <trkpt lat="46.14808" lon="5.60241">
        <ele>516.7</ele>
        <time>2020-05-24T08:07:54Z</time>
      </trkpt>
      <trkpt lat="46.14806" lon="5.60243">
        <ele>517</ele>
        <time>2020-05-24T08:07:56Z</time>
      </trkpt>
      <trkpt lat="46.14804" lon="5.60246">
        <ele>517.4</ele>
        <time>2020-05-24T08:07:57Z</time>
      </trkpt>
      <trkpt lat="46.14802" lon="5.60248">
        <ele>517.6</ele>
        <time>2020-05-24T08:07:59Z</time>
      </trkpt>
      <trkpt lat="46.14801" lon="5.60249">
        <ele>517.9</ele>
        <time>2020-05-24T08:08:00Z</time>
      </trkpt>
      <trkpt lat="46.148" lon="5.60251">
        <ele>518.1</ele>
        <time>2020-05-24T08:08:01Z</time>
      </trkpt>
      <trkpt lat="46.14798" lon="5.60255">
        <ele>518.6</ele>
        <time>2020-05-24T08:08:02Z</time>
      </trkpt>
      <trkpt lat="46.14797" lon="5.60256">
        <ele>518.7</ele>
        <time>2020-05-24T08:08:04Z</time>
      </trkpt>
      <trkpt lat="46.14796" lon="5.60258">
        <ele>518.9</ele>
        <time>2020-05-24T08:08:05Z</time>
      </trkpt>
      <trkpt lat="46.14794" lon="5.60261">
        <ele>519.4</ele>
        <time>2020-05-24T08:08:07Z</time>
      </trkpt>
      <trkpt lat="46.14793" lon="5.60262">
        <ele>519.5</ele>
        <time>2020-05-24T08:08:08Z</time>
      </trkpt>
      <trkpt lat="46.14792" lon="5.60263">
        <ele>519.7</ele>
        <time>2020-05-24T08:08:09Z</time>
      </trkpt>
      <trkpt lat="46.14791" lon="5.60264">
        <ele>519.9</ele>
        <time>2020-05-24T08:08:10Z</time>
      </trkpt>
      <trkpt lat="46.14788" lon="5.60267">
        <ele>520.3</ele>
        <time>2020-05-24T08:08:12Z</time>
      </trkpt>
      <trkpt lat="46.14787" lon="5.60267">
        <ele>520.5</ele>
        <time>2020-05-24T08:08:13Z</time>
      </trkpt>
      <trkpt lat="46.14785" lon="5.6027">
        <ele>520.9</ele>
        <time>2020-05-24T08:08:15Z</time>
      </trkpt>
      <trkpt lat="46.14784" lon="5.6027">
        <ele>521</ele>
        <time>2020-05-24T08:08:16Z</time>
      </trkpt>
      <trkpt lat="46.14783" lon="5.6027">
        <ele>521.2</ele>
        <time>2020-05-24T08:08:17Z</time>
      </trkpt>
      <trkpt lat="46.14781" lon="5.60271">
        <ele>521.4</ele>
        <time>2020-05-24T08:08:19Z</time>
      </trkpt>
      <trkpt lat="46.14779" lon="5.60272">
        <ele>521.6</ele>
        <time>2020-05-24T08:08:20Z</time>
      </trkpt>
      <trkpt lat="46.14778" lon="5.60273">
        <ele>521.9</ele>
        <time>2020-05-24T08:08:21Z</time>
      </trkpt>
      <trkpt lat="46.14776" lon="5.60274">
        <ele>522.2</ele>
        <time>2020-05-24T08:08:23Z</time>
      </trkpt>
      <trkpt lat="46.14774" lon="5.60275">
        <ele>522.4</ele>
        <time>2020-05-24T08:08:25Z</time>
      </trkpt>
      <trkpt lat="46.14771" lon="5.60277">
        <ele>522.8</ele>
        <time>2020-05-24T08:08:26Z</time>
      </trkpt>
      <trkpt lat="46.1477" lon="5.60277">
        <ele>523</ele>
        <time>2020-05-24T08:08:27Z</time>
      </trkpt>
      <trkpt lat="46.14769" lon="5.60278">
        <ele>523.1</ele>
        <time>2020-05-24T08:08:29Z</time>
      </trkpt>
      <trkpt lat="46.14768" lon="5.60278">
        <ele>523.3</ele>
        <time>2020-05-24T08:08:31Z</time>
      </trkpt>
      <trkpt lat="46.14767" lon="5.60279">
        <ele>523.4</ele>
        <time>2020-05-24T08:08:32Z</time>
      </trkpt>
      <trkpt lat="46.14766" lon="5.6028">
        <ele>523.6</ele>
        <time>2020-05-24T08:08:33Z</time>
      </trkpt>
      <trkpt lat="46.14765" lon="5.6028">
        <ele>523.8</ele>
        <time>2020-05-24T08:08:34Z</time>
      </trkpt>
      <trkpt lat="46.14763" lon="5.60283">
        <ele>524.2</ele>
        <time>2020-05-24T08:08:35Z</time>
      </trkpt>
      <trkpt lat="46.14762" lon="5.60284">
        <ele>524.4</ele>
        <time>2020-05-24T08:08:36Z</time>
      </trkpt>
      <trkpt lat="46.14761" lon="5.60286">
        <ele>524.6</ele>
        <time>2020-05-24T08:08:38Z</time>
      </trkpt>
      <trkpt lat="46.1476" lon="5.60287">
        <ele>524.8</ele>
        <time>2020-05-24T08:08:40Z</time>
      </trkpt>
      <trkpt lat="46.14759" lon="5.60288">
        <ele>524.9</ele>
        <time>2020-05-24T08:08:41Z</time>
      </trkpt>
      <trkpt lat="46.14758" lon="5.6029">
        <ele>525.2</ele>
        <time>2020-05-24T08:08:42Z</time>
      </trkpt>
      <trkpt lat="46.14757" lon="5.60292">
        <ele>525.5</ele>
        <time>2020-05-24T08:08:44Z</time>
      </trkpt>
      <trkpt lat="46.14755" lon="5.60293">
        <ele>525.7</ele>
        <time>2020-05-24T08:08:45Z</time>
      </trkpt>
      <trkpt lat="46.14753" lon="5.60295">
        <ele>526</ele>
        <time>2020-05-24T08:08:47Z</time>
      </trkpt>
      <trkpt lat="46.14752" lon="5.60297">
        <ele>526.3</ele>
        <time>2020-05-24T08:08:48Z</time>
      </trkpt>
      <trkpt lat="46.1475" lon="5.603">
        <ele>526.7</ele>
        <time>2020-05-24T08:08:50Z</time>
      </trkpt>
      <trkpt lat="46.14749" lon="5.603">
        <ele>526.9</ele>
        <time>2020-05-24T08:08:51Z</time>
      </trkpt>
      <trkpt lat="46.14747" lon="5.60301">
        <ele>527.1</ele>
        <time>2020-05-24T08:08:52Z</time>
      </trkpt>
      <trkpt lat="46.14745" lon="5.60302">
        <ele>527.4</ele>
        <time>2020-05-24T08:08:54Z</time>
      </trkpt>
      <trkpt lat="46.14744" lon="5.60303">
        <ele>527.6</ele>
        <time>2020-05-24T08:08:55Z</time>
      </trkpt>
      <trkpt lat="46.14743" lon="5.60303">
        <ele>527.8</ele>
        <time>2020-05-24T08:08:56Z</time>
      </trkpt>
      <trkpt lat="46.14741" lon="5.60302">
        <ele>528</ele>
        <time>2020-05-24T08:08:58Z</time>
      </trkpt>
      <trkpt lat="46.14739" lon="5.60301">
        <ele>528.3</ele>
        <time>2020-05-24T08:08:59Z</time>
      </trkpt>
      <trkpt lat="46.14737" lon="5.60301">
        <ele>528.6</ele>
        <time>2020-05-24T08:09:01Z</time>
      </trkpt>
      <trkpt lat="46.14735" lon="5.60302">
        <ele>528.9</ele>
        <time>2020-05-24T08:09:02Z</time>
      </trkpt>
      <trkpt lat="46.14733" lon="5.60301">
        <ele>529.2</ele>
        <time>2020-05-24T08:09:04Z</time>
      </trkpt>
      <trkpt lat="46.14731" lon="5.60302">
        <ele>529.5</ele>
        <time>2020-05-24T08:09:06Z</time>
      </trkpt>
      <trkpt lat="46.1473" lon="5.60301">
        <ele>529.8</ele>
        <time>2020-05-24T08:09:07Z</time>
      </trkpt>
      <trkpt lat="46.14727" lon="5.60302">
        <ele>530.2</ele>
        <time>2020-05-24T08:09:08Z</time>
      </trkpt>
      <trkpt lat="46.14726" lon="5.60303">
        <ele>530.4</ele>
        <time>2020-05-24T08:09:10Z</time>
      </trkpt>
      <trkpt lat="46.14724" lon="5.60303">
        <ele>530.6</ele>
        <time>2020-05-24T08:09:11Z</time>
      </trkpt>
      <trkpt lat="46.14723" lon="5.60304">
        <ele>530.7</ele>
        <time>2020-05-24T08:09:12Z</time>
      </trkpt>
      <trkpt lat="46.1472" lon="5.60305">
        <ele>531.2</ele>
        <time>2020-05-24T08:09:14Z</time>
      </trkpt>
      <trkpt lat="46.14718" lon="5.60306">
        <ele>531.5</ele>
        <time>2020-05-24T08:09:15Z</time>
      </trkpt>
      <trkpt lat="46.14716" lon="5.60307">
        <ele>531.9</ele>
        <time>2020-05-24T08:09:17Z</time>
      </trkpt>
      <trkpt lat="46.14714" lon="5.60308">
        <ele>532.2</ele>
        <time>2020-05-24T08:09:18Z</time>
      </trkpt>
      <trkpt lat="46.14711" lon="5.60309">
        <ele>532.5</ele>
        <time>2020-05-24T08:09:20Z</time>
      </trkpt>
      <trkpt lat="46.1471" lon="5.60309">
        <ele>532.7</ele>
        <time>2020-05-24T08:09:21Z</time>
      </trkpt>
      <trkpt lat="46.14708" lon="5.60311">
        <ele>533</ele>
        <time>2020-05-24T08:09:22Z</time>
      </trkpt>
      <trkpt lat="46.14707" lon="5.60311">
        <ele>533.2</ele>
        <time>2020-05-24T08:09:23Z</time>
      </trkpt>
      <trkpt lat="46.14705" lon="5.60313">
        <ele>533.6</ele>
        <time>2020-05-24T08:09:25Z</time>
      </trkpt>
      <trkpt lat="46.14704" lon="5.60313">
        <ele>533.7</ele>
        <time>2020-05-24T08:09:26Z</time>
      </trkpt>
      <trkpt lat="46.14702" lon="5.60314">
        <ele>534</ele>
        <time>2020-05-24T08:09:28Z</time>
      </trkpt>
      <trkpt lat="46.14701" lon="5.60314">
        <ele>534.2</ele>
        <time>2020-05-24T08:09:30Z</time>
      </trkpt>
      <trkpt lat="46.14699" lon="5.60315">
        <ele>534.4</ele>
        <time>2020-05-24T08:09:31Z</time>
      </trkpt>
      <trkpt lat="46.14698" lon="5.60315">
        <ele>534.6</ele>
        <time>2020-05-24T08:09:33Z</time>
      </trkpt>
      <trkpt lat="46.14697" lon="5.60316">
        <ele>534.8</ele>
        <time>2020-05-24T08:09:34Z</time>
      </trkpt>
      <trkpt lat="46.14695" lon="5.60317">
        <ele>535.1</ele>
        <time>2020-05-24T08:09:36Z</time>
      </trkpt>
      <trkpt lat="46.14693" lon="5.60318">
        <ele>535.5</ele>
        <time>2020-05-24T08:09:37Z</time>
      </trkpt>
      <trkpt lat="46.14692" lon="5.60318">
        <ele>535.6</ele>
        <time>2020-05-24T08:09:39Z</time>
      </trkpt>
      <trkpt lat="46.14692" lon="5.60318">
        <ele>535.6</ele>
        <time>2020-05-24T08:09:40Z</time>
      </trkpt>
      <trkpt lat="46.14691" lon="5.60319">
        <ele>535.7</ele>
        <time>2020-05-24T08:09:41Z</time>
      </trkpt>
      <trkpt lat="46.1469" lon="5.60319">
        <ele>535.9</ele>
        <time>2020-05-24T08:09:42Z</time>
      </trkpt>
      <trkpt lat="46.14689" lon="5.6032">
        <ele>536.1</ele>
        <time>2020-05-24T08:09:44Z</time>
      </trkpt>
      <trkpt lat="46.14686" lon="5.60322">
        <ele>536.6</ele>
        <time>2020-05-24T08:09:45Z</time>
      </trkpt>
      <trkpt lat="46.14685" lon="5.60323">
        <ele>536.8</ele>
        <time>2020-05-24T08:09:47Z</time>
      </trkpt>
      <trkpt lat="46.14683" lon="5.60324">
        <ele>537</ele>
        <time>2020-05-24T08:09:48Z</time>
      </trkpt>
      <trkpt lat="46.14682" lon="5.60325">
        <ele>537.2</ele>
        <time>2020-05-24T08:09:49Z</time>
      </trkpt>
      <trkpt lat="46.14681" lon="5.60326">
        <ele>537.4</ele>
        <time>2020-05-24T08:09:51Z</time>
      </trkpt>
      <trkpt lat="46.1468" lon="5.60326">
        <ele>537.5</ele>
        <time>2020-05-24T08:09:53Z</time>
      </trkpt>
      <trkpt lat="46.14679" lon="5.60327">
        <ele>537.6</ele>
        <time>2020-05-24T08:09:54Z</time>
      </trkpt>
      <trkpt lat="46.14678" lon="5.60328">
        <ele>537.8</ele>
        <time>2020-05-24T08:09:55Z</time>
      </trkpt>
      <trkpt lat="46.14677" lon="5.6033">
        <ele>538.1</ele>
        <time>2020-05-24T08:09:57Z</time>
      </trkpt>
      <trkpt lat="46.14676" lon="5.6033">
        <ele>538.2</ele>
        <time>2020-05-24T08:09:58Z</time>
      </trkpt>
      <trkpt lat="46.14675" lon="5.60331">
        <ele>538.3</ele>
        <time>2020-05-24T08:09:59Z</time>
      </trkpt>
      <trkpt lat="46.14674" lon="5.60332">
        <ele>538.5</ele>
        <time>2020-05-24T08:10:01Z</time>
      </trkpt>
      <trkpt lat="46.14674" lon="5.60332">
        <ele>538.6</ele>
        <time>2020-05-24T08:10:03Z</time>
      </trkpt>
      <trkpt lat="46.14674" lon="5.60333">
        <ele>538.6</ele>
        <time>2020-05-24T08:10:04Z</time>
      </trkpt>
      <trkpt lat="46.14673" lon="5.60334">
        <ele>538.7</ele>
        <time>2020-05-24T08:10:06Z</time>
      </trkpt>
      <trkpt lat="46.14672" lon="5.60335">
        <ele>538.9</ele>
        <time>2020-05-24T08:10:07Z</time>
      </trkpt>
      <trkpt lat="46.14671" lon="5.60336">
        <ele>539</ele>
        <time>2020-05-24T08:10:08Z</time>
      </trkpt>
      <trkpt lat="46.1467" lon="5.60337">
        <ele>539.3</ele>
        <time>2020-05-24T08:10:10Z</time>
      </trkpt>
      <trkpt lat="46.14669" lon="5.60338">
        <ele>539.4</ele>
        <time>2020-05-24T08:10:11Z</time>
      </trkpt>
      <trkpt lat="46.14668" lon="5.60339">
        <ele>539.6</ele>
        <time>2020-05-24T08:10:12Z</time>
      </trkpt>
      <trkpt lat="46.14667" lon="5.60341">
        <ele>539.8</ele>
        <time>2020-05-24T08:10:13Z</time>
      </trkpt>
      <trkpt lat="46.14666" lon="5.60342">
        <ele>540</ele>
        <time>2020-05-24T08:10:15Z</time>
      </trkpt>
      <trkpt lat="46.14665" lon="5.60343">
        <ele>540.2</ele>
        <time>2020-05-24T08:10:16Z</time>
      </trkpt>
      <trkpt lat="46.14663" lon="5.60344">
        <ele>540.4</ele>
        <time>2020-05-24T08:10:17Z</time>
      </trkpt>
      <trkpt lat="46.14662" lon="5.60346">
        <ele>540.6</ele>
        <time>2020-05-24T08:10:18Z</time>
      </trkpt>
      <trkpt lat="46.14661" lon="5.60347">
        <ele>540.8</ele>
        <time>2020-05-24T08:10:20Z</time>
      </trkpt>
      <trkpt lat="46.1466" lon="5.60348">
        <ele>541</ele>
        <time>2020-05-24T08:10:21Z</time>
      </trkpt>
      <trkpt lat="46.14658" lon="5.6035">
        <ele>541.2</ele>
        <time>2020-05-24T08:10:22Z</time>
      </trkpt>
      <trkpt lat="46.14657" lon="5.60351">
        <ele>541.4</ele>
        <time>2020-05-24T08:10:23Z</time>
      </trkpt>
      <trkpt lat="46.14655" lon="5.60355">
        <ele>541.8</ele>
        <time>2020-05-24T08:10:25Z</time>
      </trkpt>
      <trkpt lat="46.14654" lon="5.60357">
        <ele>542.2</ele>
        <time>2020-05-24T08:10:26Z</time>
      </trkpt>
      <trkpt lat="46.14653" lon="5.60358">
        <ele>542.3</ele>
        <time>2020-05-24T08:10:27Z</time>
      </trkpt>
      <trkpt lat="46.14653" lon="5.60359">
        <ele>542.4</ele>
        <time>2020-05-24T08:10:28Z</time>
      </trkpt>
      <trkpt lat="46.14652" lon="5.6036">
        <ele>542.6</ele>
        <time>2020-05-24T08:10:29Z</time>
      </trkpt>
      <trkpt lat="46.14651" lon="5.60361">
        <ele>542.8</ele>
        <time>2020-05-24T08:10:30Z</time>
      </trkpt>
      <trkpt lat="46.14649" lon="5.60363">
        <ele>543.1</ele>
        <time>2020-05-24T08:10:32Z</time>
      </trkpt>
      <trkpt lat="46.14647" lon="5.60366">
        <ele>543.6</ele>
        <time>2020-05-24T08:10:33Z</time>
      </trkpt>
      <trkpt lat="46.14645" lon="5.60367">
        <ele>543.8</ele>
        <time>2020-05-24T08:10:35Z</time>
      </trkpt>
      <trkpt lat="46.14644" lon="5.60368">
        <ele>544</ele>
        <time>2020-05-24T08:10:36Z</time>
      </trkpt>
      <trkpt lat="46.14643" lon="5.6037">
        <ele>544.2</ele>
        <time>2020-05-24T08:10:37Z</time>
      </trkpt>
      <trkpt lat="46.14641" lon="5.60371">
        <ele>544.5</ele>
        <time>2020-05-24T08:10:38Z</time>
      </trkpt>
      <trkpt lat="46.1464" lon="5.60372">
        <ele>544.7</ele>
        <time>2020-05-24T08:10:40Z</time>
      </trkpt>
      <trkpt lat="46.14639" lon="5.60373">
        <ele>544.9</ele>
        <time>2020-05-24T08:10:41Z</time>
      </trkpt>
      <trkpt lat="46.14638" lon="5.60375">
        <ele>545.1</ele>
        <time>2020-05-24T08:10:42Z</time>
      </trkpt>
      <trkpt lat="46.14637" lon="5.60376">
        <ele>545.2</ele>
        <time>2020-05-24T08:10:43Z</time>
      </trkpt>
      <trkpt lat="46.14636" lon="5.60377">
        <ele>545.5</ele>
        <time>2020-05-24T08:10:45Z</time>
      </trkpt>
      <trkpt lat="46.14635" lon="5.60379">
        <ele>545.7</ele>
        <time>2020-05-24T08:10:46Z</time>
      </trkpt>
      <trkpt lat="46.14634" lon="5.60381">
        <ele>545.9</ele>
        <time>2020-05-24T08:10:47Z</time>
      </trkpt>
      <trkpt lat="46.14632" lon="5.60384">
        <ele>546.4</ele>
        <time>2020-05-24T08:10:48Z</time>
      </trkpt>
      <trkpt lat="46.14631" lon="5.60386">
        <ele>546.6</ele>
        <time>2020-05-24T08:10:50Z</time>
      </trkpt>
      <trkpt lat="46.1463" lon="5.60387">
        <ele>546.8</ele>
        <time>2020-05-24T08:10:51Z</time>
      </trkpt>
      <trkpt lat="46.1463" lon="5.60388">
        <ele>546.9</ele>
        <time>2020-05-24T08:10:52Z</time>
      </trkpt>
      <trkpt lat="46.14628" lon="5.60391">
        <ele>547.2</ele>
        <time>2020-05-24T08:10:53Z</time>
      </trkpt>
      <trkpt lat="46.14628" lon="5.60392">
        <ele>547.4</ele>
        <time>2020-05-24T08:10:55Z</time>
      </trkpt>
      <trkpt lat="46.14627" lon="5.60394">
        <ele>547.5</ele>
        <time>2020-05-24T08:10:56Z</time>
      </trkpt>
      <trkpt lat="46.14626" lon="5.60395">
        <ele>547.7</ele>
        <time>2020-05-24T08:10:57Z</time>
      </trkpt>
      <trkpt lat="46.14625" lon="5.60397">
        <ele>548</ele>
        <time>2020-05-24T08:10:58Z</time>
      </trkpt>
      <trkpt lat="46.14622" lon="5.604">
        <ele>548.6</ele>
        <time>2020-05-24T08:11:00Z</time>
      </trkpt>
      <trkpt lat="46.14621" lon="5.60401">
        <ele>548.7</ele>
        <time>2020-05-24T08:11:01Z</time>
      </trkpt>
      <trkpt lat="46.1462" lon="5.60402">
        <ele>548.8</ele>
        <time>2020-05-24T08:11:02Z</time>
      </trkpt>
      <trkpt lat="46.1462" lon="5.60403">
        <ele>549</ele>
        <time>2020-05-24T08:11:03Z</time>
      </trkpt>
      <trkpt lat="46.14619" lon="5.60405">
        <ele>549.2</ele>
        <time>2020-05-24T08:11:04Z</time>
      </trkpt>
      <trkpt lat="46.14617" lon="5.60406">
        <ele>549.4</ele>
        <time>2020-05-24T08:11:06Z</time>
      </trkpt>
      <trkpt lat="46.14615" lon="5.60408">
        <ele>549.7</ele>
        <time>2020-05-24T08:11:07Z</time>
      </trkpt>
      <trkpt lat="46.14614" lon="5.60409">
        <ele>550</ele>
        <time>2020-05-24T08:11:09Z</time>
      </trkpt>
      <trkpt lat="46.14613" lon="5.60411">
        <ele>550.1</ele>
        <time>2020-05-24T08:11:10Z</time>
      </trkpt>
      <trkpt lat="46.14611" lon="5.60413">
        <ele>550.5</ele>
        <time>2020-05-24T08:11:12Z</time>
      </trkpt>
      <trkpt lat="46.1461" lon="5.60415">
        <ele>550.7</ele>
        <time>2020-05-24T08:11:14Z</time>
      </trkpt>
      <trkpt lat="46.14609" lon="5.60417">
        <ele>550.9</ele>
        <time>2020-05-24T08:11:15Z</time>
      </trkpt>
      <trkpt lat="46.14608" lon="5.60419">
        <ele>551.1</ele>
        <time>2020-05-24T08:11:17Z</time>
      </trkpt>
      <trkpt lat="46.14607" lon="5.6042">
        <ele>551.3</ele>
        <time>2020-05-24T08:11:18Z</time>
      </trkpt>
      <trkpt lat="46.14606" lon="5.60422">
        <ele>551.6</ele>
        <time>2020-05-24T08:11:19Z</time>
      </trkpt>
      <trkpt lat="46.14604" lon="5.60424">
        <ele>551.8</ele>
        <time>2020-05-24T08:11:21Z</time>
      </trkpt>
      <trkpt lat="46.14604" lon="5.60426">
        <ele>552</ele>
        <time>2020-05-24T08:11:22Z</time>
      </trkpt>
      <trkpt lat="46.14602" lon="5.60429">
        <ele>552.5</ele>
        <time>2020-05-24T08:11:24Z</time>
      </trkpt>
      <trkpt lat="46.14601" lon="5.6043">
        <ele>552.6</ele>
        <time>2020-05-24T08:11:25Z</time>
      </trkpt>
      <trkpt lat="46.146" lon="5.60432">
        <ele>552.9</ele>
        <time>2020-05-24T08:11:26Z</time>
      </trkpt>
      <trkpt lat="46.14598" lon="5.60434">
        <ele>553.2</ele>
        <time>2020-05-24T08:11:28Z</time>
      </trkpt>
      <trkpt lat="46.14597" lon="5.60436">
        <ele>553.5</ele>
        <time>2020-05-24T08:11:29Z</time>
      </trkpt>
      <trkpt lat="46.14595" lon="5.60437">
        <ele>553.7</ele>
        <time>2020-05-24T08:11:31Z</time>
      </trkpt>
      <trkpt lat="46.14594" lon="5.60438">
        <ele>553.9</ele>
        <time>2020-05-24T08:11:32Z</time>
      </trkpt>
      <trkpt lat="46.14593" lon="5.60439">
        <ele>554.1</ele>
        <time>2020-05-24T08:11:33Z</time>
      </trkpt>
      <trkpt lat="46.14592" lon="5.60439">
        <ele>554.3</ele>
        <time>2020-05-24T08:11:34Z</time>
      </trkpt>
      <trkpt lat="46.1459" lon="5.60442">
        <ele>554.7</ele>
        <time>2020-05-24T08:11:35Z</time>
      </trkpt>
      <trkpt lat="46.14589" lon="5.60443">
        <ele>554.9</ele>
        <time>2020-05-24T08:11:37Z</time>
      </trkpt>
      <trkpt lat="46.14588" lon="5.60444">
        <ele>555.1</ele>
        <time>2020-05-24T08:11:39Z</time>
      </trkpt>
      <trkpt lat="46.14587" lon="5.60446">
        <ele>555.3</ele>
        <time>2020-05-24T08:11:40Z</time>
      </trkpt>
      <trkpt lat="46.14586" lon="5.60447">
        <ele>555.5</ele>
        <time>2020-05-24T08:11:41Z</time>
      </trkpt>
      <trkpt lat="46.14586" lon="5.60448">
        <ele>555.6</ele>
        <time>2020-05-24T08:11:42Z</time>
      </trkpt>
      <trkpt lat="46.14584" lon="5.60449">
        <ele>555.9</ele>
        <time>2020-05-24T08:11:44Z</time>
      </trkpt>
      <trkpt lat="46.14583" lon="5.60451">
        <ele>556.1</ele>
        <time>2020-05-24T08:11:45Z</time>
      </trkpt>
      <trkpt lat="46.14583" lon="5.60452">
        <ele>556.2</ele>
        <time>2020-05-24T08:11:46Z</time>
      </trkpt>
      <trkpt lat="46.14581" lon="5.60453">
        <ele>556.5</ele>
        <time>2020-05-24T08:11:48Z</time>
      </trkpt>
      <trkpt lat="46.14581" lon="5.60454">
        <ele>556.7</ele>
        <time>2020-05-24T08:11:49Z</time>
      </trkpt>
      <trkpt lat="46.14579" lon="5.60455">
        <ele>556.8</ele>
        <time>2020-05-24T08:11:50Z</time>
      </trkpt>
      <trkpt lat="46.14579" lon="5.60456">
        <ele>557</ele>
        <time>2020-05-24T08:11:51Z</time>
      </trkpt>
      <trkpt lat="46.14577" lon="5.60458">
        <ele>557.2</ele>
        <time>2020-05-24T08:11:53Z</time>
      </trkpt>
      <trkpt lat="46.14576" lon="5.60459">
        <ele>557.4</ele>
        <time>2020-05-24T08:11:54Z</time>
      </trkpt>
      <trkpt lat="46.14575" lon="5.6046">
        <ele>557.7</ele>
        <time>2020-05-24T08:11:56Z</time>
      </trkpt>
      <trkpt lat="46.14575" lon="5.60461">
        <ele>557.8</ele>
        <time>2020-05-24T08:11:57Z</time>
      </trkpt>
      <trkpt lat="46.14573" lon="5.60463">
        <ele>558</ele>
        <time>2020-05-24T08:11:59Z</time>
      </trkpt>
      <trkpt lat="46.14573" lon="5.60465">
        <ele>558.2</ele>
        <time>2020-05-24T08:12:01Z</time>
      </trkpt>
      <trkpt lat="46.14572" lon="5.60466">
        <ele>558.4</ele>
        <time>2020-05-24T08:12:02Z</time>
      </trkpt>
      <trkpt lat="46.14571" lon="5.60467">
        <ele>558.5</ele>
        <time>2020-05-24T08:12:03Z</time>
      </trkpt>
      <trkpt lat="46.1457" lon="5.60467">
        <ele>558.6</ele>
        <time>2020-05-24T08:12:04Z</time>
      </trkpt>
      <trkpt lat="46.14569" lon="5.60468">
        <ele>558.8</ele>
        <time>2020-05-24T08:12:05Z</time>
      </trkpt>
      <trkpt lat="46.14568" lon="5.60469">
        <ele>559</ele>
        <time>2020-05-24T08:12:07Z</time>
      </trkpt>
      <trkpt lat="46.14566" lon="5.60471">
        <ele>559.2</ele>
        <time>2020-05-24T08:12:08Z</time>
      </trkpt>
      <trkpt lat="46.14565" lon="5.60472">
        <ele>559.4</ele>
        <time>2020-05-24T08:12:09Z</time>
      </trkpt>
      <trkpt lat="46.14565" lon="5.60473">
        <ele>559.5</ele>
        <time>2020-05-24T08:12:10Z</time>
      </trkpt>
      <trkpt lat="46.14563" lon="5.60474">
        <ele>559.7</ele>
        <time>2020-05-24T08:12:11Z</time>
      </trkpt>
      <trkpt lat="46.14562" lon="5.60475">
        <ele>559.9</ele>
        <time>2020-05-24T08:12:13Z</time>
      </trkpt>
      <trkpt lat="46.14561" lon="5.60477">
        <ele>560.1</ele>
        <time>2020-05-24T08:12:14Z</time>
      </trkpt>
      <trkpt lat="46.1456" lon="5.60478">
        <ele>560.2</ele>
        <time>2020-05-24T08:12:15Z</time>
      </trkpt>
      <trkpt lat="46.1456" lon="5.60479">
        <ele>560.4</ele>
        <time>2020-05-24T08:12:16Z</time>
      </trkpt>
      <trkpt lat="46.14558" lon="5.60481">
        <ele>560.7</ele>
        <time>2020-05-24T08:12:18Z</time>
      </trkpt>
      <trkpt lat="46.14557" lon="5.60482">
        <ele>560.8</ele>
        <time>2020-05-24T08:12:19Z</time>
      </trkpt>
      <trkpt lat="46.14557" lon="5.60483">
        <ele>560.9</ele>
        <time>2020-05-24T08:12:20Z</time>
      </trkpt>
      <trkpt lat="46.14556" lon="5.60483">
        <ele>561</ele>
        <time>2020-05-24T08:12:21Z</time>
      </trkpt>
      <trkpt lat="46.14554" lon="5.60484">
        <ele>561.3</ele>
        <time>2020-05-24T08:12:23Z</time>
      </trkpt>
      <trkpt lat="46.14553" lon="5.60485">
        <ele>561.4</ele>
        <time>2020-05-24T08:12:25Z</time>
      </trkpt>
      <trkpt lat="46.14551" lon="5.60485">
        <ele>561.8</ele>
        <time>2020-05-24T08:12:27Z</time>
      </trkpt>
      <trkpt lat="46.14549" lon="5.60487">
        <ele>562.1</ele>
        <time>2020-05-24T08:12:29Z</time>
      </trkpt>
      <trkpt lat="46.14549" lon="5.60487">
        <ele>562.2</ele>
        <time>2020-05-24T08:12:30Z</time>
      </trkpt>
      <trkpt lat="46.14547" lon="5.60488">
        <ele>562.5</ele>
        <time>2020-05-24T08:12:32Z</time>
      </trkpt>
      <trkpt lat="46.14546" lon="5.60489">
        <ele>562.7</ele>
        <time>2020-05-24T08:12:33Z</time>
      </trkpt>
      <trkpt lat="46.14544" lon="5.60489">
        <ele>563</ele>
        <time>2020-05-24T08:12:35Z</time>
      </trkpt>
      <trkpt lat="46.14544" lon="5.6049">
        <ele>563.1</ele>
        <time>2020-05-24T08:12:36Z</time>
      </trkpt>
      <trkpt lat="46.14542" lon="5.6049">
        <ele>563.4</ele>
        <time>2020-05-24T08:12:38Z</time>
      </trkpt>
      <trkpt lat="46.1454" lon="5.60492">
        <ele>563.7</ele>
        <time>2020-05-24T08:12:40Z</time>
      </trkpt>
      <trkpt lat="46.14538" lon="5.60493">
        <ele>564.1</ele>
        <time>2020-05-24T08:12:41Z</time>
      </trkpt>
      <trkpt lat="46.14538" lon="5.60494">
        <ele>564.2</ele>
        <time>2020-05-24T08:12:43Z</time>
      </trkpt>
      <trkpt lat="46.14537" lon="5.60495">
        <ele>564.3</ele>
        <time>2020-05-24T08:12:44Z</time>
      </trkpt>
      <trkpt lat="46.14536" lon="5.60496">
        <ele>564.6</ele>
        <time>2020-05-24T08:12:45Z</time>
      </trkpt>
      <trkpt lat="46.14532" lon="5.60497">
        <ele>565.1</ele>
        <time>2020-05-24T08:12:47Z</time>
      </trkpt>
      <trkpt lat="46.14531" lon="5.60498">
        <ele>565.3</ele>
        <time>2020-05-24T08:12:48Z</time>
      </trkpt>
      <trkpt lat="46.1453" lon="5.60499">
        <ele>565.6</ele>
        <time>2020-05-24T08:12:49Z</time>
      </trkpt>
      <trkpt lat="46.14529" lon="5.60501">
        <ele>565.8</ele>
        <time>2020-05-24T08:12:50Z</time>
      </trkpt>
      <trkpt lat="46.14527" lon="5.60503">
        <ele>566.2</ele>
        <time>2020-05-24T08:12:52Z</time>
      </trkpt>
      <trkpt lat="46.14525" lon="5.60506">
        <ele>566.5</ele>
        <time>2020-05-24T08:12:53Z</time>
      </trkpt>
      <trkpt lat="46.14523" lon="5.60509">
        <ele>566.9</ele>
        <time>2020-05-24T08:12:55Z</time>
      </trkpt>
      <trkpt lat="46.14521" lon="5.60511">
        <ele>567.2</ele>
        <time>2020-05-24T08:12:56Z</time>
      </trkpt>
      <trkpt lat="46.14518" lon="5.60515">
        <ele>567.7</ele>
        <time>2020-05-24T08:12:59Z</time>
      </trkpt>
      <trkpt lat="46.14517" lon="5.60517">
        <ele>567.9</ele>
        <time>2020-05-24T08:13:01Z</time>
      </trkpt>
      <trkpt lat="46.14515" lon="5.60518">
        <ele>568.1</ele>
        <time>2020-05-24T08:13:02Z</time>
      </trkpt>
      <trkpt lat="46.14514" lon="5.6052">
        <ele>568.3</ele>
        <time>2020-05-24T08:13:03Z</time>
      </trkpt>
      <trkpt lat="46.14513" lon="5.60521">
        <ele>568.4</ele>
        <time>2020-05-24T08:13:04Z</time>
      </trkpt>
      <trkpt lat="46.14512" lon="5.60522">
        <ele>568.6</ele>
        <time>2020-05-24T08:13:05Z</time>
      </trkpt>
      <trkpt lat="46.14512" lon="5.60523">
        <ele>568.7</ele>
        <time>2020-05-24T08:13:07Z</time>
      </trkpt>
      <trkpt lat="46.14511" lon="5.60524">
        <ele>568.8</ele>
        <time>2020-05-24T08:13:08Z</time>
      </trkpt>
      <trkpt lat="46.1451" lon="5.60527">
        <ele>569.1</ele>
        <time>2020-05-24T08:13:09Z</time>
      </trkpt>
      <trkpt lat="46.14509" lon="5.60529">
        <ele>569.3</ele>
        <time>2020-05-24T08:13:11Z</time>
      </trkpt>
      <trkpt lat="46.14509" lon="5.6053">
        <ele>569.4</ele>
        <time>2020-05-24T08:13:12Z</time>
      </trkpt>
      <trkpt lat="46.14508" lon="5.60532">
        <ele>569.6</ele>
        <time>2020-05-24T08:13:13Z</time>
      </trkpt>
      <trkpt lat="46.14508" lon="5.60533">
        <ele>569.8</ele>
        <time>2020-05-24T08:13:14Z</time>
      </trkpt>
      <trkpt lat="46.14506" lon="5.60537">
        <ele>570.2</ele>
        <time>2020-05-24T08:13:16Z</time>
      </trkpt>
      <trkpt lat="46.14506" lon="5.60539">
        <ele>570.4</ele>
        <time>2020-05-24T08:13:17Z</time>
      </trkpt>
      <trkpt lat="46.14505" lon="5.60542">
        <ele>570.6</ele>
        <time>2020-05-24T08:13:19Z</time>
      </trkpt>
      <trkpt lat="46.14505" lon="5.60544">
        <ele>570.9</ele>
        <time>2020-05-24T08:13:21Z</time>
      </trkpt>
      <trkpt lat="46.14505" lon="5.60546">
        <ele>571</ele>
        <time>2020-05-24T08:13:22Z</time>
      </trkpt>
      <trkpt lat="46.14505" lon="5.60548">
        <ele>571.2</ele>
        <time>2020-05-24T08:13:23Z</time>
      </trkpt>
      <trkpt lat="46.14505" lon="5.60549">
        <ele>571.3</ele>
        <time>2020-05-24T08:13:24Z</time>
      </trkpt>
      <trkpt lat="46.14505" lon="5.60551">
        <ele>571.6</ele>
        <time>2020-05-24T08:13:26Z</time>
      </trkpt>
      <trkpt lat="46.14505" lon="5.60555">
        <ele>571.9</ele>
        <time>2020-05-24T08:13:28Z</time>
      </trkpt>
      <trkpt lat="46.14505" lon="5.60559">
        <ele>572.2</ele>
        <time>2020-05-24T08:13:30Z</time>
      </trkpt>
      <trkpt lat="46.14505" lon="5.60561">
        <ele>572.4</ele>
        <time>2020-05-24T08:13:31Z</time>
      </trkpt>
      <trkpt lat="46.14505" lon="5.60562">
        <ele>572.6</ele>
        <time>2020-05-24T08:13:32Z</time>
      </trkpt>
      <trkpt lat="46.14505" lon="5.60565">
        <ele>572.8</ele>
        <time>2020-05-24T08:13:34Z</time>
      </trkpt>
      <trkpt lat="46.14504" lon="5.60567">
        <ele>572.9</ele>
        <time>2020-05-24T08:13:35Z</time>
      </trkpt>
      <trkpt lat="46.14504" lon="5.60569">
        <ele>573.1</ele>
        <time>2020-05-24T08:13:36Z</time>
      </trkpt>
      <trkpt lat="46.14504" lon="5.6057">
        <ele>573.3</ele>
        <time>2020-05-24T08:13:37Z</time>
      </trkpt>
      <trkpt lat="46.14504" lon="5.60573">
        <ele>573.5</ele>
        <time>2020-05-24T08:13:39Z</time>
      </trkpt>
      <trkpt lat="46.14503" lon="5.60575">
        <ele>573.7</ele>
        <time>2020-05-24T08:13:40Z</time>
      </trkpt>
      <trkpt lat="46.14503" lon="5.60578">
        <ele>574.2</ele>
        <time>2020-05-24T08:13:42Z</time>
      </trkpt>
      <trkpt lat="46.14502" lon="5.6058">
        <ele>574.3</ele>
        <time>2020-05-24T08:13:43Z</time>
      </trkpt>
      <trkpt lat="46.14502" lon="5.60583">
        <ele>574.6</ele>
        <time>2020-05-24T08:13:45Z</time>
      </trkpt>
      <trkpt lat="46.14501" lon="5.60584">
        <ele>574.8</ele>
        <time>2020-05-24T08:13:46Z</time>
      </trkpt>
      <trkpt lat="46.14501" lon="5.60585">
        <ele>574.8</ele>
        <time>2020-05-24T08:13:47Z</time>
      </trkpt>
      <trkpt lat="46.14501" lon="5.60586">
        <ele>574.9</ele>
        <time>2020-05-24T08:13:48Z</time>
      </trkpt>
      <trkpt lat="46.14501" lon="5.60587">
        <ele>575.1</ele>
        <time>2020-05-24T08:13:49Z</time>
      </trkpt>
      <trkpt lat="46.145" lon="5.60589">
        <ele>575.2</ele>
        <time>2020-05-24T08:13:50Z</time>
      </trkpt>
      <trkpt lat="46.14499" lon="5.60591">
        <ele>575.4</ele>
        <time>2020-05-24T08:13:52Z</time>
      </trkpt>
      <trkpt lat="46.14498" lon="5.60594">
        <ele>575.8</ele>
        <time>2020-05-24T08:13:53Z</time>
      </trkpt>
      <trkpt lat="46.14496" lon="5.60595">
        <ele>576</ele>
        <time>2020-05-24T08:13:55Z</time>
      </trkpt>
      <trkpt lat="46.14495" lon="5.60596">
        <ele>576.1</ele>
        <time>2020-05-24T08:13:56Z</time>
      </trkpt>
      <trkpt lat="46.14494" lon="5.60596">
        <ele>576.3</ele>
        <time>2020-05-24T08:13:58Z</time>
      </trkpt>
      <trkpt lat="46.14492" lon="5.60597">
        <ele>576.5</ele>
        <time>2020-05-24T08:13:59Z</time>
      </trkpt>
      <trkpt lat="46.1449" lon="5.60599">
        <ele>576.9</ele>
        <time>2020-05-24T08:14:01Z</time>
      </trkpt>
      <trkpt lat="46.14488" lon="5.60601">
        <ele>577.1</ele>
        <time>2020-05-24T08:14:02Z</time>
      </trkpt>
      <trkpt lat="46.14487" lon="5.60603">
        <ele>577.3</ele>
        <time>2020-05-24T08:14:03Z</time>
      </trkpt>
      <trkpt lat="46.14484" lon="5.60606">
        <ele>577.7</ele>
        <time>2020-05-24T08:14:05Z</time>
      </trkpt>
      <trkpt lat="46.14483" lon="5.60607">
        <ele>577.9</ele>
        <time>2020-05-24T08:14:06Z</time>
      </trkpt>
      <trkpt lat="46.14482" lon="5.60609">
        <ele>578.1</ele>
        <time>2020-05-24T08:14:08Z</time>
      </trkpt>
      <trkpt lat="46.14481" lon="5.6061">
        <ele>578.3</ele>
        <time>2020-05-24T08:14:09Z</time>
      </trkpt>
      <trkpt lat="46.14479" lon="5.60613">
        <ele>578.6</ele>
        <time>2020-05-24T08:14:11Z</time>
      </trkpt>
      <trkpt lat="46.14477" lon="5.60615">
        <ele>578.8</ele>
        <time>2020-05-24T08:14:12Z</time>
      </trkpt>
      <trkpt lat="46.14476" lon="5.60617">
        <ele>579</ele>
        <time>2020-05-24T08:14:14Z</time>
      </trkpt>
      <trkpt lat="46.14476" lon="5.60619">
        <ele>579.1</ele>
        <time>2020-05-24T08:14:15Z</time>
      </trkpt>
      <trkpt lat="46.14475" lon="5.6062">
        <ele>579.2</ele>
        <time>2020-05-24T08:14:16Z</time>
      </trkpt>
      <trkpt lat="46.14474" lon="5.60621">
        <ele>579.4</ele>
        <time>2020-05-24T08:14:17Z</time>
      </trkpt>
      <trkpt lat="46.14473" lon="5.60624">
        <ele>579.6</ele>
        <time>2020-05-24T08:14:18Z</time>
      </trkpt>
      <trkpt lat="46.14472" lon="5.60626">
        <ele>579.8</ele>
        <time>2020-05-24T08:14:20Z</time>
      </trkpt>
      <trkpt lat="46.14471" lon="5.60628">
        <ele>579.9</ele>
        <time>2020-05-24T08:14:21Z</time>
      </trkpt>
      <trkpt lat="46.1447" lon="5.60629">
        <ele>580.1</ele>
        <time>2020-05-24T08:14:22Z</time>
      </trkpt>
      <trkpt lat="46.14469" lon="5.60632">
        <ele>580.3</ele>
        <time>2020-05-24T08:14:24Z</time>
      </trkpt>
      <trkpt lat="46.14468" lon="5.60635">
        <ele>580.6</ele>
        <time>2020-05-24T08:14:26Z</time>
      </trkpt>
      <trkpt lat="46.14468" lon="5.60637">
        <ele>580.7</ele>
        <time>2020-05-24T08:14:27Z</time>
      </trkpt>
      <trkpt lat="46.14466" lon="5.60642">
        <ele>581.1</ele>
        <time>2020-05-24T08:14:29Z</time>
      </trkpt>
      <trkpt lat="46.14465" lon="5.60644">
        <ele>581.3</ele>
        <time>2020-05-24T08:14:31Z</time>
      </trkpt>
      <trkpt lat="46.14464" lon="5.60646">
        <ele>581.5</ele>
        <time>2020-05-24T08:14:32Z</time>
      </trkpt>
      <trkpt lat="46.14463" lon="5.60648">
        <ele>581.7</ele>
        <time>2020-05-24T08:14:33Z</time>
      </trkpt>
      <trkpt lat="46.14463" lon="5.60651">
        <ele>581.8</ele>
        <time>2020-05-24T08:14:35Z</time>
      </trkpt>
      <trkpt lat="46.14462" lon="5.60653">
        <ele>582</ele>
        <time>2020-05-24T08:14:36Z</time>
      </trkpt>
      <trkpt lat="46.14461" lon="5.60656">
        <ele>582.3</ele>
        <time>2020-05-24T08:14:38Z</time>
      </trkpt>
      <trkpt lat="46.14459" lon="5.6066">
        <ele>582.6</ele>
        <time>2020-05-24T08:14:39Z</time>
      </trkpt>
      <trkpt lat="46.14459" lon="5.60661">
        <ele>582.7</ele>
        <time>2020-05-24T08:14:40Z</time>
      </trkpt>
      <trkpt lat="46.14458" lon="5.60662">
        <ele>582.8</ele>
        <time>2020-05-24T08:14:42Z</time>
      </trkpt>
      <trkpt lat="46.14457" lon="5.60663">
        <ele>582.9</ele>
        <time>2020-05-24T08:14:43Z</time>
      </trkpt>
      <trkpt lat="46.14456" lon="5.60664">
        <ele>583.1</ele>
        <time>2020-05-24T08:14:45Z</time>
      </trkpt>
      <trkpt lat="46.14456" lon="5.60665">
        <ele>583.2</ele>
        <time>2020-05-24T08:14:46Z</time>
      </trkpt>
      <trkpt lat="46.14454" lon="5.60668">
        <ele>583.4</ele>
        <time>2020-05-24T08:14:48Z</time>
      </trkpt>
      <trkpt lat="46.14452" lon="5.6067">
        <ele>583.7</ele>
        <time>2020-05-24T08:14:50Z</time>
      </trkpt>
      <trkpt lat="46.14451" lon="5.60671">
        <ele>583.8</ele>
        <time>2020-05-24T08:14:52Z</time>
      </trkpt>
      <trkpt lat="46.14449" lon="5.60673">
        <ele>584.1</ele>
        <time>2020-05-24T08:14:53Z</time>
      </trkpt>
      <trkpt lat="46.14448" lon="5.60674">
        <ele>584.2</ele>
        <time>2020-05-24T08:14:54Z</time>
      </trkpt>
      <trkpt lat="46.14447" lon="5.60676">
        <ele>584.4</ele>
        <time>2020-05-24T08:14:56Z</time>
      </trkpt>
      <trkpt lat="46.14446" lon="5.60677">
        <ele>584.5</ele>
        <time>2020-05-24T08:14:57Z</time>
      </trkpt>
      <trkpt lat="46.14445" lon="5.60678">
        <ele>584.6</ele>
        <time>2020-05-24T08:14:58Z</time>
      </trkpt>
      <trkpt lat="46.14444" lon="5.60678">
        <ele>584.7</ele>
        <time>2020-05-24T08:14:59Z</time>
      </trkpt>
      <trkpt lat="46.14442" lon="5.6068">
        <ele>584.9</ele>
        <time>2020-05-24T08:15:01Z</time>
      </trkpt>
      <trkpt lat="46.1444" lon="5.60682">
        <ele>585.2</ele>
        <time>2020-05-24T08:15:02Z</time>
      </trkpt>
      <trkpt lat="46.14439" lon="5.60682">
        <ele>585.3</ele>
        <time>2020-05-24T08:15:03Z</time>
      </trkpt>
      <trkpt lat="46.14436" lon="5.60685">
        <ele>585.6</ele>
        <time>2020-05-24T08:15:05Z</time>
      </trkpt>
      <trkpt lat="46.14435" lon="5.60686">
        <ele>585.7</ele>
        <time>2020-05-24T08:15:06Z</time>
      </trkpt>
      <trkpt lat="46.14434" lon="5.60688">
        <ele>585.8</ele>
        <time>2020-05-24T08:15:07Z</time>
      </trkpt>
      <trkpt lat="46.14433" lon="5.60689">
        <ele>585.9</ele>
        <time>2020-05-24T08:15:09Z</time>
      </trkpt>
      <trkpt lat="46.14432" lon="5.6069">
        <ele>586</ele>
        <time>2020-05-24T08:15:10Z</time>
      </trkpt>
      <trkpt lat="46.14432" lon="5.60691">
        <ele>586.1</ele>
        <time>2020-05-24T08:15:11Z</time>
      </trkpt>
      <trkpt lat="46.14431" lon="5.60692">
        <ele>586.2</ele>
        <time>2020-05-24T08:15:12Z</time>
      </trkpt>
      <trkpt lat="46.1443" lon="5.60693">
        <ele>586.3</ele>
        <time>2020-05-24T08:15:13Z</time>
      </trkpt>
      <trkpt lat="46.14429" lon="5.60694">
        <ele>586.4</ele>
        <time>2020-05-24T08:15:15Z</time>
      </trkpt>
      <trkpt lat="46.14428" lon="5.60696">
        <ele>586.6</ele>
        <time>2020-05-24T08:15:16Z</time>
      </trkpt>
      <trkpt lat="46.14426" lon="5.60698">
        <ele>586.7</ele>
        <time>2020-05-24T08:15:18Z</time>
      </trkpt>
      <trkpt lat="46.14425" lon="5.60699">
        <ele>586.9</ele>
        <time>2020-05-24T08:15:20Z</time>
      </trkpt>
      <trkpt lat="46.14424" lon="5.60701">
        <ele>587</ele>
        <time>2020-05-24T08:15:21Z</time>
      </trkpt>
      <trkpt lat="46.14423" lon="5.60702">
        <ele>587.1</ele>
        <time>2020-05-24T08:15:22Z</time>
      </trkpt>
      <trkpt lat="46.14422" lon="5.60703">
        <ele>587.2</ele>
        <time>2020-05-24T08:15:24Z</time>
      </trkpt>
      <trkpt lat="46.14421" lon="5.60704">
        <ele>587.3</ele>
        <time>2020-05-24T08:15:25Z</time>
      </trkpt>
      <trkpt lat="46.1442" lon="5.60705">
        <ele>587.4</ele>
        <time>2020-05-24T08:15:26Z</time>
      </trkpt>
      <trkpt lat="46.14418" lon="5.60706">
        <ele>587.6</ele>
        <time>2020-05-24T08:15:27Z</time>
      </trkpt>
      <trkpt lat="46.14415" lon="5.60709">
        <ele>587.9</ele>
        <time>2020-05-24T08:15:29Z</time>
      </trkpt>
      <trkpt lat="46.14414" lon="5.60711">
        <ele>588.1</ele>
        <time>2020-05-24T08:15:30Z</time>
      </trkpt>
      <trkpt lat="46.14413" lon="5.60711">
        <ele>588.2</ele>
        <time>2020-05-24T08:15:32Z</time>
      </trkpt>
      <trkpt lat="46.14412" lon="5.60712">
        <ele>588.3</ele>
        <time>2020-05-24T08:15:33Z</time>
      </trkpt>
      <trkpt lat="46.14412" lon="5.60713">
        <ele>588.3</ele>
        <time>2020-05-24T08:15:34Z</time>
      </trkpt>
      <trkpt lat="46.14411" lon="5.60714">
        <ele>588.5</ele>
        <time>2020-05-24T08:15:35Z</time>
      </trkpt>
      <trkpt lat="46.1441" lon="5.60715">
        <ele>588.6</ele>
        <time>2020-05-24T08:15:36Z</time>
      </trkpt>
      <trkpt lat="46.14409" lon="5.60715">
        <ele>588.7</ele>
        <time>2020-05-24T08:15:38Z</time>
      </trkpt>
      <trkpt lat="46.14408" lon="5.60716">
        <ele>588.8</ele>
        <time>2020-05-24T08:15:39Z</time>
      </trkpt>
      <trkpt lat="46.14406" lon="5.60717">
        <ele>589</ele>
        <time>2020-05-24T08:15:40Z</time>
      </trkpt>
      <trkpt lat="46.14405" lon="5.60718">
        <ele>589.1</ele>
        <time>2020-05-24T08:15:42Z</time>
      </trkpt>
      <trkpt lat="46.14405" lon="5.60719">
        <ele>589.2</ele>
        <time>2020-05-24T08:15:43Z</time>
      </trkpt>
      <trkpt lat="46.14404" lon="5.6072">
        <ele>589.2</ele>
        <time>2020-05-24T08:15:45Z</time>
      </trkpt>
      <trkpt lat="46.14404" lon="5.60721">
        <ele>589.3</ele>
        <time>2020-05-24T08:15:46Z</time>
      </trkpt>
      <trkpt lat="46.14403" lon="5.60721">
        <ele>589.4</ele>
        <time>2020-05-24T08:15:47Z</time>
      </trkpt>
      <trkpt lat="46.14402" lon="5.60722">
        <ele>589.5</ele>
        <time>2020-05-24T08:15:48Z</time>
      </trkpt>
      <trkpt lat="46.14401" lon="5.60723">
        <ele>589.6</ele>
        <time>2020-05-24T08:15:50Z</time>
      </trkpt>
      <trkpt lat="46.144" lon="5.60724">
        <ele>589.8</ele>
        <time>2020-05-24T08:15:51Z</time>
      </trkpt>
      <trkpt lat="46.14398" lon="5.60725">
        <ele>589.9</ele>
        <time>2020-05-24T08:15:53Z</time>
      </trkpt>
      <trkpt lat="46.14397" lon="5.60725">
        <ele>590</ele>
        <time>2020-05-24T08:15:54Z</time>
      </trkpt>
      <trkpt lat="46.14397" lon="5.60726">
        <ele>590.1</ele>
        <time>2020-05-24T08:15:55Z</time>
      </trkpt>
      <trkpt lat="46.14397" lon="5.60727">
        <ele>590.1</ele>
        <time>2020-05-24T08:15:56Z</time>
      </trkpt>
      <trkpt lat="46.14396" lon="5.60728">
        <ele>590.2</ele>
        <time>2020-05-24T08:15:58Z</time>
      </trkpt>
      <trkpt lat="46.14395" lon="5.6073">
        <ele>590.4</ele>
        <time>2020-05-24T08:15:59Z</time>
      </trkpt>
      <trkpt lat="46.14394" lon="5.60731">
        <ele>590.5</ele>
        <time>2020-05-24T08:16:01Z</time>
      </trkpt>
      <trkpt lat="46.14393" lon="5.60732">
        <ele>590.6</ele>
        <time>2020-05-24T08:16:02Z</time>
      </trkpt>
      <trkpt lat="46.14391" lon="5.60735">
        <ele>590.9</ele>
        <time>2020-05-24T08:16:04Z</time>
      </trkpt>
      <trkpt lat="46.14391" lon="5.60736">
        <ele>590.9</ele>
        <time>2020-05-24T08:16:05Z</time>
      </trkpt>
      <trkpt lat="46.1439" lon="5.60737">
        <ele>591</ele>
        <time>2020-05-24T08:16:07Z</time>
      </trkpt>
      <trkpt lat="46.1439" lon="5.60737">
        <ele>591</ele>
        <time>2020-05-24T08:16:08Z</time>
      </trkpt>
      <trkpt lat="46.14389" lon="5.60738">
        <ele>591.1</ele>
        <time>2020-05-24T08:16:09Z</time>
      </trkpt>
      <trkpt lat="46.14389" lon="5.60738">
        <ele>591.2</ele>
        <time>2020-05-24T08:16:10Z</time>
      </trkpt>
      <trkpt lat="46.14388" lon="5.60739">
        <ele>591.3</ele>
        <time>2020-05-24T08:16:12Z</time>
      </trkpt>
      <trkpt lat="46.14386" lon="5.6074">
        <ele>591.5</ele>
        <time>2020-05-24T08:16:13Z</time>
      </trkpt>
      <trkpt lat="46.14385" lon="5.60741">
        <ele>591.6</ele>
        <time>2020-05-24T08:16:14Z</time>
      </trkpt>
      <trkpt lat="46.14382" lon="5.60743">
        <ele>591.8</ele>
        <time>2020-05-24T08:16:16Z</time>
      </trkpt>
      <trkpt lat="46.1438" lon="5.60743">
        <ele>592</ele>
        <time>2020-05-24T08:16:17Z</time>
      </trkpt>
      <trkpt lat="46.14378" lon="5.60745">
        <ele>592.2</ele>
        <time>2020-05-24T08:16:19Z</time>
      </trkpt>
      <trkpt lat="46.14376" lon="5.60746">
        <ele>592.4</ele>
        <time>2020-05-24T08:16:20Z</time>
      </trkpt>
      <trkpt lat="46.14375" lon="5.60747">
        <ele>592.5</ele>
        <time>2020-05-24T08:16:21Z</time>
      </trkpt>
      <trkpt lat="46.14372" lon="5.6075">
        <ele>592.9</ele>
        <time>2020-05-24T08:16:23Z</time>
      </trkpt>
      <trkpt lat="46.14371" lon="5.6075">
        <ele>592.9</ele>
        <time>2020-05-24T08:16:24Z</time>
      </trkpt>
      <trkpt lat="46.1437" lon="5.60751">
        <ele>593.1</ele>
        <time>2020-05-24T08:16:25Z</time>
      </trkpt>
      <trkpt lat="46.14365" lon="5.60755">
        <ele>593.6</ele>
        <time>2020-05-24T08:16:28Z</time>
      </trkpt>
      <trkpt lat="46.14364" lon="5.60755">
        <ele>593.7</ele>
        <time>2020-05-24T08:16:29Z</time>
      </trkpt>
      <trkpt lat="46.14362" lon="5.60756">
        <ele>593.9</ele>
        <time>2020-05-24T08:16:30Z</time>
      </trkpt>
      <trkpt lat="46.14361" lon="5.60757">
        <ele>594</ele>
        <time>2020-05-24T08:16:31Z</time>
      </trkpt>
      <trkpt lat="46.1436" lon="5.60758">
        <ele>594.2</ele>
        <time>2020-05-24T08:16:32Z</time>
      </trkpt>
      <trkpt lat="46.14357" lon="5.6076">
        <ele>594.5</ele>
        <time>2020-05-24T08:16:34Z</time>
      </trkpt>
      <trkpt lat="46.14357" lon="5.60761">
        <ele>594.6</ele>
        <time>2020-05-24T08:16:35Z</time>
      </trkpt>
      <trkpt lat="46.14354" lon="5.60763">
        <ele>595</ele>
        <time>2020-05-24T08:16:37Z</time>
      </trkpt>
      <trkpt lat="46.14353" lon="5.60764">
        <ele>595.1</ele>
        <time>2020-05-24T08:16:38Z</time>
      </trkpt>
      <trkpt lat="46.14351" lon="5.60766">
        <ele>595.4</ele>
        <time>2020-05-24T08:16:39Z</time>
      </trkpt>
      <trkpt lat="46.1435" lon="5.60766">
        <ele>595.7</ele>
        <time>2020-05-24T08:16:41Z</time>
      </trkpt>
      <trkpt lat="46.14348" lon="5.60768">
        <ele>596</ele>
        <time>2020-05-24T08:16:42Z</time>
      </trkpt>
      <trkpt lat="46.14346" lon="5.60769">
        <ele>596.2</ele>
        <time>2020-05-24T08:16:44Z</time>
      </trkpt>
      <trkpt lat="46.14345" lon="5.6077">
        <ele>596.4</ele>
        <time>2020-05-24T08:16:45Z</time>
      </trkpt>
      <trkpt lat="46.14344" lon="5.60771">
        <ele>596.6</ele>
        <time>2020-05-24T08:16:46Z</time>
      </trkpt>
      <trkpt lat="46.14342" lon="5.60772">
        <ele>596.9</ele>
        <time>2020-05-24T08:16:48Z</time>
      </trkpt>
      <trkpt lat="46.14341" lon="5.60774">
        <ele>597.1</ele>
        <time>2020-05-24T08:16:50Z</time>
      </trkpt>
      <trkpt lat="46.14339" lon="5.60777">
        <ele>597.6</ele>
        <time>2020-05-24T08:16:51Z</time>
      </trkpt>
      <trkpt lat="46.14338" lon="5.60777">
        <ele>597.7</ele>
        <time>2020-05-24T08:16:52Z</time>
      </trkpt>
      <trkpt lat="46.14337" lon="5.60778">
        <ele>597.9</ele>
        <time>2020-05-24T08:16:53Z</time>
      </trkpt>
      <trkpt lat="46.14336" lon="5.6078">
        <ele>598.2</ele>
        <time>2020-05-24T08:16:55Z</time>
      </trkpt>
      <trkpt lat="46.14336" lon="5.60782">
        <ele>598.4</ele>
        <time>2020-05-24T08:16:56Z</time>
      </trkpt>
      <trkpt lat="46.14335" lon="5.60783">
        <ele>598.6</ele>
        <time>2020-05-24T08:16:57Z</time>
      </trkpt>
      <trkpt lat="46.14334" lon="5.60785">
        <ele>598.8</ele>
        <time>2020-05-24T08:16:58Z</time>
      </trkpt>
      <trkpt lat="46.14333" lon="5.60787">
        <ele>599.2</ele>
        <time>2020-05-24T08:16:59Z</time>
      </trkpt>
      <trkpt lat="46.14332" lon="5.60788">
        <ele>599.3</ele>
        <time>2020-05-24T08:17:00Z</time>
      </trkpt>
      <trkpt lat="46.14331" lon="5.60791">
        <ele>599.7</ele>
        <time>2020-05-24T08:17:02Z</time>
      </trkpt>
      <trkpt lat="46.14328" lon="5.60795">
        <ele>600.3</ele>
        <time>2020-05-24T08:17:04Z</time>
      </trkpt>
      <trkpt lat="46.14327" lon="5.60797">
        <ele>600.6</ele>
        <time>2020-05-24T08:17:06Z</time>
      </trkpt>
      <trkpt lat="46.14326" lon="5.60798">
        <ele>600.8</ele>
        <time>2020-05-24T08:17:07Z</time>
      </trkpt>
      <trkpt lat="46.14325" lon="5.608">
        <ele>601.2</ele>
        <time>2020-05-24T08:17:08Z</time>
      </trkpt>
      <trkpt lat="46.14324" lon="5.60801">
        <ele>601.4</ele>
        <time>2020-05-24T08:17:09Z</time>
      </trkpt>
      <trkpt lat="46.14322" lon="5.60804">
        <ele>601.8</ele>
        <time>2020-05-24T08:17:11Z</time>
      </trkpt>
      <trkpt lat="46.14321" lon="5.60806">
        <ele>602.1</ele>
        <time>2020-05-24T08:17:13Z</time>
      </trkpt>
      <trkpt lat="46.1432" lon="5.60809">
        <ele>602.4</ele>
        <time>2020-05-24T08:17:15Z</time>
      </trkpt>
      <trkpt lat="46.14319" lon="5.60809">
        <ele>602.6</ele>
        <time>2020-05-24T08:17:16Z</time>
      </trkpt>
      <trkpt lat="46.14319" lon="5.60809">
        <ele>602.7</ele>
        <time>2020-05-24T08:17:17Z</time>
      </trkpt>
      <trkpt lat="46.14318" lon="5.60809">
        <ele>602.9</ele>
        <time>2020-05-24T08:17:19Z</time>
      </trkpt>
      <trkpt lat="46.14317" lon="5.60809">
        <ele>603</ele>
        <time>2020-05-24T08:17:21Z</time>
      </trkpt>
      <trkpt lat="46.14317" lon="5.6081">
        <ele>603.2</ele>
        <time>2020-05-24T08:17:22Z</time>
      </trkpt>
      <trkpt lat="46.14317" lon="5.60812">
        <ele>603.4</ele>
        <time>2020-05-24T08:17:24Z</time>
      </trkpt>
      <trkpt lat="46.14316" lon="5.60813">
        <ele>603.7</ele>
        <time>2020-05-24T08:17:26Z</time>
      </trkpt>
      <trkpt lat="46.14316" lon="5.60814">
        <ele>603.8</ele>
        <time>2020-05-24T08:17:28Z</time>
      </trkpt>
      <trkpt lat="46.14316" lon="5.60814">
        <ele>603.9</ele>
        <time>2020-05-24T08:17:29Z</time>
      </trkpt>
      <trkpt lat="46.14316" lon="5.60815">
        <ele>604</ele>
        <time>2020-05-24T08:17:30Z</time>
      </trkpt>
      <trkpt lat="46.14316" lon="5.60815">
        <ele>604.1</ele>
        <time>2020-05-24T08:17:31Z</time>
      </trkpt>
      <trkpt lat="46.14316" lon="5.60816">
        <ele>604.3</ele>
        <time>2020-05-24T08:17:33Z</time>
      </trkpt>
      <trkpt lat="46.14316" lon="5.60817">
        <ele>604.3</ele>
        <time>2020-05-24T08:17:34Z</time>
      </trkpt>
      <trkpt lat="46.14316" lon="5.60817">
        <ele>604.5</ele>
        <time>2020-05-24T08:17:36Z</time>
      </trkpt>
      <trkpt lat="46.14315" lon="5.60816">
        <ele>604.6</ele>
        <time>2020-05-24T08:17:39Z</time>
      </trkpt>
      <trkpt lat="46.14315" lon="5.60817">
        <ele>604.7</ele>
        <time>2020-05-24T08:17:40Z</time>
      </trkpt>
      <trkpt lat="46.14315" lon="5.60818">
        <ele>604.9</ele>
        <time>2020-05-24T08:17:41Z</time>
      </trkpt>
      <trkpt lat="46.14314" lon="5.60819">
        <ele>605.1</ele>
        <time>2020-05-24T08:17:43Z</time>
      </trkpt>
      <trkpt lat="46.14314" lon="5.60819">
        <ele>605.3</ele>
        <time>2020-05-24T08:17:44Z</time>
      </trkpt>
      <trkpt lat="46.14313" lon="5.60819">
        <ele>605.4</ele>
        <time>2020-05-24T08:17:45Z</time>
      </trkpt>
      <trkpt lat="46.14312" lon="5.60818">
        <ele>605.7</ele>
        <time>2020-05-24T08:17:46Z</time>
      </trkpt>
      <trkpt lat="46.14312" lon="5.60818">
        <ele>605.7</ele>
        <time>2020-05-24T08:17:47Z</time>
      </trkpt>
      <trkpt lat="46.14312" lon="5.60817">
        <ele>605.9</ele>
        <time>2020-05-24T08:17:49Z</time>
      </trkpt>
      <trkpt lat="46.14312" lon="5.60816">
        <ele>606</ele>
        <time>2020-05-24T08:17:50Z</time>
      </trkpt>
      <trkpt lat="46.14311" lon="5.60816">
        <ele>606.2</ele>
        <time>2020-05-24T08:17:51Z</time>
      </trkpt>
      <trkpt lat="46.14311" lon="5.60816">
        <ele>606.2</ele>
        <time>2020-05-24T08:17:52Z</time>
      </trkpt>
      <trkpt lat="46.14312" lon="5.60816">
        <ele>606.3</ele>
        <time>2020-05-24T08:17:54Z</time>
      </trkpt>
      <trkpt lat="46.14312" lon="5.60817">
        <ele>606.4</ele>
        <time>2020-05-24T08:17:56Z</time>
      </trkpt>
      <trkpt lat="46.14312" lon="5.60817">
        <ele>606.5</ele>
        <time>2020-05-24T08:17:57Z</time>
      </trkpt>
      <trkpt lat="46.14311" lon="5.6082">
        <ele>607</ele>
        <time>2020-05-24T08:18:28Z</time>
      </trkpt>
      <trkpt lat="46.14311" lon="5.6082">
        <ele>607.2</ele>
        <time>2020-05-24T08:18:29Z</time>
      </trkpt>
      <trkpt lat="46.14312" lon="5.6082">
        <ele>607.3</ele>
        <time>2020-05-24T08:18:30Z</time>
      </trkpt>
      <trkpt lat="46.14312" lon="5.60819">
        <ele>607.4</ele>
        <time>2020-05-24T08:18:32Z</time>
      </trkpt>
      <trkpt lat="46.14312" lon="5.60819">
        <ele>607.5</ele>
        <time>2020-05-24T08:18:33Z</time>
      </trkpt>
      <trkpt lat="46.14312" lon="5.60819">
        <ele>607.5</ele>
        <time>2020-05-24T08:18:35Z</time>
      </trkpt>
      <trkpt lat="46.14312" lon="5.60819">
        <ele>607.6</ele>
        <time>2020-05-24T08:18:36Z</time>
      </trkpt>
      <trkpt lat="46.14312" lon="5.60819">
        <ele>607.7</ele>
        <time>2020-05-24T08:18:38Z</time>
      </trkpt>
      <trkpt lat="46.14312" lon="5.60819">
        <ele>607.8</ele>
        <time>2020-05-24T08:18:40Z</time>
      </trkpt>
      <trkpt lat="46.14312" lon="5.60819">
        <ele>607.8</ele>
        <time>2020-05-24T08:18:41Z</time>
      </trkpt>
      <trkpt lat="46.14312" lon="5.60819">
        <ele>607.9</ele>
        <time>2020-05-24T08:18:42Z</time>
      </trkpt>
      <trkpt lat="46.14313" lon="5.60819">
        <ele>608</ele>
        <time>2020-05-24T08:18:44Z</time>
      </trkpt>
      <trkpt lat="46.14313" lon="5.6082">
        <ele>608.1</ele>
        <time>2020-05-24T08:18:46Z</time>
      </trkpt>
      <trkpt lat="46.14313" lon="5.6082">
        <ele>608.2</ele>
        <time>2020-05-24T08:18:47Z</time>
      </trkpt>
      <trkpt lat="46.14314" lon="5.6082">
        <ele>608.4</ele>
        <time>2020-05-24T08:18:49Z</time>
      </trkpt>
      <trkpt lat="46.14314" lon="5.6082">
        <ele>608.5</ele>
        <time>2020-05-24T08:18:51Z</time>
      </trkpt>
      <trkpt lat="46.14314" lon="5.6082">
        <ele>608.5</ele>
        <time>2020-05-24T08:18:52Z</time>
      </trkpt>
      <trkpt lat="46.14314" lon="5.60821">
        <ele>608.7</ele>
        <time>2020-05-24T08:18:54Z</time>
      </trkpt>
      <trkpt lat="46.14314" lon="5.60821">
        <ele>608.7</ele>
        <time>2020-05-24T08:18:55Z</time>
      </trkpt>
      <trkpt lat="46.14315" lon="5.60822">
        <ele>608.9</ele>
        <time>2020-05-24T08:18:56Z</time>
      </trkpt>
      <trkpt lat="46.14315" lon="5.60822">
        <ele>608.9</ele>
        <time>2020-05-24T08:18:57Z</time>
      </trkpt>
      <trkpt lat="46.14315" lon="5.60823">
        <ele>609.1</ele>
        <time>2020-05-24T08:18:59Z</time>
      </trkpt>
      <trkpt lat="46.14316" lon="5.60823">
        <ele>609.2</ele>
        <time>2020-05-24T08:19:00Z</time>
      </trkpt>
      <trkpt lat="46.14316" lon="5.60824">
        <ele>609.3</ele>
        <time>2020-05-24T08:19:02Z</time>
      </trkpt>
      <trkpt lat="46.14318" lon="5.60825">
        <ele>609.7</ele>
        <time>2020-05-24T08:19:04Z</time>
      </trkpt>
      <trkpt lat="46.14318" lon="5.60825">
        <ele>609.8</ele>
        <time>2020-05-24T08:19:06Z</time>
      </trkpt>
      <trkpt lat="46.14318" lon="5.60825">
        <ele>609.9</ele>
        <time>2020-05-24T08:19:08Z</time>
      </trkpt>
      <trkpt lat="46.14318" lon="5.60825">
        <ele>609.9</ele>
        <time>2020-05-24T08:19:10Z</time>
      </trkpt>
      <trkpt lat="46.14318" lon="5.60825">
        <ele>610</ele>
        <time>2020-05-24T08:19:11Z</time>
      </trkpt>
      <trkpt lat="46.14317" lon="5.60825">
        <ele>610.2</ele>
        <time>2020-05-24T08:19:12Z</time>
      </trkpt>
      <trkpt lat="46.14316" lon="5.60825">
        <ele>610.3</ele>
        <time>2020-05-24T08:19:13Z</time>
      </trkpt>
      <trkpt lat="46.14316" lon="5.60825">
        <ele>610.4</ele>
        <time>2020-05-24T08:19:14Z</time>
      </trkpt>
      <trkpt lat="46.14316" lon="5.60825">
        <ele>610.5</ele>
        <time>2020-05-24T08:19:15Z</time>
      </trkpt>
      <trkpt lat="46.14316" lon="5.60824">
        <ele>610.6</ele>
        <time>2020-05-24T08:19:16Z</time>
      </trkpt>
      <trkpt lat="46.14316" lon="5.60824">
        <ele>610.6</ele>
        <time>2020-05-24T08:19:18Z</time>
      </trkpt>
      <trkpt lat="46.14315" lon="5.60822">
        <ele>610.9</ele>
        <time>2020-05-24T08:19:19Z</time>
      </trkpt>
      <trkpt lat="46.14315" lon="5.6082">
        <ele>611.1</ele>
        <time>2020-05-24T08:19:21Z</time>
      </trkpt>
      <trkpt lat="46.14316" lon="5.6082">
        <ele>611.3</ele>
        <time>2020-05-24T08:19:23Z</time>
      </trkpt>
      <trkpt lat="46.14316" lon="5.6082">
        <ele>611.3</ele>
        <time>2020-05-24T08:19:24Z</time>
      </trkpt>
      <trkpt lat="46.14317" lon="5.6082">
        <ele>611.5</ele>
        <time>2020-05-24T08:19:25Z</time>
      </trkpt>
      <trkpt lat="46.14316" lon="5.60821">
        <ele>611.7</ele>
        <time>2020-05-24T08:19:27Z</time>
      </trkpt>
      <trkpt lat="46.14316" lon="5.60822">
        <ele>611.9</ele>
        <time>2020-05-24T08:19:28Z</time>
      </trkpt>
      <trkpt lat="46.14315" lon="5.60823">
        <ele>612</ele>
        <time>2020-05-24T08:19:30Z</time>
      </trkpt>
      <trkpt lat="46.14316" lon="5.60822">
        <ele>612</ele>
        <time>2020-05-24T08:19:31Z</time>
      </trkpt>
      <trkpt lat="46.14316" lon="5.60822">
        <ele>612.1</ele>
        <time>2020-05-24T08:19:32Z</time>
      </trkpt>
      <trkpt lat="46.14316" lon="5.60822">
        <ele>612.1</ele>
        <time>2020-05-24T08:19:34Z</time>
      </trkpt>
      <trkpt lat="46.14316" lon="5.60822">
        <ele>612.1</ele>
        <time>2020-05-24T08:19:35Z</time>
      </trkpt>
      <trkpt lat="46.14316" lon="5.60822">
        <ele>612.1</ele>
        <time>2020-05-24T08:19:36Z</time>
      </trkpt>
      <trkpt lat="46.14316" lon="5.60822">
        <ele>612.1</ele>
        <time>2020-05-24T08:19:38Z</time>
      </trkpt>
      <trkpt lat="46.14316" lon="5.60821">
        <ele>612.3</ele>
        <time>2020-05-24T08:19:40Z</time>
      </trkpt>
      <trkpt lat="46.14316" lon="5.60821">
        <ele>612.3</ele>
        <time>2020-05-24T08:19:42Z</time>
      </trkpt>
      <trkpt lat="46.14317" lon="5.60821">
        <ele>612.3</ele>
        <time>2020-05-24T08:19:43Z</time>
      </trkpt>
      <trkpt lat="46.14316" lon="5.60821">
        <ele>612.3</ele>
        <time>2020-05-24T08:19:44Z</time>
      </trkpt>
      <trkpt lat="46.14317" lon="5.60821">
        <ele>612.4</ele>
        <time>2020-05-24T08:19:45Z</time>
      </trkpt>
      <trkpt lat="46.14316" lon="5.60821">
        <ele>612.4</ele>
        <time>2020-05-24T08:19:47Z</time>
      </trkpt>
      <trkpt lat="46.14316" lon="5.60821">
        <ele>612.4</ele>
        <time>2020-05-24T08:19:48Z</time>
      </trkpt>
      <trkpt lat="46.14316" lon="5.60821">
        <ele>612.4</ele>
        <time>2020-05-24T08:19:49Z</time>
      </trkpt>
      <trkpt lat="46.14316" lon="5.60821">
        <ele>612.4</ele>
        <time>2020-05-24T08:19:51Z</time>
      </trkpt>
      <trkpt lat="46.14316" lon="5.60822">
        <ele>612.4</ele>
        <time>2020-05-24T08:19:52Z</time>
      </trkpt>
      <trkpt lat="46.14316" lon="5.60821">
        <ele>612.5</ele>
        <time>2020-05-24T08:19:54Z</time>
      </trkpt>
      <trkpt lat="46.14316" lon="5.60821">
        <ele>612.5</ele>
        <time>2020-05-24T08:19:55Z</time>
      </trkpt>
      <trkpt lat="46.14315" lon="5.6082">
        <ele>612.6</ele>
        <time>2020-05-24T08:19:57Z</time>
      </trkpt>
      <trkpt lat="46.14315" lon="5.6082">
        <ele>612.7</ele>
        <time>2020-05-24T08:20:39Z</time>
      </trkpt>
      <trkpt lat="46.14315" lon="5.60821">
        <ele>612.8</ele>
        <time>2020-05-24T08:20:40Z</time>
      </trkpt>
      <trkpt lat="46.14315" lon="5.60821">
        <ele>612.8</ele>
        <time>2020-05-24T08:20:42Z</time>
      </trkpt>
      <trkpt lat="46.14315" lon="5.60822">
        <ele>612.9</ele>
        <time>2020-05-24T08:20:44Z</time>
      </trkpt>
      <trkpt lat="46.14315" lon="5.60821">
        <ele>612.9</ele>
        <time>2020-05-24T08:20:46Z</time>
      </trkpt>
      <trkpt lat="46.14314" lon="5.60821">
        <ele>613</ele>
        <time>2020-05-24T08:20:47Z</time>
      </trkpt>
      <trkpt lat="46.14313" lon="5.60821">
        <ele>613.2</ele>
        <time>2020-05-24T08:20:48Z</time>
      </trkpt>
      <trkpt lat="46.14314" lon="5.60821">
        <ele>613.2</ele>
        <time>2020-05-24T08:20:49Z</time>
      </trkpt>
      <trkpt lat="46.14315" lon="5.60821">
        <ele>613.3</ele>
        <time>2020-05-24T08:20:51Z</time>
      </trkpt>
      <trkpt lat="46.14315" lon="5.60821">
        <ele>613.4</ele>
        <time>2020-05-24T08:20:53Z</time>
      </trkpt>
      <trkpt lat="46.14315" lon="5.6082">
        <ele>613.6</ele>
        <time>2020-05-24T08:20:54Z</time>
      </trkpt>
      <trkpt lat="46.14314" lon="5.60819">
        <ele>613.6</ele>
        <time>2020-05-24T08:20:55Z</time>
      </trkpt>
      <trkpt lat="46.14314" lon="5.60819">
        <ele>613.6</ele>
        <time>2020-05-24T08:20:57Z</time>
      </trkpt>
      <trkpt lat="46.14314" lon="5.60819">
        <ele>613.7</ele>
        <time>2020-05-24T08:20:59Z</time>
      </trkpt>
      <trkpt lat="46.14309" lon="5.60819">
        <ele>614.3</ele>
        <time>2020-05-24T08:21:16Z</time>
      </trkpt>
      <trkpt lat="46.14308" lon="5.60819">
        <ele>614.4</ele>
        <time>2020-05-24T08:21:17Z</time>
      </trkpt>
      <trkpt lat="46.14308" lon="5.6082">
        <ele>614.4</ele>
        <time>2020-05-24T08:21:19Z</time>
      </trkpt>
      <trkpt lat="46.14308" lon="5.6082">
        <ele>614.4</ele>
        <time>2020-05-24T08:21:21Z</time>
      </trkpt>
      <trkpt lat="46.14308" lon="5.6082">
        <ele>614.4</ele>
        <time>2020-05-24T08:21:22Z</time>
      </trkpt>
      <trkpt lat="46.14308" lon="5.6082">
        <ele>614.5</ele>
        <time>2020-05-24T08:21:24Z</time>
      </trkpt>
      <trkpt lat="46.14308" lon="5.6082">
        <ele>614.5</ele>
        <time>2020-05-24T08:21:25Z</time>
      </trkpt>
      <trkpt lat="46.14308" lon="5.6082">
        <ele>614.6</ele>
        <time>2020-05-24T08:21:27Z</time>
      </trkpt>
      <trkpt lat="46.14311" lon="5.60822">
        <ele>614.9</ele>
        <time>2020-05-24T08:21:31Z</time>
      </trkpt>
      <trkpt lat="46.14312" lon="5.60821">
        <ele>615</ele>
        <time>2020-05-24T08:21:33Z</time>
      </trkpt>
      <trkpt lat="46.14312" lon="5.60821">
        <ele>615.1</ele>
        <time>2020-05-24T08:21:35Z</time>
      </trkpt>
      <trkpt lat="46.14312" lon="5.60821">
        <ele>615.1</ele>
        <time>2020-05-24T08:21:36Z</time>
      </trkpt>
      <trkpt lat="46.14313" lon="5.6082">
        <ele>615.2</ele>
        <time>2020-05-24T08:21:37Z</time>
      </trkpt>
      <trkpt lat="46.14313" lon="5.60818">
        <ele>615.3</ele>
        <time>2020-05-24T08:21:39Z</time>
      </trkpt>
      <trkpt lat="46.14313" lon="5.60818">
        <ele>615.3</ele>
        <time>2020-05-24T08:21:40Z</time>
      </trkpt>
      <trkpt lat="46.14313" lon="5.60818">
        <ele>615.3</ele>
        <time>2020-05-24T08:21:42Z</time>
      </trkpt>
      <trkpt lat="46.14313" lon="5.60818">
        <ele>615.3</ele>
        <time>2020-05-24T08:21:44Z</time>
      </trkpt>
      <trkpt lat="46.14314" lon="5.60819">
        <ele>615.5</ele>
        <time>2020-05-24T08:21:46Z</time>
      </trkpt>
      <trkpt lat="46.14315" lon="5.6082">
        <ele>615.6</ele>
        <time>2020-05-24T08:21:47Z</time>
      </trkpt>
      <trkpt lat="46.14315" lon="5.60821">
        <ele>615.7</ele>
        <time>2020-05-24T08:21:49Z</time>
      </trkpt>
      <trkpt lat="46.14315" lon="5.60821">
        <ele>615.7</ele>
        <time>2020-05-24T08:21:50Z</time>
      </trkpt>
      <trkpt lat="46.14314" lon="5.60822">
        <ele>615.8</ele>
        <time>2020-05-24T08:21:52Z</time>
      </trkpt>
      <trkpt lat="46.14314" lon="5.60822">
        <ele>615.8</ele>
        <time>2020-05-24T08:21:53Z</time>
      </trkpt>
      <trkpt lat="46.14314" lon="5.60822">
        <ele>615.9</ele>
        <time>2020-05-24T08:21:54Z</time>
      </trkpt>
      <trkpt lat="46.14314" lon="5.60822">
        <ele>615.9</ele>
        <time>2020-05-24T08:21:55Z</time>
      </trkpt>
      <trkpt lat="46.14313" lon="5.60823">
        <ele>616</ele>
        <time>2020-05-24T08:21:57Z</time>
      </trkpt>
      <trkpt lat="46.14312" lon="5.60823">
        <ele>616.1</ele>
        <time>2020-05-24T08:21:58Z</time>
      </trkpt>
      <trkpt lat="46.1431" lon="5.60825">
        <ele>616.3</ele>
        <time>2020-05-24T08:22:00Z</time>
      </trkpt>
      <trkpt lat="46.1431" lon="5.60825">
        <ele>616.4</ele>
        <time>2020-05-24T08:22:01Z</time>
      </trkpt>
      <trkpt lat="46.14308" lon="5.60824">
        <ele>616.5</ele>
        <time>2020-05-24T08:22:02Z</time>
      </trkpt>
      <trkpt lat="46.14307" lon="5.60824">
        <ele>616.7</ele>
        <time>2020-05-24T08:22:04Z</time>
      </trkpt>
      <trkpt lat="46.14306" lon="5.60823">
        <ele>616.8</ele>
        <time>2020-05-24T08:22:05Z</time>
      </trkpt>
      <trkpt lat="46.14305" lon="5.60821">
        <ele>617</ele>
        <time>2020-05-24T08:22:07Z</time>
      </trkpt>
      <trkpt lat="46.14304" lon="5.6082">
        <ele>617.2</ele>
        <time>2020-05-24T08:22:08Z</time>
      </trkpt>
      <trkpt lat="46.14303" lon="5.60815">
        <ele>617.6</ele>
        <time>2020-05-24T08:22:09Z</time>
      </trkpt>
      <trkpt lat="46.14302" lon="5.60814">
        <ele>617.7</ele>
        <time>2020-05-24T08:22:10Z</time>
      </trkpt>
      <trkpt lat="46.14302" lon="5.60808">
        <ele>618.2</ele>
        <time>2020-05-24T08:22:11Z</time>
      </trkpt>
      <trkpt lat="46.14302" lon="5.60804">
        <ele>618.5</ele>
        <time>2020-05-24T08:22:13Z</time>
      </trkpt>
      <trkpt lat="46.14302" lon="5.60803">
        <ele>618.6</ele>
        <time>2020-05-24T08:22:14Z</time>
      </trkpt>
      <trkpt lat="46.14302" lon="5.60801">
        <ele>618.7</ele>
        <time>2020-05-24T08:22:15Z</time>
      </trkpt>
      <trkpt lat="46.14302" lon="5.60798">
        <ele>618.9</ele>
        <time>2020-05-24T08:22:16Z</time>
      </trkpt>
      <trkpt lat="46.14302" lon="5.60794">
        <ele>619.2</ele>
        <time>2020-05-24T08:22:18Z</time>
      </trkpt>
      <trkpt lat="46.14302" lon="5.6079">
        <ele>619.5</ele>
        <time>2020-05-24T08:22:20Z</time>
      </trkpt>
      <trkpt lat="46.14302" lon="5.60787">
        <ele>619.7</ele>
        <time>2020-05-24T08:22:21Z</time>
      </trkpt>
      <trkpt lat="46.14303" lon="5.60781">
        <ele>620.2</ele>
        <time>2020-05-24T08:22:23Z</time>
      </trkpt>
      <trkpt lat="46.14303" lon="5.60779">
        <ele>620.3</ele>
        <time>2020-05-24T08:22:24Z</time>
      </trkpt>
      <trkpt lat="46.14303" lon="5.60776">
        <ele>620.6</ele>
        <time>2020-05-24T08:22:26Z</time>
      </trkpt>
      <trkpt lat="46.14303" lon="5.60775">
        <ele>620.7</ele>
        <time>2020-05-24T08:22:27Z</time>
      </trkpt>
      <trkpt lat="46.14302" lon="5.60772">
        <ele>620.9</ele>
        <time>2020-05-24T08:22:29Z</time>
      </trkpt>
      <trkpt lat="46.14302" lon="5.60769">
        <ele>621.1</ele>
        <time>2020-05-24T08:22:30Z</time>
      </trkpt>
      <trkpt lat="46.14302" lon="5.60767">
        <ele>621.3</ele>
        <time>2020-05-24T08:22:31Z</time>
      </trkpt>
      <trkpt lat="46.14302" lon="5.60765">
        <ele>621.5</ele>
        <time>2020-05-24T08:22:32Z</time>
      </trkpt>
      <trkpt lat="46.14301" lon="5.60762">
        <ele>621.7</ele>
        <time>2020-05-24T08:22:34Z</time>
      </trkpt>
      <trkpt lat="46.14302" lon="5.60758">
        <ele>622</ele>
        <time>2020-05-24T08:22:35Z</time>
      </trkpt>
      <trkpt lat="46.14302" lon="5.60757">
        <ele>622.1</ele>
        <time>2020-05-24T08:22:36Z</time>
      </trkpt>
      <trkpt lat="46.14303" lon="5.60753">
        <ele>622.4</ele>
        <time>2020-05-24T08:22:38Z</time>
      </trkpt>
      <trkpt lat="46.14304" lon="5.60751">
        <ele>622.6</ele>
        <time>2020-05-24T08:22:39Z</time>
      </trkpt>
      <trkpt lat="46.14304" lon="5.60749">
        <ele>622.8</ele>
        <time>2020-05-24T08:22:40Z</time>
      </trkpt>
      <trkpt lat="46.14305" lon="5.60748">
        <ele>622.9</ele>
        <time>2020-05-24T08:22:41Z</time>
      </trkpt>
      <trkpt lat="46.14306" lon="5.60747">
        <ele>623</ele>
        <time>2020-05-24T08:22:42Z</time>
      </trkpt>
      <trkpt lat="46.14307" lon="5.60746">
        <ele>623.2</ele>
        <time>2020-05-24T08:22:43Z</time>
      </trkpt>
      <trkpt lat="46.14309" lon="5.60741">
        <ele>623.7</ele>
        <time>2020-05-24T08:22:45Z</time>
      </trkpt>
      <trkpt lat="46.1431" lon="5.60739">
        <ele>623.9</ele>
        <time>2020-05-24T08:22:46Z</time>
      </trkpt>
      <trkpt lat="46.14311" lon="5.60738">
        <ele>624.1</ele>
        <time>2020-05-24T08:22:47Z</time>
      </trkpt>
      <trkpt lat="46.14313" lon="5.60737">
        <ele>624.2</ele>
        <time>2020-05-24T08:22:49Z</time>
      </trkpt>
      <trkpt lat="46.14314" lon="5.60736">
        <ele>624.5</ele>
        <time>2020-05-24T08:22:50Z</time>
      </trkpt>
      <trkpt lat="46.14316" lon="5.60735">
        <ele>624.7</ele>
        <time>2020-05-24T08:22:51Z</time>
      </trkpt>
      <trkpt lat="46.14319" lon="5.60733">
        <ele>625.1</ele>
        <time>2020-05-24T08:22:53Z</time>
      </trkpt>
      <trkpt lat="46.1432" lon="5.60732">
        <ele>625.3</ele>
        <time>2020-05-24T08:22:54Z</time>
      </trkpt>
      <trkpt lat="46.14321" lon="5.60731">
        <ele>625.5</ele>
        <time>2020-05-24T08:22:55Z</time>
      </trkpt>
      <trkpt lat="46.14324" lon="5.60729">
        <ele>625.8</ele>
        <time>2020-05-24T08:22:57Z</time>
      </trkpt>
      <trkpt lat="46.14327" lon="5.60727">
        <ele>626.3</ele>
        <time>2020-05-24T08:22:58Z</time>
      </trkpt>
      <trkpt lat="46.14329" lon="5.60726">
        <ele>626.6</ele>
        <time>2020-05-24T08:22:59Z</time>
      </trkpt>
      <trkpt lat="46.14332" lon="5.60724">
        <ele>626.9</ele>
        <time>2020-05-24T08:23:01Z</time>
      </trkpt>
      <trkpt lat="46.14333" lon="5.60723">
        <ele>627.1</ele>
        <time>2020-05-24T08:23:02Z</time>
      </trkpt>
      <trkpt lat="46.14335" lon="5.60722">
        <ele>627.3</ele>
        <time>2020-05-24T08:23:03Z</time>
      </trkpt>
      <trkpt lat="46.14336" lon="5.60721">
        <ele>627.5</ele>
        <time>2020-05-24T08:23:04Z</time>
      </trkpt>
      <trkpt lat="46.14337" lon="5.60719">
        <ele>627.7</ele>
        <time>2020-05-24T08:23:05Z</time>
      </trkpt>
      <trkpt lat="46.14339" lon="5.60717">
        <ele>628</ele>
        <time>2020-05-24T08:23:07Z</time>
      </trkpt>
      <trkpt lat="46.14341" lon="5.60715">
        <ele>628.3</ele>
        <time>2020-05-24T08:23:08Z</time>
      </trkpt>
      <trkpt lat="46.14344" lon="5.60711">
        <ele>628.7</ele>
        <time>2020-05-24T08:23:10Z</time>
      </trkpt>
      <trkpt lat="46.14347" lon="5.60709">
        <ele>629.1</ele>
        <time>2020-05-24T08:23:12Z</time>
      </trkpt>
      <trkpt lat="46.14348" lon="5.60708">
        <ele>629.2</ele>
        <time>2020-05-24T08:23:13Z</time>
      </trkpt>
      <trkpt lat="46.14349" lon="5.60706">
        <ele>629.3</ele>
        <time>2020-05-24T08:23:14Z</time>
      </trkpt>
      <trkpt lat="46.1435" lon="5.60704">
        <ele>629.6</ele>
        <time>2020-05-24T08:23:16Z</time>
      </trkpt>
      <trkpt lat="46.14351" lon="5.60702">
        <ele>629.8</ele>
        <time>2020-05-24T08:23:17Z</time>
      </trkpt>
      <trkpt lat="46.14352" lon="5.607">
        <ele>629.9</ele>
        <time>2020-05-24T08:23:18Z</time>
      </trkpt>
      <trkpt lat="46.14352" lon="5.60698">
        <ele>630.1</ele>
        <time>2020-05-24T08:23:20Z</time>
      </trkpt>
      <trkpt lat="46.14353" lon="5.60696">
        <ele>630.2</ele>
        <time>2020-05-24T08:23:21Z</time>
      </trkpt>
      <trkpt lat="46.14353" lon="5.60694">
        <ele>630.4</ele>
        <time>2020-05-24T08:23:22Z</time>
      </trkpt>
      <trkpt lat="46.14354" lon="5.60692">
        <ele>630.5</ele>
        <time>2020-05-24T08:23:24Z</time>
      </trkpt>
      <trkpt lat="46.14355" lon="5.60692">
        <ele>630.6</ele>
        <time>2020-05-24T08:23:25Z</time>
      </trkpt>
      <trkpt lat="46.14355" lon="5.6069">
        <ele>630.7</ele>
        <time>2020-05-24T08:23:26Z</time>
      </trkpt>
      <trkpt lat="46.14356" lon="5.60688">
        <ele>630.9</ele>
        <time>2020-05-24T08:23:28Z</time>
      </trkpt>
      <trkpt lat="46.14357" lon="5.60685">
        <ele>631.1</ele>
        <time>2020-05-24T08:23:29Z</time>
      </trkpt>
      <trkpt lat="46.14357" lon="5.60683">
        <ele>631.3</ele>
        <time>2020-05-24T08:23:31Z</time>
      </trkpt>
      <trkpt lat="46.14357" lon="5.60682">
        <ele>631.3</ele>
        <time>2020-05-24T08:23:32Z</time>
      </trkpt>
      <trkpt lat="46.14358" lon="5.60678">
        <ele>631.6</ele>
        <time>2020-05-24T08:23:34Z</time>
      </trkpt>
      <trkpt lat="46.14358" lon="5.60676">
        <ele>631.8</ele>
        <time>2020-05-24T08:23:35Z</time>
      </trkpt>
      <trkpt lat="46.14358" lon="5.60674">
        <ele>631.9</ele>
        <time>2020-05-24T08:23:36Z</time>
      </trkpt>
      <trkpt lat="46.14358" lon="5.60673">
        <ele>632</ele>
        <time>2020-05-24T08:23:37Z</time>
      </trkpt>
      <trkpt lat="46.14358" lon="5.6067">
        <ele>632.2</ele>
        <time>2020-05-24T08:23:39Z</time>
      </trkpt>
      <trkpt lat="46.14359" lon="5.60667">
        <ele>632.5</ele>
        <time>2020-05-24T08:23:41Z</time>
      </trkpt>
      <trkpt lat="46.14359" lon="5.60666">
        <ele>632.6</ele>
        <time>2020-05-24T08:23:42Z</time>
      </trkpt>
      <trkpt lat="46.1436" lon="5.60665">
        <ele>632.7</ele>
        <time>2020-05-24T08:23:43Z</time>
      </trkpt>
      <trkpt lat="46.1436" lon="5.60664">
        <ele>632.8</ele>
        <time>2020-05-24T08:23:44Z</time>
      </trkpt>
      <trkpt lat="46.14361" lon="5.60662">
        <ele>633</ele>
        <time>2020-05-24T08:23:46Z</time>
      </trkpt>
      <trkpt lat="46.14361" lon="5.60661">
        <ele>633</ele>
        <time>2020-05-24T08:23:47Z</time>
      </trkpt>
      <trkpt lat="46.14361" lon="5.60659">
        <ele>633.2</ele>
        <time>2020-05-24T08:23:48Z</time>
      </trkpt>
      <trkpt lat="46.14362" lon="5.60657">
        <ele>633.4</ele>
        <time>2020-05-24T08:23:49Z</time>
      </trkpt>
      <trkpt lat="46.14362" lon="5.60655">
        <ele>633.5</ele>
        <time>2020-05-24T08:23:51Z</time>
      </trkpt>
      <trkpt lat="46.14362" lon="5.60653">
        <ele>633.7</ele>
        <time>2020-05-24T08:23:52Z</time>
      </trkpt>
      <trkpt lat="46.14363" lon="5.60651">
        <ele>633.9</ele>
        <time>2020-05-24T08:23:53Z</time>
      </trkpt>
      <trkpt lat="46.14363" lon="5.6065">
        <ele>634</ele>
        <time>2020-05-24T08:23:54Z</time>
      </trkpt>
      <trkpt lat="46.14363" lon="5.60648">
        <ele>634.1</ele>
        <time>2020-05-24T08:23:56Z</time>
      </trkpt>
      <trkpt lat="46.14364" lon="5.60645">
        <ele>634.4</ele>
        <time>2020-05-24T08:23:57Z</time>
      </trkpt>
      <trkpt lat="46.14364" lon="5.60644">
        <ele>634.5</ele>
        <time>2020-05-24T08:23:58Z</time>
      </trkpt>
      <trkpt lat="46.14364" lon="5.60643">
        <ele>634.5</ele>
        <time>2020-05-24T08:23:59Z</time>
      </trkpt>
      <trkpt lat="46.14364" lon="5.60641">
        <ele>634.6</ele>
        <time>2020-05-24T08:24:00Z</time>
      </trkpt>
      <trkpt lat="46.14365" lon="5.60639">
        <ele>634.8</ele>
        <time>2020-05-24T08:24:02Z</time>
      </trkpt>
      <trkpt lat="46.14366" lon="5.60633">
        <ele>635.2</ele>
        <time>2020-05-24T08:24:04Z</time>
      </trkpt>
      <trkpt lat="46.14366" lon="5.60631">
        <ele>635.4</ele>
        <time>2020-05-24T08:24:06Z</time>
      </trkpt>
      <trkpt lat="46.14367" lon="5.60629">
        <ele>635.5</ele>
        <time>2020-05-24T08:24:07Z</time>
      </trkpt>
      <trkpt lat="46.14367" lon="5.60624">
        <ele>635.9</ele>
        <time>2020-05-24T08:24:09Z</time>
      </trkpt>
      <trkpt lat="46.14367" lon="5.60622">
        <ele>636</ele>
        <time>2020-05-24T08:24:11Z</time>
      </trkpt>
      <trkpt lat="46.14367" lon="5.60619">
        <ele>636.2</ele>
        <time>2020-05-24T08:24:12Z</time>
      </trkpt>
      <trkpt lat="46.14368" lon="5.60617">
        <ele>636.4</ele>
        <time>2020-05-24T08:24:14Z</time>
      </trkpt>
      <trkpt lat="46.14368" lon="5.60615">
        <ele>636.5</ele>
        <time>2020-05-24T08:24:15Z</time>
      </trkpt>
      <trkpt lat="46.14369" lon="5.60612">
        <ele>636.7</ele>
        <time>2020-05-24T08:24:17Z</time>
      </trkpt>
      <trkpt lat="46.14369" lon="5.60611">
        <ele>636.8</ele>
        <time>2020-05-24T08:24:18Z</time>
      </trkpt>
      <trkpt lat="46.1437" lon="5.60607">
        <ele>637.2</ele>
        <time>2020-05-24T08:24:20Z</time>
      </trkpt>
      <trkpt lat="46.1437" lon="5.60605">
        <ele>637.3</ele>
        <time>2020-05-24T08:24:21Z</time>
      </trkpt>
      <trkpt lat="46.14371" lon="5.60604">
        <ele>637.4</ele>
        <time>2020-05-24T08:24:23Z</time>
      </trkpt>
      <trkpt lat="46.14371" lon="5.60603">
        <ele>637.5</ele>
        <time>2020-05-24T08:24:24Z</time>
      </trkpt>
      <trkpt lat="46.1437" lon="5.60602">
        <ele>637.6</ele>
        <time>2020-05-24T08:24:25Z</time>
      </trkpt>
      <trkpt lat="46.1437" lon="5.60602">
        <ele>637.7</ele>
        <time>2020-05-24T08:24:27Z</time>
      </trkpt>
      <trkpt lat="46.14369" lon="5.60601">
        <ele>637.8</ele>
        <time>2020-05-24T08:24:29Z</time>
      </trkpt>
      <trkpt lat="46.14368" lon="5.60599">
        <ele>638</ele>
        <time>2020-05-24T08:24:30Z</time>
      </trkpt>
      <trkpt lat="46.14368" lon="5.60597">
        <ele>638.2</ele>
        <time>2020-05-24T08:24:33Z</time>
      </trkpt>
      <trkpt lat="46.14369" lon="5.60595">
        <ele>638.3</ele>
        <time>2020-05-24T08:24:35Z</time>
      </trkpt>
      <trkpt lat="46.14369" lon="5.60594">
        <ele>638.4</ele>
        <time>2020-05-24T08:24:36Z</time>
      </trkpt>
      <trkpt lat="46.14369" lon="5.60592">
        <ele>638.6</ele>
        <time>2020-05-24T08:24:37Z</time>
      </trkpt>
      <trkpt lat="46.14369" lon="5.6059">
        <ele>638.8</ele>
        <time>2020-05-24T08:24:39Z</time>
      </trkpt>
      <trkpt lat="46.14369" lon="5.60589">
        <ele>638.9</ele>
        <time>2020-05-24T08:24:40Z</time>
      </trkpt>
      <trkpt lat="46.1437" lon="5.60586">
        <ele>639.1</ele>
        <time>2020-05-24T08:24:42Z</time>
      </trkpt>
      <trkpt lat="46.1437" lon="5.60584">
        <ele>639.3</ele>
        <time>2020-05-24T08:24:43Z</time>
      </trkpt>
      <trkpt lat="46.14371" lon="5.60582">
        <ele>639.5</ele>
        <time>2020-05-24T08:24:44Z</time>
      </trkpt>
      <trkpt lat="46.14372" lon="5.60578">
        <ele>639.9</ele>
        <time>2020-05-24T08:24:46Z</time>
      </trkpt>
      <trkpt lat="46.14373" lon="5.60577">
        <ele>640.1</ele>
        <time>2020-05-24T08:24:47Z</time>
      </trkpt>
      <trkpt lat="46.14373" lon="5.60575">
        <ele>640.3</ele>
        <time>2020-05-24T08:24:48Z</time>
      </trkpt>
      <trkpt lat="46.14375" lon="5.60572">
        <ele>640.6</ele>
        <time>2020-05-24T08:24:49Z</time>
      </trkpt>
      <trkpt lat="46.14376" lon="5.60571">
        <ele>640.8</ele>
        <time>2020-05-24T08:24:51Z</time>
      </trkpt>
      <trkpt lat="46.14377" lon="5.6057">
        <ele>640.9</ele>
        <time>2020-05-24T08:24:52Z</time>
      </trkpt>
      <trkpt lat="46.14377" lon="5.60569">
        <ele>641.1</ele>
        <time>2020-05-24T08:24:53Z</time>
      </trkpt>
      <trkpt lat="46.14378" lon="5.60567">
        <ele>641.2</ele>
        <time>2020-05-24T08:24:54Z</time>
      </trkpt>
      <trkpt lat="46.14382" lon="5.60564">
        <ele>641.8</ele>
        <time>2020-05-24T08:24:57Z</time>
      </trkpt>
      <trkpt lat="46.14383" lon="5.60564">
        <ele>642</ele>
        <time>2020-05-24T08:24:59Z</time>
      </trkpt>
      <trkpt lat="46.14384" lon="5.60563">
        <ele>642.1</ele>
        <time>2020-05-24T08:25:00Z</time>
      </trkpt>
      <trkpt lat="46.14385" lon="5.60562">
        <ele>642.2</ele>
        <time>2020-05-24T08:25:01Z</time>
      </trkpt>
      <trkpt lat="46.14386" lon="5.60561">
        <ele>642.5</ele>
        <time>2020-05-24T08:25:02Z</time>
      </trkpt>
      <trkpt lat="46.14388" lon="5.60558">
        <ele>642.8</ele>
        <time>2020-05-24T08:25:04Z</time>
      </trkpt>
      <trkpt lat="46.14391" lon="5.60556">
        <ele>643.2</ele>
        <time>2020-05-24T08:25:06Z</time>
      </trkpt>
      <trkpt lat="46.14391" lon="5.60555">
        <ele>643.3</ele>
        <time>2020-05-24T08:25:07Z</time>
      </trkpt>
      <trkpt lat="46.14392" lon="5.60554">
        <ele>643.4</ele>
        <time>2020-05-24T08:25:08Z</time>
      </trkpt>
      <trkpt lat="46.14393" lon="5.60553">
        <ele>643.6</ele>
        <time>2020-05-24T08:25:10Z</time>
      </trkpt>
      <trkpt lat="46.14394" lon="5.60552">
        <ele>643.7</ele>
        <time>2020-05-24T08:25:11Z</time>
      </trkpt>
      <trkpt lat="46.14395" lon="5.60551">
        <ele>643.9</ele>
        <time>2020-05-24T08:25:12Z</time>
      </trkpt>
      <trkpt lat="46.14397" lon="5.60549">
        <ele>644.1</ele>
        <time>2020-05-24T08:25:13Z</time>
      </trkpt>
      <trkpt lat="46.14398" lon="5.60548">
        <ele>644.3</ele>
        <time>2020-05-24T08:25:14Z</time>
      </trkpt>
      <trkpt lat="46.144" lon="5.60546">
        <ele>644.6</ele>
        <time>2020-05-24T08:25:16Z</time>
      </trkpt>
      <trkpt lat="46.14401" lon="5.60544">
        <ele>644.8</ele>
        <time>2020-05-24T08:25:18Z</time>
      </trkpt>
      <trkpt lat="46.14402" lon="5.60543">
        <ele>645</ele>
        <time>2020-05-24T08:25:19Z</time>
      </trkpt>
      <trkpt lat="46.14402" lon="5.60541">
        <ele>645.1</ele>
        <time>2020-05-24T08:25:20Z</time>
      </trkpt>
      <trkpt lat="46.14403" lon="5.60537">
        <ele>645.4</ele>
        <time>2020-05-24T08:25:22Z</time>
      </trkpt>
      <trkpt lat="46.14403" lon="5.60535">
        <ele>645.5</ele>
        <time>2020-05-24T08:25:23Z</time>
      </trkpt>
      <trkpt lat="46.14403" lon="5.60534">
        <ele>645.7</ele>
        <time>2020-05-24T08:25:24Z</time>
      </trkpt>
      <trkpt lat="46.14403" lon="5.60531">
        <ele>645.9</ele>
        <time>2020-05-24T08:25:26Z</time>
      </trkpt>
      <trkpt lat="46.14401" lon="5.60527">
        <ele>646.2</ele>
        <time>2020-05-24T08:25:28Z</time>
      </trkpt>
      <trkpt lat="46.14401" lon="5.60526">
        <ele>646.3</ele>
        <time>2020-05-24T08:25:29Z</time>
      </trkpt>
      <trkpt lat="46.14399" lon="5.60523">
        <ele>646.6</ele>
        <time>2020-05-24T08:25:31Z</time>
      </trkpt>
      <trkpt lat="46.14398" lon="5.60522">
        <ele>646.7</ele>
        <time>2020-05-24T08:25:32Z</time>
      </trkpt>
      <trkpt lat="46.14395" lon="5.6052">
        <ele>647</ele>
        <time>2020-05-24T08:25:33Z</time>
      </trkpt>
      <trkpt lat="46.14394" lon="5.6052">
        <ele>647.1</ele>
        <time>2020-05-24T08:25:34Z</time>
      </trkpt>
      <trkpt lat="46.14393" lon="5.60521">
        <ele>647.2</ele>
        <time>2020-05-24T08:25:35Z</time>
      </trkpt>
      <trkpt lat="46.14393" lon="5.60521">
        <ele>647.3</ele>
        <time>2020-05-24T08:25:37Z</time>
      </trkpt>
      <trkpt lat="46.14392" lon="5.60521">
        <ele>647.3</ele>
        <time>2020-05-24T08:25:38Z</time>
      </trkpt>
      <trkpt lat="46.14391" lon="5.60522">
        <ele>647.4</ele>
        <time>2020-05-24T08:25:39Z</time>
      </trkpt>
      <trkpt lat="46.1439" lon="5.60523">
        <ele>647.6</ele>
        <time>2020-05-24T08:25:41Z</time>
      </trkpt>
      <trkpt lat="46.14388" lon="5.60524">
        <ele>647.7</ele>
        <time>2020-05-24T08:25:43Z</time>
      </trkpt>
      <trkpt lat="46.14386" lon="5.60526">
        <ele>648</ele>
        <time>2020-05-24T08:25:44Z</time>
      </trkpt>
      <trkpt lat="46.14385" lon="5.60527">
        <ele>648.1</ele>
        <time>2020-05-24T08:25:45Z</time>
      </trkpt>
      <trkpt lat="46.14385" lon="5.60527">
        <ele>648.1</ele>
        <time>2020-05-24T08:25:46Z</time>
      </trkpt>
      <trkpt lat="46.14384" lon="5.60528">
        <ele>648.2</ele>
        <time>2020-05-24T08:25:48Z</time>
      </trkpt>
      <trkpt lat="46.14383" lon="5.60529">
        <ele>648.3</ele>
        <time>2020-05-24T08:25:49Z</time>
      </trkpt>
      <trkpt lat="46.14382" lon="5.60531">
        <ele>648.4</ele>
        <time>2020-05-24T08:25:50Z</time>
      </trkpt>
      <trkpt lat="46.14381" lon="5.60532">
        <ele>648.6</ele>
        <time>2020-05-24T08:25:52Z</time>
      </trkpt>
      <trkpt lat="46.1438" lon="5.60533">
        <ele>648.6</ele>
        <time>2020-05-24T08:25:53Z</time>
      </trkpt>
      <trkpt lat="46.14379" lon="5.60534">
        <ele>648.8</ele>
        <time>2020-05-24T08:25:55Z</time>
      </trkpt>
      <trkpt lat="46.14378" lon="5.60535">
        <ele>648.9</ele>
        <time>2020-05-24T08:25:57Z</time>
      </trkpt>
      <trkpt lat="46.14378" lon="5.60535">
        <ele>648.9</ele>
        <time>2020-05-24T08:25:58Z</time>
      </trkpt>
      <trkpt lat="46.14377" lon="5.60536">
        <ele>649</ele>
        <time>2020-05-24T08:25:59Z</time>
      </trkpt>
      <trkpt lat="46.14377" lon="5.60537">
        <ele>649</ele>
        <time>2020-05-24T08:26:01Z</time>
      </trkpt>
      <trkpt lat="46.14376" lon="5.60538">
        <ele>649.2</ele>
        <time>2020-05-24T08:26:02Z</time>
      </trkpt>
      <trkpt lat="46.14375" lon="5.6054">
        <ele>649.3</ele>
        <time>2020-05-24T08:26:03Z</time>
      </trkpt>
      <trkpt lat="46.14374" lon="5.60542">
        <ele>649.4</ele>
        <time>2020-05-24T08:26:05Z</time>
      </trkpt>
      <trkpt lat="46.14374" lon="5.60543">
        <ele>649.5</ele>
        <time>2020-05-24T08:26:06Z</time>
      </trkpt>
      <trkpt lat="46.14372" lon="5.60545">
        <ele>649.8</ele>
        <time>2020-05-24T08:26:08Z</time>
      </trkpt>
      <trkpt lat="46.14371" lon="5.60546">
        <ele>649.9</ele>
        <time>2020-05-24T08:26:09Z</time>
      </trkpt>
      <trkpt lat="46.1437" lon="5.60548">
        <ele>650.1</ele>
        <time>2020-05-24T08:26:11Z</time>
      </trkpt>
      <trkpt lat="46.14369" lon="5.60549">
        <ele>650.2</ele>
        <time>2020-05-24T08:26:12Z</time>
      </trkpt>
      <trkpt lat="46.14368" lon="5.60552">
        <ele>650.4</ele>
        <time>2020-05-24T08:26:14Z</time>
      </trkpt>
      <trkpt lat="46.14367" lon="5.60554">
        <ele>650.6</ele>
        <time>2020-05-24T08:26:16Z</time>
      </trkpt>
      <trkpt lat="46.14366" lon="5.60556">
        <ele>650.8</ele>
        <time>2020-05-24T08:26:17Z</time>
      </trkpt>
      <trkpt lat="46.14365" lon="5.60558">
        <ele>650.9</ele>
        <time>2020-05-24T08:26:19Z</time>
      </trkpt>
      <trkpt lat="46.14363" lon="5.60563">
        <ele>651.3</ele>
        <time>2020-05-24T08:26:21Z</time>
      </trkpt>
      <trkpt lat="46.14362" lon="5.60565">
        <ele>651.5</ele>
        <time>2020-05-24T08:26:22Z</time>
      </trkpt>
      <trkpt lat="46.14361" lon="5.60566">
        <ele>651.6</ele>
        <time>2020-05-24T08:26:24Z</time>
      </trkpt>
      <trkpt lat="46.1436" lon="5.60568">
        <ele>651.7</ele>
        <time>2020-05-24T08:26:26Z</time>
      </trkpt>
      <trkpt lat="46.14359" lon="5.60569">
        <ele>651.9</ele>
        <time>2020-05-24T08:26:27Z</time>
      </trkpt>
      <trkpt lat="46.14359" lon="5.6057">
        <ele>651.9</ele>
        <time>2020-05-24T08:26:28Z</time>
      </trkpt>
      <trkpt lat="46.14357" lon="5.60572">
        <ele>652.1</ele>
        <time>2020-05-24T08:26:29Z</time>
      </trkpt>
      <trkpt lat="46.14356" lon="5.60573">
        <ele>652.2</ele>
        <time>2020-05-24T08:26:30Z</time>
      </trkpt>
      <trkpt lat="46.14355" lon="5.60574">
        <ele>652.3</ele>
        <time>2020-05-24T08:26:31Z</time>
      </trkpt>
      <trkpt lat="46.14353" lon="5.60578">
        <ele>652.6</ele>
        <time>2020-05-24T08:26:33Z</time>
      </trkpt>
      <trkpt lat="46.14352" lon="5.60578">
        <ele>652.7</ele>
        <time>2020-05-24T08:26:34Z</time>
      </trkpt>
      <trkpt lat="46.14351" lon="5.60579">
        <ele>652.8</ele>
        <time>2020-05-24T08:26:35Z</time>
      </trkpt>
      <trkpt lat="46.14349" lon="5.6058">
        <ele>652.9</ele>
        <time>2020-05-24T08:26:37Z</time>
      </trkpt>
      <trkpt lat="46.14348" lon="5.60581">
        <ele>653.1</ele>
        <time>2020-05-24T08:26:38Z</time>
      </trkpt>
      <trkpt lat="46.14346" lon="5.60582">
        <ele>653.2</ele>
        <time>2020-05-24T08:26:39Z</time>
      </trkpt>
      <trkpt lat="46.14345" lon="5.60583">
        <ele>653.4</ele>
        <time>2020-05-24T08:26:40Z</time>
      </trkpt>
      <trkpt lat="46.14344" lon="5.60584">
        <ele>653.5</ele>
        <time>2020-05-24T08:26:42Z</time>
      </trkpt>
      <trkpt lat="46.14343" lon="5.60585">
        <ele>653.6</ele>
        <time>2020-05-24T08:26:43Z</time>
      </trkpt>
      <trkpt lat="46.1434" lon="5.60586">
        <ele>653.9</ele>
        <time>2020-05-24T08:26:45Z</time>
      </trkpt>
      <trkpt lat="46.14339" lon="5.60587">
        <ele>654</ele>
        <time>2020-05-24T08:26:46Z</time>
      </trkpt>
      <trkpt lat="46.14338" lon="5.60588">
        <ele>654.2</ele>
        <time>2020-05-24T08:26:47Z</time>
      </trkpt>
      <trkpt lat="46.14336" lon="5.60588">
        <ele>654.4</ele>
        <time>2020-05-24T08:26:48Z</time>
      </trkpt>
      <trkpt lat="46.14335" lon="5.6059">
        <ele>654.6</ele>
        <time>2020-05-24T08:26:50Z</time>
      </trkpt>
      <trkpt lat="46.14334" lon="5.60592">
        <ele>654.8</ele>
        <time>2020-05-24T08:26:51Z</time>
      </trkpt>
      <trkpt lat="46.14331" lon="5.60594">
        <ele>655.1</ele>
        <time>2020-05-24T08:26:53Z</time>
      </trkpt>
      <trkpt lat="46.1433" lon="5.60595">
        <ele>655.3</ele>
        <time>2020-05-24T08:26:54Z</time>
      </trkpt>
      <trkpt lat="46.14328" lon="5.60598">
        <ele>655.6</ele>
        <time>2020-05-24T08:26:56Z</time>
      </trkpt>
      <trkpt lat="46.14326" lon="5.606">
        <ele>655.9</ele>
        <time>2020-05-24T08:26:57Z</time>
      </trkpt>
      <trkpt lat="46.14325" lon="5.60601">
        <ele>656</ele>
        <time>2020-05-24T08:26:58Z</time>
      </trkpt>
      <trkpt lat="46.14325" lon="5.60602">
        <ele>656.1</ele>
        <time>2020-05-24T08:27:00Z</time>
      </trkpt>
      <trkpt lat="46.14324" lon="5.60603">
        <ele>656.2</ele>
        <time>2020-05-24T08:27:01Z</time>
      </trkpt>
      <trkpt lat="46.14323" lon="5.60604">
        <ele>656.3</ele>
        <time>2020-05-24T08:27:02Z</time>
      </trkpt>
      <trkpt lat="46.14322" lon="5.60605">
        <ele>656.4</ele>
        <time>2020-05-24T08:27:03Z</time>
      </trkpt>
      <trkpt lat="46.14321" lon="5.60608">
        <ele>656.6</ele>
        <time>2020-05-24T08:27:05Z</time>
      </trkpt>
      <trkpt lat="46.1432" lon="5.60609">
        <ele>656.8</ele>
        <time>2020-05-24T08:27:06Z</time>
      </trkpt>
      <trkpt lat="46.14317" lon="5.60613">
        <ele>657.1</ele>
        <time>2020-05-24T08:27:08Z</time>
      </trkpt>
      <trkpt lat="46.14316" lon="5.60614">
        <ele>657.3</ele>
        <time>2020-05-24T08:27:09Z</time>
      </trkpt>
      <trkpt lat="46.14316" lon="5.60615">
        <ele>657.4</ele>
        <time>2020-05-24T08:27:10Z</time>
      </trkpt>
      <trkpt lat="46.14315" lon="5.60616">
        <ele>657.5</ele>
        <time>2020-05-24T08:27:12Z</time>
      </trkpt>
      <trkpt lat="46.14314" lon="5.60618">
        <ele>657.6</ele>
        <time>2020-05-24T08:27:13Z</time>
      </trkpt>
      <trkpt lat="46.14313" lon="5.60619">
        <ele>657.7</ele>
        <time>2020-05-24T08:27:14Z</time>
      </trkpt>
      <trkpt lat="46.14311" lon="5.60621">
        <ele>657.9</ele>
        <time>2020-05-24T08:27:16Z</time>
      </trkpt>
      <trkpt lat="46.1431" lon="5.60622">
        <ele>658</ele>
        <time>2020-05-24T08:27:17Z</time>
      </trkpt>
      <trkpt lat="46.14308" lon="5.60624">
        <ele>658.3</ele>
        <time>2020-05-24T08:27:18Z</time>
      </trkpt>
      <trkpt lat="46.14307" lon="5.60625">
        <ele>658.5</ele>
        <time>2020-05-24T08:27:19Z</time>
      </trkpt>
      <trkpt lat="46.14304" lon="5.60627">
        <ele>658.8</ele>
        <time>2020-05-24T08:27:21Z</time>
      </trkpt>
      <trkpt lat="46.14303" lon="5.60628">
        <ele>658.9</ele>
        <time>2020-05-24T08:27:22Z</time>
      </trkpt>
      <trkpt lat="46.14302" lon="5.60629">
        <ele>659</ele>
        <time>2020-05-24T08:27:24Z</time>
      </trkpt>
      <trkpt lat="46.143" lon="5.6063">
        <ele>659.2</ele>
        <time>2020-05-24T08:27:25Z</time>
      </trkpt>
      <trkpt lat="46.14297" lon="5.60631">
        <ele>659.5</ele>
        <time>2020-05-24T08:27:26Z</time>
      </trkpt>
      <trkpt lat="46.14296" lon="5.60632">
        <ele>659.6</ele>
        <time>2020-05-24T08:27:27Z</time>
      </trkpt>
      <trkpt lat="46.14292" lon="5.60633">
        <ele>660</ele>
        <time>2020-05-24T08:27:29Z</time>
      </trkpt>
      <trkpt lat="46.14291" lon="5.60634">
        <ele>660.1</ele>
        <time>2020-05-24T08:27:30Z</time>
      </trkpt>
      <trkpt lat="46.14287" lon="5.60635">
        <ele>660.5</ele>
        <time>2020-05-24T08:27:32Z</time>
      </trkpt>
      <trkpt lat="46.14286" lon="5.60636">
        <ele>660.7</ele>
        <time>2020-05-24T08:27:33Z</time>
      </trkpt>
      <trkpt lat="46.14285" lon="5.60637">
        <ele>660.8</ele>
        <time>2020-05-24T08:27:35Z</time>
      </trkpt>
      <trkpt lat="46.14284" lon="5.60637">
        <ele>660.9</ele>
        <time>2020-05-24T08:27:36Z</time>
      </trkpt>
      <trkpt lat="46.14282" lon="5.60639">
        <ele>661.1</ele>
        <time>2020-05-24T08:27:37Z</time>
      </trkpt>
      <trkpt lat="46.14281" lon="5.6064">
        <ele>661.3</ele>
        <time>2020-05-24T08:27:38Z</time>
      </trkpt>
      <trkpt lat="46.1428" lon="5.60641">
        <ele>661.4</ele>
        <time>2020-05-24T08:27:39Z</time>
      </trkpt>
      <trkpt lat="46.14278" lon="5.60642">
        <ele>661.7</ele>
        <time>2020-05-24T08:27:41Z</time>
      </trkpt>
      <trkpt lat="46.14275" lon="5.60646">
        <ele>662.1</ele>
        <time>2020-05-24T08:27:43Z</time>
      </trkpt>
      <trkpt lat="46.14274" lon="5.60647">
        <ele>662.3</ele>
        <time>2020-05-24T08:27:44Z</time>
      </trkpt>
      <trkpt lat="46.14272" lon="5.60649">
        <ele>662.5</ele>
        <time>2020-05-24T08:27:46Z</time>
      </trkpt>
      <trkpt lat="46.14271" lon="5.60651">
        <ele>662.7</ele>
        <time>2020-05-24T08:27:47Z</time>
      </trkpt>
      <trkpt lat="46.1427" lon="5.60652">
        <ele>662.8</ele>
        <time>2020-05-24T08:27:48Z</time>
      </trkpt>
      <trkpt lat="46.14269" lon="5.60654">
        <ele>663</ele>
        <time>2020-05-24T08:27:50Z</time>
      </trkpt>
      <trkpt lat="46.14268" lon="5.60655">
        <ele>663.2</ele>
        <time>2020-05-24T08:27:51Z</time>
      </trkpt>
      <trkpt lat="46.14267" lon="5.60657">
        <ele>663.3</ele>
        <time>2020-05-24T08:27:52Z</time>
      </trkpt>
      <trkpt lat="46.14266" lon="5.60658">
        <ele>663.5</ele>
        <time>2020-05-24T08:27:54Z</time>
      </trkpt>
      <trkpt lat="46.14264" lon="5.60662">
        <ele>663.8</ele>
        <time>2020-05-24T08:27:55Z</time>
      </trkpt>
      <trkpt lat="46.14263" lon="5.60663">
        <ele>663.9</ele>
        <time>2020-05-24T08:27:56Z</time>
      </trkpt>
      <trkpt lat="46.14263" lon="5.60664">
        <ele>664</ele>
        <time>2020-05-24T08:27:57Z</time>
      </trkpt>
      <trkpt lat="46.14262" lon="5.60665">
        <ele>664.1</ele>
        <time>2020-05-24T08:27:58Z</time>
      </trkpt>
      <trkpt lat="46.1426" lon="5.60668">
        <ele>664.3</ele>
        <time>2020-05-24T08:28:00Z</time>
      </trkpt>
      <trkpt lat="46.1426" lon="5.60669">
        <ele>664.4</ele>
        <time>2020-05-24T08:28:01Z</time>
      </trkpt>
      <trkpt lat="46.14259" lon="5.6067">
        <ele>664.5</ele>
        <time>2020-05-24T08:28:02Z</time>
      </trkpt>
      <trkpt lat="46.14258" lon="5.60672">
        <ele>664.6</ele>
        <time>2020-05-24T08:28:03Z</time>
      </trkpt>
      <trkpt lat="46.14257" lon="5.60673">
        <ele>664.7</ele>
        <time>2020-05-24T08:28:04Z</time>
      </trkpt>
      <trkpt lat="46.14255" lon="5.60678">
        <ele>664.9</ele>
        <time>2020-05-24T08:28:06Z</time>
      </trkpt>
      <trkpt lat="46.14254" lon="5.6068">
        <ele>665.1</ele>
        <time>2020-05-24T08:28:07Z</time>
      </trkpt>
      <trkpt lat="46.14254" lon="5.60681">
        <ele>665.2</ele>
        <time>2020-05-24T08:28:08Z</time>
      </trkpt>
      <trkpt lat="46.14253" lon="5.60683">
        <ele>665.3</ele>
        <time>2020-05-24T08:28:09Z</time>
      </trkpt>
      <trkpt lat="46.14252" lon="5.60683">
        <ele>665.3</ele>
        <time>2020-05-24T08:28:10Z</time>
      </trkpt>
      <trkpt lat="46.14251" lon="5.60687">
        <ele>665.6</ele>
        <time>2020-05-24T08:28:12Z</time>
      </trkpt>
      <trkpt lat="46.1425" lon="5.60688">
        <ele>665.6</ele>
        <time>2020-05-24T08:28:13Z</time>
      </trkpt>
      <trkpt lat="46.14249" lon="5.60689">
        <ele>665.7</ele>
        <time>2020-05-24T08:28:15Z</time>
      </trkpt>
      <trkpt lat="46.14248" lon="5.60691">
        <ele>665.8</ele>
        <time>2020-05-24T08:28:16Z</time>
      </trkpt>
      <trkpt lat="46.14247" lon="5.60693">
        <ele>666</ele>
        <time>2020-05-24T08:28:17Z</time>
      </trkpt>
      <trkpt lat="46.14245" lon="5.60697">
        <ele>666.3</ele>
        <time>2020-05-24T08:28:19Z</time>
      </trkpt>
      <trkpt lat="46.14244" lon="5.60698">
        <ele>666.4</ele>
        <time>2020-05-24T08:28:20Z</time>
      </trkpt>
      <trkpt lat="46.14242" lon="5.60699">
        <ele>666.5</ele>
        <time>2020-05-24T08:28:22Z</time>
      </trkpt>
      <trkpt lat="46.14241" lon="5.60701">
        <ele>666.7</ele>
        <time>2020-05-24T08:28:23Z</time>
      </trkpt>
      <trkpt lat="46.14239" lon="5.60702">
        <ele>666.8</ele>
        <time>2020-05-24T08:28:24Z</time>
      </trkpt>
      <trkpt lat="46.14238" lon="5.60704">
        <ele>667</ele>
        <time>2020-05-24T08:28:26Z</time>
      </trkpt>
      <trkpt lat="46.14237" lon="5.60705">
        <ele>667.1</ele>
        <time>2020-05-24T08:28:27Z</time>
      </trkpt>
      <trkpt lat="46.14236" lon="5.60706">
        <ele>667.2</ele>
        <time>2020-05-24T08:28:28Z</time>
      </trkpt>
      <trkpt lat="46.14235" lon="5.60707">
        <ele>667.4</ele>
        <time>2020-05-24T08:28:29Z</time>
      </trkpt>
      <trkpt lat="46.14232" lon="5.6071">
        <ele>667.7</ele>
        <time>2020-05-24T08:28:31Z</time>
      </trkpt>
      <trkpt lat="46.14231" lon="5.60712">
        <ele>667.9</ele>
        <time>2020-05-24T08:28:32Z</time>
      </trkpt>
      <trkpt lat="46.1423" lon="5.60713">
        <ele>668</ele>
        <time>2020-05-24T08:28:33Z</time>
      </trkpt>
      <trkpt lat="46.14229" lon="5.60714">
        <ele>668.1</ele>
        <time>2020-05-24T08:28:34Z</time>
      </trkpt>
      <trkpt lat="46.14227" lon="5.60717">
        <ele>668.4</ele>
        <time>2020-05-24T08:28:36Z</time>
      </trkpt>
      <trkpt lat="46.14226" lon="5.60718">
        <ele>668.5</ele>
        <time>2020-05-24T08:28:37Z</time>
      </trkpt>
      <trkpt lat="46.14225" lon="5.6072">
        <ele>668.7</ele>
        <time>2020-05-24T08:28:38Z</time>
      </trkpt>
      <trkpt lat="46.14224" lon="5.60721">
        <ele>668.8</ele>
        <time>2020-05-24T08:28:39Z</time>
      </trkpt>
      <trkpt lat="46.14223" lon="5.60723">
        <ele>669</ele>
        <time>2020-05-24T08:28:41Z</time>
      </trkpt>
      <trkpt lat="46.1422" lon="5.60726">
        <ele>669.3</ele>
        <time>2020-05-24T08:28:43Z</time>
      </trkpt>
      <trkpt lat="46.14219" lon="5.60727">
        <ele>669.4</ele>
        <time>2020-05-24T08:28:44Z</time>
      </trkpt>
      <trkpt lat="46.14218" lon="5.60728">
        <ele>669.6</ele>
        <time>2020-05-24T08:28:45Z</time>
      </trkpt>
      <trkpt lat="46.14215" lon="5.6073">
        <ele>669.9</ele>
        <time>2020-05-24T08:28:47Z</time>
      </trkpt>
      <trkpt lat="46.14215" lon="5.60731">
        <ele>670</ele>
        <time>2020-05-24T08:28:48Z</time>
      </trkpt>
      <trkpt lat="46.14212" lon="5.60733">
        <ele>670.3</ele>
        <time>2020-05-24T08:28:50Z</time>
      </trkpt>
      <trkpt lat="46.14211" lon="5.60733">
        <ele>670.4</ele>
        <time>2020-05-24T08:28:51Z</time>
      </trkpt>
      <trkpt lat="46.14208" lon="5.60736">
        <ele>670.8</ele>
        <time>2020-05-24T08:28:53Z</time>
      </trkpt>
      <trkpt lat="46.14206" lon="5.60738">
        <ele>670.9</ele>
        <time>2020-05-24T08:28:54Z</time>
      </trkpt>
      <trkpt lat="46.14205" lon="5.6074">
        <ele>671.2</ele>
        <time>2020-05-24T08:28:56Z</time>
      </trkpt>
      <trkpt lat="46.14204" lon="5.60742">
        <ele>671.3</ele>
        <time>2020-05-24T08:28:58Z</time>
      </trkpt>
      <trkpt lat="46.14202" lon="5.60744">
        <ele>671.5</ele>
        <time>2020-05-24T08:28:59Z</time>
      </trkpt>
      <trkpt lat="46.14201" lon="5.60747">
        <ele>671.8</ele>
        <time>2020-05-24T08:29:01Z</time>
      </trkpt>
      <trkpt lat="46.142" lon="5.60748">
        <ele>671.9</ele>
        <time>2020-05-24T08:29:02Z</time>
      </trkpt>
      <trkpt lat="46.14199" lon="5.6075">
        <ele>672</ele>
        <time>2020-05-24T08:29:03Z</time>
      </trkpt>
      <trkpt lat="46.14196" lon="5.60753">
        <ele>672.4</ele>
        <time>2020-05-24T08:29:05Z</time>
      </trkpt>
      <trkpt lat="46.14195" lon="5.60755">
        <ele>672.5</ele>
        <time>2020-05-24T08:29:06Z</time>
      </trkpt>
      <trkpt lat="46.14194" lon="5.60756">
        <ele>672.7</ele>
        <time>2020-05-24T08:29:07Z</time>
      </trkpt>
      <trkpt lat="46.14193" lon="5.60757">
        <ele>672.8</ele>
        <time>2020-05-24T08:29:09Z</time>
      </trkpt>
      <trkpt lat="46.14193" lon="5.60759">
        <ele>672.9</ele>
        <time>2020-05-24T08:29:10Z</time>
      </trkpt>
      <trkpt lat="46.1419" lon="5.60762">
        <ele>673.2</ele>
        <time>2020-05-24T08:29:12Z</time>
      </trkpt>
      <trkpt lat="46.1419" lon="5.60763">
        <ele>673.3</ele>
        <time>2020-05-24T08:29:13Z</time>
      </trkpt>
      <trkpt lat="46.14187" lon="5.60766">
        <ele>673.6</ele>
        <time>2020-05-24T08:29:14Z</time>
      </trkpt>
      <trkpt lat="46.14187" lon="5.60766">
        <ele>673.7</ele>
        <time>2020-05-24T08:29:15Z</time>
      </trkpt>
      <trkpt lat="46.14184" lon="5.6077">
        <ele>674</ele>
        <time>2020-05-24T08:29:17Z</time>
      </trkpt>
      <trkpt lat="46.14183" lon="5.60772">
        <ele>674.2</ele>
        <time>2020-05-24T08:29:18Z</time>
      </trkpt>
      <trkpt lat="46.1418" lon="5.60775">
        <ele>674.5</ele>
        <time>2020-05-24T08:29:20Z</time>
      </trkpt>
      <trkpt lat="46.1418" lon="5.60776">
        <ele>674.5</ele>
        <time>2020-05-24T08:29:21Z</time>
      </trkpt>
      <trkpt lat="46.14179" lon="5.60778">
        <ele>674.7</ele>
        <time>2020-05-24T08:29:23Z</time>
      </trkpt>
      <trkpt lat="46.14178" lon="5.60779">
        <ele>674.8</ele>
        <time>2020-05-24T08:29:24Z</time>
      </trkpt>
      <trkpt lat="46.14177" lon="5.6078">
        <ele>674.9</ele>
        <time>2020-05-24T08:29:25Z</time>
      </trkpt>
      <trkpt lat="46.14176" lon="5.60782">
        <ele>675.1</ele>
        <time>2020-05-24T08:29:26Z</time>
      </trkpt>
      <trkpt lat="46.14175" lon="5.60783">
        <ele>675.2</ele>
        <time>2020-05-24T08:29:27Z</time>
      </trkpt>
      <trkpt lat="46.14174" lon="5.60786">
        <ele>675.4</ele>
        <time>2020-05-24T08:29:29Z</time>
      </trkpt>
      <trkpt lat="46.14173" lon="5.60787">
        <ele>675.5</ele>
        <time>2020-05-24T08:29:30Z</time>
      </trkpt>
      <trkpt lat="46.14172" lon="5.6079">
        <ele>675.7</ele>
        <time>2020-05-24T08:29:31Z</time>
      </trkpt>
      <trkpt lat="46.1417" lon="5.60794">
        <ele>676.1</ele>
        <time>2020-05-24T08:29:33Z</time>
      </trkpt>
      <trkpt lat="46.14169" lon="5.60796">
        <ele>676.2</ele>
        <time>2020-05-24T08:29:34Z</time>
      </trkpt>
      <trkpt lat="46.14168" lon="5.60797">
        <ele>676.4</ele>
        <time>2020-05-24T08:29:35Z</time>
      </trkpt>
      <trkpt lat="46.14167" lon="5.60799">
        <ele>676.5</ele>
        <time>2020-05-24T08:29:36Z</time>
      </trkpt>
      <trkpt lat="46.14166" lon="5.60801">
        <ele>676.7</ele>
        <time>2020-05-24T08:29:38Z</time>
      </trkpt>
      <trkpt lat="46.14165" lon="5.60803">
        <ele>676.8</ele>
        <time>2020-05-24T08:29:39Z</time>
      </trkpt>
      <trkpt lat="46.14164" lon="5.60804">
        <ele>676.9</ele>
        <time>2020-05-24T08:29:40Z</time>
      </trkpt>
      <trkpt lat="46.14163" lon="5.60806">
        <ele>677.1</ele>
        <time>2020-05-24T08:29:42Z</time>
      </trkpt>
      <trkpt lat="46.14163" lon="5.60808">
        <ele>677.3</ele>
        <time>2020-05-24T08:29:43Z</time>
      </trkpt>
      <trkpt lat="46.1416" lon="5.60814">
        <ele>677.7</ele>
        <time>2020-05-24T08:29:45Z</time>
      </trkpt>
      <trkpt lat="46.14159" lon="5.60816">
        <ele>678.2</ele>
        <time>2020-05-24T08:29:46Z</time>
      </trkpt>
      <trkpt lat="46.14158" lon="5.60818">
        <ele>678.4</ele>
        <time>2020-05-24T08:29:48Z</time>
      </trkpt>
      <trkpt lat="46.14157" lon="5.6082">
        <ele>678.6</ele>
        <time>2020-05-24T08:29:49Z</time>
      </trkpt>
      <trkpt lat="46.14156" lon="5.60821">
        <ele>678.7</ele>
        <time>2020-05-24T08:29:50Z</time>
      </trkpt>
      <trkpt lat="46.14155" lon="5.60822">
        <ele>678.9</ele>
        <time>2020-05-24T08:29:51Z</time>
      </trkpt>
      <trkpt lat="46.14154" lon="5.60825">
        <ele>679.1</ele>
        <time>2020-05-24T08:29:53Z</time>
      </trkpt>
      <trkpt lat="46.14153" lon="5.60826">
        <ele>679.3</ele>
        <time>2020-05-24T08:29:54Z</time>
      </trkpt>
      <trkpt lat="46.14152" lon="5.60828">
        <ele>679.4</ele>
        <time>2020-05-24T08:29:55Z</time>
      </trkpt>
      <trkpt lat="46.1415" lon="5.60831">
        <ele>679.7</ele>
        <time>2020-05-24T08:29:56Z</time>
      </trkpt>
      <trkpt lat="46.14149" lon="5.60832">
        <ele>679.9</ele>
        <time>2020-05-24T08:29:57Z</time>
      </trkpt>
      <trkpt lat="46.14148" lon="5.60834">
        <ele>680.1</ele>
        <time>2020-05-24T08:29:59Z</time>
      </trkpt>
      <trkpt lat="46.14147" lon="5.60837">
        <ele>680.3</ele>
        <time>2020-05-24T08:30:01Z</time>
      </trkpt>
      <trkpt lat="46.14146" lon="5.60838">
        <ele>680.4</ele>
        <time>2020-05-24T08:30:02Z</time>
      </trkpt>
      <trkpt lat="46.14145" lon="5.6084">
        <ele>680.6</ele>
        <time>2020-05-24T08:30:03Z</time>
      </trkpt>
      <trkpt lat="46.14145" lon="5.60841">
        <ele>680.7</ele>
        <time>2020-05-24T08:30:04Z</time>
      </trkpt>
      <trkpt lat="46.14144" lon="5.60843">
        <ele>680.8</ele>
        <time>2020-05-24T08:30:06Z</time>
      </trkpt>
      <trkpt lat="46.14143" lon="5.60844">
        <ele>680.9</ele>
        <time>2020-05-24T08:30:07Z</time>
      </trkpt>
      <trkpt lat="46.14143" lon="5.60846">
        <ele>681.1</ele>
        <time>2020-05-24T08:30:08Z</time>
      </trkpt>
      <trkpt lat="46.14142" lon="5.60848">
        <ele>681.2</ele>
        <time>2020-05-24T08:30:09Z</time>
      </trkpt>
      <trkpt lat="46.14141" lon="5.60849">
        <ele>681.4</ele>
        <time>2020-05-24T08:30:11Z</time>
      </trkpt>
      <trkpt lat="46.1414" lon="5.60851">
        <ele>681.6</ele>
        <time>2020-05-24T08:30:12Z</time>
      </trkpt>
      <trkpt lat="46.14138" lon="5.60855">
        <ele>681.9</ele>
        <time>2020-05-24T08:30:14Z</time>
      </trkpt>
      <trkpt lat="46.14137" lon="5.60855">
        <ele>682</ele>
        <time>2020-05-24T08:30:15Z</time>
      </trkpt>
      <trkpt lat="46.14136" lon="5.60857">
        <ele>682.1</ele>
        <time>2020-05-24T08:30:16Z</time>
      </trkpt>
      <trkpt lat="46.14135" lon="5.60859">
        <ele>682.3</ele>
        <time>2020-05-24T08:30:18Z</time>
      </trkpt>
      <trkpt lat="46.14134" lon="5.60861">
        <ele>682.5</ele>
        <time>2020-05-24T08:30:19Z</time>
      </trkpt>
      <trkpt lat="46.14131" lon="5.60866">
        <ele>683</ele>
        <time>2020-05-24T08:30:21Z</time>
      </trkpt>
      <trkpt lat="46.14129" lon="5.60868">
        <ele>683.1</ele>
        <time>2020-05-24T08:30:22Z</time>
      </trkpt>
      <trkpt lat="46.14129" lon="5.60869">
        <ele>683.3</ele>
        <time>2020-05-24T08:30:23Z</time>
      </trkpt>
      <trkpt lat="46.14128" lon="5.6087">
        <ele>683.4</ele>
        <time>2020-05-24T08:30:25Z</time>
      </trkpt>
      <trkpt lat="46.14127" lon="5.60871">
        <ele>683.5</ele>
        <time>2020-05-24T08:30:26Z</time>
      </trkpt>
      <trkpt lat="46.14126" lon="5.60872">
        <ele>683.6</ele>
        <time>2020-05-24T08:30:27Z</time>
      </trkpt>
      <trkpt lat="46.14125" lon="5.60874">
        <ele>683.7</ele>
        <time>2020-05-24T08:30:28Z</time>
      </trkpt>
      <trkpt lat="46.14125" lon="5.60876">
        <ele>683.9</ele>
        <time>2020-05-24T08:30:29Z</time>
      </trkpt>
      <trkpt lat="46.14124" lon="5.60878">
        <ele>684</ele>
        <time>2020-05-24T08:30:31Z</time>
      </trkpt>
      <trkpt lat="46.14123" lon="5.60882">
        <ele>684.3</ele>
        <time>2020-05-24T08:30:32Z</time>
      </trkpt>
      <trkpt lat="46.14122" lon="5.60884">
        <ele>684.4</ele>
        <time>2020-05-24T08:30:33Z</time>
      </trkpt>
      <trkpt lat="46.14121" lon="5.60887">
        <ele>684.6</ele>
        <time>2020-05-24T08:30:34Z</time>
      </trkpt>
      <trkpt lat="46.14121" lon="5.60888">
        <ele>684.7</ele>
        <time>2020-05-24T08:30:36Z</time>
      </trkpt>
      <trkpt lat="46.14121" lon="5.6089">
        <ele>684.8</ele>
        <time>2020-05-24T08:30:37Z</time>
      </trkpt>
      <trkpt lat="46.14121" lon="5.60892">
        <ele>684.9</ele>
        <time>2020-05-24T08:30:38Z</time>
      </trkpt>
      <trkpt lat="46.1412" lon="5.60894">
        <ele>685.1</ele>
        <time>2020-05-24T08:30:40Z</time>
      </trkpt>
      <trkpt lat="46.1412" lon="5.60897">
        <ele>685.3</ele>
        <time>2020-05-24T08:30:41Z</time>
      </trkpt>
      <trkpt lat="46.14119" lon="5.60899">
        <ele>685.5</ele>
        <time>2020-05-24T08:30:42Z</time>
      </trkpt>
      <trkpt lat="46.14119" lon="5.60902">
        <ele>685.6</ele>
        <time>2020-05-24T08:30:43Z</time>
      </trkpt>
      <trkpt lat="46.14118" lon="5.60906">
        <ele>685.9</ele>
        <time>2020-05-24T08:30:45Z</time>
      </trkpt>
      <trkpt lat="46.14118" lon="5.60908">
        <ele>686.1</ele>
        <time>2020-05-24T08:30:46Z</time>
      </trkpt>
      <trkpt lat="46.14117" lon="5.60911">
        <ele>686.2</ele>
        <time>2020-05-24T08:30:47Z</time>
      </trkpt>
      <trkpt lat="46.14117" lon="5.60916">
        <ele>686.6</ele>
        <time>2020-05-24T08:30:49Z</time>
      </trkpt>
      <trkpt lat="46.14117" lon="5.60917">
        <ele>686.7</ele>
        <time>2020-05-24T08:30:50Z</time>
      </trkpt>
      <trkpt lat="46.14117" lon="5.60919">
        <ele>686.8</ele>
        <time>2020-05-24T08:30:51Z</time>
      </trkpt>
      <trkpt lat="46.14118" lon="5.60924">
        <ele>687.1</ele>
        <time>2020-05-24T08:30:53Z</time>
      </trkpt>
      <trkpt lat="46.14119" lon="5.60928">
        <ele>687.5</ele>
        <time>2020-05-24T08:30:54Z</time>
      </trkpt>
      <trkpt lat="46.14119" lon="5.60929">
        <ele>687.6</ele>
        <time>2020-05-24T08:30:55Z</time>
      </trkpt>
      <trkpt lat="46.1412" lon="5.60934">
        <ele>688</ele>
        <time>2020-05-24T08:30:56Z</time>
      </trkpt>
      <trkpt lat="46.14121" lon="5.60936">
        <ele>688.1</ele>
        <time>2020-05-24T08:30:58Z</time>
      </trkpt>
      <trkpt lat="46.14121" lon="5.60938">
        <ele>688.3</ele>
        <time>2020-05-24T08:30:59Z</time>
      </trkpt>
      <trkpt lat="46.14122" lon="5.60942">
        <ele>688.6</ele>
        <time>2020-05-24T08:31:01Z</time>
      </trkpt>
      <trkpt lat="46.14123" lon="5.60947">
        <ele>689</ele>
        <time>2020-05-24T08:31:03Z</time>
      </trkpt>
      <trkpt lat="46.14123" lon="5.60949">
        <ele>689.1</ele>
        <time>2020-05-24T08:31:04Z</time>
      </trkpt>
      <trkpt lat="46.14123" lon="5.60952">
        <ele>689.3</ele>
        <time>2020-05-24T08:31:05Z</time>
      </trkpt>
      <trkpt lat="46.14123" lon="5.60956">
        <ele>689.7</ele>
        <time>2020-05-24T08:31:07Z</time>
      </trkpt>
      <trkpt lat="46.14123" lon="5.60958">
        <ele>689.8</ele>
        <time>2020-05-24T08:31:08Z</time>
      </trkpt>
      <trkpt lat="46.14123" lon="5.60962">
        <ele>690.1</ele>
        <time>2020-05-24T08:31:09Z</time>
      </trkpt>
      <trkpt lat="46.14122" lon="5.60964">
        <ele>690.3</ele>
        <time>2020-05-24T08:31:10Z</time>
      </trkpt>
      <trkpt lat="46.14122" lon="5.60966">
        <ele>690.4</ele>
        <time>2020-05-24T08:31:12Z</time>
      </trkpt>
      <trkpt lat="46.14122" lon="5.60968">
        <ele>690.5</ele>
        <time>2020-05-24T08:31:13Z</time>
      </trkpt>
      <trkpt lat="46.14123" lon="5.6097">
        <ele>690.7</ele>
        <time>2020-05-24T08:31:14Z</time>
      </trkpt>
      <trkpt lat="46.14123" lon="5.60972">
        <ele>690.9</ele>
        <time>2020-05-24T08:31:15Z</time>
      </trkpt>
      <trkpt lat="46.14122" lon="5.60977">
        <ele>691.2</ele>
        <time>2020-05-24T08:31:17Z</time>
      </trkpt>
      <trkpt lat="46.14122" lon="5.60979">
        <ele>691.3</ele>
        <time>2020-05-24T08:31:18Z</time>
      </trkpt>
      <trkpt lat="46.14121" lon="5.60983">
        <ele>691.6</ele>
        <time>2020-05-24T08:31:19Z</time>
      </trkpt>
      <trkpt lat="46.14121" lon="5.60985">
        <ele>691.8</ele>
        <time>2020-05-24T08:31:20Z</time>
      </trkpt>
      <trkpt lat="46.14119" lon="5.60989">
        <ele>692.1</ele>
        <time>2020-05-24T08:31:22Z</time>
      </trkpt>
      <trkpt lat="46.14119" lon="5.6099">
        <ele>692.2</ele>
        <time>2020-05-24T08:31:23Z</time>
      </trkpt>
      <trkpt lat="46.14118" lon="5.60992">
        <ele>692.4</ele>
        <time>2020-05-24T08:31:24Z</time>
      </trkpt>
      <trkpt lat="46.14118" lon="5.60993">
        <ele>692.5</ele>
        <time>2020-05-24T08:31:25Z</time>
      </trkpt>
      <trkpt lat="46.14118" lon="5.60995">
        <ele>692.6</ele>
        <time>2020-05-24T08:31:26Z</time>
      </trkpt>
      <trkpt lat="46.14117" lon="5.60999">
        <ele>692.9</ele>
        <time>2020-05-24T08:31:28Z</time>
      </trkpt>
      <trkpt lat="46.14116" lon="5.61001">
        <ele>693</ele>
        <time>2020-05-24T08:31:29Z</time>
      </trkpt>
      <trkpt lat="46.14115" lon="5.61003">
        <ele>693.2</ele>
        <time>2020-05-24T08:31:30Z</time>
      </trkpt>
      <trkpt lat="46.14114" lon="5.61005">
        <ele>693.4</ele>
        <time>2020-05-24T08:31:31Z</time>
      </trkpt>
      <trkpt lat="46.14114" lon="5.61009">
        <ele>693.7</ele>
        <time>2020-05-24T08:31:32Z</time>
      </trkpt>
      <trkpt lat="46.14114" lon="5.61011">
        <ele>693.8</ele>
        <time>2020-05-24T08:31:34Z</time>
      </trkpt>
      <trkpt lat="46.14114" lon="5.61014">
        <ele>694</ele>
        <time>2020-05-24T08:31:35Z</time>
      </trkpt>
      <trkpt lat="46.14114" lon="5.61018">
        <ele>694.3</ele>
        <time>2020-05-24T08:31:37Z</time>
      </trkpt>
      <trkpt lat="46.14114" lon="5.6102">
        <ele>694.4</ele>
        <time>2020-05-24T08:31:38Z</time>
      </trkpt>
      <trkpt lat="46.14114" lon="5.61024">
        <ele>694.6</ele>
        <time>2020-05-24T08:31:39Z</time>
      </trkpt>
      <trkpt lat="46.14113" lon="5.61026">
        <ele>694.7</ele>
        <time>2020-05-24T08:31:40Z</time>
      </trkpt>
      <trkpt lat="46.14113" lon="5.6103">
        <ele>695</ele>
        <time>2020-05-24T08:31:42Z</time>
      </trkpt>
      <trkpt lat="46.14113" lon="5.61031">
        <ele>695.1</ele>
        <time>2020-05-24T08:31:43Z</time>
      </trkpt>
      <trkpt lat="46.14114" lon="5.61037">
        <ele>695.4</ele>
        <time>2020-05-24T08:31:44Z</time>
      </trkpt>
      <trkpt lat="46.14112" lon="5.61039">
        <ele>695.6</ele>
        <time>2020-05-24T08:31:45Z</time>
      </trkpt>
      <trkpt lat="46.14112" lon="5.61042">
        <ele>695.8</ele>
        <time>2020-05-24T08:31:47Z</time>
      </trkpt>
      <trkpt lat="46.14112" lon="5.61044">
        <ele>695.9</ele>
        <time>2020-05-24T08:31:48Z</time>
      </trkpt>
      <trkpt lat="46.14112" lon="5.61047">
        <ele>696.1</ele>
        <time>2020-05-24T08:31:49Z</time>
      </trkpt>
      <trkpt lat="46.14112" lon="5.61051">
        <ele>696.4</ele>
        <time>2020-05-24T08:31:51Z</time>
      </trkpt>
      <trkpt lat="46.14112" lon="5.61053">
        <ele>696.4</ele>
        <time>2020-05-24T08:31:52Z</time>
      </trkpt>
      <trkpt lat="46.14112" lon="5.61055">
        <ele>696.6</ele>
        <time>2020-05-24T08:31:53Z</time>
      </trkpt>
      <trkpt lat="46.14113" lon="5.61057">
        <ele>696.8</ele>
        <time>2020-05-24T08:31:54Z</time>
      </trkpt>
      <trkpt lat="46.14114" lon="5.61062">
        <ele>697.1</ele>
        <time>2020-05-24T08:31:56Z</time>
      </trkpt>
      <trkpt lat="46.14114" lon="5.61065">
        <ele>697.2</ele>
        <time>2020-05-24T08:31:58Z</time>
      </trkpt>
      <trkpt lat="46.14114" lon="5.61067">
        <ele>697.4</ele>
        <time>2020-05-24T08:31:59Z</time>
      </trkpt>
      <trkpt lat="46.14115" lon="5.6107">
        <ele>697.7</ele>
        <time>2020-05-24T08:32:00Z</time>
      </trkpt>
      <trkpt lat="46.14116" lon="5.61072">
        <ele>697.8</ele>
        <time>2020-05-24T08:32:01Z</time>
      </trkpt>
      <trkpt lat="46.14117" lon="5.61076">
        <ele>698.1</ele>
        <time>2020-05-24T08:32:03Z</time>
      </trkpt>
      <trkpt lat="46.14117" lon="5.61078">
        <ele>698.3</ele>
        <time>2020-05-24T08:32:04Z</time>
      </trkpt>
      <trkpt lat="46.14118" lon="5.61081">
        <ele>698.5</ele>
        <time>2020-05-24T08:32:05Z</time>
      </trkpt>
      <trkpt lat="46.14118" lon="5.61084">
        <ele>698.8</ele>
        <time>2020-05-24T08:32:06Z</time>
      </trkpt>
      <trkpt lat="46.14118" lon="5.61088">
        <ele>699.1</ele>
        <time>2020-05-24T08:32:08Z</time>
      </trkpt>
      <trkpt lat="46.14117" lon="5.6109">
        <ele>699.3</ele>
        <time>2020-05-24T08:32:09Z</time>
      </trkpt>
      <trkpt lat="46.14116" lon="5.61093">
        <ele>699.6</ele>
        <time>2020-05-24T08:32:10Z</time>
      </trkpt>
      <trkpt lat="46.14115" lon="5.61097">
        <ele>700.3</ele>
        <time>2020-05-24T08:32:12Z</time>
      </trkpt>
      <trkpt lat="46.14114" lon="5.61098">
        <ele>700.5</ele>
        <time>2020-05-24T08:32:13Z</time>
      </trkpt>
      <trkpt lat="46.14114" lon="5.61099">
        <ele>700.5</ele>
        <time>2020-05-24T08:32:14Z</time>
      </trkpt>
      <trkpt lat="46.14113" lon="5.611">
        <ele>700.6</ele>
        <time>2020-05-24T08:32:16Z</time>
      </trkpt>
      <trkpt lat="46.14113" lon="5.611">
        <ele>700.6</ele>
        <time>2020-05-24T08:32:18Z</time>
      </trkpt>
      <trkpt lat="46.14113" lon="5.611">
        <ele>700.7</ele>
        <time>2020-05-24T08:32:20Z</time>
      </trkpt>
      <trkpt lat="46.14112" lon="5.611">
        <ele>700.7</ele>
        <time>2020-05-24T08:32:21Z</time>
      </trkpt>
      <trkpt lat="46.14112" lon="5.611">
        <ele>700.8</ele>
        <time>2020-05-24T08:32:23Z</time>
      </trkpt>
      <trkpt lat="46.14112" lon="5.611">
        <ele>700.8</ele>
        <time>2020-05-24T08:32:25Z</time>
      </trkpt>
      <trkpt lat="46.14111" lon="5.611">
        <ele>700.8</ele>
        <time>2020-05-24T08:32:26Z</time>
      </trkpt>
      <trkpt lat="46.14111" lon="5.611">
        <ele>700.9</ele>
        <time>2020-05-24T08:32:27Z</time>
      </trkpt>
      <trkpt lat="46.14111" lon="5.611">
        <ele>700.9</ele>
        <time>2020-05-24T08:32:29Z</time>
      </trkpt>
      <trkpt lat="46.14111" lon="5.611">
        <ele>700.9</ele>
        <time>2020-05-24T08:32:30Z</time>
      </trkpt>
      <trkpt lat="46.1411" lon="5.61099">
        <ele>701</ele>
        <time>2020-05-24T08:32:32Z</time>
      </trkpt>
      <trkpt lat="46.1411" lon="5.61098">
        <ele>701.1</ele>
        <time>2020-05-24T08:32:33Z</time>
      </trkpt>
      <trkpt lat="46.1411" lon="5.61097">
        <ele>701.2</ele>
        <time>2020-05-24T08:32:35Z</time>
      </trkpt>
      <trkpt lat="46.1411" lon="5.61096">
        <ele>701.3</ele>
        <time>2020-05-24T08:32:37Z</time>
      </trkpt>
      <trkpt lat="46.14112" lon="5.61091">
        <ele>701.7</ele>
        <time>2020-05-24T08:32:47Z</time>
      </trkpt>
      <trkpt lat="46.14113" lon="5.6109">
        <ele>701.8</ele>
        <time>2020-05-24T08:32:48Z</time>
      </trkpt>
      <trkpt lat="46.14113" lon="5.61089">
        <ele>701.9</ele>
        <time>2020-05-24T08:32:49Z</time>
      </trkpt>
      <trkpt lat="46.14112" lon="5.61087">
        <ele>702.1</ele>
        <time>2020-05-24T08:32:51Z</time>
      </trkpt>
      <trkpt lat="46.14112" lon="5.61086">
        <ele>702.1</ele>
        <time>2020-05-24T08:32:52Z</time>
      </trkpt>
      <trkpt lat="46.14112" lon="5.61086">
        <ele>702.2</ele>
        <time>2020-05-24T08:32:54Z</time>
      </trkpt>
      <trkpt lat="46.14112" lon="5.61086">
        <ele>702.2</ele>
        <time>2020-05-24T08:32:55Z</time>
      </trkpt>
      <trkpt lat="46.14112" lon="5.61086">
        <ele>702.2</ele>
        <time>2020-05-24T08:32:57Z</time>
      </trkpt>
      <trkpt lat="46.14112" lon="5.61086">
        <ele>702.2</ele>
        <time>2020-05-24T08:32:58Z</time>
      </trkpt>
      <trkpt lat="46.14112" lon="5.61086">
        <ele>702.2</ele>
        <time>2020-05-24T08:33:00Z</time>
      </trkpt>
      <trkpt lat="46.14115" lon="5.61092">
        <ele>702.7</ele>
        <time>2020-05-24T08:34:11Z</time>
      </trkpt>
      <trkpt lat="46.14115" lon="5.61092">
        <ele>702.7</ele>
        <time>2020-05-24T08:34:12Z</time>
      </trkpt>
      <trkpt lat="46.14115" lon="5.61092">
        <ele>702.8</ele>
        <time>2020-05-24T08:34:14Z</time>
      </trkpt>
      <trkpt lat="46.14114" lon="5.61092">
        <ele>702.8</ele>
        <time>2020-05-24T08:34:15Z</time>
      </trkpt>
      <trkpt lat="46.14113" lon="5.61092">
        <ele>702.9</ele>
        <time>2020-05-24T08:34:16Z</time>
      </trkpt>
      <trkpt lat="46.14112" lon="5.61093">
        <ele>703.1</ele>
        <time>2020-05-24T08:34:18Z</time>
      </trkpt>
      <trkpt lat="46.14112" lon="5.61093">
        <ele>703.1</ele>
        <time>2020-05-24T08:34:19Z</time>
      </trkpt>
      <trkpt lat="46.14112" lon="5.61093">
        <ele>703.1</ele>
        <time>2020-05-24T08:34:21Z</time>
      </trkpt>
      <trkpt lat="46.14113" lon="5.61093">
        <ele>703.1</ele>
        <time>2020-05-24T08:34:22Z</time>
      </trkpt>
      <trkpt lat="46.14111" lon="5.61094">
        <ele>703.3</ele>
        <time>2020-05-24T08:34:24Z</time>
      </trkpt>
      <trkpt lat="46.1411" lon="5.61094">
        <ele>703.5</ele>
        <time>2020-05-24T08:34:25Z</time>
      </trkpt>
      <trkpt lat="46.14109" lon="5.61094">
        <ele>703.6</ele>
        <time>2020-05-24T08:34:26Z</time>
      </trkpt>
      <trkpt lat="46.14108" lon="5.61094">
        <ele>703.7</ele>
        <time>2020-05-24T08:34:27Z</time>
      </trkpt>
      <trkpt lat="46.14106" lon="5.61094">
        <ele>703.9</ele>
        <time>2020-05-24T08:34:28Z</time>
      </trkpt>
      <trkpt lat="46.14103" lon="5.61094">
        <ele>704.3</ele>
        <time>2020-05-24T08:34:30Z</time>
      </trkpt>
      <trkpt lat="46.14102" lon="5.61093">
        <ele>704.4</ele>
        <time>2020-05-24T08:34:31Z</time>
      </trkpt>
      <trkpt lat="46.141" lon="5.61091">
        <ele>704.6</ele>
        <time>2020-05-24T08:34:33Z</time>
      </trkpt>
      <trkpt lat="46.14099" lon="5.61089">
        <ele>704.8</ele>
        <time>2020-05-24T08:34:34Z</time>
      </trkpt>
      <trkpt lat="46.14098" lon="5.61087">
        <ele>705</ele>
        <time>2020-05-24T08:34:35Z</time>
      </trkpt>
      <trkpt lat="46.14097" lon="5.61085">
        <ele>705.2</ele>
        <time>2020-05-24T08:34:36Z</time>
      </trkpt>
      <trkpt lat="46.14097" lon="5.61083">
        <ele>705.3</ele>
        <time>2020-05-24T08:34:37Z</time>
      </trkpt>
      <trkpt lat="46.14096" lon="5.61079">
        <ele>705.7</ele>
        <time>2020-05-24T08:34:39Z</time>
      </trkpt>
      <trkpt lat="46.14096" lon="5.61078">
        <ele>705.8</ele>
        <time>2020-05-24T08:34:40Z</time>
      </trkpt>
      <trkpt lat="46.14095" lon="5.61073">
        <ele>706.1</ele>
        <time>2020-05-24T08:34:41Z</time>
      </trkpt>
      <trkpt lat="46.14095" lon="5.61071">
        <ele>706.3</ele>
        <time>2020-05-24T08:34:42Z</time>
      </trkpt>
      <trkpt lat="46.14094" lon="5.61069">
        <ele>706.5</ele>
        <time>2020-05-24T08:34:43Z</time>
      </trkpt>
      <trkpt lat="46.14094" lon="5.61067">
        <ele>706.6</ele>
        <time>2020-05-24T08:34:45Z</time>
      </trkpt>
      <trkpt lat="46.14094" lon="5.61066">
        <ele>706.7</ele>
        <time>2020-05-24T08:34:46Z</time>
      </trkpt>
      <trkpt lat="46.14093" lon="5.61064">
        <ele>706.9</ele>
        <time>2020-05-24T08:34:48Z</time>
      </trkpt>
      <trkpt lat="46.14093" lon="5.61061">
        <ele>707.1</ele>
        <time>2020-05-24T08:34:50Z</time>
      </trkpt>
      <trkpt lat="46.14093" lon="5.61059">
        <ele>707.2</ele>
        <time>2020-05-24T08:34:51Z</time>
      </trkpt>
      <trkpt lat="46.14093" lon="5.61056">
        <ele>707.5</ele>
        <time>2020-05-24T08:34:53Z</time>
      </trkpt>
      <trkpt lat="46.14092" lon="5.61053">
        <ele>707.7</ele>
        <time>2020-05-24T08:34:54Z</time>
      </trkpt>
      <trkpt lat="46.14093" lon="5.61051">
        <ele>707.9</ele>
        <time>2020-05-24T08:34:56Z</time>
      </trkpt>
      <trkpt lat="46.14093" lon="5.61047">
        <ele>708.1</ele>
        <time>2020-05-24T08:34:57Z</time>
      </trkpt>
      <trkpt lat="46.14093" lon="5.61046">
        <ele>708.2</ele>
        <time>2020-05-24T08:34:58Z</time>
      </trkpt>
      <trkpt lat="46.14093" lon="5.61045">
        <ele>708.3</ele>
        <time>2020-05-24T08:34:59Z</time>
      </trkpt>
      <trkpt lat="46.14092" lon="5.61043">
        <ele>708.5</ele>
        <time>2020-05-24T08:35:00Z</time>
      </trkpt>
      <trkpt lat="46.14092" lon="5.61039">
        <ele>708.8</ele>
        <time>2020-05-24T08:35:02Z</time>
      </trkpt>
      <trkpt lat="46.14092" lon="5.61036">
        <ele>709</ele>
        <time>2020-05-24T08:35:03Z</time>
      </trkpt>
      <trkpt lat="46.14091" lon="5.61034">
        <ele>709.2</ele>
        <time>2020-05-24T08:35:05Z</time>
      </trkpt>
      <trkpt lat="46.14091" lon="5.61029">
        <ele>709.6</ele>
        <time>2020-05-24T08:35:06Z</time>
      </trkpt>
      <trkpt lat="46.1409" lon="5.61027">
        <ele>709.7</ele>
        <time>2020-05-24T08:35:07Z</time>
      </trkpt>
      <trkpt lat="46.1409" lon="5.61026">
        <ele>709.8</ele>
        <time>2020-05-24T08:35:08Z</time>
      </trkpt>
      <trkpt lat="46.14089" lon="5.61024">
        <ele>710</ele>
        <time>2020-05-24T08:35:10Z</time>
      </trkpt>
      <trkpt lat="46.14088" lon="5.61022">
        <ele>710.2</ele>
        <time>2020-05-24T08:35:11Z</time>
      </trkpt>
      <trkpt lat="46.14088" lon="5.6102">
        <ele>710.4</ele>
        <time>2020-05-24T08:35:12Z</time>
      </trkpt>
      <trkpt lat="46.14087" lon="5.61016">
        <ele>710.7</ele>
        <time>2020-05-24T08:35:14Z</time>
      </trkpt>
      <trkpt lat="46.14087" lon="5.61013">
        <ele>710.9</ele>
        <time>2020-05-24T08:35:15Z</time>
      </trkpt>
      <trkpt lat="46.14086" lon="5.61011">
        <ele>711.1</ele>
        <time>2020-05-24T08:35:16Z</time>
      </trkpt>
      <trkpt lat="46.14086" lon="5.61004">
        <ele>711.6</ele>
        <time>2020-05-24T08:35:18Z</time>
      </trkpt>
      <trkpt lat="46.14085" lon="5.61002">
        <ele>711.7</ele>
        <time>2020-05-24T08:35:19Z</time>
      </trkpt>
      <trkpt lat="46.14085" lon="5.60999">
        <ele>712</ele>
        <time>2020-05-24T08:35:21Z</time>
      </trkpt>
      <trkpt lat="46.14084" lon="5.60997">
        <ele>712.1</ele>
        <time>2020-05-24T08:35:22Z</time>
      </trkpt>
      <trkpt lat="46.14084" lon="5.60994">
        <ele>712.4</ele>
        <time>2020-05-24T08:35:23Z</time>
      </trkpt>
      <trkpt lat="46.14083" lon="5.60991">
        <ele>712.6</ele>
        <time>2020-05-24T08:35:24Z</time>
      </trkpt>
      <trkpt lat="46.14083" lon="5.60988">
        <ele>712.8</ele>
        <time>2020-05-24T08:35:26Z</time>
      </trkpt>
      <trkpt lat="46.14083" lon="5.60984">
        <ele>713.2</ele>
        <time>2020-05-24T08:35:27Z</time>
      </trkpt>
      <trkpt lat="46.14082" lon="5.60981">
        <ele>713.4</ele>
        <time>2020-05-24T08:35:28Z</time>
      </trkpt>
      <trkpt lat="46.14082" lon="5.60975">
        <ele>713.9</ele>
        <time>2020-05-24T08:35:30Z</time>
      </trkpt>
      <trkpt lat="46.14082" lon="5.60971">
        <ele>714.2</ele>
        <time>2020-05-24T08:35:31Z</time>
      </trkpt>
      <trkpt lat="46.14082" lon="5.60969">
        <ele>714.3</ele>
        <time>2020-05-24T08:35:32Z</time>
      </trkpt>
      <trkpt lat="46.14081" lon="5.60967">
        <ele>714.5</ele>
        <time>2020-05-24T08:35:33Z</time>
      </trkpt>
      <trkpt lat="46.14081" lon="5.60964">
        <ele>714.7</ele>
        <time>2020-05-24T08:35:34Z</time>
      </trkpt>
      <trkpt lat="46.1408" lon="5.60956">
        <ele>715.3</ele>
        <time>2020-05-24T08:35:36Z</time>
      </trkpt>
      <trkpt lat="46.1408" lon="5.60953">
        <ele>715.6</ele>
        <time>2020-05-24T08:35:38Z</time>
      </trkpt>
      <trkpt lat="46.14079" lon="5.6095">
        <ele>715.8</ele>
        <time>2020-05-24T08:35:39Z</time>
      </trkpt>
      <trkpt lat="46.14079" lon="5.60947">
        <ele>716</ele>
        <time>2020-05-24T08:35:40Z</time>
      </trkpt>
      <trkpt lat="46.14079" lon="5.6094">
        <ele>716.6</ele>
        <time>2020-05-24T08:35:42Z</time>
      </trkpt>
      <trkpt lat="46.14078" lon="5.60936">
        <ele>716.9</ele>
        <time>2020-05-24T08:35:44Z</time>
      </trkpt>
      <trkpt lat="46.14078" lon="5.60934">
        <ele>717</ele>
        <time>2020-05-24T08:35:45Z</time>
      </trkpt>
      <trkpt lat="46.14078" lon="5.60929">
        <ele>717.4</ele>
        <time>2020-05-24T08:35:47Z</time>
      </trkpt>
      <trkpt lat="46.14078" lon="5.60927">
        <ele>717.6</ele>
        <time>2020-05-24T08:35:48Z</time>
      </trkpt>
      <trkpt lat="46.14077" lon="5.60921">
        <ele>718.1</ele>
        <time>2020-05-24T08:35:50Z</time>
      </trkpt>
      <trkpt lat="46.14077" lon="5.60919">
        <ele>718.2</ele>
        <time>2020-05-24T08:35:51Z</time>
      </trkpt>
      <trkpt lat="46.14077" lon="5.60917">
        <ele>718.4</ele>
        <time>2020-05-24T08:35:52Z</time>
      </trkpt>
      <trkpt lat="46.14077" lon="5.6091">
        <ele>718.9</ele>
        <time>2020-05-24T08:35:53Z</time>
      </trkpt>
      <trkpt lat="46.14078" lon="5.60908">
        <ele>719.1</ele>
        <time>2020-05-24T08:35:54Z</time>
      </trkpt>
      <trkpt lat="46.14078" lon="5.60906">
        <ele>719.2</ele>
        <time>2020-05-24T08:35:55Z</time>
      </trkpt>
      <trkpt lat="46.14078" lon="5.60904">
        <ele>719.4</ele>
        <time>2020-05-24T08:35:56Z</time>
      </trkpt>
      <trkpt lat="46.14078" lon="5.609">
        <ele>719.7</ele>
        <time>2020-05-24T08:35:58Z</time>
      </trkpt>
      <trkpt lat="46.14079" lon="5.60896">
        <ele>720</ele>
        <time>2020-05-24T08:35:59Z</time>
      </trkpt>
      <trkpt lat="46.14079" lon="5.60895">
        <ele>720.1</ele>
        <time>2020-05-24T08:36:00Z</time>
      </trkpt>
      <trkpt lat="46.1408" lon="5.60891">
        <ele>720.4</ele>
        <time>2020-05-24T08:36:01Z</time>
      </trkpt>
      <trkpt lat="46.1408" lon="5.60889">
        <ele>720.6</ele>
        <time>2020-05-24T08:36:02Z</time>
      </trkpt>
      <trkpt lat="46.14081" lon="5.60885">
        <ele>720.9</ele>
        <time>2020-05-24T08:36:04Z</time>
      </trkpt>
      <trkpt lat="46.14081" lon="5.60881">
        <ele>721.2</ele>
        <time>2020-05-24T08:36:05Z</time>
      </trkpt>
      <trkpt lat="46.14082" lon="5.60878">
        <ele>721.4</ele>
        <time>2020-05-24T08:36:06Z</time>
      </trkpt>
      <trkpt lat="46.14082" lon="5.60875">
        <ele>721.7</ele>
        <time>2020-05-24T08:36:08Z</time>
      </trkpt>
      <trkpt lat="46.14083" lon="5.60872">
        <ele>721.9</ele>
        <time>2020-05-24T08:36:09Z</time>
      </trkpt>
      <trkpt lat="46.14083" lon="5.6087">
        <ele>722.1</ele>
        <time>2020-05-24T08:36:10Z</time>
      </trkpt>
      <trkpt lat="46.14084" lon="5.60866">
        <ele>722.4</ele>
        <time>2020-05-24T08:36:12Z</time>
      </trkpt>
      <trkpt lat="46.14085" lon="5.60863">
        <ele>722.6</ele>
        <time>2020-05-24T08:36:13Z</time>
      </trkpt>
      <trkpt lat="46.14086" lon="5.6086">
        <ele>722.9</ele>
        <time>2020-05-24T08:36:15Z</time>
      </trkpt>
      <trkpt lat="46.14087" lon="5.60856">
        <ele>723.2</ele>
        <time>2020-05-24T08:36:16Z</time>
      </trkpt>
      <trkpt lat="46.14087" lon="5.60854">
        <ele>723.4</ele>
        <time>2020-05-24T08:36:18Z</time>
      </trkpt>
      <trkpt lat="46.14088" lon="5.60851">
        <ele>723.6</ele>
        <time>2020-05-24T08:36:19Z</time>
      </trkpt>
      <trkpt lat="46.14088" lon="5.60849">
        <ele>723.8</ele>
        <time>2020-05-24T08:36:20Z</time>
      </trkpt>
      <trkpt lat="46.14089" lon="5.60846">
        <ele>724</ele>
        <time>2020-05-24T08:36:21Z</time>
      </trkpt>
      <trkpt lat="46.1409" lon="5.60842">
        <ele>724.3</ele>
        <time>2020-05-24T08:36:23Z</time>
      </trkpt>
      <trkpt lat="46.1409" lon="5.60839">
        <ele>724.5</ele>
        <time>2020-05-24T08:36:24Z</time>
      </trkpt>
      <trkpt lat="46.14091" lon="5.60835">
        <ele>724.9</ele>
        <time>2020-05-24T08:36:26Z</time>
      </trkpt>
      <trkpt lat="46.14092" lon="5.60832">
        <ele>725.1</ele>
        <time>2020-05-24T08:36:27Z</time>
      </trkpt>
      <trkpt lat="46.14093" lon="5.60826">
        <ele>725.6</ele>
        <time>2020-05-24T08:36:29Z</time>
      </trkpt>
      <trkpt lat="46.14093" lon="5.60824">
        <ele>725.8</ele>
        <time>2020-05-24T08:36:30Z</time>
      </trkpt>
      <trkpt lat="46.14094" lon="5.60821">
        <ele>726</ele>
        <time>2020-05-24T08:36:31Z</time>
      </trkpt>
      <trkpt lat="46.14095" lon="5.60818">
        <ele>726.2</ele>
        <time>2020-05-24T08:36:32Z</time>
      </trkpt>
      <trkpt lat="46.14097" lon="5.60814">
        <ele>726.6</ele>
        <time>2020-05-24T08:36:34Z</time>
      </trkpt>
      <trkpt lat="46.14097" lon="5.60812">
        <ele>726.8</ele>
        <time>2020-05-24T08:36:35Z</time>
      </trkpt>
      <trkpt lat="46.14098" lon="5.6081">
        <ele>727</ele>
        <time>2020-05-24T08:36:36Z</time>
      </trkpt>
      <trkpt lat="46.14099" lon="5.60807">
        <ele>727.2</ele>
        <time>2020-05-24T08:36:38Z</time>
      </trkpt>
      <trkpt lat="46.141" lon="5.60804">
        <ele>727.5</ele>
        <time>2020-05-24T08:36:40Z</time>
      </trkpt>
      <trkpt lat="46.14101" lon="5.60798">
        <ele>728</ele>
        <time>2020-05-24T08:36:41Z</time>
      </trkpt>
      <trkpt lat="46.14102" lon="5.60796">
        <ele>728.1</ele>
        <time>2020-05-24T08:36:42Z</time>
      </trkpt>
      <trkpt lat="46.14102" lon="5.60794">
        <ele>728.3</ele>
        <time>2020-05-24T08:36:43Z</time>
      </trkpt>
      <trkpt lat="46.14103" lon="5.60789">
        <ele>728.7</ele>
        <time>2020-05-24T08:36:45Z</time>
      </trkpt>
      <trkpt lat="46.14104" lon="5.60787">
        <ele>728.9</ele>
        <time>2020-05-24T08:36:46Z</time>
      </trkpt>
      <trkpt lat="46.14104" lon="5.60784">
        <ele>729.1</ele>
        <time>2020-05-24T08:36:47Z</time>
      </trkpt>
      <trkpt lat="46.14105" lon="5.6078">
        <ele>729.4</ele>
        <time>2020-05-24T08:36:49Z</time>
      </trkpt>
      <trkpt lat="46.14106" lon="5.60776">
        <ele>729.7</ele>
        <time>2020-05-24T08:36:50Z</time>
      </trkpt>
      <trkpt lat="46.14106" lon="5.60775">
        <ele>729.8</ele>
        <time>2020-05-24T08:36:51Z</time>
      </trkpt>
      <trkpt lat="46.14108" lon="5.6077">
        <ele>730.2</ele>
        <time>2020-05-24T08:36:52Z</time>
      </trkpt>
      <trkpt lat="46.14108" lon="5.60769">
        <ele>730.4</ele>
        <time>2020-05-24T08:36:53Z</time>
      </trkpt>
      <trkpt lat="46.14109" lon="5.60766">
        <ele>730.6</ele>
        <time>2020-05-24T08:36:55Z</time>
      </trkpt>
      <trkpt lat="46.14109" lon="5.60763">
        <ele>730.8</ele>
        <time>2020-05-24T08:36:56Z</time>
      </trkpt>
      <trkpt lat="46.1411" lon="5.60762">
        <ele>730.9</ele>
        <time>2020-05-24T08:36:57Z</time>
      </trkpt>
      <trkpt lat="46.1411" lon="5.6076">
        <ele>731</ele>
        <time>2020-05-24T08:36:58Z</time>
      </trkpt>
      <trkpt lat="46.1411" lon="5.60759">
        <ele>731.1</ele>
        <time>2020-05-24T08:36:59Z</time>
      </trkpt>
      <trkpt lat="46.14111" lon="5.60755">
        <ele>731.4</ele>
        <time>2020-05-24T08:37:01Z</time>
      </trkpt>
      <trkpt lat="46.14111" lon="5.60751">
        <ele>731.7</ele>
        <time>2020-05-24T08:37:02Z</time>
      </trkpt>
      <trkpt lat="46.14112" lon="5.6075">
        <ele>731.8</ele>
        <time>2020-05-24T08:37:03Z</time>
      </trkpt>
      <trkpt lat="46.14112" lon="5.60745">
        <ele>732.2</ele>
        <time>2020-05-24T08:37:05Z</time>
      </trkpt>
      <trkpt lat="46.14112" lon="5.60743">
        <ele>732.3</ele>
        <time>2020-05-24T08:37:06Z</time>
      </trkpt>
      <trkpt lat="46.14113" lon="5.60741">
        <ele>732.5</ele>
        <time>2020-05-24T08:37:07Z</time>
      </trkpt>
      <trkpt lat="46.14113" lon="5.60737">
        <ele>732.9</ele>
        <time>2020-05-24T08:37:09Z</time>
      </trkpt>
      <trkpt lat="46.14114" lon="5.60734">
        <ele>733.1</ele>
        <time>2020-05-24T08:37:10Z</time>
      </trkpt>
      <trkpt lat="46.14114" lon="5.60732">
        <ele>733.3</ele>
        <time>2020-05-24T08:37:11Z</time>
      </trkpt>
      <trkpt lat="46.14115" lon="5.6073">
        <ele>733.4</ele>
        <time>2020-05-24T08:37:13Z</time>
      </trkpt>
      <trkpt lat="46.14115" lon="5.60728">
        <ele>733.6</ele>
        <time>2020-05-24T08:37:14Z</time>
      </trkpt>
      <trkpt lat="46.14116" lon="5.60723">
        <ele>734</ele>
        <time>2020-05-24T08:37:16Z</time>
      </trkpt>
      <trkpt lat="46.14117" lon="5.60722">
        <ele>734.1</ele>
        <time>2020-05-24T08:37:17Z</time>
      </trkpt>
      <trkpt lat="46.14118" lon="5.60718">
        <ele>734.4</ele>
        <time>2020-05-24T08:37:19Z</time>
      </trkpt>
      <trkpt lat="46.14118" lon="5.60716">
        <ele>734.5</ele>
        <time>2020-05-24T08:37:20Z</time>
      </trkpt>
      <trkpt lat="46.14119" lon="5.60714">
        <ele>734.7</ele>
        <time>2020-05-24T08:37:21Z</time>
      </trkpt>
      <trkpt lat="46.1412" lon="5.60713">
        <ele>734.8</ele>
        <time>2020-05-24T08:37:22Z</time>
      </trkpt>
      <trkpt lat="46.1412" lon="5.6071">
        <ele>735.1</ele>
        <time>2020-05-24T08:37:24Z</time>
      </trkpt>
      <trkpt lat="46.14121" lon="5.60708">
        <ele>735.2</ele>
        <time>2020-05-24T08:37:25Z</time>
      </trkpt>
      <trkpt lat="46.14122" lon="5.60705">
        <ele>735.5</ele>
        <time>2020-05-24T08:37:27Z</time>
      </trkpt>
      <trkpt lat="46.14122" lon="5.60702">
        <ele>735.7</ele>
        <time>2020-05-24T08:37:28Z</time>
      </trkpt>
      <trkpt lat="46.14123" lon="5.60701">
        <ele>735.8</ele>
        <time>2020-05-24T08:37:29Z</time>
      </trkpt>
      <trkpt lat="46.14125" lon="5.607">
        <ele>736</ele>
        <time>2020-05-24T08:37:31Z</time>
      </trkpt>
      <trkpt lat="46.14126" lon="5.60699">
        <ele>736.2</ele>
        <time>2020-05-24T08:37:32Z</time>
      </trkpt>
      <trkpt lat="46.14128" lon="5.60698">
        <ele>736.4</ele>
        <time>2020-05-24T08:37:34Z</time>
      </trkpt>
      <trkpt lat="46.14129" lon="5.60697">
        <ele>736.6</ele>
        <time>2020-05-24T08:37:35Z</time>
      </trkpt>
      <trkpt lat="46.14131" lon="5.60696">
        <ele>736.7</ele>
        <time>2020-05-24T08:37:36Z</time>
      </trkpt>
      <trkpt lat="46.14132" lon="5.60696">
        <ele>736.9</ele>
        <time>2020-05-24T08:37:37Z</time>
      </trkpt>
      <trkpt lat="46.14135" lon="5.60693">
        <ele>737.3</ele>
        <time>2020-05-24T08:37:39Z</time>
      </trkpt>
      <trkpt lat="46.14136" lon="5.60692">
        <ele>737.4</ele>
        <time>2020-05-24T08:37:40Z</time>
      </trkpt>
      <trkpt lat="46.14137" lon="5.60691">
        <ele>737.6</ele>
        <time>2020-05-24T08:37:42Z</time>
      </trkpt>
      <trkpt lat="46.14138" lon="5.6069">
        <ele>737.7</ele>
        <time>2020-05-24T08:37:43Z</time>
      </trkpt>
      <trkpt lat="46.1414" lon="5.60688">
        <ele>737.9</ele>
        <time>2020-05-24T08:37:45Z</time>
      </trkpt>
      <trkpt lat="46.1414" lon="5.60687">
        <ele>738</ele>
        <time>2020-05-24T08:37:46Z</time>
      </trkpt>
      <trkpt lat="46.14141" lon="5.60685">
        <ele>738.2</ele>
        <time>2020-05-24T08:37:47Z</time>
      </trkpt>
      <trkpt lat="46.14142" lon="5.60684">
        <ele>738.3</ele>
        <time>2020-05-24T08:37:48Z</time>
      </trkpt>
      <trkpt lat="46.14143" lon="5.60681">
        <ele>738.5</ele>
        <time>2020-05-24T08:37:50Z</time>
      </trkpt>
      <trkpt lat="46.14144" lon="5.60678">
        <ele>738.8</ele>
        <time>2020-05-24T08:37:51Z</time>
      </trkpt>
      <trkpt lat="46.14145" lon="5.60676">
        <ele>739</ele>
        <time>2020-05-24T08:37:53Z</time>
      </trkpt>
      <trkpt lat="46.14145" lon="5.60674">
        <ele>739.1</ele>
        <time>2020-05-24T08:37:54Z</time>
      </trkpt>
      <trkpt lat="46.14145" lon="5.60671">
        <ele>739.4</ele>
        <time>2020-05-24T08:37:56Z</time>
      </trkpt>
      <trkpt lat="46.14145" lon="5.60669">
        <ele>739.6</ele>
        <time>2020-05-24T08:37:57Z</time>
      </trkpt>
      <trkpt lat="46.14146" lon="5.60667">
        <ele>739.8</ele>
        <time>2020-05-24T08:37:58Z</time>
      </trkpt>
      <trkpt lat="46.14147" lon="5.60662">
        <ele>740.2</ele>
        <time>2020-05-24T08:38:00Z</time>
      </trkpt>
      <trkpt lat="46.14148" lon="5.6066">
        <ele>740.3</ele>
        <time>2020-05-24T08:38:01Z</time>
      </trkpt>
      <trkpt lat="46.14149" lon="5.60655">
        <ele>740.7</ele>
        <time>2020-05-24T08:38:03Z</time>
      </trkpt>
      <trkpt lat="46.14149" lon="5.60653">
        <ele>740.9</ele>
        <time>2020-05-24T08:38:04Z</time>
      </trkpt>
      <trkpt lat="46.14149" lon="5.6065">
        <ele>741.1</ele>
        <time>2020-05-24T08:38:06Z</time>
      </trkpt>
      <trkpt lat="46.14149" lon="5.60647">
        <ele>741.3</ele>
        <time>2020-05-24T08:38:07Z</time>
      </trkpt>
      <trkpt lat="46.14149" lon="5.60645">
        <ele>741.5</ele>
        <time>2020-05-24T08:38:08Z</time>
      </trkpt>
      <trkpt lat="46.14149" lon="5.60642">
        <ele>741.7</ele>
        <time>2020-05-24T08:38:09Z</time>
      </trkpt>
      <trkpt lat="46.14149" lon="5.60639">
        <ele>742</ele>
        <time>2020-05-24T08:38:11Z</time>
      </trkpt>
      <trkpt lat="46.14148" lon="5.60636">
        <ele>742.2</ele>
        <time>2020-05-24T08:38:12Z</time>
      </trkpt>
      <trkpt lat="46.14147" lon="5.60634">
        <ele>742.4</ele>
        <time>2020-05-24T08:38:13Z</time>
      </trkpt>
      <trkpt lat="46.14144" lon="5.60632">
        <ele>742.7</ele>
        <time>2020-05-24T08:38:15Z</time>
      </trkpt>
      <trkpt lat="46.14143" lon="5.60631">
        <ele>742.8</ele>
        <time>2020-05-24T08:38:16Z</time>
      </trkpt>
      <trkpt lat="46.14142" lon="5.60631">
        <ele>743</ele>
        <time>2020-05-24T08:38:18Z</time>
      </trkpt>
      <trkpt lat="46.1414" lon="5.60631">
        <ele>743.2</ele>
        <time>2020-05-24T08:38:19Z</time>
      </trkpt>
      <trkpt lat="46.1414" lon="5.60631">
        <ele>743.3</ele>
        <time>2020-05-24T08:38:20Z</time>
      </trkpt>
      <trkpt lat="46.14139" lon="5.60632">
        <ele>743.4</ele>
        <time>2020-05-24T08:38:22Z</time>
      </trkpt>
      <trkpt lat="46.14137" lon="5.60632">
        <ele>743.5</ele>
        <time>2020-05-24T08:38:23Z</time>
      </trkpt>
      <trkpt lat="46.14136" lon="5.60633">
        <ele>743.6</ele>
        <time>2020-05-24T08:38:24Z</time>
      </trkpt>
      <trkpt lat="46.14135" lon="5.60633">
        <ele>743.8</ele>
        <time>2020-05-24T08:38:26Z</time>
      </trkpt>
      <trkpt lat="46.14134" lon="5.60635">
        <ele>744</ele>
        <time>2020-05-24T08:38:27Z</time>
      </trkpt>
      <trkpt lat="46.14133" lon="5.60635">
        <ele>744</ele>
        <time>2020-05-24T08:38:28Z</time>
      </trkpt>
      <trkpt lat="46.14132" lon="5.60636">
        <ele>744.2</ele>
        <time>2020-05-24T08:38:30Z</time>
      </trkpt>
      <trkpt lat="46.1413" lon="5.60638">
        <ele>744.4</ele>
        <time>2020-05-24T08:38:31Z</time>
      </trkpt>
      <trkpt lat="46.1413" lon="5.60639">
        <ele>744.5</ele>
        <time>2020-05-24T08:38:32Z</time>
      </trkpt>
      <trkpt lat="46.14129" lon="5.6064">
        <ele>744.6</ele>
        <time>2020-05-24T08:38:34Z</time>
      </trkpt>
      <trkpt lat="46.14129" lon="5.60641">
        <ele>744.7</ele>
        <time>2020-05-24T08:38:35Z</time>
      </trkpt>
      <trkpt lat="46.14128" lon="5.60642">
        <ele>744.8</ele>
        <time>2020-05-24T08:38:36Z</time>
      </trkpt>
      <trkpt lat="46.14128" lon="5.60643">
        <ele>744.9</ele>
        <time>2020-05-24T08:38:37Z</time>
      </trkpt>
      <trkpt lat="46.14127" lon="5.60644">
        <ele>745</ele>
        <time>2020-05-24T08:38:38Z</time>
      </trkpt>
      <trkpt lat="46.14126" lon="5.60645">
        <ele>745.1</ele>
        <time>2020-05-24T08:38:40Z</time>
      </trkpt>
      <trkpt lat="46.14126" lon="5.60646">
        <ele>745.2</ele>
        <time>2020-05-24T08:38:41Z</time>
      </trkpt>
      <trkpt lat="46.14125" lon="5.60647">
        <ele>745.3</ele>
        <time>2020-05-24T08:38:42Z</time>
      </trkpt>
      <trkpt lat="46.14125" lon="5.60648">
        <ele>745.4</ele>
        <time>2020-05-24T08:38:43Z</time>
      </trkpt>
      <trkpt lat="46.14124" lon="5.60649">
        <ele>745.5</ele>
        <time>2020-05-24T08:38:44Z</time>
      </trkpt>
      <trkpt lat="46.14124" lon="5.6065">
        <ele>745.6</ele>
        <time>2020-05-24T08:38:45Z</time>
      </trkpt>
      <trkpt lat="46.14124" lon="5.60652">
        <ele>745.7</ele>
        <time>2020-05-24T08:38:47Z</time>
      </trkpt>
      <trkpt lat="46.14124" lon="5.60654">
        <ele>745.9</ele>
        <time>2020-05-24T08:38:48Z</time>
      </trkpt>
      <trkpt lat="46.14124" lon="5.60657">
        <ele>746.1</ele>
        <time>2020-05-24T08:38:50Z</time>
      </trkpt>
      <trkpt lat="46.14123" lon="5.6066">
        <ele>746.3</ele>
        <time>2020-05-24T08:38:51Z</time>
      </trkpt>
      <trkpt lat="46.14124" lon="5.60661">
        <ele>746.4</ele>
        <time>2020-05-24T08:38:52Z</time>
      </trkpt>
      <trkpt lat="46.14124" lon="5.60662">
        <ele>746.5</ele>
        <time>2020-05-24T08:38:53Z</time>
      </trkpt>
      <trkpt lat="46.14124" lon="5.60663">
        <ele>746.6</ele>
        <time>2020-05-24T08:38:54Z</time>
      </trkpt>
      <trkpt lat="46.14123" lon="5.60665">
        <ele>746.7</ele>
        <time>2020-05-24T08:38:56Z</time>
      </trkpt>
      <trkpt lat="46.14123" lon="5.60667">
        <ele>746.9</ele>
        <time>2020-05-24T08:38:57Z</time>
      </trkpt>
      <trkpt lat="46.14123" lon="5.60669">
        <ele>747</ele>
        <time>2020-05-24T08:38:58Z</time>
      </trkpt>
      <trkpt lat="46.14122" lon="5.6067">
        <ele>747.2</ele>
        <time>2020-05-24T08:38:59Z</time>
      </trkpt>
      <trkpt lat="46.14122" lon="5.60673">
        <ele>747.4</ele>
        <time>2020-05-24T08:39:01Z</time>
      </trkpt>
      <trkpt lat="46.14121" lon="5.60675">
        <ele>747.6</ele>
        <time>2020-05-24T08:39:03Z</time>
      </trkpt>
      <trkpt lat="46.14121" lon="5.60677">
        <ele>747.7</ele>
        <time>2020-05-24T08:39:04Z</time>
      </trkpt>
      <trkpt lat="46.1412" lon="5.60678">
        <ele>747.8</ele>
        <time>2020-05-24T08:39:05Z</time>
      </trkpt>
      <trkpt lat="46.1412" lon="5.6068">
        <ele>748</ele>
        <time>2020-05-24T08:39:07Z</time>
      </trkpt>
      <trkpt lat="46.1412" lon="5.60681">
        <ele>748.1</ele>
        <time>2020-05-24T08:39:08Z</time>
      </trkpt>
      <trkpt lat="46.1412" lon="5.60682">
        <ele>748.1</ele>
        <time>2020-05-24T08:39:09Z</time>
      </trkpt>
      <trkpt lat="46.14119" lon="5.60684">
        <ele>748.3</ele>
        <time>2020-05-24T08:39:11Z</time>
      </trkpt>
      <trkpt lat="46.14119" lon="5.60685">
        <ele>748.4</ele>
        <time>2020-05-24T08:39:12Z</time>
      </trkpt>
      <trkpt lat="46.14119" lon="5.6069">
        <ele>748.7</ele>
        <time>2020-05-24T08:39:14Z</time>
      </trkpt>
      <trkpt lat="46.14118" lon="5.60692">
        <ele>748.9</ele>
        <time>2020-05-24T08:39:16Z</time>
      </trkpt>
      <trkpt lat="46.14118" lon="5.60693">
        <ele>749</ele>
        <time>2020-05-24T08:39:17Z</time>
      </trkpt>
      <trkpt lat="46.14117" lon="5.60694">
        <ele>749.1</ele>
        <time>2020-05-24T08:39:18Z</time>
      </trkpt>
      <trkpt lat="46.14116" lon="5.60696">
        <ele>749.3</ele>
        <time>2020-05-24T08:39:20Z</time>
      </trkpt>
      <trkpt lat="46.14115" lon="5.60697">
        <ele>749.5</ele>
        <time>2020-05-24T08:39:21Z</time>
      </trkpt>
      <trkpt lat="46.14113" lon="5.607">
        <ele>749.8</ele>
        <time>2020-05-24T08:39:22Z</time>
      </trkpt>
      <trkpt lat="46.14111" lon="5.60702">
        <ele>750</ele>
        <time>2020-05-24T08:39:24Z</time>
      </trkpt>
      <trkpt lat="46.1411" lon="5.60704">
        <ele>750.2</ele>
        <time>2020-05-24T08:39:26Z</time>
      </trkpt>
      <trkpt lat="46.14108" lon="5.60706">
        <ele>750.5</ele>
        <time>2020-05-24T08:39:27Z</time>
      </trkpt>
      <trkpt lat="46.14107" lon="5.60706">
        <ele>750.6</ele>
        <time>2020-05-24T08:39:29Z</time>
      </trkpt>
      <trkpt lat="46.14106" lon="5.60707">
        <ele>750.7</ele>
        <time>2020-05-24T08:39:30Z</time>
      </trkpt>
      <trkpt lat="46.14105" lon="5.60707">
        <ele>750.8</ele>
        <time>2020-05-24T08:39:32Z</time>
      </trkpt>
      <trkpt lat="46.14104" lon="5.60709">
        <ele>751</ele>
        <time>2020-05-24T08:39:33Z</time>
      </trkpt>
      <trkpt lat="46.14102" lon="5.60711">
        <ele>751.2</ele>
        <time>2020-05-24T08:39:35Z</time>
      </trkpt>
      <trkpt lat="46.14101" lon="5.60713">
        <ele>751.4</ele>
        <time>2020-05-24T08:39:36Z</time>
      </trkpt>
      <trkpt lat="46.141" lon="5.60714">
        <ele>751.6</ele>
        <time>2020-05-24T08:39:37Z</time>
      </trkpt>
      <trkpt lat="46.14099" lon="5.60715">
        <ele>751.7</ele>
        <time>2020-05-24T08:39:38Z</time>
      </trkpt>
      <trkpt lat="46.14099" lon="5.60715">
        <ele>751.8</ele>
        <time>2020-05-24T08:39:40Z</time>
      </trkpt>
      <trkpt lat="46.14098" lon="5.60716">
        <ele>751.9</ele>
        <time>2020-05-24T08:39:41Z</time>
      </trkpt>
      <trkpt lat="46.14097" lon="5.60718">
        <ele>752</ele>
        <time>2020-05-24T08:39:42Z</time>
      </trkpt>
      <trkpt lat="46.14096" lon="5.60719">
        <ele>752.2</ele>
        <time>2020-05-24T08:39:44Z</time>
      </trkpt>
      <trkpt lat="46.14095" lon="5.60721">
        <ele>752.4</ele>
        <time>2020-05-24T08:39:45Z</time>
      </trkpt>
      <trkpt lat="46.14093" lon="5.60723">
        <ele>752.6</ele>
        <time>2020-05-24T08:39:46Z</time>
      </trkpt>
      <trkpt lat="46.14092" lon="5.60724">
        <ele>752.8</ele>
        <time>2020-05-24T08:39:47Z</time>
      </trkpt>
      <trkpt lat="46.1409" lon="5.60727">
        <ele>753.1</ele>
        <time>2020-05-24T08:39:49Z</time>
      </trkpt>
      <trkpt lat="46.14089" lon="5.60728">
        <ele>753.2</ele>
        <time>2020-05-24T08:39:50Z</time>
      </trkpt>
      <trkpt lat="46.14088" lon="5.6073">
        <ele>753.4</ele>
        <time>2020-05-24T08:39:51Z</time>
      </trkpt>
      <trkpt lat="46.14087" lon="5.60731">
        <ele>753.5</ele>
        <time>2020-05-24T08:39:53Z</time>
      </trkpt>
      <trkpt lat="46.14086" lon="5.60732">
        <ele>753.7</ele>
        <time>2020-05-24T08:39:54Z</time>
      </trkpt>
      <trkpt lat="46.14085" lon="5.60733">
        <ele>753.8</ele>
        <time>2020-05-24T08:39:55Z</time>
      </trkpt>
      <trkpt lat="46.14085" lon="5.60734">
        <ele>753.9</ele>
        <time>2020-05-24T08:39:56Z</time>
      </trkpt>
      <trkpt lat="46.14083" lon="5.60735">
        <ele>754</ele>
        <time>2020-05-24T08:39:58Z</time>
      </trkpt>
      <trkpt lat="46.14082" lon="5.60737">
        <ele>754.2</ele>
        <time>2020-05-24T08:39:59Z</time>
      </trkpt>
      <trkpt lat="46.14081" lon="5.60739">
        <ele>754.4</ele>
        <time>2020-05-24T08:40:01Z</time>
      </trkpt>
      <trkpt lat="46.1408" lon="5.60741">
        <ele>754.6</ele>
        <time>2020-05-24T08:40:03Z</time>
      </trkpt>
      <trkpt lat="46.1408" lon="5.60741">
        <ele>754.6</ele>
        <time>2020-05-24T08:40:04Z</time>
      </trkpt>
      <trkpt lat="46.14081" lon="5.60742">
        <ele>754.7</ele>
        <time>2020-05-24T08:40:06Z</time>
      </trkpt>
      <trkpt lat="46.14081" lon="5.60743">
        <ele>754.7</ele>
        <time>2020-05-24T08:40:08Z</time>
      </trkpt>
      <trkpt lat="46.14081" lon="5.60744">
        <ele>754.8</ele>
        <time>2020-05-24T08:40:09Z</time>
      </trkpt>
      <trkpt lat="46.1408" lon="5.60746">
        <ele>755</ele>
        <time>2020-05-24T08:40:11Z</time>
      </trkpt>
      <trkpt lat="46.1408" lon="5.60748">
        <ele>755.2</ele>
        <time>2020-05-24T08:40:12Z</time>
      </trkpt>
      <trkpt lat="46.14079" lon="5.60751">
        <ele>755.4</ele>
        <time>2020-05-24T08:40:14Z</time>
      </trkpt>
      <trkpt lat="46.14078" lon="5.60753">
        <ele>755.6</ele>
        <time>2020-05-24T08:40:15Z</time>
      </trkpt>
      <trkpt lat="46.14078" lon="5.60754">
        <ele>755.7</ele>
        <time>2020-05-24T08:40:16Z</time>
      </trkpt>
      <trkpt lat="46.14077" lon="5.60755">
        <ele>755.8</ele>
        <time>2020-05-24T08:40:17Z</time>
      </trkpt>
      <trkpt lat="46.14076" lon="5.60757">
        <ele>756</ele>
        <time>2020-05-24T08:40:19Z</time>
      </trkpt>
      <trkpt lat="46.14076" lon="5.60759">
        <ele>756.1</ele>
        <time>2020-05-24T08:40:20Z</time>
      </trkpt>
      <trkpt lat="46.14075" lon="5.6076">
        <ele>756.3</ele>
        <time>2020-05-24T08:40:21Z</time>
      </trkpt>
      <trkpt lat="46.14074" lon="5.60762">
        <ele>756.5</ele>
        <time>2020-05-24T08:40:23Z</time>
      </trkpt>
      <trkpt lat="46.14072" lon="5.60768">
        <ele>756.9</ele>
        <time>2020-05-24T08:40:24Z</time>
      </trkpt>
      <trkpt lat="46.14071" lon="5.6077">
        <ele>757.2</ele>
        <time>2020-05-24T08:40:25Z</time>
      </trkpt>
      <trkpt lat="46.1407" lon="5.60771">
        <ele>757.3</ele>
        <time>2020-05-24T08:40:26Z</time>
      </trkpt>
      <trkpt lat="46.14069" lon="5.60772">
        <ele>757.4</ele>
        <time>2020-05-24T08:40:27Z</time>
      </trkpt>
      <trkpt lat="46.14069" lon="5.60774">
        <ele>757.5</ele>
        <time>2020-05-24T08:40:29Z</time>
      </trkpt>
      <trkpt lat="46.14068" lon="5.60775">
        <ele>757.7</ele>
        <time>2020-05-24T08:40:30Z</time>
      </trkpt>
      <trkpt lat="46.14067" lon="5.60777">
        <ele>757.8</ele>
        <time>2020-05-24T08:40:31Z</time>
      </trkpt>
      <trkpt lat="46.14065" lon="5.6078">
        <ele>758.2</ele>
        <time>2020-05-24T08:40:33Z</time>
      </trkpt>
      <trkpt lat="46.14064" lon="5.60781">
        <ele>758.3</ele>
        <time>2020-05-24T08:40:34Z</time>
      </trkpt>
      <trkpt lat="46.14062" lon="5.60784">
        <ele>758.6</ele>
        <time>2020-05-24T08:40:36Z</time>
      </trkpt>
      <trkpt lat="46.1406" lon="5.60788">
        <ele>759</ele>
        <time>2020-05-24T08:40:37Z</time>
      </trkpt>
      <trkpt lat="46.14059" lon="5.60789">
        <ele>759.1</ele>
        <time>2020-05-24T08:40:39Z</time>
      </trkpt>
      <trkpt lat="46.14057" lon="5.60789">
        <ele>759.3</ele>
        <time>2020-05-24T08:40:40Z</time>
      </trkpt>
      <trkpt lat="46.14056" lon="5.6079">
        <ele>759.5</ele>
        <time>2020-05-24T08:40:41Z</time>
      </trkpt>
      <trkpt lat="46.14055" lon="5.60791">
        <ele>759.6</ele>
        <time>2020-05-24T08:40:42Z</time>
      </trkpt>
      <trkpt lat="46.14054" lon="5.60793">
        <ele>759.7</ele>
        <time>2020-05-24T08:40:44Z</time>
      </trkpt>
      <trkpt lat="46.14053" lon="5.60794">
        <ele>759.9</ele>
        <time>2020-05-24T08:40:45Z</time>
      </trkpt>
      <trkpt lat="46.14052" lon="5.60795">
        <ele>760.1</ele>
        <time>2020-05-24T08:40:47Z</time>
      </trkpt>
      <trkpt lat="46.1405" lon="5.60796">
        <ele>760.2</ele>
        <time>2020-05-24T08:40:48Z</time>
      </trkpt>
      <trkpt lat="46.14049" lon="5.60797">
        <ele>760.4</ele>
        <time>2020-05-24T08:40:49Z</time>
      </trkpt>
      <trkpt lat="46.14047" lon="5.60799">
        <ele>760.7</ele>
        <time>2020-05-24T08:40:50Z</time>
      </trkpt>
      <trkpt lat="46.14046" lon="5.608">
        <ele>760.8</ele>
        <time>2020-05-24T08:40:52Z</time>
      </trkpt>
      <trkpt lat="46.14045" lon="5.60802">
        <ele>761</ele>
        <time>2020-05-24T08:40:53Z</time>
      </trkpt>
      <trkpt lat="46.14043" lon="5.60805">
        <ele>761.3</ele>
        <time>2020-05-24T08:40:55Z</time>
      </trkpt>
      <trkpt lat="46.14042" lon="5.60805">
        <ele>761.4</ele>
        <time>2020-05-24T08:40:56Z</time>
      </trkpt>
      <trkpt lat="46.1404" lon="5.60808">
        <ele>761.7</ele>
        <time>2020-05-24T08:40:57Z</time>
      </trkpt>
      <trkpt lat="46.14039" lon="5.6081">
        <ele>761.9</ele>
        <time>2020-05-24T08:40:59Z</time>
      </trkpt>
      <trkpt lat="46.14038" lon="5.60811">
        <ele>762.1</ele>
        <time>2020-05-24T08:41:00Z</time>
      </trkpt>
      <trkpt lat="46.14037" lon="5.60813">
        <ele>762.2</ele>
        <time>2020-05-24T08:41:01Z</time>
      </trkpt>
      <trkpt lat="46.14036" lon="5.60814">
        <ele>762.4</ele>
        <time>2020-05-24T08:41:02Z</time>
      </trkpt>
      <trkpt lat="46.14035" lon="5.60815">
        <ele>762.5</ele>
        <time>2020-05-24T08:41:04Z</time>
      </trkpt>
      <trkpt lat="46.14035" lon="5.60816">
        <ele>762.6</ele>
        <time>2020-05-24T08:41:05Z</time>
      </trkpt>
      <trkpt lat="46.14034" lon="5.60818">
        <ele>762.8</ele>
        <time>2020-05-24T08:41:06Z</time>
      </trkpt>
      <trkpt lat="46.14033" lon="5.6082">
        <ele>762.9</ele>
        <time>2020-05-24T08:41:07Z</time>
      </trkpt>
      <trkpt lat="46.14032" lon="5.60822">
        <ele>763.1</ele>
        <time>2020-05-24T08:41:08Z</time>
      </trkpt>
      <trkpt lat="46.14031" lon="5.60825">
        <ele>763.4</ele>
        <time>2020-05-24T08:41:10Z</time>
      </trkpt>
      <trkpt lat="46.1403" lon="5.60828">
        <ele>763.6</ele>
        <time>2020-05-24T08:41:11Z</time>
      </trkpt>
      <trkpt lat="46.14027" lon="5.60833">
        <ele>764.1</ele>
        <time>2020-05-24T08:41:13Z</time>
      </trkpt>
      <trkpt lat="46.14027" lon="5.60834">
        <ele>764.2</ele>
        <time>2020-05-24T08:41:14Z</time>
      </trkpt>
      <trkpt lat="46.14027" lon="5.60836">
        <ele>764.3</ele>
        <time>2020-05-24T08:41:15Z</time>
      </trkpt>
      <trkpt lat="46.14026" lon="5.60837">
        <ele>764.5</ele>
        <time>2020-05-24T08:41:16Z</time>
      </trkpt>
      <trkpt lat="46.14025" lon="5.60839">
        <ele>764.6</ele>
        <time>2020-05-24T08:41:18Z</time>
      </trkpt>
      <trkpt lat="46.14024" lon="5.6084">
        <ele>764.8</ele>
        <time>2020-05-24T08:41:19Z</time>
      </trkpt>
      <trkpt lat="46.14023" lon="5.60841">
        <ele>764.9</ele>
        <time>2020-05-24T08:41:20Z</time>
      </trkpt>
      <trkpt lat="46.14022" lon="5.60843">
        <ele>765.1</ele>
        <time>2020-05-24T08:41:21Z</time>
      </trkpt>
      <trkpt lat="46.14021" lon="5.60845">
        <ele>765.3</ele>
        <time>2020-05-24T08:41:23Z</time>
      </trkpt>
      <trkpt lat="46.1402" lon="5.60847">
        <ele>765.5</ele>
        <time>2020-05-24T08:41:24Z</time>
      </trkpt>
      <trkpt lat="46.14018" lon="5.6085">
        <ele>765.8</ele>
        <time>2020-05-24T08:41:26Z</time>
      </trkpt>
      <trkpt lat="46.14018" lon="5.60852">
        <ele>765.9</ele>
        <time>2020-05-24T08:41:27Z</time>
      </trkpt>
      <trkpt lat="46.14017" lon="5.60854">
        <ele>766.1</ele>
        <time>2020-05-24T08:41:28Z</time>
      </trkpt>
      <trkpt lat="46.14016" lon="5.60856">
        <ele>766.3</ele>
        <time>2020-05-24T08:41:30Z</time>
      </trkpt>
      <trkpt lat="46.14015" lon="5.60857">
        <ele>766.4</ele>
        <time>2020-05-24T08:41:31Z</time>
      </trkpt>
      <trkpt lat="46.14014" lon="5.6086">
        <ele>766.7</ele>
        <time>2020-05-24T08:41:32Z</time>
      </trkpt>
      <trkpt lat="46.14013" lon="5.60862">
        <ele>766.8</ele>
        <time>2020-05-24T08:41:33Z</time>
      </trkpt>
      <trkpt lat="46.14011" lon="5.60864">
        <ele>767.1</ele>
        <time>2020-05-24T08:41:35Z</time>
      </trkpt>
      <trkpt lat="46.1401" lon="5.60865">
        <ele>767.2</ele>
        <time>2020-05-24T08:41:36Z</time>
      </trkpt>
      <trkpt lat="46.1401" lon="5.60866">
        <ele>767.3</ele>
        <time>2020-05-24T08:41:37Z</time>
      </trkpt>
      <trkpt lat="46.14009" lon="5.60866">
        <ele>767.4</ele>
        <time>2020-05-24T08:41:38Z</time>
      </trkpt>
      <trkpt lat="46.14009" lon="5.60867">
        <ele>767.4</ele>
        <time>2020-05-24T08:41:39Z</time>
      </trkpt>
      <trkpt lat="46.14008" lon="5.60867">
        <ele>767.5</ele>
        <time>2020-05-24T08:41:40Z</time>
      </trkpt>
      <trkpt lat="46.14007" lon="5.60869">
        <ele>767.7</ele>
        <time>2020-05-24T08:41:42Z</time>
      </trkpt>
      <trkpt lat="46.14006" lon="5.6087">
        <ele>767.8</ele>
        <time>2020-05-24T08:41:43Z</time>
      </trkpt>
      <trkpt lat="46.14005" lon="5.60871">
        <ele>768</ele>
        <time>2020-05-24T08:41:45Z</time>
      </trkpt>
      <trkpt lat="46.14004" lon="5.60872">
        <ele>768.1</ele>
        <time>2020-05-24T08:41:46Z</time>
      </trkpt>
      <trkpt lat="46.14004" lon="5.60873">
        <ele>768.2</ele>
        <time>2020-05-24T08:41:47Z</time>
      </trkpt>
      <trkpt lat="46.14002" lon="5.60875">
        <ele>768.4</ele>
        <time>2020-05-24T08:41:49Z</time>
      </trkpt>
      <trkpt lat="46.14002" lon="5.60876">
        <ele>768.5</ele>
        <time>2020-05-24T08:41:50Z</time>
      </trkpt>
      <trkpt lat="46.14002" lon="5.60877">
        <ele>768.5</ele>
        <time>2020-05-24T08:41:51Z</time>
      </trkpt>
      <trkpt lat="46.14001" lon="5.60878">
        <ele>768.7</ele>
        <time>2020-05-24T08:41:52Z</time>
      </trkpt>
      <trkpt lat="46.14" lon="5.60879">
        <ele>768.8</ele>
        <time>2020-05-24T08:41:53Z</time>
      </trkpt>
      <trkpt lat="46.13999" lon="5.60881">
        <ele>769</ele>
        <time>2020-05-24T08:41:55Z</time>
      </trkpt>
      <trkpt lat="46.13997" lon="5.60882">
        <ele>769.2</ele>
        <time>2020-05-24T08:41:56Z</time>
      </trkpt>
      <trkpt lat="46.13995" lon="5.60885">
        <ele>769.5</ele>
        <time>2020-05-24T08:41:58Z</time>
      </trkpt>
      <trkpt lat="46.13994" lon="5.60885">
        <ele>769.6</ele>
        <time>2020-05-24T08:41:59Z</time>
      </trkpt>
      <trkpt lat="46.13992" lon="5.60886">
        <ele>769.8</ele>
        <time>2020-05-24T08:42:00Z</time>
      </trkpt>
      <trkpt lat="46.13992" lon="5.60887">
        <ele>770</ele>
        <time>2020-05-24T08:42:01Z</time>
      </trkpt>
      <trkpt lat="46.13991" lon="5.60888">
        <ele>770.1</ele>
        <time>2020-05-24T08:42:03Z</time>
      </trkpt>
      <trkpt lat="46.13989" lon="5.60889">
        <ele>770.3</ele>
        <time>2020-05-24T08:42:04Z</time>
      </trkpt>
      <trkpt lat="46.13988" lon="5.6089">
        <ele>770.4</ele>
        <time>2020-05-24T08:42:05Z</time>
      </trkpt>
      <trkpt lat="46.13987" lon="5.60891">
        <ele>770.6</ele>
        <time>2020-05-24T08:42:07Z</time>
      </trkpt>
      <trkpt lat="46.13986" lon="5.60893">
        <ele>770.8</ele>
        <time>2020-05-24T08:42:09Z</time>
      </trkpt>
      <trkpt lat="46.13984" lon="5.60894">
        <ele>770.9</ele>
        <time>2020-05-24T08:42:10Z</time>
      </trkpt>
      <trkpt lat="46.13982" lon="5.60896">
        <ele>771.3</ele>
        <time>2020-05-24T08:42:12Z</time>
      </trkpt>
      <trkpt lat="46.1398" lon="5.60898">
        <ele>771.5</ele>
        <time>2020-05-24T08:42:13Z</time>
      </trkpt>
      <trkpt lat="46.13979" lon="5.60899">
        <ele>771.6</ele>
        <time>2020-05-24T08:42:15Z</time>
      </trkpt>
      <trkpt lat="46.13979" lon="5.609">
        <ele>771.7</ele>
        <time>2020-05-24T08:42:16Z</time>
      </trkpt>
      <trkpt lat="46.13976" lon="5.60902">
        <ele>772</ele>
        <time>2020-05-24T08:42:18Z</time>
      </trkpt>
      <trkpt lat="46.13975" lon="5.60903">
        <ele>772.1</ele>
        <time>2020-05-24T08:42:19Z</time>
      </trkpt>
      <trkpt lat="46.13973" lon="5.60904">
        <ele>772.3</ele>
        <time>2020-05-24T08:42:20Z</time>
      </trkpt>
      <trkpt lat="46.13972" lon="5.60905">
        <ele>772.6</ele>
        <time>2020-05-24T08:42:22Z</time>
      </trkpt>
      <trkpt lat="46.1397" lon="5.60906">
        <ele>772.7</ele>
        <time>2020-05-24T08:42:23Z</time>
      </trkpt>
      <trkpt lat="46.13968" lon="5.60909">
        <ele>773.1</ele>
        <time>2020-05-24T08:42:25Z</time>
      </trkpt>
      <trkpt lat="46.13967" lon="5.6091">
        <ele>773.2</ele>
        <time>2020-05-24T08:42:26Z</time>
      </trkpt>
      <trkpt lat="46.13965" lon="5.60913">
        <ele>773.5</ele>
        <time>2020-05-24T08:42:28Z</time>
      </trkpt>
      <trkpt lat="46.13963" lon="5.60915">
        <ele>773.8</ele>
        <time>2020-05-24T08:42:30Z</time>
      </trkpt>
      <trkpt lat="46.13962" lon="5.60916">
        <ele>773.9</ele>
        <time>2020-05-24T08:42:31Z</time>
      </trkpt>
      <trkpt lat="46.1396" lon="5.60919">
        <ele>774.2</ele>
        <time>2020-05-24T08:42:33Z</time>
      </trkpt>
      <trkpt lat="46.13959" lon="5.6092">
        <ele>774.3</ele>
        <time>2020-05-24T08:42:34Z</time>
      </trkpt>
      <trkpt lat="46.13958" lon="5.60921">
        <ele>774.5</ele>
        <time>2020-05-24T08:42:35Z</time>
      </trkpt>
      <trkpt lat="46.13955" lon="5.60924">
        <ele>774.9</ele>
        <time>2020-05-24T08:42:37Z</time>
      </trkpt>
      <trkpt lat="46.13954" lon="5.60927">
        <ele>775.1</ele>
        <time>2020-05-24T08:42:38Z</time>
      </trkpt>
      <trkpt lat="46.13953" lon="5.60927">
        <ele>775.2</ele>
        <time>2020-05-24T08:42:39Z</time>
      </trkpt>
      <trkpt lat="46.13953" lon="5.60928">
        <ele>775.3</ele>
        <time>2020-05-24T08:42:40Z</time>
      </trkpt>
      <trkpt lat="46.13951" lon="5.6093">
        <ele>775.5</ele>
        <time>2020-05-24T08:42:41Z</time>
      </trkpt>
      <trkpt lat="46.1395" lon="5.60932">
        <ele>775.8</ele>
        <time>2020-05-24T08:42:43Z</time>
      </trkpt>
      <trkpt lat="46.13949" lon="5.60934">
        <ele>775.9</ele>
        <time>2020-05-24T08:42:44Z</time>
      </trkpt>
      <trkpt lat="46.13948" lon="5.60936">
        <ele>776.1</ele>
        <time>2020-05-24T08:42:45Z</time>
      </trkpt>
      <trkpt lat="46.13946" lon="5.60939">
        <ele>776.5</ele>
        <time>2020-05-24T08:42:47Z</time>
      </trkpt>
      <trkpt lat="46.13945" lon="5.60941">
        <ele>776.6</ele>
        <time>2020-05-24T08:42:48Z</time>
      </trkpt>
      <trkpt lat="46.13944" lon="5.60941">
        <ele>776.7</ele>
        <time>2020-05-24T08:42:49Z</time>
      </trkpt>
      <trkpt lat="46.13943" lon="5.60943">
        <ele>776.9</ele>
        <time>2020-05-24T08:42:51Z</time>
      </trkpt>
      <trkpt lat="46.13941" lon="5.60944">
        <ele>777.1</ele>
        <time>2020-05-24T08:42:52Z</time>
      </trkpt>
      <trkpt lat="46.1394" lon="5.60946">
        <ele>777.2</ele>
        <time>2020-05-24T08:42:53Z</time>
      </trkpt>
      <trkpt lat="46.13939" lon="5.60947">
        <ele>777.4</ele>
        <time>2020-05-24T08:42:54Z</time>
      </trkpt>
      <trkpt lat="46.13939" lon="5.60948">
        <ele>777.5</ele>
        <time>2020-05-24T08:42:55Z</time>
      </trkpt>
      <trkpt lat="46.13937" lon="5.6095">
        <ele>777.8</ele>
        <time>2020-05-24T08:42:57Z</time>
      </trkpt>
      <trkpt lat="46.13936" lon="5.60952">
        <ele>777.9</ele>
        <time>2020-05-24T08:42:58Z</time>
      </trkpt>
      <trkpt lat="46.13934" lon="5.60954">
        <ele>778.2</ele>
        <time>2020-05-24T08:43:00Z</time>
      </trkpt>
      <trkpt lat="46.13932" lon="5.60957">
        <ele>778.5</ele>
        <time>2020-05-24T08:43:01Z</time>
      </trkpt>
      <trkpt lat="46.13932" lon="5.60958">
        <ele>778.6</ele>
        <time>2020-05-24T08:43:02Z</time>
      </trkpt>
      <trkpt lat="46.13932" lon="5.60959">
        <ele>778.6</ele>
        <time>2020-05-24T08:43:03Z</time>
      </trkpt>
      <trkpt lat="46.1393" lon="5.60961">
        <ele>778.9</ele>
        <time>2020-05-24T08:43:05Z</time>
      </trkpt>
      <trkpt lat="46.13929" lon="5.60962">
        <ele>779</ele>
        <time>2020-05-24T08:43:06Z</time>
      </trkpt>
      <trkpt lat="46.13928" lon="5.60963">
        <ele>779.2</ele>
        <time>2020-05-24T08:43:07Z</time>
      </trkpt>
      <trkpt lat="46.13927" lon="5.60964">
        <ele>779.3</ele>
        <time>2020-05-24T08:43:09Z</time>
      </trkpt>
      <trkpt lat="46.13926" lon="5.60965">
        <ele>779.4</ele>
        <time>2020-05-24T08:43:10Z</time>
      </trkpt>
      <trkpt lat="46.13924" lon="5.60967">
        <ele>779.7</ele>
        <time>2020-05-24T08:43:12Z</time>
      </trkpt>
      <trkpt lat="46.13923" lon="5.60969">
        <ele>779.9</ele>
        <time>2020-05-24T08:43:14Z</time>
      </trkpt>
      <trkpt lat="46.13922" lon="5.6097">
        <ele>780</ele>
        <time>2020-05-24T08:43:15Z</time>
      </trkpt>
      <trkpt lat="46.13921" lon="5.60971">
        <ele>780.1</ele>
        <time>2020-05-24T08:43:16Z</time>
      </trkpt>
      <trkpt lat="46.1392" lon="5.60972">
        <ele>780.3</ele>
        <time>2020-05-24T08:43:17Z</time>
      </trkpt>
      <trkpt lat="46.13919" lon="5.60973">
        <ele>780.4</ele>
        <time>2020-05-24T08:43:18Z</time>
      </trkpt>
      <trkpt lat="46.13919" lon="5.60974">
        <ele>780.5</ele>
        <time>2020-05-24T08:43:19Z</time>
      </trkpt>
      <trkpt lat="46.13918" lon="5.60976">
        <ele>780.7</ele>
        <time>2020-05-24T08:43:21Z</time>
      </trkpt>
      <trkpt lat="46.13916" lon="5.60978">
        <ele>780.9</ele>
        <time>2020-05-24T08:43:22Z</time>
      </trkpt>
      <trkpt lat="46.13914" lon="5.60982">
        <ele>781.3</ele>
        <time>2020-05-24T08:43:24Z</time>
      </trkpt>
      <trkpt lat="46.13914" lon="5.60983">
        <ele>781.4</ele>
        <time>2020-05-24T08:43:25Z</time>
      </trkpt>
      <trkpt lat="46.13914" lon="5.60984">
        <ele>781.5</ele>
        <time>2020-05-24T08:43:27Z</time>
      </trkpt>
      <trkpt lat="46.13913" lon="5.60986">
        <ele>781.6</ele>
        <time>2020-05-24T08:43:28Z</time>
      </trkpt>
      <trkpt lat="46.13913" lon="5.60988">
        <ele>781.8</ele>
        <time>2020-05-24T08:43:29Z</time>
      </trkpt>
      <trkpt lat="46.13912" lon="5.60989">
        <ele>781.9</ele>
        <time>2020-05-24T08:43:30Z</time>
      </trkpt>
      <trkpt lat="46.13912" lon="5.6099">
        <ele>782</ele>
        <time>2020-05-24T08:43:31Z</time>
      </trkpt>
      <trkpt lat="46.13911" lon="5.60992">
        <ele>782.2</ele>
        <time>2020-05-24T08:43:32Z</time>
      </trkpt>
      <trkpt lat="46.1391" lon="5.60994">
        <ele>782.3</ele>
        <time>2020-05-24T08:43:34Z</time>
      </trkpt>
      <trkpt lat="46.13909" lon="5.60996">
        <ele>782.5</ele>
        <time>2020-05-24T08:43:35Z</time>
      </trkpt>
      <trkpt lat="46.13909" lon="5.60997">
        <ele>782.6</ele>
        <time>2020-05-24T08:43:36Z</time>
      </trkpt>
      <trkpt lat="46.13908" lon="5.60999">
        <ele>782.8</ele>
        <time>2020-05-24T08:43:37Z</time>
      </trkpt>
      <trkpt lat="46.13907" lon="5.61">
        <ele>782.9</ele>
        <time>2020-05-24T08:43:38Z</time>
      </trkpt>
      <trkpt lat="46.13906" lon="5.61003">
        <ele>783.2</ele>
        <time>2020-05-24T08:43:40Z</time>
      </trkpt>
      <trkpt lat="46.13905" lon="5.61005">
        <ele>783.3</ele>
        <time>2020-05-24T08:43:41Z</time>
      </trkpt>
      <trkpt lat="46.13904" lon="5.61006">
        <ele>783.5</ele>
        <time>2020-05-24T08:43:42Z</time>
      </trkpt>
      <trkpt lat="46.13903" lon="5.61008">
        <ele>783.7</ele>
        <time>2020-05-24T08:43:44Z</time>
      </trkpt>
      <trkpt lat="46.13901" lon="5.6101">
        <ele>783.9</ele>
        <time>2020-05-24T08:43:45Z</time>
      </trkpt>
      <trkpt lat="46.13899" lon="5.61014">
        <ele>784.4</ele>
        <time>2020-05-24T08:43:47Z</time>
      </trkpt>
      <trkpt lat="46.13897" lon="5.61017">
        <ele>784.6</ele>
        <time>2020-05-24T08:43:49Z</time>
      </trkpt>
      <trkpt lat="46.13897" lon="5.61017">
        <ele>784.7</ele>
        <time>2020-05-24T08:43:50Z</time>
      </trkpt>
      <trkpt lat="46.13896" lon="5.61018">
        <ele>784.8</ele>
        <time>2020-05-24T08:43:51Z</time>
      </trkpt>
      <trkpt lat="46.13895" lon="5.61019">
        <ele>784.9</ele>
        <time>2020-05-24T08:43:52Z</time>
      </trkpt>
      <trkpt lat="46.13895" lon="5.6102">
        <ele>785</ele>
        <time>2020-05-24T08:43:53Z</time>
      </trkpt>
      <trkpt lat="46.13894" lon="5.61022">
        <ele>785.1</ele>
        <time>2020-05-24T08:43:54Z</time>
      </trkpt>
      <trkpt lat="46.13891" lon="5.61024">
        <ele>785.5</ele>
        <time>2020-05-24T08:43:56Z</time>
      </trkpt>
      <trkpt lat="46.13891" lon="5.61026">
        <ele>785.6</ele>
        <time>2020-05-24T08:43:58Z</time>
      </trkpt>
      <trkpt lat="46.13889" lon="5.61029">
        <ele>785.9</ele>
        <time>2020-05-24T08:43:59Z</time>
      </trkpt>
      <trkpt lat="46.13888" lon="5.6103">
        <ele>786</ele>
        <time>2020-05-24T08:44:00Z</time>
      </trkpt>
      <trkpt lat="46.13887" lon="5.61032">
        <ele>786.3</ele>
        <time>2020-05-24T08:44:01Z</time>
      </trkpt>
      <trkpt lat="46.13886" lon="5.61034">
        <ele>786.4</ele>
        <time>2020-05-24T08:44:02Z</time>
      </trkpt>
      <trkpt lat="46.13885" lon="5.61036">
        <ele>786.6</ele>
        <time>2020-05-24T08:44:04Z</time>
      </trkpt>
      <trkpt lat="46.13883" lon="5.61038">
        <ele>786.8</ele>
        <time>2020-05-24T08:44:05Z</time>
      </trkpt>
      <trkpt lat="46.13882" lon="5.61039">
        <ele>787</ele>
        <time>2020-05-24T08:44:06Z</time>
      </trkpt>
      <trkpt lat="46.13881" lon="5.6104">
        <ele>787.1</ele>
        <time>2020-05-24T08:44:07Z</time>
      </trkpt>
      <trkpt lat="46.1388" lon="5.61042">
        <ele>787.4</ele>
        <time>2020-05-24T08:44:09Z</time>
      </trkpt>
      <trkpt lat="46.13879" lon="5.61044">
        <ele>787.6</ele>
        <time>2020-05-24T08:44:10Z</time>
      </trkpt>
      <trkpt lat="46.13877" lon="5.61046">
        <ele>787.8</ele>
        <time>2020-05-24T08:44:12Z</time>
      </trkpt>
      <trkpt lat="46.13876" lon="5.61047">
        <ele>787.9</ele>
        <time>2020-05-24T08:44:13Z</time>
      </trkpt>
      <trkpt lat="46.13876" lon="5.61049">
        <ele>788</ele>
        <time>2020-05-24T08:44:14Z</time>
      </trkpt>
      <trkpt lat="46.13874" lon="5.6105">
        <ele>788.2</ele>
        <time>2020-05-24T08:44:16Z</time>
      </trkpt>
      <trkpt lat="46.13873" lon="5.61052">
        <ele>788.5</ele>
        <time>2020-05-24T08:44:17Z</time>
      </trkpt>
      <trkpt lat="46.13872" lon="5.61053">
        <ele>788.6</ele>
        <time>2020-05-24T08:44:19Z</time>
      </trkpt>
      <trkpt lat="46.13871" lon="5.61054">
        <ele>788.7</ele>
        <time>2020-05-24T08:44:20Z</time>
      </trkpt>
      <trkpt lat="46.13869" lon="5.61057">
        <ele>789</ele>
        <time>2020-05-24T08:44:22Z</time>
      </trkpt>
      <trkpt lat="46.13868" lon="5.61058">
        <ele>789.1</ele>
        <time>2020-05-24T08:44:23Z</time>
      </trkpt>
      <trkpt lat="46.13867" lon="5.61059">
        <ele>789.2</ele>
        <time>2020-05-24T08:44:25Z</time>
      </trkpt>
      <trkpt lat="46.13866" lon="5.6106">
        <ele>789.4</ele>
        <time>2020-05-24T08:44:26Z</time>
      </trkpt>
      <trkpt lat="46.13866" lon="5.61061">
        <ele>790.1</ele>
        <time>2020-05-24T08:44:27Z</time>
      </trkpt>
      <trkpt lat="46.13865" lon="5.61063">
        <ele>790.3</ele>
        <time>2020-05-24T08:44:28Z</time>
      </trkpt>
      <trkpt lat="46.13863" lon="5.61065">
        <ele>790.5</ele>
        <time>2020-05-24T08:44:30Z</time>
      </trkpt>
      <trkpt lat="46.13862" lon="5.61065">
        <ele>790.6</ele>
        <time>2020-05-24T08:44:31Z</time>
      </trkpt>
      <trkpt lat="46.13861" lon="5.61066">
        <ele>790.7</ele>
        <time>2020-05-24T08:44:33Z</time>
      </trkpt>
      <trkpt lat="46.1386" lon="5.61068">
        <ele>790.9</ele>
        <time>2020-05-24T08:44:34Z</time>
      </trkpt>
      <trkpt lat="46.13859" lon="5.61069">
        <ele>791</ele>
        <time>2020-05-24T08:44:35Z</time>
      </trkpt>
      <trkpt lat="46.13858" lon="5.61069">
        <ele>791.1</ele>
        <time>2020-05-24T08:44:37Z</time>
      </trkpt>
      <trkpt lat="46.13857" lon="5.6107">
        <ele>791.2</ele>
        <time>2020-05-24T08:44:38Z</time>
      </trkpt>
      <trkpt lat="46.13857" lon="5.61071">
        <ele>791.3</ele>
        <time>2020-05-24T08:44:40Z</time>
      </trkpt>
      <trkpt lat="46.13856" lon="5.61071">
        <ele>791.4</ele>
        <time>2020-05-24T08:44:42Z</time>
      </trkpt>
      <trkpt lat="46.13855" lon="5.61072">
        <ele>791.5</ele>
        <time>2020-05-24T08:44:44Z</time>
      </trkpt>
      <trkpt lat="46.13854" lon="5.61075">
        <ele>791.7</ele>
        <time>2020-05-24T08:44:46Z</time>
      </trkpt>
      <trkpt lat="46.13854" lon="5.61075">
        <ele>791.8</ele>
        <time>2020-05-24T08:44:47Z</time>
      </trkpt>
      <trkpt lat="46.13853" lon="5.61076">
        <ele>791.9</ele>
        <time>2020-05-24T08:44:49Z</time>
      </trkpt>
      <trkpt lat="46.13853" lon="5.61077">
        <ele>792</ele>
        <time>2020-05-24T08:44:50Z</time>
      </trkpt>
      <trkpt lat="46.13852" lon="5.61078">
        <ele>792.1</ele>
        <time>2020-05-24T08:44:52Z</time>
      </trkpt>
      <trkpt lat="46.13851" lon="5.6108">
        <ele>792.2</ele>
        <time>2020-05-24T08:44:53Z</time>
      </trkpt>
      <trkpt lat="46.1385" lon="5.61081">
        <ele>792.3</ele>
        <time>2020-05-24T08:44:54Z</time>
      </trkpt>
      <trkpt lat="46.13849" lon="5.61081">
        <ele>792.4</ele>
        <time>2020-05-24T08:44:56Z</time>
      </trkpt>
      <trkpt lat="46.13848" lon="5.61083">
        <ele>792.6</ele>
        <time>2020-05-24T08:44:58Z</time>
      </trkpt>
      <trkpt lat="46.13848" lon="5.61083">
        <ele>792.7</ele>
        <time>2020-05-24T08:44:59Z</time>
      </trkpt>
      <trkpt lat="46.13846" lon="5.61085">
        <ele>792.9</ele>
        <time>2020-05-24T08:45:01Z</time>
      </trkpt>
      <trkpt lat="46.13845" lon="5.61086">
        <ele>793</ele>
        <time>2020-05-24T08:45:02Z</time>
      </trkpt>
      <trkpt lat="46.13844" lon="5.61088">
        <ele>793.2</ele>
        <time>2020-05-24T08:45:04Z</time>
      </trkpt>
      <trkpt lat="46.13842" lon="5.6109">
        <ele>793.5</ele>
        <time>2020-05-24T08:45:05Z</time>
      </trkpt>
      <trkpt lat="46.13841" lon="5.61091">
        <ele>793.6</ele>
        <time>2020-05-24T08:45:06Z</time>
      </trkpt>
      <trkpt lat="46.1384" lon="5.61093">
        <ele>793.7</ele>
        <time>2020-05-24T08:45:08Z</time>
      </trkpt>
      <trkpt lat="46.13839" lon="5.61095">
        <ele>793.9</ele>
        <time>2020-05-24T08:45:09Z</time>
      </trkpt>
      <trkpt lat="46.13838" lon="5.61098">
        <ele>794.2</ele>
        <time>2020-05-24T08:45:11Z</time>
      </trkpt>
      <trkpt lat="46.13837" lon="5.61098">
        <ele>794.3</ele>
        <time>2020-05-24T08:45:13Z</time>
      </trkpt>
      <trkpt lat="46.13836" lon="5.61099">
        <ele>794.3</ele>
        <time>2020-05-24T08:45:14Z</time>
      </trkpt>
      <trkpt lat="46.13836" lon="5.61099">
        <ele>794.4</ele>
        <time>2020-05-24T08:45:16Z</time>
      </trkpt>
      <trkpt lat="46.13835" lon="5.61101">
        <ele>794.6</ele>
        <time>2020-05-24T08:45:17Z</time>
      </trkpt>
      <trkpt lat="46.13832" lon="5.61105">
        <ele>794.9</ele>
        <time>2020-05-24T08:45:19Z</time>
      </trkpt>
      <trkpt lat="46.13832" lon="5.61106">
        <ele>795</ele>
        <time>2020-05-24T08:45:20Z</time>
      </trkpt>
      <trkpt lat="46.1383" lon="5.61109">
        <ele>795.4</ele>
        <time>2020-05-24T08:45:21Z</time>
      </trkpt>
      <trkpt lat="46.13829" lon="5.6111">
        <ele>795.5</ele>
        <time>2020-05-24T08:45:23Z</time>
      </trkpt>
      <trkpt lat="46.13828" lon="5.61112">
        <ele>795.7</ele>
        <time>2020-05-24T08:45:24Z</time>
      </trkpt>
      <trkpt lat="46.13827" lon="5.61114">
        <ele>795.9</ele>
        <time>2020-05-24T08:45:26Z</time>
      </trkpt>
      <trkpt lat="46.13826" lon="5.61115">
        <ele>796</ele>
        <time>2020-05-24T08:45:27Z</time>
      </trkpt>
      <trkpt lat="46.13825" lon="5.61116">
        <ele>796.1</ele>
        <time>2020-05-24T08:45:28Z</time>
      </trkpt>
      <trkpt lat="46.13823" lon="5.61119">
        <ele>796.4</ele>
        <time>2020-05-24T08:45:30Z</time>
      </trkpt>
      <trkpt lat="46.13821" lon="5.61121">
        <ele>796.7</ele>
        <time>2020-05-24T08:45:31Z</time>
      </trkpt>
      <trkpt lat="46.1382" lon="5.61122">
        <ele>796.8</ele>
        <time>2020-05-24T08:45:33Z</time>
      </trkpt>
      <trkpt lat="46.1382" lon="5.61124">
        <ele>796.9</ele>
        <time>2020-05-24T08:45:35Z</time>
      </trkpt>
      <trkpt lat="46.13819" lon="5.61125">
        <ele>797</ele>
        <time>2020-05-24T08:45:37Z</time>
      </trkpt>
      <trkpt lat="46.13818" lon="5.61126">
        <ele>797.2</ele>
        <time>2020-05-24T08:45:38Z</time>
      </trkpt>
      <trkpt lat="46.13817" lon="5.61129">
        <ele>797.4</ele>
        <time>2020-05-24T08:45:39Z</time>
      </trkpt>
      <trkpt lat="46.13817" lon="5.61131">
        <ele>797.5</ele>
        <time>2020-05-24T08:45:40Z</time>
      </trkpt>
      <trkpt lat="46.13816" lon="5.61132">
        <ele>797.6</ele>
        <time>2020-05-24T08:45:42Z</time>
      </trkpt>
      <trkpt lat="46.13816" lon="5.61134">
        <ele>797.8</ele>
        <time>2020-05-24T08:45:43Z</time>
      </trkpt>
      <trkpt lat="46.13816" lon="5.61136">
        <ele>797.9</ele>
        <time>2020-05-24T08:45:44Z</time>
      </trkpt>
      <trkpt lat="46.13815" lon="5.61139">
        <ele>798.2</ele>
        <time>2020-05-24T08:45:45Z</time>
      </trkpt>
      <trkpt lat="46.13814" lon="5.6114">
        <ele>798.3</ele>
        <time>2020-05-24T08:45:47Z</time>
      </trkpt>
      <trkpt lat="46.13814" lon="5.61141">
        <ele>798.4</ele>
        <time>2020-05-24T08:45:49Z</time>
      </trkpt>
      <trkpt lat="46.13814" lon="5.61143">
        <ele>798.5</ele>
        <time>2020-05-24T08:45:50Z</time>
      </trkpt>
      <trkpt lat="46.13813" lon="5.61144">
        <ele>798.6</ele>
        <time>2020-05-24T08:45:51Z</time>
      </trkpt>
      <trkpt lat="46.13812" lon="5.61147">
        <ele>798.8</ele>
        <time>2020-05-24T08:45:53Z</time>
      </trkpt>
      <trkpt lat="46.13811" lon="5.61149">
        <ele>799</ele>
        <time>2020-05-24T08:45:55Z</time>
      </trkpt>
      <trkpt lat="46.1381" lon="5.6115">
        <ele>799.1</ele>
        <time>2020-05-24T08:45:56Z</time>
      </trkpt>
      <trkpt lat="46.13809" lon="5.61151">
        <ele>799.3</ele>
        <time>2020-05-24T08:45:58Z</time>
      </trkpt>
      <trkpt lat="46.13808" lon="5.61152">
        <ele>799.4</ele>
        <time>2020-05-24T08:45:59Z</time>
      </trkpt>
      <trkpt lat="46.13807" lon="5.61153">
        <ele>799.5</ele>
        <time>2020-05-24T08:46:01Z</time>
      </trkpt>
      <trkpt lat="46.13807" lon="5.61155">
        <ele>799.6</ele>
        <time>2020-05-24T08:46:02Z</time>
      </trkpt>
      <trkpt lat="46.13807" lon="5.61156">
        <ele>799.7</ele>
        <time>2020-05-24T08:46:03Z</time>
      </trkpt>
      <trkpt lat="46.13806" lon="5.61158">
        <ele>799.9</ele>
        <time>2020-05-24T08:46:04Z</time>
      </trkpt>
      <trkpt lat="46.13805" lon="5.61162">
        <ele>800.2</ele>
        <time>2020-05-24T08:46:06Z</time>
      </trkpt>
      <trkpt lat="46.13804" lon="5.61163">
        <ele>800.3</ele>
        <time>2020-05-24T08:46:07Z</time>
      </trkpt>
      <trkpt lat="46.13803" lon="5.61166">
        <ele>800.6</ele>
        <time>2020-05-24T08:46:08Z</time>
      </trkpt>
      <trkpt lat="46.13802" lon="5.61167">
        <ele>800.7</ele>
        <time>2020-05-24T08:46:09Z</time>
      </trkpt>
      <trkpt lat="46.13802" lon="5.61168">
        <ele>800.8</ele>
        <time>2020-05-24T08:46:11Z</time>
      </trkpt>
      <trkpt lat="46.13801" lon="5.6117">
        <ele>800.9</ele>
        <time>2020-05-24T08:46:13Z</time>
      </trkpt>
      <trkpt lat="46.138" lon="5.61172">
        <ele>801.1</ele>
        <time>2020-05-24T08:46:15Z</time>
      </trkpt>
      <trkpt lat="46.13799" lon="5.61173">
        <ele>801.2</ele>
        <time>2020-05-24T08:46:16Z</time>
      </trkpt>
      <trkpt lat="46.13798" lon="5.61175">
        <ele>801.4</ele>
        <time>2020-05-24T08:46:17Z</time>
      </trkpt>
      <trkpt lat="46.13798" lon="5.61176">
        <ele>801.5</ele>
        <time>2020-05-24T08:46:18Z</time>
      </trkpt>
      <trkpt lat="46.13797" lon="5.61177">
        <ele>801.6</ele>
        <time>2020-05-24T08:46:19Z</time>
      </trkpt>
      <trkpt lat="46.13796" lon="5.61181">
        <ele>801.9</ele>
        <time>2020-05-24T08:46:21Z</time>
      </trkpt>
      <trkpt lat="46.13795" lon="5.61182">
        <ele>802</ele>
        <time>2020-05-24T08:46:22Z</time>
      </trkpt>
      <trkpt lat="46.13795" lon="5.61183">
        <ele>802.1</ele>
        <time>2020-05-24T08:46:23Z</time>
      </trkpt>
      <trkpt lat="46.13795" lon="5.61185">
        <ele>802.2</ele>
        <time>2020-05-24T08:46:24Z</time>
      </trkpt>
      <trkpt lat="46.13795" lon="5.61186">
        <ele>802.3</ele>
        <time>2020-05-24T08:46:25Z</time>
      </trkpt>
      <trkpt lat="46.13795" lon="5.61188">
        <ele>802.4</ele>
        <time>2020-05-24T08:46:27Z</time>
      </trkpt>
      <trkpt lat="46.13795" lon="5.6119">
        <ele>802.6</ele>
        <time>2020-05-24T08:46:28Z</time>
      </trkpt>
      <trkpt lat="46.13795" lon="5.61193">
        <ele>802.9</ele>
        <time>2020-05-24T08:46:29Z</time>
      </trkpt>
      <trkpt lat="46.13795" lon="5.61195">
        <ele>803</ele>
        <time>2020-05-24T08:46:31Z</time>
      </trkpt>
      <trkpt lat="46.13795" lon="5.61197">
        <ele>803.1</ele>
        <time>2020-05-24T08:46:32Z</time>
      </trkpt>
      <trkpt lat="46.13795" lon="5.61199">
        <ele>803.3</ele>
        <time>2020-05-24T08:46:33Z</time>
      </trkpt>
      <trkpt lat="46.13796" lon="5.612">
        <ele>803.4</ele>
        <time>2020-05-24T08:46:34Z</time>
      </trkpt>
      <trkpt lat="46.13796" lon="5.61202">
        <ele>803.5</ele>
        <time>2020-05-24T08:46:35Z</time>
      </trkpt>
      <trkpt lat="46.13797" lon="5.61203">
        <ele>803.6</ele>
        <time>2020-05-24T08:46:36Z</time>
      </trkpt>
      <trkpt lat="46.13798" lon="5.61206">
        <ele>803.9</ele>
        <time>2020-05-24T08:46:38Z</time>
      </trkpt>
      <trkpt lat="46.13799" lon="5.61208">
        <ele>804</ele>
        <time>2020-05-24T08:46:40Z</time>
      </trkpt>
      <trkpt lat="46.138" lon="5.61209">
        <ele>804.2</ele>
        <time>2020-05-24T08:46:41Z</time>
      </trkpt>
      <trkpt lat="46.13801" lon="5.61213">
        <ele>804.5</ele>
        <time>2020-05-24T08:46:43Z</time>
      </trkpt>
      <trkpt lat="46.13802" lon="5.61215">
        <ele>804.6</ele>
        <time>2020-05-24T08:46:44Z</time>
      </trkpt>
      <trkpt lat="46.13802" lon="5.61216">
        <ele>804.7</ele>
        <time>2020-05-24T08:46:45Z</time>
      </trkpt>
      <trkpt lat="46.13802" lon="5.61217">
        <ele>804.8</ele>
        <time>2020-05-24T08:46:46Z</time>
      </trkpt>
      <trkpt lat="46.13801" lon="5.6122">
        <ele>805</ele>
        <time>2020-05-24T08:46:48Z</time>
      </trkpt>
      <trkpt lat="46.138" lon="5.61222">
        <ele>805.2</ele>
        <time>2020-05-24T08:46:49Z</time>
      </trkpt>
      <trkpt lat="46.13799" lon="5.61223">
        <ele>805.4</ele>
        <time>2020-05-24T08:46:50Z</time>
      </trkpt>
      <trkpt lat="46.13798" lon="5.61225">
        <ele>805.5</ele>
        <time>2020-05-24T08:46:51Z</time>
      </trkpt>
      <trkpt lat="46.13798" lon="5.61227">
        <ele>805.6</ele>
        <time>2020-05-24T08:46:53Z</time>
      </trkpt>
      <trkpt lat="46.13797" lon="5.61227">
        <ele>805.7</ele>
        <time>2020-05-24T08:46:55Z</time>
      </trkpt>
      <trkpt lat="46.13796" lon="5.61229">
        <ele>805.9</ele>
        <time>2020-05-24T08:46:56Z</time>
      </trkpt>
      <trkpt lat="46.13796" lon="5.61229">
        <ele>805.9</ele>
        <time>2020-05-24T08:46:57Z</time>
      </trkpt>
      <trkpt lat="46.13795" lon="5.61231">
        <ele>806.1</ele>
        <time>2020-05-24T08:46:59Z</time>
      </trkpt>
      <trkpt lat="46.13795" lon="5.61233">
        <ele>806.2</ele>
        <time>2020-05-24T08:47:01Z</time>
      </trkpt>
      <trkpt lat="46.13795" lon="5.61234">
        <ele>806.3</ele>
        <time>2020-05-24T08:47:02Z</time>
      </trkpt>
      <trkpt lat="46.13795" lon="5.61235">
        <ele>806.3</ele>
        <time>2020-05-24T08:47:03Z</time>
      </trkpt>
      <trkpt lat="46.13795" lon="5.61236">
        <ele>806.4</ele>
        <time>2020-05-24T08:47:05Z</time>
      </trkpt>
      <trkpt lat="46.13796" lon="5.61237">
        <ele>806.5</ele>
        <time>2020-05-24T08:47:07Z</time>
      </trkpt>
      <trkpt lat="46.13796" lon="5.61238">
        <ele>806.6</ele>
        <time>2020-05-24T08:47:08Z</time>
      </trkpt>
      <trkpt lat="46.13797" lon="5.61239">
        <ele>806.7</ele>
        <time>2020-05-24T08:47:10Z</time>
      </trkpt>
      <trkpt lat="46.13797" lon="5.61239">
        <ele>806.8</ele>
        <time>2020-05-24T08:47:12Z</time>
      </trkpt>
      <trkpt lat="46.13796" lon="5.6124">
        <ele>806.8</ele>
        <time>2020-05-24T08:47:13Z</time>
      </trkpt>
      <trkpt lat="46.13796" lon="5.61242">
        <ele>807</ele>
        <time>2020-05-24T08:47:15Z</time>
      </trkpt>
      <trkpt lat="46.13796" lon="5.61242">
        <ele>807</ele>
        <time>2020-05-24T08:47:16Z</time>
      </trkpt>
      <trkpt lat="46.13795" lon="5.61243">
        <ele>807.1</ele>
        <time>2020-05-24T08:47:17Z</time>
      </trkpt>
      <trkpt lat="46.13794" lon="5.61243">
        <ele>807.2</ele>
        <time>2020-05-24T08:47:19Z</time>
      </trkpt>
      <trkpt lat="46.13793" lon="5.61242">
        <ele>807.3</ele>
        <time>2020-05-24T08:47:21Z</time>
      </trkpt>
      <trkpt lat="46.13793" lon="5.61243">
        <ele>807.4</ele>
        <time>2020-05-24T08:47:23Z</time>
      </trkpt>
      <trkpt lat="46.13793" lon="5.61243">
        <ele>807.4</ele>
        <time>2020-05-24T08:47:24Z</time>
      </trkpt>
      <trkpt lat="46.13793" lon="5.61242">
        <ele>807.5</ele>
        <time>2020-05-24T08:47:26Z</time>
      </trkpt>
      <trkpt lat="46.13793" lon="5.61241">
        <ele>807.6</ele>
        <time>2020-05-24T08:47:27Z</time>
      </trkpt>
      <trkpt lat="46.13792" lon="5.61241">
        <ele>807.6</ele>
        <time>2020-05-24T08:47:28Z</time>
      </trkpt>
      <trkpt lat="46.13792" lon="5.61241">
        <ele>807.7</ele>
        <time>2020-05-24T08:47:30Z</time>
      </trkpt>
      <trkpt lat="46.13792" lon="5.6124">
        <ele>807.8</ele>
        <time>2020-05-24T08:47:32Z</time>
      </trkpt>
      <trkpt lat="46.13792" lon="5.6124">
        <ele>807.8</ele>
        <time>2020-05-24T08:47:33Z</time>
      </trkpt>
      <trkpt lat="46.13792" lon="5.6124">
        <ele>807.8</ele>
        <time>2020-05-24T08:47:35Z</time>
      </trkpt>
      <trkpt lat="46.13792" lon="5.6124">
        <ele>807.8</ele>
        <time>2020-05-24T08:47:36Z</time>
      </trkpt>
      <trkpt lat="46.13791" lon="5.61241">
        <ele>807.9</ele>
        <time>2020-05-24T08:47:37Z</time>
      </trkpt>
      <trkpt lat="46.13791" lon="5.61242">
        <ele>808</ele>
        <time>2020-05-24T08:47:39Z</time>
      </trkpt>
      <trkpt lat="46.13791" lon="5.61243">
        <ele>808</ele>
        <time>2020-05-24T08:47:40Z</time>
      </trkpt>
      <trkpt lat="46.13791" lon="5.61244">
        <ele>808.1</ele>
        <time>2020-05-24T08:47:42Z</time>
      </trkpt>
      <trkpt lat="46.13791" lon="5.61244">
        <ele>808.2</ele>
        <time>2020-05-24T08:47:44Z</time>
      </trkpt>
      <trkpt lat="46.1379" lon="5.61257">
        <ele>809.1</ele>
        <time>2020-05-24T08:51:01Z</time>
      </trkpt>
      <trkpt lat="46.13791" lon="5.61257">
        <ele>809.2</ele>
        <time>2020-05-24T08:51:02Z</time>
      </trkpt>
      <trkpt lat="46.13793" lon="5.61257">
        <ele>809.3</ele>
        <time>2020-05-24T08:51:04Z</time>
      </trkpt>
      <trkpt lat="46.13793" lon="5.61257">
        <ele>809.4</ele>
        <time>2020-05-24T08:51:05Z</time>
      </trkpt>
      <trkpt lat="46.13791" lon="5.61256">
        <ele>809.6</ele>
        <time>2020-05-24T08:51:07Z</time>
      </trkpt>
      <trkpt lat="46.1379" lon="5.61256">
        <ele>809.6</ele>
        <time>2020-05-24T08:51:08Z</time>
      </trkpt>
      <trkpt lat="46.1379" lon="5.61256">
        <ele>809.6</ele>
        <time>2020-05-24T08:51:09Z</time>
      </trkpt>
      <trkpt lat="46.1379" lon="5.61255">
        <ele>809.7</ele>
        <time>2020-05-24T08:51:11Z</time>
      </trkpt>
      <trkpt lat="46.1379" lon="5.61255">
        <ele>809.7</ele>
        <time>2020-05-24T08:51:13Z</time>
      </trkpt>
      <trkpt lat="46.13791" lon="5.61255">
        <ele>809.8</ele>
        <time>2020-05-24T08:51:14Z</time>
      </trkpt>
      <trkpt lat="46.13794" lon="5.61252">
        <ele>810.2</ele>
        <time>2020-05-24T08:51:26Z</time>
      </trkpt>
      <trkpt lat="46.13794" lon="5.61251">
        <ele>810.2</ele>
        <time>2020-05-24T08:51:28Z</time>
      </trkpt>
      <trkpt lat="46.13794" lon="5.61251">
        <ele>810.2</ele>
        <time>2020-05-24T08:51:30Z</time>
      </trkpt>
      <trkpt lat="46.13794" lon="5.61251">
        <ele>810.2</ele>
        <time>2020-05-24T08:51:32Z</time>
      </trkpt>
      <trkpt lat="46.13794" lon="5.61251">
        <ele>810.2</ele>
        <time>2020-05-24T08:51:34Z</time>
      </trkpt>
      <trkpt lat="46.13794" lon="5.61251">
        <ele>810.2</ele>
        <time>2020-05-24T08:51:35Z</time>
      </trkpt>
      <trkpt lat="46.13794" lon="5.61251">
        <ele>810.2</ele>
        <time>2020-05-24T08:51:36Z</time>
      </trkpt>
      <trkpt lat="46.13795" lon="5.61251">
        <ele>810.3</ele>
        <time>2020-05-24T08:51:38Z</time>
      </trkpt>
      <trkpt lat="46.13795" lon="5.61251">
        <ele>810.3</ele>
        <time>2020-05-24T08:51:39Z</time>
      </trkpt>
      <trkpt lat="46.13795" lon="5.61251">
        <ele>810.4</ele>
        <time>2020-05-24T08:51:40Z</time>
      </trkpt>
      <trkpt lat="46.13795" lon="5.61251">
        <ele>810.4</ele>
        <time>2020-05-24T08:51:42Z</time>
      </trkpt>
      <trkpt lat="46.13797" lon="5.6125">
        <ele>810.6</ele>
        <time>2020-05-24T08:51:44Z</time>
      </trkpt>
      <trkpt lat="46.13798" lon="5.6125">
        <ele>810.7</ele>
        <time>2020-05-24T08:51:46Z</time>
      </trkpt>
      <trkpt lat="46.13798" lon="5.6125">
        <ele>810.7</ele>
        <time>2020-05-24T08:51:47Z</time>
      </trkpt>
      <trkpt lat="46.13798" lon="5.6125">
        <ele>810.7</ele>
        <time>2020-05-24T08:51:48Z</time>
      </trkpt>
      <trkpt lat="46.13797" lon="5.61248">
        <ele>812.6</ele>
        <time>2020-05-24T08:51:50Z</time>
      </trkpt>
      <trkpt lat="46.13797" lon="5.61247">
        <ele>812.6</ele>
        <time>2020-05-24T08:51:52Z</time>
      </trkpt>
      <trkpt lat="46.13797" lon="5.61247">
        <ele>812.6</ele>
        <time>2020-05-24T08:51:54Z</time>
      </trkpt>
      <trkpt lat="46.13797" lon="5.61247">
        <ele>812.6</ele>
        <time>2020-05-24T08:51:56Z</time>
      </trkpt>
      <trkpt lat="46.13797" lon="5.61247">
        <ele>812.6</ele>
        <time>2020-05-24T08:51:57Z</time>
      </trkpt>
      <trkpt lat="46.13797" lon="5.61247">
        <ele>812.6</ele>
        <time>2020-05-24T08:51:59Z</time>
      </trkpt>
      <trkpt lat="46.13797" lon="5.61247">
        <ele>812.6</ele>
        <time>2020-05-24T08:52:00Z</time>
      </trkpt>
      <trkpt lat="46.13797" lon="5.61247">
        <ele>812.6</ele>
        <time>2020-05-24T08:52:02Z</time>
      </trkpt>
      <trkpt lat="46.13797" lon="5.61247">
        <ele>812.6</ele>
        <time>2020-05-24T08:52:03Z</time>
      </trkpt>
      <trkpt lat="46.13797" lon="5.61247">
        <ele>812.6</ele>
        <time>2020-05-24T08:52:04Z</time>
      </trkpt>
      <trkpt lat="46.13797" lon="5.61247">
        <ele>812.6</ele>
        <time>2020-05-24T08:52:06Z</time>
      </trkpt>
      <trkpt lat="46.13797" lon="5.61247">
        <ele>812.6</ele>
        <time>2020-05-24T08:52:07Z</time>
      </trkpt>
      <trkpt lat="46.13795" lon="5.61246">
        <ele>815.2</ele>
        <time>2020-05-24T08:52:09Z</time>
      </trkpt>
      <trkpt lat="46.13794" lon="5.61245">
        <ele>815.2</ele>
        <time>2020-05-24T08:52:11Z</time>
      </trkpt>
      <trkpt lat="46.13794" lon="5.61245">
        <ele>815.2</ele>
        <time>2020-05-24T08:52:13Z</time>
      </trkpt>
      <trkpt lat="46.13794" lon="5.61245">
        <ele>815.2</ele>
        <time>2020-05-24T08:52:15Z</time>
      </trkpt>
      <trkpt lat="46.13794" lon="5.61245">
        <ele>815.2</ele>
        <time>2020-05-24T08:52:16Z</time>
      </trkpt>
      <trkpt lat="46.13794" lon="5.61245">
        <ele>815.2</ele>
        <time>2020-05-24T08:52:18Z</time>
      </trkpt>
      <trkpt lat="46.13794" lon="5.61245">
        <ele>815.2</ele>
        <time>2020-05-24T08:52:19Z</time>
      </trkpt>
      <trkpt lat="46.13793" lon="5.61248">
        <ele>814.4</ele>
        <time>2020-05-24T08:53:35Z</time>
      </trkpt>
      <trkpt lat="46.13794" lon="5.61247">
        <ele>814.4</ele>
        <time>2020-05-24T08:53:36Z</time>
      </trkpt>
      <trkpt lat="46.13793" lon="5.61247">
        <ele>815.2</ele>
        <time>2020-05-24T08:53:38Z</time>
      </trkpt>
      <trkpt lat="46.13793" lon="5.61247">
        <ele>815.2</ele>
        <time>2020-05-24T08:53:39Z</time>
      </trkpt>
      <trkpt lat="46.13792" lon="5.61246">
        <ele>815.2</ele>
        <time>2020-05-24T08:53:40Z</time>
      </trkpt>
      <trkpt lat="46.13792" lon="5.61245">
        <ele>817</ele>
        <time>2020-05-24T08:53:41Z</time>
      </trkpt>
      <trkpt lat="46.13791" lon="5.61245">
        <ele>817</ele>
        <time>2020-05-24T08:53:43Z</time>
      </trkpt>
      <trkpt lat="46.13791" lon="5.61246">
        <ele>817</ele>
        <time>2020-05-24T08:53:44Z</time>
      </trkpt>
      <trkpt lat="46.13791" lon="5.61246">
        <ele>817</ele>
        <time>2020-05-24T08:53:45Z</time>
      </trkpt>
      <trkpt lat="46.13791" lon="5.61246">
        <ele>817</ele>
        <time>2020-05-24T08:53:46Z</time>
      </trkpt>
      <trkpt lat="46.1379" lon="5.61247">
        <ele>816.9</ele>
        <time>2020-05-24T08:53:48Z</time>
      </trkpt>
      <trkpt lat="46.1379" lon="5.61247">
        <ele>816.2</ele>
        <time>2020-05-24T08:53:49Z</time>
      </trkpt>
      <trkpt lat="46.1379" lon="5.61247">
        <ele>816.2</ele>
        <time>2020-05-24T08:53:50Z</time>
      </trkpt>
      <trkpt lat="46.1379" lon="5.61247">
        <ele>816.2</ele>
        <time>2020-05-24T08:53:52Z</time>
      </trkpt>
      <trkpt lat="46.1379" lon="5.61247">
        <ele>816.2</ele>
        <time>2020-05-24T08:53:54Z</time>
      </trkpt>
      <trkpt lat="46.1379" lon="5.61247">
        <ele>816.2</ele>
        <time>2020-05-24T08:53:56Z</time>
      </trkpt>
      <trkpt lat="46.1379" lon="5.61247">
        <ele>816.1</ele>
        <time>2020-05-24T08:53:57Z</time>
      </trkpt>
      <trkpt lat="46.1379" lon="5.61247">
        <ele>816.1</ele>
        <time>2020-05-24T08:53:59Z</time>
      </trkpt>
      <trkpt lat="46.1379" lon="5.61247">
        <ele>816.1</ele>
        <time>2020-05-24T08:54:00Z</time>
      </trkpt>
      <trkpt lat="46.1379" lon="5.61247">
        <ele>816.1</ele>
        <time>2020-05-24T08:54:02Z</time>
      </trkpt>
      <trkpt lat="46.1379" lon="5.61247">
        <ele>816.1</ele>
        <time>2020-05-24T08:54:04Z</time>
      </trkpt>
      <trkpt lat="46.1379" lon="5.61247">
        <ele>816.1</ele>
        <time>2020-05-24T08:54:05Z</time>
      </trkpt>
      <trkpt lat="46.1379" lon="5.61247">
        <ele>816.1</ele>
        <time>2020-05-24T08:54:07Z</time>
      </trkpt>
      <trkpt lat="46.1379" lon="5.61247">
        <ele>816.1</ele>
        <time>2020-05-24T08:54:09Z</time>
      </trkpt>
      <trkpt lat="46.1379" lon="5.61247">
        <ele>816.1</ele>
        <time>2020-05-24T08:54:11Z</time>
      </trkpt>
      <trkpt lat="46.1379" lon="5.61247">
        <ele>816.1</ele>
        <time>2020-05-24T08:54:13Z</time>
      </trkpt>
      <trkpt lat="46.1379" lon="5.61247">
        <ele>816.1</ele>
        <time>2020-05-24T08:54:14Z</time>
      </trkpt>
      <trkpt lat="46.1379" lon="5.61247">
        <ele>816.1</ele>
        <time>2020-05-24T08:54:16Z</time>
      </trkpt>
      <trkpt lat="46.1379" lon="5.61247">
        <ele>816.1</ele>
        <time>2020-05-24T08:54:17Z</time>
      </trkpt>
      <trkpt lat="46.13788" lon="5.61247">
        <ele>817.9</ele>
        <time>2020-05-24T08:54:19Z</time>
      </trkpt>
      <trkpt lat="46.13788" lon="5.61247">
        <ele>817.9</ele>
        <time>2020-05-24T08:54:21Z</time>
      </trkpt>
      <trkpt lat="46.13787" lon="5.61247">
        <ele>818.6</ele>
        <time>2020-05-24T08:54:23Z</time>
      </trkpt>
      <trkpt lat="46.13785" lon="5.61246">
        <ele>820.4</ele>
        <time>2020-05-24T08:54:25Z</time>
      </trkpt>
      <trkpt lat="46.13784" lon="5.61246">
        <ele>820.4</ele>
        <time>2020-05-24T08:54:27Z</time>
      </trkpt>
      <trkpt lat="46.13784" lon="5.61246">
        <ele>820.3</ele>
        <time>2020-05-24T08:54:28Z</time>
      </trkpt>
      <trkpt lat="46.13784" lon="5.61246">
        <ele>820.3</ele>
        <time>2020-05-24T08:54:30Z</time>
      </trkpt>
      <trkpt lat="46.13784" lon="5.61246">
        <ele>820.3</ele>
        <time>2020-05-24T08:54:32Z</time>
      </trkpt>
      <trkpt lat="46.13784" lon="5.61246">
        <ele>820.3</ele>
        <time>2020-05-24T08:54:33Z</time>
      </trkpt>
      <trkpt lat="46.13784" lon="5.61246">
        <ele>820.3</ele>
        <time>2020-05-24T08:54:34Z</time>
      </trkpt>
      <trkpt lat="46.13786" lon="5.61245">
        <ele>820.3</ele>
        <time>2020-05-24T08:54:36Z</time>
      </trkpt>
      <trkpt lat="46.13787" lon="5.61248">
        <ele>817.9</ele>
        <time>2020-05-24T08:56:11Z</time>
      </trkpt>
      <trkpt lat="46.13788" lon="5.61248">
        <ele>817.9</ele>
        <time>2020-05-24T08:56:12Z</time>
      </trkpt>
      <trkpt lat="46.13788" lon="5.61248">
        <ele>817.9</ele>
        <time>2020-05-24T08:56:14Z</time>
      </trkpt>
      <trkpt lat="46.13788" lon="5.61248">
        <ele>817.9</ele>
        <time>2020-05-24T08:56:15Z</time>
      </trkpt>
      <trkpt lat="46.13788" lon="5.61248">
        <ele>817.8</ele>
        <time>2020-05-24T08:56:17Z</time>
      </trkpt>
      <trkpt lat="46.13788" lon="5.61248">
        <ele>817.8</ele>
        <time>2020-05-24T08:56:18Z</time>
      </trkpt>
      <trkpt lat="46.13788" lon="5.61248">
        <ele>817.8</ele>
        <time>2020-05-24T08:56:20Z</time>
      </trkpt>
      <trkpt lat="46.13788" lon="5.61248">
        <ele>817.8</ele>
        <time>2020-05-24T08:56:22Z</time>
      </trkpt>
      <trkpt lat="46.1379" lon="5.61251">
        <ele>816</ele>
        <time>2020-05-24T08:56:34Z</time>
      </trkpt>
      <trkpt lat="46.13791" lon="5.6125">
        <ele>816</ele>
        <time>2020-05-24T08:56:35Z</time>
      </trkpt>
      <trkpt lat="46.13791" lon="5.6125">
        <ele>816</ele>
        <time>2020-05-24T08:56:37Z</time>
      </trkpt>
      <trkpt lat="46.13791" lon="5.6125">
        <ele>816</ele>
        <time>2020-05-24T08:56:38Z</time>
      </trkpt>
      <trkpt lat="46.13791" lon="5.6125">
        <ele>816</ele>
        <time>2020-05-24T08:56:40Z</time>
      </trkpt>
      <trkpt lat="46.13791" lon="5.6125">
        <ele>816</ele>
        <time>2020-05-24T08:56:42Z</time>
      </trkpt>
      <trkpt lat="46.13791" lon="5.61251">
        <ele>816</ele>
        <time>2020-05-24T08:56:44Z</time>
      </trkpt>
      <trkpt lat="46.13791" lon="5.61251">
        <ele>816</ele>
        <time>2020-05-24T08:56:45Z</time>
      </trkpt>
      <trkpt lat="46.13791" lon="5.61246">
        <ele>816.8</ele>
        <time>2020-05-24T08:57:26Z</time>
      </trkpt>
      <trkpt lat="46.13791" lon="5.61244">
        <ele>816.8</ele>
        <time>2020-05-24T08:57:27Z</time>
      </trkpt>
      <trkpt lat="46.13793" lon="5.61242">
        <ele>815.8</ele>
        <time>2020-05-24T08:57:29Z</time>
      </trkpt>
      <trkpt lat="46.13799" lon="5.61245">
        <ele>811.4</ele>
        <time>2020-05-24T08:57:30Z</time>
      </trkpt>
      <trkpt lat="46.13808" lon="5.61248">
        <ele>804.2</ele>
        <time>2020-05-24T08:57:32Z</time>
      </trkpt>
      <trkpt lat="46.13811" lon="5.61249">
        <ele>802</ele>
        <time>2020-05-24T08:57:33Z</time>
      </trkpt>
      <trkpt lat="46.13815" lon="5.61249">
        <ele>799.8</ele>
        <time>2020-05-24T08:57:34Z</time>
      </trkpt>
      <trkpt lat="46.13818" lon="5.6125">
        <ele>797.8</ele>
        <time>2020-05-24T08:57:35Z</time>
      </trkpt>
      <trkpt lat="46.1382" lon="5.6125">
        <ele>795.8</ele>
        <time>2020-05-24T08:57:36Z</time>
      </trkpt>
      <trkpt lat="46.13821" lon="5.6125">
        <ele>795.8</ele>
        <time>2020-05-24T08:57:37Z</time>
      </trkpt>
      <trkpt lat="46.13825" lon="5.61247">
        <ele>791.8</ele>
        <time>2020-05-24T08:57:39Z</time>
      </trkpt>
      <trkpt lat="46.13826" lon="5.61247">
        <ele>793.3</ele>
        <time>2020-05-24T08:57:40Z</time>
      </trkpt>
      <trkpt lat="46.13832" lon="5.61247">
        <ele>787.4</ele>
        <time>2020-05-24T08:57:41Z</time>
      </trkpt>
      <trkpt lat="46.13835" lon="5.61249">
        <ele>785.1</ele>
        <time>2020-05-24T08:57:42Z</time>
      </trkpt>
      <trkpt lat="46.13839" lon="5.61249">
        <ele>782.8</ele>
        <time>2020-05-24T08:57:44Z</time>
      </trkpt>
      <trkpt lat="46.13843" lon="5.61247">
        <ele>779</ele>
        <time>2020-05-24T08:57:45Z</time>
      </trkpt>
      <trkpt lat="46.13844" lon="5.61247">
        <ele>780.9</ele>
        <time>2020-05-24T08:57:46Z</time>
      </trkpt>
      <trkpt lat="46.13846" lon="5.61245">
        <ele>779.3</ele>
        <time>2020-05-24T08:57:47Z</time>
      </trkpt>
      <trkpt lat="46.13848" lon="5.61245">
        <ele>779.3</ele>
        <time>2020-05-24T08:57:49Z</time>
      </trkpt>
      <trkpt lat="46.13851" lon="5.61244">
        <ele>777.6</ele>
        <time>2020-05-24T08:57:50Z</time>
      </trkpt>
      <trkpt lat="46.13854" lon="5.61244">
        <ele>775.8</ele>
        <time>2020-05-24T08:57:51Z</time>
      </trkpt>
      <trkpt lat="46.13858" lon="5.61244">
        <ele>772.1</ele>
        <time>2020-05-24T08:57:53Z</time>
      </trkpt>
      <trkpt lat="46.1386" lon="5.61244">
        <ele>772.1</ele>
        <time>2020-05-24T08:57:54Z</time>
      </trkpt>
      <trkpt lat="46.13865" lon="5.61243">
        <ele>768.4</ele>
        <time>2020-05-24T08:57:56Z</time>
      </trkpt>
      <trkpt lat="46.13867" lon="5.61242">
        <ele>767.8</ele>
        <time>2020-05-24T08:57:57Z</time>
      </trkpt>
      <trkpt lat="46.1387" lon="5.61241">
        <ele>766</ele>
        <time>2020-05-24T08:57:58Z</time>
      </trkpt>
      <trkpt lat="46.13878" lon="5.61239">
        <ele>762.6</ele>
        <time>2020-05-24T08:58:00Z</time>
      </trkpt>
      <trkpt lat="46.13883" lon="5.61238">
        <ele>760.3</ele>
        <time>2020-05-24T08:58:01Z</time>
      </trkpt>
      <trkpt lat="46.13889" lon="5.61236">
        <ele>756.7</ele>
        <time>2020-05-24T08:58:03Z</time>
      </trkpt>
      <trkpt lat="46.13893" lon="5.61234">
        <ele>753.1</ele>
        <time>2020-05-24T08:58:04Z</time>
      </trkpt>
      <trkpt lat="46.13899" lon="5.61232">
        <ele>751.6</ele>
        <time>2020-05-24T08:58:05Z</time>
      </trkpt>
      <trkpt lat="46.13904" lon="5.6123">
        <ele>750.2</ele>
        <time>2020-05-24T08:58:06Z</time>
      </trkpt>
      <trkpt lat="46.13908" lon="5.61229">
        <ele>749.8</ele>
        <time>2020-05-24T08:58:08Z</time>
      </trkpt>
      <trkpt lat="46.13913" lon="5.61226">
        <ele>748.4</ele>
        <time>2020-05-24T08:58:09Z</time>
      </trkpt>
      <trkpt lat="46.13918" lon="5.61222">
        <ele>748.5</ele>
        <time>2020-05-24T08:58:10Z</time>
      </trkpt>
      <trkpt lat="46.13922" lon="5.61218">
        <ele>750.2</ele>
        <time>2020-05-24T08:58:11Z</time>
      </trkpt>
      <trkpt lat="46.13928" lon="5.61214">
        <ele>751.4</ele>
        <time>2020-05-24T08:58:13Z</time>
      </trkpt>
      <trkpt lat="46.13936" lon="5.61213">
        <ele>749.4</ele>
        <time>2020-05-24T08:58:14Z</time>
      </trkpt>
      <trkpt lat="46.13956" lon="5.61212">
        <ele>746.7</ele>
        <time>2020-05-24T08:58:16Z</time>
      </trkpt>
      <trkpt lat="46.13965" lon="5.61213">
        <ele>743.6</ele>
        <time>2020-05-24T08:58:17Z</time>
      </trkpt>
      <trkpt lat="46.1398" lon="5.61214">
        <ele>740.1</ele>
        <time>2020-05-24T08:58:19Z</time>
      </trkpt>
      <trkpt lat="46.13986" lon="5.61216">
        <ele>738.8</ele>
        <time>2020-05-24T08:58:20Z</time>
      </trkpt>
      <trkpt lat="46.13994" lon="5.6122">
        <ele>736.5</ele>
        <time>2020-05-24T08:58:22Z</time>
      </trkpt>
      <trkpt lat="46.13999" lon="5.61222">
        <ele>733.9</ele>
        <time>2020-05-24T08:58:24Z</time>
      </trkpt>
      <trkpt lat="46.14001" lon="5.61225">
        <ele>733.1</ele>
        <time>2020-05-24T08:58:25Z</time>
      </trkpt>
      <trkpt lat="46.14003" lon="5.61229">
        <ele>731.2</ele>
        <time>2020-05-24T08:58:27Z</time>
      </trkpt>
      <trkpt lat="46.14007" lon="5.61233">
        <ele>729.3</ele>
        <time>2020-05-24T08:58:28Z</time>
      </trkpt>
      <trkpt lat="46.14012" lon="5.61235">
        <ele>726.7</ele>
        <time>2020-05-24T08:58:30Z</time>
      </trkpt>
      <trkpt lat="46.14017" lon="5.61232">
        <ele>727.5</ele>
        <time>2020-05-24T08:58:31Z</time>
      </trkpt>
      <trkpt lat="46.1402" lon="5.61229">
        <ele>728</ele>
        <time>2020-05-24T08:58:32Z</time>
      </trkpt>
      <trkpt lat="46.14026" lon="5.61219">
        <ele>728</ele>
        <time>2020-05-24T08:58:34Z</time>
      </trkpt>
      <trkpt lat="46.14031" lon="5.61216">
        <ele>726.8</ele>
        <time>2020-05-24T08:58:35Z</time>
      </trkpt>
      <trkpt lat="46.14035" lon="5.61214">
        <ele>725.9</ele>
        <time>2020-05-24T08:58:37Z</time>
      </trkpt>
      <trkpt lat="46.1404" lon="5.61212">
        <ele>724.6</ele>
        <time>2020-05-24T08:58:38Z</time>
      </trkpt>
      <trkpt lat="46.14044" lon="5.61212">
        <ele>723.7</ele>
        <time>2020-05-24T08:58:39Z</time>
      </trkpt>
      <trkpt lat="46.14047" lon="5.6121">
        <ele>722.8</ele>
        <time>2020-05-24T08:58:40Z</time>
      </trkpt>
      <trkpt lat="46.14051" lon="5.61209">
        <ele>721</ele>
        <time>2020-05-24T08:58:42Z</time>
      </trkpt>
      <trkpt lat="46.14055" lon="5.61207">
        <ele>720.3</ele>
        <time>2020-05-24T08:58:43Z</time>
      </trkpt>
      <trkpt lat="46.1406" lon="5.61204">
        <ele>718.3</ele>
        <time>2020-05-24T08:58:44Z</time>
      </trkpt>
      <trkpt lat="46.14065" lon="5.612">
        <ele>716.5</ele>
        <time>2020-05-24T08:58:46Z</time>
      </trkpt>
      <trkpt lat="46.14073" lon="5.61193">
        <ele>715</ele>
        <time>2020-05-24T08:58:47Z</time>
      </trkpt>
      <trkpt lat="46.14085" lon="5.61187">
        <ele>711.4</ele>
        <time>2020-05-24T08:58:48Z</time>
      </trkpt>
      <trkpt lat="46.14094" lon="5.61183">
        <ele>709</ele>
        <time>2020-05-24T08:58:49Z</time>
      </trkpt>
      <trkpt lat="46.14109" lon="5.61171">
        <ele>705.6</ele>
        <time>2020-05-24T08:58:51Z</time>
      </trkpt>
      <trkpt lat="46.14112" lon="5.61164">
        <ele>704.8</ele>
        <time>2020-05-24T08:58:52Z</time>
      </trkpt>
      <trkpt lat="46.14118" lon="5.61142">
        <ele>703.5</ele>
        <time>2020-05-24T08:58:54Z</time>
      </trkpt>
      <trkpt lat="46.14121" lon="5.61119">
        <ele>702.4</ele>
        <time>2020-05-24T08:58:56Z</time>
      </trkpt>
      <trkpt lat="46.14121" lon="5.61111">
        <ele>702</ele>
        <time>2020-05-24T08:58:57Z</time>
      </trkpt>
      <trkpt lat="46.14122" lon="5.61107">
        <ele>701.7</ele>
        <time>2020-05-24T08:58:58Z</time>
      </trkpt>
      <trkpt lat="46.14123" lon="5.61103">
        <ele>701.4</ele>
        <time>2020-05-24T08:58:59Z</time>
      </trkpt>
      <trkpt lat="46.14122" lon="5.61102">
        <ele>701.3</ele>
        <time>2020-05-24T08:59:00Z</time>
      </trkpt>
      <trkpt lat="46.14121" lon="5.61101">
        <ele>701.1</ele>
        <time>2020-05-24T08:59:02Z</time>
      </trkpt>
      <trkpt lat="46.14121" lon="5.61102">
        <ele>701.1</ele>
        <time>2020-05-24T08:59:04Z</time>
      </trkpt>
      <trkpt lat="46.14121" lon="5.61102">
        <ele>701</ele>
        <time>2020-05-24T08:59:07Z</time>
      </trkpt>
      <trkpt lat="46.14121" lon="5.61102">
        <ele>701</ele>
        <time>2020-05-24T08:59:09Z</time>
      </trkpt>
      <trkpt lat="46.14121" lon="5.61103">
        <ele>700.9</ele>
        <time>2020-05-24T08:59:10Z</time>
      </trkpt>
      <trkpt lat="46.14121" lon="5.61103">
        <ele>700.9</ele>
        <time>2020-05-24T08:59:12Z</time>
      </trkpt>
      <trkpt lat="46.14121" lon="5.61096">
        <ele>700.3</ele>
        <time>2020-05-24T08:59:33Z</time>
      </trkpt>
      <trkpt lat="46.14121" lon="5.61092">
        <ele>699.4</ele>
        <time>2020-05-24T08:59:34Z</time>
      </trkpt>
      <trkpt lat="46.1412" lon="5.61087">
        <ele>699</ele>
        <time>2020-05-24T08:59:35Z</time>
      </trkpt>
      <trkpt lat="46.14119" lon="5.6108">
        <ele>698.5</ele>
        <time>2020-05-24T08:59:37Z</time>
      </trkpt>
      <trkpt lat="46.14118" lon="5.61075">
        <ele>698.1</ele>
        <time>2020-05-24T08:59:38Z</time>
      </trkpt>
      <trkpt lat="46.14116" lon="5.61069">
        <ele>697.6</ele>
        <time>2020-05-24T08:59:39Z</time>
      </trkpt>
      <trkpt lat="46.14114" lon="5.61057">
        <ele>696.8</ele>
        <time>2020-05-24T08:59:40Z</time>
      </trkpt>
      <trkpt lat="46.14113" lon="5.61049">
        <ele>696.4</ele>
        <time>2020-05-24T08:59:41Z</time>
      </trkpt>
      <trkpt lat="46.14114" lon="5.6104">
        <ele>696.4</ele>
        <time>2020-05-24T08:59:43Z</time>
      </trkpt>
      <trkpt lat="46.14116" lon="5.61038">
        <ele>696.4</ele>
        <time>2020-05-24T08:59:44Z</time>
      </trkpt>
      <trkpt lat="46.14117" lon="5.61036">
        <ele>695.8</ele>
        <time>2020-05-24T08:59:46Z</time>
      </trkpt>
      <trkpt lat="46.1412" lon="5.61033">
        <ele>695.2</ele>
        <time>2020-05-24T08:59:47Z</time>
      </trkpt>
      <trkpt lat="46.14123" lon="5.6103">
        <ele>694.6</ele>
        <time>2020-05-24T08:59:49Z</time>
      </trkpt>
      <trkpt lat="46.14127" lon="5.61027">
        <ele>693.9</ele>
        <time>2020-05-24T08:59:50Z</time>
      </trkpt>
      <trkpt lat="46.1413" lon="5.61023">
        <ele>693.1</ele>
        <time>2020-05-24T08:59:51Z</time>
      </trkpt>
      <trkpt lat="46.14134" lon="5.61016">
        <ele>691.7</ele>
        <time>2020-05-24T08:59:53Z</time>
      </trkpt>
      <trkpt lat="46.14136" lon="5.61011">
        <ele>691.4</ele>
        <time>2020-05-24T08:59:54Z</time>
      </trkpt>
      <trkpt lat="46.14137" lon="5.61005">
        <ele>690.3</ele>
        <time>2020-05-24T08:59:55Z</time>
      </trkpt>
      <trkpt lat="46.14139" lon="5.61">
        <ele>690.1</ele>
        <time>2020-05-24T08:59:56Z</time>
      </trkpt>
      <trkpt lat="46.14143" lon="5.60993">
        <ele>688.1</ele>
        <time>2020-05-24T08:59:58Z</time>
      </trkpt>
      <trkpt lat="46.14147" lon="5.60989">
        <ele>687</ele>
        <time>2020-05-24T08:59:59Z</time>
      </trkpt>
      <trkpt lat="46.1415" lon="5.60988">
        <ele>686.2</ele>
        <time>2020-05-24T09:00:00Z</time>
      </trkpt>
      <trkpt lat="46.14154" lon="5.60984">
        <ele>685.2</ele>
        <time>2020-05-24T09:00:02Z</time>
      </trkpt>
      <trkpt lat="46.14155" lon="5.60982">
        <ele>684.5</ele>
        <time>2020-05-24T09:00:03Z</time>
      </trkpt>
      <trkpt lat="46.14156" lon="5.60981">
        <ele>684.1</ele>
        <time>2020-05-24T09:00:04Z</time>
      </trkpt>
      <trkpt lat="46.1416" lon="5.60978">
        <ele>683.3</ele>
        <time>2020-05-24T09:00:05Z</time>
      </trkpt>
      <trkpt lat="46.14172" lon="5.6097">
        <ele>678.6</ele>
        <time>2020-05-24T09:00:07Z</time>
      </trkpt>
      <trkpt lat="46.14181" lon="5.60966">
        <ele>674.9</ele>
        <time>2020-05-24T09:00:08Z</time>
      </trkpt>
      <trkpt lat="46.14198" lon="5.6096">
        <ele>668.4</ele>
        <time>2020-05-24T09:00:10Z</time>
      </trkpt>
      <trkpt lat="46.14206" lon="5.60957">
        <ele>664.9</ele>
        <time>2020-05-24T09:00:11Z</time>
      </trkpt>
      <trkpt lat="46.14221" lon="5.60955">
        <ele>659.3</ele>
        <time>2020-05-24T09:00:13Z</time>
      </trkpt>
      <trkpt lat="46.14235" lon="5.60952">
        <ele>653.7</ele>
        <time>2020-05-24T09:00:15Z</time>
      </trkpt>
      <trkpt lat="46.14251" lon="5.60946">
        <ele>646.9</ele>
        <time>2020-05-24T09:00:17Z</time>
      </trkpt>
      <trkpt lat="46.14258" lon="5.60942">
        <ele>643.8</ele>
        <time>2020-05-24T09:00:18Z</time>
      </trkpt>
      <trkpt lat="46.14263" lon="5.60939">
        <ele>641.6</ele>
        <time>2020-05-24T09:00:19Z</time>
      </trkpt>
      <trkpt lat="46.14265" lon="5.60933">
        <ele>639.2</ele>
        <time>2020-05-24T09:00:21Z</time>
      </trkpt>
      <trkpt lat="46.14268" lon="5.60927">
        <ele>637.3</ele>
        <time>2020-05-24T09:00:23Z</time>
      </trkpt>
      <trkpt lat="46.14269" lon="5.60925">
        <ele>637.3</ele>
        <time>2020-05-24T09:00:24Z</time>
      </trkpt>
      <trkpt lat="46.14269" lon="5.60924">
        <ele>636.7</ele>
        <time>2020-05-24T09:00:25Z</time>
      </trkpt>
      <trkpt lat="46.1427" lon="5.60924">
        <ele>636.7</ele>
        <time>2020-05-24T09:00:27Z</time>
      </trkpt>
      <trkpt lat="46.1427" lon="5.60925">
        <ele>637.3</ele>
        <time>2020-05-24T09:00:29Z</time>
      </trkpt>
      <trkpt lat="46.14272" lon="5.60924">
        <ele>635.5</ele>
        <time>2020-05-24T09:00:32Z</time>
      </trkpt>
      <trkpt lat="46.14272" lon="5.60923">
        <ele>635.4</ele>
        <time>2020-05-24T09:00:33Z</time>
      </trkpt>
      <trkpt lat="46.14274" lon="5.60922">
        <ele>634.2</ele>
        <time>2020-05-24T09:00:35Z</time>
      </trkpt>
      <trkpt lat="46.14275" lon="5.60921">
        <ele>633.6</ele>
        <time>2020-05-24T09:00:36Z</time>
      </trkpt>
      <trkpt lat="46.14277" lon="5.60919">
        <ele>632.4</ele>
        <time>2020-05-24T09:00:38Z</time>
      </trkpt>
      <trkpt lat="46.14277" lon="5.60917">
        <ele>632.4</ele>
        <time>2020-05-24T09:00:39Z</time>
      </trkpt>
      <trkpt lat="46.1428" lon="5.60914">
        <ele>630.7</ele>
        <time>2020-05-24T09:00:41Z</time>
      </trkpt>
      <trkpt lat="46.14282" lon="5.60913">
        <ele>630.7</ele>
        <time>2020-05-24T09:00:42Z</time>
      </trkpt>
      <trkpt lat="46.14284" lon="5.60912">
        <ele>629.6</ele>
        <time>2020-05-24T09:00:43Z</time>
      </trkpt>
      <trkpt lat="46.14286" lon="5.6091">
        <ele>628.1</ele>
        <time>2020-05-24T09:00:45Z</time>
      </trkpt>
      <trkpt lat="46.14287" lon="5.60908">
        <ele>628.1</ele>
        <time>2020-05-24T09:00:46Z</time>
      </trkpt>
      <trkpt lat="46.14289" lon="5.60904">
        <ele>626.8</ele>
        <time>2020-05-24T09:00:47Z</time>
      </trkpt>
      <trkpt lat="46.14291" lon="5.60892">
        <ele>626.1</ele>
        <time>2020-05-24T09:00:49Z</time>
      </trkpt>
      <trkpt lat="46.14293" lon="5.60886">
        <ele>624.9</ele>
        <time>2020-05-24T09:00:50Z</time>
      </trkpt>
      <trkpt lat="46.14294" lon="5.60881">
        <ele>624.5</ele>
        <time>2020-05-24T09:00:51Z</time>
      </trkpt>
      <trkpt lat="46.14296" lon="5.60876">
        <ele>623.5</ele>
        <time>2020-05-24T09:00:53Z</time>
      </trkpt>
      <trkpt lat="46.14299" lon="5.60871">
        <ele>622.5</ele>
        <time>2020-05-24T09:00:54Z</time>
      </trkpt>
      <trkpt lat="46.143" lon="5.60864">
        <ele>622.3</ele>
        <time>2020-05-24T09:00:55Z</time>
      </trkpt>
      <trkpt lat="46.14302" lon="5.60857">
        <ele>621.3</ele>
        <time>2020-05-24T09:00:57Z</time>
      </trkpt>
      <trkpt lat="46.14304" lon="5.60853">
        <ele>620.2</ele>
        <time>2020-05-24T09:00:58Z</time>
      </trkpt>
      <trkpt lat="46.14303" lon="5.6085">
        <ele>620.1</ele>
        <time>2020-05-24T09:01:00Z</time>
      </trkpt>
      <trkpt lat="46.14304" lon="5.60849">
        <ele>620.1</ele>
        <time>2020-05-24T09:01:01Z</time>
      </trkpt>
      <trkpt lat="46.14307" lon="5.60846">
        <ele>618.9</ele>
        <time>2020-05-24T09:01:03Z</time>
      </trkpt>
      <trkpt lat="46.14308" lon="5.60845">
        <ele>618.9</ele>
        <time>2020-05-24T09:01:04Z</time>
      </trkpt>
      <trkpt lat="46.14309" lon="5.60845">
        <ele>618.9</ele>
        <time>2020-05-24T09:01:05Z</time>
      </trkpt>
      <trkpt lat="46.1431" lon="5.60843">
        <ele>617.8</ele>
        <time>2020-05-24T09:01:06Z</time>
      </trkpt>
      <trkpt lat="46.14312" lon="5.60843">
        <ele>616.8</ele>
        <time>2020-05-24T09:01:08Z</time>
      </trkpt>
      <trkpt lat="46.14315" lon="5.60841">
        <ele>616.8</ele>
        <time>2020-05-24T09:01:09Z</time>
      </trkpt>
      <trkpt lat="46.14319" lon="5.60839">
        <ele>615.1</ele>
        <time>2020-05-24T09:01:11Z</time>
      </trkpt>
      <trkpt lat="46.1432" lon="5.60839">
        <ele>615.1</ele>
        <time>2020-05-24T09:01:12Z</time>
      </trkpt>
      <trkpt lat="46.14321" lon="5.60837">
        <ele>615.1</ele>
        <time>2020-05-24T09:01:14Z</time>
      </trkpt>
      <trkpt lat="46.14323" lon="5.60834">
        <ele>614.3</ele>
        <time>2020-05-24T09:01:15Z</time>
      </trkpt>
      <trkpt lat="46.14324" lon="5.60831">
        <ele>613.5</ele>
        <time>2020-05-24T09:01:16Z</time>
      </trkpt>
      <trkpt lat="46.14327" lon="5.60829">
        <ele>613.6</ele>
        <time>2020-05-24T09:01:18Z</time>
      </trkpt>
      <trkpt lat="46.14328" lon="5.60828">
        <ele>612.7</ele>
        <time>2020-05-24T09:01:19Z</time>
      </trkpt>
      <trkpt lat="46.14329" lon="5.60827">
        <ele>612.7</ele>
        <time>2020-05-24T09:01:20Z</time>
      </trkpt>
      <trkpt lat="46.14331" lon="5.60827">
        <ele>611.9</ele>
        <time>2020-05-24T09:01:21Z</time>
      </trkpt>
      <trkpt lat="46.14333" lon="5.60827">
        <ele>611</ele>
        <time>2020-05-24T09:01:23Z</time>
      </trkpt>
      <trkpt lat="46.14334" lon="5.60827">
        <ele>611</ele>
        <time>2020-05-24T09:01:24Z</time>
      </trkpt>
      <trkpt lat="46.14335" lon="5.60827">
        <ele>611</ele>
        <time>2020-05-24T09:01:25Z</time>
      </trkpt>
      <trkpt lat="46.14336" lon="5.60826">
        <ele>610.3</ele>
        <time>2020-05-24T09:01:27Z</time>
      </trkpt>
      <trkpt lat="46.14337" lon="5.60826">
        <ele>610.3</ele>
        <time>2020-05-24T09:01:28Z</time>
      </trkpt>
      <trkpt lat="46.14337" lon="5.60826">
        <ele>610.2</ele>
        <time>2020-05-24T09:01:29Z</time>
      </trkpt>
      <trkpt lat="46.14338" lon="5.60826">
        <ele>610.2</ele>
        <time>2020-05-24T09:01:31Z</time>
      </trkpt>
      <trkpt lat="46.14339" lon="5.60825">
        <ele>609.5</ele>
        <time>2020-05-24T09:01:32Z</time>
      </trkpt>
      <trkpt lat="46.14341" lon="5.60826">
        <ele>609.5</ele>
        <time>2020-05-24T09:01:34Z</time>
      </trkpt>
      <trkpt lat="46.14341" lon="5.60826">
        <ele>609.5</ele>
        <time>2020-05-24T09:01:36Z</time>
      </trkpt>
      <trkpt lat="46.14342" lon="5.60826">
        <ele>609.5</ele>
        <time>2020-05-24T09:01:37Z</time>
      </trkpt>
      <trkpt lat="46.14342" lon="5.60826">
        <ele>608.9</ele>
        <time>2020-05-24T09:01:39Z</time>
      </trkpt>
      <trkpt lat="46.14342" lon="5.60825">
        <ele>608.8</ele>
        <time>2020-05-24T09:01:40Z</time>
      </trkpt>
      <trkpt lat="46.14343" lon="5.60825">
        <ele>608.8</ele>
        <time>2020-05-24T09:01:41Z</time>
      </trkpt>
      <trkpt lat="46.14344" lon="5.60825">
        <ele>608.8</ele>
        <time>2020-05-24T09:01:43Z</time>
      </trkpt>
      <trkpt lat="46.14345" lon="5.60824">
        <ele>608.2</ele>
        <time>2020-05-24T09:01:45Z</time>
      </trkpt>
      <trkpt lat="46.14346" lon="5.60824">
        <ele>608.2</ele>
        <time>2020-05-24T09:01:47Z</time>
      </trkpt>
      <trkpt lat="46.14347" lon="5.60824">
        <ele>608.2</ele>
        <time>2020-05-24T09:01:49Z</time>
      </trkpt>
      <trkpt lat="46.14347" lon="5.60824">
        <ele>608.2</ele>
        <time>2020-05-24T09:01:50Z</time>
      </trkpt>
      <trkpt lat="46.14347" lon="5.60825">
        <ele>608.2</ele>
        <time>2020-05-24T09:01:51Z</time>
      </trkpt>
      <trkpt lat="46.14347" lon="5.60824">
        <ele>608.2</ele>
        <time>2020-05-24T09:01:53Z</time>
      </trkpt>
      <trkpt lat="46.14348" lon="5.60824">
        <ele>607.6</ele>
        <time>2020-05-24T09:01:54Z</time>
      </trkpt>
      <trkpt lat="46.14349" lon="5.60824">
        <ele>607.6</ele>
        <time>2020-05-24T09:01:55Z</time>
      </trkpt>
      <trkpt lat="46.1435" lon="5.60826">
        <ele>607.6</ele>
        <time>2020-05-24T09:01:56Z</time>
      </trkpt>
      <trkpt lat="46.14351" lon="5.60829">
        <ele>606.8</ele>
        <time>2020-05-24T09:01:58Z</time>
      </trkpt>
      <trkpt lat="46.14352" lon="5.6083">
        <ele>606.8</ele>
        <time>2020-05-24T09:02:00Z</time>
      </trkpt>
      <trkpt lat="46.14354" lon="5.60831">
        <ele>606.7</ele>
        <time>2020-05-24T09:02:01Z</time>
      </trkpt>
      <trkpt lat="46.14354" lon="5.60831">
        <ele>606</ele>
        <time>2020-05-24T09:02:03Z</time>
      </trkpt>
      <trkpt lat="46.14355" lon="5.60831">
        <ele>606</ele>
        <time>2020-05-24T09:02:04Z</time>
      </trkpt>
      <trkpt lat="46.14356" lon="5.60831">
        <ele>606</ele>
        <time>2020-05-24T09:02:06Z</time>
      </trkpt>
      <trkpt lat="46.14356" lon="5.60831">
        <ele>606</ele>
        <time>2020-05-24T09:02:07Z</time>
      </trkpt>
      <trkpt lat="46.14358" lon="5.60832">
        <ele>605.2</ele>
        <time>2020-05-24T09:02:10Z</time>
      </trkpt>
      <trkpt lat="46.14358" lon="5.60832">
        <ele>605.2</ele>
        <time>2020-05-24T09:02:11Z</time>
      </trkpt>
      <trkpt lat="46.14358" lon="5.60832">
        <ele>605.2</ele>
        <time>2020-05-24T09:02:12Z</time>
      </trkpt>
      <trkpt lat="46.14358" lon="5.60833">
        <ele>605.2</ele>
        <time>2020-05-24T09:02:13Z</time>
      </trkpt>
      <trkpt lat="46.14358" lon="5.60835">
        <ele>605.2</ele>
        <time>2020-05-24T09:02:15Z</time>
      </trkpt>
      <trkpt lat="46.14357" lon="5.6084">
        <ele>605.2</ele>
        <time>2020-05-24T09:02:18Z</time>
      </trkpt>
      <trkpt lat="46.14357" lon="5.60842">
        <ele>605.9</ele>
        <time>2020-05-24T09:02:20Z</time>
      </trkpt>
      <trkpt lat="46.14357" lon="5.60845">
        <ele>605.3</ele>
        <time>2020-05-24T09:02:21Z</time>
      </trkpt>
      <trkpt lat="46.14358" lon="5.60848">
        <ele>605.3</ele>
        <time>2020-05-24T09:02:22Z</time>
      </trkpt>
      <trkpt lat="46.14359" lon="5.6085">
        <ele>605.4</ele>
        <time>2020-05-24T09:02:24Z</time>
      </trkpt>
      <trkpt lat="46.14361" lon="5.60853">
        <ele>604.8</ele>
        <time>2020-05-24T09:02:25Z</time>
      </trkpt>
      <trkpt lat="46.14362" lon="5.60854">
        <ele>604.8</ele>
        <time>2020-05-24T09:02:26Z</time>
      </trkpt>
      <trkpt lat="46.14364" lon="5.60855">
        <ele>604.1</ele>
        <time>2020-05-24T09:02:28Z</time>
      </trkpt>
      <trkpt lat="46.14365" lon="5.60856">
        <ele>604.1</ele>
        <time>2020-05-24T09:02:29Z</time>
      </trkpt>
      <trkpt lat="46.14367" lon="5.60859">
        <ele>603.5</ele>
        <time>2020-05-24T09:02:31Z</time>
      </trkpt>
      <trkpt lat="46.14367" lon="5.60859">
        <ele>603.5</ele>
        <time>2020-05-24T09:02:32Z</time>
      </trkpt>
      <trkpt lat="46.14368" lon="5.6086">
        <ele>603.5</ele>
        <time>2020-05-24T09:02:33Z</time>
      </trkpt>
      <trkpt lat="46.14369" lon="5.60861">
        <ele>602.9</ele>
        <time>2020-05-24T09:02:35Z</time>
      </trkpt>
      <trkpt lat="46.14369" lon="5.60863">
        <ele>602.9</ele>
        <time>2020-05-24T09:02:36Z</time>
      </trkpt>
      <trkpt lat="46.14369" lon="5.60864">
        <ele>602.9</ele>
        <time>2020-05-24T09:02:37Z</time>
      </trkpt>
      <trkpt lat="46.14368" lon="5.60865">
        <ele>603.9</ele>
        <time>2020-05-24T09:02:39Z</time>
      </trkpt>
      <trkpt lat="46.14368" lon="5.60866">
        <ele>603.9</ele>
        <time>2020-05-24T09:02:40Z</time>
      </trkpt>
      <trkpt lat="46.14368" lon="5.60867">
        <ele>603.9</ele>
        <time>2020-05-24T09:02:41Z</time>
      </trkpt>
      <trkpt lat="46.14368" lon="5.60868">
        <ele>603.8</ele>
        <time>2020-05-24T09:02:42Z</time>
      </trkpt>
      <trkpt lat="46.14369" lon="5.6087">
        <ele>603.3</ele>
        <time>2020-05-24T09:02:44Z</time>
      </trkpt>
      <trkpt lat="46.1437" lon="5.60873">
        <ele>603.3</ele>
        <time>2020-05-24T09:02:45Z</time>
      </trkpt>
      <trkpt lat="46.14371" lon="5.60874">
        <ele>603.5</ele>
        <time>2020-05-24T09:02:46Z</time>
      </trkpt>
      <trkpt lat="46.14373" lon="5.60875">
        <ele>602.7</ele>
        <time>2020-05-24T09:02:47Z</time>
      </trkpt>
      <trkpt lat="46.14378" lon="5.60871">
        <ele>601</ele>
        <time>2020-05-24T09:02:48Z</time>
      </trkpt>
      <trkpt lat="46.14381" lon="5.60867">
        <ele>600</ele>
        <time>2020-05-24T09:02:49Z</time>
      </trkpt>
      <trkpt lat="46.1439" lon="5.60855">
        <ele>596.9</ele>
        <time>2020-05-24T09:02:51Z</time>
      </trkpt>
      <trkpt lat="46.14399" lon="5.60849">
        <ele>594.2</ele>
        <time>2020-05-24T09:02:53Z</time>
      </trkpt>
      <trkpt lat="46.14406" lon="5.60845">
        <ele>592.8</ele>
        <time>2020-05-24T09:02:54Z</time>
      </trkpt>
      <trkpt lat="46.14411" lon="5.60841">
        <ele>591.1</ele>
        <time>2020-05-24T09:02:55Z</time>
      </trkpt>
      <trkpt lat="46.14414" lon="5.60838">
        <ele>590.1</ele>
        <time>2020-05-24T09:02:56Z</time>
      </trkpt>
      <trkpt lat="46.14425" lon="5.6083">
        <ele>586.8</ele>
        <time>2020-05-24T09:02:58Z</time>
      </trkpt>
      <trkpt lat="46.14433" lon="5.60825">
        <ele>583.9</ele>
        <time>2020-05-24T09:02:59Z</time>
      </trkpt>
      <trkpt lat="46.14441" lon="5.6082">
        <ele>580.4</ele>
        <time>2020-05-24T09:03:00Z</time>
      </trkpt>
      <trkpt lat="46.14445" lon="5.60816">
        <ele>578.9</ele>
        <time>2020-05-24T09:03:01Z</time>
      </trkpt>
      <trkpt lat="46.14449" lon="5.60814">
        <ele>576.5</ele>
        <time>2020-05-24T09:03:02Z</time>
      </trkpt>
      <trkpt lat="46.14454" lon="5.60814">
        <ele>575.3</ele>
        <time>2020-05-24T09:03:03Z</time>
      </trkpt>
      <trkpt lat="46.14458" lon="5.60815">
        <ele>572.9</ele>
        <time>2020-05-24T09:03:04Z</time>
      </trkpt>
      <trkpt lat="46.14461" lon="5.60812">
        <ele>571.5</ele>
        <time>2020-05-24T09:03:06Z</time>
      </trkpt>
      <trkpt lat="46.14461" lon="5.60811">
        <ele>571.5</ele>
        <time>2020-05-24T09:03:07Z</time>
      </trkpt>
      <trkpt lat="46.14462" lon="5.60811">
        <ele>571.5</ele>
        <time>2020-05-24T09:03:08Z</time>
      </trkpt>
      <trkpt lat="46.14462" lon="5.60811">
        <ele>571.5</ele>
        <time>2020-05-24T09:03:10Z</time>
      </trkpt>
      <trkpt lat="46.14464" lon="5.60811">
        <ele>570.2</ele>
        <time>2020-05-24T09:03:12Z</time>
      </trkpt>
      <trkpt lat="46.14465" lon="5.60811">
        <ele>570.2</ele>
        <time>2020-05-24T09:03:13Z</time>
      </trkpt>
      <trkpt lat="46.14466" lon="5.6081">
        <ele>570.2</ele>
        <time>2020-05-24T09:03:15Z</time>
      </trkpt>
      <trkpt lat="46.14467" lon="5.60809">
        <ele>568.7</ele>
        <time>2020-05-24T09:03:16Z</time>
      </trkpt>
      <trkpt lat="46.14468" lon="5.60808">
        <ele>568.7</ele>
        <time>2020-05-24T09:03:18Z</time>
      </trkpt>
      <trkpt lat="46.14469" lon="5.60808">
        <ele>568.7</ele>
        <time>2020-05-24T09:03:19Z</time>
      </trkpt>
      <trkpt lat="46.14469" lon="5.60808">
        <ele>568.7</ele>
        <time>2020-05-24T09:03:20Z</time>
      </trkpt>
      <trkpt lat="46.1447" lon="5.60808">
        <ele>567.3</ele>
        <time>2020-05-24T09:03:22Z</time>
      </trkpt>
      <trkpt lat="46.14471" lon="5.60808">
        <ele>567.3</ele>
        <time>2020-05-24T09:03:23Z</time>
      </trkpt>
      <trkpt lat="46.14472" lon="5.60804">
        <ele>567.1</ele>
        <time>2020-05-24T09:03:24Z</time>
      </trkpt>
      <trkpt lat="46.14473" lon="5.60802">
        <ele>565.6</ele>
        <time>2020-05-24T09:03:25Z</time>
      </trkpt>
      <trkpt lat="46.14474" lon="5.60801">
        <ele>565.6</ele>
        <time>2020-05-24T09:03:26Z</time>
      </trkpt>
      <trkpt lat="46.14476" lon="5.60799">
        <ele>563.9</ele>
        <time>2020-05-24T09:03:28Z</time>
      </trkpt>
      <trkpt lat="46.1448" lon="5.60791">
        <ele>562</ele>
        <time>2020-05-24T09:03:30Z</time>
      </trkpt>
      <trkpt lat="46.14482" lon="5.60786">
        <ele>560.5</ele>
        <time>2020-05-24T09:03:31Z</time>
      </trkpt>
      <trkpt lat="46.14485" lon="5.60781">
        <ele>559</ele>
        <time>2020-05-24T09:03:33Z</time>
      </trkpt>
      <trkpt lat="46.14486" lon="5.60778">
        <ele>558.9</ele>
        <time>2020-05-24T09:03:34Z</time>
      </trkpt>
      <trkpt lat="46.14488" lon="5.60777">
        <ele>557.6</ele>
        <time>2020-05-24T09:03:35Z</time>
      </trkpt>
      <trkpt lat="46.14491" lon="5.60775">
        <ele>556.3</ele>
        <time>2020-05-24T09:03:37Z</time>
      </trkpt>
      <trkpt lat="46.14492" lon="5.60774">
        <ele>556.1</ele>
        <time>2020-05-24T09:03:38Z</time>
      </trkpt>
      <trkpt lat="46.14492" lon="5.60772">
        <ele>556.1</ele>
        <time>2020-05-24T09:03:40Z</time>
      </trkpt>
      <trkpt lat="46.14493" lon="5.6077">
        <ele>555.9</ele>
        <time>2020-05-24T09:03:41Z</time>
      </trkpt>
      <trkpt lat="46.14493" lon="5.60769">
        <ele>555.9</ele>
        <time>2020-05-24T09:03:42Z</time>
      </trkpt>
      <trkpt lat="46.14496" lon="5.60768">
        <ele>554.5</ele>
        <time>2020-05-24T09:03:44Z</time>
      </trkpt>
      <trkpt lat="46.14499" lon="5.60766">
        <ele>552.7</ele>
        <time>2020-05-24T09:03:45Z</time>
      </trkpt>
      <trkpt lat="46.145" lon="5.60765">
        <ele>551.2</ele>
        <time>2020-05-24T09:03:46Z</time>
      </trkpt>
      <trkpt lat="46.14503" lon="5.60763">
        <ele>549.7</ele>
        <time>2020-05-24T09:03:48Z</time>
      </trkpt>
      <trkpt lat="46.14505" lon="5.60759">
        <ele>549.4</ele>
        <time>2020-05-24T09:03:49Z</time>
      </trkpt>
      <trkpt lat="46.14505" lon="5.60754">
        <ele>547.8</ele>
        <time>2020-05-24T09:03:50Z</time>
      </trkpt>
      <trkpt lat="46.14506" lon="5.60752">
        <ele>547.5</ele>
        <time>2020-05-24T09:03:51Z</time>
      </trkpt>
      <trkpt lat="46.1451" lon="5.60752">
        <ele>546.3</ele>
        <time>2020-05-24T09:03:53Z</time>
      </trkpt>
      <trkpt lat="46.14513" lon="5.60751">
        <ele>545.2</ele>
        <time>2020-05-24T09:03:54Z</time>
      </trkpt>
      <trkpt lat="46.14514" lon="5.60751">
        <ele>545.2</ele>
        <time>2020-05-24T09:03:55Z</time>
      </trkpt>
      <trkpt lat="46.14515" lon="5.60751">
        <ele>544.1</ele>
        <time>2020-05-24T09:03:56Z</time>
      </trkpt>
      <trkpt lat="46.14517" lon="5.6075">
        <ele>544.1</ele>
        <time>2020-05-24T09:03:58Z</time>
      </trkpt>
      <trkpt lat="46.14518" lon="5.60749">
        <ele>542.9</ele>
        <time>2020-05-24T09:03:59Z</time>
      </trkpt>
      <trkpt lat="46.14518" lon="5.60749">
        <ele>542.9</ele>
        <time>2020-05-24T09:04:00Z</time>
      </trkpt>
      <trkpt lat="46.14519" lon="5.60748">
        <ele>542.7</ele>
        <time>2020-05-24T09:04:02Z</time>
      </trkpt>
      <trkpt lat="46.14519" lon="5.60748">
        <ele>542.7</ele>
        <time>2020-05-24T09:04:04Z</time>
      </trkpt>
      <trkpt lat="46.14519" lon="5.60748">
        <ele>542.7</ele>
        <time>2020-05-24T09:04:06Z</time>
      </trkpt>
      <trkpt lat="46.14518" lon="5.60739">
        <ele>542.4</ele>
        <time>2020-05-24T09:04:22Z</time>
      </trkpt>
      <trkpt lat="46.14518" lon="5.60739">
        <ele>542.4</ele>
        <time>2020-05-24T09:04:24Z</time>
      </trkpt>
      <trkpt lat="46.14518" lon="5.60739">
        <ele>542.4</ele>
        <time>2020-05-24T09:04:25Z</time>
      </trkpt>
      <trkpt lat="46.14518" lon="5.60738">
        <ele>542.4</ele>
        <time>2020-05-24T09:04:27Z</time>
      </trkpt>
      <trkpt lat="46.14519" lon="5.60739">
        <ele>542.4</ele>
        <time>2020-05-24T09:04:29Z</time>
      </trkpt>
      <trkpt lat="46.14519" lon="5.6074">
        <ele>542.4</ele>
        <time>2020-05-24T09:04:31Z</time>
      </trkpt>
      <trkpt lat="46.14519" lon="5.60741">
        <ele>542.5</ele>
        <time>2020-05-24T09:04:33Z</time>
      </trkpt>
      <trkpt lat="46.1452" lon="5.60741">
        <ele>542.5</ele>
        <time>2020-05-24T09:04:35Z</time>
      </trkpt>
      <trkpt lat="46.1452" lon="5.60741">
        <ele>542.5</ele>
        <time>2020-05-24T09:04:36Z</time>
      </trkpt>
      <trkpt lat="46.1452" lon="5.6074">
        <ele>541.2</ele>
        <time>2020-05-24T09:04:37Z</time>
      </trkpt>
      <trkpt lat="46.1452" lon="5.60739">
        <ele>542.3</ele>
        <time>2020-05-24T09:04:39Z</time>
      </trkpt>
      <trkpt lat="46.1452" lon="5.60739">
        <ele>542.3</ele>
        <time>2020-05-24T09:04:41Z</time>
      </trkpt>
      <trkpt lat="46.1452" lon="5.60739">
        <ele>542.3</ele>
        <time>2020-05-24T09:04:43Z</time>
      </trkpt>
      <trkpt lat="46.14521" lon="5.60738">
        <ele>541.1</ele>
        <time>2020-05-24T09:04:45Z</time>
      </trkpt>
      <trkpt lat="46.14522" lon="5.60738">
        <ele>541.1</ele>
        <time>2020-05-24T09:04:46Z</time>
      </trkpt>
      <trkpt lat="46.14522" lon="5.60738">
        <ele>541.1</ele>
        <time>2020-05-24T09:04:47Z</time>
      </trkpt>
      <trkpt lat="46.14521" lon="5.60737">
        <ele>541.1</ele>
        <time>2020-05-24T09:04:49Z</time>
      </trkpt>
      <trkpt lat="46.14521" lon="5.60737">
        <ele>541.1</ele>
        <time>2020-05-24T09:04:50Z</time>
      </trkpt>
      <trkpt lat="46.14521" lon="5.60737">
        <ele>541.1</ele>
        <time>2020-05-24T09:04:51Z</time>
      </trkpt>
      <trkpt lat="46.14521" lon="5.60738">
        <ele>541.1</ele>
        <time>2020-05-24T09:04:53Z</time>
      </trkpt>
      <trkpt lat="46.14521" lon="5.60738">
        <ele>541.1</ele>
        <time>2020-05-24T09:04:55Z</time>
      </trkpt>
      <trkpt lat="46.14521" lon="5.60738">
        <ele>541.1</ele>
        <time>2020-05-24T09:04:57Z</time>
      </trkpt>
      <trkpt lat="46.14527" lon="5.60742">
        <ele>538.8</ele>
        <time>2020-05-24T09:05:07Z</time>
      </trkpt>
      <trkpt lat="46.1453" lon="5.6074">
        <ele>537.6</ele>
        <time>2020-05-24T09:05:09Z</time>
      </trkpt>
      <trkpt lat="46.14532" lon="5.60737">
        <ele>536.6</ele>
        <time>2020-05-24T09:05:10Z</time>
      </trkpt>
      <trkpt lat="46.14535" lon="5.60734">
        <ele>535.5</ele>
        <time>2020-05-24T09:05:11Z</time>
      </trkpt>
      <trkpt lat="46.14537" lon="5.60731">
        <ele>535.4</ele>
        <time>2020-05-24T09:05:12Z</time>
      </trkpt>
      <trkpt lat="46.1454" lon="5.60728">
        <ele>534.4</ele>
        <time>2020-05-24T09:05:15Z</time>
      </trkpt>
      <trkpt lat="46.14542" lon="5.60729">
        <ele>533.3</ele>
        <time>2020-05-24T09:05:16Z</time>
      </trkpt>
      <trkpt lat="46.14543" lon="5.60731">
        <ele>533.3</ele>
        <time>2020-05-24T09:05:18Z</time>
      </trkpt>
      <trkpt lat="46.14545" lon="5.60733">
        <ele>532.3</ele>
        <time>2020-05-24T09:05:19Z</time>
      </trkpt>
      <trkpt lat="46.14547" lon="5.60735">
        <ele>532.3</ele>
        <time>2020-05-24T09:05:21Z</time>
      </trkpt>
      <trkpt lat="46.1455" lon="5.60735">
        <ele>530</ele>
        <time>2020-05-24T09:05:22Z</time>
      </trkpt>
      <trkpt lat="46.14551" lon="5.60735">
        <ele>530</ele>
        <time>2020-05-24T09:05:23Z</time>
      </trkpt>
      <trkpt lat="46.14553" lon="5.60735">
        <ele>528.8</ele>
        <time>2020-05-24T09:05:25Z</time>
      </trkpt>
      <trkpt lat="46.14556" lon="5.60734">
        <ele>527.5</ele>
        <time>2020-05-24T09:05:27Z</time>
      </trkpt>
      <trkpt lat="46.14557" lon="5.60734">
        <ele>527.5</ele>
        <time>2020-05-24T09:05:28Z</time>
      </trkpt>
      <trkpt lat="46.14557" lon="5.60733">
        <ele>527.5</ele>
        <time>2020-05-24T09:05:29Z</time>
      </trkpt>
      <trkpt lat="46.14558" lon="5.60732">
        <ele>527.5</ele>
        <time>2020-05-24T09:05:31Z</time>
      </trkpt>
      <trkpt lat="46.14559" lon="5.60731">
        <ele>527.5</ele>
        <time>2020-05-24T09:05:32Z</time>
      </trkpt>
      <trkpt lat="46.14558" lon="5.60729">
        <ele>527.5</ele>
        <time>2020-05-24T09:05:34Z</time>
      </trkpt>
      <trkpt lat="46.14557" lon="5.60727">
        <ele>527.5</ele>
        <time>2020-05-24T09:05:36Z</time>
      </trkpt>
      <trkpt lat="46.14557" lon="5.60725">
        <ele>527.5</ele>
        <time>2020-05-24T09:05:38Z</time>
      </trkpt>
      <trkpt lat="46.14557" lon="5.60724">
        <ele>527.5</ele>
        <time>2020-05-24T09:05:39Z</time>
      </trkpt>
      <trkpt lat="46.14557" lon="5.60723">
        <ele>527.5</ele>
        <time>2020-05-24T09:05:40Z</time>
      </trkpt>
      <trkpt lat="46.14556" lon="5.60723">
        <ele>527.5</ele>
        <time>2020-05-24T09:05:42Z</time>
      </trkpt>
      <trkpt lat="46.14556" lon="5.60723">
        <ele>527.5</ele>
        <time>2020-05-24T09:05:43Z</time>
      </trkpt>
      <trkpt lat="46.14556" lon="5.60723">
        <ele>527.5</ele>
        <time>2020-05-24T09:05:45Z</time>
      </trkpt>
      <trkpt lat="46.14556" lon="5.60723">
        <ele>527.5</ele>
        <time>2020-05-24T09:05:46Z</time>
      </trkpt>
      <trkpt lat="46.14556" lon="5.60721">
        <ele>528.7</ele>
        <time>2020-05-24T09:05:48Z</time>
      </trkpt>
      <trkpt lat="46.14556" lon="5.60718">
        <ele>528.7</ele>
        <time>2020-05-24T09:05:49Z</time>
      </trkpt>
      <trkpt lat="46.14556" lon="5.60716">
        <ele>527.4</ele>
        <time>2020-05-24T09:05:50Z</time>
      </trkpt>
      <trkpt lat="46.1456" lon="5.60711">
        <ele>526.2</ele>
        <time>2020-05-24T09:05:52Z</time>
      </trkpt>
      <trkpt lat="46.14563" lon="5.60708">
        <ele>525.1</ele>
        <time>2020-05-24T09:05:54Z</time>
      </trkpt>
      <trkpt lat="46.14563" lon="5.60707">
        <ele>525.1</ele>
        <time>2020-05-24T09:05:56Z</time>
      </trkpt>
      <trkpt lat="46.14564" lon="5.60705">
        <ele>525.2</ele>
        <time>2020-05-24T09:05:57Z</time>
      </trkpt>
      <trkpt lat="46.14565" lon="5.60704">
        <ele>524.1</ele>
        <time>2020-05-24T09:05:59Z</time>
      </trkpt>
      <trkpt lat="46.14566" lon="5.60702">
        <ele>524.1</ele>
        <time>2020-05-24T09:06:01Z</time>
      </trkpt>
      <trkpt lat="46.14567" lon="5.60701">
        <ele>524.2</ele>
        <time>2020-05-24T09:06:03Z</time>
      </trkpt>
      <trkpt lat="46.14568" lon="5.60699">
        <ele>524.2</ele>
        <time>2020-05-24T09:06:04Z</time>
      </trkpt>
      <trkpt lat="46.14569" lon="5.60698">
        <ele>523.3</ele>
        <time>2020-05-24T09:06:06Z</time>
      </trkpt>
      <trkpt lat="46.1457" lon="5.60697">
        <ele>523.4</ele>
        <time>2020-05-24T09:06:18Z</time>
      </trkpt>
      <trkpt lat="46.1457" lon="5.60695">
        <ele>523.4</ele>
        <time>2020-05-24T09:06:19Z</time>
      </trkpt>
      <trkpt lat="46.14571" lon="5.60694">
        <ele>522.5</ele>
        <time>2020-05-24T09:06:21Z</time>
      </trkpt>
      <trkpt lat="46.14572" lon="5.60692">
        <ele>522.6</ele>
        <time>2020-05-24T09:06:22Z</time>
      </trkpt>
      <trkpt lat="46.14573" lon="5.60693">
        <ele>522.6</ele>
        <time>2020-05-24T09:06:23Z</time>
      </trkpt>
      <trkpt lat="46.14573" lon="5.60694">
        <ele>522.5</ele>
        <time>2020-05-24T09:06:24Z</time>
      </trkpt>
      <trkpt lat="46.14575" lon="5.60693">
        <ele>521.7</ele>
        <time>2020-05-24T09:06:26Z</time>
      </trkpt>
      <trkpt lat="46.14579" lon="5.60696">
        <ele>520.5</ele>
        <time>2020-05-24T09:06:27Z</time>
      </trkpt>
      <trkpt lat="46.14585" lon="5.60699">
        <ele>518.1</ele>
        <time>2020-05-24T09:06:29Z</time>
      </trkpt>
      <trkpt lat="46.1459" lon="5.60702">
        <ele>515.9</ele>
        <time>2020-05-24T09:06:30Z</time>
      </trkpt>
      <trkpt lat="46.14593" lon="5.60705">
        <ele>514.9</ele>
        <time>2020-05-24T09:06:31Z</time>
      </trkpt>
      <trkpt lat="46.14596" lon="5.60707">
        <ele>513.9</ele>
        <time>2020-05-24T09:06:32Z</time>
      </trkpt>
      <trkpt lat="46.146" lon="5.60707">
        <ele>513.1</ele>
        <time>2020-05-24T09:06:33Z</time>
      </trkpt>
      <trkpt lat="46.14605" lon="5.60707">
        <ele>511.3</ele>
        <time>2020-05-24T09:06:35Z</time>
      </trkpt>
      <trkpt lat="46.14611" lon="5.60706">
        <ele>509.6</ele>
        <time>2020-05-24T09:06:36Z</time>
      </trkpt>
      <trkpt lat="46.1462" lon="5.60707">
        <ele>507</ele>
        <time>2020-05-24T09:06:38Z</time>
      </trkpt>
      <trkpt lat="46.14626" lon="5.60706">
        <ele>505.6</ele>
        <time>2020-05-24T09:06:40Z</time>
      </trkpt>
      <trkpt lat="46.14627" lon="5.60706">
        <ele>505.6</ele>
        <time>2020-05-24T09:06:41Z</time>
      </trkpt>
      <trkpt lat="46.14628" lon="5.60707">
        <ele>504.9</ele>
        <time>2020-05-24T09:06:43Z</time>
      </trkpt>
      <trkpt lat="46.14629" lon="5.60706">
        <ele>504.9</ele>
        <time>2020-05-24T09:06:45Z</time>
      </trkpt>
      <trkpt lat="46.14629" lon="5.60705">
        <ele>504.9</ele>
        <time>2020-05-24T09:06:46Z</time>
      </trkpt>
      <trkpt lat="46.1463" lon="5.60705">
        <ele>504.9</ele>
        <time>2020-05-24T09:06:47Z</time>
      </trkpt>
      <trkpt lat="46.1463" lon="5.60703">
        <ele>504.9</ele>
        <time>2020-05-24T09:06:49Z</time>
      </trkpt>
      <trkpt lat="46.1463" lon="5.60702">
        <ele>504.2</ele>
        <time>2020-05-24T09:06:50Z</time>
      </trkpt>
      <trkpt lat="46.14631" lon="5.607">
        <ele>504.2</ele>
        <time>2020-05-24T09:06:52Z</time>
      </trkpt>
      <trkpt lat="46.14631" lon="5.60699">
        <ele>504.2</ele>
        <time>2020-05-24T09:06:53Z</time>
      </trkpt>
      <trkpt lat="46.14631" lon="5.60698">
        <ele>504.2</ele>
        <time>2020-05-24T09:06:54Z</time>
      </trkpt>
      <trkpt lat="46.14635" lon="5.60693">
        <ele>503.4</ele>
        <time>2020-05-24T09:06:56Z</time>
      </trkpt>
      <trkpt lat="46.14638" lon="5.6069">
        <ele>502.7</ele>
        <time>2020-05-24T09:06:57Z</time>
      </trkpt>
      <trkpt lat="46.14643" lon="5.60682">
        <ele>501.1</ele>
        <time>2020-05-24T09:06:58Z</time>
      </trkpt>
      <trkpt lat="46.1465" lon="5.60662">
        <ele>501.3</ele>
        <time>2020-05-24T09:07:00Z</time>
      </trkpt>
      <trkpt lat="46.14652" lon="5.60651">
        <ele>501.5</ele>
        <time>2020-05-24T09:07:02Z</time>
      </trkpt>
      <trkpt lat="46.14653" lon="5.60649">
        <ele>501.5</ele>
        <time>2020-05-24T09:07:03Z</time>
      </trkpt>
      <trkpt lat="46.14654" lon="5.6064">
        <ele>501.6</ele>
        <time>2020-05-24T09:07:05Z</time>
      </trkpt>
      <trkpt lat="46.14655" lon="5.60632">
        <ele>501.7</ele>
        <time>2020-05-24T09:07:06Z</time>
      </trkpt>
      <trkpt lat="46.14655" lon="5.60626">
        <ele>501.8</ele>
        <time>2020-05-24T09:07:07Z</time>
      </trkpt>
      <trkpt lat="46.14655" lon="5.60621">
        <ele>501.8</ele>
        <time>2020-05-24T09:07:08Z</time>
      </trkpt>
      <trkpt lat="46.14655" lon="5.60613">
        <ele>502</ele>
        <time>2020-05-24T09:07:10Z</time>
      </trkpt>
      <trkpt lat="46.14655" lon="5.60607">
        <ele>502.1</ele>
        <time>2020-05-24T09:07:11Z</time>
      </trkpt>
      <trkpt lat="46.14656" lon="5.60601">
        <ele>502.2</ele>
        <time>2020-05-24T09:07:13Z</time>
      </trkpt>
      <trkpt lat="46.14657" lon="5.60597">
        <ele>502.3</ele>
        <time>2020-05-24T09:07:14Z</time>
      </trkpt>
      <trkpt lat="46.14658" lon="5.60596">
        <ele>502.3</ele>
        <time>2020-05-24T09:07:15Z</time>
      </trkpt>
      <trkpt lat="46.14658" lon="5.60592">
        <ele>502.4</ele>
        <time>2020-05-24T09:07:16Z</time>
      </trkpt>
      <trkpt lat="46.14659" lon="5.6059">
        <ele>502.5</ele>
        <time>2020-05-24T09:07:18Z</time>
      </trkpt>
      <trkpt lat="46.14659" lon="5.60588">
        <ele>502.5</ele>
        <time>2020-05-24T09:07:19Z</time>
      </trkpt>
      <trkpt lat="46.1466" lon="5.60586">
        <ele>502.6</ele>
        <time>2020-05-24T09:07:20Z</time>
      </trkpt>
      <trkpt lat="46.14662" lon="5.60583">
        <ele>502.7</ele>
        <time>2020-05-24T09:07:22Z</time>
      </trkpt>
      <trkpt lat="46.14663" lon="5.60581">
        <ele>502.7</ele>
        <time>2020-05-24T09:07:23Z</time>
      </trkpt>
      <trkpt lat="46.14665" lon="5.60577">
        <ele>502.8</ele>
        <time>2020-05-24T09:07:25Z</time>
      </trkpt>
      <trkpt lat="46.14665" lon="5.60576">
        <ele>502.8</ele>
        <time>2020-05-24T09:07:27Z</time>
      </trkpt>
      <trkpt lat="46.14665" lon="5.60576">
        <ele>502.8</ele>
        <time>2020-05-24T09:07:29Z</time>
      </trkpt>
      <trkpt lat="46.14665" lon="5.60575">
        <ele>502.8</ele>
        <time>2020-05-24T09:07:30Z</time>
      </trkpt>
      <trkpt lat="46.14665" lon="5.60575">
        <ele>502.8</ele>
        <time>2020-05-24T09:07:32Z</time>
      </trkpt>
      <trkpt lat="46.14665" lon="5.60575">
        <ele>502.8</ele>
        <time>2020-05-24T09:07:33Z</time>
      </trkpt>
      <trkpt lat="46.14665" lon="5.60575">
        <ele>502.8</ele>
        <time>2020-05-24T09:07:34Z</time>
      </trkpt>
      <trkpt lat="46.14665" lon="5.60575">
        <ele>502.8</ele>
        <time>2020-05-24T09:07:35Z</time>
      </trkpt>
      <trkpt lat="46.14674" lon="5.60562">
        <ele>503</ele>
        <time>2020-05-24T09:08:47Z</time>
      </trkpt>
      <trkpt lat="46.14674" lon="5.60562">
        <ele>503</ele>
        <time>2020-05-24T09:08:48Z</time>
      </trkpt>
      <trkpt lat="46.14674" lon="5.60562">
        <ele>503</ele>
        <time>2020-05-24T09:08:49Z</time>
      </trkpt>
      <trkpt lat="46.14674" lon="5.60562">
        <ele>503</ele>
        <time>2020-05-24T09:08:51Z</time>
      </trkpt>
      <trkpt lat="46.14674" lon="5.60562">
        <ele>503</ele>
        <time>2020-05-24T09:08:53Z</time>
      </trkpt>
      <trkpt lat="46.14673" lon="5.60562">
        <ele>503</ele>
        <time>2020-05-24T09:08:55Z</time>
      </trkpt>
      <trkpt lat="46.14674" lon="5.60563">
        <ele>503</ele>
        <time>2020-05-24T09:08:56Z</time>
      </trkpt>
      <trkpt lat="46.14676" lon="5.60564">
        <ele>503</ele>
        <time>2020-05-24T09:08:58Z</time>
      </trkpt>
      <trkpt lat="46.14672" lon="5.60563">
        <ele>503</ele>
        <time>2020-05-24T09:09:00Z</time>
      </trkpt>
      <trkpt lat="46.14671" lon="5.60562">
        <ele>503</ele>
        <time>2020-05-24T09:09:02Z</time>
      </trkpt>
      <trkpt lat="46.14672" lon="5.60562">
        <ele>503</ele>
        <time>2020-05-24T09:09:04Z</time>
      </trkpt>
      <trkpt lat="46.14672" lon="5.60562">
        <ele>503</ele>
        <time>2020-05-24T09:09:05Z</time>
      </trkpt>
      <trkpt lat="46.14672" lon="5.60562">
        <ele>503</ele>
        <time>2020-05-24T09:09:06Z</time>
      </trkpt>
      <trkpt lat="46.1467" lon="5.60562">
        <ele>503</ele>
        <time>2020-05-24T09:09:08Z</time>
      </trkpt>
      <trkpt lat="46.1467" lon="5.60562">
        <ele>503.1</ele>
        <time>2020-05-24T09:09:09Z</time>
      </trkpt>
      <trkpt lat="46.14669" lon="5.60561">
        <ele>503.1</ele>
        <time>2020-05-24T09:09:11Z</time>
      </trkpt>
      <trkpt lat="46.14669" lon="5.6056">
        <ele>503.1</ele>
        <time>2020-05-24T09:09:13Z</time>
      </trkpt>
      <trkpt lat="46.14669" lon="5.60559">
        <ele>503.1</ele>
        <time>2020-05-24T09:09:14Z</time>
      </trkpt>
      <trkpt lat="46.14667" lon="5.60558">
        <ele>503.1</ele>
        <time>2020-05-24T09:09:16Z</time>
      </trkpt>
      <trkpt lat="46.14667" lon="5.60558">
        <ele>503.1</ele>
        <time>2020-05-24T09:09:17Z</time>
      </trkpt>
      <trkpt lat="46.14667" lon="5.60558">
        <ele>503.1</ele>
        <time>2020-05-24T09:09:19Z</time>
      </trkpt>
      <trkpt lat="46.14665" lon="5.60558">
        <ele>503.1</ele>
        <time>2020-05-24T09:09:20Z</time>
      </trkpt>
      <trkpt lat="46.14664" lon="5.60557">
        <ele>503.1</ele>
        <time>2020-05-24T09:09:22Z</time>
      </trkpt>
      <trkpt lat="46.14663" lon="5.60557">
        <ele>503.1</ele>
        <time>2020-05-24T09:09:23Z</time>
      </trkpt>
      <trkpt lat="46.14663" lon="5.60557">
        <ele>503.1</ele>
        <time>2020-05-24T09:09:24Z</time>
      </trkpt>
      <trkpt lat="46.14663" lon="5.60557">
        <ele>503.1</ele>
        <time>2020-05-24T09:09:26Z</time>
      </trkpt>
      <trkpt lat="46.14663" lon="5.60557">
        <ele>503.1</ele>
        <time>2020-05-24T09:09:28Z</time>
      </trkpt>
      <trkpt lat="46.14663" lon="5.60557">
        <ele>503.1</ele>
        <time>2020-05-24T09:09:29Z</time>
      </trkpt>
      <trkpt lat="46.14663" lon="5.60557">
        <ele>503.1</ele>
        <time>2020-05-24T09:09:31Z</time>
      </trkpt>
      <trkpt lat="46.14665" lon="5.60555">
        <ele>503.2</ele>
        <time>2020-05-24T09:09:32Z</time>
      </trkpt>
      <trkpt lat="46.14665" lon="5.60555">
        <ele>503.2</ele>
        <time>2020-05-24T09:09:33Z</time>
      </trkpt>
      <trkpt lat="46.14666" lon="5.60555">
        <ele>503.2</ele>
        <time>2020-05-24T09:09:34Z</time>
      </trkpt>
      <trkpt lat="46.14666" lon="5.60555">
        <ele>503.2</ele>
        <time>2020-05-24T09:09:35Z</time>
      </trkpt>
      <trkpt lat="46.14666" lon="5.60555">
        <ele>503.2</ele>
        <time>2020-05-24T09:09:36Z</time>
      </trkpt>
      <trkpt lat="46.14666" lon="5.60555">
        <ele>503.2</ele>
        <time>2020-05-24T09:09:38Z</time>
      </trkpt>
      <trkpt lat="46.14666" lon="5.60555">
        <ele>503.2</ele>
        <time>2020-05-24T09:09:39Z</time>
      </trkpt>
      <trkpt lat="46.14666" lon="5.60557">
        <ele>503.2</ele>
        <time>2020-05-24T09:09:41Z</time>
      </trkpt>
      <trkpt lat="46.14666" lon="5.60558">
        <ele>503.2</ele>
        <time>2020-05-24T09:09:42Z</time>
      </trkpt>
      <trkpt lat="46.14667" lon="5.60558">
        <ele>503.2</ele>
        <time>2020-05-24T09:09:44Z</time>
      </trkpt>
      <trkpt lat="46.14666" lon="5.60558">
        <ele>503.2</ele>
        <time>2020-05-24T09:09:45Z</time>
      </trkpt>
      <trkpt lat="46.14666" lon="5.60558">
        <ele>503.2</ele>
        <time>2020-05-24T09:09:46Z</time>
      </trkpt>
      <trkpt lat="46.14666" lon="5.60558">
        <ele>503.2</ele>
        <time>2020-05-24T09:09:47Z</time>
      </trkpt>
      <trkpt lat="46.14666" lon="5.60558">
        <ele>503.2</ele>
        <time>2020-05-24T09:09:49Z</time>
      </trkpt>
      <trkpt lat="46.14666" lon="5.60558">
        <ele>503.2</ele>
        <time>2020-05-24T09:09:51Z</time>
      </trkpt>
      <trkpt lat="46.14667" lon="5.60558">
        <ele>503.2</ele>
        <time>2020-05-24T09:09:56Z</time>
      </trkpt>
      <trkpt lat="46.14668" lon="5.60559">
        <ele>503.2</ele>
        <time>2020-05-24T09:09:57Z</time>
      </trkpt>
      <trkpt lat="46.14668" lon="5.6056">
        <ele>503.2</ele>
        <time>2020-05-24T09:09:58Z</time>
      </trkpt>
      <trkpt lat="46.14668" lon="5.6056">
        <ele>503.2</ele>
        <time>2020-05-24T09:09:59Z</time>
      </trkpt>
      <trkpt lat="46.14668" lon="5.6056">
        <ele>503.2</ele>
        <time>2020-05-24T09:10:01Z</time>
      </trkpt>
      <trkpt lat="46.14668" lon="5.6056">
        <ele>503.2</ele>
        <time>2020-05-24T09:10:03Z</time>
      </trkpt>
      <trkpt lat="46.14669" lon="5.60559">
        <ele>503.3</ele>
        <time>2020-05-24T09:10:05Z</time>
      </trkpt>
      <trkpt lat="46.14668" lon="5.60559">
        <ele>503.3</ele>
        <time>2020-05-24T09:10:07Z</time>
      </trkpt>
      <trkpt lat="46.14669" lon="5.60558">
        <ele>503.3</ele>
        <time>2020-05-24T09:10:08Z</time>
      </trkpt>
      <trkpt lat="46.1467" lon="5.60557">
        <ele>503.3</ele>
        <time>2020-05-24T09:10:35Z</time>
      </trkpt>
      <trkpt lat="46.1467" lon="5.60557">
        <ele>503.3</ele>
        <time>2020-05-24T09:10:37Z</time>
      </trkpt>
      <trkpt lat="46.1467" lon="5.60556">
        <ele>503.3</ele>
        <time>2020-05-24T09:10:39Z</time>
      </trkpt>
      <trkpt lat="46.14671" lon="5.60555">
        <ele>503.3</ele>
        <time>2020-05-24T09:10:40Z</time>
      </trkpt>
      <trkpt lat="46.14671" lon="5.60554">
        <ele>503.3</ele>
        <time>2020-05-24T09:10:41Z</time>
      </trkpt>
      <trkpt lat="46.14671" lon="5.60552">
        <ele>503.3</ele>
        <time>2020-05-24T09:10:42Z</time>
      </trkpt>
      <trkpt lat="46.14671" lon="5.6055">
        <ele>503.4</ele>
        <time>2020-05-24T09:10:44Z</time>
      </trkpt>
      <trkpt lat="46.14671" lon="5.60548">
        <ele>503.4</ele>
        <time>2020-05-24T09:10:45Z</time>
      </trkpt>
      <trkpt lat="46.14671" lon="5.60545">
        <ele>503.4</ele>
        <time>2020-05-24T09:10:47Z</time>
      </trkpt>
      <trkpt lat="46.14671" lon="5.60543">
        <ele>503.4</ele>
        <time>2020-05-24T09:10:48Z</time>
      </trkpt>
      <trkpt lat="46.14671" lon="5.60541">
        <ele>503.4</ele>
        <time>2020-05-24T09:10:49Z</time>
      </trkpt>
      <trkpt lat="46.14672" lon="5.60538">
        <ele>503.4</ele>
        <time>2020-05-24T09:10:51Z</time>
      </trkpt>
      <trkpt lat="46.14672" lon="5.60534">
        <ele>503.5</ele>
        <time>2020-05-24T09:10:52Z</time>
      </trkpt>
      <trkpt lat="46.14674" lon="5.60528">
        <ele>503.5</ele>
        <time>2020-05-24T09:10:54Z</time>
      </trkpt>
      <trkpt lat="46.14675" lon="5.60522">
        <ele>503.6</ele>
        <time>2020-05-24T09:10:56Z</time>
      </trkpt>
      <trkpt lat="46.14675" lon="5.60518">
        <ele>503.6</ele>
        <time>2020-05-24T09:10:57Z</time>
      </trkpt>
      <trkpt lat="46.14676" lon="5.60513">
        <ele>503.7</ele>
        <time>2020-05-24T09:10:59Z</time>
      </trkpt>
      <trkpt lat="46.14677" lon="5.60507">
        <ele>503.7</ele>
        <time>2020-05-24T09:11:01Z</time>
      </trkpt>
      <trkpt lat="46.14678" lon="5.60505">
        <ele>503.8</ele>
        <time>2020-05-24T09:11:02Z</time>
      </trkpt>
      <trkpt lat="46.14678" lon="5.60503">
        <ele>503.8</ele>
        <time>2020-05-24T09:11:03Z</time>
      </trkpt>
      <trkpt lat="46.14678" lon="5.60499">
        <ele>503.9</ele>
        <time>2020-05-24T09:11:05Z</time>
      </trkpt>
      <trkpt lat="46.14679" lon="5.60496">
        <ele>503.9</ele>
        <time>2020-05-24T09:11:06Z</time>
      </trkpt>
      <trkpt lat="46.14681" lon="5.60491">
        <ele>504</ele>
        <time>2020-05-24T09:11:08Z</time>
      </trkpt>
      <trkpt lat="46.14682" lon="5.60487">
        <ele>504</ele>
        <time>2020-05-24T09:11:10Z</time>
      </trkpt>
      <trkpt lat="46.14683" lon="5.60483">
        <ele>504.1</ele>
        <time>2020-05-24T09:11:11Z</time>
      </trkpt>
      <trkpt lat="46.14685" lon="5.60478">
        <ele>504.1</ele>
        <time>2020-05-24T09:11:12Z</time>
      </trkpt>
      <trkpt lat="46.14686" lon="5.60477">
        <ele>504.2</ele>
        <time>2020-05-24T09:11:13Z</time>
      </trkpt>
      <trkpt lat="46.14688" lon="5.60472">
        <ele>504.3</ele>
        <time>2020-05-24T09:11:14Z</time>
      </trkpt>
      <trkpt lat="46.14688" lon="5.6047">
        <ele>504.3</ele>
        <time>2020-05-24T09:11:15Z</time>
      </trkpt>
      <trkpt lat="46.1469" lon="5.60467">
        <ele>504.3</ele>
        <time>2020-05-24T09:11:16Z</time>
      </trkpt>
      <trkpt lat="46.14691" lon="5.60464">
        <ele>504.4</ele>
        <time>2020-05-24T09:11:18Z</time>
      </trkpt>
      <trkpt lat="46.14693" lon="5.6046">
        <ele>504.4</ele>
        <time>2020-05-24T09:11:19Z</time>
      </trkpt>
      <trkpt lat="46.14694" lon="5.60456">
        <ele>504.5</ele>
        <time>2020-05-24T09:11:20Z</time>
      </trkpt>
      <trkpt lat="46.14694" lon="5.60455">
        <ele>504.5</ele>
        <time>2020-05-24T09:11:21Z</time>
      </trkpt>
      <trkpt lat="46.14696" lon="5.6045">
        <ele>504.6</ele>
        <time>2020-05-24T09:11:23Z</time>
      </trkpt>
      <trkpt lat="46.14697" lon="5.60448">
        <ele>504.6</ele>
        <time>2020-05-24T09:11:24Z</time>
      </trkpt>
      <trkpt lat="46.14698" lon="5.60445">
        <ele>504.7</ele>
        <time>2020-05-24T09:11:25Z</time>
      </trkpt>
      <trkpt lat="46.14698" lon="5.60444">
        <ele>504.7</ele>
        <time>2020-05-24T09:11:27Z</time>
      </trkpt>
      <trkpt lat="46.14699" lon="5.60442">
        <ele>504.7</ele>
        <time>2020-05-24T09:11:28Z</time>
      </trkpt>
      <trkpt lat="46.14701" lon="5.60437">
        <ele>504.8</ele>
        <time>2020-05-24T09:11:30Z</time>
      </trkpt>
      <trkpt lat="46.14702" lon="5.60433">
        <ele>504.8</ele>
        <time>2020-05-24T09:11:31Z</time>
      </trkpt>
      <trkpt lat="46.14703" lon="5.60431">
        <ele>504.9</ele>
        <time>2020-05-24T09:11:32Z</time>
      </trkpt>
      <trkpt lat="46.14705" lon="5.60428">
        <ele>504.9</ele>
        <time>2020-05-24T09:11:34Z</time>
      </trkpt>
      <trkpt lat="46.14707" lon="5.60424">
        <ele>505</ele>
        <time>2020-05-24T09:11:35Z</time>
      </trkpt>
      <trkpt lat="46.14708" lon="5.60423">
        <ele>505</ele>
        <time>2020-05-24T09:11:36Z</time>
      </trkpt>
      <trkpt lat="46.1471" lon="5.6042">
        <ele>505.1</ele>
        <time>2020-05-24T09:11:37Z</time>
      </trkpt>
      <trkpt lat="46.1471" lon="5.60419">
        <ele>505.1</ele>
        <time>2020-05-24T09:11:38Z</time>
      </trkpt>
      <trkpt lat="46.14714" lon="5.60413">
        <ele>505.2</ele>
        <time>2020-05-24T09:11:40Z</time>
      </trkpt>
      <trkpt lat="46.14715" lon="5.60411">
        <ele>505.2</ele>
        <time>2020-05-24T09:11:41Z</time>
      </trkpt>
      <trkpt lat="46.14716" lon="5.60409">
        <ele>505.3</ele>
        <time>2020-05-24T09:11:42Z</time>
      </trkpt>
      <trkpt lat="46.14718" lon="5.60406">
        <ele>505.3</ele>
        <time>2020-05-24T09:11:44Z</time>
      </trkpt>
      <trkpt lat="46.14719" lon="5.60403">
        <ele>505.4</ele>
        <time>2020-05-24T09:11:45Z</time>
      </trkpt>
      <trkpt lat="46.14722" lon="5.604">
        <ele>505.4</ele>
        <time>2020-05-24T09:11:47Z</time>
      </trkpt>
      <trkpt lat="46.14724" lon="5.60397">
        <ele>505.5</ele>
        <time>2020-05-24T09:11:48Z</time>
      </trkpt>
      <trkpt lat="46.14725" lon="5.60395">
        <ele>505.5</ele>
        <time>2020-05-24T09:11:49Z</time>
      </trkpt>
      <trkpt lat="46.14728" lon="5.60393">
        <ele>505.6</ele>
        <time>2020-05-24T09:11:51Z</time>
      </trkpt>
      <trkpt lat="46.14731" lon="5.60389">
        <ele>505.6</ele>
        <time>2020-05-24T09:11:53Z</time>
      </trkpt>
      <trkpt lat="46.14734" lon="5.60384">
        <ele>505.7</ele>
        <time>2020-05-24T09:11:54Z</time>
      </trkpt>
      <trkpt lat="46.14738" lon="5.60377">
        <ele>505.8</ele>
        <time>2020-05-24T09:11:56Z</time>
      </trkpt>
      <trkpt lat="46.14742" lon="5.60373">
        <ele>505.9</ele>
        <time>2020-05-24T09:11:58Z</time>
      </trkpt>
      <trkpt lat="46.14744" lon="5.60372">
        <ele>505.9</ele>
        <time>2020-05-24T09:11:59Z</time>
      </trkpt>
      <trkpt lat="46.14745" lon="5.60371">
        <ele>505.9</ele>
        <time>2020-05-24T09:12:00Z</time>
      </trkpt>
      <trkpt lat="46.14746" lon="5.6037">
        <ele>506</ele>
        <time>2020-05-24T09:12:01Z</time>
      </trkpt>
      <trkpt lat="46.1475" lon="5.60367">
        <ele>506</ele>
        <time>2020-05-24T09:12:03Z</time>
      </trkpt>
      <trkpt lat="46.14752" lon="5.60365">
        <ele>506.1</ele>
        <time>2020-05-24T09:12:04Z</time>
      </trkpt>
      <trkpt lat="46.14756" lon="5.60362">
        <ele>506.2</ele>
        <time>2020-05-24T09:12:06Z</time>
      </trkpt>
      <trkpt lat="46.14759" lon="5.60359">
        <ele>506.2</ele>
        <time>2020-05-24T09:12:07Z</time>
      </trkpt>
      <trkpt lat="46.14762" lon="5.60356">
        <ele>506.3</ele>
        <time>2020-05-24T09:12:09Z</time>
      </trkpt>
      <trkpt lat="46.14765" lon="5.60353">
        <ele>506.4</ele>
        <time>2020-05-24T09:12:10Z</time>
      </trkpt>
      <trkpt lat="46.14766" lon="5.60352">
        <ele>506.4</ele>
        <time>2020-05-24T09:12:11Z</time>
      </trkpt>
      <trkpt lat="46.14769" lon="5.60349">
        <ele>506.5</ele>
        <time>2020-05-24T09:12:13Z</time>
      </trkpt>
      <trkpt lat="46.14772" lon="5.60346">
        <ele>506.5</ele>
        <time>2020-05-24T09:12:14Z</time>
      </trkpt>
      <trkpt lat="46.14775" lon="5.60343">
        <ele>506.6</ele>
        <time>2020-05-24T09:12:16Z</time>
      </trkpt>
      <trkpt lat="46.14777" lon="5.60341">
        <ele>506.7</ele>
        <time>2020-05-24T09:12:17Z</time>
      </trkpt>
      <trkpt lat="46.14781" lon="5.60337">
        <ele>506.8</ele>
        <time>2020-05-24T09:12:18Z</time>
      </trkpt>
      <trkpt lat="46.14782" lon="5.60336">
        <ele>506.8</ele>
        <time>2020-05-24T09:12:19Z</time>
      </trkpt>
      <trkpt lat="46.14785" lon="5.60334">
        <ele>506.9</ele>
        <time>2020-05-24T09:12:21Z</time>
      </trkpt>
      <trkpt lat="46.14788" lon="5.60332">
        <ele>506.9</ele>
        <time>2020-05-24T09:12:22Z</time>
      </trkpt>
      <trkpt lat="46.1479" lon="5.6033">
        <ele>507</ele>
        <time>2020-05-24T09:12:23Z</time>
      </trkpt>
      <trkpt lat="46.14795" lon="5.60325">
        <ele>507.1</ele>
        <time>2020-05-24T09:12:25Z</time>
      </trkpt>
      <trkpt lat="46.14797" lon="5.60321">
        <ele>507.2</ele>
        <time>2020-05-24T09:12:27Z</time>
      </trkpt>
      <trkpt lat="46.14799" lon="5.60318">
        <ele>507.3</ele>
        <time>2020-05-24T09:12:28Z</time>
      </trkpt>
      <trkpt lat="46.14803" lon="5.60313">
        <ele>507.4</ele>
        <time>2020-05-24T09:12:30Z</time>
      </trkpt>
      <trkpt lat="46.14805" lon="5.6031">
        <ele>507.5</ele>
        <time>2020-05-24T09:12:31Z</time>
      </trkpt>
      <trkpt lat="46.14806" lon="5.60309">
        <ele>507.5</ele>
        <time>2020-05-24T09:12:32Z</time>
      </trkpt>
      <trkpt lat="46.1481" lon="5.60304">
        <ele>507.6</ele>
        <time>2020-05-24T09:12:34Z</time>
      </trkpt>
      <trkpt lat="46.14812" lon="5.60301">
        <ele>507.7</ele>
        <time>2020-05-24T09:12:35Z</time>
      </trkpt>
      <trkpt lat="46.14816" lon="5.60294">
        <ele>507.8</ele>
        <time>2020-05-24T09:12:36Z</time>
      </trkpt>
      <trkpt lat="46.14819" lon="5.60291">
        <ele>507.9</ele>
        <time>2020-05-24T09:12:38Z</time>
      </trkpt>
      <trkpt lat="46.14821" lon="5.60288">
        <ele>507.9</ele>
        <time>2020-05-24T09:12:39Z</time>
      </trkpt>
      <trkpt lat="46.14823" lon="5.60284">
        <ele>508</ele>
        <time>2020-05-24T09:12:41Z</time>
      </trkpt>
      <trkpt lat="46.14825" lon="5.6028">
        <ele>508</ele>
        <time>2020-05-24T09:12:42Z</time>
      </trkpt>
      <trkpt lat="46.14828" lon="5.60274">
        <ele>508.1</ele>
        <time>2020-05-24T09:12:44Z</time>
      </trkpt>
      <trkpt lat="46.14829" lon="5.60272">
        <ele>508.1</ele>
        <time>2020-05-24T09:12:45Z</time>
      </trkpt>
      <trkpt lat="46.14831" lon="5.60267">
        <ele>508.2</ele>
        <time>2020-05-24T09:12:47Z</time>
      </trkpt>
      <trkpt lat="46.14834" lon="5.6026">
        <ele>508.2</ele>
        <time>2020-05-24T09:12:49Z</time>
      </trkpt>
      <trkpt lat="46.14835" lon="5.60255">
        <ele>508.2</ele>
        <time>2020-05-24T09:12:51Z</time>
      </trkpt>
      <trkpt lat="46.14837" lon="5.60245">
        <ele>508.3</ele>
        <time>2020-05-24T09:12:52Z</time>
      </trkpt>
      <trkpt lat="46.14838" lon="5.60239">
        <ele>508.3</ele>
        <time>2020-05-24T09:12:53Z</time>
      </trkpt>
      <trkpt lat="46.1484" lon="5.60232">
        <ele>508.3</ele>
        <time>2020-05-24T09:12:55Z</time>
      </trkpt>
      <trkpt lat="46.14841" lon="5.60228">
        <ele>508.4</ele>
        <time>2020-05-24T09:12:56Z</time>
      </trkpt>
      <trkpt lat="46.14842" lon="5.60224">
        <ele>508.4</ele>
        <time>2020-05-24T09:12:58Z</time>
      </trkpt>
      <trkpt lat="46.14842" lon="5.60222">
        <ele>508.4</ele>
        <time>2020-05-24T09:12:59Z</time>
      </trkpt>
      <trkpt lat="46.14843" lon="5.60219">
        <ele>508.5</ele>
        <time>2020-05-24T09:13:01Z</time>
      </trkpt>
      <trkpt lat="46.14843" lon="5.60216">
        <ele>508.5</ele>
        <time>2020-05-24T09:13:02Z</time>
      </trkpt>
      <trkpt lat="46.14843" lon="5.60213">
        <ele>508.6</ele>
        <time>2020-05-24T09:13:04Z</time>
      </trkpt>
      <trkpt lat="46.14843" lon="5.60209">
        <ele>508.6</ele>
        <time>2020-05-24T09:13:06Z</time>
      </trkpt>
      <trkpt lat="46.14843" lon="5.60205">
        <ele>508.7</ele>
        <time>2020-05-24T09:13:08Z</time>
      </trkpt>
      <trkpt lat="46.14843" lon="5.602">
        <ele>508.7</ele>
        <time>2020-05-24T09:13:09Z</time>
      </trkpt>
      <trkpt lat="46.14843" lon="5.60199">
        <ele>508.7</ele>
        <time>2020-05-24T09:13:10Z</time>
      </trkpt>
      <trkpt lat="46.14844" lon="5.60194">
        <ele>508.8</ele>
        <time>2020-05-24T09:13:12Z</time>
      </trkpt>
      <trkpt lat="46.14845" lon="5.60188">
        <ele>508.8</ele>
        <time>2020-05-24T09:13:14Z</time>
      </trkpt>
      <trkpt lat="46.14845" lon="5.60186">
        <ele>508.8</ele>
        <time>2020-05-24T09:13:15Z</time>
      </trkpt>
      <trkpt lat="46.14847" lon="5.60182">
        <ele>508.8</ele>
        <time>2020-05-24T09:13:17Z</time>
      </trkpt>
      <trkpt lat="46.14848" lon="5.60178">
        <ele>509.2</ele>
        <time>2020-05-24T09:13:19Z</time>
      </trkpt>
      <trkpt lat="46.14849" lon="5.60177">
        <ele>509.4</ele>
        <time>2020-05-24T09:13:20Z</time>
      </trkpt>
      <trkpt lat="46.1485" lon="5.60173">
        <ele>509.7</ele>
        <time>2020-05-24T09:13:22Z</time>
      </trkpt>
      <trkpt lat="46.14851" lon="5.60171">
        <ele>509.9</ele>
        <time>2020-05-24T09:13:23Z</time>
      </trkpt>
      <trkpt lat="46.14852" lon="5.60168">
        <ele>510.2</ele>
        <time>2020-05-24T09:13:25Z</time>
      </trkpt>
      <trkpt lat="46.14852" lon="5.60164">
        <ele>510.6</ele>
        <time>2020-05-24T09:13:26Z</time>
      </trkpt>
      <trkpt lat="46.14853" lon="5.60163">
        <ele>510.7</ele>
        <time>2020-05-24T09:13:27Z</time>
      </trkpt>
      <trkpt lat="46.14853" lon="5.60158">
        <ele>511.1</ele>
        <time>2020-05-24T09:13:29Z</time>
      </trkpt>
      <trkpt lat="46.14853" lon="5.60156">
        <ele>511.3</ele>
        <time>2020-05-24T09:13:30Z</time>
      </trkpt>
      <trkpt lat="46.14853" lon="5.60153">
        <ele>511.6</ele>
        <time>2020-05-24T09:13:31Z</time>
      </trkpt>
      <trkpt lat="46.14853" lon="5.6015">
        <ele>511.8</ele>
        <time>2020-05-24T09:13:33Z</time>
      </trkpt>
      <trkpt lat="46.14854" lon="5.60148">
        <ele>512</ele>
        <time>2020-05-24T09:13:34Z</time>
      </trkpt>
      <trkpt lat="46.14854" lon="5.60145">
        <ele>512.3</ele>
        <time>2020-05-24T09:13:35Z</time>
      </trkpt>
      <trkpt lat="46.14855" lon="5.60141">
        <ele>512.6</ele>
        <time>2020-05-24T09:13:36Z</time>
      </trkpt>
      <trkpt lat="46.14855" lon="5.60139">
        <ele>512.8</ele>
        <time>2020-05-24T09:13:37Z</time>
      </trkpt>
      <trkpt lat="46.14855" lon="5.60137">
        <ele>513</ele>
        <time>2020-05-24T09:13:39Z</time>
      </trkpt>
      <trkpt lat="46.14855" lon="5.60134">
        <ele>513.3</ele>
        <time>2020-05-24T09:13:40Z</time>
      </trkpt>
      <trkpt lat="46.14855" lon="5.60132">
        <ele>513.4</ele>
        <time>2020-05-24T09:13:41Z</time>
      </trkpt>
      <trkpt lat="46.14855" lon="5.60128">
        <ele>513.8</ele>
        <time>2020-05-24T09:13:43Z</time>
      </trkpt>
      <trkpt lat="46.14856" lon="5.60124">
        <ele>514.2</ele>
        <time>2020-05-24T09:13:44Z</time>
      </trkpt>
      <trkpt lat="46.14856" lon="5.60123">
        <ele>514.3</ele>
        <time>2020-05-24T09:13:45Z</time>
      </trkpt>
      <trkpt lat="46.14857" lon="5.6012">
        <ele>514.5</ele>
        <time>2020-05-24T09:13:46Z</time>
      </trkpt>
      <trkpt lat="46.14857" lon="5.60117">
        <ele>514.7</ele>
        <time>2020-05-24T09:13:48Z</time>
      </trkpt>
      <trkpt lat="46.14858" lon="5.60113">
        <ele>515.1</ele>
        <time>2020-05-24T09:13:49Z</time>
      </trkpt>
      <trkpt lat="46.14858" lon="5.60112">
        <ele>515.2</ele>
        <time>2020-05-24T09:13:50Z</time>
      </trkpt>
      <trkpt lat="46.14859" lon="5.6011">
        <ele>515.3</ele>
        <time>2020-05-24T09:13:51Z</time>
      </trkpt>
      <trkpt lat="46.14859" lon="5.60108">
        <ele>515.5</ele>
        <time>2020-05-24T09:13:53Z</time>
      </trkpt>
      <trkpt lat="46.1486" lon="5.60106">
        <ele>515.7</ele>
        <time>2020-05-24T09:13:54Z</time>
      </trkpt>
      <trkpt lat="46.1486" lon="5.60104">
        <ele>515.9</ele>
        <time>2020-05-24T09:13:55Z</time>
      </trkpt>
      <trkpt lat="46.14861" lon="5.60102">
        <ele>516</ele>
        <time>2020-05-24T09:13:56Z</time>
      </trkpt>
      <trkpt lat="46.14861" lon="5.60099">
        <ele>516.3</ele>
        <time>2020-05-24T09:13:58Z</time>
      </trkpt>
      <trkpt lat="46.14862" lon="5.60096">
        <ele>516.5</ele>
        <time>2020-05-24T09:13:59Z</time>
      </trkpt>
      <trkpt lat="46.14863" lon="5.60094">
        <ele>516.6</ele>
        <time>2020-05-24T09:14:00Z</time>
      </trkpt>
      <trkpt lat="46.14864" lon="5.6009">
        <ele>517</ele>
        <time>2020-05-24T09:14:02Z</time>
      </trkpt>
      <trkpt lat="46.14865" lon="5.60088">
        <ele>517.2</ele>
        <time>2020-05-24T09:14:03Z</time>
      </trkpt>
      <trkpt lat="46.14866" lon="5.60085">
        <ele>517.4</ele>
        <time>2020-05-24T09:14:05Z</time>
      </trkpt>
      <trkpt lat="46.14867" lon="5.60083">
        <ele>517.6</ele>
        <time>2020-05-24T09:14:06Z</time>
      </trkpt>
      <trkpt lat="46.14868" lon="5.6008">
        <ele>517.9</ele>
        <time>2020-05-24T09:14:08Z</time>
      </trkpt>
      <trkpt lat="46.14869" lon="5.60078">
        <ele>518.1</ele>
        <time>2020-05-24T09:14:09Z</time>
      </trkpt>
      <trkpt lat="46.14869" lon="5.60075">
        <ele>518.3</ele>
        <time>2020-05-24T09:14:10Z</time>
      </trkpt>
      <trkpt lat="46.14871" lon="5.60071">
        <ele>518.8</ele>
        <time>2020-05-24T09:14:12Z</time>
      </trkpt>
      <trkpt lat="46.14872" lon="5.60069">
        <ele>518.9</ele>
        <time>2020-05-24T09:14:13Z</time>
      </trkpt>
      <trkpt lat="46.14872" lon="5.60067">
        <ele>519.1</ele>
        <time>2020-05-24T09:14:15Z</time>
      </trkpt>
      <trkpt lat="46.14873" lon="5.60065">
        <ele>519.3</ele>
        <time>2020-05-24T09:14:16Z</time>
      </trkpt>
      <trkpt lat="46.14874" lon="5.60062">
        <ele>519.6</ele>
        <time>2020-05-24T09:14:17Z</time>
      </trkpt>
      <trkpt lat="46.14874" lon="5.60061">
        <ele>519.8</ele>
        <time>2020-05-24T09:14:19Z</time>
      </trkpt>
      <trkpt lat="46.14874" lon="5.60059">
        <ele>519.9</ele>
        <time>2020-05-24T09:14:20Z</time>
      </trkpt>
      <trkpt lat="46.14875" lon="5.60057">
        <ele>520.1</ele>
        <time>2020-05-24T09:14:21Z</time>
      </trkpt>
      <trkpt lat="46.14875" lon="5.60055">
        <ele>520.3</ele>
        <time>2020-05-24T09:14:22Z</time>
      </trkpt>
      <trkpt lat="46.14876" lon="5.60054">
        <ele>520.4</ele>
        <time>2020-05-24T09:14:24Z</time>
      </trkpt>
      <trkpt lat="46.14876" lon="5.60051">
        <ele>520.7</ele>
        <time>2020-05-24T09:14:25Z</time>
      </trkpt>
      <trkpt lat="46.14877" lon="5.60048">
        <ele>521</ele>
        <time>2020-05-24T09:14:26Z</time>
      </trkpt>
      <trkpt lat="46.14877" lon="5.60046">
        <ele>521.2</ele>
        <time>2020-05-24T09:14:28Z</time>
      </trkpt>
      <trkpt lat="46.14877" lon="5.60045">
        <ele>521.3</ele>
        <time>2020-05-24T09:14:29Z</time>
      </trkpt>
      <trkpt lat="46.14878" lon="5.60043">
        <ele>521.5</ele>
        <time>2020-05-24T09:14:30Z</time>
      </trkpt>
      <trkpt lat="46.14878" lon="5.60042">
        <ele>521.7</ele>
        <time>2020-05-24T09:14:31Z</time>
      </trkpt>
      <trkpt lat="46.14878" lon="5.60041">
        <ele>521.8</ele>
        <time>2020-05-24T09:14:32Z</time>
      </trkpt>
      <trkpt lat="46.14879" lon="5.60038">
        <ele>522.1</ele>
        <time>2020-05-24T09:14:34Z</time>
      </trkpt>
      <trkpt lat="46.1488" lon="5.60036">
        <ele>522.3</ele>
        <time>2020-05-24T09:14:35Z</time>
      </trkpt>
      <trkpt lat="46.1488" lon="5.60035">
        <ele>522.4</ele>
        <time>2020-05-24T09:14:36Z</time>
      </trkpt>
      <trkpt lat="46.1488" lon="5.60034">
        <ele>522.6</ele>
        <time>2020-05-24T09:14:38Z</time>
      </trkpt>
      <trkpt lat="46.14881" lon="5.60032">
        <ele>522.8</ele>
        <time>2020-05-24T09:14:39Z</time>
      </trkpt>
      <trkpt lat="46.14882" lon="5.6003">
        <ele>523</ele>
        <time>2020-05-24T09:14:41Z</time>
      </trkpt>
      <trkpt lat="46.14882" lon="5.60028">
        <ele>523.2</ele>
        <time>2020-05-24T09:14:42Z</time>
      </trkpt>
      <trkpt lat="46.14883" lon="5.60027">
        <ele>523.4</ele>
        <time>2020-05-24T09:14:43Z</time>
      </trkpt>
      <trkpt lat="46.14883" lon="5.60025">
        <ele>523.6</ele>
        <time>2020-05-24T09:14:45Z</time>
      </trkpt>
      <trkpt lat="46.14883" lon="5.60023">
        <ele>523.8</ele>
        <time>2020-05-24T09:14:46Z</time>
      </trkpt>
      <trkpt lat="46.14884" lon="5.60022">
        <ele>524</ele>
        <time>2020-05-24T09:14:47Z</time>
      </trkpt>
      <trkpt lat="46.14885" lon="5.60018">
        <ele>524.4</ele>
        <time>2020-05-24T09:14:49Z</time>
      </trkpt>
      <trkpt lat="46.14886" lon="5.60017">
        <ele>524.5</ele>
        <time>2020-05-24T09:14:50Z</time>
      </trkpt>
      <trkpt lat="46.14886" lon="5.60015">
        <ele>524.7</ele>
        <time>2020-05-24T09:14:51Z</time>
      </trkpt>
      <trkpt lat="46.14887" lon="5.60013">
        <ele>524.9</ele>
        <time>2020-05-24T09:14:53Z</time>
      </trkpt>
      <trkpt lat="46.14887" lon="5.60012">
        <ele>525.1</ele>
        <time>2020-05-24T09:14:54Z</time>
      </trkpt>
      <trkpt lat="46.14888" lon="5.6001">
        <ele>525.3</ele>
        <time>2020-05-24T09:14:55Z</time>
      </trkpt>
      <trkpt lat="46.14889" lon="5.60008">
        <ele>525.6</ele>
        <time>2020-05-24T09:14:57Z</time>
      </trkpt>
      <trkpt lat="46.1489" lon="5.60006">
        <ele>525.9</ele>
        <time>2020-05-24T09:14:58Z</time>
      </trkpt>
      <trkpt lat="46.1489" lon="5.60004">
        <ele>526.1</ele>
        <time>2020-05-24T09:14:59Z</time>
      </trkpt>
      <trkpt lat="46.14891" lon="5.60003">
        <ele>526.2</ele>
        <time>2020-05-24T09:15:00Z</time>
      </trkpt>
      <trkpt lat="46.14892" lon="5.60001">
        <ele>526.5</ele>
        <time>2020-05-24T09:15:01Z</time>
      </trkpt>
      <trkpt lat="46.14893" lon="5.6">
        <ele>526.6</ele>
        <time>2020-05-24T09:15:02Z</time>
      </trkpt>
      <trkpt lat="46.14894" lon="5.59996">
        <ele>527.2</ele>
        <time>2020-05-24T09:15:04Z</time>
      </trkpt>
      <trkpt lat="46.14894" lon="5.59994">
        <ele>527.4</ele>
        <time>2020-05-24T09:15:05Z</time>
      </trkpt>
      <trkpt lat="46.14896" lon="5.5999">
        <ele>527.9</ele>
        <time>2020-05-24T09:15:07Z</time>
      </trkpt>
      <trkpt lat="46.14896" lon="5.59989">
        <ele>528</ele>
        <time>2020-05-24T09:15:08Z</time>
      </trkpt>
      <trkpt lat="46.14898" lon="5.59985">
        <ele>528.6</ele>
        <time>2020-05-24T09:15:10Z</time>
      </trkpt>
      <trkpt lat="46.14899" lon="5.59984">
        <ele>528.8</ele>
        <time>2020-05-24T09:15:11Z</time>
      </trkpt>
      <trkpt lat="46.14899" lon="5.59982">
        <ele>529</ele>
        <time>2020-05-24T09:15:12Z</time>
      </trkpt>
      <trkpt lat="46.149" lon="5.59981">
        <ele>529.2</ele>
        <time>2020-05-24T09:15:13Z</time>
      </trkpt>
      <trkpt lat="46.14901" lon="5.59979">
        <ele>529.4</ele>
        <time>2020-05-24T09:15:14Z</time>
      </trkpt>
      <trkpt lat="46.14901" lon="5.59977">
        <ele>529.7</ele>
        <time>2020-05-24T09:15:15Z</time>
      </trkpt>
      <trkpt lat="46.14902" lon="5.59974">
        <ele>530.1</ele>
        <time>2020-05-24T09:15:17Z</time>
      </trkpt>
      <trkpt lat="46.14903" lon="5.59972">
        <ele>530.4</ele>
        <time>2020-05-24T09:15:19Z</time>
      </trkpt>
      <trkpt lat="46.14905" lon="5.5997">
        <ele>530.8</ele>
        <time>2020-05-24T09:15:20Z</time>
      </trkpt>
      <trkpt lat="46.14906" lon="5.59969">
        <ele>530.9</ele>
        <time>2020-05-24T09:15:22Z</time>
      </trkpt>
      <trkpt lat="46.14906" lon="5.59967">
        <ele>531.1</ele>
        <time>2020-05-24T09:15:24Z</time>
      </trkpt>
      <trkpt lat="46.14907" lon="5.59966">
        <ele>531.3</ele>
        <time>2020-05-24T09:15:25Z</time>
      </trkpt>
      <trkpt lat="46.14908" lon="5.59965">
        <ele>531.5</ele>
        <time>2020-05-24T09:15:26Z</time>
      </trkpt>
      <trkpt lat="46.14908" lon="5.59964">
        <ele>531.7</ele>
        <time>2020-05-24T09:15:28Z</time>
      </trkpt>
      <trkpt lat="46.14909" lon="5.59962">
        <ele>531.9</ele>
        <time>2020-05-24T09:15:29Z</time>
      </trkpt>
      <trkpt lat="46.1491" lon="5.5996">
        <ele>532.1</ele>
        <time>2020-05-24T09:15:31Z</time>
      </trkpt>
      <trkpt lat="46.14911" lon="5.59959">
        <ele>532.4</ele>
        <time>2020-05-24T09:15:32Z</time>
      </trkpt>
      <trkpt lat="46.14912" lon="5.59956">
        <ele>532.7</ele>
        <time>2020-05-24T09:15:34Z</time>
      </trkpt>
      <trkpt lat="46.14913" lon="5.59954">
        <ele>533</ele>
        <time>2020-05-24T09:15:35Z</time>
      </trkpt>
      <trkpt lat="46.14913" lon="5.59952">
        <ele>533.2</ele>
        <time>2020-05-24T09:15:36Z</time>
      </trkpt>
      <trkpt lat="46.14914" lon="5.59949">
        <ele>533.6</ele>
        <time>2020-05-24T09:15:37Z</time>
      </trkpt>
      <trkpt lat="46.14915" lon="5.59947">
        <ele>533.8</ele>
        <time>2020-05-24T09:15:39Z</time>
      </trkpt>
      <trkpt lat="46.14916" lon="5.59946">
        <ele>534.1</ele>
        <time>2020-05-24T09:15:40Z</time>
      </trkpt>
      <trkpt lat="46.14916" lon="5.59944">
        <ele>534.3</ele>
        <time>2020-05-24T09:15:42Z</time>
      </trkpt>
      <trkpt lat="46.14916" lon="5.59943">
        <ele>534.4</ele>
        <time>2020-05-24T09:15:43Z</time>
      </trkpt>
      <trkpt lat="46.14917" lon="5.59941">
        <ele>534.6</ele>
        <time>2020-05-24T09:15:44Z</time>
      </trkpt>
      <trkpt lat="46.14918" lon="5.59939">
        <ele>534.9</ele>
        <time>2020-05-24T09:15:46Z</time>
      </trkpt>
      <trkpt lat="46.14919" lon="5.59938">
        <ele>535.2</ele>
        <time>2020-05-24T09:15:47Z</time>
      </trkpt>
      <trkpt lat="46.1492" lon="5.59937">
        <ele>535.3</ele>
        <time>2020-05-24T09:15:49Z</time>
      </trkpt>
      <trkpt lat="46.1492" lon="5.59936">
        <ele>535.5</ele>
        <time>2020-05-24T09:15:50Z</time>
      </trkpt>
      <trkpt lat="46.14921" lon="5.59935">
        <ele>535.7</ele>
        <time>2020-05-24T09:15:51Z</time>
      </trkpt>
      <trkpt lat="46.14923" lon="5.59933">
        <ele>536</ele>
        <time>2020-05-24T09:15:53Z</time>
      </trkpt>
      <trkpt lat="46.14923" lon="5.59931">
        <ele>536.2</ele>
        <time>2020-05-24T09:15:54Z</time>
      </trkpt>
      <trkpt lat="46.14924" lon="5.5993">
        <ele>536.4</ele>
        <time>2020-05-24T09:15:55Z</time>
      </trkpt>
      <trkpt lat="46.14925" lon="5.59929">
        <ele>536.6</ele>
        <time>2020-05-24T09:15:56Z</time>
      </trkpt>
      <trkpt lat="46.14925" lon="5.59928">
        <ele>536.7</ele>
        <time>2020-05-24T09:15:57Z</time>
      </trkpt>
      <trkpt lat="46.14926" lon="5.59927">
        <ele>536.9</ele>
        <time>2020-05-24T09:15:59Z</time>
      </trkpt>
      <trkpt lat="46.14926" lon="5.59926">
        <ele>537</ele>
        <time>2020-05-24T09:16:00Z</time>
      </trkpt>
      <trkpt lat="46.14926" lon="5.59925">
        <ele>537</ele>
        <time>2020-05-24T09:16:01Z</time>
      </trkpt>
      <trkpt lat="46.14926" lon="5.59925">
        <ele>537.1</ele>
        <time>2020-05-24T09:16:03Z</time>
      </trkpt>
      <trkpt lat="46.14927" lon="5.59924">
        <ele>537.2</ele>
        <time>2020-05-24T09:16:04Z</time>
      </trkpt>
      <trkpt lat="46.14928" lon="5.59923">
        <ele>537.5</ele>
        <time>2020-05-24T09:16:05Z</time>
      </trkpt>
      <trkpt lat="46.14929" lon="5.59922">
        <ele>537.6</ele>
        <time>2020-05-24T09:16:06Z</time>
      </trkpt>
      <trkpt lat="46.14929" lon="5.59922">
        <ele>537.7</ele>
        <time>2020-05-24T09:16:08Z</time>
      </trkpt>
      <trkpt lat="46.1493" lon="5.59921">
        <ele>537.8</ele>
        <time>2020-05-24T09:16:10Z</time>
      </trkpt>
      <trkpt lat="46.1493" lon="5.5992">
        <ele>537.9</ele>
        <time>2020-05-24T09:16:11Z</time>
      </trkpt>
      <trkpt lat="46.14931" lon="5.5992">
        <ele>538.1</ele>
        <time>2020-05-24T09:16:13Z</time>
      </trkpt>
      <trkpt lat="46.14931" lon="5.59919">
        <ele>538.2</ele>
        <time>2020-05-24T09:16:14Z</time>
      </trkpt>
      <trkpt lat="46.14932" lon="5.59918">
        <ele>538.3</ele>
        <time>2020-05-24T09:16:16Z</time>
      </trkpt>
      <trkpt lat="46.14932" lon="5.59917">
        <ele>538.4</ele>
        <time>2020-05-24T09:16:17Z</time>
      </trkpt>
      <trkpt lat="46.14933" lon="5.59917">
        <ele>538.6</ele>
        <time>2020-05-24T09:16:18Z</time>
      </trkpt>
      <trkpt lat="46.14933" lon="5.59916">
        <ele>538.7</ele>
        <time>2020-05-24T09:16:20Z</time>
      </trkpt>
      <trkpt lat="46.14934" lon="5.59915">
        <ele>538.8</ele>
        <time>2020-05-24T09:16:21Z</time>
      </trkpt>
      <trkpt lat="46.14934" lon="5.59915">
        <ele>538.9</ele>
        <time>2020-05-24T09:16:23Z</time>
      </trkpt>
      <trkpt lat="46.14935" lon="5.59914">
        <ele>539</ele>
        <time>2020-05-24T09:16:24Z</time>
      </trkpt>
      <trkpt lat="46.14935" lon="5.59913">
        <ele>539.2</ele>
        <time>2020-05-24T09:16:25Z</time>
      </trkpt>
      <trkpt lat="46.14936" lon="5.59911">
        <ele>539.5</ele>
        <time>2020-05-24T09:16:26Z</time>
      </trkpt>
      <trkpt lat="46.14938" lon="5.5991">
        <ele>539.7</ele>
        <time>2020-05-24T09:16:28Z</time>
      </trkpt>
      <trkpt lat="46.14939" lon="5.59909">
        <ele>540</ele>
        <time>2020-05-24T09:16:29Z</time>
      </trkpt>
      <trkpt lat="46.1494" lon="5.59908">
        <ele>540.2</ele>
        <time>2020-05-24T09:16:30Z</time>
      </trkpt>
      <trkpt lat="46.1494" lon="5.59907">
        <ele>540.3</ele>
        <time>2020-05-24T09:16:31Z</time>
      </trkpt>
      <trkpt lat="46.14941" lon="5.59905">
        <ele>540.6</ele>
        <time>2020-05-24T09:16:33Z</time>
      </trkpt>
      <trkpt lat="46.14942" lon="5.59904">
        <ele>540.7</ele>
        <time>2020-05-24T09:16:34Z</time>
      </trkpt>
      <trkpt lat="46.14943" lon="5.59903">
        <ele>540.9</ele>
        <time>2020-05-24T09:16:36Z</time>
      </trkpt>
      <trkpt lat="46.14943" lon="5.59902">
        <ele>541.1</ele>
        <time>2020-05-24T09:16:37Z</time>
      </trkpt>
      <trkpt lat="46.14945" lon="5.599">
        <ele>541.4</ele>
        <time>2020-05-24T09:16:39Z</time>
      </trkpt>
      <trkpt lat="46.14946" lon="5.59897">
        <ele>541.8</ele>
        <time>2020-05-24T09:16:41Z</time>
      </trkpt>
      <trkpt lat="46.14946" lon="5.59897">
        <ele>541.9</ele>
        <time>2020-05-24T09:16:43Z</time>
      </trkpt>
      <trkpt lat="46.14947" lon="5.59895">
        <ele>542.1</ele>
        <time>2020-05-24T09:16:44Z</time>
      </trkpt>
      <trkpt lat="46.14947" lon="5.59894">
        <ele>542.2</ele>
        <time>2020-05-24T09:16:45Z</time>
      </trkpt>
      <trkpt lat="46.14948" lon="5.59892">
        <ele>542.5</ele>
        <time>2020-05-24T09:16:47Z</time>
      </trkpt>
      <trkpt lat="46.14948" lon="5.5989">
        <ele>542.7</ele>
        <time>2020-05-24T09:16:49Z</time>
      </trkpt>
      <trkpt lat="46.14949" lon="5.59889">
        <ele>542.9</ele>
        <time>2020-05-24T09:16:50Z</time>
      </trkpt>
      <trkpt lat="46.14949" lon="5.59887">
        <ele>543.1</ele>
        <time>2020-05-24T09:16:52Z</time>
      </trkpt>
      <trkpt lat="46.1495" lon="5.59886">
        <ele>543.3</ele>
        <time>2020-05-24T09:16:53Z</time>
      </trkpt>
      <trkpt lat="46.14951" lon="5.59884">
        <ele>543.5</ele>
        <time>2020-05-24T09:16:54Z</time>
      </trkpt>
      <trkpt lat="46.14951" lon="5.59883">
        <ele>543.7</ele>
        <time>2020-05-24T09:16:55Z</time>
      </trkpt>
      <trkpt lat="46.14952" lon="5.59881">
        <ele>544</ele>
        <time>2020-05-24T09:16:57Z</time>
      </trkpt>
      <trkpt lat="46.14953" lon="5.5988">
        <ele>544.2</ele>
        <time>2020-05-24T09:16:59Z</time>
      </trkpt>
      <trkpt lat="46.14954" lon="5.59878">
        <ele>544.4</ele>
        <time>2020-05-24T09:17:00Z</time>
      </trkpt>
      <trkpt lat="46.14954" lon="5.59877">
        <ele>544.5</ele>
        <time>2020-05-24T09:17:01Z</time>
      </trkpt>
      <trkpt lat="46.14954" lon="5.59876">
        <ele>544.7</ele>
        <time>2020-05-24T09:17:03Z</time>
      </trkpt>
      <trkpt lat="46.14955" lon="5.59875">
        <ele>544.8</ele>
        <time>2020-05-24T09:17:04Z</time>
      </trkpt>
      <trkpt lat="46.14955" lon="5.59873">
        <ele>545</ele>
        <time>2020-05-24T09:17:05Z</time>
      </trkpt>
      <trkpt lat="46.14956" lon="5.59872">
        <ele>545.2</ele>
        <time>2020-05-24T09:17:06Z</time>
      </trkpt>
      <trkpt lat="46.14956" lon="5.5987">
        <ele>545.4</ele>
        <time>2020-05-24T09:17:08Z</time>
      </trkpt>
      <trkpt lat="46.14957" lon="5.59869">
        <ele>545.6</ele>
        <time>2020-05-24T09:17:09Z</time>
      </trkpt>
      <trkpt lat="46.14957" lon="5.59868">
        <ele>545.8</ele>
        <time>2020-05-24T09:17:10Z</time>
      </trkpt>
      <trkpt lat="46.14958" lon="5.59866">
        <ele>546.1</ele>
        <time>2020-05-24T09:17:12Z</time>
      </trkpt>
      <trkpt lat="46.14958" lon="5.59864">
        <ele>546.2</ele>
        <time>2020-05-24T09:17:13Z</time>
      </trkpt>
      <trkpt lat="46.14958" lon="5.59863">
        <ele>546.3</ele>
        <time>2020-05-24T09:17:14Z</time>
      </trkpt>
      <trkpt lat="46.14959" lon="5.59863">
        <ele>546.5</ele>
        <time>2020-05-24T09:17:15Z</time>
      </trkpt>
      <trkpt lat="46.14959" lon="5.59861">
        <ele>546.7</ele>
        <time>2020-05-24T09:17:17Z</time>
      </trkpt>
      <trkpt lat="46.1496" lon="5.59859">
        <ele>547</ele>
        <time>2020-05-24T09:17:18Z</time>
      </trkpt>
      <trkpt lat="46.14961" lon="5.59859">
        <ele>547.1</ele>
        <time>2020-05-24T09:17:20Z</time>
      </trkpt>
      <trkpt lat="46.14962" lon="5.59858">
        <ele>547.3</ele>
        <time>2020-05-24T09:17:21Z</time>
      </trkpt>
      <trkpt lat="46.14962" lon="5.59857">
        <ele>547.4</ele>
        <time>2020-05-24T09:17:22Z</time>
      </trkpt>
      <trkpt lat="46.14963" lon="5.59856">
        <ele>547.6</ele>
        <time>2020-05-24T09:17:24Z</time>
      </trkpt>
      <trkpt lat="46.14963" lon="5.59855">
        <ele>547.7</ele>
        <time>2020-05-24T09:17:25Z</time>
      </trkpt>
      <trkpt lat="46.14964" lon="5.59855">
        <ele>547.8</ele>
        <time>2020-05-24T09:17:27Z</time>
      </trkpt>
      <trkpt lat="46.14965" lon="5.59854">
        <ele>548</ele>
        <time>2020-05-24T09:17:28Z</time>
      </trkpt>
      <trkpt lat="46.14966" lon="5.59853">
        <ele>548.2</ele>
        <time>2020-05-24T09:17:29Z</time>
      </trkpt>
      <trkpt lat="46.14967" lon="5.59852">
        <ele>548.5</ele>
        <time>2020-05-24T09:17:30Z</time>
      </trkpt>
      <trkpt lat="46.14967" lon="5.59851">
        <ele>548.6</ele>
        <time>2020-05-24T09:17:32Z</time>
      </trkpt>
      <trkpt lat="46.14968" lon="5.5985">
        <ele>548.7</ele>
        <time>2020-05-24T09:17:33Z</time>
      </trkpt>
      <trkpt lat="46.14968" lon="5.59849">
        <ele>548.9</ele>
        <time>2020-05-24T09:17:34Z</time>
      </trkpt>
      <trkpt lat="46.1497" lon="5.59847">
        <ele>549.2</ele>
        <time>2020-05-24T09:17:36Z</time>
      </trkpt>
      <trkpt lat="46.14971" lon="5.59846">
        <ele>549.5</ele>
        <time>2020-05-24T09:17:37Z</time>
      </trkpt>
      <trkpt lat="46.14973" lon="5.59845">
        <ele>549.9</ele>
        <time>2020-05-24T09:17:39Z</time>
      </trkpt>
      <trkpt lat="46.14973" lon="5.59843">
        <ele>550.1</ele>
        <time>2020-05-24T09:17:40Z</time>
      </trkpt>
      <trkpt lat="46.14974" lon="5.59842">
        <ele>550.3</ele>
        <time>2020-05-24T09:17:41Z</time>
      </trkpt>
      <trkpt lat="46.14976" lon="5.5984">
        <ele>550.6</ele>
        <time>2020-05-24T09:17:43Z</time>
      </trkpt>
      <trkpt lat="46.14976" lon="5.5984">
        <ele>550.8</ele>
        <time>2020-05-24T09:17:44Z</time>
      </trkpt>
      <trkpt lat="46.14977" lon="5.59839">
        <ele>550.9</ele>
        <time>2020-05-24T09:17:45Z</time>
      </trkpt>
      <trkpt lat="46.14977" lon="5.59838">
        <ele>551.1</ele>
        <time>2020-05-24T09:17:46Z</time>
      </trkpt>
      <trkpt lat="46.14978" lon="5.59837">
        <ele>551.2</ele>
        <time>2020-05-24T09:17:47Z</time>
      </trkpt>
      <trkpt lat="46.14979" lon="5.59837">
        <ele>551.4</ele>
        <time>2020-05-24T09:17:49Z</time>
      </trkpt>
      <trkpt lat="46.14979" lon="5.59836">
        <ele>551.6</ele>
        <time>2020-05-24T09:17:50Z</time>
      </trkpt>
      <trkpt lat="46.14981" lon="5.59835">
        <ele>551.8</ele>
        <time>2020-05-24T09:17:52Z</time>
      </trkpt>
      <trkpt lat="46.14981" lon="5.59834">
        <ele>552</ele>
        <time>2020-05-24T09:17:53Z</time>
      </trkpt>
      <trkpt lat="46.14982" lon="5.59833">
        <ele>552.2</ele>
        <time>2020-05-24T09:17:54Z</time>
      </trkpt>
      <trkpt lat="46.14983" lon="5.59832">
        <ele>552.4</ele>
        <time>2020-05-24T09:17:56Z</time>
      </trkpt>
      <trkpt lat="46.14984" lon="5.59831">
        <ele>552.6</ele>
        <time>2020-05-24T09:17:57Z</time>
      </trkpt>
      <trkpt lat="46.14984" lon="5.59831">
        <ele>552.6</ele>
        <time>2020-05-24T09:17:58Z</time>
      </trkpt>
      <trkpt lat="46.14984" lon="5.59831">
        <ele>552.7</ele>
        <time>2020-05-24T09:18:00Z</time>
      </trkpt>
      <trkpt lat="46.14984" lon="5.5983">
        <ele>552.7</ele>
        <time>2020-05-24T09:18:02Z</time>
      </trkpt>
      <trkpt lat="46.14983" lon="5.5983">
        <ele>552.8</ele>
        <time>2020-05-24T09:18:04Z</time>
      </trkpt>
      <trkpt lat="46.14983" lon="5.59829">
        <ele>553</ele>
        <time>2020-05-24T09:18:05Z</time>
      </trkpt>
      <trkpt lat="46.14984" lon="5.59827">
        <ele>553.2</ele>
        <time>2020-05-24T09:18:07Z</time>
      </trkpt>
      <trkpt lat="46.14987" lon="5.59821">
        <ele>554.2</ele>
        <time>2020-05-24T09:18:13Z</time>
      </trkpt>
      <trkpt lat="46.14988" lon="5.5982">
        <ele>554.3</ele>
        <time>2020-05-24T09:18:15Z</time>
      </trkpt>
      <trkpt lat="46.14989" lon="5.59819">
        <ele>554.6</ele>
        <time>2020-05-24T09:18:16Z</time>
      </trkpt>
      <trkpt lat="46.1499" lon="5.59817">
        <ele>554.9</ele>
        <time>2020-05-24T09:18:18Z</time>
      </trkpt>
      <trkpt lat="46.14992" lon="5.59816">
        <ele>555.2</ele>
        <time>2020-05-24T09:18:19Z</time>
      </trkpt>
      <trkpt lat="46.14993" lon="5.59815">
        <ele>555.4</ele>
        <time>2020-05-24T09:18:20Z</time>
      </trkpt>
      <trkpt lat="46.14993" lon="5.59814">
        <ele>555.5</ele>
        <time>2020-05-24T09:18:22Z</time>
      </trkpt>
      <trkpt lat="46.14994" lon="5.59814">
        <ele>555.7</ele>
        <time>2020-05-24T09:18:23Z</time>
      </trkpt>
      <trkpt lat="46.14995" lon="5.59812">
        <ele>556</ele>
        <time>2020-05-24T09:18:25Z</time>
      </trkpt>
      <trkpt lat="46.14996" lon="5.59811">
        <ele>556.2</ele>
        <time>2020-05-24T09:18:26Z</time>
      </trkpt>
      <trkpt lat="46.14997" lon="5.5981">
        <ele>556.4</ele>
        <time>2020-05-24T09:18:28Z</time>
      </trkpt>
      <trkpt lat="46.14998" lon="5.59809">
        <ele>556.6</ele>
        <time>2020-05-24T09:18:29Z</time>
      </trkpt>
      <trkpt lat="46.15" lon="5.59808">
        <ele>556.9</ele>
        <time>2020-05-24T09:18:31Z</time>
      </trkpt>
      <trkpt lat="46.15001" lon="5.59807">
        <ele>557.1</ele>
        <time>2020-05-24T09:18:32Z</time>
      </trkpt>
      <trkpt lat="46.15002" lon="5.59807">
        <ele>557.3</ele>
        <time>2020-05-24T09:18:33Z</time>
      </trkpt>
      <trkpt lat="46.15004" lon="5.59807">
        <ele>557.6</ele>
        <time>2020-05-24T09:18:35Z</time>
      </trkpt>
      <trkpt lat="46.15005" lon="5.59806">
        <ele>557.8</ele>
        <time>2020-05-24T09:18:36Z</time>
      </trkpt>
      <trkpt lat="46.15006" lon="5.59806">
        <ele>558.1</ele>
        <time>2020-05-24T09:18:38Z</time>
      </trkpt>
      <trkpt lat="46.15007" lon="5.59805">
        <ele>558.2</ele>
        <time>2020-05-24T09:18:40Z</time>
      </trkpt>
      <trkpt lat="46.15008" lon="5.59805">
        <ele>558.4</ele>
        <time>2020-05-24T09:18:41Z</time>
      </trkpt>
      <trkpt lat="46.15009" lon="5.59804">
        <ele>558.6</ele>
        <time>2020-05-24T09:18:43Z</time>
      </trkpt>
      <trkpt lat="46.1501" lon="5.59802">
        <ele>558.8</ele>
        <time>2020-05-24T09:18:45Z</time>
      </trkpt>
      <trkpt lat="46.15011" lon="5.59801">
        <ele>559.1</ele>
        <time>2020-05-24T09:18:46Z</time>
      </trkpt>
      <trkpt lat="46.15012" lon="5.598">
        <ele>559.2</ele>
        <time>2020-05-24T09:18:47Z</time>
      </trkpt>
      <trkpt lat="46.15013" lon="5.59799">
        <ele>559.4</ele>
        <time>2020-05-24T09:18:48Z</time>
      </trkpt>
      <trkpt lat="46.15014" lon="5.59797">
        <ele>559.7</ele>
        <time>2020-05-24T09:18:49Z</time>
      </trkpt>
      <trkpt lat="46.15015" lon="5.59797">
        <ele>559.9</ele>
        <time>2020-05-24T09:18:51Z</time>
      </trkpt>
      <trkpt lat="46.15016" lon="5.59796">
        <ele>560</ele>
        <time>2020-05-24T09:18:52Z</time>
      </trkpt>
      <trkpt lat="46.15017" lon="5.59796">
        <ele>560.2</ele>
        <time>2020-05-24T09:18:54Z</time>
      </trkpt>
      <trkpt lat="46.15018" lon="5.59795">
        <ele>560.4</ele>
        <time>2020-05-24T09:18:55Z</time>
      </trkpt>
      <trkpt lat="46.1502" lon="5.59794">
        <ele>560.6</ele>
        <time>2020-05-24T09:18:57Z</time>
      </trkpt>
      <trkpt lat="46.15021" lon="5.59794">
        <ele>560.8</ele>
        <time>2020-05-24T09:18:58Z</time>
      </trkpt>
      <trkpt lat="46.15022" lon="5.59793">
        <ele>561</ele>
        <time>2020-05-24T09:19:00Z</time>
      </trkpt>
      <trkpt lat="46.15023" lon="5.59792">
        <ele>561.2</ele>
        <time>2020-05-24T09:19:01Z</time>
      </trkpt>
      <trkpt lat="46.15023" lon="5.59791">
        <ele>561.3</ele>
        <time>2020-05-24T09:19:02Z</time>
      </trkpt>
      <trkpt lat="46.15025" lon="5.59789">
        <ele>561.6</ele>
        <time>2020-05-24T09:19:04Z</time>
      </trkpt>
      <trkpt lat="46.15025" lon="5.59788">
        <ele>561.7</ele>
        <time>2020-05-24T09:19:05Z</time>
      </trkpt>
      <trkpt lat="46.15026" lon="5.59787">
        <ele>561.9</ele>
        <time>2020-05-24T09:19:06Z</time>
      </trkpt>
      <trkpt lat="46.15027" lon="5.59786">
        <ele>562.1</ele>
        <time>2020-05-24T09:19:08Z</time>
      </trkpt>
      <trkpt lat="46.15029" lon="5.59784">
        <ele>562.4</ele>
        <time>2020-05-24T09:19:10Z</time>
      </trkpt>
      <trkpt lat="46.1503" lon="5.59784">
        <ele>562.6</ele>
        <time>2020-05-24T09:19:11Z</time>
      </trkpt>
      <trkpt lat="46.15031" lon="5.59783">
        <ele>562.7</ele>
        <time>2020-05-24T09:19:13Z</time>
      </trkpt>
      <trkpt lat="46.15032" lon="5.59783">
        <ele>562.8</ele>
        <time>2020-05-24T09:19:14Z</time>
      </trkpt>
      <trkpt lat="46.15032" lon="5.59783">
        <ele>563</ele>
        <time>2020-05-24T09:19:15Z</time>
      </trkpt>
      <trkpt lat="46.15034" lon="5.59782">
        <ele>563.3</ele>
        <time>2020-05-24T09:19:17Z</time>
      </trkpt>
      <trkpt lat="46.15035" lon="5.59781">
        <ele>563.5</ele>
        <time>2020-05-24T09:19:18Z</time>
      </trkpt>
      <trkpt lat="46.15036" lon="5.5978">
        <ele>563.6</ele>
        <time>2020-05-24T09:19:19Z</time>
      </trkpt>
      <trkpt lat="46.15037" lon="5.5978">
        <ele>563.7</ele>
        <time>2020-05-24T09:19:21Z</time>
      </trkpt>
      <trkpt lat="46.15038" lon="5.59779">
        <ele>563.9</ele>
        <time>2020-05-24T09:19:22Z</time>
      </trkpt>
      <trkpt lat="46.15039" lon="5.59777">
        <ele>564.2</ele>
        <time>2020-05-24T09:19:24Z</time>
      </trkpt>
      <trkpt lat="46.1504" lon="5.59776">
        <ele>564.4</ele>
        <time>2020-05-24T09:19:25Z</time>
      </trkpt>
      <trkpt lat="46.15041" lon="5.59775">
        <ele>564.6</ele>
        <time>2020-05-24T09:19:26Z</time>
      </trkpt>
      <trkpt lat="46.15042" lon="5.59773">
        <ele>564.8</ele>
        <time>2020-05-24T09:19:27Z</time>
      </trkpt>
      <trkpt lat="46.15044" lon="5.59772">
        <ele>565.1</ele>
        <time>2020-05-24T09:19:29Z</time>
      </trkpt>
      <trkpt lat="46.15044" lon="5.59771">
        <ele>565.2</ele>
        <time>2020-05-24T09:19:30Z</time>
      </trkpt>
      <trkpt lat="46.15045" lon="5.5977">
        <ele>565.4</ele>
        <time>2020-05-24T09:19:31Z</time>
      </trkpt>
      <trkpt lat="46.15047" lon="5.59768">
        <ele>565.7</ele>
        <time>2020-05-24T09:19:33Z</time>
      </trkpt>
      <trkpt lat="46.15048" lon="5.59767">
        <ele>566</ele>
        <time>2020-05-24T09:19:35Z</time>
      </trkpt>
      <trkpt lat="46.15049" lon="5.59766">
        <ele>566.2</ele>
        <time>2020-05-24T09:19:36Z</time>
      </trkpt>
      <trkpt lat="46.15051" lon="5.59765">
        <ele>566.4</ele>
        <time>2020-05-24T09:19:37Z</time>
      </trkpt>
      <trkpt lat="46.15051" lon="5.59765">
        <ele>566.6</ele>
        <time>2020-05-24T09:19:38Z</time>
      </trkpt>
      <trkpt lat="46.15053" lon="5.59763">
        <ele>566.9</ele>
        <time>2020-05-24T09:19:40Z</time>
      </trkpt>
      <trkpt lat="46.15055" lon="5.59761">
        <ele>567.3</ele>
        <time>2020-05-24T09:19:41Z</time>
      </trkpt>
      <trkpt lat="46.15056" lon="5.59761">
        <ele>567.5</ele>
        <time>2020-05-24T09:19:42Z</time>
      </trkpt>
      <trkpt lat="46.15057" lon="5.5976">
        <ele>567.6</ele>
        <time>2020-05-24T09:19:44Z</time>
      </trkpt>
      <trkpt lat="46.15058" lon="5.59759">
        <ele>567.8</ele>
        <time>2020-05-24T09:19:45Z</time>
      </trkpt>
      <trkpt lat="46.15059" lon="5.59758">
        <ele>568</ele>
        <time>2020-05-24T09:19:46Z</time>
      </trkpt>
      <trkpt lat="46.1506" lon="5.59757">
        <ele>568.1</ele>
        <time>2020-05-24T09:19:48Z</time>
      </trkpt>
      <trkpt lat="46.1506" lon="5.59756">
        <ele>568.3</ele>
        <time>2020-05-24T09:19:49Z</time>
      </trkpt>
      <trkpt lat="46.15061" lon="5.59755">
        <ele>568.5</ele>
        <time>2020-05-24T09:19:50Z</time>
      </trkpt>
      <trkpt lat="46.15062" lon="5.59755">
        <ele>568.7</ele>
        <time>2020-05-24T09:19:51Z</time>
      </trkpt>
      <trkpt lat="46.15063" lon="5.59754">
        <ele>568.8</ele>
        <time>2020-05-24T09:19:53Z</time>
      </trkpt>
      <trkpt lat="46.15064" lon="5.59753">
        <ele>568.9</ele>
        <time>2020-05-24T09:19:54Z</time>
      </trkpt>
      <trkpt lat="46.15065" lon="5.59752">
        <ele>569.1</ele>
        <time>2020-05-24T09:19:56Z</time>
      </trkpt>
      <trkpt lat="46.15066" lon="5.59751">
        <ele>569.3</ele>
        <time>2020-05-24T09:19:57Z</time>
      </trkpt>
      <trkpt lat="46.15067" lon="5.5975">
        <ele>569.6</ele>
        <time>2020-05-24T09:19:59Z</time>
      </trkpt>
      <trkpt lat="46.15068" lon="5.59749">
        <ele>569.7</ele>
        <time>2020-05-24T09:20:00Z</time>
      </trkpt>
      <trkpt lat="46.1507" lon="5.59747">
        <ele>570.2</ele>
        <time>2020-05-24T09:20:02Z</time>
      </trkpt>
      <trkpt lat="46.15071" lon="5.59746">
        <ele>570.3</ele>
        <time>2020-05-24T09:20:03Z</time>
      </trkpt>
      <trkpt lat="46.15071" lon="5.59746">
        <ele>570.5</ele>
        <time>2020-05-24T09:20:04Z</time>
      </trkpt>
      <trkpt lat="46.15072" lon="5.59745">
        <ele>570.7</ele>
        <time>2020-05-24T09:20:06Z</time>
      </trkpt>
      <trkpt lat="46.15073" lon="5.59744">
        <ele>570.9</ele>
        <time>2020-05-24T09:20:07Z</time>
      </trkpt>
      <trkpt lat="46.15074" lon="5.59743">
        <ele>571.1</ele>
        <time>2020-05-24T09:20:08Z</time>
      </trkpt>
      <trkpt lat="46.15075" lon="5.59742">
        <ele>571.2</ele>
        <time>2020-05-24T09:20:10Z</time>
      </trkpt>
      <trkpt lat="46.15076" lon="5.59741">
        <ele>571.5</ele>
        <time>2020-05-24T09:20:11Z</time>
      </trkpt>
      <trkpt lat="46.15078" lon="5.59739">
        <ele>571.8</ele>
        <time>2020-05-24T09:20:13Z</time>
      </trkpt>
      <trkpt lat="46.15078" lon="5.59739">
        <ele>571.9</ele>
        <time>2020-05-24T09:20:14Z</time>
      </trkpt>
      <trkpt lat="46.15079" lon="5.59738">
        <ele>572.1</ele>
        <time>2020-05-24T09:20:15Z</time>
      </trkpt>
      <trkpt lat="46.1508" lon="5.59737">
        <ele>572.2</ele>
        <time>2020-05-24T09:20:17Z</time>
      </trkpt>
      <trkpt lat="46.15081" lon="5.59736">
        <ele>572.5</ele>
        <time>2020-05-24T09:20:19Z</time>
      </trkpt>
      <trkpt lat="46.15082" lon="5.59735">
        <ele>572.6</ele>
        <time>2020-05-24T09:20:20Z</time>
      </trkpt>
      <trkpt lat="46.15083" lon="5.59733">
        <ele>572.9</ele>
        <time>2020-05-24T09:20:21Z</time>
      </trkpt>
      <trkpt lat="46.15084" lon="5.59732">
        <ele>573.1</ele>
        <time>2020-05-24T09:20:22Z</time>
      </trkpt>
      <trkpt lat="46.15085" lon="5.59732">
        <ele>573.2</ele>
        <time>2020-05-24T09:20:24Z</time>
      </trkpt>
      <trkpt lat="46.15085" lon="5.59731">
        <ele>573.4</ele>
        <time>2020-05-24T09:20:25Z</time>
      </trkpt>
      <trkpt lat="46.15086" lon="5.5973">
        <ele>573.5</ele>
        <time>2020-05-24T09:20:26Z</time>
      </trkpt>
      <trkpt lat="46.15087" lon="5.59729">
        <ele>573.7</ele>
        <time>2020-05-24T09:20:27Z</time>
      </trkpt>
      <trkpt lat="46.15088" lon="5.59728">
        <ele>573.9</ele>
        <time>2020-05-24T09:20:29Z</time>
      </trkpt>
      <trkpt lat="46.15089" lon="5.59728">
        <ele>574.1</ele>
        <time>2020-05-24T09:20:30Z</time>
      </trkpt>
      <trkpt lat="46.1509" lon="5.59727">
        <ele>574.2</ele>
        <time>2020-05-24T09:20:31Z</time>
      </trkpt>
      <trkpt lat="46.15092" lon="5.59726">
        <ele>574.6</ele>
        <time>2020-05-24T09:20:33Z</time>
      </trkpt>
      <trkpt lat="46.15093" lon="5.59725">
        <ele>574.7</ele>
        <time>2020-05-24T09:20:34Z</time>
      </trkpt>
      <trkpt lat="46.15093" lon="5.59725">
        <ele>574.8</ele>
        <time>2020-05-24T09:20:35Z</time>
      </trkpt>
      <trkpt lat="46.15095" lon="5.59724">
        <ele>575.1</ele>
        <time>2020-05-24T09:20:37Z</time>
      </trkpt>
      <trkpt lat="46.15096" lon="5.59723">
        <ele>575.3</ele>
        <time>2020-05-24T09:20:38Z</time>
      </trkpt>
      <trkpt lat="46.15097" lon="5.59722">
        <ele>575.5</ele>
        <time>2020-05-24T09:20:39Z</time>
      </trkpt>
      <trkpt lat="46.15099" lon="5.5972">
        <ele>575.8</ele>
        <time>2020-05-24T09:20:41Z</time>
      </trkpt>
      <trkpt lat="46.151" lon="5.59719">
        <ele>576</ele>
        <time>2020-05-24T09:20:42Z</time>
      </trkpt>
      <trkpt lat="46.15101" lon="5.59718">
        <ele>576.2</ele>
        <time>2020-05-24T09:20:43Z</time>
      </trkpt>
      <trkpt lat="46.15102" lon="5.59717">
        <ele>576.3</ele>
        <time>2020-05-24T09:20:45Z</time>
      </trkpt>
      <trkpt lat="46.15104" lon="5.59716">
        <ele>576.6</ele>
        <time>2020-05-24T09:20:46Z</time>
      </trkpt>
      <trkpt lat="46.15104" lon="5.59715">
        <ele>576.8</ele>
        <time>2020-05-24T09:20:48Z</time>
      </trkpt>
      <trkpt lat="46.15105" lon="5.59714">
        <ele>576.9</ele>
        <time>2020-05-24T09:20:49Z</time>
      </trkpt>
      <trkpt lat="46.15107" lon="5.59712">
        <ele>577.2</ele>
        <time>2020-05-24T09:20:51Z</time>
      </trkpt>
      <trkpt lat="46.15107" lon="5.59712">
        <ele>577.4</ele>
        <time>2020-05-24T09:20:53Z</time>
      </trkpt>
      <trkpt lat="46.15108" lon="5.59711">
        <ele>577.5</ele>
        <time>2020-05-24T09:20:54Z</time>
      </trkpt>
      <trkpt lat="46.15109" lon="5.5971">
        <ele>577.6</ele>
        <time>2020-05-24T09:20:55Z</time>
      </trkpt>
      <trkpt lat="46.1511" lon="5.59709">
        <ele>577.8</ele>
        <time>2020-05-24T09:20:57Z</time>
      </trkpt>
      <trkpt lat="46.15111" lon="5.59709">
        <ele>578</ele>
        <time>2020-05-24T09:20:58Z</time>
      </trkpt>
      <trkpt lat="46.15112" lon="5.59708">
        <ele>578.1</ele>
        <time>2020-05-24T09:20:59Z</time>
      </trkpt>
      <trkpt lat="46.15113" lon="5.59707">
        <ele>578.2</ele>
        <time>2020-05-24T09:21:01Z</time>
      </trkpt>
      <trkpt lat="46.15113" lon="5.59707">
        <ele>578.4</ele>
        <time>2020-05-24T09:21:02Z</time>
      </trkpt>
      <trkpt lat="46.15115" lon="5.59706">
        <ele>578.6</ele>
        <time>2020-05-24T09:21:03Z</time>
      </trkpt>
      <trkpt lat="46.15115" lon="5.59705">
        <ele>578.7</ele>
        <time>2020-05-24T09:21:04Z</time>
      </trkpt>
      <trkpt lat="46.15115" lon="5.59704">
        <ele>578.8</ele>
        <time>2020-05-24T09:21:06Z</time>
      </trkpt>
      <trkpt lat="46.15116" lon="5.59703">
        <ele>579</ele>
        <time>2020-05-24T09:21:07Z</time>
      </trkpt>
      <trkpt lat="46.15117" lon="5.59701">
        <ele>579.2</ele>
        <time>2020-05-24T09:21:08Z</time>
      </trkpt>
      <trkpt lat="46.15118" lon="5.597">
        <ele>579.4</ele>
        <time>2020-05-24T09:21:10Z</time>
      </trkpt>
      <trkpt lat="46.15118" lon="5.59698">
        <ele>579.6</ele>
        <time>2020-05-24T09:21:11Z</time>
      </trkpt>
      <trkpt lat="46.15119" lon="5.59697">
        <ele>579.8</ele>
        <time>2020-05-24T09:21:13Z</time>
      </trkpt>
      <trkpt lat="46.1512" lon="5.59696">
        <ele>580</ele>
        <time>2020-05-24T09:21:14Z</time>
      </trkpt>
      <trkpt lat="46.15121" lon="5.59695">
        <ele>580.2</ele>
        <time>2020-05-24T09:21:15Z</time>
      </trkpt>
      <trkpt lat="46.15122" lon="5.59694">
        <ele>580.4</ele>
        <time>2020-05-24T09:21:17Z</time>
      </trkpt>
      <trkpt lat="46.15123" lon="5.59693">
        <ele>580.6</ele>
        <time>2020-05-24T09:21:18Z</time>
      </trkpt>
      <trkpt lat="46.15124" lon="5.59692">
        <ele>580.8</ele>
        <time>2020-05-24T09:21:20Z</time>
      </trkpt>
      <trkpt lat="46.15125" lon="5.59692">
        <ele>580.9</ele>
        <time>2020-05-24T09:21:21Z</time>
      </trkpt>
      <trkpt lat="46.15126" lon="5.59691">
        <ele>581.1</ele>
        <time>2020-05-24T09:21:22Z</time>
      </trkpt>
      <trkpt lat="46.15127" lon="5.59691">
        <ele>581.2</ele>
        <time>2020-05-24T09:21:23Z</time>
      </trkpt>
      <trkpt lat="46.15128" lon="5.5969">
        <ele>581.4</ele>
        <time>2020-05-24T09:21:25Z</time>
      </trkpt>
      <trkpt lat="46.15129" lon="5.5969">
        <ele>581.6</ele>
        <time>2020-05-24T09:21:26Z</time>
      </trkpt>
      <trkpt lat="46.1513" lon="5.59689">
        <ele>581.8</ele>
        <time>2020-05-24T09:21:27Z</time>
      </trkpt>
      <trkpt lat="46.15131" lon="5.59688">
        <ele>582.1</ele>
        <time>2020-05-24T09:21:29Z</time>
      </trkpt>
      <trkpt lat="46.15132" lon="5.59687">
        <ele>582.3</ele>
        <time>2020-05-24T09:21:30Z</time>
      </trkpt>
      <trkpt lat="46.15133" lon="5.59686">
        <ele>582.5</ele>
        <time>2020-05-24T09:21:31Z</time>
      </trkpt>
      <trkpt lat="46.15134" lon="5.59685">
        <ele>582.7</ele>
        <time>2020-05-24T09:21:33Z</time>
      </trkpt>
      <trkpt lat="46.15135" lon="5.59684">
        <ele>582.9</ele>
        <time>2020-05-24T09:21:34Z</time>
      </trkpt>
      <trkpt lat="46.15137" lon="5.59682">
        <ele>583.3</ele>
        <time>2020-05-24T09:21:35Z</time>
      </trkpt>
      <trkpt lat="46.15138" lon="5.59681">
        <ele>583.4</ele>
        <time>2020-05-24T09:21:37Z</time>
      </trkpt>
      <trkpt lat="46.15139" lon="5.59681">
        <ele>583.6</ele>
        <time>2020-05-24T09:21:38Z</time>
      </trkpt>
      <trkpt lat="46.15139" lon="5.5968">
        <ele>583.7</ele>
        <time>2020-05-24T09:21:40Z</time>
      </trkpt>
      <trkpt lat="46.1514" lon="5.5968">
        <ele>583.8</ele>
        <time>2020-05-24T09:21:41Z</time>
      </trkpt>
      <trkpt lat="46.15141" lon="5.59679">
        <ele>583.9</ele>
        <time>2020-05-24T09:21:42Z</time>
      </trkpt>
      <trkpt lat="46.15142" lon="5.59679">
        <ele>584.1</ele>
        <time>2020-05-24T09:21:44Z</time>
      </trkpt>
      <trkpt lat="46.15143" lon="5.59678">
        <ele>584.3</ele>
        <time>2020-05-24T09:21:45Z</time>
      </trkpt>
      <trkpt lat="46.15144" lon="5.59677">
        <ele>584.5</ele>
        <time>2020-05-24T09:21:47Z</time>
      </trkpt>
      <trkpt lat="46.15145" lon="5.59677">
        <ele>584.7</ele>
        <time>2020-05-24T09:21:48Z</time>
      </trkpt>
      <trkpt lat="46.15147" lon="5.59675">
        <ele>585.1</ele>
        <time>2020-05-24T09:21:50Z</time>
      </trkpt>
      <trkpt lat="46.15147" lon="5.59674">
        <ele>585.2</ele>
        <time>2020-05-24T09:21:51Z</time>
      </trkpt>
      <trkpt lat="46.15148" lon="5.59674">
        <ele>585.3</ele>
        <time>2020-05-24T09:21:52Z</time>
      </trkpt>
      <trkpt lat="46.15149" lon="5.59673">
        <ele>585.5</ele>
        <time>2020-05-24T09:21:53Z</time>
      </trkpt>
      <trkpt lat="46.15149" lon="5.59673">
        <ele>585.6</ele>
        <time>2020-05-24T09:21:54Z</time>
      </trkpt>
      <trkpt lat="46.1515" lon="5.59672">
        <ele>585.8</ele>
        <time>2020-05-24T09:21:56Z</time>
      </trkpt>
      <trkpt lat="46.15151" lon="5.5967">
        <ele>586</ele>
        <time>2020-05-24T09:21:58Z</time>
      </trkpt>
      <trkpt lat="46.15152" lon="5.59668">
        <ele>586.3</ele>
        <time>2020-05-24T09:21:59Z</time>
      </trkpt>
      <trkpt lat="46.15153" lon="5.59667">
        <ele>586.4</ele>
        <time>2020-05-24T09:22:01Z</time>
      </trkpt>
      <trkpt lat="46.15153" lon="5.59666">
        <ele>586.6</ele>
        <time>2020-05-24T09:22:02Z</time>
      </trkpt>
      <trkpt lat="46.15154" lon="5.59665">
        <ele>586.8</ele>
        <time>2020-05-24T09:22:03Z</time>
      </trkpt>
      <trkpt lat="46.15154" lon="5.59664">
        <ele>586.9</ele>
        <time>2020-05-24T09:22:04Z</time>
      </trkpt>
      <trkpt lat="46.15155" lon="5.59663">
        <ele>587.1</ele>
        <time>2020-05-24T09:22:06Z</time>
      </trkpt>
      <trkpt lat="46.15155" lon="5.59662">
        <ele>587.2</ele>
        <time>2020-05-24T09:22:07Z</time>
      </trkpt>
      <trkpt lat="46.15156" lon="5.59661">
        <ele>587.3</ele>
        <time>2020-05-24T09:22:08Z</time>
      </trkpt>
      <trkpt lat="46.15157" lon="5.59661">
        <ele>587.5</ele>
        <time>2020-05-24T09:22:10Z</time>
      </trkpt>
      <trkpt lat="46.15157" lon="5.5966">
        <ele>587.6</ele>
        <time>2020-05-24T09:22:11Z</time>
      </trkpt>
      <trkpt lat="46.15158" lon="5.59659">
        <ele>587.8</ele>
        <time>2020-05-24T09:22:12Z</time>
      </trkpt>
      <trkpt lat="46.15159" lon="5.59657">
        <ele>588</ele>
        <time>2020-05-24T09:22:14Z</time>
      </trkpt>
      <trkpt lat="46.1516" lon="5.59656">
        <ele>588.2</ele>
        <time>2020-05-24T09:22:15Z</time>
      </trkpt>
      <trkpt lat="46.15161" lon="5.59655">
        <ele>588.3</ele>
        <time>2020-05-24T09:22:17Z</time>
      </trkpt>
      <trkpt lat="46.15161" lon="5.59654">
        <ele>588.5</ele>
        <time>2020-05-24T09:22:18Z</time>
      </trkpt>
      <trkpt lat="46.15162" lon="5.59653">
        <ele>588.6</ele>
        <time>2020-05-24T09:22:20Z</time>
      </trkpt>
      <trkpt lat="46.15162" lon="5.59652">
        <ele>588.7</ele>
        <time>2020-05-24T09:22:21Z</time>
      </trkpt>
      <trkpt lat="46.15163" lon="5.59652">
        <ele>588.9</ele>
        <time>2020-05-24T09:22:22Z</time>
      </trkpt>
      <trkpt lat="46.15163" lon="5.59651">
        <ele>589</ele>
        <time>2020-05-24T09:22:24Z</time>
      </trkpt>
      <trkpt lat="46.15164" lon="5.59649">
        <ele>589.2</ele>
        <time>2020-05-24T09:22:26Z</time>
      </trkpt>
      <trkpt lat="46.15165" lon="5.59648">
        <ele>589.4</ele>
        <time>2020-05-24T09:22:27Z</time>
      </trkpt>
      <trkpt lat="46.15166" lon="5.59647">
        <ele>589.6</ele>
        <time>2020-05-24T09:22:29Z</time>
      </trkpt>
      <trkpt lat="46.15167" lon="5.59646">
        <ele>589.8</ele>
        <time>2020-05-24T09:22:30Z</time>
      </trkpt>
      <trkpt lat="46.15168" lon="5.59645">
        <ele>590</ele>
        <time>2020-05-24T09:22:32Z</time>
      </trkpt>
      <trkpt lat="46.15169" lon="5.59644">
        <ele>590.2</ele>
        <time>2020-05-24T09:22:33Z</time>
      </trkpt>
      <trkpt lat="46.15171" lon="5.59643">
        <ele>590.4</ele>
        <time>2020-05-24T09:22:34Z</time>
      </trkpt>
      <trkpt lat="46.15172" lon="5.59642">
        <ele>590.7</ele>
        <time>2020-05-24T09:22:36Z</time>
      </trkpt>
      <trkpt lat="46.15175" lon="5.59641">
        <ele>591.1</ele>
        <time>2020-05-24T09:22:37Z</time>
      </trkpt>
      <trkpt lat="46.15175" lon="5.59641">
        <ele>591.2</ele>
        <time>2020-05-24T09:22:38Z</time>
      </trkpt>
      <trkpt lat="46.15176" lon="5.5964">
        <ele>591.4</ele>
        <time>2020-05-24T09:22:39Z</time>
      </trkpt>
      <trkpt lat="46.15178" lon="5.5964">
        <ele>591.6</ele>
        <time>2020-05-24T09:22:41Z</time>
      </trkpt>
      <trkpt lat="46.15179" lon="5.59639">
        <ele>591.8</ele>
        <time>2020-05-24T09:22:42Z</time>
      </trkpt>
      <trkpt lat="46.15181" lon="5.59638">
        <ele>592.2</ele>
        <time>2020-05-24T09:22:43Z</time>
      </trkpt>
      <trkpt lat="46.15182" lon="5.59637">
        <ele>592.3</ele>
        <time>2020-05-24T09:22:45Z</time>
      </trkpt>
      <trkpt lat="46.15183" lon="5.59636">
        <ele>592.5</ele>
        <time>2020-05-24T09:22:46Z</time>
      </trkpt>
      <trkpt lat="46.15184" lon="5.59636">
        <ele>592.7</ele>
        <time>2020-05-24T09:22:48Z</time>
      </trkpt>
      <trkpt lat="46.15185" lon="5.59635">
        <ele>592.9</ele>
        <time>2020-05-24T09:22:49Z</time>
      </trkpt>
      <trkpt lat="46.15187" lon="5.59633">
        <ele>593.2</ele>
        <time>2020-05-24T09:22:51Z</time>
      </trkpt>
      <trkpt lat="46.15187" lon="5.59632">
        <ele>593.3</ele>
        <time>2020-05-24T09:22:53Z</time>
      </trkpt>
      <trkpt lat="46.15188" lon="5.59631">
        <ele>593.4</ele>
        <time>2020-05-24T09:22:54Z</time>
      </trkpt>
      <trkpt lat="46.15189" lon="5.5963">
        <ele>593.6</ele>
        <time>2020-05-24T09:22:56Z</time>
      </trkpt>
      <trkpt lat="46.15189" lon="5.59629">
        <ele>593.8</ele>
        <time>2020-05-24T09:22:57Z</time>
      </trkpt>
      <trkpt lat="46.1519" lon="5.59628">
        <ele>593.9</ele>
        <time>2020-05-24T09:22:59Z</time>
      </trkpt>
      <trkpt lat="46.1519" lon="5.59626">
        <ele>594.1</ele>
        <time>2020-05-24T09:23:00Z</time>
      </trkpt>
      <trkpt lat="46.15191" lon="5.59625">
        <ele>594.3</ele>
        <time>2020-05-24T09:23:02Z</time>
      </trkpt>
      <trkpt lat="46.15192" lon="5.59624">
        <ele>594.4</ele>
        <time>2020-05-24T09:23:03Z</time>
      </trkpt>
      <trkpt lat="46.15193" lon="5.59624">
        <ele>594.5</ele>
        <time>2020-05-24T09:23:04Z</time>
      </trkpt>
      <trkpt lat="46.15194" lon="5.59623">
        <ele>594.7</ele>
        <time>2020-05-24T09:23:05Z</time>
      </trkpt>
      <trkpt lat="46.15195" lon="5.59622">
        <ele>594.9</ele>
        <time>2020-05-24T09:23:07Z</time>
      </trkpt>
      <trkpt lat="46.15196" lon="5.59621">
        <ele>595.1</ele>
        <time>2020-05-24T09:23:08Z</time>
      </trkpt>
      <trkpt lat="46.15198" lon="5.5962">
        <ele>595.4</ele>
        <time>2020-05-24T09:23:10Z</time>
      </trkpt>
      <trkpt lat="46.15198" lon="5.59619">
        <ele>595.5</ele>
        <time>2020-05-24T09:23:11Z</time>
      </trkpt>
      <trkpt lat="46.15199" lon="5.59618">
        <ele>595.7</ele>
        <time>2020-05-24T09:23:13Z</time>
      </trkpt>
      <trkpt lat="46.15199" lon="5.59617">
        <ele>595.7</ele>
        <time>2020-05-24T09:23:14Z</time>
      </trkpt>
      <trkpt lat="46.15199" lon="5.59616">
        <ele>595.8</ele>
        <time>2020-05-24T09:23:16Z</time>
      </trkpt>
      <trkpt lat="46.152" lon="5.59616">
        <ele>595.9</ele>
        <time>2020-05-24T09:23:17Z</time>
      </trkpt>
      <trkpt lat="46.152" lon="5.59615">
        <ele>596</ele>
        <time>2020-05-24T09:23:18Z</time>
      </trkpt>
      <trkpt lat="46.15201" lon="5.59615">
        <ele>596.1</ele>
        <time>2020-05-24T09:23:20Z</time>
      </trkpt>
      <trkpt lat="46.15201" lon="5.59614">
        <ele>596.3</ele>
        <time>2020-05-24T09:23:22Z</time>
      </trkpt>
      <trkpt lat="46.15202" lon="5.59613">
        <ele>596.4</ele>
        <time>2020-05-24T09:23:23Z</time>
      </trkpt>
      <trkpt lat="46.15203" lon="5.59611">
        <ele>596.6</ele>
        <time>2020-05-24T09:23:25Z</time>
      </trkpt>
      <trkpt lat="46.15204" lon="5.5961">
        <ele>596.8</ele>
        <time>2020-05-24T09:23:26Z</time>
      </trkpt>
      <trkpt lat="46.15204" lon="5.59609">
        <ele>597</ele>
        <time>2020-05-24T09:23:27Z</time>
      </trkpt>
      <trkpt lat="46.15205" lon="5.59607">
        <ele>597.2</ele>
        <time>2020-05-24T09:23:29Z</time>
      </trkpt>
      <trkpt lat="46.15205" lon="5.59606">
        <ele>597.4</ele>
        <time>2020-05-24T09:23:31Z</time>
      </trkpt>
      <trkpt lat="46.15206" lon="5.59605">
        <ele>597.5</ele>
        <time>2020-05-24T09:23:32Z</time>
      </trkpt>
      <trkpt lat="46.15206" lon="5.59604">
        <ele>597.6</ele>
        <time>2020-05-24T09:23:33Z</time>
      </trkpt>
      <trkpt lat="46.15207" lon="5.59602">
        <ele>597.8</ele>
        <time>2020-05-24T09:23:35Z</time>
      </trkpt>
      <trkpt lat="46.15208" lon="5.59601">
        <ele>598.1</ele>
        <time>2020-05-24T09:23:36Z</time>
      </trkpt>
      <trkpt lat="46.15208" lon="5.596">
        <ele>598.2</ele>
        <time>2020-05-24T09:23:37Z</time>
      </trkpt>
      <trkpt lat="46.15209" lon="5.59599">
        <ele>598.4</ele>
        <time>2020-05-24T09:23:39Z</time>
      </trkpt>
      <trkpt lat="46.15211" lon="5.59597">
        <ele>598.8</ele>
        <time>2020-05-24T09:23:41Z</time>
      </trkpt>
      <trkpt lat="46.15212" lon="5.59596">
        <ele>599</ele>
        <time>2020-05-24T09:23:42Z</time>
      </trkpt>
      <trkpt lat="46.15213" lon="5.59594">
        <ele>599.2</ele>
        <time>2020-05-24T09:23:44Z</time>
      </trkpt>
      <trkpt lat="46.15214" lon="5.59593">
        <ele>599.4</ele>
        <time>2020-05-24T09:23:45Z</time>
      </trkpt>
      <trkpt lat="46.15215" lon="5.59591">
        <ele>599.7</ele>
        <time>2020-05-24T09:23:47Z</time>
      </trkpt>
      <trkpt lat="46.15216" lon="5.5959">
        <ele>599.9</ele>
        <time>2020-05-24T09:23:49Z</time>
      </trkpt>
      <trkpt lat="46.15217" lon="5.59589">
        <ele>600.1</ele>
        <time>2020-05-24T09:23:50Z</time>
      </trkpt>
      <trkpt lat="46.15217" lon="5.59588">
        <ele>600.2</ele>
        <time>2020-05-24T09:23:51Z</time>
      </trkpt>
      <trkpt lat="46.15218" lon="5.59587">
        <ele>600.4</ele>
        <time>2020-05-24T09:23:53Z</time>
      </trkpt>
      <trkpt lat="46.1522" lon="5.59586">
        <ele>600.7</ele>
        <time>2020-05-24T09:23:54Z</time>
      </trkpt>
      <trkpt lat="46.1522" lon="5.59586">
        <ele>600.8</ele>
        <time>2020-05-24T09:23:55Z</time>
      </trkpt>
      <trkpt lat="46.15221" lon="5.59585">
        <ele>600.9</ele>
        <time>2020-05-24T09:23:56Z</time>
      </trkpt>
      <trkpt lat="46.15221" lon="5.59585">
        <ele>601</ele>
        <time>2020-05-24T09:23:58Z</time>
      </trkpt>
      <trkpt lat="46.15222" lon="5.59584">
        <ele>601.2</ele>
        <time>2020-05-24T09:23:59Z</time>
      </trkpt>
      <trkpt lat="46.15224" lon="5.59583">
        <ele>601.4</ele>
        <time>2020-05-24T09:24:01Z</time>
      </trkpt>
      <trkpt lat="46.15224" lon="5.59583">
        <ele>601.5</ele>
        <time>2020-05-24T09:24:02Z</time>
      </trkpt>
      <trkpt lat="46.15225" lon="5.59583">
        <ele>601.6</ele>
        <time>2020-05-24T09:24:03Z</time>
      </trkpt>
      <trkpt lat="46.15226" lon="5.59582">
        <ele>601.7</ele>
        <time>2020-05-24T09:24:05Z</time>
      </trkpt>
      <trkpt lat="46.15226" lon="5.59582">
        <ele>601.9</ele>
        <time>2020-05-24T09:24:06Z</time>
      </trkpt>
      <trkpt lat="46.15227" lon="5.59581">
        <ele>602</ele>
        <time>2020-05-24T09:24:07Z</time>
      </trkpt>
      <trkpt lat="46.15228" lon="5.5958">
        <ele>602.2</ele>
        <time>2020-05-24T09:24:09Z</time>
      </trkpt>
      <trkpt lat="46.15229" lon="5.59579">
        <ele>602.4</ele>
        <time>2020-05-24T09:24:10Z</time>
      </trkpt>
      <trkpt lat="46.1523" lon="5.59578">
        <ele>602.6</ele>
        <time>2020-05-24T09:24:11Z</time>
      </trkpt>
      <trkpt lat="46.15231" lon="5.59576">
        <ele>602.9</ele>
        <time>2020-05-24T09:24:13Z</time>
      </trkpt>
      <trkpt lat="46.15232" lon="5.59575">
        <ele>603.1</ele>
        <time>2020-05-24T09:24:14Z</time>
      </trkpt>
      <trkpt lat="46.15233" lon="5.59573">
        <ele>603.3</ele>
        <time>2020-05-24T09:24:15Z</time>
      </trkpt>
      <trkpt lat="46.15234" lon="5.59572">
        <ele>603.5</ele>
        <time>2020-05-24T09:24:17Z</time>
      </trkpt>
      <trkpt lat="46.15235" lon="5.59571">
        <ele>603.7</ele>
        <time>2020-05-24T09:24:18Z</time>
      </trkpt>
      <trkpt lat="46.15236" lon="5.59569">
        <ele>603.9</ele>
        <time>2020-05-24T09:24:20Z</time>
      </trkpt>
      <trkpt lat="46.15237" lon="5.59568">
        <ele>604.1</ele>
        <time>2020-05-24T09:24:21Z</time>
      </trkpt>
      <trkpt lat="46.15238" lon="5.59567">
        <ele>604.3</ele>
        <time>2020-05-24T09:24:22Z</time>
      </trkpt>
      <trkpt lat="46.15239" lon="5.59566">
        <ele>604.5</ele>
        <time>2020-05-24T09:24:24Z</time>
      </trkpt>
      <trkpt lat="46.1524" lon="5.59565">
        <ele>604.7</ele>
        <time>2020-05-24T09:24:25Z</time>
      </trkpt>
      <trkpt lat="46.15241" lon="5.59564">
        <ele>604.9</ele>
        <time>2020-05-24T09:24:27Z</time>
      </trkpt>
      <trkpt lat="46.15241" lon="5.59563">
        <ele>605</ele>
        <time>2020-05-24T09:24:28Z</time>
      </trkpt>
      <trkpt lat="46.15242" lon="5.59562">
        <ele>605.2</ele>
        <time>2020-05-24T09:24:29Z</time>
      </trkpt>
      <trkpt lat="46.15243" lon="5.59561">
        <ele>605.3</ele>
        <time>2020-05-24T09:24:31Z</time>
      </trkpt>
      <trkpt lat="46.15243" lon="5.5956">
        <ele>605.5</ele>
        <time>2020-05-24T09:24:32Z</time>
      </trkpt>
      <trkpt lat="46.15244" lon="5.59559">
        <ele>605.7</ele>
        <time>2020-05-24T09:24:33Z</time>
      </trkpt>
      <trkpt lat="46.15245" lon="5.59557">
        <ele>605.9</ele>
        <time>2020-05-24T09:24:34Z</time>
      </trkpt>
      <trkpt lat="46.15246" lon="5.59556">
        <ele>606.1</ele>
        <time>2020-05-24T09:24:36Z</time>
      </trkpt>
      <trkpt lat="46.15247" lon="5.59555">
        <ele>606.3</ele>
        <time>2020-05-24T09:24:37Z</time>
      </trkpt>
      <trkpt lat="46.15247" lon="5.59553">
        <ele>606.5</ele>
        <time>2020-05-24T09:24:38Z</time>
      </trkpt>
      <trkpt lat="46.15248" lon="5.59552">
        <ele>606.7</ele>
        <time>2020-05-24T09:24:40Z</time>
      </trkpt>
      <trkpt lat="46.15249" lon="5.59551">
        <ele>606.8</ele>
        <time>2020-05-24T09:24:41Z</time>
      </trkpt>
      <trkpt lat="46.15249" lon="5.5955">
        <ele>607</ele>
        <time>2020-05-24T09:24:42Z</time>
      </trkpt>
      <trkpt lat="46.1525" lon="5.59549">
        <ele>607.2</ele>
        <time>2020-05-24T09:24:43Z</time>
      </trkpt>
      <trkpt lat="46.15251" lon="5.59548">
        <ele>607.3</ele>
        <time>2020-05-24T09:24:45Z</time>
      </trkpt>
      <trkpt lat="46.15251" lon="5.59547">
        <ele>607.5</ele>
        <time>2020-05-24T09:24:46Z</time>
      </trkpt>
      <trkpt lat="46.15252" lon="5.59546">
        <ele>607.7</ele>
        <time>2020-05-24T09:24:48Z</time>
      </trkpt>
      <trkpt lat="46.15253" lon="5.59545">
        <ele>607.8</ele>
        <time>2020-05-24T09:24:49Z</time>
      </trkpt>
      <trkpt lat="46.15254" lon="5.59543">
        <ele>608.1</ele>
        <time>2020-05-24T09:24:51Z</time>
      </trkpt>
      <trkpt lat="46.15255" lon="5.59542">
        <ele>608.3</ele>
        <time>2020-05-24T09:24:52Z</time>
      </trkpt>
      <trkpt lat="46.15256" lon="5.59542">
        <ele>608.4</ele>
        <time>2020-05-24T09:24:53Z</time>
      </trkpt>
      <trkpt lat="46.15257" lon="5.59541">
        <ele>608.6</ele>
        <time>2020-05-24T09:24:54Z</time>
      </trkpt>
      <trkpt lat="46.15258" lon="5.5954">
        <ele>608.8</ele>
        <time>2020-05-24T09:24:56Z</time>
      </trkpt>
      <trkpt lat="46.15259" lon="5.59539">
        <ele>609</ele>
        <time>2020-05-24T09:24:57Z</time>
      </trkpt>
      <trkpt lat="46.15259" lon="5.59537">
        <ele>609.2</ele>
        <time>2020-05-24T09:24:58Z</time>
      </trkpt>
      <trkpt lat="46.15261" lon="5.59535">
        <ele>609.5</ele>
        <time>2020-05-24T09:25:00Z</time>
      </trkpt>
      <trkpt lat="46.15261" lon="5.59534">
        <ele>609.7</ele>
        <time>2020-05-24T09:25:01Z</time>
      </trkpt>
      <trkpt lat="46.15262" lon="5.59533">
        <ele>609.8</ele>
        <time>2020-05-24T09:25:02Z</time>
      </trkpt>
      <trkpt lat="46.15262" lon="5.59532">
        <ele>609.9</ele>
        <time>2020-05-24T09:25:03Z</time>
      </trkpt>
      <trkpt lat="46.15264" lon="5.5953">
        <ele>610.3</ele>
        <time>2020-05-24T09:25:05Z</time>
      </trkpt>
      <trkpt lat="46.15265" lon="5.5953">
        <ele>610.4</ele>
        <time>2020-05-24T09:25:06Z</time>
      </trkpt>
      <trkpt lat="46.15265" lon="5.59529">
        <ele>610.5</ele>
        <time>2020-05-24T09:25:07Z</time>
      </trkpt>
      <trkpt lat="46.15266" lon="5.59528">
        <ele>610.8</ele>
        <time>2020-05-24T09:25:09Z</time>
      </trkpt>
      <trkpt lat="46.15267" lon="5.59527">
        <ele>610.9</ele>
        <time>2020-05-24T09:25:10Z</time>
      </trkpt>
      <trkpt lat="46.15268" lon="5.59526">
        <ele>611.2</ele>
        <time>2020-05-24T09:25:12Z</time>
      </trkpt>
      <trkpt lat="46.15269" lon="5.59525">
        <ele>611.3</ele>
        <time>2020-05-24T09:25:13Z</time>
      </trkpt>
      <trkpt lat="46.1527" lon="5.59524">
        <ele>611.5</ele>
        <time>2020-05-24T09:25:14Z</time>
      </trkpt>
      <trkpt lat="46.15271" lon="5.59523">
        <ele>611.7</ele>
        <time>2020-05-24T09:25:16Z</time>
      </trkpt>
      <trkpt lat="46.15272" lon="5.59522">
        <ele>611.9</ele>
        <time>2020-05-24T09:25:17Z</time>
      </trkpt>
      <trkpt lat="46.15272" lon="5.59521">
        <ele>612</ele>
        <time>2020-05-24T09:25:18Z</time>
      </trkpt>
      <trkpt lat="46.15273" lon="5.5952">
        <ele>612.2</ele>
        <time>2020-05-24T09:25:19Z</time>
      </trkpt>
      <trkpt lat="46.15274" lon="5.59518">
        <ele>612.4</ele>
        <time>2020-05-24T09:25:21Z</time>
      </trkpt>
      <trkpt lat="46.15275" lon="5.59517">
        <ele>612.7</ele>
        <time>2020-05-24T09:25:23Z</time>
      </trkpt>
      <trkpt lat="46.15276" lon="5.59516">
        <ele>612.8</ele>
        <time>2020-05-24T09:25:24Z</time>
      </trkpt>
      <trkpt lat="46.15277" lon="5.59516">
        <ele>613</ele>
        <time>2020-05-24T09:25:26Z</time>
      </trkpt>
      <trkpt lat="46.15278" lon="5.59514">
        <ele>613.2</ele>
        <time>2020-05-24T09:25:27Z</time>
      </trkpt>
      <trkpt lat="46.1528" lon="5.59513">
        <ele>613.7</ele>
        <time>2020-05-24T09:25:29Z</time>
      </trkpt>
      <trkpt lat="46.15281" lon="5.59512">
        <ele>613.9</ele>
        <time>2020-05-24T09:25:31Z</time>
      </trkpt>
      <trkpt lat="46.15282" lon="5.59511">
        <ele>614</ele>
        <time>2020-05-24T09:25:32Z</time>
      </trkpt>
      <trkpt lat="46.15283" lon="5.5951">
        <ele>614.2</ele>
        <time>2020-05-24T09:25:34Z</time>
      </trkpt>
      <trkpt lat="46.15284" lon="5.5951">
        <ele>614.4</ele>
        <time>2020-05-24T09:25:35Z</time>
      </trkpt>
      <trkpt lat="46.15286" lon="5.59508">
        <ele>614.8</ele>
        <time>2020-05-24T09:25:37Z</time>
      </trkpt>
      <trkpt lat="46.15287" lon="5.59507">
        <ele>614.9</ele>
        <time>2020-05-24T09:25:39Z</time>
      </trkpt>
      <trkpt lat="46.15287" lon="5.59507">
        <ele>615.1</ele>
        <time>2020-05-24T09:25:40Z</time>
      </trkpt>
      <trkpt lat="46.15289" lon="5.59506">
        <ele>615.3</ele>
        <time>2020-05-24T09:25:41Z</time>
      </trkpt>
      <trkpt lat="46.1529" lon="5.59505">
        <ele>615.5</ele>
        <time>2020-05-24T09:25:42Z</time>
      </trkpt>
      <trkpt lat="46.1529" lon="5.59504">
        <ele>615.6</ele>
        <time>2020-05-24T09:25:43Z</time>
      </trkpt>
      <trkpt lat="46.15291" lon="5.59503">
        <ele>615.9</ele>
        <time>2020-05-24T09:25:45Z</time>
      </trkpt>
      <trkpt lat="46.15292" lon="5.59501">
        <ele>616.2</ele>
        <time>2020-05-24T09:25:46Z</time>
      </trkpt>
      <trkpt lat="46.15293" lon="5.59501">
        <ele>616.2</ele>
        <time>2020-05-24T09:25:47Z</time>
      </trkpt>
      <trkpt lat="46.15294" lon="5.595">
        <ele>616.4</ele>
        <time>2020-05-24T09:25:49Z</time>
      </trkpt>
      <trkpt lat="46.15294" lon="5.59499">
        <ele>616.6</ele>
        <time>2020-05-24T09:25:50Z</time>
      </trkpt>
      <trkpt lat="46.15295" lon="5.59498">
        <ele>616.8</ele>
        <time>2020-05-24T09:25:51Z</time>
      </trkpt>
      <trkpt lat="46.15296" lon="5.59497">
        <ele>616.9</ele>
        <time>2020-05-24T09:25:52Z</time>
      </trkpt>
      <trkpt lat="46.15296" lon="5.59496">
        <ele>617.1</ele>
        <time>2020-05-24T09:25:54Z</time>
      </trkpt>
      <trkpt lat="46.15297" lon="5.59494">
        <ele>617.3</ele>
        <time>2020-05-24T09:25:55Z</time>
      </trkpt>
      <trkpt lat="46.15298" lon="5.59493">
        <ele>617.5</ele>
        <time>2020-05-24T09:25:56Z</time>
      </trkpt>
      <trkpt lat="46.15298" lon="5.59492">
        <ele>617.6</ele>
        <time>2020-05-24T09:25:57Z</time>
      </trkpt>
      <trkpt lat="46.15299" lon="5.5949">
        <ele>617.9</ele>
        <time>2020-05-24T09:25:59Z</time>
      </trkpt>
      <trkpt lat="46.153" lon="5.59489">
        <ele>618</ele>
        <time>2020-05-24T09:26:00Z</time>
      </trkpt>
      <trkpt lat="46.153" lon="5.59489">
        <ele>618.1</ele>
        <time>2020-05-24T09:26:01Z</time>
      </trkpt>
      <trkpt lat="46.153" lon="5.59488">
        <ele>618.1</ele>
        <time>2020-05-24T09:26:02Z</time>
      </trkpt>
      <trkpt lat="46.153" lon="5.59488">
        <ele>618.2</ele>
        <time>2020-05-24T09:26:04Z</time>
      </trkpt>
      <trkpt lat="46.153" lon="5.59488">
        <ele>618.2</ele>
        <time>2020-05-24T09:26:06Z</time>
      </trkpt>
      <trkpt lat="46.153" lon="5.59488">
        <ele>618.2</ele>
        <time>2020-05-24T09:26:07Z</time>
      </trkpt>
      <trkpt lat="46.153" lon="5.59488">
        <ele>618.2</ele>
        <time>2020-05-24T09:26:08Z</time>
      </trkpt>
      <trkpt lat="46.153" lon="5.59488">
        <ele>618.2</ele>
        <time>2020-05-24T09:26:09Z</time>
      </trkpt>
      <trkpt lat="46.153" lon="5.59488">
        <ele>618.2</ele>
        <time>2020-05-24T09:26:10Z</time>
      </trkpt>
      <trkpt lat="46.15301" lon="5.59488">
        <ele>618.3</ele>
        <time>2020-05-24T09:26:12Z</time>
      </trkpt>
      <trkpt lat="46.15307" lon="5.59481">
        <ele>619.5</ele>
        <time>2020-05-24T09:26:33Z</time>
      </trkpt>
      <trkpt lat="46.15308" lon="5.59479">
        <ele>619.9</ele>
        <time>2020-05-24T09:26:34Z</time>
      </trkpt>
      <trkpt lat="46.15309" lon="5.59478">
        <ele>620.1</ele>
        <time>2020-05-24T09:26:35Z</time>
      </trkpt>
      <trkpt lat="46.1531" lon="5.59476">
        <ele>620.4</ele>
        <time>2020-05-24T09:26:37Z</time>
      </trkpt>
      <trkpt lat="46.15311" lon="5.59474">
        <ele>620.6</ele>
        <time>2020-05-24T09:26:38Z</time>
      </trkpt>
      <trkpt lat="46.15312" lon="5.59473">
        <ele>620.8</ele>
        <time>2020-05-24T09:26:39Z</time>
      </trkpt>
      <trkpt lat="46.15313" lon="5.59471">
        <ele>621</ele>
        <time>2020-05-24T09:26:40Z</time>
      </trkpt>
      <trkpt lat="46.15314" lon="5.59469">
        <ele>621.4</ele>
        <time>2020-05-24T09:26:42Z</time>
      </trkpt>
      <trkpt lat="46.15315" lon="5.59466">
        <ele>621.7</ele>
        <time>2020-05-24T09:26:44Z</time>
      </trkpt>
      <trkpt lat="46.15317" lon="5.59464">
        <ele>622.1</ele>
        <time>2020-05-24T09:26:46Z</time>
      </trkpt>
      <trkpt lat="46.15318" lon="5.59463">
        <ele>622.4</ele>
        <time>2020-05-24T09:26:47Z</time>
      </trkpt>
      <trkpt lat="46.15319" lon="5.59462">
        <ele>622.6</ele>
        <time>2020-05-24T09:26:49Z</time>
      </trkpt>
      <trkpt lat="46.1532" lon="5.59461">
        <ele>622.7</ele>
        <time>2020-05-24T09:26:50Z</time>
      </trkpt>
      <trkpt lat="46.15321" lon="5.5946">
        <ele>622.9</ele>
        <time>2020-05-24T09:26:51Z</time>
      </trkpt>
      <trkpt lat="46.15322" lon="5.59458">
        <ele>623.2</ele>
        <time>2020-05-24T09:26:53Z</time>
      </trkpt>
      <trkpt lat="46.15323" lon="5.59456">
        <ele>623.5</ele>
        <time>2020-05-24T09:26:54Z</time>
      </trkpt>
      <trkpt lat="46.15324" lon="5.59455">
        <ele>623.7</ele>
        <time>2020-05-24T09:26:55Z</time>
      </trkpt>
      <trkpt lat="46.15325" lon="5.59453">
        <ele>624</ele>
        <time>2020-05-24T09:26:57Z</time>
      </trkpt>
      <trkpt lat="46.15326" lon="5.59453">
        <ele>624</ele>
        <time>2020-05-24T09:26:58Z</time>
      </trkpt>
      <trkpt lat="46.15326" lon="5.59452">
        <ele>624.1</ele>
        <time>2020-05-24T09:26:59Z</time>
      </trkpt>
      <trkpt lat="46.15326" lon="5.59452">
        <ele>624.2</ele>
        <time>2020-05-24T09:27:00Z</time>
      </trkpt>
      <trkpt lat="46.15327" lon="5.5945">
        <ele>624.5</ele>
        <time>2020-05-24T09:27:02Z</time>
      </trkpt>
      <trkpt lat="46.15328" lon="5.59449">
        <ele>624.7</ele>
        <time>2020-05-24T09:27:03Z</time>
      </trkpt>
      <trkpt lat="46.15328" lon="5.59448">
        <ele>624.8</ele>
        <time>2020-05-24T09:27:04Z</time>
      </trkpt>
      <trkpt lat="46.15329" lon="5.59447">
        <ele>625</ele>
        <time>2020-05-24T09:27:06Z</time>
      </trkpt>
      <trkpt lat="46.1533" lon="5.59445">
        <ele>625.1</ele>
        <time>2020-05-24T09:27:07Z</time>
      </trkpt>
      <trkpt lat="46.1533" lon="5.59444">
        <ele>625.3</ele>
        <time>2020-05-24T09:27:08Z</time>
      </trkpt>
      <trkpt lat="46.15331" lon="5.59442">
        <ele>625.6</ele>
        <time>2020-05-24T09:27:10Z</time>
      </trkpt>
      <trkpt lat="46.15331" lon="5.59441">
        <ele>625.7</ele>
        <time>2020-05-24T09:27:11Z</time>
      </trkpt>
      <trkpt lat="46.15332" lon="5.5944">
        <ele>625.9</ele>
        <time>2020-05-24T09:27:12Z</time>
      </trkpt>
      <trkpt lat="46.15332" lon="5.59439">
        <ele>626</ele>
        <time>2020-05-24T09:27:14Z</time>
      </trkpt>
      <trkpt lat="46.15333" lon="5.59438">
        <ele>626.2</ele>
        <time>2020-05-24T09:27:15Z</time>
      </trkpt>
      <trkpt lat="46.15333" lon="5.59436">
        <ele>626.4</ele>
        <time>2020-05-24T09:27:16Z</time>
      </trkpt>
      <trkpt lat="46.15334" lon="5.59435">
        <ele>626.6</ele>
        <time>2020-05-24T09:27:18Z</time>
      </trkpt>
      <trkpt lat="46.15334" lon="5.59433">
        <ele>626.8</ele>
        <time>2020-05-24T09:27:19Z</time>
      </trkpt>
      <trkpt lat="46.15335" lon="5.5943">
        <ele>627.1</ele>
        <time>2020-05-24T09:27:21Z</time>
      </trkpt>
      <trkpt lat="46.15335" lon="5.5943">
        <ele>627.2</ele>
        <time>2020-05-24T09:27:23Z</time>
      </trkpt>
      <trkpt lat="46.15336" lon="5.59429">
        <ele>627.3</ele>
        <time>2020-05-24T09:27:24Z</time>
      </trkpt>
      <trkpt lat="46.15336" lon="5.59428">
        <ele>627.5</ele>
        <time>2020-05-24T09:27:25Z</time>
      </trkpt>
      <trkpt lat="46.15337" lon="5.59427">
        <ele>627.7</ele>
        <time>2020-05-24T09:27:26Z</time>
      </trkpt>
      <trkpt lat="46.15338" lon="5.59426">
        <ele>627.8</ele>
        <time>2020-05-24T09:27:27Z</time>
      </trkpt>
      <trkpt lat="46.15339" lon="5.59425">
        <ele>628</ele>
        <time>2020-05-24T09:27:28Z</time>
      </trkpt>
      <trkpt lat="46.1534" lon="5.59424">
        <ele>628.2</ele>
        <time>2020-05-24T09:27:30Z</time>
      </trkpt>
      <trkpt lat="46.1534" lon="5.59424">
        <ele>628.3</ele>
        <time>2020-05-24T09:27:31Z</time>
      </trkpt>
      <trkpt lat="46.15341" lon="5.59423">
        <ele>628.4</ele>
        <time>2020-05-24T09:27:32Z</time>
      </trkpt>
      <trkpt lat="46.15341" lon="5.59422">
        <ele>628.6</ele>
        <time>2020-05-24T09:27:33Z</time>
      </trkpt>
      <trkpt lat="46.15342" lon="5.59421">
        <ele>628.8</ele>
        <time>2020-05-24T09:27:35Z</time>
      </trkpt>
      <trkpt lat="46.15343" lon="5.5942">
        <ele>629</ele>
        <time>2020-05-24T09:27:36Z</time>
      </trkpt>
      <trkpt lat="46.15344" lon="5.59419">
        <ele>629.1</ele>
        <time>2020-05-24T09:27:37Z</time>
      </trkpt>
      <trkpt lat="46.15344" lon="5.59419">
        <ele>629.2</ele>
        <time>2020-05-24T09:27:38Z</time>
      </trkpt>
      <trkpt lat="46.15345" lon="5.59418">
        <ele>629.3</ele>
        <time>2020-05-24T09:27:40Z</time>
      </trkpt>
      <trkpt lat="46.15345" lon="5.59417">
        <ele>629.4</ele>
        <time>2020-05-24T09:27:41Z</time>
      </trkpt>
      <trkpt lat="46.15346" lon="5.59416">
        <ele>629.6</ele>
        <time>2020-05-24T09:27:42Z</time>
      </trkpt>
      <trkpt lat="46.15347" lon="5.59415">
        <ele>629.8</ele>
        <time>2020-05-24T09:27:44Z</time>
      </trkpt>
      <trkpt lat="46.15347" lon="5.59413">
        <ele>630</ele>
        <time>2020-05-24T09:27:45Z</time>
      </trkpt>
      <trkpt lat="46.15347" lon="5.59413">
        <ele>630.1</ele>
        <time>2020-05-24T09:27:46Z</time>
      </trkpt>
      <trkpt lat="46.15348" lon="5.59411">
        <ele>630.3</ele>
        <time>2020-05-24T09:27:48Z</time>
      </trkpt>
      <trkpt lat="46.15348" lon="5.5941">
        <ele>630.5</ele>
        <time>2020-05-24T09:27:49Z</time>
      </trkpt>
      <trkpt lat="46.15349" lon="5.59409">
        <ele>630.6</ele>
        <time>2020-05-24T09:27:51Z</time>
      </trkpt>
      <trkpt lat="46.15349" lon="5.59408">
        <ele>630.8</ele>
        <time>2020-05-24T09:27:52Z</time>
      </trkpt>
      <trkpt lat="46.1535" lon="5.59407">
        <ele>630.9</ele>
        <time>2020-05-24T09:27:53Z</time>
      </trkpt>
      <trkpt lat="46.1535" lon="5.59406">
        <ele>631.1</ele>
        <time>2020-05-24T09:27:54Z</time>
      </trkpt>
      <trkpt lat="46.15351" lon="5.59405">
        <ele>631.2</ele>
        <time>2020-05-24T09:27:55Z</time>
      </trkpt>
      <trkpt lat="46.15351" lon="5.59403">
        <ele>631.5</ele>
        <time>2020-05-24T09:27:57Z</time>
      </trkpt>
      <trkpt lat="46.15352" lon="5.59402">
        <ele>631.6</ele>
        <time>2020-05-24T09:27:58Z</time>
      </trkpt>
      <trkpt lat="46.15352" lon="5.59401">
        <ele>631.7</ele>
        <time>2020-05-24T09:28:00Z</time>
      </trkpt>
      <trkpt lat="46.15353" lon="5.59401">
        <ele>631.8</ele>
        <time>2020-05-24T09:28:01Z</time>
      </trkpt>
      <trkpt lat="46.15353" lon="5.59399">
        <ele>632</ele>
        <time>2020-05-24T09:28:02Z</time>
      </trkpt>
      <trkpt lat="46.15354" lon="5.59399">
        <ele>632.1</ele>
        <time>2020-05-24T09:28:03Z</time>
      </trkpt>
      <trkpt lat="46.15354" lon="5.59398">
        <ele>632.3</ele>
        <time>2020-05-24T09:28:04Z</time>
      </trkpt>
      <trkpt lat="46.15355" lon="5.59397">
        <ele>632.4</ele>
        <time>2020-05-24T09:28:06Z</time>
      </trkpt>
      <trkpt lat="46.15355" lon="5.59397">
        <ele>632.5</ele>
        <time>2020-05-24T09:28:07Z</time>
      </trkpt>
      <trkpt lat="46.15356" lon="5.59395">
        <ele>632.7</ele>
        <time>2020-05-24T09:28:08Z</time>
      </trkpt>
      <trkpt lat="46.15357" lon="5.59394">
        <ele>632.9</ele>
        <time>2020-05-24T09:28:10Z</time>
      </trkpt>
      <trkpt lat="46.15357" lon="5.59393">
        <ele>633.1</ele>
        <time>2020-05-24T09:28:11Z</time>
      </trkpt>
      <trkpt lat="46.15358" lon="5.59392">
        <ele>633.2</ele>
        <time>2020-05-24T09:28:12Z</time>
      </trkpt>
      <trkpt lat="46.15359" lon="5.59391">
        <ele>633.4</ele>
        <time>2020-05-24T09:28:14Z</time>
      </trkpt>
      <trkpt lat="46.15359" lon="5.5939">
        <ele>633.6</ele>
        <time>2020-05-24T09:28:15Z</time>
      </trkpt>
      <trkpt lat="46.1536" lon="5.59389">
        <ele>633.8</ele>
        <time>2020-05-24T09:28:17Z</time>
      </trkpt>
      <trkpt lat="46.15361" lon="5.59388">
        <ele>633.9</ele>
        <time>2020-05-24T09:28:18Z</time>
      </trkpt>
      <trkpt lat="46.15361" lon="5.59388">
        <ele>634</ele>
        <time>2020-05-24T09:28:20Z</time>
      </trkpt>
      <trkpt lat="46.15361" lon="5.59388">
        <ele>634</ele>
        <time>2020-05-24T09:28:22Z</time>
      </trkpt>
      <trkpt lat="46.15363" lon="5.59387">
        <ele>634.4</ele>
        <time>2020-05-24T09:28:30Z</time>
      </trkpt>
      <trkpt lat="46.15365" lon="5.59385">
        <ele>634.7</ele>
        <time>2020-05-24T09:28:32Z</time>
      </trkpt>
      <trkpt lat="46.15366" lon="5.59385">
        <ele>634.8</ele>
        <time>2020-05-24T09:28:34Z</time>
      </trkpt>
      <trkpt lat="46.15367" lon="5.59384">
        <ele>635</ele>
        <time>2020-05-24T09:28:36Z</time>
      </trkpt>
      <trkpt lat="46.15367" lon="5.59383">
        <ele>635.2</ele>
        <time>2020-05-24T09:28:37Z</time>
      </trkpt>
      <trkpt lat="46.15368" lon="5.59382">
        <ele>635.4</ele>
        <time>2020-05-24T09:28:39Z</time>
      </trkpt>
      <trkpt lat="46.15369" lon="5.59381">
        <ele>635.5</ele>
        <time>2020-05-24T09:28:40Z</time>
      </trkpt>
      <trkpt lat="46.1537" lon="5.5938">
        <ele>635.7</ele>
        <time>2020-05-24T09:28:41Z</time>
      </trkpt>
      <trkpt lat="46.15371" lon="5.59379">
        <ele>635.8</ele>
        <time>2020-05-24T09:28:42Z</time>
      </trkpt>
      <trkpt lat="46.15372" lon="5.59376">
        <ele>636.2</ele>
        <time>2020-05-24T09:28:44Z</time>
      </trkpt>
      <trkpt lat="46.15372" lon="5.59375">
        <ele>636.3</ele>
        <time>2020-05-24T09:28:45Z</time>
      </trkpt>
      <trkpt lat="46.15373" lon="5.59374">
        <ele>636.5</ele>
        <time>2020-05-24T09:28:46Z</time>
      </trkpt>
      <trkpt lat="46.15373" lon="5.59372">
        <ele>636.7</ele>
        <time>2020-05-24T09:28:48Z</time>
      </trkpt>
      <trkpt lat="46.15374" lon="5.5937">
        <ele>637</ele>
        <time>2020-05-24T09:28:49Z</time>
      </trkpt>
      <trkpt lat="46.15375" lon="5.59369">
        <ele>637.2</ele>
        <time>2020-05-24T09:28:51Z</time>
      </trkpt>
      <trkpt lat="46.15376" lon="5.59368">
        <ele>637.3</ele>
        <time>2020-05-24T09:28:52Z</time>
      </trkpt>
      <trkpt lat="46.15376" lon="5.59367">
        <ele>637.4</ele>
        <time>2020-05-24T09:28:53Z</time>
      </trkpt>
      <trkpt lat="46.15377" lon="5.59366">
        <ele>637.6</ele>
        <time>2020-05-24T09:28:55Z</time>
      </trkpt>
      <trkpt lat="46.15378" lon="5.59365">
        <ele>637.8</ele>
        <time>2020-05-24T09:28:56Z</time>
      </trkpt>
      <trkpt lat="46.15378" lon="5.59364">
        <ele>637.9</ele>
        <time>2020-05-24T09:28:57Z</time>
      </trkpt>
      <trkpt lat="46.15379" lon="5.59362">
        <ele>638.2</ele>
        <time>2020-05-24T09:28:58Z</time>
      </trkpt>
      <trkpt lat="46.1538" lon="5.59361">
        <ele>638.4</ele>
        <time>2020-05-24T09:29:00Z</time>
      </trkpt>
      <trkpt lat="46.15381" lon="5.5936">
        <ele>638.5</ele>
        <time>2020-05-24T09:29:01Z</time>
      </trkpt>
      <trkpt lat="46.15382" lon="5.59358">
        <ele>638.8</ele>
        <time>2020-05-24T09:29:02Z</time>
      </trkpt>
      <trkpt lat="46.15383" lon="5.59356">
        <ele>639</ele>
        <time>2020-05-24T09:29:03Z</time>
      </trkpt>
      <trkpt lat="46.15384" lon="5.59354">
        <ele>639.3</ele>
        <time>2020-05-24T09:29:05Z</time>
      </trkpt>
      <trkpt lat="46.15385" lon="5.59353">
        <ele>639.5</ele>
        <time>2020-05-24T09:29:06Z</time>
      </trkpt>
      <trkpt lat="46.15386" lon="5.59349">
        <ele>640</ele>
        <time>2020-05-24T09:29:07Z</time>
      </trkpt>
      <trkpt lat="46.15387" lon="5.59348">
        <ele>640.1</ele>
        <time>2020-05-24T09:29:09Z</time>
      </trkpt>
      <trkpt lat="46.15388" lon="5.59347">
        <ele>640.3</ele>
        <time>2020-05-24T09:29:11Z</time>
      </trkpt>
      <trkpt lat="46.15388" lon="5.59345">
        <ele>640.5</ele>
        <time>2020-05-24T09:29:13Z</time>
      </trkpt>
      <trkpt lat="46.15389" lon="5.59344">
        <ele>640.6</ele>
        <time>2020-05-24T09:29:14Z</time>
      </trkpt>
      <trkpt lat="46.1539" lon="5.59343">
        <ele>640.8</ele>
        <time>2020-05-24T09:29:16Z</time>
      </trkpt>
      <trkpt lat="46.1539" lon="5.59342">
        <ele>641</ele>
        <time>2020-05-24T09:29:17Z</time>
      </trkpt>
      <trkpt lat="46.15391" lon="5.5934">
        <ele>641.1</ele>
        <time>2020-05-24T09:29:18Z</time>
      </trkpt>
      <trkpt lat="46.15391" lon="5.59339">
        <ele>641.3</ele>
        <time>2020-05-24T09:29:19Z</time>
      </trkpt>
      <trkpt lat="46.15392" lon="5.59338">
        <ele>641.5</ele>
        <time>2020-05-24T09:29:20Z</time>
      </trkpt>
      <trkpt lat="46.15393" lon="5.59335">
        <ele>641.8</ele>
        <time>2020-05-24T09:29:22Z</time>
      </trkpt>
      <trkpt lat="46.15393" lon="5.59334">
        <ele>642</ele>
        <time>2020-05-24T09:29:23Z</time>
      </trkpt>
      <trkpt lat="46.15394" lon="5.59332">
        <ele>642.2</ele>
        <time>2020-05-24T09:29:24Z</time>
      </trkpt>
      <trkpt lat="46.15394" lon="5.59331">
        <ele>642.2</ele>
        <time>2020-05-24T09:29:25Z</time>
      </trkpt>
      <trkpt lat="46.15394" lon="5.59331">
        <ele>642.3</ele>
        <time>2020-05-24T09:29:27Z</time>
      </trkpt>
      <trkpt lat="46.15394" lon="5.59331">
        <ele>642.3</ele>
        <time>2020-05-24T09:29:28Z</time>
      </trkpt>
      <trkpt lat="46.15395" lon="5.59329">
        <ele>642.5</ele>
        <time>2020-05-24T09:29:29Z</time>
      </trkpt>
      <trkpt lat="46.15395" lon="5.59327">
        <ele>642.8</ele>
        <time>2020-05-24T09:29:31Z</time>
      </trkpt>
      <trkpt lat="46.15396" lon="5.59325">
        <ele>643</ele>
        <time>2020-05-24T09:29:32Z</time>
      </trkpt>
      <trkpt lat="46.15396" lon="5.59324">
        <ele>643.1</ele>
        <time>2020-05-24T09:29:33Z</time>
      </trkpt>
      <trkpt lat="46.15397" lon="5.59322">
        <ele>643.3</ele>
        <time>2020-05-24T09:29:35Z</time>
      </trkpt>
      <trkpt lat="46.15398" lon="5.59319">
        <ele>643.6</ele>
        <time>2020-05-24T09:29:36Z</time>
      </trkpt>
      <trkpt lat="46.15399" lon="5.59318">
        <ele>644.1</ele>
        <time>2020-05-24T09:29:38Z</time>
      </trkpt>
      <trkpt lat="46.154" lon="5.59317">
        <ele>644.2</ele>
        <time>2020-05-24T09:29:39Z</time>
      </trkpt>
      <trkpt lat="46.154" lon="5.59317">
        <ele>644.3</ele>
        <time>2020-05-24T09:29:41Z</time>
      </trkpt>
      <trkpt lat="46.154" lon="5.59317">
        <ele>644.3</ele>
        <time>2020-05-24T09:29:43Z</time>
      </trkpt>
      <trkpt lat="46.154" lon="5.59316">
        <ele>644.4</ele>
        <time>2020-05-24T09:29:44Z</time>
      </trkpt>
      <trkpt lat="46.15401" lon="5.59314">
        <ele>644.6</ele>
        <time>2020-05-24T09:29:46Z</time>
      </trkpt>
      <trkpt lat="46.15401" lon="5.59313">
        <ele>644.7</ele>
        <time>2020-05-24T09:29:47Z</time>
      </trkpt>
      <trkpt lat="46.15402" lon="5.59311">
        <ele>644.9</ele>
        <time>2020-05-24T09:29:48Z</time>
      </trkpt>
      <trkpt lat="46.15402" lon="5.5931">
        <ele>645.1</ele>
        <time>2020-05-24T09:29:49Z</time>
      </trkpt>
      <trkpt lat="46.15403" lon="5.59308">
        <ele>645.3</ele>
        <time>2020-05-24T09:29:50Z</time>
      </trkpt>
      <trkpt lat="46.15403" lon="5.59307">
        <ele>645.4</ele>
        <time>2020-05-24T09:29:51Z</time>
      </trkpt>
      <trkpt lat="46.15403" lon="5.59306">
        <ele>645.5</ele>
        <time>2020-05-24T09:29:53Z</time>
      </trkpt>
      <trkpt lat="46.15404" lon="5.59305">
        <ele>645.7</ele>
        <time>2020-05-24T09:29:54Z</time>
      </trkpt>
      <trkpt lat="46.15404" lon="5.59303">
        <ele>646</ele>
        <time>2020-05-24T09:29:55Z</time>
      </trkpt>
      <trkpt lat="46.15405" lon="5.59301">
        <ele>646.2</ele>
        <time>2020-05-24T09:29:57Z</time>
      </trkpt>
      <trkpt lat="46.15406" lon="5.593">
        <ele>646.3</ele>
        <time>2020-05-24T09:29:59Z</time>
      </trkpt>
      <trkpt lat="46.15406" lon="5.59299">
        <ele>646.5</ele>
        <time>2020-05-24T09:30:00Z</time>
      </trkpt>
      <trkpt lat="46.15407" lon="5.59298">
        <ele>646.6</ele>
        <time>2020-05-24T09:30:01Z</time>
      </trkpt>
      <trkpt lat="46.15409" lon="5.59296">
        <ele>646.9</ele>
        <time>2020-05-24T09:30:03Z</time>
      </trkpt>
      <trkpt lat="46.15409" lon="5.59296">
        <ele>647</ele>
        <time>2020-05-24T09:30:04Z</time>
      </trkpt>
      <trkpt lat="46.1541" lon="5.59295">
        <ele>647.2</ele>
        <time>2020-05-24T09:30:05Z</time>
      </trkpt>
      <trkpt lat="46.15411" lon="5.59294">
        <ele>647.4</ele>
        <time>2020-05-24T09:30:07Z</time>
      </trkpt>
      <trkpt lat="46.15412" lon="5.59293">
        <ele>647.5</ele>
        <time>2020-05-24T09:30:08Z</time>
      </trkpt>
      <trkpt lat="46.15412" lon="5.59292">
        <ele>647.6</ele>
        <time>2020-05-24T09:30:09Z</time>
      </trkpt>
      <trkpt lat="46.15413" lon="5.59291">
        <ele>647.8</ele>
        <time>2020-05-24T09:30:11Z</time>
      </trkpt>
      <trkpt lat="46.15414" lon="5.5929">
        <ele>648.1</ele>
        <time>2020-05-24T09:30:12Z</time>
      </trkpt>
      <trkpt lat="46.15414" lon="5.59289">
        <ele>648.2</ele>
        <time>2020-05-24T09:30:14Z</time>
      </trkpt>
      <trkpt lat="46.15415" lon="5.59288">
        <ele>648.3</ele>
        <time>2020-05-24T09:30:15Z</time>
      </trkpt>
      <trkpt lat="46.15416" lon="5.59287">
        <ele>648.5</ele>
        <time>2020-05-24T09:30:16Z</time>
      </trkpt>
      <trkpt lat="46.15416" lon="5.59285">
        <ele>648.8</ele>
        <time>2020-05-24T09:30:18Z</time>
      </trkpt>
      <trkpt lat="46.15417" lon="5.59284">
        <ele>648.9</ele>
        <time>2020-05-24T09:30:19Z</time>
      </trkpt>
      <trkpt lat="46.15422" lon="5.59273">
        <ele>650.3</ele>
        <time>2020-05-24T09:30:30Z</time>
      </trkpt>
      <trkpt lat="46.15422" lon="5.59272">
        <ele>650.4</ele>
        <time>2020-05-24T09:30:31Z</time>
      </trkpt>
      <trkpt lat="46.15422" lon="5.59271">
        <ele>650.6</ele>
        <time>2020-05-24T09:30:33Z</time>
      </trkpt>
      <trkpt lat="46.15423" lon="5.5927">
        <ele>650.7</ele>
        <time>2020-05-24T09:30:34Z</time>
      </trkpt>
      <trkpt lat="46.15423" lon="5.59268">
        <ele>650.9</ele>
        <time>2020-05-24T09:30:35Z</time>
      </trkpt>
      <trkpt lat="46.15423" lon="5.59267">
        <ele>651</ele>
        <time>2020-05-24T09:30:36Z</time>
      </trkpt>
      <trkpt lat="46.15424" lon="5.59265">
        <ele>651.3</ele>
        <time>2020-05-24T09:30:38Z</time>
      </trkpt>
      <trkpt lat="46.15425" lon="5.59264">
        <ele>651.4</ele>
        <time>2020-05-24T09:30:40Z</time>
      </trkpt>
      <trkpt lat="46.15425" lon="5.59263">
        <ele>651.6</ele>
        <time>2020-05-24T09:30:41Z</time>
      </trkpt>
      <trkpt lat="46.15426" lon="5.59262">
        <ele>651.8</ele>
        <time>2020-05-24T09:30:43Z</time>
      </trkpt>
      <trkpt lat="46.15426" lon="5.59261">
        <ele>651.8</ele>
        <time>2020-05-24T09:30:44Z</time>
      </trkpt>
      <trkpt lat="46.15426" lon="5.59261">
        <ele>651.9</ele>
        <time>2020-05-24T09:30:45Z</time>
      </trkpt>
      <trkpt lat="46.15427" lon="5.59259">
        <ele>652.1</ele>
        <time>2020-05-24T09:30:47Z</time>
      </trkpt>
      <trkpt lat="46.15427" lon="5.59258">
        <ele>652.3</ele>
        <time>2020-05-24T09:30:48Z</time>
      </trkpt>
      <trkpt lat="46.15427" lon="5.59256">
        <ele>652.5</ele>
        <time>2020-05-24T09:30:49Z</time>
      </trkpt>
      <trkpt lat="46.15428" lon="5.59254">
        <ele>652.7</ele>
        <time>2020-05-24T09:30:50Z</time>
      </trkpt>
      <trkpt lat="46.15428" lon="5.59252">
        <ele>652.9</ele>
        <time>2020-05-24T09:30:52Z</time>
      </trkpt>
      <trkpt lat="46.15429" lon="5.5925">
        <ele>653.1</ele>
        <time>2020-05-24T09:30:53Z</time>
      </trkpt>
      <trkpt lat="46.1543" lon="5.59248">
        <ele>653.5</ele>
        <time>2020-05-24T09:30:54Z</time>
      </trkpt>
      <trkpt lat="46.1543" lon="5.59247">
        <ele>653.6</ele>
        <time>2020-05-24T09:30:56Z</time>
      </trkpt>
      <trkpt lat="46.15431" lon="5.59245">
        <ele>653.8</ele>
        <time>2020-05-24T09:30:57Z</time>
      </trkpt>
      <trkpt lat="46.15431" lon="5.59244">
        <ele>654</ele>
        <time>2020-05-24T09:30:58Z</time>
      </trkpt>
      <trkpt lat="46.15432" lon="5.59242">
        <ele>654.2</ele>
        <time>2020-05-24T09:30:59Z</time>
      </trkpt>
      <trkpt lat="46.15433" lon="5.5924">
        <ele>654.5</ele>
        <time>2020-05-24T09:31:01Z</time>
      </trkpt>
      <trkpt lat="46.15434" lon="5.59239">
        <ele>654.7</ele>
        <time>2020-05-24T09:31:02Z</time>
      </trkpt>
      <trkpt lat="46.15435" lon="5.59237">
        <ele>654.9</ele>
        <time>2020-05-24T09:31:03Z</time>
      </trkpt>
      <trkpt lat="46.15437" lon="5.59234">
        <ele>655.4</ele>
        <time>2020-05-24T09:31:05Z</time>
      </trkpt>
      <trkpt lat="46.15437" lon="5.59233">
        <ele>655.5</ele>
        <time>2020-05-24T09:31:06Z</time>
      </trkpt>
      <trkpt lat="46.15438" lon="5.59232">
        <ele>655.7</ele>
        <time>2020-05-24T09:31:08Z</time>
      </trkpt>
      <trkpt lat="46.15439" lon="5.59231">
        <ele>655.9</ele>
        <time>2020-05-24T09:31:09Z</time>
      </trkpt>
      <trkpt lat="46.1544" lon="5.59228">
        <ele>656.3</ele>
        <time>2020-05-24T09:31:10Z</time>
      </trkpt>
      <trkpt lat="46.1544" lon="5.59227">
        <ele>656.4</ele>
        <time>2020-05-24T09:31:11Z</time>
      </trkpt>
      <trkpt lat="46.15441" lon="5.59226">
        <ele>656.6</ele>
        <time>2020-05-24T09:31:13Z</time>
      </trkpt>
      <trkpt lat="46.15441" lon="5.59224">
        <ele>656.8</ele>
        <time>2020-05-24T09:31:14Z</time>
      </trkpt>
      <trkpt lat="46.15442" lon="5.59223">
        <ele>656.9</ele>
        <time>2020-05-24T09:31:16Z</time>
      </trkpt>
      <trkpt lat="46.15442" lon="5.59222">
        <ele>657.1</ele>
        <time>2020-05-24T09:31:17Z</time>
      </trkpt>
      <trkpt lat="46.15443" lon="5.59221">
        <ele>657.2</ele>
        <time>2020-05-24T09:31:19Z</time>
      </trkpt>
      <trkpt lat="46.15444" lon="5.59221">
        <ele>657.3</ele>
        <time>2020-05-24T09:31:20Z</time>
      </trkpt>
      <trkpt lat="46.15444" lon="5.59221">
        <ele>657.5</ele>
        <time>2020-05-24T09:31:21Z</time>
      </trkpt>
      <trkpt lat="46.15445" lon="5.5922">
        <ele>657.7</ele>
        <time>2020-05-24T09:31:23Z</time>
      </trkpt>
      <trkpt lat="46.15446" lon="5.59219">
        <ele>657.8</ele>
        <time>2020-05-24T09:31:24Z</time>
      </trkpt>
      <trkpt lat="46.15446" lon="5.59218">
        <ele>657.9</ele>
        <time>2020-05-24T09:31:25Z</time>
      </trkpt>
      <trkpt lat="46.15446" lon="5.59217">
        <ele>658</ele>
        <time>2020-05-24T09:31:26Z</time>
      </trkpt>
      <trkpt lat="46.15447" lon="5.59216">
        <ele>658.2</ele>
        <time>2020-05-24T09:31:28Z</time>
      </trkpt>
      <trkpt lat="46.15448" lon="5.59215">
        <ele>658.4</ele>
        <time>2020-05-24T09:31:30Z</time>
      </trkpt>
      <trkpt lat="46.15449" lon="5.59214">
        <ele>658.4</ele>
        <time>2020-05-24T09:31:31Z</time>
      </trkpt>
      <trkpt lat="46.15449" lon="5.59214">
        <ele>658.5</ele>
        <time>2020-05-24T09:31:33Z</time>
      </trkpt>
      <trkpt lat="46.15449" lon="5.59213">
        <ele>658.7</ele>
        <time>2020-05-24T09:31:34Z</time>
      </trkpt>
      <trkpt lat="46.15449" lon="5.59212">
        <ele>658.7</ele>
        <time>2020-05-24T09:31:35Z</time>
      </trkpt>
      <trkpt lat="46.1545" lon="5.59211">
        <ele>658.9</ele>
        <time>2020-05-24T09:31:37Z</time>
      </trkpt>
      <trkpt lat="46.1545" lon="5.59209">
        <ele>659.1</ele>
        <time>2020-05-24T09:31:38Z</time>
      </trkpt>
      <trkpt lat="46.15451" lon="5.59208">
        <ele>659.2</ele>
        <time>2020-05-24T09:31:39Z</time>
      </trkpt>
      <trkpt lat="46.15451" lon="5.59207">
        <ele>659.4</ele>
        <time>2020-05-24T09:31:40Z</time>
      </trkpt>
      <trkpt lat="46.15451" lon="5.59205">
        <ele>659.6</ele>
        <time>2020-05-24T09:31:42Z</time>
      </trkpt>
      <trkpt lat="46.15452" lon="5.59204">
        <ele>659.7</ele>
        <time>2020-05-24T09:31:43Z</time>
      </trkpt>
      <trkpt lat="46.15452" lon="5.59201">
        <ele>660</ele>
        <time>2020-05-24T09:31:44Z</time>
      </trkpt>
      <trkpt lat="46.15453" lon="5.592">
        <ele>660.1</ele>
        <time>2020-05-24T09:31:46Z</time>
      </trkpt>
      <trkpt lat="46.15453" lon="5.59199">
        <ele>660.2</ele>
        <time>2020-05-24T09:31:47Z</time>
      </trkpt>
      <trkpt lat="46.15454" lon="5.59198">
        <ele>660.4</ele>
        <time>2020-05-24T09:31:49Z</time>
      </trkpt>
      <trkpt lat="46.15454" lon="5.59197">
        <ele>660.5</ele>
        <time>2020-05-24T09:31:51Z</time>
      </trkpt>
      <trkpt lat="46.15455" lon="5.59195">
        <ele>660.7</ele>
        <time>2020-05-24T09:31:52Z</time>
      </trkpt>
      <trkpt lat="46.15456" lon="5.59194">
        <ele>660.9</ele>
        <time>2020-05-24T09:31:53Z</time>
      </trkpt>
      <trkpt lat="46.15455" lon="5.59193">
        <ele>661</ele>
        <time>2020-05-24T09:31:55Z</time>
      </trkpt>
      <trkpt lat="46.15455" lon="5.59192">
        <ele>661.1</ele>
        <time>2020-05-24T09:31:56Z</time>
      </trkpt>
      <trkpt lat="46.15455" lon="5.5919">
        <ele>661.3</ele>
        <time>2020-05-24T09:31:57Z</time>
      </trkpt>
      <trkpt lat="46.15456" lon="5.59189">
        <ele>661.4</ele>
        <time>2020-05-24T09:31:58Z</time>
      </trkpt>
      <trkpt lat="46.15456" lon="5.59188">
        <ele>661.5</ele>
        <time>2020-05-24T09:31:59Z</time>
      </trkpt>
      <trkpt lat="46.15456" lon="5.59187">
        <ele>661.6</ele>
        <time>2020-05-24T09:32:01Z</time>
      </trkpt>
      <trkpt lat="46.15457" lon="5.59186">
        <ele>661.7</ele>
        <time>2020-05-24T09:32:02Z</time>
      </trkpt>
      <trkpt lat="46.15457" lon="5.59185">
        <ele>661.8</ele>
        <time>2020-05-24T09:32:04Z</time>
      </trkpt>
      <trkpt lat="46.15457" lon="5.59184">
        <ele>662</ele>
        <time>2020-05-24T09:32:06Z</time>
      </trkpt>
      <trkpt lat="46.15458" lon="5.59178">
        <ele>662.6</ele>
        <time>2020-05-24T09:32:12Z</time>
      </trkpt>
      <trkpt lat="46.15459" lon="5.59177">
        <ele>662.8</ele>
        <time>2020-05-24T09:32:13Z</time>
      </trkpt>
      <trkpt lat="46.15459" lon="5.59176">
        <ele>662.9</ele>
        <time>2020-05-24T09:32:15Z</time>
      </trkpt>
      <trkpt lat="46.1546" lon="5.59174">
        <ele>663.1</ele>
        <time>2020-05-24T09:32:16Z</time>
      </trkpt>
      <trkpt lat="46.1546" lon="5.59172">
        <ele>663.3</ele>
        <time>2020-05-24T09:32:18Z</time>
      </trkpt>
      <trkpt lat="46.15461" lon="5.59171">
        <ele>663.5</ele>
        <time>2020-05-24T09:32:19Z</time>
      </trkpt>
      <trkpt lat="46.15461" lon="5.5917">
        <ele>663.6</ele>
        <time>2020-05-24T09:32:20Z</time>
      </trkpt>
      <trkpt lat="46.15461" lon="5.59169">
        <ele>663.7</ele>
        <time>2020-05-24T09:32:21Z</time>
      </trkpt>
      <trkpt lat="46.15462" lon="5.59168">
        <ele>663.9</ele>
        <time>2020-05-24T09:32:23Z</time>
      </trkpt>
      <trkpt lat="46.15463" lon="5.59167">
        <ele>664.1</ele>
        <time>2020-05-24T09:32:24Z</time>
      </trkpt>
      <trkpt lat="46.15464" lon="5.59166">
        <ele>664.3</ele>
        <time>2020-05-24T09:32:26Z</time>
      </trkpt>
      <trkpt lat="46.15464" lon="5.59165">
        <ele>664.5</ele>
        <time>2020-05-24T09:32:27Z</time>
      </trkpt>
      <trkpt lat="46.15465" lon="5.59163">
        <ele>664.6</ele>
        <time>2020-05-24T09:32:29Z</time>
      </trkpt>
      <trkpt lat="46.15466" lon="5.59162">
        <ele>664.8</ele>
        <time>2020-05-24T09:32:30Z</time>
      </trkpt>
      <trkpt lat="46.15466" lon="5.59161">
        <ele>664.9</ele>
        <time>2020-05-24T09:32:31Z</time>
      </trkpt>
      <trkpt lat="46.1547" lon="5.59158">
        <ele>665.6</ele>
        <time>2020-05-24T09:32:37Z</time>
      </trkpt>
      <trkpt lat="46.15471" lon="5.59157">
        <ele>665.8</ele>
        <time>2020-05-24T09:32:38Z</time>
      </trkpt>
      <trkpt lat="46.15471" lon="5.59156">
        <ele>665.9</ele>
        <time>2020-05-24T09:32:40Z</time>
      </trkpt>
      <trkpt lat="46.15472" lon="5.59155">
        <ele>666.1</ele>
        <time>2020-05-24T09:32:41Z</time>
      </trkpt>
      <trkpt lat="46.15473" lon="5.59153">
        <ele>666.3</ele>
        <time>2020-05-24T09:32:42Z</time>
      </trkpt>
      <trkpt lat="46.15473" lon="5.59152">
        <ele>666.5</ele>
        <time>2020-05-24T09:32:44Z</time>
      </trkpt>
      <trkpt lat="46.15474" lon="5.59151">
        <ele>666.6</ele>
        <time>2020-05-24T09:32:45Z</time>
      </trkpt>
      <trkpt lat="46.15474" lon="5.5915">
        <ele>666.7</ele>
        <time>2020-05-24T09:32:46Z</time>
      </trkpt>
      <trkpt lat="46.15475" lon="5.59148">
        <ele>667</ele>
        <time>2020-05-24T09:32:48Z</time>
      </trkpt>
      <trkpt lat="46.15475" lon="5.59147">
        <ele>667.1</ele>
        <time>2020-05-24T09:32:49Z</time>
      </trkpt>
      <trkpt lat="46.15475" lon="5.59145">
        <ele>667.3</ele>
        <time>2020-05-24T09:32:51Z</time>
      </trkpt>
      <trkpt lat="46.15475" lon="5.59143">
        <ele>667.5</ele>
        <time>2020-05-24T09:32:52Z</time>
      </trkpt>
      <trkpt lat="46.15476" lon="5.59142">
        <ele>667.7</ele>
        <time>2020-05-24T09:32:53Z</time>
      </trkpt>
      <trkpt lat="46.15476" lon="5.5914">
        <ele>667.8</ele>
        <time>2020-05-24T09:32:55Z</time>
      </trkpt>
      <trkpt lat="46.15476" lon="5.59139">
        <ele>667.9</ele>
        <time>2020-05-24T09:32:56Z</time>
      </trkpt>
      <trkpt lat="46.15476" lon="5.59137">
        <ele>668.1</ele>
        <time>2020-05-24T09:32:57Z</time>
      </trkpt>
      <trkpt lat="46.15476" lon="5.59136">
        <ele>668.3</ele>
        <time>2020-05-24T09:32:58Z</time>
      </trkpt>
      <trkpt lat="46.15476" lon="5.59134">
        <ele>668.5</ele>
        <time>2020-05-24T09:33:00Z</time>
      </trkpt>
      <trkpt lat="46.15476" lon="5.59132">
        <ele>668.7</ele>
        <time>2020-05-24T09:33:01Z</time>
      </trkpt>
      <trkpt lat="46.15476" lon="5.59131">
        <ele>668.9</ele>
        <time>2020-05-24T09:33:02Z</time>
      </trkpt>
      <trkpt lat="46.15476" lon="5.59128">
        <ele>669.2</ele>
        <time>2020-05-24T09:33:04Z</time>
      </trkpt>
      <trkpt lat="46.15476" lon="5.59126">
        <ele>669.4</ele>
        <time>2020-05-24T09:33:06Z</time>
      </trkpt>
      <trkpt lat="46.15477" lon="5.59124">
        <ele>669.6</ele>
        <time>2020-05-24T09:33:07Z</time>
      </trkpt>
      <trkpt lat="46.15477" lon="5.59123">
        <ele>669.7</ele>
        <time>2020-05-24T09:33:08Z</time>
      </trkpt>
      <trkpt lat="46.15477" lon="5.59121">
        <ele>670</ele>
        <time>2020-05-24T09:33:10Z</time>
      </trkpt>
      <trkpt lat="46.15477" lon="5.59119">
        <ele>670.2</ele>
        <time>2020-05-24T09:33:11Z</time>
      </trkpt>
      <trkpt lat="46.15477" lon="5.59118">
        <ele>670.4</ele>
        <time>2020-05-24T09:33:13Z</time>
      </trkpt>
      <trkpt lat="46.15478" lon="5.59116">
        <ele>670.5</ele>
        <time>2020-05-24T09:33:14Z</time>
      </trkpt>
      <trkpt lat="46.15478" lon="5.59115">
        <ele>670.7</ele>
        <time>2020-05-24T09:33:15Z</time>
      </trkpt>
      <trkpt lat="46.15478" lon="5.59113">
        <ele>670.9</ele>
        <time>2020-05-24T09:33:16Z</time>
      </trkpt>
      <trkpt lat="46.15479" lon="5.59112">
        <ele>671.1</ele>
        <time>2020-05-24T09:33:18Z</time>
      </trkpt>
      <trkpt lat="46.15479" lon="5.59111">
        <ele>671.2</ele>
        <time>2020-05-24T09:33:19Z</time>
      </trkpt>
      <trkpt lat="46.1548" lon="5.5911">
        <ele>671.3</ele>
        <time>2020-05-24T09:33:20Z</time>
      </trkpt>
      <trkpt lat="46.1548" lon="5.5911">
        <ele>671.4</ele>
        <time>2020-05-24T09:33:22Z</time>
      </trkpt>
      <trkpt lat="46.15481" lon="5.59109">
        <ele>671.5</ele>
        <time>2020-05-24T09:33:24Z</time>
      </trkpt>
      <trkpt lat="46.15481" lon="5.59109">
        <ele>671.6</ele>
        <time>2020-05-24T09:33:26Z</time>
      </trkpt>
      <trkpt lat="46.15483" lon="5.59107">
        <ele>671.9</ele>
        <time>2020-05-24T09:33:28Z</time>
      </trkpt>
      <trkpt lat="46.15483" lon="5.59106">
        <ele>672</ele>
        <time>2020-05-24T09:33:29Z</time>
      </trkpt>
      <trkpt lat="46.15484" lon="5.59106">
        <ele>672.1</ele>
        <time>2020-05-24T09:33:31Z</time>
      </trkpt>
      <trkpt lat="46.15484" lon="5.59106">
        <ele>672.2</ele>
        <time>2020-05-24T09:33:33Z</time>
      </trkpt>
      <trkpt lat="46.15484" lon="5.59105">
        <ele>672.3</ele>
        <time>2020-05-24T09:33:34Z</time>
      </trkpt>
      <trkpt lat="46.15485" lon="5.59104">
        <ele>672.4</ele>
        <time>2020-05-24T09:33:35Z</time>
      </trkpt>
      <trkpt lat="46.15486" lon="5.59104">
        <ele>672.6</ele>
        <time>2020-05-24T09:33:36Z</time>
      </trkpt>
      <trkpt lat="46.15486" lon="5.59103">
        <ele>672.7</ele>
        <time>2020-05-24T09:33:38Z</time>
      </trkpt>
      <trkpt lat="46.15487" lon="5.59102">
        <ele>672.9</ele>
        <time>2020-05-24T09:33:39Z</time>
      </trkpt>
      <trkpt lat="46.15487" lon="5.59102">
        <ele>672.9</ele>
        <time>2020-05-24T09:33:40Z</time>
      </trkpt>
      <trkpt lat="46.15488" lon="5.591">
        <ele>673.1</ele>
        <time>2020-05-24T09:33:42Z</time>
      </trkpt>
      <trkpt lat="46.15493" lon="5.5909">
        <ele>674.5</ele>
        <time>2020-05-24T09:33:56Z</time>
      </trkpt>
      <trkpt lat="46.15493" lon="5.5909">
        <ele>674.6</ele>
        <time>2020-05-24T09:33:57Z</time>
      </trkpt>
      <trkpt lat="46.15494" lon="5.5909">
        <ele>674.7</ele>
        <time>2020-05-24T09:33:58Z</time>
      </trkpt>
      <trkpt lat="46.15494" lon="5.59089">
        <ele>674.8</ele>
        <time>2020-05-24T09:33:59Z</time>
      </trkpt>
      <trkpt lat="46.15495" lon="5.59089">
        <ele>674.9</ele>
        <time>2020-05-24T09:34:00Z</time>
      </trkpt>
      <trkpt lat="46.15496" lon="5.59088">
        <ele>675</ele>
        <time>2020-05-24T09:34:02Z</time>
      </trkpt>
      <trkpt lat="46.15497" lon="5.59087">
        <ele>675.2</ele>
        <time>2020-05-24T09:34:03Z</time>
      </trkpt>
      <trkpt lat="46.15498" lon="5.59086">
        <ele>675.4</ele>
        <time>2020-05-24T09:34:05Z</time>
      </trkpt>
      <trkpt lat="46.15498" lon="5.59085">
        <ele>675.5</ele>
        <time>2020-05-24T09:34:06Z</time>
      </trkpt>
      <trkpt lat="46.15499" lon="5.59085">
        <ele>675.7</ele>
        <time>2020-05-24T09:34:07Z</time>
      </trkpt>
      <trkpt lat="46.155" lon="5.59084">
        <ele>675.9</ele>
        <time>2020-05-24T09:34:09Z</time>
      </trkpt>
      <trkpt lat="46.15501" lon="5.59083">
        <ele>676</ele>
        <time>2020-05-24T09:34:10Z</time>
      </trkpt>
      <trkpt lat="46.15502" lon="5.59083">
        <ele>676.2</ele>
        <time>2020-05-24T09:34:11Z</time>
      </trkpt>
      <trkpt lat="46.15503" lon="5.59082">
        <ele>676.3</ele>
        <time>2020-05-24T09:34:13Z</time>
      </trkpt>
      <trkpt lat="46.15504" lon="5.59081">
        <ele>676.5</ele>
        <time>2020-05-24T09:34:14Z</time>
      </trkpt>
      <trkpt lat="46.15505" lon="5.5908">
        <ele>676.7</ele>
        <time>2020-05-24T09:34:16Z</time>
      </trkpt>
      <trkpt lat="46.15506" lon="5.59079">
        <ele>676.8</ele>
        <time>2020-05-24T09:34:17Z</time>
      </trkpt>
      <trkpt lat="46.15507" lon="5.59078">
        <ele>677</ele>
        <time>2020-05-24T09:34:19Z</time>
      </trkpt>
      <trkpt lat="46.15508" lon="5.59078">
        <ele>677.2</ele>
        <time>2020-05-24T09:34:20Z</time>
      </trkpt>
      <trkpt lat="46.15508" lon="5.59078">
        <ele>677.2</ele>
        <time>2020-05-24T09:34:21Z</time>
      </trkpt>
      <trkpt lat="46.15509" lon="5.59077">
        <ele>677.3</ele>
        <time>2020-05-24T09:34:22Z</time>
      </trkpt>
      <trkpt lat="46.1551" lon="5.59077">
        <ele>677.4</ele>
        <time>2020-05-24T09:34:24Z</time>
      </trkpt>
      <trkpt lat="46.1551" lon="5.59076">
        <ele>677.5</ele>
        <time>2020-05-24T09:34:25Z</time>
      </trkpt>
      <trkpt lat="46.15511" lon="5.59075">
        <ele>677.6</ele>
        <time>2020-05-24T09:34:26Z</time>
      </trkpt>
      <trkpt lat="46.15511" lon="5.59073">
        <ele>677.8</ele>
        <time>2020-05-24T09:34:28Z</time>
      </trkpt>
      <trkpt lat="46.15512" lon="5.59072">
        <ele>677.9</ele>
        <time>2020-05-24T09:34:29Z</time>
      </trkpt>
      <trkpt lat="46.15512" lon="5.59071">
        <ele>678</ele>
        <time>2020-05-24T09:34:30Z</time>
      </trkpt>
      <trkpt lat="46.15515" lon="5.59068">
        <ele>678.4</ele>
        <time>2020-05-24T09:34:32Z</time>
      </trkpt>
      <trkpt lat="46.15516" lon="5.59066">
        <ele>678.6</ele>
        <time>2020-05-24T09:34:39Z</time>
      </trkpt>
      <trkpt lat="46.15518" lon="5.59064">
        <ele>678.9</ele>
        <time>2020-05-24T09:34:40Z</time>
      </trkpt>
      <trkpt lat="46.15519" lon="5.59062">
        <ele>679.1</ele>
        <time>2020-05-24T09:34:42Z</time>
      </trkpt>
      <trkpt lat="46.1552" lon="5.5906">
        <ele>679.3</ele>
        <time>2020-05-24T09:34:43Z</time>
      </trkpt>
      <trkpt lat="46.15522" lon="5.59059">
        <ele>679.5</ele>
        <time>2020-05-24T09:34:45Z</time>
      </trkpt>
      <trkpt lat="46.15523" lon="5.59057">
        <ele>679.7</ele>
        <time>2020-05-24T09:34:46Z</time>
      </trkpt>
      <trkpt lat="46.15524" lon="5.59057">
        <ele>679.9</ele>
        <time>2020-05-24T09:34:47Z</time>
      </trkpt>
      <trkpt lat="46.15526" lon="5.59056">
        <ele>680.1</ele>
        <time>2020-05-24T09:34:49Z</time>
      </trkpt>
      <trkpt lat="46.15528" lon="5.59054">
        <ele>680.3</ele>
        <time>2020-05-24T09:34:50Z</time>
      </trkpt>
      <trkpt lat="46.15529" lon="5.59054">
        <ele>680.4</ele>
        <time>2020-05-24T09:34:51Z</time>
      </trkpt>
      <trkpt lat="46.1553" lon="5.59053">
        <ele>680.7</ele>
        <time>2020-05-24T09:34:52Z</time>
      </trkpt>
      <trkpt lat="46.15531" lon="5.59052">
        <ele>680.8</ele>
        <time>2020-05-24T09:34:54Z</time>
      </trkpt>
      <trkpt lat="46.15532" lon="5.59052">
        <ele>680.9</ele>
        <time>2020-05-24T09:34:55Z</time>
      </trkpt>
      <trkpt lat="46.15534" lon="5.59052">
        <ele>681.1</ele>
        <time>2020-05-24T09:34:56Z</time>
      </trkpt>
      <trkpt lat="46.15536" lon="5.59051">
        <ele>681.3</ele>
        <time>2020-05-24T09:34:58Z</time>
      </trkpt>
      <trkpt lat="46.15537" lon="5.5905">
        <ele>681.4</ele>
        <time>2020-05-24T09:34:59Z</time>
      </trkpt>
      <trkpt lat="46.15538" lon="5.59049">
        <ele>681.6</ele>
        <time>2020-05-24T09:35:01Z</time>
      </trkpt>
      <trkpt lat="46.15539" lon="5.59048">
        <ele>681.8</ele>
        <time>2020-05-24T09:35:02Z</time>
      </trkpt>
      <trkpt lat="46.1554" lon="5.59047">
        <ele>681.9</ele>
        <time>2020-05-24T09:35:03Z</time>
      </trkpt>
      <trkpt lat="46.15541" lon="5.59045">
        <ele>682.1</ele>
        <time>2020-05-24T09:35:05Z</time>
      </trkpt>
      <trkpt lat="46.15542" lon="5.59044">
        <ele>682.2</ele>
        <time>2020-05-24T09:35:06Z</time>
      </trkpt>
      <trkpt lat="46.15542" lon="5.59042">
        <ele>682.4</ele>
        <time>2020-05-24T09:35:07Z</time>
      </trkpt>
      <trkpt lat="46.15544" lon="5.5904">
        <ele>682.6</ele>
        <time>2020-05-24T09:35:09Z</time>
      </trkpt>
      <trkpt lat="46.15544" lon="5.59039">
        <ele>682.8</ele>
        <time>2020-05-24T09:35:10Z</time>
      </trkpt>
      <trkpt lat="46.15545" lon="5.59038">
        <ele>682.8</ele>
        <time>2020-05-24T09:35:11Z</time>
      </trkpt>
      <trkpt lat="46.15545" lon="5.59037">
        <ele>683</ele>
        <time>2020-05-24T09:35:12Z</time>
      </trkpt>
      <trkpt lat="46.15546" lon="5.59035">
        <ele>683.1</ele>
        <time>2020-05-24T09:35:14Z</time>
      </trkpt>
      <trkpt lat="46.15546" lon="5.59033">
        <ele>683.3</ele>
        <time>2020-05-24T09:35:15Z</time>
      </trkpt>
      <trkpt lat="46.15547" lon="5.59032">
        <ele>683.4</ele>
        <time>2020-05-24T09:35:16Z</time>
      </trkpt>
      <trkpt lat="46.15547" lon="5.59031">
        <ele>683.5</ele>
        <time>2020-05-24T09:35:17Z</time>
      </trkpt>
      <trkpt lat="46.15548" lon="5.5903">
        <ele>683.7</ele>
        <time>2020-05-24T09:35:18Z</time>
      </trkpt>
      <trkpt lat="46.15548" lon="5.59029">
        <ele>683.8</ele>
        <time>2020-05-24T09:35:19Z</time>
      </trkpt>
      <trkpt lat="46.15549" lon="5.59028">
        <ele>683.9</ele>
        <time>2020-05-24T09:35:21Z</time>
      </trkpt>
      <trkpt lat="46.15549" lon="5.59027">
        <ele>684</ele>
        <time>2020-05-24T09:35:22Z</time>
      </trkpt>
      <trkpt lat="46.1555" lon="5.59025">
        <ele>684.2</ele>
        <time>2020-05-24T09:35:24Z</time>
      </trkpt>
      <trkpt lat="46.15551" lon="5.59024">
        <ele>684.4</ele>
        <time>2020-05-24T09:35:26Z</time>
      </trkpt>
      <trkpt lat="46.15552" lon="5.59023">
        <ele>684.6</ele>
        <time>2020-05-24T09:35:27Z</time>
      </trkpt>
      <trkpt lat="46.15553" lon="5.59022">
        <ele>684.7</ele>
        <time>2020-05-24T09:35:29Z</time>
      </trkpt>
      <trkpt lat="46.15553" lon="5.5902">
        <ele>684.8</ele>
        <time>2020-05-24T09:35:30Z</time>
      </trkpt>
      <trkpt lat="46.15554" lon="5.59019">
        <ele>685</ele>
        <time>2020-05-24T09:35:31Z</time>
      </trkpt>
      <trkpt lat="46.15554" lon="5.59018">
        <ele>685.1</ele>
        <time>2020-05-24T09:35:32Z</time>
      </trkpt>
      <trkpt lat="46.15554" lon="5.59017">
        <ele>685.2</ele>
        <time>2020-05-24T09:35:33Z</time>
      </trkpt>
      <trkpt lat="46.15555" lon="5.59016">
        <ele>685.3</ele>
        <time>2020-05-24T09:35:35Z</time>
      </trkpt>
      <trkpt lat="46.15555" lon="5.59015">
        <ele>685.5</ele>
        <time>2020-05-24T09:35:36Z</time>
      </trkpt>
      <trkpt lat="46.15556" lon="5.59014">
        <ele>685.6</ele>
        <time>2020-05-24T09:35:37Z</time>
      </trkpt>
      <trkpt lat="46.15557" lon="5.59012">
        <ele>685.9</ele>
        <time>2020-05-24T09:35:39Z</time>
      </trkpt>
      <trkpt lat="46.15558" lon="5.59011">
        <ele>685.9</ele>
        <time>2020-05-24T09:35:40Z</time>
      </trkpt>
      <trkpt lat="46.15558" lon="5.5901">
        <ele>686</ele>
        <time>2020-05-24T09:35:41Z</time>
      </trkpt>
      <trkpt lat="46.15558" lon="5.59009">
        <ele>686.2</ele>
        <time>2020-05-24T09:35:42Z</time>
      </trkpt>
      <trkpt lat="46.15558" lon="5.59008">
        <ele>686.3</ele>
        <time>2020-05-24T09:35:44Z</time>
      </trkpt>
      <trkpt lat="46.15558" lon="5.59006">
        <ele>686.5</ele>
        <time>2020-05-24T09:35:45Z</time>
      </trkpt>
      <trkpt lat="46.15558" lon="5.59004">
        <ele>686.7</ele>
        <time>2020-05-24T09:35:46Z</time>
      </trkpt>
      <trkpt lat="46.15558" lon="5.59003">
        <ele>686.8</ele>
        <time>2020-05-24T09:35:47Z</time>
      </trkpt>
      <trkpt lat="46.15558" lon="5.59001">
        <ele>686.9</ele>
        <time>2020-05-24T09:35:49Z</time>
      </trkpt>
      <trkpt lat="46.15559" lon="5.58999">
        <ele>687.1</ele>
        <time>2020-05-24T09:35:50Z</time>
      </trkpt>
      <trkpt lat="46.15559" lon="5.58998">
        <ele>687.2</ele>
        <time>2020-05-24T09:35:52Z</time>
      </trkpt>
      <trkpt lat="46.15559" lon="5.58997">
        <ele>687.4</ele>
        <time>2020-05-24T09:35:54Z</time>
      </trkpt>
      <trkpt lat="46.15559" lon="5.58995">
        <ele>687.5</ele>
        <time>2020-05-24T09:35:55Z</time>
      </trkpt>
      <trkpt lat="46.15559" lon="5.58994">
        <ele>687.7</ele>
        <time>2020-05-24T09:35:56Z</time>
      </trkpt>
      <trkpt lat="46.15559" lon="5.58992">
        <ele>687.8</ele>
        <time>2020-05-24T09:35:58Z</time>
      </trkpt>
      <trkpt lat="46.15559" lon="5.58991">
        <ele>687.9</ele>
        <time>2020-05-24T09:35:59Z</time>
      </trkpt>
      <trkpt lat="46.15559" lon="5.5899">
        <ele>688.1</ele>
        <time>2020-05-24T09:36:01Z</time>
      </trkpt>
      <trkpt lat="46.15559" lon="5.58988">
        <ele>688.2</ele>
        <time>2020-05-24T09:36:02Z</time>
      </trkpt>
      <trkpt lat="46.15559" lon="5.58987">
        <ele>688.3</ele>
        <time>2020-05-24T09:36:04Z</time>
      </trkpt>
      <trkpt lat="46.15559" lon="5.58986">
        <ele>688.5</ele>
        <time>2020-05-24T09:36:05Z</time>
      </trkpt>
      <trkpt lat="46.15558" lon="5.58984">
        <ele>688.6</ele>
        <time>2020-05-24T09:36:07Z</time>
      </trkpt>
      <trkpt lat="46.15558" lon="5.58983">
        <ele>688.7</ele>
        <time>2020-05-24T09:36:08Z</time>
      </trkpt>
      <trkpt lat="46.15558" lon="5.58982">
        <ele>688.8</ele>
        <time>2020-05-24T09:36:10Z</time>
      </trkpt>
      <trkpt lat="46.15557" lon="5.5898">
        <ele>689</ele>
        <time>2020-05-24T09:36:11Z</time>
      </trkpt>
      <trkpt lat="46.15557" lon="5.58979">
        <ele>689.1</ele>
        <time>2020-05-24T09:36:12Z</time>
      </trkpt>
      <trkpt lat="46.15556" lon="5.58977">
        <ele>689.3</ele>
        <time>2020-05-24T09:36:14Z</time>
      </trkpt>
      <trkpt lat="46.15556" lon="5.58976">
        <ele>689.4</ele>
        <time>2020-05-24T09:36:15Z</time>
      </trkpt>
      <trkpt lat="46.15556" lon="5.58975">
        <ele>689.5</ele>
        <time>2020-05-24T09:36:16Z</time>
      </trkpt>
      <trkpt lat="46.15556" lon="5.58973">
        <ele>689.6</ele>
        <time>2020-05-24T09:36:18Z</time>
      </trkpt>
      <trkpt lat="46.15556" lon="5.58971">
        <ele>689.8</ele>
        <time>2020-05-24T09:36:19Z</time>
      </trkpt>
      <trkpt lat="46.15555" lon="5.5897">
        <ele>689.9</ele>
        <time>2020-05-24T09:36:20Z</time>
      </trkpt>
      <trkpt lat="46.15555" lon="5.58968">
        <ele>690.1</ele>
        <time>2020-05-24T09:36:22Z</time>
      </trkpt>
      <trkpt lat="46.15555" lon="5.58966">
        <ele>690.2</ele>
        <time>2020-05-24T09:36:23Z</time>
      </trkpt>
      <trkpt lat="46.15555" lon="5.58964">
        <ele>690.4</ele>
        <time>2020-05-24T09:36:24Z</time>
      </trkpt>
      <trkpt lat="46.15555" lon="5.58961">
        <ele>690.6</ele>
        <time>2020-05-24T09:36:26Z</time>
      </trkpt>
      <trkpt lat="46.15555" lon="5.5896">
        <ele>690.7</ele>
        <time>2020-05-24T09:36:27Z</time>
      </trkpt>
      <trkpt lat="46.15556" lon="5.58959">
        <ele>690.8</ele>
        <time>2020-05-24T09:36:28Z</time>
      </trkpt>
      <trkpt lat="46.15556" lon="5.58957">
        <ele>691</ele>
        <time>2020-05-24T09:36:30Z</time>
      </trkpt>
      <trkpt lat="46.15556" lon="5.58956">
        <ele>691.1</ele>
        <time>2020-05-24T09:36:31Z</time>
      </trkpt>
      <trkpt lat="46.15556" lon="5.58956">
        <ele>691.1</ele>
        <time>2020-05-24T09:36:32Z</time>
      </trkpt>
      <trkpt lat="46.15556" lon="5.58955">
        <ele>691.1</ele>
        <time>2020-05-24T09:36:34Z</time>
      </trkpt>
      <trkpt lat="46.15556" lon="5.58955">
        <ele>691.2</ele>
        <time>2020-05-24T09:36:35Z</time>
      </trkpt>
      <trkpt lat="46.15556" lon="5.58955">
        <ele>691.2</ele>
        <time>2020-05-24T09:36:36Z</time>
      </trkpt>
      <trkpt lat="46.15556" lon="5.58955">
        <ele>691.2</ele>
        <time>2020-05-24T09:36:38Z</time>
      </trkpt>
      <trkpt lat="46.15556" lon="5.58955">
        <ele>691.2</ele>
        <time>2020-05-24T09:36:39Z</time>
      </trkpt>
      <trkpt lat="46.15556" lon="5.58955">
        <ele>691.2</ele>
        <time>2020-05-24T09:36:41Z</time>
      </trkpt>
      <trkpt lat="46.15557" lon="5.58956">
        <ele>691.3</ele>
        <time>2020-05-24T09:36:42Z</time>
      </trkpt>
      <trkpt lat="46.15557" lon="5.58956">
        <ele>691.3</ele>
        <time>2020-05-24T09:36:44Z</time>
      </trkpt>
      <trkpt lat="46.15557" lon="5.58955">
        <ele>691.3</ele>
        <time>2020-05-24T09:36:45Z</time>
      </trkpt>
      <trkpt lat="46.15557" lon="5.58954">
        <ele>691.4</ele>
        <time>2020-05-24T09:36:47Z</time>
      </trkpt>
      <trkpt lat="46.15557" lon="5.58954">
        <ele>691.5</ele>
        <time>2020-05-24T09:36:48Z</time>
      </trkpt>
      <trkpt lat="46.15558" lon="5.58951">
        <ele>691.7</ele>
        <time>2020-05-24T09:36:50Z</time>
      </trkpt>
      <trkpt lat="46.15559" lon="5.58949">
        <ele>691.9</ele>
        <time>2020-05-24T09:37:25Z</time>
      </trkpt>
      <trkpt lat="46.1556" lon="5.58947">
        <ele>692.2</ele>
        <time>2020-05-24T09:37:26Z</time>
      </trkpt>
      <trkpt lat="46.15561" lon="5.58944">
        <ele>692.4</ele>
        <time>2020-05-24T09:37:28Z</time>
      </trkpt>
      <trkpt lat="46.15561" lon="5.58942">
        <ele>692.6</ele>
        <time>2020-05-24T09:37:29Z</time>
      </trkpt>
      <trkpt lat="46.15562" lon="5.5894">
        <ele>692.8</ele>
        <time>2020-05-24T09:37:30Z</time>
      </trkpt>
      <trkpt lat="46.15563" lon="5.58939">
        <ele>692.9</ele>
        <time>2020-05-24T09:37:31Z</time>
      </trkpt>
      <trkpt lat="46.15563" lon="5.58938">
        <ele>693</ele>
        <time>2020-05-24T09:37:32Z</time>
      </trkpt>
      <trkpt lat="46.15564" lon="5.58936">
        <ele>693.2</ele>
        <time>2020-05-24T09:37:34Z</time>
      </trkpt>
      <trkpt lat="46.15564" lon="5.58935">
        <ele>693.3</ele>
        <time>2020-05-24T09:37:35Z</time>
      </trkpt>
      <trkpt lat="46.15563" lon="5.58934">
        <ele>693.5</ele>
        <time>2020-05-24T09:37:37Z</time>
      </trkpt>
      <trkpt lat="46.15563" lon="5.58932">
        <ele>693.6</ele>
        <time>2020-05-24T09:37:38Z</time>
      </trkpt>
      <trkpt lat="46.15563" lon="5.58928">
        <ele>694</ele>
        <time>2020-05-24T09:37:40Z</time>
      </trkpt>
      <trkpt lat="46.15563" lon="5.58927">
        <ele>694.1</ele>
        <time>2020-05-24T09:37:41Z</time>
      </trkpt>
      <trkpt lat="46.15563" lon="5.58925">
        <ele>694.3</ele>
        <time>2020-05-24T09:37:42Z</time>
      </trkpt>
      <trkpt lat="46.15564" lon="5.58922">
        <ele>694.6</ele>
        <time>2020-05-24T09:37:44Z</time>
      </trkpt>
      <trkpt lat="46.15564" lon="5.5892">
        <ele>694.7</ele>
        <time>2020-05-24T09:37:46Z</time>
      </trkpt>
      <trkpt lat="46.15564" lon="5.58918">
        <ele>695</ele>
        <time>2020-05-24T09:37:47Z</time>
      </trkpt>
      <trkpt lat="46.15563" lon="5.58916">
        <ele>695.2</ele>
        <time>2020-05-24T09:37:49Z</time>
      </trkpt>
      <trkpt lat="46.15563" lon="5.58914">
        <ele>695.4</ele>
        <time>2020-05-24T09:37:50Z</time>
      </trkpt>
      <trkpt lat="46.15563" lon="5.58912">
        <ele>695.5</ele>
        <time>2020-05-24T09:37:52Z</time>
      </trkpt>
      <trkpt lat="46.15563" lon="5.58911">
        <ele>695.7</ele>
        <time>2020-05-24T09:37:53Z</time>
      </trkpt>
      <trkpt lat="46.15563" lon="5.5891">
        <ele>695.8</ele>
        <time>2020-05-24T09:37:54Z</time>
      </trkpt>
      <trkpt lat="46.15563" lon="5.58909">
        <ele>695.9</ele>
        <time>2020-05-24T09:37:55Z</time>
      </trkpt>
      <trkpt lat="46.15563" lon="5.58908">
        <ele>696</ele>
        <time>2020-05-24T09:37:56Z</time>
      </trkpt>
      <trkpt lat="46.15564" lon="5.58906">
        <ele>696.1</ele>
        <time>2020-05-24T09:37:58Z</time>
      </trkpt>
      <trkpt lat="46.15564" lon="5.58905">
        <ele>696.3</ele>
        <time>2020-05-24T09:37:59Z</time>
      </trkpt>
      <trkpt lat="46.15564" lon="5.58902">
        <ele>696.6</ele>
        <time>2020-05-24T09:38:00Z</time>
      </trkpt>
      <trkpt lat="46.15564" lon="5.58901">
        <ele>696.7</ele>
        <time>2020-05-24T09:38:01Z</time>
      </trkpt>
      <trkpt lat="46.15565" lon="5.589">
        <ele>696.8</ele>
        <time>2020-05-24T09:38:02Z</time>
      </trkpt>
      <trkpt lat="46.15565" lon="5.58898">
        <ele>697</ele>
        <time>2020-05-24T09:38:03Z</time>
      </trkpt>
      <trkpt lat="46.15566" lon="5.58896">
        <ele>697.2</ele>
        <time>2020-05-24T09:38:05Z</time>
      </trkpt>
      <trkpt lat="46.15566" lon="5.58893">
        <ele>697.5</ele>
        <time>2020-05-24T09:38:06Z</time>
      </trkpt>
      <trkpt lat="46.15566" lon="5.58891">
        <ele>697.6</ele>
        <time>2020-05-24T09:38:07Z</time>
      </trkpt>
      <trkpt lat="46.15566" lon="5.58888">
        <ele>697.9</ele>
        <time>2020-05-24T09:38:08Z</time>
      </trkpt>
      <trkpt lat="46.15567" lon="5.58886">
        <ele>698.1</ele>
        <time>2020-05-24T09:38:10Z</time>
      </trkpt>
      <trkpt lat="46.15567" lon="5.58885">
        <ele>698.2</ele>
        <time>2020-05-24T09:38:12Z</time>
      </trkpt>
      <trkpt lat="46.15567" lon="5.58883">
        <ele>698.4</ele>
        <time>2020-05-24T09:38:13Z</time>
      </trkpt>
      <trkpt lat="46.15567" lon="5.58882">
        <ele>698.5</ele>
        <time>2020-05-24T09:38:14Z</time>
      </trkpt>
      <trkpt lat="46.15567" lon="5.58879">
        <ele>698.8</ele>
        <time>2020-05-24T09:38:16Z</time>
      </trkpt>
      <trkpt lat="46.15567" lon="5.58877">
        <ele>699</ele>
        <time>2020-05-24T09:38:17Z</time>
      </trkpt>
      <trkpt lat="46.15567" lon="5.58873">
        <ele>699.3</ele>
        <time>2020-05-24T09:38:19Z</time>
      </trkpt>
      <trkpt lat="46.15567" lon="5.58871">
        <ele>699.5</ele>
        <time>2020-05-24T09:38:21Z</time>
      </trkpt>
      <trkpt lat="46.15568" lon="5.5887">
        <ele>699.6</ele>
        <time>2020-05-24T09:38:22Z</time>
      </trkpt>
      <trkpt lat="46.15568" lon="5.58868">
        <ele>699.8</ele>
        <time>2020-05-24T09:38:24Z</time>
      </trkpt>
      <trkpt lat="46.15568" lon="5.58867">
        <ele>699.9</ele>
        <time>2020-05-24T09:38:25Z</time>
      </trkpt>
      <trkpt lat="46.15569" lon="5.58864">
        <ele>700.2</ele>
        <time>2020-05-24T09:38:26Z</time>
      </trkpt>
      <trkpt lat="46.15569" lon="5.58862">
        <ele>700.5</ele>
        <time>2020-05-24T09:38:28Z</time>
      </trkpt>
      <trkpt lat="46.1557" lon="5.58861">
        <ele>700.6</ele>
        <time>2020-05-24T09:38:29Z</time>
      </trkpt>
      <trkpt lat="46.1557" lon="5.5886">
        <ele>700.7</ele>
        <time>2020-05-24T09:38:31Z</time>
      </trkpt>
      <trkpt lat="46.1557" lon="5.58858">
        <ele>700.8</ele>
        <time>2020-05-24T09:38:32Z</time>
      </trkpt>
      <trkpt lat="46.1557" lon="5.58856">
        <ele>701</ele>
        <time>2020-05-24T09:38:33Z</time>
      </trkpt>
      <trkpt lat="46.1557" lon="5.58854">
        <ele>701.2</ele>
        <time>2020-05-24T09:38:35Z</time>
      </trkpt>
      <trkpt lat="46.15571" lon="5.58852">
        <ele>701.4</ele>
        <time>2020-05-24T09:38:36Z</time>
      </trkpt>
      <trkpt lat="46.15571" lon="5.5885">
        <ele>701.7</ele>
        <time>2020-05-24T09:38:38Z</time>
      </trkpt>
      <trkpt lat="46.15571" lon="5.58848">
        <ele>701.9</ele>
        <time>2020-05-24T09:38:39Z</time>
      </trkpt>
      <trkpt lat="46.15572" lon="5.58846">
        <ele>702.1</ele>
        <time>2020-05-24T09:38:41Z</time>
      </trkpt>
      <trkpt lat="46.15571" lon="5.58843">
        <ele>702.3</ele>
        <time>2020-05-24T09:38:42Z</time>
      </trkpt>
      <trkpt lat="46.15571" lon="5.58842">
        <ele>702.5</ele>
        <time>2020-05-24T09:38:43Z</time>
      </trkpt>
      <trkpt lat="46.15571" lon="5.5884">
        <ele>702.7</ele>
        <time>2020-05-24T09:38:45Z</time>
      </trkpt>
      <trkpt lat="46.15571" lon="5.58837">
        <ele>703</ele>
        <time>2020-05-24T09:38:46Z</time>
      </trkpt>
      <trkpt lat="46.15571" lon="5.58835">
        <ele>703.2</ele>
        <time>2020-05-24T09:38:47Z</time>
      </trkpt>
      <trkpt lat="46.1557" lon="5.58833">
        <ele>703.4</ele>
        <time>2020-05-24T09:38:48Z</time>
      </trkpt>
      <trkpt lat="46.1557" lon="5.5883">
        <ele>703.7</ele>
        <time>2020-05-24T09:38:50Z</time>
      </trkpt>
      <trkpt lat="46.1557" lon="5.58829">
        <ele>703.8</ele>
        <time>2020-05-24T09:38:51Z</time>
      </trkpt>
      <trkpt lat="46.15569" lon="5.58828">
        <ele>703.9</ele>
        <time>2020-05-24T09:38:52Z</time>
      </trkpt>
      <trkpt lat="46.15569" lon="5.58827">
        <ele>704.1</ele>
        <time>2020-05-24T09:38:53Z</time>
      </trkpt>
      <trkpt lat="46.15568" lon="5.58826">
        <ele>704.2</ele>
        <time>2020-05-24T09:38:54Z</time>
      </trkpt>
      <trkpt lat="46.15568" lon="5.58826">
        <ele>704.2</ele>
        <time>2020-05-24T09:38:55Z</time>
      </trkpt>
      <trkpt lat="46.15567" lon="5.58824">
        <ele>704.5</ele>
        <time>2020-05-24T09:38:57Z</time>
      </trkpt>
      <trkpt lat="46.15565" lon="5.58823">
        <ele>704.7</ele>
        <time>2020-05-24T09:38:58Z</time>
      </trkpt>
      <trkpt lat="46.15564" lon="5.58821">
        <ele>704.9</ele>
        <time>2020-05-24T09:39:00Z</time>
      </trkpt>
      <trkpt lat="46.15563" lon="5.5882">
        <ele>705.1</ele>
        <time>2020-05-24T09:39:02Z</time>
      </trkpt>
      <trkpt lat="46.15561" lon="5.58817">
        <ele>705.5</ele>
        <time>2020-05-24T09:39:04Z</time>
      </trkpt>
      <trkpt lat="46.15561" lon="5.58816">
        <ele>705.6</ele>
        <time>2020-05-24T09:39:05Z</time>
      </trkpt>
      <trkpt lat="46.15561" lon="5.58815">
        <ele>705.7</ele>
        <time>2020-05-24T09:39:06Z</time>
      </trkpt>
      <trkpt lat="46.15561" lon="5.58812">
        <ele>705.9</ele>
        <time>2020-05-24T09:39:08Z</time>
      </trkpt>
      <trkpt lat="46.1556" lon="5.5881">
        <ele>706.1</ele>
        <time>2020-05-24T09:39:10Z</time>
      </trkpt>
      <trkpt lat="46.1556" lon="5.58808">
        <ele>706.3</ele>
        <time>2020-05-24T09:39:12Z</time>
      </trkpt>
      <trkpt lat="46.15559" lon="5.58808">
        <ele>706.3</ele>
        <time>2020-05-24T09:39:13Z</time>
      </trkpt>
      <trkpt lat="46.15559" lon="5.58806">
        <ele>706.5</ele>
        <time>2020-05-24T09:39:15Z</time>
      </trkpt>
      <trkpt lat="46.15559" lon="5.58806">
        <ele>706.5</ele>
        <time>2020-05-24T09:39:16Z</time>
      </trkpt>
      <trkpt lat="46.15558" lon="5.58804">
        <ele>706.6</ele>
        <time>2020-05-24T09:39:17Z</time>
      </trkpt>
      <trkpt lat="46.15558" lon="5.58803">
        <ele>706.7</ele>
        <time>2020-05-24T09:39:18Z</time>
      </trkpt>
      <trkpt lat="46.15557" lon="5.58801">
        <ele>706.9</ele>
        <time>2020-05-24T09:39:20Z</time>
      </trkpt>
      <trkpt lat="46.15557" lon="5.588">
        <ele>707</ele>
        <time>2020-05-24T09:39:21Z</time>
      </trkpt>
      <trkpt lat="46.15557" lon="5.58799">
        <ele>707.1</ele>
        <time>2020-05-24T09:39:22Z</time>
      </trkpt>
      <trkpt lat="46.15555" lon="5.58797">
        <ele>707.4</ele>
        <time>2020-05-24T09:39:29Z</time>
      </trkpt>
      <trkpt lat="46.15554" lon="5.58797">
        <ele>707.5</ele>
        <time>2020-05-24T09:39:30Z</time>
      </trkpt>
      <trkpt lat="46.15554" lon="5.58797">
        <ele>707.5</ele>
        <time>2020-05-24T09:39:31Z</time>
      </trkpt>
      <trkpt lat="46.15554" lon="5.58797">
        <ele>707.5</ele>
        <time>2020-05-24T09:39:33Z</time>
      </trkpt>
      <trkpt lat="46.15554" lon="5.58797">
        <ele>707.6</ele>
        <time>2020-05-24T09:39:34Z</time>
      </trkpt>
      <trkpt lat="46.15554" lon="5.58798">
        <ele>707.6</ele>
        <time>2020-05-24T09:39:36Z</time>
      </trkpt>
      <trkpt lat="46.15554" lon="5.58798">
        <ele>707.6</ele>
        <time>2020-05-24T09:39:37Z</time>
      </trkpt>
      <trkpt lat="46.15554" lon="5.58798">
        <ele>707.7</ele>
        <time>2020-05-24T09:39:39Z</time>
      </trkpt>
      <trkpt lat="46.15553" lon="5.58797">
        <ele>707.8</ele>
        <time>2020-05-24T09:39:40Z</time>
      </trkpt>
      <trkpt lat="46.15553" lon="5.58795">
        <ele>708</ele>
        <time>2020-05-24T09:39:42Z</time>
      </trkpt>
      <trkpt lat="46.15552" lon="5.58793">
        <ele>708.2</ele>
        <time>2020-05-24T09:39:44Z</time>
      </trkpt>
      <trkpt lat="46.15552" lon="5.5879">
        <ele>708.4</ele>
        <time>2020-05-24T09:39:45Z</time>
      </trkpt>
      <trkpt lat="46.15552" lon="5.58788">
        <ele>708.5</ele>
        <time>2020-05-24T09:39:46Z</time>
      </trkpt>
      <trkpt lat="46.15552" lon="5.58787">
        <ele>708.6</ele>
        <time>2020-05-24T09:39:47Z</time>
      </trkpt>
      <trkpt lat="46.15553" lon="5.58783">
        <ele>709</ele>
        <time>2020-05-24T09:39:49Z</time>
      </trkpt>
      <trkpt lat="46.15553" lon="5.58782">
        <ele>709.2</ele>
        <time>2020-05-24T09:39:51Z</time>
      </trkpt>
      <trkpt lat="46.15554" lon="5.5878">
        <ele>709.3</ele>
        <time>2020-05-24T09:39:52Z</time>
      </trkpt>
      <trkpt lat="46.15554" lon="5.58779">
        <ele>709.5</ele>
        <time>2020-05-24T09:39:53Z</time>
      </trkpt>
      <trkpt lat="46.15555" lon="5.58777">
        <ele>709.6</ele>
        <time>2020-05-24T09:39:54Z</time>
      </trkpt>
      <trkpt lat="46.15556" lon="5.58776">
        <ele>709.8</ele>
        <time>2020-05-24T09:39:56Z</time>
      </trkpt>
      <trkpt lat="46.15559" lon="5.58775">
        <ele>710.1</ele>
        <time>2020-05-24T09:39:58Z</time>
      </trkpt>
      <trkpt lat="46.1556" lon="5.58772">
        <ele>710.4</ele>
        <time>2020-05-24T09:40:00Z</time>
      </trkpt>
      <trkpt lat="46.15561" lon="5.5877">
        <ele>710.6</ele>
        <time>2020-05-24T09:40:02Z</time>
      </trkpt>
      <trkpt lat="46.15562" lon="5.58769">
        <ele>710.8</ele>
        <time>2020-05-24T09:40:03Z</time>
      </trkpt>
      <trkpt lat="46.15563" lon="5.58767">
        <ele>711</ele>
        <time>2020-05-24T09:40:04Z</time>
      </trkpt>
      <trkpt lat="46.15565" lon="5.58763">
        <ele>711.4</ele>
        <time>2020-05-24T09:40:06Z</time>
      </trkpt>
      <trkpt lat="46.15565" lon="5.5876">
        <ele>711.6</ele>
        <time>2020-05-24T09:40:07Z</time>
      </trkpt>
      <trkpt lat="46.15567" lon="5.58757">
        <ele>711.9</ele>
        <time>2020-05-24T09:40:09Z</time>
      </trkpt>
      <trkpt lat="46.15568" lon="5.58754">
        <ele>712.2</ele>
        <time>2020-05-24T09:40:10Z</time>
      </trkpt>
      <trkpt lat="46.15568" lon="5.58752">
        <ele>712.3</ele>
        <time>2020-05-24T09:40:11Z</time>
      </trkpt>
      <trkpt lat="46.1557" lon="5.58748">
        <ele>712.6</ele>
        <time>2020-05-24T09:40:13Z</time>
      </trkpt>
      <trkpt lat="46.15571" lon="5.58746">
        <ele>712.7</ele>
        <time>2020-05-24T09:40:14Z</time>
      </trkpt>
      <trkpt lat="46.15571" lon="5.58745">
        <ele>712.7</ele>
        <time>2020-05-24T09:40:15Z</time>
      </trkpt>
      <trkpt lat="46.15572" lon="5.58742">
        <ele>713.1</ele>
        <time>2020-05-24T09:40:17Z</time>
      </trkpt>
      <trkpt lat="46.15572" lon="5.58741">
        <ele>713.2</ele>
        <time>2020-05-24T09:40:18Z</time>
      </trkpt>
      <trkpt lat="46.15573" lon="5.5874">
        <ele>713.2</ele>
        <time>2020-05-24T09:40:20Z</time>
      </trkpt>
      <trkpt lat="46.15574" lon="5.58738">
        <ele>713.3</ele>
        <time>2020-05-24T09:40:22Z</time>
      </trkpt>
      <trkpt lat="46.15574" lon="5.58736">
        <ele>713.3</ele>
        <time>2020-05-24T09:40:24Z</time>
      </trkpt>
      <trkpt lat="46.15574" lon="5.58735">
        <ele>713.4</ele>
        <time>2020-05-24T09:40:25Z</time>
      </trkpt>
      <trkpt lat="46.15574" lon="5.58735">
        <ele>713.4</ele>
        <time>2020-05-24T09:40:26Z</time>
      </trkpt>
      <trkpt lat="46.15574" lon="5.58734">
        <ele>713.4</ele>
        <time>2020-05-24T09:40:28Z</time>
      </trkpt>
      <trkpt lat="46.15574" lon="5.58732">
        <ele>713.5</ele>
        <time>2020-05-24T09:40:30Z</time>
      </trkpt>
      <trkpt lat="46.15574" lon="5.58729">
        <ele>713.6</ele>
        <time>2020-05-24T09:40:32Z</time>
      </trkpt>
      <trkpt lat="46.15574" lon="5.58727">
        <ele>713.6</ele>
        <time>2020-05-24T09:40:33Z</time>
      </trkpt>
      <trkpt lat="46.15573" lon="5.58725">
        <ele>713.7</ele>
        <time>2020-05-24T09:40:35Z</time>
      </trkpt>
      <trkpt lat="46.15573" lon="5.58723">
        <ele>713.7</ele>
        <time>2020-05-24T09:40:36Z</time>
      </trkpt>
      <trkpt lat="46.15573" lon="5.58722">
        <ele>713.7</ele>
        <time>2020-05-24T09:40:37Z</time>
      </trkpt>
      <trkpt lat="46.15573" lon="5.58721">
        <ele>713.8</ele>
        <time>2020-05-24T09:40:38Z</time>
      </trkpt>
      <trkpt lat="46.15573" lon="5.58719">
        <ele>713.8</ele>
        <time>2020-05-24T09:40:40Z</time>
      </trkpt>
      <trkpt lat="46.15573" lon="5.58718">
        <ele>713.8</ele>
        <time>2020-05-24T09:40:41Z</time>
      </trkpt>
      <trkpt lat="46.15573" lon="5.58715">
        <ele>713.9</ele>
        <time>2020-05-24T09:40:43Z</time>
      </trkpt>
      <trkpt lat="46.15573" lon="5.58711">
        <ele>714</ele>
        <time>2020-05-24T09:40:45Z</time>
      </trkpt>
      <trkpt lat="46.15573" lon="5.58709">
        <ele>714</ele>
        <time>2020-05-24T09:40:46Z</time>
      </trkpt>
      <trkpt lat="46.15573" lon="5.58707">
        <ele>714.1</ele>
        <time>2020-05-24T09:40:47Z</time>
      </trkpt>
      <trkpt lat="46.15573" lon="5.58705">
        <ele>714.1</ele>
        <time>2020-05-24T09:40:49Z</time>
      </trkpt>
      <trkpt lat="46.15573" lon="5.587">
        <ele>714.3</ele>
        <time>2020-05-24T09:40:51Z</time>
      </trkpt>
      <trkpt lat="46.15573" lon="5.58699">
        <ele>714.3</ele>
        <time>2020-05-24T09:40:52Z</time>
      </trkpt>
      <trkpt lat="46.15573" lon="5.58697">
        <ele>714.3</ele>
        <time>2020-05-24T09:40:53Z</time>
      </trkpt>
      <trkpt lat="46.15572" lon="5.58694">
        <ele>714.4</ele>
        <time>2020-05-24T09:40:54Z</time>
      </trkpt>
      <trkpt lat="46.15573" lon="5.58692">
        <ele>714.5</ele>
        <time>2020-05-24T09:40:56Z</time>
      </trkpt>
      <trkpt lat="46.15573" lon="5.58689">
        <ele>714.6</ele>
        <time>2020-05-24T09:40:57Z</time>
      </trkpt>
      <trkpt lat="46.15572" lon="5.58686">
        <ele>714.7</ele>
        <time>2020-05-24T09:40:59Z</time>
      </trkpt>
      <trkpt lat="46.15572" lon="5.58684">
        <ele>714.8</ele>
        <time>2020-05-24T09:41:00Z</time>
      </trkpt>
      <trkpt lat="46.15572" lon="5.58682">
        <ele>714.9</ele>
        <time>2020-05-24T09:41:01Z</time>
      </trkpt>
      <trkpt lat="46.15571" lon="5.58679">
        <ele>715</ele>
        <time>2020-05-24T09:41:03Z</time>
      </trkpt>
      <trkpt lat="46.15571" lon="5.58677">
        <ele>715.1</ele>
        <time>2020-05-24T09:41:04Z</time>
      </trkpt>
      <trkpt lat="46.1557" lon="5.58675">
        <ele>715.2</ele>
        <time>2020-05-24T09:41:06Z</time>
      </trkpt>
      <trkpt lat="46.15569" lon="5.58673">
        <ele>715.3</ele>
        <time>2020-05-24T09:41:07Z</time>
      </trkpt>
      <trkpt lat="46.15569" lon="5.5867">
        <ele>715.5</ele>
        <time>2020-05-24T09:41:08Z</time>
      </trkpt>
      <trkpt lat="46.15568" lon="5.58667">
        <ele>715.7</ele>
        <time>2020-05-24T09:41:10Z</time>
      </trkpt>
      <trkpt lat="46.15568" lon="5.58665">
        <ele>715.8</ele>
        <time>2020-05-24T09:41:11Z</time>
      </trkpt>
      <trkpt lat="46.15568" lon="5.58661">
        <ele>716.1</ele>
        <time>2020-05-24T09:41:13Z</time>
      </trkpt>
      <trkpt lat="46.15568" lon="5.58659">
        <ele>716.2</ele>
        <time>2020-05-24T09:41:14Z</time>
      </trkpt>
      <trkpt lat="46.15567" lon="5.58655">
        <ele>716.4</ele>
        <time>2020-05-24T09:41:17Z</time>
      </trkpt>
      <trkpt lat="46.15567" lon="5.58652">
        <ele>716.6</ele>
        <time>2020-05-24T09:41:18Z</time>
      </trkpt>
      <trkpt lat="46.15567" lon="5.5865">
        <ele>716.7</ele>
        <time>2020-05-24T09:41:20Z</time>
      </trkpt>
      <trkpt lat="46.15567" lon="5.58648">
        <ele>716.9</ele>
        <time>2020-05-24T09:41:21Z</time>
      </trkpt>
      <trkpt lat="46.15567" lon="5.58646">
        <ele>717</ele>
        <time>2020-05-24T09:41:22Z</time>
      </trkpt>
      <trkpt lat="46.15567" lon="5.58644">
        <ele>717.1</ele>
        <time>2020-05-24T09:41:24Z</time>
      </trkpt>
      <trkpt lat="46.15567" lon="5.58643">
        <ele>717.2</ele>
        <time>2020-05-24T09:41:25Z</time>
      </trkpt>
      <trkpt lat="46.15566" lon="5.58641">
        <ele>717.3</ele>
        <time>2020-05-24T09:41:26Z</time>
      </trkpt>
      <trkpt lat="46.15566" lon="5.58639">
        <ele>717.4</ele>
        <time>2020-05-24T09:41:27Z</time>
      </trkpt>
      <trkpt lat="46.15566" lon="5.58637">
        <ele>717.5</ele>
        <time>2020-05-24T09:41:29Z</time>
      </trkpt>
      <trkpt lat="46.15565" lon="5.58635">
        <ele>717.6</ele>
        <time>2020-05-24T09:41:30Z</time>
      </trkpt>
      <trkpt lat="46.15565" lon="5.58632">
        <ele>717.8</ele>
        <time>2020-05-24T09:41:32Z</time>
      </trkpt>
      <trkpt lat="46.15565" lon="5.5863">
        <ele>717.8</ele>
        <time>2020-05-24T09:41:33Z</time>
      </trkpt>
      <trkpt lat="46.15565" lon="5.58628">
        <ele>718</ele>
        <time>2020-05-24T09:41:34Z</time>
      </trkpt>
      <trkpt lat="46.15564" lon="5.58624">
        <ele>718.1</ele>
        <time>2020-05-24T09:41:36Z</time>
      </trkpt>
      <trkpt lat="46.15564" lon="5.58621">
        <ele>718.3</ele>
        <time>2020-05-24T09:41:38Z</time>
      </trkpt>
      <trkpt lat="46.15563" lon="5.58617">
        <ele>718.5</ele>
        <time>2020-05-24T09:41:40Z</time>
      </trkpt>
      <trkpt lat="46.15563" lon="5.58616">
        <ele>718.5</ele>
        <time>2020-05-24T09:41:41Z</time>
      </trkpt>
      <trkpt lat="46.15562" lon="5.5861">
        <ele>718.8</ele>
        <time>2020-05-24T09:41:42Z</time>
      </trkpt>
      <trkpt lat="46.15562" lon="5.58608">
        <ele>718.9</ele>
        <time>2020-05-24T09:41:43Z</time>
      </trkpt>
      <trkpt lat="46.15561" lon="5.58604">
        <ele>719.1</ele>
        <time>2020-05-24T09:41:45Z</time>
      </trkpt>
      <trkpt lat="46.15561" lon="5.58602">
        <ele>719.2</ele>
        <time>2020-05-24T09:41:47Z</time>
      </trkpt>
      <trkpt lat="46.15561" lon="5.586">
        <ele>719.3</ele>
        <time>2020-05-24T09:41:48Z</time>
      </trkpt>
      <trkpt lat="46.1556" lon="5.58598">
        <ele>719.4</ele>
        <time>2020-05-24T09:41:49Z</time>
      </trkpt>
      <trkpt lat="46.1556" lon="5.58595">
        <ele>719.5</ele>
        <time>2020-05-24T09:41:51Z</time>
      </trkpt>
      <trkpt lat="46.1556" lon="5.58593">
        <ele>719.6</ele>
        <time>2020-05-24T09:41:52Z</time>
      </trkpt>
      <trkpt lat="46.15559" lon="5.58592">
        <ele>719.6</ele>
        <time>2020-05-24T09:41:53Z</time>
      </trkpt>
      <trkpt lat="46.15559" lon="5.5859">
        <ele>719.7</ele>
        <time>2020-05-24T09:41:54Z</time>
      </trkpt>
      <trkpt lat="46.15558" lon="5.58585">
        <ele>719.9</ele>
        <time>2020-05-24T09:41:56Z</time>
      </trkpt>
      <trkpt lat="46.15558" lon="5.58583">
        <ele>720</ele>
        <time>2020-05-24T09:41:57Z</time>
      </trkpt>
      <trkpt lat="46.15557" lon="5.58581">
        <ele>720.1</ele>
        <time>2020-05-24T09:41:58Z</time>
      </trkpt>
      <trkpt lat="46.15557" lon="5.58579">
        <ele>720.2</ele>
        <time>2020-05-24T09:41:59Z</time>
      </trkpt>
      <trkpt lat="46.15556" lon="5.58575">
        <ele>720.4</ele>
        <time>2020-05-24T09:42:01Z</time>
      </trkpt>
      <trkpt lat="46.15555" lon="5.58571">
        <ele>720.6</ele>
        <time>2020-05-24T09:42:02Z</time>
      </trkpt>
      <trkpt lat="46.15554" lon="5.58567">
        <ele>720.8</ele>
        <time>2020-05-24T09:42:04Z</time>
      </trkpt>
      <trkpt lat="46.15554" lon="5.58563">
        <ele>720.9</ele>
        <time>2020-05-24T09:42:05Z</time>
      </trkpt>
      <trkpt lat="46.15553" lon="5.58555">
        <ele>721.3</ele>
        <time>2020-05-24T09:42:07Z</time>
      </trkpt>
      <trkpt lat="46.15552" lon="5.58553">
        <ele>721.4</ele>
        <time>2020-05-24T09:42:09Z</time>
      </trkpt>
      <trkpt lat="46.15552" lon="5.58551">
        <ele>721.5</ele>
        <time>2020-05-24T09:42:10Z</time>
      </trkpt>
      <trkpt lat="46.15551" lon="5.58549">
        <ele>721.6</ele>
        <time>2020-05-24T09:42:11Z</time>
      </trkpt>
      <trkpt lat="46.15551" lon="5.58545">
        <ele>721.8</ele>
        <time>2020-05-24T09:42:13Z</time>
      </trkpt>
      <trkpt lat="46.1555" lon="5.58541">
        <ele>722.1</ele>
        <time>2020-05-24T09:42:14Z</time>
      </trkpt>
      <trkpt lat="46.15549" lon="5.58539">
        <ele>722.1</ele>
        <time>2020-05-24T09:42:15Z</time>
      </trkpt>
      <trkpt lat="46.15548" lon="5.58533">
        <ele>722.4</ele>
        <time>2020-05-24T09:42:17Z</time>
      </trkpt>
      <trkpt lat="46.15548" lon="5.58531">
        <ele>722.5</ele>
        <time>2020-05-24T09:42:18Z</time>
      </trkpt>
      <trkpt lat="46.15547" lon="5.58529">
        <ele>722.7</ele>
        <time>2020-05-24T09:42:19Z</time>
      </trkpt>
      <trkpt lat="46.15547" lon="5.58527">
        <ele>722.8</ele>
        <time>2020-05-24T09:42:20Z</time>
      </trkpt>
      <trkpt lat="46.15546" lon="5.58524">
        <ele>723</ele>
        <time>2020-05-24T09:42:22Z</time>
      </trkpt>
      <trkpt lat="46.15546" lon="5.58521">
        <ele>723.1</ele>
        <time>2020-05-24T09:42:23Z</time>
      </trkpt>
      <trkpt lat="46.15546" lon="5.58519">
        <ele>723.2</ele>
        <time>2020-05-24T09:42:25Z</time>
      </trkpt>
      <trkpt lat="46.15545" lon="5.58517">
        <ele>723.4</ele>
        <time>2020-05-24T09:42:26Z</time>
      </trkpt>
      <trkpt lat="46.15544" lon="5.58513">
        <ele>723.6</ele>
        <time>2020-05-24T09:42:28Z</time>
      </trkpt>
      <trkpt lat="46.15544" lon="5.5851">
        <ele>723.7</ele>
        <time>2020-05-24T09:42:29Z</time>
      </trkpt>
      <trkpt lat="46.15544" lon="5.58507">
        <ele>723.9</ele>
        <time>2020-05-24T09:42:31Z</time>
      </trkpt>
      <trkpt lat="46.15543" lon="5.58503">
        <ele>724.1</ele>
        <time>2020-05-24T09:42:32Z</time>
      </trkpt>
      <trkpt lat="46.15543" lon="5.58501">
        <ele>724.3</ele>
        <time>2020-05-24T09:42:33Z</time>
      </trkpt>
      <trkpt lat="46.15543" lon="5.58499">
        <ele>724.3</ele>
        <time>2020-05-24T09:42:34Z</time>
      </trkpt>
      <trkpt lat="46.15543" lon="5.58498">
        <ele>724.4</ele>
        <time>2020-05-24T09:42:35Z</time>
      </trkpt>
      <trkpt lat="46.15542" lon="5.58496">
        <ele>724.5</ele>
        <time>2020-05-24T09:42:36Z</time>
      </trkpt>
      <trkpt lat="46.15542" lon="5.58493">
        <ele>724.7</ele>
        <time>2020-05-24T09:42:37Z</time>
      </trkpt>
      <trkpt lat="46.15541" lon="5.58487">
        <ele>725</ele>
        <time>2020-05-24T09:42:39Z</time>
      </trkpt>
      <trkpt lat="46.15541" lon="5.58485">
        <ele>725.1</ele>
        <time>2020-05-24T09:42:40Z</time>
      </trkpt>
      <trkpt lat="46.15541" lon="5.58483">
        <ele>725.2</ele>
        <time>2020-05-24T09:42:41Z</time>
      </trkpt>
      <trkpt lat="46.1554" lon="5.5848">
        <ele>725.3</ele>
        <time>2020-05-24T09:42:42Z</time>
      </trkpt>
      <trkpt lat="46.15539" lon="5.58475">
        <ele>725.5</ele>
        <time>2020-05-24T09:42:44Z</time>
      </trkpt>
      <trkpt lat="46.15539" lon="5.58472">
        <ele>725.7</ele>
        <time>2020-05-24T09:42:45Z</time>
      </trkpt>
      <trkpt lat="46.15538" lon="5.58468">
        <ele>725.8</ele>
        <time>2020-05-24T09:42:47Z</time>
      </trkpt>
      <trkpt lat="46.15537" lon="5.58465">
        <ele>725.9</ele>
        <time>2020-05-24T09:42:48Z</time>
      </trkpt>
      <trkpt lat="46.15536" lon="5.58463">
        <ele>726.1</ele>
        <time>2020-05-24T09:42:50Z</time>
      </trkpt>
      <trkpt lat="46.15536" lon="5.58461">
        <ele>726.1</ele>
        <time>2020-05-24T09:42:51Z</time>
      </trkpt>
      <trkpt lat="46.15535" lon="5.58458">
        <ele>726.2</ele>
        <time>2020-05-24T09:42:52Z</time>
      </trkpt>
      <trkpt lat="46.15533" lon="5.58453">
        <ele>726.5</ele>
        <time>2020-05-24T09:42:54Z</time>
      </trkpt>
      <trkpt lat="46.15533" lon="5.58451">
        <ele>726.6</ele>
        <time>2020-05-24T09:42:56Z</time>
      </trkpt>
      <trkpt lat="46.15532" lon="5.58449">
        <ele>726.6</ele>
        <time>2020-05-24T09:42:57Z</time>
      </trkpt>
      <trkpt lat="46.1553" lon="5.58446">
        <ele>726.8</ele>
        <time>2020-05-24T09:42:59Z</time>
      </trkpt>
      <trkpt lat="46.15529" lon="5.58445">
        <ele>726.9</ele>
        <time>2020-05-24T09:43:00Z</time>
      </trkpt>
      <trkpt lat="46.15525" lon="5.5844">
        <ele>727.2</ele>
        <time>2020-05-24T09:43:02Z</time>
      </trkpt>
      <trkpt lat="46.15524" lon="5.58439">
        <ele>727.2</ele>
        <time>2020-05-24T09:43:03Z</time>
      </trkpt>
      <trkpt lat="46.15523" lon="5.58439">
        <ele>727.3</ele>
        <time>2020-05-24T09:43:04Z</time>
      </trkpt>
      <trkpt lat="46.15522" lon="5.58438">
        <ele>727.4</ele>
        <time>2020-05-24T09:43:05Z</time>
      </trkpt>
      <trkpt lat="46.1552" lon="5.58436">
        <ele>727.6</ele>
        <time>2020-05-24T09:43:07Z</time>
      </trkpt>
      <trkpt lat="46.1552" lon="5.58435">
        <ele>727.6</ele>
        <time>2020-05-24T09:43:08Z</time>
      </trkpt>
      <trkpt lat="46.15519" lon="5.58434">
        <ele>727.6</ele>
        <time>2020-05-24T09:43:09Z</time>
      </trkpt>
      <trkpt lat="46.15518" lon="5.58433">
        <ele>727.7</ele>
        <time>2020-05-24T09:43:11Z</time>
      </trkpt>
      <trkpt lat="46.15517" lon="5.58432">
        <ele>727.8</ele>
        <time>2020-05-24T09:43:12Z</time>
      </trkpt>
      <trkpt lat="46.15516" lon="5.58431">
        <ele>727.9</ele>
        <time>2020-05-24T09:43:13Z</time>
      </trkpt>
      <trkpt lat="46.15515" lon="5.5843">
        <ele>727.9</ele>
        <time>2020-05-24T09:43:15Z</time>
      </trkpt>
      <trkpt lat="46.15515" lon="5.58429">
        <ele>728</ele>
        <time>2020-05-24T09:43:16Z</time>
      </trkpt>
      <trkpt lat="46.15513" lon="5.58427">
        <ele>728.1</ele>
        <time>2020-05-24T09:43:18Z</time>
      </trkpt>
      <trkpt lat="46.15513" lon="5.58426">
        <ele>728.1</ele>
        <time>2020-05-24T09:43:20Z</time>
      </trkpt>
      <trkpt lat="46.15513" lon="5.58426">
        <ele>728.1</ele>
        <time>2020-05-24T09:43:22Z</time>
      </trkpt>
      <trkpt lat="46.15508" lon="5.58413">
        <ele>728.7</ele>
        <time>2020-05-24T09:44:03Z</time>
      </trkpt>
      <trkpt lat="46.15508" lon="5.58413">
        <ele>728.7</ele>
        <time>2020-05-24T09:44:04Z</time>
      </trkpt>
      <trkpt lat="46.15507" lon="5.58412">
        <ele>728.7</ele>
        <time>2020-05-24T09:44:06Z</time>
      </trkpt>
      <trkpt lat="46.15507" lon="5.58412">
        <ele>728.8</ele>
        <time>2020-05-24T09:44:07Z</time>
      </trkpt>
      <trkpt lat="46.15507" lon="5.58412">
        <ele>728.8</ele>
        <time>2020-05-24T09:44:09Z</time>
      </trkpt>
      <trkpt lat="46.15507" lon="5.58411">
        <ele>728.8</ele>
        <time>2020-05-24T09:44:10Z</time>
      </trkpt>
      <trkpt lat="46.15507" lon="5.5841">
        <ele>728.8</ele>
        <time>2020-05-24T09:44:11Z</time>
      </trkpt>
      <trkpt lat="46.15507" lon="5.5841">
        <ele>728.9</ele>
        <time>2020-05-24T09:44:13Z</time>
      </trkpt>
      <trkpt lat="46.15507" lon="5.5841">
        <ele>728.9</ele>
        <time>2020-05-24T09:44:15Z</time>
      </trkpt>
      <trkpt lat="46.15507" lon="5.5841">
        <ele>728.9</ele>
        <time>2020-05-24T09:44:17Z</time>
      </trkpt>
      <trkpt lat="46.15507" lon="5.5841">
        <ele>728.9</ele>
        <time>2020-05-24T09:44:18Z</time>
      </trkpt>
      <trkpt lat="46.15507" lon="5.5841">
        <ele>728.9</ele>
        <time>2020-05-24T09:44:20Z</time>
      </trkpt>
      <trkpt lat="46.15507" lon="5.5841">
        <ele>728.9</ele>
        <time>2020-05-24T09:44:21Z</time>
      </trkpt>
      <trkpt lat="46.15507" lon="5.5841">
        <ele>728.9</ele>
        <time>2020-05-24T09:44:23Z</time>
      </trkpt>
      <trkpt lat="46.15505" lon="5.58413">
        <ele>729</ele>
        <time>2020-05-24T09:45:47Z</time>
      </trkpt>
      <trkpt lat="46.15504" lon="5.58413">
        <ele>729.1</ele>
        <time>2020-05-24T09:45:49Z</time>
      </trkpt>
      <trkpt lat="46.15504" lon="5.58413">
        <ele>729.1</ele>
        <time>2020-05-24T09:45:51Z</time>
      </trkpt>
      <trkpt lat="46.15504" lon="5.58412">
        <ele>729.1</ele>
        <time>2020-05-24T09:45:53Z</time>
      </trkpt>
      <trkpt lat="46.15504" lon="5.58412">
        <ele>729.1</ele>
        <time>2020-05-24T09:45:54Z</time>
      </trkpt>
      <trkpt lat="46.15504" lon="5.58412">
        <ele>729.1</ele>
        <time>2020-05-24T09:45:55Z</time>
      </trkpt>
      <trkpt lat="46.15504" lon="5.58412">
        <ele>729.2</ele>
        <time>2020-05-24T09:45:57Z</time>
      </trkpt>
      <trkpt lat="46.15504" lon="5.58412">
        <ele>729.2</ele>
        <time>2020-05-24T09:45:58Z</time>
      </trkpt>
      <trkpt lat="46.15504" lon="5.58412">
        <ele>729.2</ele>
        <time>2020-05-24T09:45:59Z</time>
      </trkpt>
      <trkpt lat="46.15502" lon="5.58407">
        <ele>729.4</ele>
        <time>2020-05-24T09:47:36Z</time>
      </trkpt>
      <trkpt lat="46.15502" lon="5.58406">
        <ele>729.4</ele>
        <time>2020-05-24T09:47:38Z</time>
      </trkpt>
      <trkpt lat="46.15502" lon="5.58406">
        <ele>729.4</ele>
        <time>2020-05-24T09:47:39Z</time>
      </trkpt>
      <trkpt lat="46.15502" lon="5.58406">
        <ele>729.4</ele>
        <time>2020-05-24T09:47:40Z</time>
      </trkpt>
      <trkpt lat="46.15502" lon="5.58406">
        <ele>729.4</ele>
        <time>2020-05-24T09:47:42Z</time>
      </trkpt>
      <trkpt lat="46.15502" lon="5.58406">
        <ele>729.4</ele>
        <time>2020-05-24T09:47:44Z</time>
      </trkpt>
      <trkpt lat="46.15501" lon="5.58406">
        <ele>729.5</ele>
        <time>2020-05-24T09:47:45Z</time>
      </trkpt>
      <trkpt lat="46.15501" lon="5.58407">
        <ele>729.5</ele>
        <time>2020-05-24T09:47:47Z</time>
      </trkpt>
      <trkpt lat="46.15502" lon="5.58408">
        <ele>729.5</ele>
        <time>2020-05-24T09:47:49Z</time>
      </trkpt>
      <trkpt lat="46.15502" lon="5.58408">
        <ele>729.6</ele>
        <time>2020-05-24T09:47:50Z</time>
      </trkpt>
      <trkpt lat="46.15503" lon="5.58409">
        <ele>729.6</ele>
        <time>2020-05-24T09:47:52Z</time>
      </trkpt>
      <trkpt lat="46.15503" lon="5.58409">
        <ele>729.6</ele>
        <time>2020-05-24T09:47:53Z</time>
      </trkpt>
      <trkpt lat="46.15503" lon="5.58409">
        <ele>729.6</ele>
        <time>2020-05-24T09:47:55Z</time>
      </trkpt>
      <trkpt lat="46.15503" lon="5.58409">
        <ele>729.6</ele>
        <time>2020-05-24T09:47:57Z</time>
      </trkpt>
      <trkpt lat="46.15503" lon="5.58409">
        <ele>729.6</ele>
        <time>2020-05-24T09:47:59Z</time>
      </trkpt>
      <trkpt lat="46.15503" lon="5.58409">
        <ele>729.6</ele>
        <time>2020-05-24T09:48:01Z</time>
      </trkpt>
      <trkpt lat="46.15505" lon="5.5841">
        <ele>729.7</ele>
        <time>2020-05-24T09:48:06Z</time>
      </trkpt>
      <trkpt lat="46.15505" lon="5.5841">
        <ele>729.7</ele>
        <time>2020-05-24T09:48:07Z</time>
      </trkpt>
      <trkpt lat="46.15505" lon="5.5841">
        <ele>729.7</ele>
        <time>2020-05-24T09:48:09Z</time>
      </trkpt>
      <trkpt lat="46.15505" lon="5.5841">
        <ele>729.7</ele>
        <time>2020-05-24T09:48:11Z</time>
      </trkpt>
      <trkpt lat="46.15505" lon="5.5841">
        <ele>729.7</ele>
        <time>2020-05-24T09:48:13Z</time>
      </trkpt>
      <trkpt lat="46.15505" lon="5.5841">
        <ele>729.7</ele>
        <time>2020-05-24T09:48:15Z</time>
      </trkpt>
      <trkpt lat="46.15505" lon="5.5841">
        <ele>729.7</ele>
        <time>2020-05-24T09:48:17Z</time>
      </trkpt>
      <trkpt lat="46.15504" lon="5.5841">
        <ele>729.8</ele>
        <time>2020-05-24T09:48:18Z</time>
      </trkpt>
      <trkpt lat="46.15504" lon="5.58409">
        <ele>729.8</ele>
        <time>2020-05-24T09:48:19Z</time>
      </trkpt>
      <trkpt lat="46.15503" lon="5.58407">
        <ele>729.9</ele>
        <time>2020-05-24T09:48:21Z</time>
      </trkpt>
      <trkpt lat="46.15503" lon="5.58407">
        <ele>729.9</ele>
        <time>2020-05-24T09:48:22Z</time>
      </trkpt>
      <trkpt lat="46.15503" lon="5.58407">
        <ele>729.9</ele>
        <time>2020-05-24T09:48:23Z</time>
      </trkpt>
      <trkpt lat="46.15503" lon="5.58407">
        <ele>729.9</ele>
        <time>2020-05-24T09:48:25Z</time>
      </trkpt>
      <trkpt lat="46.15503" lon="5.58407">
        <ele>729.9</ele>
        <time>2020-05-24T09:48:26Z</time>
      </trkpt>
      <trkpt lat="46.15503" lon="5.58407">
        <ele>729.9</ele>
        <time>2020-05-24T09:48:28Z</time>
      </trkpt>
      <trkpt lat="46.15502" lon="5.58408">
        <ele>729.9</ele>
        <time>2020-05-24T09:48:29Z</time>
      </trkpt>
      <trkpt lat="46.15502" lon="5.58409">
        <ele>729.9</ele>
        <time>2020-05-24T09:48:31Z</time>
      </trkpt>
      <trkpt lat="46.15503" lon="5.58409">
        <ele>730</ele>
        <time>2020-05-24T09:48:32Z</time>
      </trkpt>
      <trkpt lat="46.15502" lon="5.5841">
        <ele>730</ele>
        <time>2020-05-24T09:48:42Z</time>
      </trkpt>
      <trkpt lat="46.15502" lon="5.5841">
        <ele>730</ele>
        <time>2020-05-24T09:48:43Z</time>
      </trkpt>
      <trkpt lat="46.15502" lon="5.5841">
        <ele>730</ele>
        <time>2020-05-24T09:48:45Z</time>
      </trkpt>
      <trkpt lat="46.15502" lon="5.5841">
        <ele>730</ele>
        <time>2020-05-24T09:48:46Z</time>
      </trkpt>
      <trkpt lat="46.15501" lon="5.5841">
        <ele>730.1</ele>
        <time>2020-05-24T09:48:48Z</time>
      </trkpt>
      <trkpt lat="46.15501" lon="5.5841">
        <ele>730.1</ele>
        <time>2020-05-24T09:48:49Z</time>
      </trkpt>
      <trkpt lat="46.15501" lon="5.5841">
        <ele>730.1</ele>
        <time>2020-05-24T09:48:51Z</time>
      </trkpt>
      <trkpt lat="46.15501" lon="5.5841">
        <ele>730.1</ele>
        <time>2020-05-24T09:48:52Z</time>
      </trkpt>
      <trkpt lat="46.15501" lon="5.58411">
        <ele>730.1</ele>
        <time>2020-05-24T09:48:54Z</time>
      </trkpt>
      <trkpt lat="46.15501" lon="5.58411">
        <ele>730.2</ele>
        <time>2020-05-24T09:48:56Z</time>
      </trkpt>
      <trkpt lat="46.15501" lon="5.58411">
        <ele>730.2</ele>
        <time>2020-05-24T09:48:57Z</time>
      </trkpt>
      <trkpt lat="46.15502" lon="5.58411">
        <ele>730.2</ele>
        <time>2020-05-24T09:48:59Z</time>
      </trkpt>
      <trkpt lat="46.15504" lon="5.58411">
        <ele>730.3</ele>
        <time>2020-05-24T09:49:05Z</time>
      </trkpt>
      <trkpt lat="46.15505" lon="5.5841">
        <ele>730.4</ele>
        <time>2020-05-24T09:49:07Z</time>
      </trkpt>
      <trkpt lat="46.15505" lon="5.5841">
        <ele>730.4</ele>
        <time>2020-05-24T09:49:08Z</time>
      </trkpt>
      <trkpt lat="46.15505" lon="5.5841">
        <ele>730.4</ele>
        <time>2020-05-24T09:49:09Z</time>
      </trkpt>
      <trkpt lat="46.15505" lon="5.58409">
        <ele>730.4</ele>
        <time>2020-05-24T09:49:11Z</time>
      </trkpt>
      <trkpt lat="46.15505" lon="5.58409">
        <ele>730.4</ele>
        <time>2020-05-24T09:49:12Z</time>
      </trkpt>
      <trkpt lat="46.15505" lon="5.58409">
        <ele>730.4</ele>
        <time>2020-05-24T09:49:14Z</time>
      </trkpt>
      <trkpt lat="46.15505" lon="5.58409">
        <ele>730.4</ele>
        <time>2020-05-24T09:49:15Z</time>
      </trkpt>
      <trkpt lat="46.15506" lon="5.58411">
        <ele>730.4</ele>
        <time>2020-05-24T09:49:17Z</time>
      </trkpt>
      <trkpt lat="46.15506" lon="5.58409">
        <ele>730.5</ele>
        <time>2020-05-24T09:50:12Z</time>
      </trkpt>
      <trkpt lat="46.15506" lon="5.58408">
        <ele>730.5</ele>
        <time>2020-05-24T09:50:14Z</time>
      </trkpt>
      <trkpt lat="46.15506" lon="5.58408">
        <ele>730.6</ele>
        <time>2020-05-24T09:50:16Z</time>
      </trkpt>
      <trkpt lat="46.15505" lon="5.58408">
        <ele>730.6</ele>
        <time>2020-05-24T09:50:18Z</time>
      </trkpt>
      <trkpt lat="46.15505" lon="5.58407">
        <ele>730.6</ele>
        <time>2020-05-24T09:50:19Z</time>
      </trkpt>
      <trkpt lat="46.15505" lon="5.58407">
        <ele>730.7</ele>
        <time>2020-05-24T09:50:21Z</time>
      </trkpt>
      <trkpt lat="46.15505" lon="5.58407">
        <ele>730.7</ele>
        <time>2020-05-24T09:50:23Z</time>
      </trkpt>
      <trkpt lat="46.15505" lon="5.58407">
        <ele>730.7</ele>
        <time>2020-05-24T09:50:25Z</time>
      </trkpt>
      <trkpt lat="46.15505" lon="5.58407">
        <ele>730.7</ele>
        <time>2020-05-24T09:50:27Z</time>
      </trkpt>
      <trkpt lat="46.15505" lon="5.58407">
        <ele>730.7</ele>
        <time>2020-05-24T09:50:28Z</time>
      </trkpt>
      <trkpt lat="46.15502" lon="5.58411">
        <ele>730.9</ele>
        <time>2020-05-24T09:52:21Z</time>
      </trkpt>
      <trkpt lat="46.15501" lon="5.5841">
        <ele>731</ele>
        <time>2020-05-24T09:52:22Z</time>
      </trkpt>
      <trkpt lat="46.155" lon="5.58408">
        <ele>731.1</ele>
        <time>2020-05-24T09:52:24Z</time>
      </trkpt>
      <trkpt lat="46.155" lon="5.58408">
        <ele>731.1</ele>
        <time>2020-05-24T09:52:25Z</time>
      </trkpt>
      <trkpt lat="46.155" lon="5.58408">
        <ele>731.1</ele>
        <time>2020-05-24T09:52:27Z</time>
      </trkpt>
      <trkpt lat="46.15499" lon="5.58407">
        <ele>731.2</ele>
        <time>2020-05-24T09:52:28Z</time>
      </trkpt>
      <trkpt lat="46.15498" lon="5.58405">
        <ele>731.3</ele>
        <time>2020-05-24T09:52:30Z</time>
      </trkpt>
      <trkpt lat="46.15496" lon="5.58404">
        <ele>731.4</ele>
        <time>2020-05-24T09:52:31Z</time>
      </trkpt>
      <trkpt lat="46.15495" lon="5.58404">
        <ele>731.5</ele>
        <time>2020-05-24T09:52:32Z</time>
      </trkpt>
      <trkpt lat="46.15493" lon="5.58403">
        <ele>731.7</ele>
        <time>2020-05-24T09:52:33Z</time>
      </trkpt>
      <trkpt lat="46.15489" lon="5.58402">
        <ele>732.1</ele>
        <time>2020-05-24T09:52:35Z</time>
      </trkpt>
      <trkpt lat="46.15487" lon="5.58402">
        <ele>732.3</ele>
        <time>2020-05-24T09:52:36Z</time>
      </trkpt>
      <trkpt lat="46.15485" lon="5.58401">
        <ele>732.6</ele>
        <time>2020-05-24T09:52:38Z</time>
      </trkpt>
      <trkpt lat="46.15482" lon="5.584">
        <ele>732.7</ele>
        <time>2020-05-24T09:52:39Z</time>
      </trkpt>
      <trkpt lat="46.15479" lon="5.58399">
        <ele>733</ele>
        <time>2020-05-24T09:52:41Z</time>
      </trkpt>
      <trkpt lat="46.15477" lon="5.58398">
        <ele>733.2</ele>
        <time>2020-05-24T09:52:42Z</time>
      </trkpt>
      <trkpt lat="46.15474" lon="5.58396">
        <ele>733.5</ele>
        <time>2020-05-24T09:52:44Z</time>
      </trkpt>
      <trkpt lat="46.1547" lon="5.58392">
        <ele>733.7</ele>
        <time>2020-05-24T09:52:45Z</time>
      </trkpt>
      <trkpt lat="46.15468" lon="5.58391">
        <ele>733.9</ele>
        <time>2020-05-24T09:52:46Z</time>
      </trkpt>
      <trkpt lat="46.15465" lon="5.58389">
        <ele>734</ele>
        <time>2020-05-24T09:52:48Z</time>
      </trkpt>
      <trkpt lat="46.15464" lon="5.58388">
        <ele>734.1</ele>
        <time>2020-05-24T09:52:49Z</time>
      </trkpt>
      <trkpt lat="46.15462" lon="5.58387">
        <ele>734.2</ele>
        <time>2020-05-24T09:52:51Z</time>
      </trkpt>
      <trkpt lat="46.15459" lon="5.58385">
        <ele>734.4</ele>
        <time>2020-05-24T09:52:52Z</time>
      </trkpt>
      <trkpt lat="46.15457" lon="5.58383">
        <ele>734.6</ele>
        <time>2020-05-24T09:52:54Z</time>
      </trkpt>
      <trkpt lat="46.15454" lon="5.58382">
        <ele>734.8</ele>
        <time>2020-05-24T09:52:56Z</time>
      </trkpt>
      <trkpt lat="46.15453" lon="5.58381">
        <ele>734.8</ele>
        <time>2020-05-24T09:52:57Z</time>
      </trkpt>
      <trkpt lat="46.15451" lon="5.5838">
        <ele>735</ele>
        <time>2020-05-24T09:52:58Z</time>
      </trkpt>
      <trkpt lat="46.15449" lon="5.58379">
        <ele>735.1</ele>
        <time>2020-05-24T09:52:59Z</time>
      </trkpt>
      <trkpt lat="46.15445" lon="5.58377">
        <ele>735.4</ele>
        <time>2020-05-24T09:53:01Z</time>
      </trkpt>
      <trkpt lat="46.15444" lon="5.58376">
        <ele>735.4</ele>
        <time>2020-05-24T09:53:02Z</time>
      </trkpt>
      <trkpt lat="46.15442" lon="5.58376">
        <ele>735.5</ele>
        <time>2020-05-24T09:53:03Z</time>
      </trkpt>
      <trkpt lat="46.1544" lon="5.58375">
        <ele>735.7</ele>
        <time>2020-05-24T09:53:04Z</time>
      </trkpt>
      <trkpt lat="46.15437" lon="5.58373">
        <ele>735.9</ele>
        <time>2020-05-24T09:53:06Z</time>
      </trkpt>
      <trkpt lat="46.15433" lon="5.5837">
        <ele>736.2</ele>
        <time>2020-05-24T09:53:08Z</time>
      </trkpt>
      <trkpt lat="46.15431" lon="5.58369">
        <ele>736.3</ele>
        <time>2020-05-24T09:53:09Z</time>
      </trkpt>
      <trkpt lat="46.15429" lon="5.58368">
        <ele>736.4</ele>
        <time>2020-05-24T09:53:10Z</time>
      </trkpt>
      <trkpt lat="46.15426" lon="5.58367">
        <ele>736.5</ele>
        <time>2020-05-24T09:53:12Z</time>
      </trkpt>
      <trkpt lat="46.15426" lon="5.58366">
        <ele>736.6</ele>
        <time>2020-05-24T09:53:13Z</time>
      </trkpt>
      <trkpt lat="46.15422" lon="5.58365">
        <ele>736.8</ele>
        <time>2020-05-24T09:53:15Z</time>
      </trkpt>
      <trkpt lat="46.15421" lon="5.58364">
        <ele>736.9</ele>
        <time>2020-05-24T09:53:16Z</time>
      </trkpt>
      <trkpt lat="46.15419" lon="5.58363">
        <ele>737</ele>
        <time>2020-05-24T09:53:17Z</time>
      </trkpt>
      <trkpt lat="46.15416" lon="5.58362">
        <ele>737.2</ele>
        <time>2020-05-24T09:53:19Z</time>
      </trkpt>
      <trkpt lat="46.15413" lon="5.58361">
        <ele>737.4</ele>
        <time>2020-05-24T09:53:20Z</time>
      </trkpt>
      <trkpt lat="46.15412" lon="5.5836">
        <ele>737.5</ele>
        <time>2020-05-24T09:53:21Z</time>
      </trkpt>
      <trkpt lat="46.1541" lon="5.58359">
        <ele>737.8</ele>
        <time>2020-05-24T09:53:22Z</time>
      </trkpt>
      <trkpt lat="46.15408" lon="5.58359">
        <ele>737.9</ele>
        <time>2020-05-24T09:53:23Z</time>
      </trkpt>
      <trkpt lat="46.15406" lon="5.58358">
        <ele>738.1</ele>
        <time>2020-05-24T09:53:25Z</time>
      </trkpt>
      <trkpt lat="46.15404" lon="5.58357">
        <ele>738.3</ele>
        <time>2020-05-24T09:53:26Z</time>
      </trkpt>
      <trkpt lat="46.15403" lon="5.58356">
        <ele>738.4</ele>
        <time>2020-05-24T09:53:27Z</time>
      </trkpt>
      <trkpt lat="46.15401" lon="5.58355">
        <ele>738.6</ele>
        <time>2020-05-24T09:53:28Z</time>
      </trkpt>
      <trkpt lat="46.15399" lon="5.58354">
        <ele>738.8</ele>
        <time>2020-05-24T09:53:30Z</time>
      </trkpt>
      <trkpt lat="46.15396" lon="5.58353">
        <ele>739.1</ele>
        <time>2020-05-24T09:53:31Z</time>
      </trkpt>
      <trkpt lat="46.15395" lon="5.58352">
        <ele>739.1</ele>
        <time>2020-05-24T09:53:32Z</time>
      </trkpt>
      <trkpt lat="46.15392" lon="5.5835">
        <ele>739.4</ele>
        <time>2020-05-24T09:53:33Z</time>
      </trkpt>
      <trkpt lat="46.1539" lon="5.5835">
        <ele>739.7</ele>
        <time>2020-05-24T09:53:34Z</time>
      </trkpt>
      <trkpt lat="46.15388" lon="5.58349">
        <ele>739.8</ele>
        <time>2020-05-24T09:53:36Z</time>
      </trkpt>
      <trkpt lat="46.15387" lon="5.58349">
        <ele>739.9</ele>
        <time>2020-05-24T09:53:37Z</time>
      </trkpt>
      <trkpt lat="46.15386" lon="5.58348">
        <ele>740</ele>
        <time>2020-05-24T09:53:38Z</time>
      </trkpt>
      <trkpt lat="46.15383" lon="5.58348">
        <ele>740.2</ele>
        <time>2020-05-24T09:53:39Z</time>
      </trkpt>
      <trkpt lat="46.1538" lon="5.58348">
        <ele>740.4</ele>
        <time>2020-05-24T09:53:41Z</time>
      </trkpt>
      <trkpt lat="46.15377" lon="5.58348">
        <ele>741.1</ele>
        <time>2020-05-24T09:53:42Z</time>
      </trkpt>
      <trkpt lat="46.15376" lon="5.58349">
        <ele>741.2</ele>
        <time>2020-05-24T09:53:43Z</time>
      </trkpt>
      <trkpt lat="46.15374" lon="5.58349">
        <ele>741.4</ele>
        <time>2020-05-24T09:53:44Z</time>
      </trkpt>
      <trkpt lat="46.15371" lon="5.5835">
        <ele>741.7</ele>
        <time>2020-05-24T09:53:46Z</time>
      </trkpt>
      <trkpt lat="46.15369" lon="5.58351">
        <ele>741.9</ele>
        <time>2020-05-24T09:53:47Z</time>
      </trkpt>
      <trkpt lat="46.15366" lon="5.58352">
        <ele>742.2</ele>
        <time>2020-05-24T09:53:49Z</time>
      </trkpt>
      <trkpt lat="46.15364" lon="5.58354">
        <ele>742.5</ele>
        <time>2020-05-24T09:53:50Z</time>
      </trkpt>
      <trkpt lat="46.15363" lon="5.58355">
        <ele>742.6</ele>
        <time>2020-05-24T09:53:51Z</time>
      </trkpt>
      <trkpt lat="46.1536" lon="5.58356">
        <ele>742.9</ele>
        <time>2020-05-24T09:53:53Z</time>
      </trkpt>
      <trkpt lat="46.15359" lon="5.58357">
        <ele>743</ele>
        <time>2020-05-24T09:53:54Z</time>
      </trkpt>
      <trkpt lat="46.15356" lon="5.58357">
        <ele>743.2</ele>
        <time>2020-05-24T09:53:55Z</time>
      </trkpt>
      <trkpt lat="46.15353" lon="5.58358">
        <ele>743.6</ele>
        <time>2020-05-24T09:53:57Z</time>
      </trkpt>
      <trkpt lat="46.15349" lon="5.58361">
        <ele>744</ele>
        <time>2020-05-24T09:53:58Z</time>
      </trkpt>
      <trkpt lat="46.15346" lon="5.58363">
        <ele>744.4</ele>
        <time>2020-05-24T09:54:00Z</time>
      </trkpt>
      <trkpt lat="46.15345" lon="5.58363">
        <ele>744.5</ele>
        <time>2020-05-24T09:54:01Z</time>
      </trkpt>
      <trkpt lat="46.15343" lon="5.58364">
        <ele>744.7</ele>
        <time>2020-05-24T09:54:03Z</time>
      </trkpt>
      <trkpt lat="46.15342" lon="5.58365">
        <ele>744.9</ele>
        <time>2020-05-24T09:54:04Z</time>
      </trkpt>
      <trkpt lat="46.1534" lon="5.58366">
        <ele>745.1</ele>
        <time>2020-05-24T09:54:05Z</time>
      </trkpt>
      <trkpt lat="46.15339" lon="5.58367">
        <ele>745.3</ele>
        <time>2020-05-24T09:54:06Z</time>
      </trkpt>
      <trkpt lat="46.15337" lon="5.58368">
        <ele>745.5</ele>
        <time>2020-05-24T09:54:07Z</time>
      </trkpt>
      <trkpt lat="46.15335" lon="5.58369">
        <ele>745.8</ele>
        <time>2020-05-24T09:54:08Z</time>
      </trkpt>
      <trkpt lat="46.15333" lon="5.58372">
        <ele>746.2</ele>
        <time>2020-05-24T09:54:10Z</time>
      </trkpt>
      <trkpt lat="46.15332" lon="5.58373">
        <ele>746.3</ele>
        <time>2020-05-24T09:54:11Z</time>
      </trkpt>
      <trkpt lat="46.1533" lon="5.58375">
        <ele>746.7</ele>
        <time>2020-05-24T09:54:13Z</time>
      </trkpt>
      <trkpt lat="46.15329" lon="5.58376">
        <ele>746.8</ele>
        <time>2020-05-24T09:54:14Z</time>
      </trkpt>
      <trkpt lat="46.15326" lon="5.58379">
        <ele>747.3</ele>
        <time>2020-05-24T09:54:15Z</time>
      </trkpt>
      <trkpt lat="46.15326" lon="5.5838">
        <ele>747.4</ele>
        <time>2020-05-24T09:54:16Z</time>
      </trkpt>
      <trkpt lat="46.15325" lon="5.58381">
        <ele>747.6</ele>
        <time>2020-05-24T09:54:17Z</time>
      </trkpt>
      <trkpt lat="46.15323" lon="5.58383">
        <ele>747.9</ele>
        <time>2020-05-24T09:54:19Z</time>
      </trkpt>
      <trkpt lat="46.15322" lon="5.58385">
        <ele>748.2</ele>
        <time>2020-05-24T09:54:20Z</time>
      </trkpt>
      <trkpt lat="46.15321" lon="5.58386">
        <ele>748.3</ele>
        <time>2020-05-24T09:54:21Z</time>
      </trkpt>
      <trkpt lat="46.1532" lon="5.58388">
        <ele>748.6</ele>
        <time>2020-05-24T09:54:22Z</time>
      </trkpt>
      <trkpt lat="46.15318" lon="5.5839">
        <ele>748.9</ele>
        <time>2020-05-24T09:54:24Z</time>
      </trkpt>
      <trkpt lat="46.15316" lon="5.58393">
        <ele>749.4</ele>
        <time>2020-05-24T09:54:25Z</time>
      </trkpt>
      <trkpt lat="46.15315" lon="5.58393">
        <ele>749.5</ele>
        <time>2020-05-24T09:54:26Z</time>
      </trkpt>
      <trkpt lat="46.15314" lon="5.58395">
        <ele>749.7</ele>
        <time>2020-05-24T09:54:27Z</time>
      </trkpt>
      <trkpt lat="46.15312" lon="5.58396">
        <ele>750</ele>
        <time>2020-05-24T09:54:28Z</time>
      </trkpt>
      <trkpt lat="46.1531" lon="5.58399">
        <ele>750.5</ele>
        <time>2020-05-24T09:54:30Z</time>
      </trkpt>
      <trkpt lat="46.15309" lon="5.58399">
        <ele>750.7</ele>
        <time>2020-05-24T09:54:31Z</time>
      </trkpt>
      <trkpt lat="46.15306" lon="5.584">
        <ele>751.1</ele>
        <time>2020-05-24T09:54:32Z</time>
      </trkpt>
      <trkpt lat="46.15305" lon="5.58401">
        <ele>751.3</ele>
        <time>2020-05-24T09:54:33Z</time>
      </trkpt>
      <trkpt lat="46.15301" lon="5.58402">
        <ele>752</ele>
        <time>2020-05-24T09:54:35Z</time>
      </trkpt>
      <trkpt lat="46.153" lon="5.58403">
        <ele>752.2</ele>
        <time>2020-05-24T09:54:36Z</time>
      </trkpt>
      <trkpt lat="46.15298" lon="5.58403">
        <ele>752.5</ele>
        <time>2020-05-24T09:54:37Z</time>
      </trkpt>
      <trkpt lat="46.15296" lon="5.58405">
        <ele>752.9</ele>
        <time>2020-05-24T09:54:39Z</time>
      </trkpt>
      <trkpt lat="46.15294" lon="5.58406">
        <ele>753.2</ele>
        <time>2020-05-24T09:54:40Z</time>
      </trkpt>
      <trkpt lat="46.15291" lon="5.58406">
        <ele>753.7</ele>
        <time>2020-05-24T09:54:42Z</time>
      </trkpt>
      <trkpt lat="46.15287" lon="5.58406">
        <ele>754.1</ele>
        <time>2020-05-24T09:54:44Z</time>
      </trkpt>
      <trkpt lat="46.15286" lon="5.58407">
        <ele>754.3</ele>
        <time>2020-05-24T09:54:45Z</time>
      </trkpt>
      <trkpt lat="46.15284" lon="5.58407">
        <ele>754.5</ele>
        <time>2020-05-24T09:54:47Z</time>
      </trkpt>
      <trkpt lat="46.15282" lon="5.58407">
        <ele>754.8</ele>
        <time>2020-05-24T09:54:48Z</time>
      </trkpt>
      <trkpt lat="46.15279" lon="5.58407">
        <ele>755</ele>
        <time>2020-05-24T09:54:50Z</time>
      </trkpt>
      <trkpt lat="46.15277" lon="5.58407">
        <ele>755.2</ele>
        <time>2020-05-24T09:54:52Z</time>
      </trkpt>
      <trkpt lat="46.15276" lon="5.58407">
        <ele>755.3</ele>
        <time>2020-05-24T09:54:53Z</time>
      </trkpt>
      <trkpt lat="46.15274" lon="5.58407">
        <ele>755.5</ele>
        <time>2020-05-24T09:54:54Z</time>
      </trkpt>
      <trkpt lat="46.15273" lon="5.58407">
        <ele>755.6</ele>
        <time>2020-05-24T09:54:55Z</time>
      </trkpt>
      <trkpt lat="46.15269" lon="5.58407">
        <ele>755.9</ele>
        <time>2020-05-24T09:54:57Z</time>
      </trkpt>
      <trkpt lat="46.15267" lon="5.58407">
        <ele>756</ele>
        <time>2020-05-24T09:54:58Z</time>
      </trkpt>
      <trkpt lat="46.15265" lon="5.58406">
        <ele>756.1</ele>
        <time>2020-05-24T09:54:59Z</time>
      </trkpt>
      <trkpt lat="46.15264" lon="5.58406">
        <ele>756.2</ele>
        <time>2020-05-24T09:55:00Z</time>
      </trkpt>
      <trkpt lat="46.15262" lon="5.58406">
        <ele>756.2</ele>
        <time>2020-05-24T09:55:01Z</time>
      </trkpt>
      <trkpt lat="46.1526" lon="5.58405">
        <ele>756.3</ele>
        <time>2020-05-24T09:55:03Z</time>
      </trkpt>
      <trkpt lat="46.15256" lon="5.58404">
        <ele>756.5</ele>
        <time>2020-05-24T09:55:04Z</time>
      </trkpt>
      <trkpt lat="46.15254" lon="5.58404">
        <ele>756.5</ele>
        <time>2020-05-24T09:55:05Z</time>
      </trkpt>
      <trkpt lat="46.15248" lon="5.58403">
        <ele>756.7</ele>
        <time>2020-05-24T09:55:07Z</time>
      </trkpt>
      <trkpt lat="46.15246" lon="5.58403">
        <ele>756.7</ele>
        <time>2020-05-24T09:55:08Z</time>
      </trkpt>
      <trkpt lat="46.15241" lon="5.584">
        <ele>756.6</ele>
        <time>2020-05-24T09:55:10Z</time>
      </trkpt>
      <trkpt lat="46.15238" lon="5.58398">
        <ele>756.5</ele>
        <time>2020-05-24T09:55:11Z</time>
      </trkpt>
      <trkpt lat="46.15236" lon="5.58397">
        <ele>756.5</ele>
        <time>2020-05-24T09:55:12Z</time>
      </trkpt>
      <trkpt lat="46.15233" lon="5.58395">
        <ele>756.4</ele>
        <time>2020-05-24T09:55:14Z</time>
      </trkpt>
      <trkpt lat="46.15232" lon="5.58394">
        <ele>756.3</ele>
        <time>2020-05-24T09:55:15Z</time>
      </trkpt>
      <trkpt lat="46.1523" lon="5.58393">
        <ele>756.3</ele>
        <time>2020-05-24T09:55:17Z</time>
      </trkpt>
      <trkpt lat="46.15227" lon="5.58392">
        <ele>756.2</ele>
        <time>2020-05-24T09:55:18Z</time>
      </trkpt>
      <trkpt lat="46.15225" lon="5.58392">
        <ele>756.1</ele>
        <time>2020-05-24T09:55:19Z</time>
      </trkpt>
      <trkpt lat="46.15223" lon="5.58392">
        <ele>756</ele>
        <time>2020-05-24T09:55:21Z</time>
      </trkpt>
      <trkpt lat="46.15222" lon="5.58391">
        <ele>756</ele>
        <time>2020-05-24T09:55:22Z</time>
      </trkpt>
      <trkpt lat="46.1522" lon="5.58391">
        <ele>756</ele>
        <time>2020-05-24T09:55:23Z</time>
      </trkpt>
      <trkpt lat="46.15216" lon="5.5839">
        <ele>755.9</ele>
        <time>2020-05-24T09:55:24Z</time>
      </trkpt>
      <trkpt lat="46.15214" lon="5.5839">
        <ele>755.9</ele>
        <time>2020-05-24T09:55:25Z</time>
      </trkpt>
      <trkpt lat="46.15207" lon="5.58389">
        <ele>756</ele>
        <time>2020-05-24T09:55:27Z</time>
      </trkpt>
      <trkpt lat="46.152" lon="5.58388">
        <ele>756.3</ele>
        <time>2020-05-24T09:55:28Z</time>
      </trkpt>
      <trkpt lat="46.15194" lon="5.58388">
        <ele>756.5</ele>
        <time>2020-05-24T09:55:29Z</time>
      </trkpt>
      <trkpt lat="46.1519" lon="5.58388">
        <ele>756.6</ele>
        <time>2020-05-24T09:55:30Z</time>
      </trkpt>
      <trkpt lat="46.15185" lon="5.58387">
        <ele>756.8</ele>
        <time>2020-05-24T09:55:31Z</time>
      </trkpt>
      <trkpt lat="46.15183" lon="5.58387">
        <ele>756.8</ele>
        <time>2020-05-24T09:55:33Z</time>
      </trkpt>
      <trkpt lat="46.15182" lon="5.58387">
        <ele>756.9</ele>
        <time>2020-05-24T09:55:34Z</time>
      </trkpt>
      <trkpt lat="46.15178" lon="5.58387">
        <ele>757</ele>
        <time>2020-05-24T09:55:36Z</time>
      </trkpt>
      <trkpt lat="46.15176" lon="5.58387">
        <ele>757</ele>
        <time>2020-05-24T09:55:37Z</time>
      </trkpt>
      <trkpt lat="46.15173" lon="5.58388">
        <ele>757.1</ele>
        <time>2020-05-24T09:55:39Z</time>
      </trkpt>
      <trkpt lat="46.15169" lon="5.58388">
        <ele>757.2</ele>
        <time>2020-05-24T09:55:41Z</time>
      </trkpt>
      <trkpt lat="46.15168" lon="5.58388">
        <ele>757.2</ele>
        <time>2020-05-24T09:55:42Z</time>
      </trkpt>
      <trkpt lat="46.15163" lon="5.58388">
        <ele>757.3</ele>
        <time>2020-05-24T09:55:44Z</time>
      </trkpt>
      <trkpt lat="46.15162" lon="5.58388">
        <ele>757.3</ele>
        <time>2020-05-24T09:55:45Z</time>
      </trkpt>
      <trkpt lat="46.1516" lon="5.58387">
        <ele>757.3</ele>
        <time>2020-05-24T09:55:46Z</time>
      </trkpt>
      <trkpt lat="46.15157" lon="5.58386">
        <ele>757.4</ele>
        <time>2020-05-24T09:55:48Z</time>
      </trkpt>
      <trkpt lat="46.15156" lon="5.58386">
        <ele>757.5</ele>
        <time>2020-05-24T09:55:49Z</time>
      </trkpt>
      <trkpt lat="46.15153" lon="5.58385">
        <ele>757.7</ele>
        <time>2020-05-24T09:55:50Z</time>
      </trkpt>
      <trkpt lat="46.15152" lon="5.58385">
        <ele>757.8</ele>
        <time>2020-05-24T09:55:51Z</time>
      </trkpt>
      <trkpt lat="46.15148" lon="5.58384">
        <ele>757.9</ele>
        <time>2020-05-24T09:55:52Z</time>
      </trkpt>
      <trkpt lat="46.15147" lon="5.58384">
        <ele>758</ele>
        <time>2020-05-24T09:55:53Z</time>
      </trkpt>
      <trkpt lat="46.15143" lon="5.58383">
        <ele>758.2</ele>
        <time>2020-05-24T09:55:55Z</time>
      </trkpt>
      <trkpt lat="46.15142" lon="5.58382">
        <ele>758.2</ele>
        <time>2020-05-24T09:55:56Z</time>
      </trkpt>
      <trkpt lat="46.1514" lon="5.58381">
        <ele>758.3</ele>
        <time>2020-05-24T09:55:57Z</time>
      </trkpt>
      <trkpt lat="46.15135" lon="5.5838">
        <ele>758.6</ele>
        <time>2020-05-24T09:55:58Z</time>
      </trkpt>
      <trkpt lat="46.1513" lon="5.58378">
        <ele>758.8</ele>
        <time>2020-05-24T09:55:59Z</time>
      </trkpt>
      <trkpt lat="46.15127" lon="5.58376">
        <ele>759</ele>
        <time>2020-05-24T09:56:00Z</time>
      </trkpt>
      <trkpt lat="46.15121" lon="5.58372">
        <ele>759.3</ele>
        <time>2020-05-24T09:56:02Z</time>
      </trkpt>
      <trkpt lat="46.15118" lon="5.5837">
        <ele>759.5</ele>
        <time>2020-05-24T09:56:03Z</time>
      </trkpt>
      <trkpt lat="46.15115" lon="5.58368">
        <ele>759.6</ele>
        <time>2020-05-24T09:56:04Z</time>
      </trkpt>
      <trkpt lat="46.15114" lon="5.58368">
        <ele>759.7</ele>
        <time>2020-05-24T09:56:05Z</time>
      </trkpt>
      <trkpt lat="46.15112" lon="5.58366">
        <ele>759.8</ele>
        <time>2020-05-24T09:56:07Z</time>
      </trkpt>
      <trkpt lat="46.15107" lon="5.58364">
        <ele>760.1</ele>
        <time>2020-05-24T09:56:09Z</time>
      </trkpt>
      <trkpt lat="46.15106" lon="5.58363">
        <ele>760.2</ele>
        <time>2020-05-24T09:56:10Z</time>
      </trkpt>
      <trkpt lat="46.15103" lon="5.58361">
        <ele>760.3</ele>
        <time>2020-05-24T09:56:12Z</time>
      </trkpt>
      <trkpt lat="46.151" lon="5.5836">
        <ele>760.5</ele>
        <time>2020-05-24T09:56:13Z</time>
      </trkpt>
      <trkpt lat="46.15097" lon="5.58358">
        <ele>760.6</ele>
        <time>2020-05-24T09:56:14Z</time>
      </trkpt>
      <trkpt lat="46.15096" lon="5.58357">
        <ele>760.7</ele>
        <time>2020-05-24T09:56:15Z</time>
      </trkpt>
      <trkpt lat="46.15093" lon="5.58356">
        <ele>760.8</ele>
        <time>2020-05-24T09:56:16Z</time>
      </trkpt>
      <trkpt lat="46.15091" lon="5.58355">
        <ele>760.9</ele>
        <time>2020-05-24T09:56:18Z</time>
      </trkpt>
      <trkpt lat="46.15088" lon="5.58354">
        <ele>761</ele>
        <time>2020-05-24T09:56:19Z</time>
      </trkpt>
      <trkpt lat="46.15084" lon="5.58352">
        <ele>761.1</ele>
        <time>2020-05-24T09:56:20Z</time>
      </trkpt>
      <trkpt lat="46.15078" lon="5.5835">
        <ele>761.2</ele>
        <time>2020-05-24T09:56:22Z</time>
      </trkpt>
      <trkpt lat="46.15075" lon="5.5835">
        <ele>761.3</ele>
        <time>2020-05-24T09:56:23Z</time>
      </trkpt>
      <trkpt lat="46.15072" lon="5.5835">
        <ele>761.3</ele>
        <time>2020-05-24T09:56:24Z</time>
      </trkpt>
      <trkpt lat="46.15071" lon="5.58351">
        <ele>761.3</ele>
        <time>2020-05-24T09:56:25Z</time>
      </trkpt>
      <trkpt lat="46.15065" lon="5.58352">
        <ele>761.4</ele>
        <time>2020-05-24T09:56:27Z</time>
      </trkpt>
      <trkpt lat="46.15061" lon="5.58353">
        <ele>761.4</ele>
        <time>2020-05-24T09:56:28Z</time>
      </trkpt>
      <trkpt lat="46.15058" lon="5.58355">
        <ele>761.5</ele>
        <time>2020-05-24T09:56:29Z</time>
      </trkpt>
      <trkpt lat="46.15056" lon="5.58356">
        <ele>761.5</ele>
        <time>2020-05-24T09:56:30Z</time>
      </trkpt>
      <trkpt lat="46.15053" lon="5.58358">
        <ele>761.5</ele>
        <time>2020-05-24T09:56:32Z</time>
      </trkpt>
      <trkpt lat="46.1505" lon="5.5836">
        <ele>761.5</ele>
        <time>2020-05-24T09:56:33Z</time>
      </trkpt>
      <trkpt lat="46.15047" lon="5.58362">
        <ele>761.4</ele>
        <time>2020-05-24T09:56:35Z</time>
      </trkpt>
      <trkpt lat="46.15045" lon="5.58363">
        <ele>761.4</ele>
        <time>2020-05-24T09:56:36Z</time>
      </trkpt>
      <trkpt lat="46.15042" lon="5.58365">
        <ele>761.4</ele>
        <time>2020-05-24T09:56:38Z</time>
      </trkpt>
      <trkpt lat="46.15038" lon="5.58367">
        <ele>761.3</ele>
        <time>2020-05-24T09:56:39Z</time>
      </trkpt>
      <trkpt lat="46.15037" lon="5.58368">
        <ele>761.3</ele>
        <time>2020-05-24T09:56:40Z</time>
      </trkpt>
      <trkpt lat="46.15036" lon="5.58369">
        <ele>761.2</ele>
        <time>2020-05-24T09:56:41Z</time>
      </trkpt>
      <trkpt lat="46.15033" lon="5.58371">
        <ele>761.1</ele>
        <time>2020-05-24T09:56:43Z</time>
      </trkpt>
      <trkpt lat="46.15032" lon="5.58371">
        <ele>761.1</ele>
        <time>2020-05-24T09:56:44Z</time>
      </trkpt>
      <trkpt lat="46.15028" lon="5.58374">
        <ele>761</ele>
        <time>2020-05-24T09:56:45Z</time>
      </trkpt>
      <trkpt lat="46.15022" lon="5.58378">
        <ele>760.9</ele>
        <time>2020-05-24T09:56:47Z</time>
      </trkpt>
      <trkpt lat="46.15018" lon="5.58381">
        <ele>760.8</ele>
        <time>2020-05-24T09:56:48Z</time>
      </trkpt>
      <trkpt lat="46.15015" lon="5.58383">
        <ele>760.8</ele>
        <time>2020-05-24T09:56:49Z</time>
      </trkpt>
      <trkpt lat="46.15014" lon="5.58383">
        <ele>760.8</ele>
        <time>2020-05-24T09:56:50Z</time>
      </trkpt>
      <trkpt lat="46.15013" lon="5.58384">
        <ele>760.7</ele>
        <time>2020-05-24T09:56:52Z</time>
      </trkpt>
      <trkpt lat="46.15009" lon="5.58387">
        <ele>760.7</ele>
        <time>2020-05-24T09:56:54Z</time>
      </trkpt>
      <trkpt lat="46.15007" lon="5.58389">
        <ele>760.7</ele>
        <time>2020-05-24T09:56:55Z</time>
      </trkpt>
      <trkpt lat="46.15005" lon="5.58391">
        <ele>760.8</ele>
        <time>2020-05-24T09:56:57Z</time>
      </trkpt>
      <trkpt lat="46.15003" lon="5.58394">
        <ele>760.8</ele>
        <time>2020-05-24T09:56:58Z</time>
      </trkpt>
      <trkpt lat="46.15002" lon="5.58395">
        <ele>760.9</ele>
        <time>2020-05-24T09:56:59Z</time>
      </trkpt>
      <trkpt lat="46.15" lon="5.58398">
        <ele>761</ele>
        <time>2020-05-24T09:57:00Z</time>
      </trkpt>
      <trkpt lat="46.14999" lon="5.58399">
        <ele>761</ele>
        <time>2020-05-24T09:57:01Z</time>
      </trkpt>
      <trkpt lat="46.14996" lon="5.58402">
        <ele>761.2</ele>
        <time>2020-05-24T09:57:02Z</time>
      </trkpt>
      <trkpt lat="46.14995" lon="5.58404">
        <ele>761.4</ele>
        <time>2020-05-24T09:57:03Z</time>
      </trkpt>
      <trkpt lat="46.14992" lon="5.58409">
        <ele>761.7</ele>
        <time>2020-05-24T09:57:05Z</time>
      </trkpt>
      <trkpt lat="46.1499" lon="5.58411">
        <ele>761.8</ele>
        <time>2020-05-24T09:57:06Z</time>
      </trkpt>
      <trkpt lat="46.14989" lon="5.58413">
        <ele>761.9</ele>
        <time>2020-05-24T09:57:07Z</time>
      </trkpt>
      <trkpt lat="46.14986" lon="5.58417">
        <ele>762.2</ele>
        <time>2020-05-24T09:57:09Z</time>
      </trkpt>
      <trkpt lat="46.14985" lon="5.58418">
        <ele>762.3</ele>
        <time>2020-05-24T09:57:10Z</time>
      </trkpt>
      <trkpt lat="46.14984" lon="5.5842">
        <ele>762.4</ele>
        <time>2020-05-24T09:57:11Z</time>
      </trkpt>
      <trkpt lat="46.14982" lon="5.58422">
        <ele>762.5</ele>
        <time>2020-05-24T09:57:12Z</time>
      </trkpt>
      <trkpt lat="46.1498" lon="5.58424">
        <ele>762.7</ele>
        <time>2020-05-24T09:57:14Z</time>
      </trkpt>
      <trkpt lat="46.14977" lon="5.58427">
        <ele>762.8</ele>
        <time>2020-05-24T09:57:15Z</time>
      </trkpt>
      <trkpt lat="46.14974" lon="5.5843">
        <ele>763</ele>
        <time>2020-05-24T09:57:17Z</time>
      </trkpt>
      <trkpt lat="46.14972" lon="5.58432">
        <ele>763.1</ele>
        <time>2020-05-24T09:57:18Z</time>
      </trkpt>
      <trkpt lat="46.14971" lon="5.58433">
        <ele>763.1</ele>
        <time>2020-05-24T09:57:19Z</time>
      </trkpt>
      <trkpt lat="46.14968" lon="5.58436">
        <ele>763.3</ele>
        <time>2020-05-24T09:57:21Z</time>
      </trkpt>
      <trkpt lat="46.14965" lon="5.58439">
        <ele>763.4</ele>
        <time>2020-05-24T09:57:23Z</time>
      </trkpt>
      <trkpt lat="46.14962" lon="5.58443">
        <ele>763.5</ele>
        <time>2020-05-24T09:57:25Z</time>
      </trkpt>
      <trkpt lat="46.14959" lon="5.58446">
        <ele>763.6</ele>
        <time>2020-05-24T09:57:26Z</time>
      </trkpt>
      <trkpt lat="46.14957" lon="5.5845">
        <ele>763.8</ele>
        <time>2020-05-24T09:57:28Z</time>
      </trkpt>
      <trkpt lat="46.14954" lon="5.58454">
        <ele>763.9</ele>
        <time>2020-05-24T09:57:30Z</time>
      </trkpt>
      <trkpt lat="46.14952" lon="5.58457">
        <ele>764</ele>
        <time>2020-05-24T09:57:31Z</time>
      </trkpt>
      <trkpt lat="46.14949" lon="5.58461">
        <ele>764.1</ele>
        <time>2020-05-24T09:57:32Z</time>
      </trkpt>
      <trkpt lat="46.14948" lon="5.58462">
        <ele>764.2</ele>
        <time>2020-05-24T09:57:33Z</time>
      </trkpt>
      <trkpt lat="46.14946" lon="5.58465">
        <ele>764.3</ele>
        <time>2020-05-24T09:57:35Z</time>
      </trkpt>
      <trkpt lat="46.14943" lon="5.58468">
        <ele>764.3</ele>
        <time>2020-05-24T09:57:36Z</time>
      </trkpt>
      <trkpt lat="46.14939" lon="5.58472">
        <ele>764.5</ele>
        <time>2020-05-24T09:57:37Z</time>
      </trkpt>
      <trkpt lat="46.14933" lon="5.58478">
        <ele>764.6</ele>
        <time>2020-05-24T09:57:39Z</time>
      </trkpt>
      <trkpt lat="46.14929" lon="5.58481">
        <ele>764.7</ele>
        <time>2020-05-24T09:57:40Z</time>
      </trkpt>
      <trkpt lat="46.14926" lon="5.58484">
        <ele>764.8</ele>
        <time>2020-05-24T09:57:41Z</time>
      </trkpt>
      <trkpt lat="46.14922" lon="5.58487">
        <ele>764.9</ele>
        <time>2020-05-24T09:57:43Z</time>
      </trkpt>
      <trkpt lat="46.14918" lon="5.5849">
        <ele>765</ele>
        <time>2020-05-24T09:57:44Z</time>
      </trkpt>
      <trkpt lat="46.14916" lon="5.58491">
        <ele>765</ele>
        <time>2020-05-24T09:57:45Z</time>
      </trkpt>
      <trkpt lat="46.14913" lon="5.58493">
        <ele>765</ele>
        <time>2020-05-24T09:57:47Z</time>
      </trkpt>
      <trkpt lat="46.14912" lon="5.58494">
        <ele>765</ele>
        <time>2020-05-24T09:57:48Z</time>
      </trkpt>
      <trkpt lat="46.1491" lon="5.58495">
        <ele>765</ele>
        <time>2020-05-24T09:57:49Z</time>
      </trkpt>
      <trkpt lat="46.14907" lon="5.58497">
        <ele>765</ele>
        <time>2020-05-24T09:57:51Z</time>
      </trkpt>
      <trkpt lat="46.14904" lon="5.585">
        <ele>765</ele>
        <time>2020-05-24T09:57:53Z</time>
      </trkpt>
      <trkpt lat="46.14901" lon="5.58501">
        <ele>764.9</ele>
        <time>2020-05-24T09:57:54Z</time>
      </trkpt>
      <trkpt lat="46.14897" lon="5.58504">
        <ele>764.9</ele>
        <time>2020-05-24T09:57:56Z</time>
      </trkpt>
      <trkpt lat="46.14892" lon="5.58507">
        <ele>764.8</ele>
        <time>2020-05-24T09:57:58Z</time>
      </trkpt>
      <trkpt lat="46.14891" lon="5.58509">
        <ele>764.8</ele>
        <time>2020-05-24T09:57:59Z</time>
      </trkpt>
      <trkpt lat="46.14889" lon="5.58511">
        <ele>764.7</ele>
        <time>2020-05-24T09:58:01Z</time>
      </trkpt>
      <trkpt lat="46.14885" lon="5.58513">
        <ele>764.6</ele>
        <time>2020-05-24T09:58:02Z</time>
      </trkpt>
      <trkpt lat="46.14882" lon="5.58514">
        <ele>764.5</ele>
        <time>2020-05-24T09:58:04Z</time>
      </trkpt>
      <trkpt lat="46.14879" lon="5.58515">
        <ele>764.4</ele>
        <time>2020-05-24T09:58:05Z</time>
      </trkpt>
      <trkpt lat="46.14875" lon="5.58516">
        <ele>764.3</ele>
        <time>2020-05-24T09:58:06Z</time>
      </trkpt>
      <trkpt lat="46.14873" lon="5.58517">
        <ele>764.3</ele>
        <time>2020-05-24T09:58:07Z</time>
      </trkpt>
      <trkpt lat="46.14863" lon="5.58517">
        <ele>764.1</ele>
        <time>2020-05-24T09:58:08Z</time>
      </trkpt>
      <trkpt lat="46.14855" lon="5.58516">
        <ele>763.8</ele>
        <time>2020-05-24T09:58:10Z</time>
      </trkpt>
      <trkpt lat="46.14848" lon="5.58515">
        <ele>763.6</ele>
        <time>2020-05-24T09:58:11Z</time>
      </trkpt>
      <trkpt lat="46.14843" lon="5.58513">
        <ele>763.3</ele>
        <time>2020-05-24T09:58:12Z</time>
      </trkpt>
      <trkpt lat="46.14838" lon="5.58512">
        <ele>763.2</ele>
        <time>2020-05-24T09:58:13Z</time>
      </trkpt>
      <trkpt lat="46.14833" lon="5.5851">
        <ele>763</ele>
        <time>2020-05-24T09:58:15Z</time>
      </trkpt>
      <trkpt lat="46.14829" lon="5.58508">
        <ele>762.9</ele>
        <time>2020-05-24T09:58:16Z</time>
      </trkpt>
      <trkpt lat="46.14825" lon="5.58508">
        <ele>762.7</ele>
        <time>2020-05-24T09:58:17Z</time>
      </trkpt>
      <trkpt lat="46.14822" lon="5.58508">
        <ele>762.5</ele>
        <time>2020-05-24T09:58:18Z</time>
      </trkpt>
      <trkpt lat="46.14819" lon="5.58508">
        <ele>762.4</ele>
        <time>2020-05-24T09:58:19Z</time>
      </trkpt>
      <trkpt lat="46.14815" lon="5.58509">
        <ele>762.2</ele>
        <time>2020-05-24T09:58:21Z</time>
      </trkpt>
      <trkpt lat="46.14811" lon="5.5851">
        <ele>762.1</ele>
        <time>2020-05-24T09:58:23Z</time>
      </trkpt>
      <trkpt lat="46.14809" lon="5.5851">
        <ele>761.9</ele>
        <time>2020-05-24T09:58:24Z</time>
      </trkpt>
      <trkpt lat="46.14806" lon="5.58511">
        <ele>761.8</ele>
        <time>2020-05-24T09:58:26Z</time>
      </trkpt>
      <trkpt lat="46.14801" lon="5.58511">
        <ele>761.7</ele>
        <time>2020-05-24T09:58:28Z</time>
      </trkpt>
      <trkpt lat="46.14793" lon="5.5851">
        <ele>761.4</ele>
        <time>2020-05-24T09:58:30Z</time>
      </trkpt>
      <trkpt lat="46.1479" lon="5.58509">
        <ele>761.3</ele>
        <time>2020-05-24T09:58:31Z</time>
      </trkpt>
      <trkpt lat="46.14785" lon="5.58508">
        <ele>761.2</ele>
        <time>2020-05-24T09:58:32Z</time>
      </trkpt>
      <trkpt lat="46.14779" lon="5.58505">
        <ele>761</ele>
        <time>2020-05-24T09:58:34Z</time>
      </trkpt>
      <trkpt lat="46.14776" lon="5.58504">
        <ele>760.9</ele>
        <time>2020-05-24T09:58:35Z</time>
      </trkpt>
      <trkpt lat="46.14775" lon="5.58504">
        <ele>760.8</ele>
        <time>2020-05-24T09:58:36Z</time>
      </trkpt>
      <trkpt lat="46.14771" lon="5.58501">
        <ele>760.7</ele>
        <time>2020-05-24T09:58:38Z</time>
      </trkpt>
      <trkpt lat="46.1477" lon="5.585">
        <ele>760.6</ele>
        <time>2020-05-24T09:58:39Z</time>
      </trkpt>
      <trkpt lat="46.14766" lon="5.58498">
        <ele>760.4</ele>
        <time>2020-05-24T09:58:40Z</time>
      </trkpt>
      <trkpt lat="46.14761" lon="5.58495">
        <ele>760.2</ele>
        <time>2020-05-24T09:58:42Z</time>
      </trkpt>
      <trkpt lat="46.14758" lon="5.58493">
        <ele>760.1</ele>
        <time>2020-05-24T09:58:43Z</time>
      </trkpt>
      <trkpt lat="46.14756" lon="5.58492">
        <ele>760</ele>
        <time>2020-05-24T09:58:44Z</time>
      </trkpt>
      <trkpt lat="46.14753" lon="5.58491">
        <ele>759.8</ele>
        <time>2020-05-24T09:58:46Z</time>
      </trkpt>
      <trkpt lat="46.14751" lon="5.5849">
        <ele>759.7</ele>
        <time>2020-05-24T09:58:47Z</time>
      </trkpt>
      <trkpt lat="46.14748" lon="5.58489">
        <ele>759.5</ele>
        <time>2020-05-24T09:58:49Z</time>
      </trkpt>
      <trkpt lat="46.14744" lon="5.58487">
        <ele>759.4</ele>
        <time>2020-05-24T09:58:50Z</time>
      </trkpt>
      <trkpt lat="46.14743" lon="5.58486">
        <ele>759.3</ele>
        <time>2020-05-24T09:58:51Z</time>
      </trkpt>
      <trkpt lat="46.14737" lon="5.58483">
        <ele>759</ele>
        <time>2020-05-24T09:58:53Z</time>
      </trkpt>
      <trkpt lat="46.14735" lon="5.58482">
        <ele>758.9</ele>
        <time>2020-05-24T09:58:54Z</time>
      </trkpt>
      <trkpt lat="46.14731" lon="5.58479">
        <ele>758.8</ele>
        <time>2020-05-24T09:58:55Z</time>
      </trkpt>
      <trkpt lat="46.14728" lon="5.58476">
        <ele>758.5</ele>
        <time>2020-05-24T09:58:56Z</time>
      </trkpt>
      <trkpt lat="46.14724" lon="5.58469">
        <ele>758.2</ele>
        <time>2020-05-24T09:58:58Z</time>
      </trkpt>
      <trkpt lat="46.14721" lon="5.58465">
        <ele>757.9</ele>
        <time>2020-05-24T09:58:59Z</time>
      </trkpt>
      <trkpt lat="46.14718" lon="5.5846">
        <ele>757.7</ele>
        <time>2020-05-24T09:59:01Z</time>
      </trkpt>
      <trkpt lat="46.14717" lon="5.58455">
        <ele>757.4</ele>
        <time>2020-05-24T09:59:02Z</time>
      </trkpt>
      <trkpt lat="46.14714" lon="5.58451">
        <ele>757.1</ele>
        <time>2020-05-24T09:59:03Z</time>
      </trkpt>
      <trkpt lat="46.14713" lon="5.58448">
        <ele>757</ele>
        <time>2020-05-24T09:59:04Z</time>
      </trkpt>
      <trkpt lat="46.14711" lon="5.58442">
        <ele>756.6</ele>
        <time>2020-05-24T09:59:06Z</time>
      </trkpt>
      <trkpt lat="46.14708" lon="5.58437">
        <ele>756.3</ele>
        <time>2020-05-24T09:59:07Z</time>
      </trkpt>
      <trkpt lat="46.14706" lon="5.58434">
        <ele>756</ele>
        <time>2020-05-24T09:59:08Z</time>
      </trkpt>
      <trkpt lat="46.14702" lon="5.58428">
        <ele>755.6</ele>
        <time>2020-05-24T09:59:10Z</time>
      </trkpt>
      <trkpt lat="46.14699" lon="5.5842">
        <ele>755.3</ele>
        <time>2020-05-24T09:59:11Z</time>
      </trkpt>
      <trkpt lat="46.14698" lon="5.58413">
        <ele>755</ele>
        <time>2020-05-24T09:59:12Z</time>
      </trkpt>
      <trkpt lat="46.14695" lon="5.58404">
        <ele>754.7</ele>
        <time>2020-05-24T09:59:14Z</time>
      </trkpt>
      <trkpt lat="46.14693" lon="5.58396">
        <ele>754.4</ele>
        <time>2020-05-24T09:59:15Z</time>
      </trkpt>
      <trkpt lat="46.14689" lon="5.58386">
        <ele>754.2</ele>
        <time>2020-05-24T09:59:17Z</time>
      </trkpt>
      <trkpt lat="46.14687" lon="5.58378">
        <ele>754</ele>
        <time>2020-05-24T09:59:18Z</time>
      </trkpt>
      <trkpt lat="46.14682" lon="5.5837">
        <ele>753.8</ele>
        <time>2020-05-24T09:59:20Z</time>
      </trkpt>
      <trkpt lat="46.14678" lon="5.58361">
        <ele>753.5</ele>
        <time>2020-05-24T09:59:21Z</time>
      </trkpt>
      <trkpt lat="46.14677" lon="5.58353">
        <ele>753.3</ele>
        <time>2020-05-24T09:59:23Z</time>
      </trkpt>
      <trkpt lat="46.14675" lon="5.58347">
        <ele>753.1</ele>
        <time>2020-05-24T09:59:24Z</time>
      </trkpt>
      <trkpt lat="46.14673" lon="5.58342">
        <ele>752.9</ele>
        <time>2020-05-24T09:59:26Z</time>
      </trkpt>
      <trkpt lat="46.14672" lon="5.58338">
        <ele>752.8</ele>
        <time>2020-05-24T09:59:27Z</time>
      </trkpt>
      <trkpt lat="46.14669" lon="5.58334">
        <ele>752.5</ele>
        <time>2020-05-24T09:59:29Z</time>
      </trkpt>
      <trkpt lat="46.14665" lon="5.58328">
        <ele>752.2</ele>
        <time>2020-05-24T09:59:30Z</time>
      </trkpt>
      <trkpt lat="46.14656" lon="5.5831">
        <ele>751.2</ele>
        <time>2020-05-24T09:59:32Z</time>
      </trkpt>
      <trkpt lat="46.14652" lon="5.58302">
        <ele>750.6</ele>
        <time>2020-05-24T09:59:33Z</time>
      </trkpt>
      <trkpt lat="46.14646" lon="5.58284">
        <ele>749.7</ele>
        <time>2020-05-24T09:59:35Z</time>
      </trkpt>
      <trkpt lat="46.14642" lon="5.58264">
        <ele>748.4</ele>
        <time>2020-05-24T09:59:37Z</time>
      </trkpt>
      <trkpt lat="46.1464" lon="5.58252">
        <ele>746.4</ele>
        <time>2020-05-24T09:59:38Z</time>
      </trkpt>
      <trkpt lat="46.14634" lon="5.58229">
        <ele>743.3</ele>
        <time>2020-05-24T09:59:40Z</time>
      </trkpt>
      <trkpt lat="46.14631" lon="5.58217">
        <ele>741.6</ele>
        <time>2020-05-24T09:59:41Z</time>
      </trkpt>
      <trkpt lat="46.14628" lon="5.58193">
        <ele>738.5</ele>
        <time>2020-05-24T09:59:43Z</time>
      </trkpt>
      <trkpt lat="46.14626" lon="5.58181">
        <ele>736.3</ele>
        <time>2020-05-24T09:59:44Z</time>
      </trkpt>
      <trkpt lat="46.14623" lon="5.58159">
        <ele>733.8</ele>
        <time>2020-05-24T09:59:46Z</time>
      </trkpt>
      <trkpt lat="46.1462" lon="5.58149">
        <ele>733.4</ele>
        <time>2020-05-24T09:59:47Z</time>
      </trkpt>
      <trkpt lat="46.14613" lon="5.58127">
        <ele>732.5</ele>
        <time>2020-05-24T09:59:49Z</time>
      </trkpt>
      <trkpt lat="46.14603" lon="5.58106">
        <ele>731.6</ele>
        <time>2020-05-24T09:59:51Z</time>
      </trkpt>
      <trkpt lat="46.14595" lon="5.58086">
        <ele>730.7</ele>
        <time>2020-05-24T09:59:53Z</time>
      </trkpt>
      <trkpt lat="46.1459" lon="5.58078">
        <ele>730.3</ele>
        <time>2020-05-24T09:59:54Z</time>
      </trkpt>
      <trkpt lat="46.14581" lon="5.58062">
        <ele>729.5</ele>
        <time>2020-05-24T09:59:56Z</time>
      </trkpt>
      <trkpt lat="46.14573" lon="5.58048">
        <ele>728.9</ele>
        <time>2020-05-24T09:59:58Z</time>
      </trkpt>
      <trkpt lat="46.14565" lon="5.58034">
        <ele>728.2</ele>
        <time>2020-05-24T10:00:00Z</time>
      </trkpt>
      <trkpt lat="46.14559" lon="5.58016">
        <ele>727.6</ele>
        <time>2020-05-24T10:00:02Z</time>
      </trkpt>
      <trkpt lat="46.14551" lon="5.58">
        <ele>726.9</ele>
        <time>2020-05-24T10:00:04Z</time>
      </trkpt>
      <trkpt lat="46.14547" lon="5.57993">
        <ele>726.6</ele>
        <time>2020-05-24T10:00:05Z</time>
      </trkpt>
      <trkpt lat="46.14538" lon="5.57979">
        <ele>726</ele>
        <time>2020-05-24T10:00:07Z</time>
      </trkpt>
      <trkpt lat="46.14534" lon="5.57972">
        <ele>725.7</ele>
        <time>2020-05-24T10:00:08Z</time>
      </trkpt>
      <trkpt lat="46.14529" lon="5.57965">
        <ele>725.5</ele>
        <time>2020-05-24T10:00:09Z</time>
      </trkpt>
      <trkpt lat="46.14524" lon="5.57959">
        <ele>725.3</ele>
        <time>2020-05-24T10:00:10Z</time>
      </trkpt>
      <trkpt lat="46.14514" lon="5.57945">
        <ele>724.9</ele>
        <time>2020-05-24T10:00:12Z</time>
      </trkpt>
      <trkpt lat="46.1451" lon="5.57938">
        <ele>724.5</ele>
        <time>2020-05-24T10:00:13Z</time>
      </trkpt>
      <trkpt lat="46.14506" lon="5.57932">
        <ele>724.2</ele>
        <time>2020-05-24T10:00:14Z</time>
      </trkpt>
      <trkpt lat="46.14498" lon="5.5792">
        <ele>723.4</ele>
        <time>2020-05-24T10:00:16Z</time>
      </trkpt>
      <trkpt lat="46.14493" lon="5.57914">
        <ele>723</ele>
        <time>2020-05-24T10:00:17Z</time>
      </trkpt>
      <trkpt lat="46.14489" lon="5.5791">
        <ele>722.5</ele>
        <time>2020-05-24T10:00:18Z</time>
      </trkpt>
      <trkpt lat="46.14485" lon="5.57905">
        <ele>722.1</ele>
        <time>2020-05-24T10:00:19Z</time>
      </trkpt>
      <trkpt lat="46.14481" lon="5.57898">
        <ele>721.5</ele>
        <time>2020-05-24T10:00:20Z</time>
      </trkpt>
      <trkpt lat="46.14478" lon="5.57877">
        <ele>720.6</ele>
        <time>2020-05-24T10:00:22Z</time>
      </trkpt>
      <trkpt lat="46.14477" lon="5.57855">
        <ele>719.5</ele>
        <time>2020-05-24T10:00:24Z</time>
      </trkpt>
      <trkpt lat="46.14475" lon="5.57832">
        <ele>718.3</ele>
        <time>2020-05-24T10:00:26Z</time>
      </trkpt>
      <trkpt lat="46.14473" lon="5.57821">
        <ele>717.8</ele>
        <time>2020-05-24T10:00:27Z</time>
      </trkpt>
      <trkpt lat="46.14469" lon="5.57799">
        <ele>716.9</ele>
        <time>2020-05-24T10:00:29Z</time>
      </trkpt>
      <trkpt lat="46.14465" lon="5.57774">
        <ele>715.5</ele>
        <time>2020-05-24T10:00:31Z</time>
      </trkpt>
      <trkpt lat="46.14464" lon="5.57762">
        <ele>714.8</ele>
        <time>2020-05-24T10:00:32Z</time>
      </trkpt>
      <trkpt lat="46.1446" lon="5.57738">
        <ele>713.3</ele>
        <time>2020-05-24T10:00:34Z</time>
      </trkpt>
      <trkpt lat="46.14456" lon="5.57726">
        <ele>712.4</ele>
        <time>2020-05-24T10:00:35Z</time>
      </trkpt>
      <trkpt lat="46.14445" lon="5.57702">
        <ele>710.9</ele>
        <time>2020-05-24T10:00:37Z</time>
      </trkpt>
      <trkpt lat="46.14432" lon="5.57678">
        <ele>709.2</ele>
        <time>2020-05-24T10:00:39Z</time>
      </trkpt>
      <trkpt lat="46.14425" lon="5.57666">
        <ele>708.2</ele>
        <time>2020-05-24T10:00:40Z</time>
      </trkpt>
      <trkpt lat="46.14409" lon="5.57641">
        <ele>706.2</ele>
        <time>2020-05-24T10:00:42Z</time>
      </trkpt>
      <trkpt lat="46.14391" lon="5.5762">
        <ele>704.3</ele>
        <time>2020-05-24T10:00:44Z</time>
      </trkpt>
      <trkpt lat="46.14382" lon="5.57609">
        <ele>703.7</ele>
        <time>2020-05-24T10:00:45Z</time>
      </trkpt>
      <trkpt lat="46.14368" lon="5.57591">
        <ele>702.7</ele>
        <time>2020-05-24T10:00:47Z</time>
      </trkpt>
      <trkpt lat="46.14362" lon="5.57584">
        <ele>702.3</ele>
        <time>2020-05-24T10:00:48Z</time>
      </trkpt>
      <trkpt lat="46.14354" lon="5.57568">
        <ele>701.8</ele>
        <time>2020-05-24T10:00:50Z</time>
      </trkpt>
      <trkpt lat="46.1435" lon="5.57559">
        <ele>701.4</ele>
        <time>2020-05-24T10:00:51Z</time>
      </trkpt>
      <trkpt lat="46.14347" lon="5.57537">
        <ele>700.6</ele>
        <time>2020-05-24T10:00:53Z</time>
      </trkpt>
      <trkpt lat="46.14346" lon="5.57512">
        <ele>700.1</ele>
        <time>2020-05-24T10:00:55Z</time>
      </trkpt>
      <trkpt lat="46.14346" lon="5.575">
        <ele>700.1</ele>
        <time>2020-05-24T10:00:56Z</time>
      </trkpt>
      <trkpt lat="46.14341" lon="5.57479">
        <ele>702</ele>
        <time>2020-05-24T10:00:58Z</time>
      </trkpt>
      <trkpt lat="46.14338" lon="5.57471">
        <ele>702.3</ele>
        <time>2020-05-24T10:00:59Z</time>
      </trkpt>
      <trkpt lat="46.14335" lon="5.57464">
        <ele>702.4</ele>
        <time>2020-05-24T10:01:00Z</time>
      </trkpt>
      <trkpt lat="46.14333" lon="5.57454">
        <ele>702.6</ele>
        <time>2020-05-24T10:01:02Z</time>
      </trkpt>
      <trkpt lat="46.14333" lon="5.57448">
        <ele>702.7</ele>
        <time>2020-05-24T10:01:03Z</time>
      </trkpt>
      <trkpt lat="46.14335" lon="5.57434">
        <ele>702.7</ele>
        <time>2020-05-24T10:01:05Z</time>
      </trkpt>
      <trkpt lat="46.14337" lon="5.57429">
        <ele>702.8</ele>
        <time>2020-05-24T10:01:06Z</time>
      </trkpt>
      <trkpt lat="46.14339" lon="5.57425">
        <ele>702.8</ele>
        <time>2020-05-24T10:01:07Z</time>
      </trkpt>
      <trkpt lat="46.14344" lon="5.57421">
        <ele>702.8</ele>
        <time>2020-05-24T10:01:09Z</time>
      </trkpt>
      <trkpt lat="46.14347" lon="5.57415">
        <ele>702.8</ele>
        <time>2020-05-24T10:01:11Z</time>
      </trkpt>
      <trkpt lat="46.1435" lon="5.57411">
        <ele>702.7</ele>
        <time>2020-05-24T10:01:12Z</time>
      </trkpt>
      <trkpt lat="46.14354" lon="5.57406">
        <ele>702.6</ele>
        <time>2020-05-24T10:01:14Z</time>
      </trkpt>
      <trkpt lat="46.14356" lon="5.57403">
        <ele>702.7</ele>
        <time>2020-05-24T10:01:16Z</time>
      </trkpt>
      <trkpt lat="46.14357" lon="5.574">
        <ele>702.7</ele>
        <time>2020-05-24T10:01:17Z</time>
      </trkpt>
      <trkpt lat="46.14357" lon="5.57399">
        <ele>702.7</ele>
        <time>2020-05-24T10:01:18Z</time>
      </trkpt>
      <trkpt lat="46.14357" lon="5.57398">
        <ele>702.7</ele>
        <time>2020-05-24T10:01:19Z</time>
      </trkpt>
      <trkpt lat="46.14358" lon="5.57396">
        <ele>702.8</ele>
        <time>2020-05-24T10:01:21Z</time>
      </trkpt>
      <trkpt lat="46.14359" lon="5.57394">
        <ele>702.8</ele>
        <time>2020-05-24T10:01:22Z</time>
      </trkpt>
      <trkpt lat="46.1436" lon="5.57394">
        <ele>702.8</ele>
        <time>2020-05-24T10:01:23Z</time>
      </trkpt>
      <trkpt lat="46.14362" lon="5.57393">
        <ele>702.8</ele>
        <time>2020-05-24T10:01:25Z</time>
      </trkpt>
      <trkpt lat="46.14363" lon="5.57395">
        <ele>702.8</ele>
        <time>2020-05-24T10:01:27Z</time>
      </trkpt>
      <trkpt lat="46.14364" lon="5.57396">
        <ele>702.8</ele>
        <time>2020-05-24T10:01:29Z</time>
      </trkpt>
      <trkpt lat="46.14364" lon="5.57396">
        <ele>702.8</ele>
        <time>2020-05-24T10:01:30Z</time>
      </trkpt>
      <trkpt lat="46.14364" lon="5.57397">
        <ele>702.8</ele>
        <time>2020-05-24T10:01:32Z</time>
      </trkpt>
      <trkpt lat="46.14364" lon="5.57399">
        <ele>702.8</ele>
        <time>2020-05-24T10:01:34Z</time>
      </trkpt>
      <trkpt lat="46.14365" lon="5.57399">
        <ele>702.8</ele>
        <time>2020-05-24T10:01:35Z</time>
      </trkpt>
      <trkpt lat="46.14365" lon="5.57399">
        <ele>702.8</ele>
        <time>2020-05-24T10:01:37Z</time>
      </trkpt>
      <trkpt lat="46.14365" lon="5.574">
        <ele>702.8</ele>
        <time>2020-05-24T10:01:38Z</time>
      </trkpt>
      <trkpt lat="46.14364" lon="5.57402">
        <ele>702.8</ele>
        <time>2020-05-24T10:01:40Z</time>
      </trkpt>
      <trkpt lat="46.14364" lon="5.57404">
        <ele>702.8</ele>
        <time>2020-05-24T10:01:41Z</time>
      </trkpt>
      <trkpt lat="46.14364" lon="5.57408">
        <ele>702.8</ele>
        <time>2020-05-24T10:01:43Z</time>
      </trkpt>
      <trkpt lat="46.14361" lon="5.57412">
        <ele>702.8</ele>
        <time>2020-05-24T10:01:44Z</time>
      </trkpt>
      <trkpt lat="46.14355" lon="5.57419">
        <ele>702.8</ele>
        <time>2020-05-24T10:01:46Z</time>
      </trkpt>
      <trkpt lat="46.1435" lon="5.57425">
        <ele>702.7</ele>
        <time>2020-05-24T10:01:47Z</time>
      </trkpt>
      <trkpt lat="46.14346" lon="5.57434">
        <ele>702.7</ele>
        <time>2020-05-24T10:01:48Z</time>
      </trkpt>
      <trkpt lat="46.14342" lon="5.57444">
        <ele>702.6</ele>
        <time>2020-05-24T10:01:49Z</time>
      </trkpt>
      <trkpt lat="46.1434" lon="5.57457">
        <ele>702.5</ele>
        <time>2020-05-24T10:01:51Z</time>
      </trkpt>
      <trkpt lat="46.1434" lon="5.57461">
        <ele>702.5</ele>
        <time>2020-05-24T10:01:52Z</time>
      </trkpt>
      <trkpt lat="46.14341" lon="5.57469">
        <ele>702.4</ele>
        <time>2020-05-24T10:01:54Z</time>
      </trkpt>
      <trkpt lat="46.14342" lon="5.57471">
        <ele>702.4</ele>
        <time>2020-05-24T10:01:55Z</time>
      </trkpt>
      <trkpt lat="46.14338" lon="5.57471">
        <ele>702.3</ele>
        <time>2020-05-24T10:01:57Z</time>
      </trkpt>
      <trkpt lat="46.14332" lon="5.57466">
        <ele>699.4</ele>
        <time>2020-05-24T10:01:58Z</time>
      </trkpt>
      <trkpt lat="46.14328" lon="5.57462">
        <ele>699.3</ele>
        <time>2020-05-24T10:01:59Z</time>
      </trkpt>
      <trkpt lat="46.14317" lon="5.57452">
        <ele>698.8</ele>
        <time>2020-05-24T10:02:01Z</time>
      </trkpt>
      <trkpt lat="46.14308" lon="5.57442">
        <ele>698.4</ele>
        <time>2020-05-24T10:02:03Z</time>
      </trkpt>
      <trkpt lat="46.14301" lon="5.5743">
        <ele>698.1</ele>
        <time>2020-05-24T10:02:05Z</time>
      </trkpt>
      <trkpt lat="46.14298" lon="5.57424">
        <ele>697.9</ele>
        <time>2020-05-24T10:02:06Z</time>
      </trkpt>
      <trkpt lat="46.14293" lon="5.57411">
        <ele>697.5</ele>
        <time>2020-05-24T10:02:08Z</time>
      </trkpt>
      <trkpt lat="46.14291" lon="5.57406">
        <ele>697.3</ele>
        <time>2020-05-24T10:02:10Z</time>
      </trkpt>
      <trkpt lat="46.1429" lon="5.57402">
        <ele>697.1</ele>
        <time>2020-05-24T10:02:11Z</time>
      </trkpt>
      <trkpt lat="46.14286" lon="5.57388">
        <ele>696.4</ele>
        <time>2020-05-24T10:02:12Z</time>
      </trkpt>
      <trkpt lat="46.14283" lon="5.5737">
        <ele>695.6</ele>
        <time>2020-05-24T10:02:14Z</time>
      </trkpt>
      <trkpt lat="46.1428" lon="5.57354">
        <ele>694.8</ele>
        <time>2020-05-24T10:02:16Z</time>
      </trkpt>
      <trkpt lat="46.14277" lon="5.57336">
        <ele>694.1</ele>
        <time>2020-05-24T10:02:18Z</time>
      </trkpt>
      <trkpt lat="46.14274" lon="5.57318">
        <ele>693.5</ele>
        <time>2020-05-24T10:02:20Z</time>
      </trkpt>
      <trkpt lat="46.14272" lon="5.5731">
        <ele>693.2</ele>
        <time>2020-05-24T10:02:21Z</time>
      </trkpt>
      <trkpt lat="46.14268" lon="5.57293">
        <ele>693.1</ele>
        <time>2020-05-24T10:02:23Z</time>
      </trkpt>
      <trkpt lat="46.14264" lon="5.57275">
        <ele>693.1</ele>
        <time>2020-05-24T10:02:25Z</time>
      </trkpt>
      <trkpt lat="46.14259" lon="5.57257">
        <ele>692.8</ele>
        <time>2020-05-24T10:02:27Z</time>
      </trkpt>
      <trkpt lat="46.14255" lon="5.57239">
        <ele>692.6</ele>
        <time>2020-05-24T10:02:29Z</time>
      </trkpt>
      <trkpt lat="46.14252" lon="5.5723">
        <ele>692.5</ele>
        <time>2020-05-24T10:02:30Z</time>
      </trkpt>
      <trkpt lat="46.14244" lon="5.57212">
        <ele>692.1</ele>
        <time>2020-05-24T10:02:32Z</time>
      </trkpt>
      <trkpt lat="46.14233" lon="5.57196">
        <ele>691.7</ele>
        <time>2020-05-24T10:02:34Z</time>
      </trkpt>
      <trkpt lat="46.14221" lon="5.57181">
        <ele>691.4</ele>
        <time>2020-05-24T10:02:36Z</time>
      </trkpt>
      <trkpt lat="46.14216" lon="5.57174">
        <ele>691.3</ele>
        <time>2020-05-24T10:02:37Z</time>
      </trkpt>
      <trkpt lat="46.14211" lon="5.57168">
        <ele>691.2</ele>
        <time>2020-05-24T10:02:38Z</time>
      </trkpt>
      <trkpt lat="46.14201" lon="5.57154">
        <ele>690.8</ele>
        <time>2020-05-24T10:02:40Z</time>
      </trkpt>
      <trkpt lat="46.14197" lon="5.57147">
        <ele>690.6</ele>
        <time>2020-05-24T10:02:41Z</time>
      </trkpt>
      <trkpt lat="46.14188" lon="5.57132">
        <ele>690.3</ele>
        <time>2020-05-24T10:02:43Z</time>
      </trkpt>
      <trkpt lat="46.14184" lon="5.57123">
        <ele>690.2</ele>
        <time>2020-05-24T10:02:44Z</time>
      </trkpt>
      <trkpt lat="46.14176" lon="5.57108">
        <ele>690.1</ele>
        <time>2020-05-24T10:02:46Z</time>
      </trkpt>
      <trkpt lat="46.14168" lon="5.57092">
        <ele>689.8</ele>
        <time>2020-05-24T10:02:48Z</time>
      </trkpt>
      <trkpt lat="46.14159" lon="5.57076">
        <ele>689.5</ele>
        <time>2020-05-24T10:02:50Z</time>
      </trkpt>
      <trkpt lat="46.14155" lon="5.57068">
        <ele>689.3</ele>
        <time>2020-05-24T10:02:51Z</time>
      </trkpt>
      <trkpt lat="46.1415" lon="5.5706">
        <ele>689.1</ele>
        <time>2020-05-24T10:02:52Z</time>
      </trkpt>
      <trkpt lat="46.14145" lon="5.57053">
        <ele>689</ele>
        <time>2020-05-24T10:02:53Z</time>
      </trkpt>
      <trkpt lat="46.14136" lon="5.57037">
        <ele>689</ele>
        <time>2020-05-24T10:02:55Z</time>
      </trkpt>
      <trkpt lat="46.14127" lon="5.57021">
        <ele>689</ele>
        <time>2020-05-24T10:02:57Z</time>
      </trkpt>
      <trkpt lat="46.14123" lon="5.57013">
        <ele>689</ele>
        <time>2020-05-24T10:02:58Z</time>
      </trkpt>
      <trkpt lat="46.14115" lon="5.56997">
        <ele>689</ele>
        <time>2020-05-24T10:03:00Z</time>
      </trkpt>
      <trkpt lat="46.14109" lon="5.56981">
        <ele>689</ele>
        <time>2020-05-24T10:03:02Z</time>
      </trkpt>
      <trkpt lat="46.14107" lon="5.56974">
        <ele>689</ele>
        <time>2020-05-24T10:03:03Z</time>
      </trkpt>
      <trkpt lat="46.141" lon="5.56959">
        <ele>689.3</ele>
        <time>2020-05-24T10:03:05Z</time>
      </trkpt>
      <trkpt lat="46.14097" lon="5.56952">
        <ele>689.5</ele>
        <time>2020-05-24T10:03:06Z</time>
      </trkpt>
      <trkpt lat="46.14094" lon="5.56946">
        <ele>689.5</ele>
        <time>2020-05-24T10:03:07Z</time>
      </trkpt>
      <trkpt lat="46.14087" lon="5.56934">
        <ele>689.6</ele>
        <time>2020-05-24T10:03:09Z</time>
      </trkpt>
      <trkpt lat="46.14083" lon="5.56927">
        <ele>689.6</ele>
        <time>2020-05-24T10:03:10Z</time>
      </trkpt>
      <trkpt lat="46.14076" lon="5.56915">
        <ele>689.7</ele>
        <time>2020-05-24T10:03:12Z</time>
      </trkpt>
      <trkpt lat="46.14069" lon="5.56901">
        <ele>689.8</ele>
        <time>2020-05-24T10:03:14Z</time>
      </trkpt>
      <trkpt lat="46.14061" lon="5.56886">
        <ele>690.1</ele>
        <time>2020-05-24T10:03:16Z</time>
      </trkpt>
      <trkpt lat="46.14058" lon="5.56878">
        <ele>690.2</ele>
        <time>2020-05-24T10:03:17Z</time>
      </trkpt>
      <trkpt lat="46.1405" lon="5.56865">
        <ele>690.6</ele>
        <time>2020-05-24T10:03:19Z</time>
      </trkpt>
      <trkpt lat="46.14046" lon="5.5686">
        <ele>690.7</ele>
        <time>2020-05-24T10:03:20Z</time>
      </trkpt>
      <trkpt lat="46.14039" lon="5.56848">
        <ele>690.8</ele>
        <time>2020-05-24T10:03:22Z</time>
      </trkpt>
      <trkpt lat="46.14033" lon="5.56838">
        <ele>691.4</ele>
        <time>2020-05-24T10:03:24Z</time>
      </trkpt>
      <trkpt lat="46.14032" lon="5.56835">
        <ele>691.4</ele>
        <time>2020-05-24T10:03:25Z</time>
      </trkpt>
      <trkpt lat="46.14031" lon="5.56827">
        <ele>691.4</ele>
        <time>2020-05-24T10:03:27Z</time>
      </trkpt>
      <trkpt lat="46.14034" lon="5.56825">
        <ele>691.4</ele>
        <time>2020-05-24T10:03:29Z</time>
      </trkpt>
      <trkpt lat="46.1404" lon="5.56826">
        <ele>692.8</ele>
        <time>2020-05-24T10:03:31Z</time>
      </trkpt>
      <trkpt lat="46.14039" lon="5.56826">
        <ele>692.8</ele>
        <time>2020-05-24T10:03:32Z</time>
      </trkpt>
      <trkpt lat="46.14038" lon="5.56827">
        <ele>692.9</ele>
        <time>2020-05-24T10:03:33Z</time>
      </trkpt>
      <trkpt lat="46.1404" lon="5.56826">
        <ele>693</ele>
        <time>2020-05-24T10:03:34Z</time>
      </trkpt>
      <trkpt lat="46.14047" lon="5.56824">
        <ele>693.5</ele>
        <time>2020-05-24T10:03:36Z</time>
      </trkpt>
      <trkpt lat="46.14052" lon="5.56822">
        <ele>693.8</ele>
        <time>2020-05-24T10:03:38Z</time>
      </trkpt>
      <trkpt lat="46.14056" lon="5.56819">
        <ele>694</ele>
        <time>2020-05-24T10:03:40Z</time>
      </trkpt>
      <trkpt lat="46.14057" lon="5.56819">
        <ele>694</ele>
        <time>2020-05-24T10:03:41Z</time>
      </trkpt>
      <trkpt lat="46.14059" lon="5.56817">
        <ele>694.2</ele>
        <time>2020-05-24T10:03:43Z</time>
      </trkpt>
      <trkpt lat="46.1406" lon="5.56816">
        <ele>694.2</ele>
        <time>2020-05-24T10:03:44Z</time>
      </trkpt>
      <trkpt lat="46.14062" lon="5.56814">
        <ele>694.3</ele>
        <time>2020-05-24T10:03:45Z</time>
      </trkpt>
      <trkpt lat="46.14066" lon="5.56811">
        <ele>694.4</ele>
        <time>2020-05-24T10:03:47Z</time>
      </trkpt>
      <trkpt lat="46.14069" lon="5.56809">
        <ele>694.5</ele>
        <time>2020-05-24T10:03:49Z</time>
      </trkpt>
      <trkpt lat="46.1407" lon="5.56808">
        <ele>694.6</ele>
        <time>2020-05-24T10:03:50Z</time>
      </trkpt>
      <trkpt lat="46.14072" lon="5.56806">
        <ele>694.6</ele>
        <time>2020-05-24T10:03:51Z</time>
      </trkpt>
      <trkpt lat="46.14074" lon="5.56804">
        <ele>694.6</ele>
        <time>2020-05-24T10:03:53Z</time>
      </trkpt>
      <trkpt lat="46.14076" lon="5.56803">
        <ele>694.6</ele>
        <time>2020-05-24T10:03:54Z</time>
      </trkpt>
      <trkpt lat="46.14079" lon="5.56801">
        <ele>694.6</ele>
        <time>2020-05-24T10:03:56Z</time>
      </trkpt>
      <trkpt lat="46.14081" lon="5.56798">
        <ele>694.6</ele>
        <time>2020-05-24T10:03:57Z</time>
      </trkpt>
      <trkpt lat="46.14083" lon="5.56795">
        <ele>694.6</ele>
        <time>2020-05-24T10:03:59Z</time>
      </trkpt>
      <trkpt lat="46.14088" lon="5.56791">
        <ele>694.5</ele>
        <time>2020-05-24T10:04:00Z</time>
      </trkpt>
      <trkpt lat="46.1409" lon="5.5679">
        <ele>694.5</ele>
        <time>2020-05-24T10:04:01Z</time>
      </trkpt>
      <trkpt lat="46.14095" lon="5.56787">
        <ele>694.5</ele>
        <time>2020-05-24T10:04:02Z</time>
      </trkpt>
      <trkpt lat="46.14098" lon="5.56784">
        <ele>694.6</ele>
        <time>2020-05-24T10:04:03Z</time>
      </trkpt>
      <trkpt lat="46.14102" lon="5.56781">
        <ele>694.6</ele>
        <time>2020-05-24T10:04:05Z</time>
      </trkpt>
      <trkpt lat="46.14103" lon="5.5678">
        <ele>694.7</ele>
        <time>2020-05-24T10:04:06Z</time>
      </trkpt>
      <trkpt lat="46.14104" lon="5.5678">
        <ele>694.7</ele>
        <time>2020-05-24T10:04:07Z</time>
      </trkpt>
      <trkpt lat="46.14106" lon="5.56778">
        <ele>694.8</ele>
        <time>2020-05-24T10:04:08Z</time>
      </trkpt>
      <trkpt lat="46.1411" lon="5.56774">
        <ele>694.9</ele>
        <time>2020-05-24T10:04:10Z</time>
      </trkpt>
      <trkpt lat="46.14112" lon="5.56773">
        <ele>694.9</ele>
        <time>2020-05-24T10:04:11Z</time>
      </trkpt>
      <trkpt lat="46.14113" lon="5.56772">
        <ele>694.9</ele>
        <time>2020-05-24T10:04:12Z</time>
      </trkpt>
      <trkpt lat="46.14115" lon="5.56771">
        <ele>695</ele>
        <time>2020-05-24T10:04:13Z</time>
      </trkpt>
      <trkpt lat="46.14119" lon="5.56768">
        <ele>695</ele>
        <time>2020-05-24T10:04:15Z</time>
      </trkpt>
      <trkpt lat="46.14122" lon="5.56767">
        <ele>695</ele>
        <time>2020-05-24T10:04:16Z</time>
      </trkpt>
      <trkpt lat="46.14123" lon="5.56766">
        <ele>695</ele>
        <time>2020-05-24T10:04:17Z</time>
      </trkpt>
      <trkpt lat="46.14125" lon="5.56765">
        <ele>695</ele>
        <time>2020-05-24T10:04:19Z</time>
      </trkpt>
      <trkpt lat="46.14128" lon="5.56764">
        <ele>695.3</ele>
        <time>2020-05-24T10:04:20Z</time>
      </trkpt>
      <trkpt lat="46.14133" lon="5.56761">
        <ele>695.9</ele>
        <time>2020-05-24T10:04:22Z</time>
      </trkpt>
      <trkpt lat="46.14134" lon="5.56761">
        <ele>696</ele>
        <time>2020-05-24T10:04:23Z</time>
      </trkpt>
      <trkpt lat="46.14137" lon="5.5676">
        <ele>696.3</ele>
        <time>2020-05-24T10:04:25Z</time>
      </trkpt>
      <trkpt lat="46.1414" lon="5.5676">
        <ele>696.6</ele>
        <time>2020-05-24T10:04:26Z</time>
      </trkpt>
      <trkpt lat="46.14141" lon="5.56759">
        <ele>696.7</ele>
        <time>2020-05-24T10:04:27Z</time>
      </trkpt>
      <trkpt lat="46.14146" lon="5.56757">
        <ele>697.3</ele>
        <time>2020-05-24T10:04:29Z</time>
      </trkpt>
      <trkpt lat="46.14148" lon="5.56757">
        <ele>697.6</ele>
        <time>2020-05-24T10:04:30Z</time>
      </trkpt>
      <trkpt lat="46.14149" lon="5.56756">
        <ele>697.8</ele>
        <time>2020-05-24T10:04:31Z</time>
      </trkpt>
      <trkpt lat="46.14153" lon="5.56754">
        <ele>698.2</ele>
        <time>2020-05-24T10:04:33Z</time>
      </trkpt>
      <trkpt lat="46.14154" lon="5.56753">
        <ele>698.4</ele>
        <time>2020-05-24T10:04:34Z</time>
      </trkpt>
      <trkpt lat="46.14157" lon="5.56753">
        <ele>698.7</ele>
        <time>2020-05-24T10:04:36Z</time>
      </trkpt>
      <trkpt lat="46.14158" lon="5.56753">
        <ele>698.8</ele>
        <time>2020-05-24T10:04:37Z</time>
      </trkpt>
      <trkpt lat="46.14159" lon="5.56753">
        <ele>698.9</ele>
        <time>2020-05-24T10:04:38Z</time>
      </trkpt>
      <trkpt lat="46.14161" lon="5.56753">
        <ele>699.1</ele>
        <time>2020-05-24T10:04:39Z</time>
      </trkpt>
      <trkpt lat="46.14163" lon="5.56753">
        <ele>699.3</ele>
        <time>2020-05-24T10:04:40Z</time>
      </trkpt>
      <trkpt lat="46.14164" lon="5.56753">
        <ele>699.4</ele>
        <time>2020-05-24T10:04:41Z</time>
      </trkpt>
      <trkpt lat="46.14166" lon="5.56753">
        <ele>699.6</ele>
        <time>2020-05-24T10:04:43Z</time>
      </trkpt>
      <trkpt lat="46.14168" lon="5.56752">
        <ele>699.8</ele>
        <time>2020-05-24T10:04:44Z</time>
      </trkpt>
      <trkpt lat="46.14171" lon="5.56752">
        <ele>700.1</ele>
        <time>2020-05-24T10:04:45Z</time>
      </trkpt>
      <trkpt lat="46.14172" lon="5.56752">
        <ele>700.2</ele>
        <time>2020-05-24T10:04:47Z</time>
      </trkpt>
      <trkpt lat="46.14173" lon="5.56752">
        <ele>700.3</ele>
        <time>2020-05-24T10:04:48Z</time>
      </trkpt>
      <trkpt lat="46.14174" lon="5.56752">
        <ele>700.4</ele>
        <time>2020-05-24T10:04:49Z</time>
      </trkpt>
      <trkpt lat="46.14176" lon="5.56752">
        <ele>700.5</ele>
        <time>2020-05-24T10:04:51Z</time>
      </trkpt>
      <trkpt lat="46.14177" lon="5.56752">
        <ele>700.7</ele>
        <time>2020-05-24T10:04:52Z</time>
      </trkpt>
      <trkpt lat="46.14182" lon="5.56753">
        <ele>701.1</ele>
        <time>2020-05-24T10:04:54Z</time>
      </trkpt>
      <trkpt lat="46.14183" lon="5.56754">
        <ele>701.2</ele>
        <time>2020-05-24T10:04:55Z</time>
      </trkpt>
      <trkpt lat="46.14184" lon="5.56754">
        <ele>701.4</ele>
        <time>2020-05-24T10:04:56Z</time>
      </trkpt>
      <trkpt lat="46.14187" lon="5.56755">
        <ele>701.7</ele>
        <time>2020-05-24T10:04:58Z</time>
      </trkpt>
      <trkpt lat="46.14189" lon="5.56755">
        <ele>701.8</ele>
        <time>2020-05-24T10:04:59Z</time>
      </trkpt>
      <trkpt lat="46.1419" lon="5.56756">
        <ele>702</ele>
        <time>2020-05-24T10:05:00Z</time>
      </trkpt>
      <trkpt lat="46.1419" lon="5.56756">
        <ele>702</ele>
        <time>2020-05-24T10:05:01Z</time>
      </trkpt>
      <trkpt lat="46.14192" lon="5.56757">
        <ele>702.2</ele>
        <time>2020-05-24T10:05:03Z</time>
      </trkpt>
      <trkpt lat="46.14196" lon="5.56757">
        <ele>702.6</ele>
        <time>2020-05-24T10:05:05Z</time>
      </trkpt>
      <trkpt lat="46.14199" lon="5.56757">
        <ele>703</ele>
        <time>2020-05-24T10:05:07Z</time>
      </trkpt>
      <trkpt lat="46.142" lon="5.56757">
        <ele>703</ele>
        <time>2020-05-24T10:05:08Z</time>
      </trkpt>
      <trkpt lat="46.14203" lon="5.56757">
        <ele>703.4</ele>
        <time>2020-05-24T10:05:09Z</time>
      </trkpt>
      <trkpt lat="46.14204" lon="5.56757">
        <ele>703.5</ele>
        <time>2020-05-24T10:05:10Z</time>
      </trkpt>
      <trkpt lat="46.14208" lon="5.56757">
        <ele>703.9</ele>
        <time>2020-05-24T10:05:12Z</time>
      </trkpt>
      <trkpt lat="46.14212" lon="5.56757">
        <ele>704.4</ele>
        <time>2020-05-24T10:05:14Z</time>
      </trkpt>
      <trkpt lat="46.14214" lon="5.56757">
        <ele>704.5</ele>
        <time>2020-05-24T10:05:15Z</time>
      </trkpt>
      <trkpt lat="46.14215" lon="5.56756">
        <ele>704.7</ele>
        <time>2020-05-24T10:05:16Z</time>
      </trkpt>
      <trkpt lat="46.1422" lon="5.56755">
        <ele>705.2</ele>
        <time>2020-05-24T10:05:18Z</time>
      </trkpt>
      <trkpt lat="46.14221" lon="5.56754">
        <ele>705.4</ele>
        <time>2020-05-24T10:05:19Z</time>
      </trkpt>
      <trkpt lat="46.14223" lon="5.56753">
        <ele>705.6</ele>
        <time>2020-05-24T10:05:20Z</time>
      </trkpt>
      <trkpt lat="46.14226" lon="5.56752">
        <ele>706</ele>
        <time>2020-05-24T10:05:21Z</time>
      </trkpt>
      <trkpt lat="46.14227" lon="5.56752">
        <ele>706.1</ele>
        <time>2020-05-24T10:05:22Z</time>
      </trkpt>
      <trkpt lat="46.1423" lon="5.56751">
        <ele>706.4</ele>
        <time>2020-05-24T10:05:24Z</time>
      </trkpt>
      <trkpt lat="46.14233" lon="5.56751">
        <ele>706.8</ele>
        <time>2020-05-24T10:05:25Z</time>
      </trkpt>
      <trkpt lat="46.14234" lon="5.5675">
        <ele>707</ele>
        <time>2020-05-24T10:05:26Z</time>
      </trkpt>
      <trkpt lat="46.14236" lon="5.5675">
        <ele>707.2</ele>
        <time>2020-05-24T10:05:27Z</time>
      </trkpt>
      <trkpt lat="46.14239" lon="5.5675">
        <ele>707.5</ele>
        <time>2020-05-24T10:05:29Z</time>
      </trkpt>
      <trkpt lat="46.14239" lon="5.5675">
        <ele>707.7</ele>
        <time>2020-05-24T10:05:30Z</time>
      </trkpt>
      <trkpt lat="46.1424" lon="5.5675">
        <ele>707.7</ele>
        <time>2020-05-24T10:05:31Z</time>
      </trkpt>
      <trkpt lat="46.14244" lon="5.5675">
        <ele>708.3</ele>
        <time>2020-05-24T10:05:33Z</time>
      </trkpt>
      <trkpt lat="46.14247" lon="5.56749">
        <ele>708.7</ele>
        <time>2020-05-24T10:05:34Z</time>
      </trkpt>
      <trkpt lat="46.14247" lon="5.56749">
        <ele>708.8</ele>
        <time>2020-05-24T10:05:35Z</time>
      </trkpt>
      <trkpt lat="46.14249" lon="5.56749">
        <ele>709.1</ele>
        <time>2020-05-24T10:05:36Z</time>
      </trkpt>
      <trkpt lat="46.14251" lon="5.56749">
        <ele>709.3</ele>
        <time>2020-05-24T10:05:38Z</time>
      </trkpt>
      <trkpt lat="46.14252" lon="5.56749">
        <ele>709.6</ele>
        <time>2020-05-24T10:05:39Z</time>
      </trkpt>
      <trkpt lat="46.14255" lon="5.56748">
        <ele>710</ele>
        <time>2020-05-24T10:05:40Z</time>
      </trkpt>
      <trkpt lat="46.14258" lon="5.56748">
        <ele>710.5</ele>
        <time>2020-05-24T10:05:42Z</time>
      </trkpt>
      <trkpt lat="46.14262" lon="5.56747">
        <ele>711.3</ele>
        <time>2020-05-24T10:05:43Z</time>
      </trkpt>
      <trkpt lat="46.14264" lon="5.56747">
        <ele>711.7</ele>
        <time>2020-05-24T10:05:44Z</time>
      </trkpt>
      <trkpt lat="46.14268" lon="5.56746">
        <ele>712.4</ele>
        <time>2020-05-24T10:05:45Z</time>
      </trkpt>
      <trkpt lat="46.14269" lon="5.56746">
        <ele>712.6</ele>
        <time>2020-05-24T10:05:46Z</time>
      </trkpt>
      <trkpt lat="46.14272" lon="5.56745">
        <ele>713.2</ele>
        <time>2020-05-24T10:05:48Z</time>
      </trkpt>
      <trkpt lat="46.14273" lon="5.56745">
        <ele>713.4</ele>
        <time>2020-05-24T10:05:49Z</time>
      </trkpt>
      <trkpt lat="46.14275" lon="5.56745">
        <ele>713.7</ele>
        <time>2020-05-24T10:05:50Z</time>
      </trkpt>
      <trkpt lat="46.14277" lon="5.56744">
        <ele>714.2</ele>
        <time>2020-05-24T10:05:52Z</time>
      </trkpt>
      <trkpt lat="46.14281" lon="5.56744">
        <ele>714.8</ele>
        <time>2020-05-24T10:05:53Z</time>
      </trkpt>
      <trkpt lat="46.14281" lon="5.56743">
        <ele>714.9</ele>
        <time>2020-05-24T10:05:54Z</time>
      </trkpt>
      <trkpt lat="46.14283" lon="5.56742">
        <ele>715.3</ele>
        <time>2020-05-24T10:05:56Z</time>
      </trkpt>
      <trkpt lat="46.14284" lon="5.56742">
        <ele>715.4</ele>
        <time>2020-05-24T10:05:57Z</time>
      </trkpt>
      <trkpt lat="46.14286" lon="5.56741">
        <ele>715.8</ele>
        <time>2020-05-24T10:05:58Z</time>
      </trkpt>
      <trkpt lat="46.14287" lon="5.56741">
        <ele>715.9</ele>
        <time>2020-05-24T10:05:59Z</time>
      </trkpt>
      <trkpt lat="46.14288" lon="5.56741">
        <ele>716.1</ele>
        <time>2020-05-24T10:06:00Z</time>
      </trkpt>
      <trkpt lat="46.14289" lon="5.56741">
        <ele>716.3</ele>
        <time>2020-05-24T10:06:01Z</time>
      </trkpt>
      <trkpt lat="46.1429" lon="5.5674">
        <ele>716.4</ele>
        <time>2020-05-24T10:06:03Z</time>
      </trkpt>
      <trkpt lat="46.14292" lon="5.5674">
        <ele>716.6</ele>
        <time>2020-05-24T10:06:04Z</time>
      </trkpt>
      <trkpt lat="46.14295" lon="5.56739">
        <ele>717.2</ele>
        <time>2020-05-24T10:06:06Z</time>
      </trkpt>
      <trkpt lat="46.14296" lon="5.56739">
        <ele>717.4</ele>
        <time>2020-05-24T10:06:07Z</time>
      </trkpt>
      <trkpt lat="46.14297" lon="5.56739">
        <ele>717.7</ele>
        <time>2020-05-24T10:06:08Z</time>
      </trkpt>
      <trkpt lat="46.14299" lon="5.56738">
        <ele>717.9</ele>
        <time>2020-05-24T10:06:10Z</time>
      </trkpt>
      <trkpt lat="46.14302" lon="5.56737">
        <ele>718.4</ele>
        <time>2020-05-24T10:06:11Z</time>
      </trkpt>
      <trkpt lat="46.14303" lon="5.56737">
        <ele>718.7</ele>
        <time>2020-05-24T10:06:12Z</time>
      </trkpt>
      <trkpt lat="46.14305" lon="5.56736">
        <ele>719</ele>
        <time>2020-05-24T10:06:13Z</time>
      </trkpt>
      <trkpt lat="46.14309" lon="5.56736">
        <ele>719.6</ele>
        <time>2020-05-24T10:06:15Z</time>
      </trkpt>
      <trkpt lat="46.1431" lon="5.56735">
        <ele>719.8</ele>
        <time>2020-05-24T10:06:16Z</time>
      </trkpt>
      <trkpt lat="46.14313" lon="5.56735">
        <ele>720.4</ele>
        <time>2020-05-24T10:06:18Z</time>
      </trkpt>
      <trkpt lat="46.14314" lon="5.56734">
        <ele>720.5</ele>
        <time>2020-05-24T10:06:19Z</time>
      </trkpt>
      <trkpt lat="46.14317" lon="5.56733">
        <ele>720.9</ele>
        <time>2020-05-24T10:06:20Z</time>
      </trkpt>
      <trkpt lat="46.14318" lon="5.56733">
        <ele>721</ele>
        <time>2020-05-24T10:06:21Z</time>
      </trkpt>
      <trkpt lat="46.14319" lon="5.56733">
        <ele>721.2</ele>
        <time>2020-05-24T10:06:22Z</time>
      </trkpt>
      <trkpt lat="46.14322" lon="5.56732">
        <ele>721.5</ele>
        <time>2020-05-24T10:06:24Z</time>
      </trkpt>
      <trkpt lat="46.14324" lon="5.56731">
        <ele>721.8</ele>
        <time>2020-05-24T10:06:25Z</time>
      </trkpt>
      <trkpt lat="46.14326" lon="5.56731">
        <ele>722.1</ele>
        <time>2020-05-24T10:06:27Z</time>
      </trkpt>
      <trkpt lat="46.14328" lon="5.5673">
        <ele>722.3</ele>
        <time>2020-05-24T10:06:28Z</time>
      </trkpt>
      <trkpt lat="46.14329" lon="5.5673">
        <ele>722.4</ele>
        <time>2020-05-24T10:06:29Z</time>
      </trkpt>
      <trkpt lat="46.14333" lon="5.56728">
        <ele>722.8</ele>
        <time>2020-05-24T10:06:31Z</time>
      </trkpt>
      <trkpt lat="46.14334" lon="5.56728">
        <ele>722.9</ele>
        <time>2020-05-24T10:06:32Z</time>
      </trkpt>
      <trkpt lat="46.14336" lon="5.56727">
        <ele>723.1</ele>
        <time>2020-05-24T10:06:33Z</time>
      </trkpt>
      <trkpt lat="46.14339" lon="5.56726">
        <ele>723.4</ele>
        <time>2020-05-24T10:06:35Z</time>
      </trkpt>
      <trkpt lat="46.1434" lon="5.56726">
        <ele>723.5</ele>
        <time>2020-05-24T10:06:36Z</time>
      </trkpt>
      <trkpt lat="46.14342" lon="5.56725">
        <ele>723.8</ele>
        <time>2020-05-24T10:06:37Z</time>
      </trkpt>
      <trkpt lat="46.14344" lon="5.56724">
        <ele>723.9</ele>
        <time>2020-05-24T10:06:38Z</time>
      </trkpt>
      <trkpt lat="46.14346" lon="5.56724">
        <ele>724.1</ele>
        <time>2020-05-24T10:06:39Z</time>
      </trkpt>
      <trkpt lat="46.14348" lon="5.56724">
        <ele>724.3</ele>
        <time>2020-05-24T10:06:41Z</time>
      </trkpt>
      <trkpt lat="46.1435" lon="5.56724">
        <ele>724.4</ele>
        <time>2020-05-24T10:06:42Z</time>
      </trkpt>
      <trkpt lat="46.14351" lon="5.56723">
        <ele>724.6</ele>
        <time>2020-05-24T10:06:43Z</time>
      </trkpt>
      <trkpt lat="46.14353" lon="5.56723">
        <ele>724.8</ele>
        <time>2020-05-24T10:06:44Z</time>
      </trkpt>
      <trkpt lat="46.14354" lon="5.56723">
        <ele>725</ele>
        <time>2020-05-24T10:06:46Z</time>
      </trkpt>
      <trkpt lat="46.14357" lon="5.56722">
        <ele>725.3</ele>
        <time>2020-05-24T10:06:47Z</time>
      </trkpt>
      <trkpt lat="46.14358" lon="5.56721">
        <ele>725.5</ele>
        <time>2020-05-24T10:06:49Z</time>
      </trkpt>
      <trkpt lat="46.14361" lon="5.5672">
        <ele>725.9</ele>
        <time>2020-05-24T10:06:50Z</time>
      </trkpt>
      <trkpt lat="46.14362" lon="5.5672">
        <ele>726</ele>
        <time>2020-05-24T10:06:51Z</time>
      </trkpt>
      <trkpt lat="46.14365" lon="5.56718">
        <ele>726.5</ele>
        <time>2020-05-24T10:06:53Z</time>
      </trkpt>
      <trkpt lat="46.14366" lon="5.56717">
        <ele>726.6</ele>
        <time>2020-05-24T10:06:54Z</time>
      </trkpt>
      <trkpt lat="46.14369" lon="5.56715">
        <ele>727.1</ele>
        <time>2020-05-24T10:06:56Z</time>
      </trkpt>
      <trkpt lat="46.14371" lon="5.56714">
        <ele>727.4</ele>
        <time>2020-05-24T10:06:57Z</time>
      </trkpt>
      <trkpt lat="46.14374" lon="5.56712">
        <ele>727.9</ele>
        <time>2020-05-24T10:06:59Z</time>
      </trkpt>
      <trkpt lat="46.14376" lon="5.56709">
        <ele>728.3</ele>
        <time>2020-05-24T10:07:01Z</time>
      </trkpt>
      <trkpt lat="46.14378" lon="5.56706">
        <ele>728.8</ele>
        <time>2020-05-24T10:07:02Z</time>
      </trkpt>
      <trkpt lat="46.1438" lon="5.56703">
        <ele>729.4</ele>
        <time>2020-05-24T10:07:03Z</time>
      </trkpt>
      <trkpt lat="46.14382" lon="5.56699">
        <ele>729.9</ele>
        <time>2020-05-24T10:07:05Z</time>
      </trkpt>
      <trkpt lat="46.14383" lon="5.56697">
        <ele>730.3</ele>
        <time>2020-05-24T10:07:06Z</time>
      </trkpt>
      <trkpt lat="46.14384" lon="5.56692">
        <ele>731.6</ele>
        <time>2020-05-24T10:07:08Z</time>
      </trkpt>
      <trkpt lat="46.14384" lon="5.56688">
        <ele>731.7</ele>
        <time>2020-05-24T10:07:09Z</time>
      </trkpt>
      <trkpt lat="46.14385" lon="5.56686">
        <ele>731.8</ele>
        <time>2020-05-24T10:07:10Z</time>
      </trkpt>
      <trkpt lat="46.14385" lon="5.56683">
        <ele>731.9</ele>
        <time>2020-05-24T10:07:11Z</time>
      </trkpt>
      <trkpt lat="46.14385" lon="5.56679">
        <ele>732.1</ele>
        <time>2020-05-24T10:07:12Z</time>
      </trkpt>
      <trkpt lat="46.14385" lon="5.56674">
        <ele>732.2</ele>
        <time>2020-05-24T10:07:14Z</time>
      </trkpt>
      <trkpt lat="46.14385" lon="5.5667">
        <ele>732.4</ele>
        <time>2020-05-24T10:07:15Z</time>
      </trkpt>
      <trkpt lat="46.14385" lon="5.56665">
        <ele>732.6</ele>
        <time>2020-05-24T10:07:17Z</time>
      </trkpt>
      <trkpt lat="46.14386" lon="5.56663">
        <ele>732.7</ele>
        <time>2020-05-24T10:07:18Z</time>
      </trkpt>
      <trkpt lat="46.14386" lon="5.5666">
        <ele>732.8</ele>
        <time>2020-05-24T10:07:19Z</time>
      </trkpt>
      <trkpt lat="46.14387" lon="5.56659">
        <ele>732.8</ele>
        <time>2020-05-24T10:07:21Z</time>
      </trkpt>
      <trkpt lat="46.14387" lon="5.56658">
        <ele>732.9</ele>
        <time>2020-05-24T10:07:22Z</time>
      </trkpt>
      <trkpt lat="46.14387" lon="5.56655">
        <ele>733</ele>
        <time>2020-05-24T10:07:23Z</time>
      </trkpt>
      <trkpt lat="46.14388" lon="5.56653">
        <ele>733.1</ele>
        <time>2020-05-24T10:07:24Z</time>
      </trkpt>
      <trkpt lat="46.14389" lon="5.56649">
        <ele>733.2</ele>
        <time>2020-05-24T10:07:26Z</time>
      </trkpt>
      <trkpt lat="46.14389" lon="5.56648">
        <ele>733.3</ele>
        <time>2020-05-24T10:07:27Z</time>
      </trkpt>
      <trkpt lat="46.1439" lon="5.56644">
        <ele>733.4</ele>
        <time>2020-05-24T10:07:29Z</time>
      </trkpt>
      <trkpt lat="46.14392" lon="5.56637">
        <ele>733.7</ele>
        <time>2020-05-24T10:07:31Z</time>
      </trkpt>
      <trkpt lat="46.14392" lon="5.56635">
        <ele>733.8</ele>
        <time>2020-05-24T10:07:33Z</time>
      </trkpt>
      <trkpt lat="46.14392" lon="5.56634">
        <ele>733.8</ele>
        <time>2020-05-24T10:07:34Z</time>
      </trkpt>
      <trkpt lat="46.14392" lon="5.56632">
        <ele>733.9</ele>
        <time>2020-05-24T10:07:36Z</time>
      </trkpt>
      <trkpt lat="46.14393" lon="5.56631">
        <ele>733.9</ele>
        <time>2020-05-24T10:07:37Z</time>
      </trkpt>
      <trkpt lat="46.14395" lon="5.56627">
        <ele>734.2</ele>
        <time>2020-05-24T10:07:39Z</time>
      </trkpt>
      <trkpt lat="46.14396" lon="5.56624">
        <ele>734.3</ele>
        <time>2020-05-24T10:07:41Z</time>
      </trkpt>
      <trkpt lat="46.14396" lon="5.56622">
        <ele>734.4</ele>
        <time>2020-05-24T10:07:42Z</time>
      </trkpt>
      <trkpt lat="46.14396" lon="5.56621">
        <ele>734.4</ele>
        <time>2020-05-24T10:07:44Z</time>
      </trkpt>
      <trkpt lat="46.14396" lon="5.56619">
        <ele>734.5</ele>
        <time>2020-05-24T10:07:45Z</time>
      </trkpt>
      <trkpt lat="46.14396" lon="5.56618">
        <ele>734.5</ele>
        <time>2020-05-24T10:07:46Z</time>
      </trkpt>
      <trkpt lat="46.14397" lon="5.56615">
        <ele>734.6</ele>
        <time>2020-05-24T10:07:48Z</time>
      </trkpt>
      <trkpt lat="46.14396" lon="5.56612">
        <ele>734.8</ele>
        <time>2020-05-24T10:07:49Z</time>
      </trkpt>
      <trkpt lat="46.14396" lon="5.5661">
        <ele>734.8</ele>
        <time>2020-05-24T10:07:50Z</time>
      </trkpt>
      <trkpt lat="46.14397" lon="5.56607">
        <ele>734.9</ele>
        <time>2020-05-24T10:07:52Z</time>
      </trkpt>
      <trkpt lat="46.14397" lon="5.56606">
        <ele>735</ele>
        <time>2020-05-24T10:07:53Z</time>
      </trkpt>
      <trkpt lat="46.14397" lon="5.56604">
        <ele>735</ele>
        <time>2020-05-24T10:07:55Z</time>
      </trkpt>
      <trkpt lat="46.14398" lon="5.56603">
        <ele>735.1</ele>
        <time>2020-05-24T10:07:56Z</time>
      </trkpt>
      <trkpt lat="46.14398" lon="5.56602">
        <ele>735.2</ele>
        <time>2020-05-24T10:07:58Z</time>
      </trkpt>
      <trkpt lat="46.14399" lon="5.566">
        <ele>735.2</ele>
        <time>2020-05-24T10:07:59Z</time>
      </trkpt>
      <trkpt lat="46.144" lon="5.566">
        <ele>735.2</ele>
        <time>2020-05-24T10:08:01Z</time>
      </trkpt>
      <trkpt lat="46.14401" lon="5.56601">
        <ele>735.2</ele>
        <time>2020-05-24T10:08:02Z</time>
      </trkpt>
      <trkpt lat="46.14401" lon="5.56601">
        <ele>735.3</ele>
        <time>2020-05-24T10:08:04Z</time>
      </trkpt>
      <trkpt lat="46.14402" lon="5.566">
        <ele>735.3</ele>
        <time>2020-05-24T10:08:05Z</time>
      </trkpt>
      <trkpt lat="46.14402" lon="5.56601">
        <ele>735.3</ele>
        <time>2020-05-24T10:08:07Z</time>
      </trkpt>
      <trkpt lat="46.14402" lon="5.56601">
        <ele>735.3</ele>
        <time>2020-05-24T10:08:08Z</time>
      </trkpt>
      <trkpt lat="46.14402" lon="5.56601">
        <ele>735.3</ele>
        <time>2020-05-24T10:08:10Z</time>
      </trkpt>
      <trkpt lat="46.14402" lon="5.56601">
        <ele>735.3</ele>
        <time>2020-05-24T10:08:12Z</time>
      </trkpt>
      <trkpt lat="46.14403" lon="5.56601">
        <ele>735.3</ele>
        <time>2020-05-24T10:09:10Z</time>
      </trkpt>
      <trkpt lat="46.14403" lon="5.56602">
        <ele>735.3</ele>
        <time>2020-05-24T10:09:12Z</time>
      </trkpt>
      <trkpt lat="46.14403" lon="5.56602">
        <ele>735.3</ele>
        <time>2020-05-24T10:09:14Z</time>
      </trkpt>
      <trkpt lat="46.14403" lon="5.56602">
        <ele>735.3</ele>
        <time>2020-05-24T10:09:15Z</time>
      </trkpt>
      <trkpt lat="46.14403" lon="5.56604">
        <ele>735.4</ele>
        <time>2020-05-24T10:09:17Z</time>
      </trkpt>
      <trkpt lat="46.14403" lon="5.56604">
        <ele>735.4</ele>
        <time>2020-05-24T10:09:18Z</time>
      </trkpt>
      <trkpt lat="46.14403" lon="5.56605">
        <ele>735.4</ele>
        <time>2020-05-24T10:09:19Z</time>
      </trkpt>
      <trkpt lat="46.14403" lon="5.56605">
        <ele>735.4</ele>
        <time>2020-05-24T10:09:21Z</time>
      </trkpt>
      <trkpt lat="46.14403" lon="5.56605">
        <ele>735.4</ele>
        <time>2020-05-24T10:09:22Z</time>
      </trkpt>
      <trkpt lat="46.14403" lon="5.56605">
        <ele>735.4</ele>
        <time>2020-05-24T10:09:24Z</time>
      </trkpt>
      <trkpt lat="46.14403" lon="5.56605">
        <ele>735.4</ele>
        <time>2020-05-24T10:09:25Z</time>
      </trkpt>
      <trkpt lat="46.14403" lon="5.56605">
        <ele>735.4</ele>
        <time>2020-05-24T10:09:27Z</time>
      </trkpt>
      <trkpt lat="46.14403" lon="5.56605">
        <ele>735.4</ele>
        <time>2020-05-24T10:09:29Z</time>
      </trkpt>
      <trkpt lat="46.14403" lon="5.56605">
        <ele>735.4</ele>
        <time>2020-05-24T10:09:30Z</time>
      </trkpt>
      <trkpt lat="46.14403" lon="5.56605">
        <ele>735.4</ele>
        <time>2020-05-24T10:09:32Z</time>
      </trkpt>
      <trkpt lat="46.14403" lon="5.56605">
        <ele>735.3</ele>
        <time>2020-05-24T10:09:34Z</time>
      </trkpt>
      <trkpt lat="46.14403" lon="5.56605">
        <ele>735.3</ele>
        <time>2020-05-24T10:09:36Z</time>
      </trkpt>
      <trkpt lat="46.14403" lon="5.56605">
        <ele>735.3</ele>
        <time>2020-05-24T10:09:38Z</time>
      </trkpt>
      <trkpt lat="46.14403" lon="5.56605">
        <ele>735.3</ele>
        <time>2020-05-24T10:09:39Z</time>
      </trkpt>
      <trkpt lat="46.14403" lon="5.56605">
        <ele>735.3</ele>
        <time>2020-05-24T10:09:40Z</time>
      </trkpt>
      <trkpt lat="46.14403" lon="5.56605">
        <ele>735.3</ele>
        <time>2020-05-24T10:09:42Z</time>
      </trkpt>
      <trkpt lat="46.14404" lon="5.56603">
        <ele>735.2</ele>
        <time>2020-05-24T10:09:44Z</time>
      </trkpt>
      <trkpt lat="46.14404" lon="5.56601">
        <ele>735.2</ele>
        <time>2020-05-24T10:09:45Z</time>
      </trkpt>
      <trkpt lat="46.14404" lon="5.56599">
        <ele>735.2</ele>
        <time>2020-05-24T10:09:46Z</time>
      </trkpt>
      <trkpt lat="46.14405" lon="5.56598">
        <ele>735</ele>
        <time>2020-05-24T10:09:48Z</time>
      </trkpt>
      <trkpt lat="46.14404" lon="5.56599">
        <ele>735.2</ele>
        <time>2020-05-24T10:09:50Z</time>
      </trkpt>
      <trkpt lat="46.14404" lon="5.566">
        <ele>735.1</ele>
        <time>2020-05-24T10:09:52Z</time>
      </trkpt>
      <trkpt lat="46.14404" lon="5.566">
        <ele>735.1</ele>
        <time>2020-05-24T10:09:53Z</time>
      </trkpt>
      <trkpt lat="46.14404" lon="5.56601">
        <ele>735.1</ele>
        <time>2020-05-24T10:09:55Z</time>
      </trkpt>
      <trkpt lat="46.14404" lon="5.56599">
        <ele>734.9</ele>
        <time>2020-05-24T10:09:56Z</time>
      </trkpt>
      <trkpt lat="46.14404" lon="5.56594">
        <ele>734.7</ele>
        <time>2020-05-24T10:10:12Z</time>
      </trkpt>
      <trkpt lat="46.14404" lon="5.56592">
        <ele>734.7</ele>
        <time>2020-05-24T10:10:14Z</time>
      </trkpt>
      <trkpt lat="46.14404" lon="5.56592">
        <ele>734.7</ele>
        <time>2020-05-24T10:10:16Z</time>
      </trkpt>
      <trkpt lat="46.14404" lon="5.56592">
        <ele>734.7</ele>
        <time>2020-05-24T10:10:18Z</time>
      </trkpt>
      <trkpt lat="46.14404" lon="5.56592">
        <ele>734.7</ele>
        <time>2020-05-24T10:10:19Z</time>
      </trkpt>
      <trkpt lat="46.14404" lon="5.56592">
        <ele>734.7</ele>
        <time>2020-05-24T10:10:21Z</time>
      </trkpt>
      <trkpt lat="46.14404" lon="5.56592">
        <ele>734.7</ele>
        <time>2020-05-24T10:10:22Z</time>
      </trkpt>
      <trkpt lat="46.14404" lon="5.56592">
        <ele>734.7</ele>
        <time>2020-05-24T10:10:23Z</time>
      </trkpt>
      <trkpt lat="46.14404" lon="5.56592">
        <ele>734.7</ele>
        <time>2020-05-24T10:10:25Z</time>
      </trkpt>
      <trkpt lat="46.14404" lon="5.56592">
        <ele>734.7</ele>
        <time>2020-05-24T10:10:27Z</time>
      </trkpt>
      <trkpt lat="46.14404" lon="5.56592">
        <ele>734.7</ele>
        <time>2020-05-24T10:10:28Z</time>
      </trkpt>
      <trkpt lat="46.14403" lon="5.56592">
        <ele>734.7</ele>
        <time>2020-05-24T10:10:29Z</time>
      </trkpt>
      <trkpt lat="46.14403" lon="5.56593">
        <ele>734.7</ele>
        <time>2020-05-24T10:10:30Z</time>
      </trkpt>
      <trkpt lat="46.14403" lon="5.56592">
        <ele>734.7</ele>
        <time>2020-05-24T10:10:31Z</time>
      </trkpt>
      <trkpt lat="46.14403" lon="5.56591">
        <ele>734.7</ele>
        <time>2020-05-24T10:10:33Z</time>
      </trkpt>
      <trkpt lat="46.14403" lon="5.56591">
        <ele>734.7</ele>
        <time>2020-05-24T10:10:34Z</time>
      </trkpt>
      <trkpt lat="46.14403" lon="5.56591">
        <ele>734.7</ele>
        <time>2020-05-24T10:10:36Z</time>
      </trkpt>
      <trkpt lat="46.14401" lon="5.5659">
        <ele>734.4</ele>
        <time>2020-05-24T10:10:38Z</time>
      </trkpt>
      <trkpt lat="46.144" lon="5.5659">
        <ele>734.4</ele>
        <time>2020-05-24T10:10:40Z</time>
      </trkpt>
      <trkpt lat="46.144" lon="5.56591">
        <ele>734.4</ele>
        <time>2020-05-24T10:10:41Z</time>
      </trkpt>
      <trkpt lat="46.144" lon="5.56591">
        <ele>734.6</ele>
        <time>2020-05-24T10:10:43Z</time>
      </trkpt>
      <trkpt lat="46.144" lon="5.56591">
        <ele>734.6</ele>
        <time>2020-05-24T10:10:45Z</time>
      </trkpt>
      <trkpt lat="46.144" lon="5.56591">
        <ele>734.6</ele>
        <time>2020-05-24T10:10:46Z</time>
      </trkpt>
      <trkpt lat="46.144" lon="5.56591">
        <ele>734.6</ele>
        <time>2020-05-24T10:10:48Z</time>
      </trkpt>
      <trkpt lat="46.144" lon="5.56588">
        <ele>734.4</ele>
        <time>2020-05-24T10:12:31Z</time>
      </trkpt>
      <trkpt lat="46.14399" lon="5.56587">
        <ele>734.3</ele>
        <time>2020-05-24T10:12:32Z</time>
      </trkpt>
      <trkpt lat="46.14398" lon="5.56581">
        <ele>733.8</ele>
        <time>2020-05-24T10:12:34Z</time>
      </trkpt>
      <trkpt lat="46.14395" lon="5.56575">
        <ele>733.4</ele>
        <time>2020-05-24T10:12:36Z</time>
      </trkpt>
      <trkpt lat="46.14393" lon="5.56573">
        <ele>733</ele>
        <time>2020-05-24T10:12:37Z</time>
      </trkpt>
      <trkpt lat="46.14391" lon="5.56571">
        <ele>733</ele>
        <time>2020-05-24T10:12:38Z</time>
      </trkpt>
      <trkpt lat="46.1438" lon="5.56552">
        <ele>731.2</ele>
        <time>2020-05-24T10:12:40Z</time>
      </trkpt>
      <trkpt lat="46.14368" lon="5.56533">
        <ele>728.5</ele>
        <time>2020-05-24T10:12:42Z</time>
      </trkpt>
      <trkpt lat="46.14356" lon="5.56517">
        <ele>725.9</ele>
        <time>2020-05-24T10:12:44Z</time>
      </trkpt>
      <trkpt lat="46.14346" lon="5.56503">
        <ele>724.2</ele>
        <time>2020-05-24T10:12:46Z</time>
      </trkpt>
      <trkpt lat="46.14338" lon="5.56487">
        <ele>722</ele>
        <time>2020-05-24T10:12:48Z</time>
      </trkpt>
      <trkpt lat="46.14336" lon="5.56479">
        <ele>720.8</ele>
        <time>2020-05-24T10:12:49Z</time>
      </trkpt>
      <trkpt lat="46.14334" lon="5.5647">
        <ele>719.7</ele>
        <time>2020-05-24T10:12:50Z</time>
      </trkpt>
      <trkpt lat="46.14332" lon="5.56465">
        <ele>719.3</ele>
        <time>2020-05-24T10:12:51Z</time>
      </trkpt>
      <trkpt lat="46.14329" lon="5.56458">
        <ele>719</ele>
        <time>2020-05-24T10:12:52Z</time>
      </trkpt>
      <trkpt lat="46.14325" lon="5.56441">
        <ele>717.1</ele>
        <time>2020-05-24T10:12:54Z</time>
      </trkpt>
      <trkpt lat="46.14323" lon="5.5643">
        <ele>715.2</ele>
        <time>2020-05-24T10:12:55Z</time>
      </trkpt>
      <trkpt lat="46.14321" lon="5.5643">
        <ele>715.2</ele>
        <time>2020-05-24T10:12:57Z</time>
      </trkpt>
      <trkpt lat="46.1432" lon="5.56427">
        <ele>714.6</ele>
        <time>2020-05-24T10:12:58Z</time>
      </trkpt>
      <trkpt lat="46.14315" lon="5.56415">
        <ele>713.4</ele>
        <time>2020-05-24T10:13:00Z</time>
      </trkpt>
      <trkpt lat="46.14312" lon="5.56409">
        <ele>712.1</ele>
        <time>2020-05-24T10:13:01Z</time>
      </trkpt>
      <trkpt lat="46.1431" lon="5.56403">
        <ele>711.6</ele>
        <time>2020-05-24T10:13:02Z</time>
      </trkpt>
      <trkpt lat="46.14308" lon="5.564">
        <ele>711.1</ele>
        <time>2020-05-24T10:13:04Z</time>
      </trkpt>
      <trkpt lat="46.14305" lon="5.56398">
        <ele>711.3</ele>
        <time>2020-05-24T10:13:05Z</time>
      </trkpt>
      <trkpt lat="46.14303" lon="5.5639">
        <ele>710.1</ele>
        <time>2020-05-24T10:13:07Z</time>
      </trkpt>
      <trkpt lat="46.14301" lon="5.56384">
        <ele>708.4</ele>
        <time>2020-05-24T10:13:08Z</time>
      </trkpt>
      <trkpt lat="46.14298" lon="5.56378">
        <ele>707.8</ele>
        <time>2020-05-24T10:13:09Z</time>
      </trkpt>
      <trkpt lat="46.14296" lon="5.56374">
        <ele>707.3</ele>
        <time>2020-05-24T10:13:11Z</time>
      </trkpt>
      <trkpt lat="46.14294" lon="5.56368">
        <ele>706.7</ele>
        <time>2020-05-24T10:13:12Z</time>
      </trkpt>
      <trkpt lat="46.14291" lon="5.56357">
        <ele>704.6</ele>
        <time>2020-05-24T10:13:14Z</time>
      </trkpt>
      <trkpt lat="46.14288" lon="5.56347">
        <ele>703.3</ele>
        <time>2020-05-24T10:13:15Z</time>
      </trkpt>
      <trkpt lat="46.14285" lon="5.5634">
        <ele>702</ele>
        <time>2020-05-24T10:13:16Z</time>
      </trkpt>
      <trkpt lat="46.14277" lon="5.56321">
        <ele>699.8</ele>
        <time>2020-05-24T10:13:18Z</time>
      </trkpt>
      <trkpt lat="46.14274" lon="5.56312">
        <ele>698.8</ele>
        <time>2020-05-24T10:13:19Z</time>
      </trkpt>
      <trkpt lat="46.14271" lon="5.56303">
        <ele>697.6</ele>
        <time>2020-05-24T10:13:20Z</time>
      </trkpt>
      <trkpt lat="46.14267" lon="5.5629">
        <ele>695.9</ele>
        <time>2020-05-24T10:13:22Z</time>
      </trkpt>
      <trkpt lat="46.14265" lon="5.56287">
        <ele>695.2</ele>
        <time>2020-05-24T10:13:23Z</time>
      </trkpt>
      <trkpt lat="46.14264" lon="5.56285">
        <ele>694.8</ele>
        <time>2020-05-24T10:13:24Z</time>
      </trkpt>
      <trkpt lat="46.14263" lon="5.56284">
        <ele>694.8</ele>
        <time>2020-05-24T10:13:26Z</time>
      </trkpt>
      <trkpt lat="46.14262" lon="5.56284">
        <ele>694.8</ele>
        <time>2020-05-24T10:13:27Z</time>
      </trkpt>
      <trkpt lat="46.14261" lon="5.56285">
        <ele>695</ele>
        <time>2020-05-24T10:13:29Z</time>
      </trkpt>
      <trkpt lat="46.1426" lon="5.56286">
        <ele>695</ele>
        <time>2020-05-24T10:13:31Z</time>
      </trkpt>
      <trkpt lat="46.14259" lon="5.56284">
        <ele>695</ele>
        <time>2020-05-24T10:13:32Z</time>
      </trkpt>
      <trkpt lat="46.14258" lon="5.56283">
        <ele>695.2</ele>
        <time>2020-05-24T10:13:34Z</time>
      </trkpt>
      <trkpt lat="46.14257" lon="5.56283">
        <ele>695.2</ele>
        <time>2020-05-24T10:13:35Z</time>
      </trkpt>
      <trkpt lat="46.14256" lon="5.56282">
        <ele>695.2</ele>
        <time>2020-05-24T10:13:36Z</time>
      </trkpt>
      <trkpt lat="46.14255" lon="5.56281">
        <ele>694.8</ele>
        <time>2020-05-24T10:13:37Z</time>
      </trkpt>
      <trkpt lat="46.14252" lon="5.56276">
        <ele>694.5</ele>
        <time>2020-05-24T10:13:39Z</time>
      </trkpt>
      <trkpt lat="46.14249" lon="5.56272">
        <ele>694.2</ele>
        <time>2020-05-24T10:13:40Z</time>
      </trkpt>
      <trkpt lat="46.14247" lon="5.56268">
        <ele>693.6</ele>
        <time>2020-05-24T10:13:42Z</time>
      </trkpt>
      <trkpt lat="46.14247" lon="5.56268">
        <ele>693.9</ele>
        <time>2020-05-24T10:13:43Z</time>
      </trkpt>
      <trkpt lat="46.14245" lon="5.56266">
        <ele>693.8</ele>
        <time>2020-05-24T10:13:44Z</time>
      </trkpt>
      <trkpt lat="46.14244" lon="5.56265">
        <ele>693.8</ele>
        <time>2020-05-24T10:13:45Z</time>
      </trkpt>
      <trkpt lat="46.14242" lon="5.56262">
        <ele>693.5</ele>
        <time>2020-05-24T10:13:46Z</time>
      </trkpt>
      <trkpt lat="46.1424" lon="5.56259">
        <ele>693</ele>
        <time>2020-05-24T10:13:47Z</time>
      </trkpt>
      <trkpt lat="46.14238" lon="5.56256">
        <ele>693</ele>
        <time>2020-05-24T10:13:48Z</time>
      </trkpt>
      <trkpt lat="46.14236" lon="5.56251">
        <ele>691.9</ele>
        <time>2020-05-24T10:13:50Z</time>
      </trkpt>
      <trkpt lat="46.14233" lon="5.56245">
        <ele>691.4</ele>
        <time>2020-05-24T10:13:51Z</time>
      </trkpt>
      <trkpt lat="46.14232" lon="5.56241">
        <ele>690.8</ele>
        <time>2020-05-24T10:13:52Z</time>
      </trkpt>
      <trkpt lat="46.14231" lon="5.56237">
        <ele>690.5</ele>
        <time>2020-05-24T10:13:54Z</time>
      </trkpt>
      <trkpt lat="46.14228" lon="5.56234">
        <ele>690.2</ele>
        <time>2020-05-24T10:13:55Z</time>
      </trkpt>
      <trkpt lat="46.14226" lon="5.56232">
        <ele>690.4</ele>
        <time>2020-05-24T10:13:57Z</time>
      </trkpt>
      <trkpt lat="46.14223" lon="5.5623">
        <ele>690.4</ele>
        <time>2020-05-24T10:13:58Z</time>
      </trkpt>
      <trkpt lat="46.1422" lon="5.56228">
        <ele>690.4</ele>
        <time>2020-05-24T10:13:59Z</time>
      </trkpt>
      <trkpt lat="46.14219" lon="5.56228">
        <ele>690.4</ele>
        <time>2020-05-24T10:14:00Z</time>
      </trkpt>
      <trkpt lat="46.14218" lon="5.56225">
        <ele>689.8</ele>
        <time>2020-05-24T10:14:01Z</time>
      </trkpt>
      <trkpt lat="46.14216" lon="5.56222">
        <ele>690</ele>
        <time>2020-05-24T10:14:03Z</time>
      </trkpt>
      <trkpt lat="46.14212" lon="5.5622">
        <ele>689.6</ele>
        <time>2020-05-24T10:14:04Z</time>
      </trkpt>
      <trkpt lat="46.14209" lon="5.56214">
        <ele>689.1</ele>
        <time>2020-05-24T10:14:05Z</time>
      </trkpt>
      <trkpt lat="46.14207" lon="5.56211">
        <ele>688.6</ele>
        <time>2020-05-24T10:14:06Z</time>
      </trkpt>
      <trkpt lat="46.14201" lon="5.562">
        <ele>687</ele>
        <time>2020-05-24T10:14:07Z</time>
      </trkpt>
      <trkpt lat="46.14195" lon="5.5619">
        <ele>686.1</ele>
        <time>2020-05-24T10:14:09Z</time>
      </trkpt>
      <trkpt lat="46.14191" lon="5.56182">
        <ele>685.1</ele>
        <time>2020-05-24T10:14:10Z</time>
      </trkpt>
      <trkpt lat="46.14187" lon="5.56178">
        <ele>684.6</ele>
        <time>2020-05-24T10:14:12Z</time>
      </trkpt>
      <trkpt lat="46.14186" lon="5.56174">
        <ele>684.7</ele>
        <time>2020-05-24T10:14:13Z</time>
      </trkpt>
      <trkpt lat="46.14184" lon="5.56172">
        <ele>684.2</ele>
        <time>2020-05-24T10:14:14Z</time>
      </trkpt>
      <trkpt lat="46.14181" lon="5.56169">
        <ele>683.5</ele>
        <time>2020-05-24T10:14:16Z</time>
      </trkpt>
      <trkpt lat="46.14179" lon="5.56169">
        <ele>683.6</ele>
        <time>2020-05-24T10:14:17Z</time>
      </trkpt>
      <trkpt lat="46.14178" lon="5.56169">
        <ele>683.7</ele>
        <time>2020-05-24T10:14:18Z</time>
      </trkpt>
      <trkpt lat="46.14177" lon="5.56168">
        <ele>683.7</ele>
        <time>2020-05-24T10:14:20Z</time>
      </trkpt>
      <trkpt lat="46.14175" lon="5.56168">
        <ele>683.8</ele>
        <time>2020-05-24T10:14:21Z</time>
      </trkpt>
      <trkpt lat="46.14174" lon="5.56168">
        <ele>683.8</ele>
        <time>2020-05-24T10:14:22Z</time>
      </trkpt>
      <trkpt lat="46.14172" lon="5.56166">
        <ele>683.8</ele>
        <time>2020-05-24T10:14:23Z</time>
      </trkpt>
      <trkpt lat="46.1417" lon="5.56164">
        <ele>683.3</ele>
        <time>2020-05-24T10:14:25Z</time>
      </trkpt>
      <trkpt lat="46.14169" lon="5.56159">
        <ele>682.7</ele>
        <time>2020-05-24T10:14:26Z</time>
      </trkpt>
      <trkpt lat="46.14168" lon="5.56158">
        <ele>682.7</ele>
        <time>2020-05-24T10:14:27Z</time>
      </trkpt>
      <trkpt lat="46.14167" lon="5.56156">
        <ele>682.1</ele>
        <time>2020-05-24T10:14:29Z</time>
      </trkpt>
      <trkpt lat="46.14166" lon="5.56155">
        <ele>682.2</ele>
        <time>2020-05-24T10:14:31Z</time>
      </trkpt>
      <trkpt lat="46.14164" lon="5.56153">
        <ele>682.2</ele>
        <time>2020-05-24T10:14:32Z</time>
      </trkpt>
      <trkpt lat="46.14164" lon="5.56152">
        <ele>681.6</ele>
        <time>2020-05-24T10:14:33Z</time>
      </trkpt>
      <trkpt lat="46.14162" lon="5.5615">
        <ele>681.7</ele>
        <time>2020-05-24T10:14:35Z</time>
      </trkpt>
      <trkpt lat="46.14161" lon="5.56149">
        <ele>681.7</ele>
        <time>2020-05-24T10:14:36Z</time>
      </trkpt>
      <trkpt lat="46.14158" lon="5.56147">
        <ele>681.3</ele>
        <time>2020-05-24T10:14:38Z</time>
      </trkpt>
      <trkpt lat="46.14156" lon="5.56144">
        <ele>680.8</ele>
        <time>2020-05-24T10:14:39Z</time>
      </trkpt>
      <trkpt lat="46.14155" lon="5.56141">
        <ele>680.8</ele>
        <time>2020-05-24T10:14:41Z</time>
      </trkpt>
      <trkpt lat="46.14154" lon="5.5614">
        <ele>680.4</ele>
        <time>2020-05-24T10:14:42Z</time>
      </trkpt>
      <trkpt lat="46.14152" lon="5.56137">
        <ele>680.5</ele>
        <time>2020-05-24T10:14:44Z</time>
      </trkpt>
      <trkpt lat="46.14149" lon="5.56134">
        <ele>679.9</ele>
        <time>2020-05-24T10:14:45Z</time>
      </trkpt>
      <trkpt lat="46.14147" lon="5.56131">
        <ele>679.4</ele>
        <time>2020-05-24T10:14:46Z</time>
      </trkpt>
      <trkpt lat="46.14143" lon="5.56129">
        <ele>679.5</ele>
        <time>2020-05-24T10:14:47Z</time>
      </trkpt>
      <trkpt lat="46.14142" lon="5.56128">
        <ele>679.7</ele>
        <time>2020-05-24T10:14:48Z</time>
      </trkpt>
      <trkpt lat="46.14137" lon="5.56125">
        <ele>679.3</ele>
        <time>2020-05-24T10:14:50Z</time>
      </trkpt>
      <trkpt lat="46.14132" lon="5.56122">
        <ele>678.7</ele>
        <time>2020-05-24T10:14:51Z</time>
      </trkpt>
      <trkpt lat="46.14126" lon="5.56117">
        <ele>678.2</ele>
        <time>2020-05-24T10:14:52Z</time>
      </trkpt>
      <trkpt lat="46.14119" lon="5.56111">
        <ele>677.6</ele>
        <time>2020-05-24T10:14:53Z</time>
      </trkpt>
      <trkpt lat="46.14109" lon="5.56103">
        <ele>676.3</ele>
        <time>2020-05-24T10:14:55Z</time>
      </trkpt>
      <trkpt lat="46.14103" lon="5.56096">
        <ele>675</ele>
        <time>2020-05-24T10:14:56Z</time>
      </trkpt>
      <trkpt lat="46.14096" lon="5.56087">
        <ele>673.4</ele>
        <time>2020-05-24T10:14:57Z</time>
      </trkpt>
      <trkpt lat="46.14091" lon="5.56082">
        <ele>672.3</ele>
        <time>2020-05-24T10:14:58Z</time>
      </trkpt>
      <trkpt lat="46.14084" lon="5.56076">
        <ele>671.2</ele>
        <time>2020-05-24T10:14:59Z</time>
      </trkpt>
      <trkpt lat="46.1408" lon="5.56071">
        <ele>670.2</ele>
        <time>2020-05-24T10:15:01Z</time>
      </trkpt>
      <trkpt lat="46.14078" lon="5.56069">
        <ele>669.3</ele>
        <time>2020-05-24T10:15:02Z</time>
      </trkpt>
      <trkpt lat="46.14077" lon="5.56067">
        <ele>668.4</ele>
        <time>2020-05-24T10:15:03Z</time>
      </trkpt>
      <trkpt lat="46.14076" lon="5.56066">
        <ele>668.3</ele>
        <time>2020-05-24T10:15:04Z</time>
      </trkpt>
      <trkpt lat="46.14076" lon="5.56065">
        <ele>668.3</ele>
        <time>2020-05-24T10:15:05Z</time>
      </trkpt>
      <trkpt lat="46.14075" lon="5.56063">
        <ele>668.3</ele>
        <time>2020-05-24T10:15:07Z</time>
      </trkpt>
      <trkpt lat="46.14075" lon="5.56062">
        <ele>667.5</ele>
        <time>2020-05-24T10:15:08Z</time>
      </trkpt>
      <trkpt lat="46.14075" lon="5.56061">
        <ele>667.5</ele>
        <time>2020-05-24T10:15:09Z</time>
      </trkpt>
      <trkpt lat="46.14075" lon="5.56059">
        <ele>667.5</ele>
        <time>2020-05-24T10:15:10Z</time>
      </trkpt>
      <trkpt lat="46.14073" lon="5.56056">
        <ele>666.6</ele>
        <time>2020-05-24T10:15:12Z</time>
      </trkpt>
      <trkpt lat="46.14071" lon="5.56055">
        <ele>666.6</ele>
        <time>2020-05-24T10:15:13Z</time>
      </trkpt>
      <trkpt lat="46.14068" lon="5.56054">
        <ele>666.6</ele>
        <time>2020-05-24T10:15:15Z</time>
      </trkpt>
      <trkpt lat="46.14066" lon="5.56053">
        <ele>665.8</ele>
        <time>2020-05-24T10:15:17Z</time>
      </trkpt>
      <trkpt lat="46.14064" lon="5.56053">
        <ele>665.8</ele>
        <time>2020-05-24T10:15:19Z</time>
      </trkpt>
      <trkpt lat="46.14063" lon="5.56052">
        <ele>665.7</ele>
        <time>2020-05-24T10:15:20Z</time>
      </trkpt>
      <trkpt lat="46.14062" lon="5.56052">
        <ele>665.7</ele>
        <time>2020-05-24T10:15:21Z</time>
      </trkpt>
      <trkpt lat="46.1406" lon="5.56051">
        <ele>665.7</ele>
        <time>2020-05-24T10:15:23Z</time>
      </trkpt>
      <trkpt lat="46.14059" lon="5.56051">
        <ele>665.7</ele>
        <time>2020-05-24T10:15:24Z</time>
      </trkpt>
      <trkpt lat="46.14057" lon="5.56048">
        <ele>665</ele>
        <time>2020-05-24T10:15:25Z</time>
      </trkpt>
      <trkpt lat="46.14054" lon="5.56046">
        <ele>665</ele>
        <time>2020-05-24T10:15:26Z</time>
      </trkpt>
      <trkpt lat="46.14051" lon="5.56043">
        <ele>664.2</ele>
        <time>2020-05-24T10:15:27Z</time>
      </trkpt>
      <trkpt lat="46.14048" lon="5.56041">
        <ele>663.5</ele>
        <time>2020-05-24T10:15:29Z</time>
      </trkpt>
      <trkpt lat="46.14048" lon="5.5604">
        <ele>663.5</ele>
        <time>2020-05-24T10:15:30Z</time>
      </trkpt>
      <trkpt lat="46.14045" lon="5.56039">
        <ele>663.5</ele>
        <time>2020-05-24T10:15:32Z</time>
      </trkpt>
      <trkpt lat="46.14044" lon="5.56038">
        <ele>663.6</ele>
        <time>2020-05-24T10:15:33Z</time>
      </trkpt>
      <trkpt lat="46.14044" lon="5.56038">
        <ele>663.5</ele>
        <time>2020-05-24T10:15:34Z</time>
      </trkpt>
      <trkpt lat="46.14042" lon="5.56037">
        <ele>662.7</ele>
        <time>2020-05-24T10:15:36Z</time>
      </trkpt>
      <trkpt lat="46.14042" lon="5.56036">
        <ele>662.7</ele>
        <time>2020-05-24T10:15:37Z</time>
      </trkpt>
      <trkpt lat="46.1404" lon="5.56033">
        <ele>662.8</ele>
        <time>2020-05-24T10:15:38Z</time>
      </trkpt>
      <trkpt lat="46.14038" lon="5.56032">
        <ele>662</ele>
        <time>2020-05-24T10:15:40Z</time>
      </trkpt>
      <trkpt lat="46.14037" lon="5.56031">
        <ele>662</ele>
        <time>2020-05-24T10:15:41Z</time>
      </trkpt>
      <trkpt lat="46.14033" lon="5.56028">
        <ele>661.2</ele>
        <time>2020-05-24T10:15:42Z</time>
      </trkpt>
      <trkpt lat="46.14029" lon="5.56023">
        <ele>660.6</ele>
        <time>2020-05-24T10:15:44Z</time>
      </trkpt>
      <trkpt lat="46.14027" lon="5.56015">
        <ele>659.1</ele>
        <time>2020-05-24T10:15:45Z</time>
      </trkpt>
      <trkpt lat="46.14025" lon="5.56008">
        <ele>658.3</ele>
        <time>2020-05-24T10:15:46Z</time>
      </trkpt>
      <trkpt lat="46.14022" lon="5.55998">
        <ele>656.1</ele>
        <time>2020-05-24T10:15:47Z</time>
      </trkpt>
      <trkpt lat="46.1402" lon="5.55988">
        <ele>654.5</ele>
        <time>2020-05-24T10:15:49Z</time>
      </trkpt>
      <trkpt lat="46.14017" lon="5.5598">
        <ele>652.8</ele>
        <time>2020-05-24T10:15:50Z</time>
      </trkpt>
      <trkpt lat="46.14015" lon="5.55976">
        <ele>651.9</ele>
        <time>2020-05-24T10:15:51Z</time>
      </trkpt>
      <trkpt lat="46.14013" lon="5.5597">
        <ele>651.1</ele>
        <time>2020-05-24T10:15:52Z</time>
      </trkpt>
      <trkpt lat="46.14011" lon="5.55964">
        <ele>650.5</ele>
        <time>2020-05-24T10:15:54Z</time>
      </trkpt>
      <trkpt lat="46.14009" lon="5.55959">
        <ele>649.1</ele>
        <time>2020-05-24T10:15:55Z</time>
      </trkpt>
      <trkpt lat="46.14007" lon="5.55955">
        <ele>648.2</ele>
        <time>2020-05-24T10:15:56Z</time>
      </trkpt>
      <trkpt lat="46.14008" lon="5.55949">
        <ele>647.3</ele>
        <time>2020-05-24T10:15:58Z</time>
      </trkpt>
      <trkpt lat="46.14009" lon="5.55947">
        <ele>647</ele>
        <time>2020-05-24T10:16:00Z</time>
      </trkpt>
      <trkpt lat="46.1401" lon="5.55946">
        <ele>646</ele>
        <time>2020-05-24T10:16:01Z</time>
      </trkpt>
      <trkpt lat="46.14011" lon="5.55938">
        <ele>643.9</ele>
        <time>2020-05-24T10:16:03Z</time>
      </trkpt>
      <trkpt lat="46.14012" lon="5.55931">
        <ele>642.9</ele>
        <time>2020-05-24T10:16:04Z</time>
      </trkpt>
      <trkpt lat="46.14014" lon="5.55925">
        <ele>640.5</ele>
        <time>2020-05-24T10:16:06Z</time>
      </trkpt>
      <trkpt lat="46.14015" lon="5.55917">
        <ele>639.5</ele>
        <time>2020-05-24T10:16:07Z</time>
      </trkpt>
      <trkpt lat="46.14012" lon="5.55913">
        <ele>638.4</ele>
        <time>2020-05-24T10:16:08Z</time>
      </trkpt>
      <trkpt lat="46.1401" lon="5.55911">
        <ele>637.6</ele>
        <time>2020-05-24T10:16:09Z</time>
      </trkpt>
      <trkpt lat="46.14007" lon="5.55908">
        <ele>636.1</ele>
        <time>2020-05-24T10:16:11Z</time>
      </trkpt>
      <trkpt lat="46.14007" lon="5.55907">
        <ele>636.1</ele>
        <time>2020-05-24T10:16:12Z</time>
      </trkpt>
      <trkpt lat="46.14004" lon="5.55902">
        <ele>635.3</ele>
        <time>2020-05-24T10:16:14Z</time>
      </trkpt>
      <trkpt lat="46.14003" lon="5.55899">
        <ele>634.4</ele>
        <time>2020-05-24T10:16:15Z</time>
      </trkpt>
      <trkpt lat="46.14002" lon="5.55897">
        <ele>634.3</ele>
        <time>2020-05-24T10:16:17Z</time>
      </trkpt>
      <trkpt lat="46.14" lon="5.55892">
        <ele>633</ele>
        <time>2020-05-24T10:16:18Z</time>
      </trkpt>
      <trkpt lat="46.14" lon="5.5589">
        <ele>632.1</ele>
        <time>2020-05-24T10:16:19Z</time>
      </trkpt>
      <trkpt lat="46.13999" lon="5.55886">
        <ele>630.8</ele>
        <time>2020-05-24T10:16:20Z</time>
      </trkpt>
      <trkpt lat="46.13999" lon="5.55884">
        <ele>630.8</ele>
        <time>2020-05-24T10:16:21Z</time>
      </trkpt>
      <trkpt lat="46.14" lon="5.55879">
        <ele>629.6</ele>
        <time>2020-05-24T10:16:23Z</time>
      </trkpt>
      <trkpt lat="46.13999" lon="5.55875">
        <ele>628.4</ele>
        <time>2020-05-24T10:16:25Z</time>
      </trkpt>
      <trkpt lat="46.13998" lon="5.55874">
        <ele>627.3</ele>
        <time>2020-05-24T10:16:26Z</time>
      </trkpt>
      <trkpt lat="46.13998" lon="5.55872">
        <ele>627.3</ele>
        <time>2020-05-24T10:16:28Z</time>
      </trkpt>
      <trkpt lat="46.13997" lon="5.5587">
        <ele>627.6</ele>
        <time>2020-05-24T10:16:30Z</time>
      </trkpt>
      <trkpt lat="46.13996" lon="5.55868">
        <ele>626.5</ele>
        <time>2020-05-24T10:16:31Z</time>
      </trkpt>
      <trkpt lat="46.13996" lon="5.55866">
        <ele>626.5</ele>
        <time>2020-05-24T10:16:32Z</time>
      </trkpt>
      <trkpt lat="46.13995" lon="5.55863">
        <ele>625.3</ele>
        <time>2020-05-24T10:16:33Z</time>
      </trkpt>
      <trkpt lat="46.13995" lon="5.55858">
        <ele>624</ele>
        <time>2020-05-24T10:16:35Z</time>
      </trkpt>
      <trkpt lat="46.13994" lon="5.55854">
        <ele>623</ele>
        <time>2020-05-24T10:16:36Z</time>
      </trkpt>
      <trkpt lat="46.13994" lon="5.55847">
        <ele>620.3</ele>
        <time>2020-05-24T10:16:38Z</time>
      </trkpt>
      <trkpt lat="46.13992" lon="5.55842">
        <ele>618.9</ele>
        <time>2020-05-24T10:16:39Z</time>
      </trkpt>
      <trkpt lat="46.13991" lon="5.55841">
        <ele>618.9</ele>
        <time>2020-05-24T10:16:40Z</time>
      </trkpt>
      <trkpt lat="46.13989" lon="5.55835">
        <ele>617.8</ele>
        <time>2020-05-24T10:16:41Z</time>
      </trkpt>
      <trkpt lat="46.13988" lon="5.55833">
        <ele>616.4</ele>
        <time>2020-05-24T10:16:42Z</time>
      </trkpt>
      <trkpt lat="46.13986" lon="5.55824">
        <ele>613.7</ele>
        <time>2020-05-24T10:16:44Z</time>
      </trkpt>
      <trkpt lat="46.13983" lon="5.55813">
        <ele>609.1</ele>
        <time>2020-05-24T10:16:45Z</time>
      </trkpt>
      <trkpt lat="46.13979" lon="5.55796">
        <ele>602.5</ele>
        <time>2020-05-24T10:16:47Z</time>
      </trkpt>
      <trkpt lat="46.13977" lon="5.55787">
        <ele>599.8</ele>
        <time>2020-05-24T10:16:48Z</time>
      </trkpt>
      <trkpt lat="46.13977" lon="5.55781">
        <ele>598.3</ele>
        <time>2020-05-24T10:16:50Z</time>
      </trkpt>
      <trkpt lat="46.13978" lon="5.55777">
        <ele>596.9</ele>
        <time>2020-05-24T10:16:51Z</time>
      </trkpt>
      <trkpt lat="46.13979" lon="5.55773">
        <ele>595.4</ele>
        <time>2020-05-24T10:16:52Z</time>
      </trkpt>
      <trkpt lat="46.1398" lon="5.55767">
        <ele>593.7</ele>
        <time>2020-05-24T10:16:53Z</time>
      </trkpt>
      <trkpt lat="46.13981" lon="5.55761">
        <ele>590.6</ele>
        <time>2020-05-24T10:16:55Z</time>
      </trkpt>
      <trkpt lat="46.13981" lon="5.55759">
        <ele>590.6</ele>
        <time>2020-05-24T10:16:56Z</time>
      </trkpt>
      <trkpt lat="46.13981" lon="5.55752">
        <ele>587.4</ele>
        <time>2020-05-24T10:16:58Z</time>
      </trkpt>
      <trkpt lat="46.13982" lon="5.55744">
        <ele>584.5</ele>
        <time>2020-05-24T10:16:59Z</time>
      </trkpt>
      <trkpt lat="46.13982" lon="5.5573">
        <ele>580.4</ele>
        <time>2020-05-24T10:17:00Z</time>
      </trkpt>
      <trkpt lat="46.13982" lon="5.55724">
        <ele>579.2</ele>
        <time>2020-05-24T10:17:02Z</time>
      </trkpt>
      <trkpt lat="46.13982" lon="5.55719">
        <ele>576.4</ele>
        <time>2020-05-24T10:17:04Z</time>
      </trkpt>
      <trkpt lat="46.13982" lon="5.55715">
        <ele>575</ele>
        <time>2020-05-24T10:17:06Z</time>
      </trkpt>
      <trkpt lat="46.13982" lon="5.55714">
        <ele>575</ele>
        <time>2020-05-24T10:17:07Z</time>
      </trkpt>
      <trkpt lat="46.13982" lon="5.55713">
        <ele>575</ele>
        <time>2020-05-24T10:17:08Z</time>
      </trkpt>
      <trkpt lat="46.13982" lon="5.55707">
        <ele>573.9</ele>
        <time>2020-05-24T10:17:10Z</time>
      </trkpt>
      <trkpt lat="46.13981" lon="5.55705">
        <ele>572.7</ele>
        <time>2020-05-24T10:17:11Z</time>
      </trkpt>
      <trkpt lat="46.13981" lon="5.55701">
        <ele>571.5</ele>
        <time>2020-05-24T10:17:13Z</time>
      </trkpt>
      <trkpt lat="46.13981" lon="5.55699">
        <ele>571.5</ele>
        <time>2020-05-24T10:17:14Z</time>
      </trkpt>
      <trkpt lat="46.13981" lon="5.55698">
        <ele>570.4</ele>
        <time>2020-05-24T10:17:15Z</time>
      </trkpt>
      <trkpt lat="46.13982" lon="5.55694">
        <ele>570.4</ele>
        <time>2020-05-24T10:17:17Z</time>
      </trkpt>
      <trkpt lat="46.13982" lon="5.55686">
        <ele>568</ele>
        <time>2020-05-24T10:17:19Z</time>
      </trkpt>
      <trkpt lat="46.13983" lon="5.55682">
        <ele>566.9</ele>
        <time>2020-05-24T10:17:21Z</time>
      </trkpt>
      <trkpt lat="46.13983" lon="5.55678">
        <ele>565.7</ele>
        <time>2020-05-24T10:18:49Z</time>
      </trkpt>
      <trkpt lat="46.13983" lon="5.55674">
        <ele>564.5</ele>
        <time>2020-05-24T10:18:50Z</time>
      </trkpt>
      <trkpt lat="46.13983" lon="5.55669">
        <ele>563.3</ele>
        <time>2020-05-24T10:18:52Z</time>
      </trkpt>
      <trkpt lat="46.13983" lon="5.55665">
        <ele>562.1</ele>
        <time>2020-05-24T10:18:53Z</time>
      </trkpt>
      <trkpt lat="46.13983" lon="5.55661">
        <ele>560.9</ele>
        <time>2020-05-24T10:18:54Z</time>
      </trkpt>
      <trkpt lat="46.13984" lon="5.55657">
        <ele>560.6</ele>
        <time>2020-05-24T10:18:56Z</time>
      </trkpt>
      <trkpt lat="46.13984" lon="5.55652">
        <ele>560.3</ele>
        <time>2020-05-24T10:18:57Z</time>
      </trkpt>
      <trkpt lat="46.1398" lon="5.55646">
        <ele>559.6</ele>
        <time>2020-05-24T10:18:58Z</time>
      </trkpt>
      <trkpt lat="46.13976" lon="5.55642">
        <ele>559.2</ele>
        <time>2020-05-24T10:19:00Z</time>
      </trkpt>
      <trkpt lat="46.13973" lon="5.55638">
        <ele>558.8</ele>
        <time>2020-05-24T10:19:01Z</time>
      </trkpt>
      <trkpt lat="46.1397" lon="5.55634">
        <ele>558.5</ele>
        <time>2020-05-24T10:19:02Z</time>
      </trkpt>
      <trkpt lat="46.13967" lon="5.55628">
        <ele>557.9</ele>
        <time>2020-05-24T10:19:04Z</time>
      </trkpt>
      <trkpt lat="46.13964" lon="5.55623">
        <ele>557.6</ele>
        <time>2020-05-24T10:19:05Z</time>
      </trkpt>
      <trkpt lat="46.1396" lon="5.55619">
        <ele>557.2</ele>
        <time>2020-05-24T10:19:06Z</time>
      </trkpt>
      <trkpt lat="46.13952" lon="5.55615">
        <ele>556.6</ele>
        <time>2020-05-24T10:19:08Z</time>
      </trkpt>
      <trkpt lat="46.13945" lon="5.55612">
        <ele>556</ele>
        <time>2020-05-24T10:19:09Z</time>
      </trkpt>
      <trkpt lat="46.1394" lon="5.55612">
        <ele>556.2</ele>
        <time>2020-05-24T10:19:10Z</time>
      </trkpt>
      <trkpt lat="46.13934" lon="5.55612">
        <ele>556.3</ele>
        <time>2020-05-24T10:19:11Z</time>
      </trkpt>
      <trkpt lat="46.13928" lon="5.55613">
        <ele>556.4</ele>
        <time>2020-05-24T10:19:12Z</time>
      </trkpt>
      <trkpt lat="46.13914" lon="5.55613">
        <ele>556.4</ele>
        <time>2020-05-24T10:19:14Z</time>
      </trkpt>
      <trkpt lat="46.13899" lon="5.5561">
        <ele>556.1</ele>
        <time>2020-05-24T10:19:16Z</time>
      </trkpt>
      <trkpt lat="46.1389" lon="5.55602">
        <ele>556.1</ele>
        <time>2020-05-24T10:19:18Z</time>
      </trkpt>
      <trkpt lat="46.13887" lon="5.55595">
        <ele>556.2</ele>
        <time>2020-05-24T10:19:20Z</time>
      </trkpt>
      <trkpt lat="46.13878" lon="5.55586">
        <ele>556.3</ele>
        <time>2020-05-24T10:19:21Z</time>
      </trkpt>
      <trkpt lat="46.13871" lon="5.55579">
        <ele>556.4</ele>
        <time>2020-05-24T10:19:22Z</time>
      </trkpt>
      <trkpt lat="46.13864" lon="5.55573">
        <ele>556.5</ele>
        <time>2020-05-24T10:19:23Z</time>
      </trkpt>
      <trkpt lat="46.13852" lon="5.55562">
        <ele>556.7</ele>
        <time>2020-05-24T10:19:25Z</time>
      </trkpt>
      <trkpt lat="46.13845" lon="5.55558">
        <ele>556.8</ele>
        <time>2020-05-24T10:19:26Z</time>
      </trkpt>
      <trkpt lat="46.13832" lon="5.55551">
        <ele>557.1</ele>
        <time>2020-05-24T10:19:28Z</time>
      </trkpt>
      <trkpt lat="46.13827" lon="5.55549">
        <ele>557.2</ele>
        <time>2020-05-24T10:19:29Z</time>
      </trkpt>
      <trkpt lat="46.13816" lon="5.55546">
        <ele>557.3</ele>
        <time>2020-05-24T10:19:31Z</time>
      </trkpt>
      <trkpt lat="46.13814" lon="5.55545">
        <ele>557.3</ele>
        <time>2020-05-24T10:19:32Z</time>
      </trkpt>
      <trkpt lat="46.13803" lon="5.55543">
        <ele>557.6</ele>
        <time>2020-05-24T10:19:34Z</time>
      </trkpt>
      <trkpt lat="46.13795" lon="5.55542">
        <ele>557.8</ele>
        <time>2020-05-24T10:19:36Z</time>
      </trkpt>
      <trkpt lat="46.1379" lon="5.55542">
        <ele>558</ele>
        <time>2020-05-24T10:19:38Z</time>
      </trkpt>
      <trkpt lat="46.13787" lon="5.5554">
        <ele>558</ele>
        <time>2020-05-24T10:19:39Z</time>
      </trkpt>
      <trkpt lat="46.13787" lon="5.5554">
        <ele>558.1</ele>
        <time>2020-05-24T10:19:40Z</time>
      </trkpt>
      <trkpt lat="46.13786" lon="5.55536">
        <ele>558.1</ele>
        <time>2020-05-24T10:19:42Z</time>
      </trkpt>
      <trkpt lat="46.13783" lon="5.55529">
        <ele>558.2</ele>
        <time>2020-05-24T10:19:44Z</time>
      </trkpt>
      <trkpt lat="46.13782" lon="5.55524">
        <ele>558.3</ele>
        <time>2020-05-24T10:19:45Z</time>
      </trkpt>
      <trkpt lat="46.13782" lon="5.55519">
        <ele>557.5</ele>
        <time>2020-05-24T10:19:46Z</time>
      </trkpt>
      <trkpt lat="46.13782" lon="5.55514">
        <ele>556.7</ele>
        <time>2020-05-24T10:19:47Z</time>
      </trkpt>
      <trkpt lat="46.13782" lon="5.55506">
        <ele>555.1</ele>
        <time>2020-05-24T10:19:49Z</time>
      </trkpt>
      <trkpt lat="46.13782" lon="5.55501">
        <ele>554.1</ele>
        <time>2020-05-24T10:19:50Z</time>
      </trkpt>
      <trkpt lat="46.13782" lon="5.55495">
        <ele>552.1</ele>
        <time>2020-05-24T10:19:52Z</time>
      </trkpt>
      <trkpt lat="46.13782" lon="5.55493">
        <ele>552</ele>
        <time>2020-05-24T10:19:53Z</time>
      </trkpt>
      <trkpt lat="46.13782" lon="5.5549">
        <ele>551</ele>
        <time>2020-05-24T10:19:54Z</time>
      </trkpt>
      <trkpt lat="46.13782" lon="5.55487">
        <ele>549.9</ele>
        <time>2020-05-24T10:19:55Z</time>
      </trkpt>
      <trkpt lat="46.13782" lon="5.55484">
        <ele>549.8</ele>
        <time>2020-05-24T10:19:57Z</time>
      </trkpt>
      <trkpt lat="46.13781" lon="5.55483">
        <ele>549.7</ele>
        <time>2020-05-24T10:19:58Z</time>
      </trkpt>
      <trkpt lat="46.1378" lon="5.55483">
        <ele>548.7</ele>
        <time>2020-05-24T10:19:59Z</time>
      </trkpt>
      <trkpt lat="46.1378" lon="5.55483">
        <ele>548.8</ele>
        <time>2020-05-24T10:20:00Z</time>
      </trkpt>
      <trkpt lat="46.13779" lon="5.55482">
        <ele>548.7</ele>
        <time>2020-05-24T10:20:01Z</time>
      </trkpt>
      <trkpt lat="46.13779" lon="5.55482">
        <ele>548.6</ele>
        <time>2020-05-24T10:20:03Z</time>
      </trkpt>
      <trkpt lat="46.13778" lon="5.55481">
        <ele>548.5</ele>
        <time>2020-05-24T10:20:05Z</time>
      </trkpt>
      <trkpt lat="46.13778" lon="5.55481">
        <ele>548.4</ele>
        <time>2020-05-24T10:20:07Z</time>
      </trkpt>
      <trkpt lat="46.13777" lon="5.55481">
        <ele>548.3</ele>
        <time>2020-05-24T10:20:08Z</time>
      </trkpt>
      <trkpt lat="46.13777" lon="5.5548">
        <ele>548.3</ele>
        <time>2020-05-24T10:20:10Z</time>
      </trkpt>
      <trkpt lat="46.13776" lon="5.5548">
        <ele>548.3</ele>
        <time>2020-05-24T10:20:34Z</time>
      </trkpt>
      <trkpt lat="46.13775" lon="5.5548">
        <ele>548.2</ele>
        <time>2020-05-24T10:20:35Z</time>
      </trkpt>
      <trkpt lat="46.13775" lon="5.55479">
        <ele>548.1</ele>
        <time>2020-05-24T10:20:36Z</time>
      </trkpt>
      <trkpt lat="46.13772" lon="5.55477">
        <ele>547.2</ele>
        <time>2020-05-24T10:20:37Z</time>
      </trkpt>
      <trkpt lat="46.13768" lon="5.55474">
        <ele>546.3</ele>
        <time>2020-05-24T10:20:39Z</time>
      </trkpt>
      <trkpt lat="46.13764" lon="5.55472">
        <ele>546.3</ele>
        <time>2020-05-24T10:20:40Z</time>
      </trkpt>
      <trkpt lat="46.1376" lon="5.5547">
        <ele>545.4</ele>
        <time>2020-05-24T10:20:42Z</time>
      </trkpt>
      <trkpt lat="46.13759" lon="5.5547">
        <ele>545.3</ele>
        <time>2020-05-24T10:20:43Z</time>
      </trkpt>
      <trkpt lat="46.13759" lon="5.55469">
        <ele>545.2</ele>
        <time>2020-05-24T10:20:44Z</time>
      </trkpt>
      <trkpt lat="46.13758" lon="5.55469">
        <ele>545.1</ele>
        <time>2020-05-24T10:20:46Z</time>
      </trkpt>
      <trkpt lat="46.13757" lon="5.55469">
        <ele>545</ele>
        <time>2020-05-24T10:20:47Z</time>
      </trkpt>
      <trkpt lat="46.13755" lon="5.55469">
        <ele>544.9</ele>
        <time>2020-05-24T10:20:49Z</time>
      </trkpt>
      <trkpt lat="46.13754" lon="5.55469">
        <ele>544.8</ele>
        <time>2020-05-24T10:20:50Z</time>
      </trkpt>
      <trkpt lat="46.13752" lon="5.55469">
        <ele>544.7</ele>
        <time>2020-05-24T10:20:52Z</time>
      </trkpt>
      <trkpt lat="46.13751" lon="5.55468">
        <ele>544.6</ele>
        <time>2020-05-24T10:20:54Z</time>
      </trkpt>
      <trkpt lat="46.1375" lon="5.55468">
        <ele>544.5</ele>
        <time>2020-05-24T10:20:55Z</time>
      </trkpt>
      <trkpt lat="46.1375" lon="5.55467">
        <ele>544.4</ele>
        <time>2020-05-24T10:20:56Z</time>
      </trkpt>
      <trkpt lat="46.13748" lon="5.55467">
        <ele>544.3</ele>
        <time>2020-05-24T10:20:58Z</time>
      </trkpt>
      <trkpt lat="46.13747" lon="5.55467">
        <ele>544.2</ele>
        <time>2020-05-24T10:20:59Z</time>
      </trkpt>
      <trkpt lat="46.13747" lon="5.55468">
        <ele>544.1</ele>
        <time>2020-05-24T10:21:00Z</time>
      </trkpt>
      <trkpt lat="46.13745" lon="5.55467">
        <ele>544</ele>
        <time>2020-05-24T10:21:01Z</time>
      </trkpt>
      <trkpt lat="46.13744" lon="5.55467">
        <ele>543.9</ele>
        <time>2020-05-24T10:21:03Z</time>
      </trkpt>
      <trkpt lat="46.13744" lon="5.55467">
        <ele>543.8</ele>
        <time>2020-05-24T10:21:04Z</time>
      </trkpt>
      <trkpt lat="46.13743" lon="5.55467">
        <ele>543.7</ele>
        <time>2020-05-24T10:21:05Z</time>
      </trkpt>
      <trkpt lat="46.13743" lon="5.55467">
        <ele>543.6</ele>
        <time>2020-05-24T10:21:07Z</time>
      </trkpt>
      <trkpt lat="46.13743" lon="5.55467">
        <ele>543.5</ele>
        <time>2020-05-24T10:21:08Z</time>
      </trkpt>
      <trkpt lat="46.13742" lon="5.55468">
        <ele>543.4</ele>
        <time>2020-05-24T10:21:10Z</time>
      </trkpt>
      <trkpt lat="46.13742" lon="5.55468">
        <ele>543.4</ele>
        <time>2020-05-24T10:21:11Z</time>
      </trkpt>
      <trkpt lat="46.13741" lon="5.55468">
        <ele>543.3</ele>
        <time>2020-05-24T10:21:12Z</time>
      </trkpt>
      <trkpt lat="46.13741" lon="5.55468">
        <ele>543.2</ele>
        <time>2020-05-24T10:21:13Z</time>
      </trkpt>
      <trkpt lat="46.1374" lon="5.55468">
        <ele>543.1</ele>
        <time>2020-05-24T10:21:15Z</time>
      </trkpt>
      <trkpt lat="46.13744" lon="5.55468">
        <ele>543</ele>
        <time>2020-05-24T10:21:26Z</time>
      </trkpt>
      <trkpt lat="46.13744" lon="5.55468">
        <ele>542.9</ele>
        <time>2020-05-24T10:21:27Z</time>
      </trkpt>
      <trkpt lat="46.1374" lon="5.55467">
        <ele>542.8</ele>
        <time>2020-05-24T10:21:29Z</time>
      </trkpt>
      <trkpt lat="46.13739" lon="5.55467">
        <ele>542.7</ele>
        <time>2020-05-24T10:21:31Z</time>
      </trkpt>
      <trkpt lat="46.13738" lon="5.55466">
        <ele>541.8</ele>
        <time>2020-05-24T10:21:33Z</time>
      </trkpt>
      <trkpt lat="46.13737" lon="5.55465">
        <ele>541.8</ele>
        <time>2020-05-24T10:21:34Z</time>
      </trkpt>
      <trkpt lat="46.13734" lon="5.55464">
        <ele>541.7</ele>
        <time>2020-05-24T10:21:36Z</time>
      </trkpt>
      <trkpt lat="46.13721" lon="5.5546">
        <ele>541.3</ele>
        <time>2020-05-24T10:21:38Z</time>
      </trkpt>
      <trkpt lat="46.13713" lon="5.55457">
        <ele>540.9</ele>
        <time>2020-05-24T10:21:39Z</time>
      </trkpt>
      <trkpt lat="46.13698" lon="5.55451">
        <ele>540.1</ele>
        <time>2020-05-24T10:21:41Z</time>
      </trkpt>
      <trkpt lat="46.13692" lon="5.55449">
        <ele>539.8</ele>
        <time>2020-05-24T10:21:42Z</time>
      </trkpt>
      <trkpt lat="46.13687" lon="5.55447">
        <ele>539.5</ele>
        <time>2020-05-24T10:21:43Z</time>
      </trkpt>
      <trkpt lat="46.13676" lon="5.55444">
        <ele>539</ele>
        <time>2020-05-24T10:21:45Z</time>
      </trkpt>
      <trkpt lat="46.13665" lon="5.5544">
        <ele>538.5</ele>
        <time>2020-05-24T10:21:47Z</time>
      </trkpt>
      <trkpt lat="46.13655" lon="5.55437">
        <ele>538</ele>
        <time>2020-05-24T10:21:49Z</time>
      </trkpt>
      <trkpt lat="46.1365" lon="5.55435">
        <ele>537.7</ele>
        <time>2020-05-24T10:21:50Z</time>
      </trkpt>
      <trkpt lat="46.13647" lon="5.55434">
        <ele>537.5</ele>
        <time>2020-05-24T10:21:51Z</time>
      </trkpt>
      <trkpt lat="46.13639" lon="5.55431">
        <ele>537.1</ele>
        <time>2020-05-24T10:21:53Z</time>
      </trkpt>
      <trkpt lat="46.13634" lon="5.55429">
        <ele>536.9</ele>
        <time>2020-05-24T10:21:54Z</time>
      </trkpt>
      <trkpt lat="46.13625" lon="5.55427">
        <ele>536.4</ele>
        <time>2020-05-24T10:21:56Z</time>
      </trkpt>
      <trkpt lat="46.13617" lon="5.55425">
        <ele>536</ele>
        <time>2020-05-24T10:21:58Z</time>
      </trkpt>
      <trkpt lat="46.13609" lon="5.55422">
        <ele>535.6</ele>
        <time>2020-05-24T10:22:00Z</time>
      </trkpt>
      <trkpt lat="46.13605" lon="5.5542">
        <ele>535.4</ele>
        <time>2020-05-24T10:22:01Z</time>
      </trkpt>
      <trkpt lat="46.136" lon="5.55417">
        <ele>535.2</ele>
        <time>2020-05-24T10:22:02Z</time>
      </trkpt>
      <trkpt lat="46.1359" lon="5.55415">
        <ele>534.6</ele>
        <time>2020-05-24T10:22:04Z</time>
      </trkpt>
      <trkpt lat="46.13585" lon="5.5541">
        <ele>534.3</ele>
        <time>2020-05-24T10:22:05Z</time>
      </trkpt>
      <trkpt lat="46.1358" lon="5.55403">
        <ele>534</ele>
        <time>2020-05-24T10:22:06Z</time>
      </trkpt>
      <trkpt lat="46.13576" lon="5.55396">
        <ele>533.7</ele>
        <time>2020-05-24T10:22:07Z</time>
      </trkpt>
      <trkpt lat="46.13572" lon="5.55388">
        <ele>533.4</ele>
        <time>2020-05-24T10:22:08Z</time>
      </trkpt>
      <trkpt lat="46.13571" lon="5.55372">
        <ele>532</ele>
        <time>2020-05-24T10:22:10Z</time>
      </trkpt>
      <trkpt lat="46.13585" lon="5.55359">
        <ele>530.4</ele>
        <time>2020-05-24T10:22:12Z</time>
      </trkpt>
      <trkpt lat="46.13598" lon="5.5535">
        <ele>529.1</ele>
        <time>2020-05-24T10:22:14Z</time>
      </trkpt>
      <trkpt lat="46.13609" lon="5.55343">
        <ele>528</ele>
        <time>2020-05-24T10:22:16Z</time>
      </trkpt>
      <trkpt lat="46.13614" lon="5.55339">
        <ele>527.6</ele>
        <time>2020-05-24T10:22:17Z</time>
      </trkpt>
      <trkpt lat="46.13626" lon="5.55334">
        <ele>526.3</ele>
        <time>2020-05-24T10:22:19Z</time>
      </trkpt>
      <trkpt lat="46.13633" lon="5.55332">
        <ele>526.2</ele>
        <time>2020-05-24T10:22:20Z</time>
      </trkpt>
      <trkpt lat="46.13641" lon="5.55332">
        <ele>526.1</ele>
        <time>2020-05-24T10:22:21Z</time>
      </trkpt>
      <trkpt lat="46.13655" lon="5.55331">
        <ele>526</ele>
        <time>2020-05-24T10:22:23Z</time>
      </trkpt>
      <trkpt lat="46.13661" lon="5.55332">
        <ele>525.9</ele>
        <time>2020-05-24T10:22:24Z</time>
      </trkpt>
      <trkpt lat="46.13674" lon="5.55335">
        <ele>525.9</ele>
        <time>2020-05-24T10:22:26Z</time>
      </trkpt>
      <trkpt lat="46.13679" lon="5.55337">
        <ele>525.8</ele>
        <time>2020-05-24T10:22:27Z</time>
      </trkpt>
      <trkpt lat="46.13685" lon="5.55338">
        <ele>525.7</ele>
        <time>2020-05-24T10:22:28Z</time>
      </trkpt>
      <trkpt lat="46.13695" lon="5.55339">
        <ele>525.5</ele>
        <time>2020-05-24T10:22:30Z</time>
      </trkpt>
      <trkpt lat="46.13699" lon="5.55339">
        <ele>525.4</ele>
        <time>2020-05-24T10:22:31Z</time>
      </trkpt>
      <trkpt lat="46.13706" lon="5.55341">
        <ele>525.3</ele>
        <time>2020-05-24T10:22:33Z</time>
      </trkpt>
      <trkpt lat="46.1371" lon="5.55342">
        <ele>525.3</ele>
        <time>2020-05-24T10:22:34Z</time>
      </trkpt>
      <trkpt lat="46.13715" lon="5.55344">
        <ele>525.3</ele>
        <time>2020-05-24T10:22:35Z</time>
      </trkpt>
      <trkpt lat="46.13723" lon="5.55346">
        <ele>525.2</ele>
        <time>2020-05-24T10:22:37Z</time>
      </trkpt>
      <trkpt lat="46.13728" lon="5.55349">
        <ele>525</ele>
        <time>2020-05-24T10:22:39Z</time>
      </trkpt>
      <trkpt lat="46.13735" lon="5.55351">
        <ele>524.8</ele>
        <time>2020-05-24T10:22:41Z</time>
      </trkpt>
      <trkpt lat="46.13741" lon="5.55351">
        <ele>524.4</ele>
        <time>2020-05-24T10:22:43Z</time>
      </trkpt>
      <trkpt lat="46.13745" lon="5.55351">
        <ele>524.2</ele>
        <time>2020-05-24T10:22:44Z</time>
      </trkpt>
      <trkpt lat="46.13748" lon="5.55351">
        <ele>523.9</ele>
        <time>2020-05-24T10:22:45Z</time>
      </trkpt>
      <trkpt lat="46.13752" lon="5.55349">
        <ele>523.5</ele>
        <time>2020-05-24T10:22:46Z</time>
      </trkpt>
      <trkpt lat="46.13763" lon="5.55344">
        <ele>522.5</ele>
        <time>2020-05-24T10:22:48Z</time>
      </trkpt>
      <trkpt lat="46.13777" lon="5.55332">
        <ele>521.2</ele>
        <time>2020-05-24T10:22:50Z</time>
      </trkpt>
      <trkpt lat="46.13783" lon="5.55323">
        <ele>520.7</ele>
        <time>2020-05-24T10:22:51Z</time>
      </trkpt>
      <trkpt lat="46.13791" lon="5.55301">
        <ele>519.4</ele>
        <time>2020-05-24T10:22:53Z</time>
      </trkpt>
      <trkpt lat="46.13793" lon="5.5529">
        <ele>518.8</ele>
        <time>2020-05-24T10:22:54Z</time>
      </trkpt>
      <trkpt lat="46.13796" lon="5.55273">
        <ele>518.1</ele>
        <time>2020-05-24T10:22:56Z</time>
      </trkpt>
      <trkpt lat="46.138" lon="5.55265">
        <ele>517.7</ele>
        <time>2020-05-24T10:22:58Z</time>
      </trkpt>
      <trkpt lat="46.13801" lon="5.55263">
        <ele>517.6</ele>
        <time>2020-05-24T10:22:59Z</time>
      </trkpt>
      <trkpt lat="46.13802" lon="5.5526">
        <ele>517.5</ele>
        <time>2020-05-24T10:23:01Z</time>
      </trkpt>
      <trkpt lat="46.13802" lon="5.5526">
        <ele>517.5</ele>
        <time>2020-05-24T10:23:02Z</time>
      </trkpt>
      <trkpt lat="46.13802" lon="5.5526">
        <ele>517.4</ele>
        <time>2020-05-24T10:23:04Z</time>
      </trkpt>
      <trkpt lat="46.13802" lon="5.5526">
        <ele>517.4</ele>
        <time>2020-05-24T10:23:05Z</time>
      </trkpt>
      <trkpt lat="46.13802" lon="5.5526">
        <ele>517.4</ele>
        <time>2020-05-24T10:23:07Z</time>
      </trkpt>
      <trkpt lat="46.13803" lon="5.5526">
        <ele>517.4</ele>
        <time>2020-05-24T10:23:09Z</time>
      </trkpt>
      <trkpt lat="46.13803" lon="5.5526">
        <ele>517.4</ele>
        <time>2020-05-24T10:23:10Z</time>
      </trkpt>
      <trkpt lat="46.13803" lon="5.5526">
        <ele>517.3</ele>
        <time>2020-05-24T10:23:11Z</time>
      </trkpt>
      <trkpt lat="46.13803" lon="5.5526">
        <ele>517.3</ele>
        <time>2020-05-24T10:23:12Z</time>
      </trkpt>
      <trkpt lat="46.13803" lon="5.5526">
        <ele>517.3</ele>
        <time>2020-05-24T10:23:14Z</time>
      </trkpt>
      <trkpt lat="46.13803" lon="5.5526">
        <ele>517.3</ele>
        <time>2020-05-24T10:23:16Z</time>
      </trkpt>
      <trkpt lat="46.13803" lon="5.5526">
        <ele>517.3</ele>
        <time>2020-05-24T10:23:17Z</time>
      </trkpt>
      <trkpt lat="46.13803" lon="5.5526">
        <ele>517.3</ele>
        <time>2020-05-24T10:23:19Z</time>
      </trkpt>
      <trkpt lat="46.13803" lon="5.5526">
        <ele>517.3</ele>
        <time>2020-05-24T10:23:21Z</time>
      </trkpt>
      <trkpt lat="46.13799" lon="5.55261">
        <ele>517.2</ele>
        <time>2020-05-24T10:23:26Z</time>
      </trkpt>
      <trkpt lat="46.13804" lon="5.55258">
        <ele>517.1</ele>
        <time>2020-05-24T10:23:28Z</time>
      </trkpt>
      <trkpt lat="46.13816" lon="5.55261">
        <ele>516.9</ele>
        <time>2020-05-24T10:23:30Z</time>
      </trkpt>
      <trkpt lat="46.13824" lon="5.55265">
        <ele>516.8</ele>
        <time>2020-05-24T10:23:32Z</time>
      </trkpt>
      <trkpt lat="46.13829" lon="5.55267">
        <ele>516.7</ele>
        <time>2020-05-24T10:23:33Z</time>
      </trkpt>
      <trkpt lat="46.13833" lon="5.55268">
        <ele>516.6</ele>
        <time>2020-05-24T10:23:34Z</time>
      </trkpt>
      <trkpt lat="46.13842" lon="5.55271">
        <ele>516.5</ele>
        <time>2020-05-24T10:23:36Z</time>
      </trkpt>
      <trkpt lat="46.13846" lon="5.55274">
        <ele>516.5</ele>
        <time>2020-05-24T10:23:37Z</time>
      </trkpt>
      <trkpt lat="46.13851" lon="5.55277">
        <ele>516.4</ele>
        <time>2020-05-24T10:23:39Z</time>
      </trkpt>
      <trkpt lat="46.13856" lon="5.5528">
        <ele>516.3</ele>
        <time>2020-05-24T10:23:40Z</time>
      </trkpt>
      <trkpt lat="46.1386" lon="5.55282">
        <ele>516.3</ele>
        <time>2020-05-24T10:23:41Z</time>
      </trkpt>
      <trkpt lat="46.13867" lon="5.55289">
        <ele>516.2</ele>
        <time>2020-05-24T10:23:43Z</time>
      </trkpt>
      <trkpt lat="46.13871" lon="5.55294">
        <ele>516.2</ele>
        <time>2020-05-24T10:23:44Z</time>
      </trkpt>
      <trkpt lat="46.13878" lon="5.553">
        <ele>516.1</ele>
        <time>2020-05-24T10:23:46Z</time>
      </trkpt>
      <trkpt lat="46.13883" lon="5.55303">
        <ele>516.1</ele>
        <time>2020-05-24T10:23:47Z</time>
      </trkpt>
      <trkpt lat="46.1389" lon="5.55304">
        <ele>516</ele>
        <time>2020-05-24T10:23:49Z</time>
      </trkpt>
      <trkpt lat="46.13895" lon="5.55306">
        <ele>516</ele>
        <time>2020-05-24T10:23:50Z</time>
      </trkpt>
      <trkpt lat="46.13899" lon="5.55307">
        <ele>516</ele>
        <time>2020-05-24T10:23:51Z</time>
      </trkpt>
      <trkpt lat="46.13902" lon="5.55307">
        <ele>515.9</ele>
        <time>2020-05-24T10:23:52Z</time>
      </trkpt>
      <trkpt lat="46.13907" lon="5.55307">
        <ele>515.9</ele>
        <time>2020-05-24T10:23:53Z</time>
      </trkpt>
      <trkpt lat="46.13916" lon="5.55306">
        <ele>516</ele>
        <time>2020-05-24T10:23:55Z</time>
      </trkpt>
      <trkpt lat="46.1392" lon="5.55307">
        <ele>516.1</ele>
        <time>2020-05-24T10:23:56Z</time>
      </trkpt>
      <trkpt lat="46.13928" lon="5.55307">
        <ele>516.2</ele>
        <time>2020-05-24T10:23:58Z</time>
      </trkpt>
      <trkpt lat="46.13933" lon="5.55308">
        <ele>516.2</ele>
        <time>2020-05-24T10:23:59Z</time>
      </trkpt>
      <trkpt lat="46.1394" lon="5.55309">
        <ele>516.3</ele>
        <time>2020-05-24T10:24:01Z</time>
      </trkpt>
      <trkpt lat="46.13945" lon="5.5531">
        <ele>516.4</ele>
        <time>2020-05-24T10:24:02Z</time>
      </trkpt>
      <trkpt lat="46.13952" lon="5.55311">
        <ele>516.5</ele>
        <time>2020-05-24T10:24:03Z</time>
      </trkpt>
      <trkpt lat="46.13966" lon="5.55311">
        <ele>516.6</ele>
        <time>2020-05-24T10:24:05Z</time>
      </trkpt>
      <trkpt lat="46.1398" lon="5.55311">
        <ele>516.8</ele>
        <time>2020-05-24T10:24:07Z</time>
      </trkpt>
      <trkpt lat="46.13993" lon="5.55312">
        <ele>517.1</ele>
        <time>2020-05-24T10:24:09Z</time>
      </trkpt>
      <trkpt lat="46.14004" lon="5.55314">
        <ele>517.3</ele>
        <time>2020-05-24T10:24:11Z</time>
      </trkpt>
      <trkpt lat="46.1401" lon="5.55315">
        <ele>517.5</ele>
        <time>2020-05-24T10:24:12Z</time>
      </trkpt>
      <trkpt lat="46.14016" lon="5.55316">
        <ele>517.6</ele>
        <time>2020-05-24T10:24:13Z</time>
      </trkpt>
      <trkpt lat="46.14023" lon="5.55317">
        <ele>517.7</ele>
        <time>2020-05-24T10:24:14Z</time>
      </trkpt>
      <trkpt lat="46.14036" lon="5.5532">
        <ele>517.9</ele>
        <time>2020-05-24T10:24:16Z</time>
      </trkpt>
      <trkpt lat="46.14042" lon="5.55321">
        <ele>518.1</ele>
        <time>2020-05-24T10:24:17Z</time>
      </trkpt>
      <trkpt lat="46.14047" lon="5.55322">
        <ele>518.2</ele>
        <time>2020-05-24T10:24:18Z</time>
      </trkpt>
      <trkpt lat="46.14059" lon="5.55324">
        <ele>518.5</ele>
        <time>2020-05-24T10:24:20Z</time>
      </trkpt>
      <trkpt lat="46.14069" lon="5.55326">
        <ele>518.8</ele>
        <time>2020-05-24T10:24:22Z</time>
      </trkpt>
      <trkpt lat="46.14074" lon="5.55327">
        <ele>518.9</ele>
        <time>2020-05-24T10:24:23Z</time>
      </trkpt>
      <trkpt lat="46.14079" lon="5.55327">
        <ele>519</ele>
        <time>2020-05-24T10:24:24Z</time>
      </trkpt>
      <trkpt lat="46.1409" lon="5.55328">
        <ele>519.2</ele>
        <time>2020-05-24T10:24:26Z</time>
      </trkpt>
      <trkpt lat="46.14095" lon="5.55328">
        <ele>519.3</ele>
        <time>2020-05-24T10:24:27Z</time>
      </trkpt>
      <trkpt lat="46.14105" lon="5.55329">
        <ele>519.4</ele>
        <time>2020-05-24T10:24:29Z</time>
      </trkpt>
      <trkpt lat="46.1411" lon="5.5533">
        <ele>519.5</ele>
        <time>2020-05-24T10:24:30Z</time>
      </trkpt>
      <trkpt lat="46.14115" lon="5.5533">
        <ele>519.6</ele>
        <time>2020-05-24T10:24:31Z</time>
      </trkpt>
      <trkpt lat="46.14124" lon="5.5533">
        <ele>519.7</ele>
        <time>2020-05-24T10:24:33Z</time>
      </trkpt>
      <trkpt lat="46.14133" lon="5.55332">
        <ele>519.7</ele>
        <time>2020-05-24T10:24:35Z</time>
      </trkpt>
      <trkpt lat="46.14143" lon="5.55332">
        <ele>519.9</ele>
        <time>2020-05-24T10:24:37Z</time>
      </trkpt>
      <trkpt lat="46.14148" lon="5.55333">
        <ele>520</ele>
        <time>2020-05-24T10:24:38Z</time>
      </trkpt>
      <trkpt lat="46.14155" lon="5.55333">
        <ele>520.1</ele>
        <time>2020-05-24T10:24:40Z</time>
      </trkpt>
      <trkpt lat="46.14166" lon="5.55333">
        <ele>520.3</ele>
        <time>2020-05-24T10:24:42Z</time>
      </trkpt>
      <trkpt lat="46.14171" lon="5.55333">
        <ele>520.4</ele>
        <time>2020-05-24T10:24:43Z</time>
      </trkpt>
      <trkpt lat="46.14177" lon="5.55334">
        <ele>520.5</ele>
        <time>2020-05-24T10:24:45Z</time>
      </trkpt>
      <trkpt lat="46.14185" lon="5.55334">
        <ele>520.6</ele>
        <time>2020-05-24T10:24:47Z</time>
      </trkpt>
      <trkpt lat="46.1419" lon="5.55334">
        <ele>520.6</ele>
        <time>2020-05-24T10:24:48Z</time>
      </trkpt>
      <trkpt lat="46.14195" lon="5.55333">
        <ele>520.7</ele>
        <time>2020-05-24T10:24:49Z</time>
      </trkpt>
      <trkpt lat="46.14201" lon="5.5533">
        <ele>520.7</ele>
        <time>2020-05-24T10:24:51Z</time>
      </trkpt>
      <trkpt lat="46.14203" lon="5.55332">
        <ele>520.7</ele>
        <time>2020-05-24T10:24:52Z</time>
      </trkpt>
      <trkpt lat="46.14209" lon="5.55331">
        <ele>520.6</ele>
        <time>2020-05-24T10:24:54Z</time>
      </trkpt>
      <trkpt lat="46.14212" lon="5.55329">
        <ele>520.8</ele>
        <time>2020-05-24T10:24:55Z</time>
      </trkpt>
      <trkpt lat="46.14213" lon="5.55328">
        <ele>520.8</ele>
        <time>2020-05-24T10:24:56Z</time>
      </trkpt>
      <trkpt lat="46.14215" lon="5.55325">
        <ele>521</ele>
        <time>2020-05-24T10:24:57Z</time>
      </trkpt>
      <trkpt lat="46.14219" lon="5.55322">
        <ele>521.1</ele>
        <time>2020-05-24T10:24:58Z</time>
      </trkpt>
      <trkpt lat="46.14223" lon="5.55319">
        <ele>520.8</ele>
        <time>2020-05-24T10:24:59Z</time>
      </trkpt>
      <trkpt lat="46.14227" lon="5.55313">
        <ele>520.4</ele>
        <time>2020-05-24T10:25:01Z</time>
      </trkpt>
      <trkpt lat="46.14229" lon="5.55307">
        <ele>520.1</ele>
        <time>2020-05-24T10:25:02Z</time>
      </trkpt>
      <trkpt lat="46.14232" lon="5.55298">
        <ele>519.5</ele>
        <time>2020-05-24T10:25:04Z</time>
      </trkpt>
      <trkpt lat="46.14234" lon="5.55295">
        <ele>519.3</ele>
        <time>2020-05-24T10:25:06Z</time>
      </trkpt>
      <trkpt lat="46.14235" lon="5.55294">
        <ele>519.2</ele>
        <time>2020-05-24T10:25:07Z</time>
      </trkpt>
      <trkpt lat="46.14235" lon="5.55292">
        <ele>519.1</ele>
        <time>2020-05-24T10:25:09Z</time>
      </trkpt>
      <trkpt lat="46.14235" lon="5.5529">
        <ele>519</ele>
        <time>2020-05-24T10:25:11Z</time>
      </trkpt>
      <trkpt lat="46.14236" lon="5.55289">
        <ele>519</ele>
        <time>2020-05-24T10:25:12Z</time>
      </trkpt>
      <trkpt lat="46.14237" lon="5.55287">
        <ele>518.8</ele>
        <time>2020-05-24T10:25:14Z</time>
      </trkpt>
      <trkpt lat="46.14237" lon="5.55286">
        <ele>518.8</ele>
        <time>2020-05-24T10:25:15Z</time>
      </trkpt>
      <trkpt lat="46.14237" lon="5.55286">
        <ele>518.7</ele>
        <time>2020-05-24T10:25:16Z</time>
      </trkpt>
      <trkpt lat="46.14238" lon="5.55285">
        <ele>518.7</ele>
        <time>2020-05-24T10:25:18Z</time>
      </trkpt>
      <trkpt lat="46.14238" lon="5.55285">
        <ele>518.7</ele>
        <time>2020-05-24T10:25:19Z</time>
      </trkpt>
      <trkpt lat="46.14238" lon="5.55285">
        <ele>518.7</ele>
        <time>2020-05-24T10:25:21Z</time>
      </trkpt>
      <trkpt lat="46.14238" lon="5.55285">
        <ele>518.7</ele>
        <time>2020-05-24T10:25:22Z</time>
      </trkpt>
      <trkpt lat="46.14237" lon="5.55285">
        <ele>518.6</ele>
        <time>2020-05-24T10:25:24Z</time>
      </trkpt>
      <trkpt lat="46.14238" lon="5.55285">
        <ele>518.6</ele>
        <time>2020-05-24T10:25:25Z</time>
      </trkpt>
      <trkpt lat="46.14239" lon="5.55281">
        <ele>518.4</ele>
        <time>2020-05-24T10:25:27Z</time>
      </trkpt>
      <trkpt lat="46.1424" lon="5.5528">
        <ele>518.3</ele>
        <time>2020-05-24T10:25:28Z</time>
      </trkpt>
      <trkpt lat="46.1424" lon="5.55279">
        <ele>518.3</ele>
        <time>2020-05-24T10:25:30Z</time>
      </trkpt>
      <trkpt lat="46.1424" lon="5.55279">
        <ele>518.3</ele>
        <time>2020-05-24T10:25:31Z</time>
      </trkpt>
      <trkpt lat="46.1424" lon="5.55279">
        <ele>518.3</ele>
        <time>2020-05-24T10:25:32Z</time>
      </trkpt>
      <trkpt lat="46.1424" lon="5.55279">
        <ele>518.3</ele>
        <time>2020-05-24T10:25:33Z</time>
      </trkpt>
      <trkpt lat="46.1424" lon="5.55278">
        <ele>518.2</ele>
        <time>2020-05-24T10:25:35Z</time>
      </trkpt>
      <trkpt lat="46.14241" lon="5.55277">
        <ele>518.2</ele>
        <time>2020-05-24T10:25:37Z</time>
      </trkpt>
      <trkpt lat="46.14241" lon="5.55277">
        <ele>518.2</ele>
        <time>2020-05-24T10:25:39Z</time>
      </trkpt>
      <trkpt lat="46.14241" lon="5.55277">
        <ele>518.2</ele>
        <time>2020-05-24T10:25:41Z</time>
      </trkpt>
      <trkpt lat="46.14241" lon="5.55277">
        <ele>518.2</ele>
        <time>2020-05-24T10:25:43Z</time>
      </trkpt>
      <trkpt lat="46.14241" lon="5.55277">
        <ele>518.2</ele>
        <time>2020-05-24T10:25:45Z</time>
      </trkpt>
      <trkpt lat="46.14241" lon="5.55277">
        <ele>518.2</ele>
        <time>2020-05-24T10:25:47Z</time>
      </trkpt>
      <trkpt lat="46.14243" lon="5.55272">
        <ele>517.9</ele>
        <time>2020-05-24T10:25:51Z</time>
      </trkpt>
      <trkpt lat="46.14244" lon="5.55268">
        <ele>517.7</ele>
        <time>2020-05-24T10:25:52Z</time>
      </trkpt>
      <trkpt lat="46.14244" lon="5.55267">
        <ele>517.7</ele>
        <time>2020-05-24T10:25:53Z</time>
      </trkpt>
      <trkpt lat="46.14244" lon="5.5526">
        <ele>517.4</ele>
        <time>2020-05-24T10:25:55Z</time>
      </trkpt>
      <trkpt lat="46.14246" lon="5.5525">
        <ele>516.9</ele>
        <time>2020-05-24T10:25:56Z</time>
      </trkpt>
      <trkpt lat="46.14251" lon="5.55232">
        <ele>515.8</ele>
        <time>2020-05-24T10:25:58Z</time>
      </trkpt>
      <trkpt lat="46.14256" lon="5.55215">
        <ele>514.4</ele>
        <time>2020-05-24T10:26:00Z</time>
      </trkpt>
      <trkpt lat="46.14261" lon="5.55194">
        <ele>512.9</ele>
        <time>2020-05-24T10:26:02Z</time>
      </trkpt>
      <trkpt lat="46.14265" lon="5.55172">
        <ele>511.6</ele>
        <time>2020-05-24T10:26:04Z</time>
      </trkpt>
      <trkpt lat="46.1427" lon="5.55149">
        <ele>510.3</ele>
        <time>2020-05-24T10:26:06Z</time>
      </trkpt>
      <trkpt lat="46.14273" lon="5.55125">
        <ele>509.2</ele>
        <time>2020-05-24T10:26:08Z</time>
      </trkpt>
      <trkpt lat="46.14274" lon="5.55113">
        <ele>508.7</ele>
        <time>2020-05-24T10:26:09Z</time>
      </trkpt>
      <trkpt lat="46.14276" lon="5.5509">
        <ele>507.8</ele>
        <time>2020-05-24T10:26:11Z</time>
      </trkpt>
      <trkpt lat="46.14276" lon="5.55079">
        <ele>507.4</ele>
        <time>2020-05-24T10:26:12Z</time>
      </trkpt>
      <trkpt lat="46.14275" lon="5.55055">
        <ele>506.5</ele>
        <time>2020-05-24T10:26:14Z</time>
      </trkpt>
      <trkpt lat="46.14273" lon="5.55029">
        <ele>505</ele>
        <time>2020-05-24T10:26:16Z</time>
      </trkpt>
      <trkpt lat="46.14271" lon="5.55005">
        <ele>503.5</ele>
        <time>2020-05-24T10:26:18Z</time>
      </trkpt>
      <trkpt lat="46.14271" lon="5.54983">
        <ele>502.2</ele>
        <time>2020-05-24T10:26:20Z</time>
      </trkpt>
      <trkpt lat="46.14272" lon="5.54972">
        <ele>501.7</ele>
        <time>2020-05-24T10:26:21Z</time>
      </trkpt>
      <trkpt lat="46.14274" lon="5.54961">
        <ele>501.1</ele>
        <time>2020-05-24T10:26:22Z</time>
      </trkpt>
      <trkpt lat="46.14277" lon="5.54951">
        <ele>500.7</ele>
        <time>2020-05-24T10:26:23Z</time>
      </trkpt>
      <trkpt lat="46.14285" lon="5.54934">
        <ele>499.9</ele>
        <time>2020-05-24T10:26:25Z</time>
      </trkpt>
      <trkpt lat="46.14291" lon="5.54927">
        <ele>499.5</ele>
        <time>2020-05-24T10:26:26Z</time>
      </trkpt>
      <trkpt lat="46.14304" lon="5.54916">
        <ele>498.7</ele>
        <time>2020-05-24T10:26:28Z</time>
      </trkpt>
      <trkpt lat="46.14315" lon="5.54897">
        <ele>498.1</ele>
        <time>2020-05-24T10:26:30Z</time>
      </trkpt>
      <trkpt lat="46.1432" lon="5.54887">
        <ele>497.7</ele>
        <time>2020-05-24T10:26:31Z</time>
      </trkpt>
      <trkpt lat="46.14328" lon="5.54868">
        <ele>497.2</ele>
        <time>2020-05-24T10:26:33Z</time>
      </trkpt>
      <trkpt lat="46.14332" lon="5.54859">
        <ele>496.9</ele>
        <time>2020-05-24T10:26:34Z</time>
      </trkpt>
      <trkpt lat="46.14336" lon="5.5485">
        <ele>496.6</ele>
        <time>2020-05-24T10:26:35Z</time>
      </trkpt>
      <trkpt lat="46.14346" lon="5.54834">
        <ele>496</ele>
        <time>2020-05-24T10:26:37Z</time>
      </trkpt>
      <trkpt lat="46.14352" lon="5.54826">
        <ele>495.6</ele>
        <time>2020-05-24T10:26:38Z</time>
      </trkpt>
      <trkpt lat="46.14359" lon="5.54818">
        <ele>495.2</ele>
        <time>2020-05-24T10:26:39Z</time>
      </trkpt>
      <trkpt lat="46.14372" lon="5.54802">
        <ele>494.2</ele>
        <time>2020-05-24T10:26:41Z</time>
      </trkpt>
      <trkpt lat="46.14382" lon="5.54787">
        <ele>493.8</ele>
        <time>2020-05-24T10:26:43Z</time>
      </trkpt>
      <trkpt lat="46.1439" lon="5.54771">
        <ele>493.5</ele>
        <time>2020-05-24T10:26:45Z</time>
      </trkpt>
      <trkpt lat="46.14393" lon="5.54764">
        <ele>493.3</ele>
        <time>2020-05-24T10:26:46Z</time>
      </trkpt>
      <trkpt lat="46.14401" lon="5.54748">
        <ele>493.1</ele>
        <time>2020-05-24T10:26:48Z</time>
      </trkpt>
      <trkpt lat="46.14404" lon="5.5474">
        <ele>492.9</ele>
        <time>2020-05-24T10:26:49Z</time>
      </trkpt>
      <trkpt lat="46.14406" lon="5.54732">
        <ele>492.8</ele>
        <time>2020-05-24T10:26:50Z</time>
      </trkpt>
      <trkpt lat="46.14409" lon="5.54713">
        <ele>492.6</ele>
        <time>2020-05-24T10:26:52Z</time>
      </trkpt>
      <trkpt lat="46.1441" lon="5.54702">
        <ele>492.4</ele>
        <time>2020-05-24T10:26:53Z</time>
      </trkpt>
      <trkpt lat="46.14411" lon="5.54681">
        <ele>492.2</ele>
        <time>2020-05-24T10:26:55Z</time>
      </trkpt>
      <trkpt lat="46.14413" lon="5.54661">
        <ele>492</ele>
        <time>2020-05-24T10:26:57Z</time>
      </trkpt>
      <trkpt lat="46.14415" lon="5.54642">
        <ele>491.9</ele>
        <time>2020-05-24T10:26:59Z</time>
      </trkpt>
      <trkpt lat="46.14415" lon="5.54632">
        <ele>491.8</ele>
        <time>2020-05-24T10:27:00Z</time>
      </trkpt>
      <trkpt lat="46.14416" lon="5.54623">
        <ele>491.8</ele>
        <time>2020-05-24T10:27:01Z</time>
      </trkpt>
      <trkpt lat="46.14417" lon="5.54605">
        <ele>491.8</ele>
        <time>2020-05-24T10:27:03Z</time>
      </trkpt>
      <trkpt lat="46.14419" lon="5.54588">
        <ele>491.9</ele>
        <time>2020-05-24T10:27:05Z</time>
      </trkpt>
      <trkpt lat="46.14423" lon="5.5457">
        <ele>492</ele>
        <time>2020-05-24T10:27:07Z</time>
      </trkpt>
      <trkpt lat="46.14428" lon="5.54554">
        <ele>492.2</ele>
        <time>2020-05-24T10:27:09Z</time>
      </trkpt>
      <trkpt lat="46.14433" lon="5.5454">
        <ele>492.5</ele>
        <time>2020-05-24T10:27:11Z</time>
      </trkpt>
      <trkpt lat="46.14435" lon="5.54534">
        <ele>492.7</ele>
        <time>2020-05-24T10:27:12Z</time>
      </trkpt>
      <trkpt lat="46.14438" lon="5.54521">
        <ele>493.1</ele>
        <time>2020-05-24T10:27:14Z</time>
      </trkpt>
      <trkpt lat="46.14439" lon="5.54515">
        <ele>493.4</ele>
        <time>2020-05-24T10:27:15Z</time>
      </trkpt>
      <trkpt lat="46.14441" lon="5.54506">
        <ele>493.6</ele>
        <time>2020-05-24T10:27:17Z</time>
      </trkpt>
      <trkpt lat="46.14441" lon="5.54496">
        <ele>493.8</ele>
        <time>2020-05-24T10:27:19Z</time>
      </trkpt>
      <trkpt lat="46.14441" lon="5.54484">
        <ele>494</ele>
        <time>2020-05-24T10:27:21Z</time>
      </trkpt>
      <trkpt lat="46.14443" lon="5.54475">
        <ele>494.1</ele>
        <time>2020-05-24T10:27:22Z</time>
      </trkpt>
      <trkpt lat="46.14444" lon="5.54472">
        <ele>494.4</ele>
        <time>2020-05-24T10:27:23Z</time>
      </trkpt>
      <trkpt lat="46.14445" lon="5.54467">
        <ele>494.5</ele>
        <time>2020-05-24T10:27:25Z</time>
      </trkpt>
      <trkpt lat="46.14446" lon="5.54462">
        <ele>494.6</ele>
        <time>2020-05-24T10:27:26Z</time>
      </trkpt>
      <trkpt lat="46.14447" lon="5.54458">
        <ele>494.9</ele>
        <time>2020-05-24T10:27:27Z</time>
      </trkpt>
      <trkpt lat="46.14449" lon="5.54453">
        <ele>495.1</ele>
        <time>2020-05-24T10:27:29Z</time>
      </trkpt>
      <trkpt lat="46.1445" lon="5.5445">
        <ele>495.3</ele>
        <time>2020-05-24T10:27:30Z</time>
      </trkpt>
      <trkpt lat="46.14452" lon="5.54443">
        <ele>495.6</ele>
        <time>2020-05-24T10:27:32Z</time>
      </trkpt>
      <trkpt lat="46.14452" lon="5.54441">
        <ele>495.7</ele>
        <time>2020-05-24T10:27:33Z</time>
      </trkpt>
      <trkpt lat="46.14453" lon="5.54439">
        <ele>495.8</ele>
        <time>2020-05-24T10:27:35Z</time>
      </trkpt>
      <trkpt lat="46.14454" lon="5.54437">
        <ele>496</ele>
        <time>2020-05-24T10:27:36Z</time>
      </trkpt>
      <trkpt lat="46.14455" lon="5.54435">
        <ele>496.1</ele>
        <time>2020-05-24T10:27:37Z</time>
      </trkpt>
      <trkpt lat="46.14455" lon="5.54434">
        <ele>496.1</ele>
        <time>2020-05-24T10:27:38Z</time>
      </trkpt>
      <trkpt lat="46.14456" lon="5.54432">
        <ele>496.3</ele>
        <time>2020-05-24T10:27:40Z</time>
      </trkpt>
      <trkpt lat="46.14458" lon="5.5443">
        <ele>496.4</ele>
        <time>2020-05-24T10:27:41Z</time>
      </trkpt>
      <trkpt lat="46.1446" lon="5.54426">
        <ele>496.6</ele>
        <time>2020-05-24T10:27:43Z</time>
      </trkpt>
      <trkpt lat="46.14462" lon="5.54422">
        <ele>496.9</ele>
        <time>2020-05-24T10:27:45Z</time>
      </trkpt>
      <trkpt lat="46.14463" lon="5.5442">
        <ele>497</ele>
        <time>2020-05-24T10:27:46Z</time>
      </trkpt>
      <trkpt lat="46.14463" lon="5.54418">
        <ele>497.1</ele>
        <time>2020-05-24T10:27:47Z</time>
      </trkpt>
      <trkpt lat="46.14465" lon="5.54414">
        <ele>497.3</ele>
        <time>2020-05-24T10:27:48Z</time>
      </trkpt>
      <trkpt lat="46.14466" lon="5.54412">
        <ele>497.4</ele>
        <time>2020-05-24T10:27:49Z</time>
      </trkpt>
      <trkpt lat="46.14468" lon="5.54408">
        <ele>497.7</ele>
        <time>2020-05-24T10:27:51Z</time>
      </trkpt>
      <trkpt lat="46.14468" lon="5.54407">
        <ele>497.7</ele>
        <time>2020-05-24T10:27:52Z</time>
      </trkpt>
      <trkpt lat="46.14469" lon="5.54405">
        <ele>497.8</ele>
        <time>2020-05-24T10:27:53Z</time>
      </trkpt>
      <trkpt lat="46.1447" lon="5.54403">
        <ele>498</ele>
        <time>2020-05-24T10:27:54Z</time>
      </trkpt>
      <trkpt lat="46.14472" lon="5.54397">
        <ele>498.3</ele>
        <time>2020-05-24T10:27:56Z</time>
      </trkpt>
      <trkpt lat="46.14473" lon="5.54394">
        <ele>498.5</ele>
        <time>2020-05-24T10:27:58Z</time>
      </trkpt>
      <trkpt lat="46.14474" lon="5.54392">
        <ele>498.6</ele>
        <time>2020-05-24T10:27:59Z</time>
      </trkpt>
      <trkpt lat="46.14475" lon="5.5439">
        <ele>498.7</ele>
        <time>2020-05-24T10:28:00Z</time>
      </trkpt>
      <trkpt lat="46.14477" lon="5.54383">
        <ele>499.1</ele>
        <time>2020-05-24T10:28:02Z</time>
      </trkpt>
      <trkpt lat="46.14478" lon="5.54381">
        <ele>499.3</ele>
        <time>2020-05-24T10:28:03Z</time>
      </trkpt>
      <trkpt lat="46.1448" lon="5.54376">
        <ele>499.6</ele>
        <time>2020-05-24T10:28:05Z</time>
      </trkpt>
      <trkpt lat="46.14482" lon="5.54373">
        <ele>499.8</ele>
        <time>2020-05-24T10:28:06Z</time>
      </trkpt>
      <trkpt lat="46.14483" lon="5.54371">
        <ele>499.9</ele>
        <time>2020-05-24T10:28:07Z</time>
      </trkpt>
      <trkpt lat="46.14485" lon="5.54367">
        <ele>500.2</ele>
        <time>2020-05-24T10:28:09Z</time>
      </trkpt>
      <trkpt lat="46.14487" lon="5.54363">
        <ele>500.5</ele>
        <time>2020-05-24T10:28:10Z</time>
      </trkpt>
      <trkpt lat="46.14489" lon="5.54359">
        <ele>500.8</ele>
        <time>2020-05-24T10:28:12Z</time>
      </trkpt>
      <trkpt lat="46.14492" lon="5.54352">
        <ele>501.2</ele>
        <time>2020-05-24T10:28:14Z</time>
      </trkpt>
      <trkpt lat="46.14494" lon="5.54348">
        <ele>501.4</ele>
        <time>2020-05-24T10:28:15Z</time>
      </trkpt>
      <trkpt lat="46.14498" lon="5.54343">
        <ele>501.7</ele>
        <time>2020-05-24T10:28:16Z</time>
      </trkpt>
      <trkpt lat="46.145" lon="5.5434">
        <ele>501.8</ele>
        <time>2020-05-24T10:28:17Z</time>
      </trkpt>
      <trkpt lat="46.14503" lon="5.54335">
        <ele>502</ele>
        <time>2020-05-24T10:28:19Z</time>
      </trkpt>
      <trkpt lat="46.14506" lon="5.5433">
        <ele>502.3</ele>
        <time>2020-05-24T10:28:20Z</time>
      </trkpt>
      <trkpt lat="46.14507" lon="5.54326">
        <ele>502.4</ele>
        <time>2020-05-24T10:28:21Z</time>
      </trkpt>
      <trkpt lat="46.14508" lon="5.54325">
        <ele>502.4</ele>
        <time>2020-05-24T10:28:22Z</time>
      </trkpt>
      <trkpt lat="46.14509" lon="5.54321">
        <ele>502.6</ele>
        <time>2020-05-24T10:28:24Z</time>
      </trkpt>
      <trkpt lat="46.14511" lon="5.54317">
        <ele>502.9</ele>
        <time>2020-05-24T10:28:26Z</time>
      </trkpt>
      <trkpt lat="46.14513" lon="5.54312">
        <ele>503.2</ele>
        <time>2020-05-24T10:28:28Z</time>
      </trkpt>
      <trkpt lat="46.14513" lon="5.54311">
        <ele>503.3</ele>
        <time>2020-05-24T10:28:29Z</time>
      </trkpt>
      <trkpt lat="46.14514" lon="5.54309">
        <ele>503.3</ele>
        <time>2020-05-24T10:28:30Z</time>
      </trkpt>
      <trkpt lat="46.14514" lon="5.54308">
        <ele>503.4</ele>
        <time>2020-05-24T10:28:31Z</time>
      </trkpt>
      <trkpt lat="46.14516" lon="5.54304">
        <ele>503.5</ele>
        <time>2020-05-24T10:28:33Z</time>
      </trkpt>
      <trkpt lat="46.14516" lon="5.54303">
        <ele>503.6</ele>
        <time>2020-05-24T10:28:34Z</time>
      </trkpt>
      <trkpt lat="46.14517" lon="5.54301">
        <ele>503.7</ele>
        <time>2020-05-24T10:28:35Z</time>
      </trkpt>
      <trkpt lat="46.14518" lon="5.54299">
        <ele>503.8</ele>
        <time>2020-05-24T10:28:37Z</time>
      </trkpt>
      <trkpt lat="46.14519" lon="5.54296">
        <ele>503.9</ele>
        <time>2020-05-24T10:28:38Z</time>
      </trkpt>
      <trkpt lat="46.14521" lon="5.54291">
        <ele>504</ele>
        <time>2020-05-24T10:28:40Z</time>
      </trkpt>
      <trkpt lat="46.14522" lon="5.5429">
        <ele>504.1</ele>
        <time>2020-05-24T10:28:41Z</time>
      </trkpt>
      <trkpt lat="46.14524" lon="5.54288">
        <ele>504.2</ele>
        <time>2020-05-24T10:28:43Z</time>
      </trkpt>
      <trkpt lat="46.14525" lon="5.54286">
        <ele>504.3</ele>
        <time>2020-05-24T10:28:44Z</time>
      </trkpt>
      <trkpt lat="46.14527" lon="5.54284">
        <ele>504.4</ele>
        <time>2020-05-24T10:28:46Z</time>
      </trkpt>
      <trkpt lat="46.14528" lon="5.54283">
        <ele>504.4</ele>
        <time>2020-05-24T10:28:48Z</time>
      </trkpt>
      <trkpt lat="46.14528" lon="5.54282">
        <ele>504.4</ele>
        <time>2020-05-24T10:28:49Z</time>
      </trkpt>
      <trkpt lat="46.14529" lon="5.54281">
        <ele>504.5</ele>
        <time>2020-05-24T10:28:50Z</time>
      </trkpt>
      <trkpt lat="46.14531" lon="5.54279">
        <ele>504.6</ele>
        <time>2020-05-24T10:28:52Z</time>
      </trkpt>
      <trkpt lat="46.14531" lon="5.54279">
        <ele>504.6</ele>
        <time>2020-05-24T10:28:53Z</time>
      </trkpt>
      <trkpt lat="46.14532" lon="5.54279">
        <ele>504.6</ele>
        <time>2020-05-24T10:28:55Z</time>
      </trkpt>
      <trkpt lat="46.14532" lon="5.54279">
        <ele>504.6</ele>
        <time>2020-05-24T10:28:57Z</time>
      </trkpt>
      <trkpt lat="46.14532" lon="5.54278">
        <ele>504.6</ele>
        <time>2020-05-24T10:28:58Z</time>
      </trkpt>
      <trkpt lat="46.14533" lon="5.54278">
        <ele>504.6</ele>
        <time>2020-05-24T10:29:00Z</time>
      </trkpt>
      <trkpt lat="46.14533" lon="5.54278">
        <ele>504.7</ele>
        <time>2020-05-24T10:29:21Z</time>
      </trkpt>
      <trkpt lat="46.14533" lon="5.54278">
        <ele>504.7</ele>
        <time>2020-05-24T10:29:22Z</time>
      </trkpt>
      <trkpt lat="46.14534" lon="5.54278">
        <ele>504.7</ele>
        <time>2020-05-24T10:29:23Z</time>
      </trkpt>
      <trkpt lat="46.14534" lon="5.54278">
        <ele>504.7</ele>
        <time>2020-05-24T10:29:25Z</time>
      </trkpt>
      <trkpt lat="46.14534" lon="5.54278">
        <ele>504.7</ele>
        <time>2020-05-24T10:29:27Z</time>
      </trkpt>
      <trkpt lat="46.14535" lon="5.54278">
        <ele>504.7</ele>
        <time>2020-05-24T10:29:28Z</time>
      </trkpt>
      <trkpt lat="46.14535" lon="5.54278">
        <ele>504.7</ele>
        <time>2020-05-24T10:29:30Z</time>
      </trkpt>
      <trkpt lat="46.14535" lon="5.54278">
        <ele>504.8</ele>
        <time>2020-05-24T10:29:31Z</time>
      </trkpt>
      <trkpt lat="46.14536" lon="5.54278">
        <ele>504.8</ele>
        <time>2020-05-24T10:29:33Z</time>
      </trkpt>
      <trkpt lat="46.14536" lon="5.54277">
        <ele>504.8</ele>
        <time>2020-05-24T10:29:35Z</time>
      </trkpt>
      <trkpt lat="46.14536" lon="5.54277">
        <ele>504.8</ele>
        <time>2020-05-24T10:29:37Z</time>
      </trkpt>
      <trkpt lat="46.14537" lon="5.54277">
        <ele>504.8</ele>
        <time>2020-05-24T10:29:39Z</time>
      </trkpt>
      <trkpt lat="46.14537" lon="5.54277">
        <ele>504.8</ele>
        <time>2020-05-24T10:29:40Z</time>
      </trkpt>
      <trkpt lat="46.14537" lon="5.54277">
        <ele>504.8</ele>
        <time>2020-05-24T10:29:42Z</time>
      </trkpt>
      <trkpt lat="46.14538" lon="5.54277">
        <ele>504.8</ele>
        <time>2020-05-24T10:29:44Z</time>
      </trkpt>
      <trkpt lat="46.14538" lon="5.54277">
        <ele>504.8</ele>
        <time>2020-05-24T10:29:45Z</time>
      </trkpt>
      <trkpt lat="46.14538" lon="5.54277">
        <ele>504.9</ele>
        <time>2020-05-24T10:29:46Z</time>
      </trkpt>
      <trkpt lat="46.14539" lon="5.54277">
        <ele>504.9</ele>
        <time>2020-05-24T10:29:47Z</time>
      </trkpt>
      <trkpt lat="46.14539" lon="5.54277">
        <ele>504.9</ele>
        <time>2020-05-24T10:29:49Z</time>
      </trkpt>
      <trkpt lat="46.14539" lon="5.54276">
        <ele>504.9</ele>
        <time>2020-05-24T10:29:51Z</time>
      </trkpt>
      <trkpt lat="46.1454" lon="5.54276">
        <ele>504.9</ele>
        <time>2020-05-24T10:29:52Z</time>
      </trkpt>
      <trkpt lat="46.1454" lon="5.54276">
        <ele>504.9</ele>
        <time>2020-05-24T10:29:54Z</time>
      </trkpt>
      <trkpt lat="46.1454" lon="5.54276">
        <ele>504.9</ele>
        <time>2020-05-24T10:29:56Z</time>
      </trkpt>
      <trkpt lat="46.14541" lon="5.54276">
        <ele>504.9</ele>
        <time>2020-05-24T10:29:58Z</time>
      </trkpt>
      <trkpt lat="46.14541" lon="5.54276">
        <ele>504.9</ele>
        <time>2020-05-24T10:30:00Z</time>
      </trkpt>
      <trkpt lat="46.14541" lon="5.54276">
        <ele>504.9</ele>
        <time>2020-05-24T10:30:01Z</time>
      </trkpt>
      <trkpt lat="46.14542" lon="5.54276">
        <ele>504.9</ele>
        <time>2020-05-24T10:30:02Z</time>
      </trkpt>
      <trkpt lat="46.14542" lon="5.54276">
        <ele>504.9</ele>
        <time>2020-05-24T10:30:04Z</time>
      </trkpt>
      <trkpt lat="46.14542" lon="5.54276">
        <ele>504.9</ele>
        <time>2020-05-24T10:30:05Z</time>
      </trkpt>
      <trkpt lat="46.14543" lon="5.54275">
        <ele>505</ele>
        <time>2020-05-24T10:30:07Z</time>
      </trkpt>
      <trkpt lat="46.14543" lon="5.54275">
        <ele>505</ele>
        <time>2020-05-24T10:30:08Z</time>
      </trkpt>
      <trkpt lat="46.14543" lon="5.54275">
        <ele>505</ele>
        <time>2020-05-24T10:30:10Z</time>
      </trkpt>
      <trkpt lat="46.14544" lon="5.54275">
        <ele>505</ele>
        <time>2020-05-24T10:30:11Z</time>
      </trkpt>
      <trkpt lat="46.14544" lon="5.54275">
        <ele>505</ele>
        <time>2020-05-24T10:30:13Z</time>
      </trkpt>
      <trkpt lat="46.14544" lon="5.54275">
        <ele>505</ele>
        <time>2020-05-24T10:30:15Z</time>
      </trkpt>
      <trkpt lat="46.14545" lon="5.54275">
        <ele>505</ele>
        <time>2020-05-24T10:30:16Z</time>
      </trkpt>
      <trkpt lat="46.14545" lon="5.54275">
        <ele>505</ele>
        <time>2020-05-24T10:30:18Z</time>
      </trkpt>
      <trkpt lat="46.14545" lon="5.54275">
        <ele>505</ele>
        <time>2020-05-24T10:30:20Z</time>
      </trkpt>
      <trkpt lat="46.14546" lon="5.54275">
        <ele>505</ele>
        <time>2020-05-24T10:30:21Z</time>
      </trkpt>
      <trkpt lat="46.14546" lon="5.54275">
        <ele>505</ele>
        <time>2020-05-24T10:30:23Z</time>
      </trkpt>
      <trkpt lat="46.14546" lon="5.54274">
        <ele>505</ele>
        <time>2020-05-24T10:30:25Z</time>
      </trkpt>
      <trkpt lat="46.14547" lon="5.54274">
        <ele>505</ele>
        <time>2020-05-24T10:30:27Z</time>
      </trkpt>
      <trkpt lat="46.14547" lon="5.54274">
        <ele>505</ele>
        <time>2020-05-24T10:30:28Z</time>
      </trkpt>
      <trkpt lat="46.14547" lon="5.54274">
        <ele>505</ele>
        <time>2020-05-24T10:30:29Z</time>
      </trkpt>
      <trkpt lat="46.14548" lon="5.54274">
        <ele>505</ele>
        <time>2020-05-24T10:30:30Z</time>
      </trkpt>
      <trkpt lat="46.14548" lon="5.54274">
        <ele>505</ele>
        <time>2020-05-24T10:30:32Z</time>
      </trkpt>
      <trkpt lat="46.14548" lon="5.54274">
        <ele>505</ele>
        <time>2020-05-24T10:30:33Z</time>
      </trkpt>
      <trkpt lat="46.14549" lon="5.54274">
        <ele>505</ele>
        <time>2020-05-24T10:30:34Z</time>
      </trkpt>
      <trkpt lat="46.14549" lon="5.54274">
        <ele>505</ele>
        <time>2020-05-24T10:30:36Z</time>
      </trkpt>
      <trkpt lat="46.14549" lon="5.54274">
        <ele>505</ele>
        <time>2020-05-24T10:30:37Z</time>
      </trkpt>
      <trkpt lat="46.1455" lon="5.54273">
        <ele>505</ele>
        <time>2020-05-24T10:30:39Z</time>
      </trkpt>
      <trkpt lat="46.1455" lon="5.54273">
        <ele>505</ele>
        <time>2020-05-24T10:30:41Z</time>
      </trkpt>
      <trkpt lat="46.1455" lon="5.54273">
        <ele>505</ele>
        <time>2020-05-24T10:30:42Z</time>
      </trkpt>
      <trkpt lat="46.1455" lon="5.54273">
        <ele>505</ele>
        <time>2020-05-24T10:30:44Z</time>
      </trkpt>
      <trkpt lat="46.14551" lon="5.54273">
        <ele>505</ele>
        <time>2020-05-24T10:30:46Z</time>
      </trkpt>
      <trkpt lat="46.14551" lon="5.54273">
        <ele>505</ele>
        <time>2020-05-24T10:30:48Z</time>
      </trkpt>
      <trkpt lat="46.14551" lon="5.54273">
        <ele>505</ele>
        <time>2020-05-24T10:30:50Z</time>
      </trkpt>
      <trkpt lat="46.14552" lon="5.54273">
        <ele>505</ele>
        <time>2020-05-24T10:30:52Z</time>
      </trkpt>
      <trkpt lat="46.14552" lon="5.54273">
        <ele>505</ele>
        <time>2020-05-24T10:30:54Z</time>
      </trkpt>
      <trkpt lat="46.14552" lon="5.54273">
        <ele>505</ele>
        <time>2020-05-24T10:30:55Z</time>
      </trkpt>
      <trkpt lat="46.14553" lon="5.54273">
        <ele>505</ele>
        <time>2020-05-24T10:30:56Z</time>
      </trkpt>
      <trkpt lat="46.14553" lon="5.54272">
        <ele>505</ele>
        <time>2020-05-24T10:30:57Z</time>
      </trkpt>
      <trkpt lat="46.14553" lon="5.54272">
        <ele>505</ele>
        <time>2020-05-24T10:30:59Z</time>
      </trkpt>
      <trkpt lat="46.14554" lon="5.54272">
        <ele>505</ele>
        <time>2020-05-24T10:31:00Z</time>
      </trkpt>
      <trkpt lat="46.14554" lon="5.54272">
        <ele>505</ele>
        <time>2020-05-24T10:31:01Z</time>
      </trkpt>
      <trkpt lat="46.14554" lon="5.54272">
        <ele>505</ele>
        <time>2020-05-24T10:31:02Z</time>
      </trkpt>
      <trkpt lat="46.14555" lon="5.54272">
        <ele>505</ele>
        <time>2020-05-24T10:31:04Z</time>
      </trkpt>
      <trkpt lat="46.14555" lon="5.54272">
        <ele>504.9</ele>
        <time>2020-05-24T10:31:06Z</time>
      </trkpt>
      <trkpt lat="46.14555" lon="5.54272">
        <ele>504.9</ele>
        <time>2020-05-24T10:32:02Z</time>
      </trkpt>
      <trkpt lat="46.14556" lon="5.54272">
        <ele>504.9</ele>
        <time>2020-05-24T10:32:03Z</time>
      </trkpt>
      <trkpt lat="46.14556" lon="5.54272">
        <ele>504.9</ele>
        <time>2020-05-24T10:32:04Z</time>
      </trkpt>
      <trkpt lat="46.14556" lon="5.54271">
        <ele>504.9</ele>
        <time>2020-05-24T10:32:05Z</time>
      </trkpt>
      <trkpt lat="46.14559" lon="5.54274">
        <ele>504.8</ele>
        <time>2020-05-24T10:32:07Z</time>
      </trkpt>
      <trkpt lat="46.14562" lon="5.54279">
        <ele>504.7</ele>
        <time>2020-05-24T10:32:08Z</time>
      </trkpt>
      <trkpt lat="46.14565" lon="5.54284">
        <ele>504.5</ele>
        <time>2020-05-24T10:32:09Z</time>
      </trkpt>
      <trkpt lat="46.14568" lon="5.54289">
        <ele>504.4</ele>
        <time>2020-05-24T10:32:10Z</time>
      </trkpt>
      <trkpt lat="46.1457" lon="5.54292">
        <ele>504.3</ele>
        <time>2020-05-24T10:32:11Z</time>
      </trkpt>
      <trkpt lat="46.14572" lon="5.54296">
        <ele>504.2</ele>
        <time>2020-05-24T10:32:12Z</time>
      </trkpt>
      <trkpt lat="46.14574" lon="5.54299">
        <ele>504.1</ele>
        <time>2020-05-24T10:32:13Z</time>
      </trkpt>
      <trkpt lat="46.14577" lon="5.54304">
        <ele>504</ele>
        <time>2020-05-24T10:32:15Z</time>
      </trkpt>
      <trkpt lat="46.14579" lon="5.54309">
        <ele>503.9</ele>
        <time>2020-05-24T10:32:16Z</time>
      </trkpt>
      <trkpt lat="46.14582" lon="5.54316">
        <ele>503.8</ele>
        <time>2020-05-24T10:32:18Z</time>
      </trkpt>
      <trkpt lat="46.14585" lon="5.54322">
        <ele>503.8</ele>
        <time>2020-05-24T10:32:19Z</time>
      </trkpt>
      <trkpt lat="46.14589" lon="5.5433">
        <ele>503.8</ele>
        <time>2020-05-24T10:32:21Z</time>
      </trkpt>
      <trkpt lat="46.1459" lon="5.54334">
        <ele>503.8</ele>
        <time>2020-05-24T10:32:22Z</time>
      </trkpt>
      <trkpt lat="46.14593" lon="5.54341">
        <ele>503.9</ele>
        <time>2020-05-24T10:32:24Z</time>
      </trkpt>
      <trkpt lat="46.14594" lon="5.54343">
        <ele>503.9</ele>
        <time>2020-05-24T10:32:25Z</time>
      </trkpt>
      <trkpt lat="46.14596" lon="5.54348">
        <ele>504</ele>
        <time>2020-05-24T10:32:27Z</time>
      </trkpt>
      <trkpt lat="46.14598" lon="5.54353">
        <ele>504.2</ele>
        <time>2020-05-24T10:32:28Z</time>
      </trkpt>
      <trkpt lat="46.146" lon="5.54356">
        <ele>504.4</ele>
        <time>2020-05-24T10:32:29Z</time>
      </trkpt>
      <trkpt lat="46.14602" lon="5.54361">
        <ele>504.6</ele>
        <time>2020-05-24T10:32:30Z</time>
      </trkpt>
      <trkpt lat="46.14603" lon="5.54364">
        <ele>504.7</ele>
        <time>2020-05-24T10:32:31Z</time>
      </trkpt>
      <trkpt lat="46.14606" lon="5.54369">
        <ele>505</ele>
        <time>2020-05-24T10:32:33Z</time>
      </trkpt>
      <trkpt lat="46.14609" lon="5.54373">
        <ele>505.2</ele>
        <time>2020-05-24T10:32:35Z</time>
      </trkpt>
      <trkpt lat="46.14609" lon="5.54374">
        <ele>505.3</ele>
        <time>2020-05-24T10:32:36Z</time>
      </trkpt>
      <trkpt lat="46.14611" lon="5.54376">
        <ele>505.4</ele>
        <time>2020-05-24T10:32:37Z</time>
      </trkpt>
      <trkpt lat="46.14612" lon="5.54377">
        <ele>505.5</ele>
        <time>2020-05-24T10:32:38Z</time>
      </trkpt>
      <trkpt lat="46.14614" lon="5.54381">
        <ele>505.7</ele>
        <time>2020-05-24T10:32:40Z</time>
      </trkpt>
      <trkpt lat="46.14615" lon="5.54382">
        <ele>505.8</ele>
        <time>2020-05-24T10:32:41Z</time>
      </trkpt>
      <trkpt lat="46.14616" lon="5.54384">
        <ele>506</ele>
        <time>2020-05-24T10:32:42Z</time>
      </trkpt>
      <trkpt lat="46.14617" lon="5.54385">
        <ele>506.1</ele>
        <time>2020-05-24T10:32:43Z</time>
      </trkpt>
      <trkpt lat="46.1462" lon="5.5439">
        <ele>506.5</ele>
        <time>2020-05-24T10:32:45Z</time>
      </trkpt>
      <trkpt lat="46.14621" lon="5.54391">
        <ele>506.6</ele>
        <time>2020-05-24T10:32:47Z</time>
      </trkpt>
      <trkpt lat="46.14623" lon="5.54394">
        <ele>506.8</ele>
        <time>2020-05-24T10:32:48Z</time>
      </trkpt>
      <trkpt lat="46.14625" lon="5.54397">
        <ele>507.1</ele>
        <time>2020-05-24T10:32:50Z</time>
      </trkpt>
      <trkpt lat="46.14626" lon="5.54398">
        <ele>507.2</ele>
        <time>2020-05-24T10:32:51Z</time>
      </trkpt>
      <trkpt lat="46.14628" lon="5.54401">
        <ele>507.6</ele>
        <time>2020-05-24T10:32:53Z</time>
      </trkpt>
      <trkpt lat="46.14629" lon="5.54402">
        <ele>507.7</ele>
        <time>2020-05-24T10:32:54Z</time>
      </trkpt>
      <trkpt lat="46.14631" lon="5.54405">
        <ele>508.1</ele>
        <time>2020-05-24T10:32:56Z</time>
      </trkpt>
      <trkpt lat="46.14633" lon="5.54407">
        <ele>508.4</ele>
        <time>2020-05-24T10:32:58Z</time>
      </trkpt>
      <trkpt lat="46.14634" lon="5.54409">
        <ele>508.5</ele>
        <time>2020-05-24T10:32:59Z</time>
      </trkpt>
      <trkpt lat="46.14636" lon="5.54412">
        <ele>508.9</ele>
        <time>2020-05-24T10:33:01Z</time>
      </trkpt>
      <trkpt lat="46.14637" lon="5.54413">
        <ele>509</ele>
        <time>2020-05-24T10:33:02Z</time>
      </trkpt>
      <trkpt lat="46.14639" lon="5.54414">
        <ele>509.3</ele>
        <time>2020-05-24T10:33:03Z</time>
      </trkpt>
      <trkpt lat="46.1464" lon="5.54415">
        <ele>509.4</ele>
        <time>2020-05-24T10:33:04Z</time>
      </trkpt>
      <trkpt lat="46.14641" lon="5.54415">
        <ele>509.6</ele>
        <time>2020-05-24T10:33:05Z</time>
      </trkpt>
      <trkpt lat="46.14643" lon="5.54417">
        <ele>509.9</ele>
        <time>2020-05-24T10:33:07Z</time>
      </trkpt>
      <trkpt lat="46.14646" lon="5.5442">
        <ele>510.3</ele>
        <time>2020-05-24T10:33:08Z</time>
      </trkpt>
      <trkpt lat="46.14648" lon="5.54423">
        <ele>510.7</ele>
        <time>2020-05-24T10:33:10Z</time>
      </trkpt>
      <trkpt lat="46.1465" lon="5.54424">
        <ele>510.9</ele>
        <time>2020-05-24T10:33:12Z</time>
      </trkpt>
      <trkpt lat="46.14652" lon="5.54424">
        <ele>511.1</ele>
        <time>2020-05-24T10:33:13Z</time>
      </trkpt>
      <trkpt lat="46.14653" lon="5.54425">
        <ele>511.2</ele>
        <time>2020-05-24T10:33:14Z</time>
      </trkpt>
      <trkpt lat="46.14656" lon="5.54427">
        <ele>511.5</ele>
        <time>2020-05-24T10:33:16Z</time>
      </trkpt>
      <trkpt lat="46.14658" lon="5.5443">
        <ele>511.8</ele>
        <time>2020-05-24T10:33:17Z</time>
      </trkpt>
      <trkpt lat="46.14659" lon="5.5443">
        <ele>511.8</ele>
        <time>2020-05-24T10:33:18Z</time>
      </trkpt>
      <trkpt lat="46.14662" lon="5.54433">
        <ele>512</ele>
        <time>2020-05-24T10:33:19Z</time>
      </trkpt>
      <trkpt lat="46.14665" lon="5.54435">
        <ele>512.2</ele>
        <time>2020-05-24T10:33:21Z</time>
      </trkpt>
      <trkpt lat="46.14666" lon="5.54436">
        <ele>512.2</ele>
        <time>2020-05-24T10:33:22Z</time>
      </trkpt>
      <trkpt lat="46.14672" lon="5.54439">
        <ele>512.3</ele>
        <time>2020-05-24T10:33:24Z</time>
      </trkpt>
      <trkpt lat="46.14676" lon="5.54442">
        <ele>512.4</ele>
        <time>2020-05-24T10:33:25Z</time>
      </trkpt>
      <trkpt lat="46.14679" lon="5.54446">
        <ele>512.3</ele>
        <time>2020-05-24T10:33:26Z</time>
      </trkpt>
      <trkpt lat="46.14681" lon="5.54448">
        <ele>512.2</ele>
        <time>2020-05-24T10:33:27Z</time>
      </trkpt>
      <trkpt lat="46.14684" lon="5.54452">
        <ele>512.1</ele>
        <time>2020-05-24T10:33:28Z</time>
      </trkpt>
      <trkpt lat="46.14688" lon="5.54458">
        <ele>511.8</ele>
        <time>2020-05-24T10:33:30Z</time>
      </trkpt>
      <trkpt lat="46.14691" lon="5.54461">
        <ele>511.6</ele>
        <time>2020-05-24T10:33:31Z</time>
      </trkpt>
      <trkpt lat="46.14695" lon="5.54466">
        <ele>511.2</ele>
        <time>2020-05-24T10:33:33Z</time>
      </trkpt>
      <trkpt lat="46.147" lon="5.54473">
        <ele>510.7</ele>
        <time>2020-05-24T10:33:34Z</time>
      </trkpt>
      <trkpt lat="46.14705" lon="5.54481">
        <ele>510.2</ele>
        <time>2020-05-24T10:33:36Z</time>
      </trkpt>
      <trkpt lat="46.14709" lon="5.54487">
        <ele>509.7</ele>
        <time>2020-05-24T10:33:38Z</time>
      </trkpt>
      <trkpt lat="46.14713" lon="5.54492">
        <ele>509.3</ele>
        <time>2020-05-24T10:33:39Z</time>
      </trkpt>
      <trkpt lat="46.14717" lon="5.54495">
        <ele>509</ele>
        <time>2020-05-24T10:33:40Z</time>
      </trkpt>
      <trkpt lat="46.14723" lon="5.545">
        <ele>508.4</ele>
        <time>2020-05-24T10:33:42Z</time>
      </trkpt>
      <trkpt lat="46.14727" lon="5.545">
        <ele>508.1</ele>
        <time>2020-05-24T10:33:43Z</time>
      </trkpt>
      <trkpt lat="46.14731" lon="5.54499">
        <ele>507.9</ele>
        <time>2020-05-24T10:33:45Z</time>
      </trkpt>
      <trkpt lat="46.14733" lon="5.54496">
        <ele>507.9</ele>
        <time>2020-05-24T10:33:46Z</time>
      </trkpt>
      <trkpt lat="46.14733" lon="5.54495">
        <ele>507.8</ele>
        <time>2020-05-24T10:33:47Z</time>
      </trkpt>
      <trkpt lat="46.14734" lon="5.54494">
        <ele>507.8</ele>
        <time>2020-05-24T10:33:48Z</time>
      </trkpt>
      <trkpt lat="46.14735" lon="5.54493">
        <ele>507.8</ele>
        <time>2020-05-24T10:33:49Z</time>
      </trkpt>
      <trkpt lat="46.14736" lon="5.54492">
        <ele>507.8</ele>
        <time>2020-05-24T10:33:51Z</time>
      </trkpt>
      <trkpt lat="46.14737" lon="5.54491">
        <ele>507.5</ele>
        <time>2020-05-24T10:33:52Z</time>
      </trkpt>
      <trkpt lat="46.14738" lon="5.54489">
        <ele>507.4</ele>
        <time>2020-05-24T10:33:53Z</time>
      </trkpt>
      <trkpt lat="46.14739" lon="5.54488">
        <ele>507.1</ele>
        <time>2020-05-24T10:33:54Z</time>
      </trkpt>
      <trkpt lat="46.14739" lon="5.54485">
        <ele>507.1</ele>
        <time>2020-05-24T10:33:56Z</time>
      </trkpt>
      <trkpt lat="46.1474" lon="5.54482">
        <ele>506.8</ele>
        <time>2020-05-24T10:33:57Z</time>
      </trkpt>
      <trkpt lat="46.1474" lon="5.54481">
        <ele>506.9</ele>
        <time>2020-05-24T10:33:58Z</time>
      </trkpt>
      <trkpt lat="46.1474" lon="5.54479">
        <ele>506.6</ele>
        <time>2020-05-24T10:33:59Z</time>
      </trkpt>
      <trkpt lat="46.14739" lon="5.54476">
        <ele>506.6</ele>
        <time>2020-05-24T10:34:00Z</time>
      </trkpt>
      <trkpt lat="46.14738" lon="5.54474">
        <ele>506.4</ele>
        <time>2020-05-24T10:34:02Z</time>
      </trkpt>
      <trkpt lat="46.14737" lon="5.54473">
        <ele>506.4</ele>
        <time>2020-05-24T10:34:03Z</time>
      </trkpt>
      <trkpt lat="46.14736" lon="5.5447">
        <ele>506.2</ele>
        <time>2020-05-24T10:34:04Z</time>
      </trkpt>
      <trkpt lat="46.14735" lon="5.54469">
        <ele>506.2</ele>
        <time>2020-05-24T10:34:06Z</time>
      </trkpt>
      <trkpt lat="46.14734" lon="5.54467">
        <ele>506.2</ele>
        <time>2020-05-24T10:34:07Z</time>
      </trkpt>
      <trkpt lat="46.14731" lon="5.54465">
        <ele>505.9</ele>
        <time>2020-05-24T10:34:08Z</time>
      </trkpt>
      <trkpt lat="46.14731" lon="5.54463">
        <ele>506</ele>
        <time>2020-05-24T10:34:10Z</time>
      </trkpt>
      <trkpt lat="46.1473" lon="5.54461">
        <ele>505.8</ele>
        <time>2020-05-24T10:34:12Z</time>
      </trkpt>
      <trkpt lat="46.14729" lon="5.54459">
        <ele>505.8</ele>
        <time>2020-05-24T10:34:13Z</time>
      </trkpt>
      <trkpt lat="46.14728" lon="5.54457">
        <ele>505.5</ele>
        <time>2020-05-24T10:34:14Z</time>
      </trkpt>
      <trkpt lat="46.14727" lon="5.54455">
        <ele>505.6</ele>
        <time>2020-05-24T10:34:15Z</time>
      </trkpt>
      <trkpt lat="46.14726" lon="5.54453">
        <ele>505.4</ele>
        <time>2020-05-24T10:34:17Z</time>
      </trkpt>
      <trkpt lat="46.14725" lon="5.54451">
        <ele>505.3</ele>
        <time>2020-05-24T10:34:18Z</time>
      </trkpt>
      <trkpt lat="46.14724" lon="5.54449">
        <ele>505.3</ele>
        <time>2020-05-24T10:34:19Z</time>
      </trkpt>
      <trkpt lat="46.14722" lon="5.54447">
        <ele>505</ele>
        <time>2020-05-24T10:34:20Z</time>
      </trkpt>
      <trkpt lat="46.14721" lon="5.54446">
        <ele>505</ele>
        <time>2020-05-24T10:34:21Z</time>
      </trkpt>
      <trkpt lat="46.1472" lon="5.54444">
        <ele>505</ele>
        <time>2020-05-24T10:34:22Z</time>
      </trkpt>
      <trkpt lat="46.14718" lon="5.54442">
        <ele>504.8</ele>
        <time>2020-05-24T10:34:24Z</time>
      </trkpt>
      <trkpt lat="46.14717" lon="5.5444">
        <ele>504.7</ele>
        <time>2020-05-24T10:34:25Z</time>
      </trkpt>
      <trkpt lat="46.14716" lon="5.54439">
        <ele>504.5</ele>
        <time>2020-05-24T10:34:26Z</time>
      </trkpt>
      <trkpt lat="46.14714" lon="5.54437">
        <ele>504.5</ele>
        <time>2020-05-24T10:34:28Z</time>
      </trkpt>
      <trkpt lat="46.14713" lon="5.54435">
        <ele>504.2</ele>
        <time>2020-05-24T10:34:29Z</time>
      </trkpt>
      <trkpt lat="46.14712" lon="5.54434">
        <ele>504.3</ele>
        <time>2020-05-24T10:34:30Z</time>
      </trkpt>
      <trkpt lat="46.1471" lon="5.54433">
        <ele>504.1</ele>
        <time>2020-05-24T10:34:31Z</time>
      </trkpt>
      <trkpt lat="46.14708" lon="5.54432">
        <ele>504</ele>
        <time>2020-05-24T10:34:32Z</time>
      </trkpt>
      <trkpt lat="46.14706" lon="5.5443">
        <ele>503.8</ele>
        <time>2020-05-24T10:34:34Z</time>
      </trkpt>
      <trkpt lat="46.14705" lon="5.54429">
        <ele>503.8</ele>
        <time>2020-05-24T10:34:35Z</time>
      </trkpt>
      <trkpt lat="46.14703" lon="5.54426">
        <ele>503.5</ele>
        <time>2020-05-24T10:34:37Z</time>
      </trkpt>
      <trkpt lat="46.14702" lon="5.54424">
        <ele>503.5</ele>
        <time>2020-05-24T10:34:39Z</time>
      </trkpt>
      <trkpt lat="46.147" lon="5.54421">
        <ele>503.2</ele>
        <time>2020-05-24T10:34:40Z</time>
      </trkpt>
      <trkpt lat="46.14699" lon="5.5442">
        <ele>503.3</ele>
        <time>2020-05-24T10:34:41Z</time>
      </trkpt>
      <trkpt lat="46.14696" lon="5.54417">
        <ele>503.1</ele>
        <time>2020-05-24T10:34:43Z</time>
      </trkpt>
      <trkpt lat="46.14695" lon="5.54414">
        <ele>503</ele>
        <time>2020-05-24T10:34:44Z</time>
      </trkpt>
      <trkpt lat="46.14694" lon="5.54413">
        <ele>503</ele>
        <time>2020-05-24T10:34:45Z</time>
      </trkpt>
      <trkpt lat="46.14694" lon="5.54411">
        <ele>503</ele>
        <time>2020-05-24T10:34:47Z</time>
      </trkpt>
      <trkpt lat="46.14693" lon="5.54408">
        <ele>503.3</ele>
        <time>2020-05-24T10:34:48Z</time>
      </trkpt>
      <trkpt lat="46.14692" lon="5.54405">
        <ele>503.3</ele>
        <time>2020-05-24T10:34:50Z</time>
      </trkpt>
      <trkpt lat="46.14691" lon="5.54403">
        <ele>503.3</ele>
        <time>2020-05-24T10:34:51Z</time>
      </trkpt>
      <trkpt lat="46.14691" lon="5.54401">
        <ele>503.7</ele>
        <time>2020-05-24T10:34:52Z</time>
      </trkpt>
      <trkpt lat="46.1469" lon="5.54397">
        <ele>504</ele>
        <time>2020-05-24T10:34:54Z</time>
      </trkpt>
      <trkpt lat="46.1469" lon="5.54396">
        <ele>503.8</ele>
        <time>2020-05-24T10:34:55Z</time>
      </trkpt>
      <trkpt lat="46.14689" lon="5.54391">
        <ele>504.2</ele>
        <time>2020-05-24T10:34:57Z</time>
      </trkpt>
      <trkpt lat="46.14689" lon="5.54389">
        <ele>504.6</ele>
        <time>2020-05-24T10:34:58Z</time>
      </trkpt>
      <trkpt lat="46.14689" lon="5.54386">
        <ele>504.6</ele>
        <time>2020-05-24T10:34:59Z</time>
      </trkpt>
      <trkpt lat="46.14689" lon="5.54384">
        <ele>505</ele>
        <time>2020-05-24T10:35:00Z</time>
      </trkpt>
      <trkpt lat="46.14688" lon="5.5438">
        <ele>505.5</ele>
        <time>2020-05-24T10:35:02Z</time>
      </trkpt>
      <trkpt lat="46.14688" lon="5.54378">
        <ele>505.5</ele>
        <time>2020-05-24T10:35:03Z</time>
      </trkpt>
      <trkpt lat="46.14689" lon="5.54375">
        <ele>506.1</ele>
        <time>2020-05-24T10:35:05Z</time>
      </trkpt>
      <trkpt lat="46.14689" lon="5.54372">
        <ele>506.1</ele>
        <time>2020-05-24T10:35:06Z</time>
      </trkpt>
      <trkpt lat="46.14689" lon="5.54368">
        <ele>506.6</ele>
        <time>2020-05-24T10:35:08Z</time>
      </trkpt>
      <trkpt lat="46.14689" lon="5.54367">
        <ele>507.2</ele>
        <time>2020-05-24T10:35:09Z</time>
      </trkpt>
      <trkpt lat="46.1469" lon="5.54364">
        <ele>507.3</ele>
        <time>2020-05-24T10:35:11Z</time>
      </trkpt>
      <trkpt lat="46.1469" lon="5.54361">
        <ele>508.3</ele>
        <time>2020-05-24T10:35:12Z</time>
      </trkpt>
      <trkpt lat="46.1469" lon="5.5436">
        <ele>508</ele>
        <time>2020-05-24T10:35:13Z</time>
      </trkpt>
      <trkpt lat="46.1469" lon="5.54358">
        <ele>508.6</ele>
        <time>2020-05-24T10:35:15Z</time>
      </trkpt>
      <trkpt lat="46.1469" lon="5.54356">
        <ele>508.6</ele>
        <time>2020-05-24T10:35:16Z</time>
      </trkpt>
      <trkpt lat="46.14689" lon="5.54354">
        <ele>509.3</ele>
        <time>2020-05-24T10:35:17Z</time>
      </trkpt>
      <trkpt lat="46.14689" lon="5.54348">
        <ele>510</ele>
        <time>2020-05-24T10:35:19Z</time>
      </trkpt>
      <trkpt lat="46.14689" lon="5.54347">
        <ele>510</ele>
        <time>2020-05-24T10:35:20Z</time>
      </trkpt>
      <trkpt lat="46.14688" lon="5.54345">
        <ele>510.7</ele>
        <time>2020-05-24T10:35:22Z</time>
      </trkpt>
      <trkpt lat="46.14688" lon="5.54343">
        <ele>510.7</ele>
        <time>2020-05-24T10:35:23Z</time>
      </trkpt>
      <trkpt lat="46.14688" lon="5.5434">
        <ele>511.5</ele>
        <time>2020-05-24T10:35:24Z</time>
      </trkpt>
      <trkpt lat="46.14688" lon="5.54339">
        <ele>511.5</ele>
        <time>2020-05-24T10:35:25Z</time>
      </trkpt>
      <trkpt lat="46.14688" lon="5.54338">
        <ele>511.6</ele>
        <time>2020-05-24T10:35:26Z</time>
      </trkpt>
      <trkpt lat="46.14688" lon="5.54334">
        <ele>512.4</ele>
        <time>2020-05-24T10:35:28Z</time>
      </trkpt>
      <trkpt lat="46.14688" lon="5.54333">
        <ele>513.3</ele>
        <time>2020-05-24T10:35:29Z</time>
      </trkpt>
      <trkpt lat="46.14688" lon="5.54331">
        <ele>513.3</ele>
        <time>2020-05-24T10:35:31Z</time>
      </trkpt>
      <trkpt lat="46.14688" lon="5.54329">
        <ele>513.3</ele>
        <time>2020-05-24T10:35:32Z</time>
      </trkpt>
      <trkpt lat="46.14688" lon="5.54328">
        <ele>514.3</ele>
        <time>2020-05-24T10:35:33Z</time>
      </trkpt>
      <trkpt lat="46.14688" lon="5.54324">
        <ele>515.3</ele>
        <time>2020-05-24T10:35:34Z</time>
      </trkpt>
      <trkpt lat="46.14687" lon="5.54322">
        <ele>515.3</ele>
        <time>2020-05-24T10:35:36Z</time>
      </trkpt>
      <trkpt lat="46.14687" lon="5.5432">
        <ele>516.3</ele>
        <time>2020-05-24T10:35:37Z</time>
      </trkpt>
      <trkpt lat="46.14687" lon="5.54318">
        <ele>516.3</ele>
        <time>2020-05-24T10:35:38Z</time>
      </trkpt>
      <trkpt lat="46.14687" lon="5.54316">
        <ele>516.9</ele>
        <time>2020-05-24T10:35:39Z</time>
      </trkpt>
      <trkpt lat="46.14686" lon="5.54314">
        <ele>517</ele>
        <time>2020-05-24T10:35:41Z</time>
      </trkpt>
      <trkpt lat="46.14685" lon="5.54312">
        <ele>518</ele>
        <time>2020-05-24T10:35:42Z</time>
      </trkpt>
      <trkpt lat="46.14685" lon="5.54309">
        <ele>518</ele>
        <time>2020-05-24T10:35:43Z</time>
      </trkpt>
      <trkpt lat="46.14685" lon="5.54308">
        <ele>518.1</ele>
        <time>2020-05-24T10:35:44Z</time>
      </trkpt>
      <trkpt lat="46.14684" lon="5.54307">
        <ele>519.1</ele>
        <time>2020-05-24T10:35:45Z</time>
      </trkpt>
      <trkpt lat="46.14684" lon="5.54306">
        <ele>519.1</ele>
        <time>2020-05-24T10:35:46Z</time>
      </trkpt>
      <trkpt lat="46.14684" lon="5.54306">
        <ele>519.2</ele>
        <time>2020-05-24T10:35:47Z</time>
      </trkpt>
      <trkpt lat="46.14683" lon="5.54304">
        <ele>518.8</ele>
        <time>2020-05-24T10:35:49Z</time>
      </trkpt>
      <trkpt lat="46.14682" lon="5.54301">
        <ele>519.8</ele>
        <time>2020-05-24T10:35:50Z</time>
      </trkpt>
      <trkpt lat="46.14682" lon="5.54299">
        <ele>519.8</ele>
        <time>2020-05-24T10:35:51Z</time>
      </trkpt>
      <trkpt lat="46.14681" lon="5.54297">
        <ele>520.8</ele>
        <time>2020-05-24T10:35:52Z</time>
      </trkpt>
      <trkpt lat="46.14681" lon="5.54295">
        <ele>520.9</ele>
        <time>2020-05-24T10:35:54Z</time>
      </trkpt>
      <trkpt lat="46.14681" lon="5.54293">
        <ele>521.5</ele>
        <time>2020-05-24T10:35:55Z</time>
      </trkpt>
      <trkpt lat="46.1468" lon="5.5429">
        <ele>521.5</ele>
        <time>2020-05-24T10:35:57Z</time>
      </trkpt>
      <trkpt lat="46.1468" lon="5.5429">
        <ele>522.6</ele>
        <time>2020-05-24T10:35:59Z</time>
      </trkpt>
      <trkpt lat="46.1468" lon="5.54289">
        <ele>522.6</ele>
        <time>2020-05-24T10:36:00Z</time>
      </trkpt>
      <trkpt lat="46.14679" lon="5.54288">
        <ele>522.7</ele>
        <time>2020-05-24T10:36:01Z</time>
      </trkpt>
      <trkpt lat="46.14679" lon="5.54287">
        <ele>522.7</ele>
        <time>2020-05-24T10:36:02Z</time>
      </trkpt>
      <trkpt lat="46.14679" lon="5.54286">
        <ele>523.8</ele>
        <time>2020-05-24T10:36:04Z</time>
      </trkpt>
      <trkpt lat="46.14678" lon="5.54284">
        <ele>523.9</ele>
        <time>2020-05-24T10:36:06Z</time>
      </trkpt>
      <trkpt lat="46.14677" lon="5.54279">
        <ele>524.6</ele>
        <time>2020-05-24T10:36:08Z</time>
      </trkpt>
      <trkpt lat="46.14676" lon="5.54277">
        <ele>525.8</ele>
        <time>2020-05-24T10:36:09Z</time>
      </trkpt>
      <trkpt lat="46.14675" lon="5.54276">
        <ele>525.8</ele>
        <time>2020-05-24T10:36:11Z</time>
      </trkpt>
      <trkpt lat="46.14675" lon="5.54275">
        <ele>525.4</ele>
        <time>2020-05-24T10:36:12Z</time>
      </trkpt>
      <trkpt lat="46.14674" lon="5.54274">
        <ele>525.5</ele>
        <time>2020-05-24T10:36:13Z</time>
      </trkpt>
      <trkpt lat="46.14673" lon="5.54272">
        <ele>526.6</ele>
        <time>2020-05-24T10:36:15Z</time>
      </trkpt>
      <trkpt lat="46.14672" lon="5.5427">
        <ele>526.7</ele>
        <time>2020-05-24T10:36:16Z</time>
      </trkpt>
      <trkpt lat="46.14672" lon="5.54267">
        <ele>527.3</ele>
        <time>2020-05-24T10:36:18Z</time>
      </trkpt>
      <trkpt lat="46.14671" lon="5.54266">
        <ele>527.3</ele>
        <time>2020-05-24T10:36:19Z</time>
      </trkpt>
      <trkpt lat="46.14671" lon="5.54265">
        <ele>527.3</ele>
        <time>2020-05-24T10:36:20Z</time>
      </trkpt>
      <trkpt lat="46.1467" lon="5.54262">
        <ele>528.3</ele>
        <time>2020-05-24T10:36:22Z</time>
      </trkpt>
      <trkpt lat="46.14669" lon="5.54261">
        <ele>528.4</ele>
        <time>2020-05-24T10:36:23Z</time>
      </trkpt>
      <trkpt lat="46.14669" lon="5.54258">
        <ele>529.3</ele>
        <time>2020-05-24T10:36:25Z</time>
      </trkpt>
      <trkpt lat="46.14669" lon="5.54258">
        <ele>528.8</ele>
        <time>2020-05-24T10:36:26Z</time>
      </trkpt>
      <trkpt lat="46.14667" lon="5.54255">
        <ele>529.8</ele>
        <time>2020-05-24T10:36:28Z</time>
      </trkpt>
      <trkpt lat="46.14667" lon="5.54253">
        <ele>529.8</ele>
        <time>2020-05-24T10:36:29Z</time>
      </trkpt>
      <trkpt lat="46.14666" lon="5.54251">
        <ele>530.7</ele>
        <time>2020-05-24T10:36:30Z</time>
      </trkpt>
      <trkpt lat="46.14666" lon="5.5425">
        <ele>530.8</ele>
        <time>2020-05-24T10:36:31Z</time>
      </trkpt>
      <trkpt lat="46.14666" lon="5.54248">
        <ele>530.3</ele>
        <time>2020-05-24T10:36:33Z</time>
      </trkpt>
      <trkpt lat="46.14665" lon="5.54246">
        <ele>531.3</ele>
        <time>2020-05-24T10:36:34Z</time>
      </trkpt>
      <trkpt lat="46.14664" lon="5.54244">
        <ele>531.3</ele>
        <time>2020-05-24T10:36:35Z</time>
      </trkpt>
      <trkpt lat="46.14664" lon="5.54243">
        <ele>532.3</ele>
        <time>2020-05-24T10:36:37Z</time>
      </trkpt>
      <trkpt lat="46.14664" lon="5.54241">
        <ele>532.3</ele>
        <time>2020-05-24T10:36:38Z</time>
      </trkpt>
      <trkpt lat="46.14663" lon="5.54238">
        <ele>532.8</ele>
        <time>2020-05-24T10:36:39Z</time>
      </trkpt>
      <trkpt lat="46.14662" lon="5.54236">
        <ele>532.9</ele>
        <time>2020-05-24T10:36:41Z</time>
      </trkpt>
      <trkpt lat="46.14661" lon="5.5423">
        <ele>533.9</ele>
        <time>2020-05-24T10:36:43Z</time>
      </trkpt>
      <trkpt lat="46.1466" lon="5.54227">
        <ele>534.5</ele>
        <time>2020-05-24T10:36:44Z</time>
      </trkpt>
      <trkpt lat="46.14659" lon="5.54225">
        <ele>535.6</ele>
        <time>2020-05-24T10:36:45Z</time>
      </trkpt>
      <trkpt lat="46.14658" lon="5.54222">
        <ele>535.6</ele>
        <time>2020-05-24T10:36:47Z</time>
      </trkpt>
      <trkpt lat="46.14657" lon="5.54221">
        <ele>536.6</ele>
        <time>2020-05-24T10:36:48Z</time>
      </trkpt>
      <trkpt lat="46.14657" lon="5.54219">
        <ele>536.2</ele>
        <time>2020-05-24T10:36:49Z</time>
      </trkpt>
      <trkpt lat="46.14656" lon="5.54218">
        <ele>536.3</ele>
        <time>2020-05-24T10:36:51Z</time>
      </trkpt>
      <trkpt lat="46.14656" lon="5.54217">
        <ele>537.2</ele>
        <time>2020-05-24T10:36:52Z</time>
      </trkpt>
      <trkpt lat="46.14655" lon="5.54213">
        <ele>537.2</ele>
        <time>2020-05-24T10:36:53Z</time>
      </trkpt>
      <trkpt lat="46.14654" lon="5.54212">
        <ele>538.1</ele>
        <time>2020-05-24T10:36:54Z</time>
      </trkpt>
      <trkpt lat="46.14653" lon="5.54209">
        <ele>537.7</ele>
        <time>2020-05-24T10:36:56Z</time>
      </trkpt>
      <trkpt lat="46.14653" lon="5.54208">
        <ele>538.5</ele>
        <time>2020-05-24T10:36:57Z</time>
      </trkpt>
      <trkpt lat="46.14652" lon="5.54205">
        <ele>538.6</ele>
        <time>2020-05-24T10:36:59Z</time>
      </trkpt>
      <trkpt lat="46.14651" lon="5.54203">
        <ele>538.9</ele>
        <time>2020-05-24T10:37:01Z</time>
      </trkpt>
      <trkpt lat="46.1465" lon="5.54201">
        <ele>538.9</ele>
        <time>2020-05-24T10:37:02Z</time>
      </trkpt>
      <trkpt lat="46.1465" lon="5.54199">
        <ele>539.8</ele>
        <time>2020-05-24T10:37:03Z</time>
      </trkpt>
      <trkpt lat="46.14647" lon="5.54194">
        <ele>540.1</ele>
        <time>2020-05-24T10:37:05Z</time>
      </trkpt>
      <trkpt lat="46.14647" lon="5.54191">
        <ele>541</ele>
        <time>2020-05-24T10:37:06Z</time>
      </trkpt>
      <trkpt lat="46.14646" lon="5.5419">
        <ele>541</ele>
        <time>2020-05-24T10:37:08Z</time>
      </trkpt>
      <trkpt lat="46.14645" lon="5.54188">
        <ele>540.6</ele>
        <time>2020-05-24T10:37:09Z</time>
      </trkpt>
      <trkpt lat="46.14643" lon="5.54186">
        <ele>541.4</ele>
        <time>2020-05-24T10:37:10Z</time>
      </trkpt>
      <trkpt lat="46.14643" lon="5.54185">
        <ele>541.5</ele>
        <time>2020-05-24T10:37:12Z</time>
      </trkpt>
      <trkpt lat="46.14642" lon="5.54184">
        <ele>541.5</ele>
        <time>2020-05-24T10:37:13Z</time>
      </trkpt>
      <trkpt lat="46.14642" lon="5.54184">
        <ele>541</ele>
        <time>2020-05-24T10:37:14Z</time>
      </trkpt>
      <trkpt lat="46.14641" lon="5.54182">
        <ele>541.9</ele>
        <time>2020-05-24T10:37:15Z</time>
      </trkpt>
      <trkpt lat="46.1464" lon="5.5418">
        <ele>542</ele>
        <time>2020-05-24T10:37:17Z</time>
      </trkpt>
      <trkpt lat="46.14639" lon="5.54179">
        <ele>541.5</ele>
        <time>2020-05-24T10:37:18Z</time>
      </trkpt>
      <trkpt lat="46.14638" lon="5.54179">
        <ele>542.4</ele>
        <time>2020-05-24T10:37:19Z</time>
      </trkpt>
      <trkpt lat="46.14636" lon="5.54177">
        <ele>542</ele>
        <time>2020-05-24T10:37:21Z</time>
      </trkpt>
      <trkpt lat="46.14634" lon="5.54176">
        <ele>542.1</ele>
        <time>2020-05-24T10:37:22Z</time>
      </trkpt>
      <trkpt lat="46.14632" lon="5.54175">
        <ele>541.7</ele>
        <time>2020-05-24T10:37:24Z</time>
      </trkpt>
      <trkpt lat="46.14631" lon="5.54174">
        <ele>542.6</ele>
        <time>2020-05-24T10:37:25Z</time>
      </trkpt>
      <trkpt lat="46.1463" lon="5.54174">
        <ele>542.4</ele>
        <time>2020-05-24T10:37:26Z</time>
      </trkpt>
      <trkpt lat="46.14629" lon="5.54173">
        <ele>542.4</ele>
        <time>2020-05-24T10:37:28Z</time>
      </trkpt>
      <trkpt lat="46.14628" lon="5.54172">
        <ele>542.4</ele>
        <time>2020-05-24T10:37:30Z</time>
      </trkpt>
      <trkpt lat="46.14626" lon="5.54171">
        <ele>542.2</ele>
        <time>2020-05-24T10:37:32Z</time>
      </trkpt>
      <trkpt lat="46.14625" lon="5.5417">
        <ele>543.1</ele>
        <time>2020-05-24T10:37:33Z</time>
      </trkpt>
      <trkpt lat="46.14623" lon="5.54169">
        <ele>542.8</ele>
        <time>2020-05-24T10:37:34Z</time>
      </trkpt>
      <trkpt lat="46.14622" lon="5.54168">
        <ele>542.9</ele>
        <time>2020-05-24T10:37:35Z</time>
      </trkpt>
      <trkpt lat="46.14621" lon="5.54167">
        <ele>542.7</ele>
        <time>2020-05-24T10:37:36Z</time>
      </trkpt>
      <trkpt lat="46.1462" lon="5.54166">
        <ele>543.5</ele>
        <time>2020-05-24T10:37:38Z</time>
      </trkpt>
      <trkpt lat="46.14619" lon="5.54164">
        <ele>543.6</ele>
        <time>2020-05-24T10:37:39Z</time>
      </trkpt>
      <trkpt lat="46.14619" lon="5.54163">
        <ele>543.6</ele>
        <time>2020-05-24T10:37:40Z</time>
      </trkpt>
      <trkpt lat="46.14618" lon="5.54159">
        <ele>544.2</ele>
        <time>2020-05-24T10:37:42Z</time>
      </trkpt>
      <trkpt lat="46.14618" lon="5.54159">
        <ele>544.3</ele>
        <time>2020-05-24T10:37:44Z</time>
      </trkpt>
      <trkpt lat="46.14618" lon="5.54158">
        <ele>544.3</ele>
        <time>2020-05-24T10:37:46Z</time>
      </trkpt>
      <trkpt lat="46.14617" lon="5.54155">
        <ele>544.5</ele>
        <time>2020-05-24T10:37:47Z</time>
      </trkpt>
      <trkpt lat="46.14617" lon="5.54154">
        <ele>544.6</ele>
        <time>2020-05-24T10:37:49Z</time>
      </trkpt>
      <trkpt lat="46.14617" lon="5.54153">
        <ele>544.6</ele>
        <time>2020-05-24T10:37:50Z</time>
      </trkpt>
      <trkpt lat="46.14618" lon="5.54151">
        <ele>544.7</ele>
        <time>2020-05-24T10:37:51Z</time>
      </trkpt>
      <trkpt lat="46.14619" lon="5.54151">
        <ele>544.8</ele>
        <time>2020-05-24T10:37:52Z</time>
      </trkpt>
      <trkpt lat="46.14619" lon="5.5415">
        <ele>544.8</ele>
        <time>2020-05-24T10:37:53Z</time>
      </trkpt>
      <trkpt lat="46.1462" lon="5.5415">
        <ele>544.9</ele>
        <time>2020-05-24T10:37:55Z</time>
      </trkpt>
      <trkpt lat="46.14621" lon="5.5415">
        <ele>545</ele>
        <time>2020-05-24T10:37:56Z</time>
      </trkpt>
      <trkpt lat="46.14621" lon="5.5415">
        <ele>545</ele>
        <time>2020-05-24T10:37:57Z</time>
      </trkpt>
      <trkpt lat="46.14622" lon="5.54151">
        <ele>545.1</ele>
        <time>2020-05-24T10:37:59Z</time>
      </trkpt>
      <trkpt lat="46.14622" lon="5.54152">
        <ele>545.1</ele>
        <time>2020-05-24T10:38:00Z</time>
      </trkpt>
      <trkpt lat="46.14623" lon="5.54152">
        <ele>545.2</ele>
        <time>2020-05-24T10:38:01Z</time>
      </trkpt>
      <trkpt lat="46.14625" lon="5.54153">
        <ele>545.4</ele>
        <time>2020-05-24T10:38:03Z</time>
      </trkpt>
      <trkpt lat="46.14626" lon="5.54153">
        <ele>545.5</ele>
        <time>2020-05-24T10:38:05Z</time>
      </trkpt>
      <trkpt lat="46.14627" lon="5.54153">
        <ele>545.5</ele>
        <time>2020-05-24T10:38:06Z</time>
      </trkpt>
      <trkpt lat="46.14628" lon="5.54153">
        <ele>545.6</ele>
        <time>2020-05-24T10:38:08Z</time>
      </trkpt>
      <trkpt lat="46.14628" lon="5.54153">
        <ele>545.6</ele>
        <time>2020-05-24T10:38:09Z</time>
      </trkpt>
      <trkpt lat="46.14629" lon="5.54154">
        <ele>545.7</ele>
        <time>2020-05-24T10:38:10Z</time>
      </trkpt>
      <trkpt lat="46.1463" lon="5.54155">
        <ele>545.8</ele>
        <time>2020-05-24T10:38:11Z</time>
      </trkpt>
      <trkpt lat="46.14631" lon="5.54156">
        <ele>545.9</ele>
        <time>2020-05-24T10:38:12Z</time>
      </trkpt>
      <trkpt lat="46.14632" lon="5.54156">
        <ele>546</ele>
        <time>2020-05-24T10:38:14Z</time>
      </trkpt>
      <trkpt lat="46.14633" lon="5.54156">
        <ele>546.1</ele>
        <time>2020-05-24T10:38:15Z</time>
      </trkpt>
      <trkpt lat="46.14635" lon="5.54157">
        <ele>546.2</ele>
        <time>2020-05-24T10:38:16Z</time>
      </trkpt>
      <trkpt lat="46.1464" lon="5.54157">
        <ele>546.6</ele>
        <time>2020-05-24T10:38:18Z</time>
      </trkpt>
      <trkpt lat="46.14641" lon="5.54158">
        <ele>546.7</ele>
        <time>2020-05-24T10:38:19Z</time>
      </trkpt>
      <trkpt lat="46.14643" lon="5.54158">
        <ele>546.8</ele>
        <time>2020-05-24T10:38:21Z</time>
      </trkpt>
      <trkpt lat="46.14645" lon="5.54159">
        <ele>546.9</ele>
        <time>2020-05-24T10:38:22Z</time>
      </trkpt>
      <trkpt lat="46.14645" lon="5.5416">
        <ele>547</ele>
        <time>2020-05-24T10:38:23Z</time>
      </trkpt>
      <trkpt lat="46.14647" lon="5.5416">
        <ele>547.1</ele>
        <time>2020-05-24T10:38:25Z</time>
      </trkpt>
      <trkpt lat="46.14651" lon="5.54163">
        <ele>547.4</ele>
        <time>2020-05-24T10:38:27Z</time>
      </trkpt>
      <trkpt lat="46.14652" lon="5.54164">
        <ele>547.5</ele>
        <time>2020-05-24T10:38:28Z</time>
      </trkpt>
      <trkpt lat="46.14653" lon="5.54165">
        <ele>547.5</ele>
        <time>2020-05-24T10:38:30Z</time>
      </trkpt>
      <trkpt lat="46.14653" lon="5.54166">
        <ele>547.6</ele>
        <time>2020-05-24T10:38:31Z</time>
      </trkpt>
      <trkpt lat="46.14655" lon="5.54168">
        <ele>547.7</ele>
        <time>2020-05-24T10:38:32Z</time>
      </trkpt>
      <trkpt lat="46.14658" lon="5.5417">
        <ele>547.9</ele>
        <time>2020-05-24T10:38:34Z</time>
      </trkpt>
      <trkpt lat="46.14659" lon="5.54171">
        <ele>548</ele>
        <time>2020-05-24T10:38:35Z</time>
      </trkpt>
      <trkpt lat="46.1466" lon="5.54171">
        <ele>548.1</ele>
        <time>2020-05-24T10:38:37Z</time>
      </trkpt>
      <trkpt lat="46.14661" lon="5.54172">
        <ele>548.2</ele>
        <time>2020-05-24T10:38:38Z</time>
      </trkpt>
      <trkpt lat="46.14661" lon="5.54172">
        <ele>548.2</ele>
        <time>2020-05-24T10:38:39Z</time>
      </trkpt>
      <trkpt lat="46.14663" lon="5.54174">
        <ele>548.4</ele>
        <time>2020-05-24T10:38:42Z</time>
      </trkpt>
      <trkpt lat="46.14664" lon="5.54174">
        <ele>548.5</ele>
        <time>2020-05-24T10:38:43Z</time>
      </trkpt>
      <trkpt lat="46.14665" lon="5.54176">
        <ele>548.6</ele>
        <time>2020-05-24T10:38:44Z</time>
      </trkpt>
      <trkpt lat="46.14666" lon="5.54178">
        <ele>548.8</ele>
        <time>2020-05-24T10:38:46Z</time>
      </trkpt>
      <trkpt lat="46.14668" lon="5.5418">
        <ele>549</ele>
        <time>2020-05-24T10:38:47Z</time>
      </trkpt>
      <trkpt lat="46.14669" lon="5.54181">
        <ele>549.1</ele>
        <time>2020-05-24T10:38:48Z</time>
      </trkpt>
      <trkpt lat="46.1467" lon="5.54182">
        <ele>549.2</ele>
        <time>2020-05-24T10:38:49Z</time>
      </trkpt>
      <trkpt lat="46.14671" lon="5.54183">
        <ele>549.3</ele>
        <time>2020-05-24T10:38:50Z</time>
      </trkpt>
      <trkpt lat="46.14672" lon="5.54185">
        <ele>549.5</ele>
        <time>2020-05-24T10:38:52Z</time>
      </trkpt>
      <trkpt lat="46.14674" lon="5.54189">
        <ele>549.8</ele>
        <time>2020-05-24T10:38:53Z</time>
      </trkpt>
      <trkpt lat="46.14675" lon="5.5419">
        <ele>549.9</ele>
        <time>2020-05-24T10:38:54Z</time>
      </trkpt>
      <trkpt lat="46.14676" lon="5.54191">
        <ele>550</ele>
        <time>2020-05-24T10:38:55Z</time>
      </trkpt>
      <trkpt lat="46.14677" lon="5.54193">
        <ele>550.2</ele>
        <time>2020-05-24T10:38:57Z</time>
      </trkpt>
      <trkpt lat="46.1468" lon="5.54196">
        <ele>550.5</ele>
        <time>2020-05-24T10:38:59Z</time>
      </trkpt>
      <trkpt lat="46.14681" lon="5.54198">
        <ele>550.7</ele>
        <time>2020-05-24T10:39:00Z</time>
      </trkpt>
      <trkpt lat="46.14682" lon="5.542">
        <ele>550.8</ele>
        <time>2020-05-24T10:39:01Z</time>
      </trkpt>
      <trkpt lat="46.14683" lon="5.54202">
        <ele>551</ele>
        <time>2020-05-24T10:39:03Z</time>
      </trkpt>
      <trkpt lat="46.14684" lon="5.54203">
        <ele>551.1</ele>
        <time>2020-05-24T10:39:04Z</time>
      </trkpt>
      <trkpt lat="46.14687" lon="5.54206">
        <ele>551.5</ele>
        <time>2020-05-24T10:39:05Z</time>
      </trkpt>
      <trkpt lat="46.14688" lon="5.54207">
        <ele>551.6</ele>
        <time>2020-05-24T10:39:07Z</time>
      </trkpt>
      <trkpt lat="46.14689" lon="5.54208">
        <ele>551.7</ele>
        <time>2020-05-24T10:39:08Z</time>
      </trkpt>
      <trkpt lat="46.14689" lon="5.54209">
        <ele>551.8</ele>
        <time>2020-05-24T10:39:09Z</time>
      </trkpt>
      <trkpt lat="46.1469" lon="5.5421">
        <ele>551.9</ele>
        <time>2020-05-24T10:39:10Z</time>
      </trkpt>
      <trkpt lat="46.14692" lon="5.5421">
        <ele>552.1</ele>
        <time>2020-05-24T10:39:12Z</time>
      </trkpt>
      <trkpt lat="46.14694" lon="5.54211">
        <ele>552.3</ele>
        <time>2020-05-24T10:39:13Z</time>
      </trkpt>
      <trkpt lat="46.14695" lon="5.54212">
        <ele>552.5</ele>
        <time>2020-05-24T10:39:14Z</time>
      </trkpt>
      <trkpt lat="46.14697" lon="5.54213">
        <ele>552.7</ele>
        <time>2020-05-24T10:39:16Z</time>
      </trkpt>
      <trkpt lat="46.147" lon="5.54214">
        <ele>553</ele>
        <time>2020-05-24T10:39:17Z</time>
      </trkpt>
      <trkpt lat="46.14702" lon="5.54215">
        <ele>553.1</ele>
        <time>2020-05-24T10:39:19Z</time>
      </trkpt>
      <trkpt lat="46.14703" lon="5.54215">
        <ele>553.3</ele>
        <time>2020-05-24T10:39:20Z</time>
      </trkpt>
      <trkpt lat="46.14706" lon="5.54216">
        <ele>553.5</ele>
        <time>2020-05-24T10:39:21Z</time>
      </trkpt>
      <trkpt lat="46.14707" lon="5.54217">
        <ele>553.6</ele>
        <time>2020-05-24T10:39:22Z</time>
      </trkpt>
      <trkpt lat="46.14708" lon="5.54218">
        <ele>553.7</ele>
        <time>2020-05-24T10:39:24Z</time>
      </trkpt>
      <trkpt lat="46.14709" lon="5.54219">
        <ele>553.8</ele>
        <time>2020-05-24T10:39:25Z</time>
      </trkpt>
      <trkpt lat="46.14711" lon="5.5422">
        <ele>553.9</ele>
        <time>2020-05-24T10:39:26Z</time>
      </trkpt>
      <trkpt lat="46.14712" lon="5.5422">
        <ele>554</ele>
        <time>2020-05-24T10:39:27Z</time>
      </trkpt>
      <trkpt lat="46.14715" lon="5.54222">
        <ele>554.3</ele>
        <time>2020-05-24T10:39:28Z</time>
      </trkpt>
      <trkpt lat="46.14716" lon="5.54223">
        <ele>554.3</ele>
        <time>2020-05-24T10:39:29Z</time>
      </trkpt>
      <trkpt lat="46.14717" lon="5.54225">
        <ele>554.5</ele>
        <time>2020-05-24T10:39:31Z</time>
      </trkpt>
      <trkpt lat="46.14718" lon="5.54226">
        <ele>554.6</ele>
        <time>2020-05-24T10:39:32Z</time>
      </trkpt>
      <trkpt lat="46.14721" lon="5.54228">
        <ele>554.8</ele>
        <time>2020-05-24T10:39:34Z</time>
      </trkpt>
      <trkpt lat="46.14722" lon="5.54229">
        <ele>554.9</ele>
        <time>2020-05-24T10:39:35Z</time>
      </trkpt>
      <trkpt lat="46.14723" lon="5.5423">
        <ele>555</ele>
        <time>2020-05-24T10:39:36Z</time>
      </trkpt>
      <trkpt lat="46.14724" lon="5.54231">
        <ele>555.1</ele>
        <time>2020-05-24T10:39:37Z</time>
      </trkpt>
      <trkpt lat="46.14726" lon="5.54232">
        <ele>555.3</ele>
        <time>2020-05-24T10:39:39Z</time>
      </trkpt>
      <trkpt lat="46.14728" lon="5.54233">
        <ele>555.4</ele>
        <time>2020-05-24T10:39:40Z</time>
      </trkpt>
      <trkpt lat="46.14729" lon="5.54234">
        <ele>555.6</ele>
        <time>2020-05-24T10:39:41Z</time>
      </trkpt>
      <trkpt lat="46.14731" lon="5.54235">
        <ele>555.7</ele>
        <time>2020-05-24T10:39:43Z</time>
      </trkpt>
      <trkpt lat="46.14732" lon="5.54235">
        <ele>555.8</ele>
        <time>2020-05-24T10:39:44Z</time>
      </trkpt>
      <trkpt lat="46.14734" lon="5.54236">
        <ele>555.9</ele>
        <time>2020-05-24T10:39:45Z</time>
      </trkpt>
      <trkpt lat="46.14736" lon="5.54236">
        <ele>556.1</ele>
        <time>2020-05-24T10:39:47Z</time>
      </trkpt>
      <trkpt lat="46.14738" lon="5.54235">
        <ele>556.3</ele>
        <time>2020-05-24T10:39:49Z</time>
      </trkpt>
      <trkpt lat="46.14739" lon="5.54234">
        <ele>556.4</ele>
        <time>2020-05-24T10:39:50Z</time>
      </trkpt>
      <trkpt lat="46.14741" lon="5.54234">
        <ele>556.5</ele>
        <time>2020-05-24T10:39:52Z</time>
      </trkpt>
      <trkpt lat="46.14744" lon="5.54235">
        <ele>556.7</ele>
        <time>2020-05-24T10:39:53Z</time>
      </trkpt>
      <trkpt lat="46.14745" lon="5.54235">
        <ele>556.8</ele>
        <time>2020-05-24T10:39:54Z</time>
      </trkpt>
      <trkpt lat="46.14747" lon="5.54235">
        <ele>557</ele>
        <time>2020-05-24T10:39:56Z</time>
      </trkpt>
      <trkpt lat="46.14749" lon="5.54236">
        <ele>557.1</ele>
        <time>2020-05-24T10:39:57Z</time>
      </trkpt>
      <trkpt lat="46.14751" lon="5.54236">
        <ele>557.2</ele>
        <time>2020-05-24T10:39:59Z</time>
      </trkpt>
      <trkpt lat="46.14752" lon="5.54237">
        <ele>557.3</ele>
        <time>2020-05-24T10:40:00Z</time>
      </trkpt>
      <trkpt lat="46.14754" lon="5.54237">
        <ele>557.4</ele>
        <time>2020-05-24T10:40:01Z</time>
      </trkpt>
      <trkpt lat="46.14755" lon="5.54238">
        <ele>557.5</ele>
        <time>2020-05-24T10:40:02Z</time>
      </trkpt>
      <trkpt lat="46.14757" lon="5.54238">
        <ele>557.7</ele>
        <time>2020-05-24T10:40:04Z</time>
      </trkpt>
      <trkpt lat="46.14759" lon="5.54239">
        <ele>557.8</ele>
        <time>2020-05-24T10:40:05Z</time>
      </trkpt>
      <trkpt lat="46.1476" lon="5.54239">
        <ele>557.9</ele>
        <time>2020-05-24T10:40:06Z</time>
      </trkpt>
      <trkpt lat="46.14761" lon="5.5424">
        <ele>558</ele>
        <time>2020-05-24T10:40:07Z</time>
      </trkpt>
      <trkpt lat="46.14763" lon="5.54241">
        <ele>558.1</ele>
        <time>2020-05-24T10:40:09Z</time>
      </trkpt>
      <trkpt lat="46.14764" lon="5.54242">
        <ele>558.3</ele>
        <time>2020-05-24T10:40:11Z</time>
      </trkpt>
      <trkpt lat="46.14766" lon="5.54243">
        <ele>558.4</ele>
        <time>2020-05-24T10:40:12Z</time>
      </trkpt>
      <trkpt lat="46.14767" lon="5.54244">
        <ele>558.5</ele>
        <time>2020-05-24T10:40:13Z</time>
      </trkpt>
      <trkpt lat="46.1477" lon="5.54246">
        <ele>558.7</ele>
        <time>2020-05-24T10:40:15Z</time>
      </trkpt>
      <trkpt lat="46.14774" lon="5.54248">
        <ele>559</ele>
        <time>2020-05-24T10:40:17Z</time>
      </trkpt>
      <trkpt lat="46.14776" lon="5.54249">
        <ele>559.2</ele>
        <time>2020-05-24T10:40:18Z</time>
      </trkpt>
      <trkpt lat="46.14777" lon="5.5425">
        <ele>559.3</ele>
        <time>2020-05-24T10:40:19Z</time>
      </trkpt>
      <trkpt lat="46.14778" lon="5.5425">
        <ele>559.4</ele>
        <time>2020-05-24T10:40:20Z</time>
      </trkpt>
      <trkpt lat="46.1478" lon="5.54252">
        <ele>559.6</ele>
        <time>2020-05-24T10:40:22Z</time>
      </trkpt>
      <trkpt lat="46.14782" lon="5.54253">
        <ele>559.8</ele>
        <time>2020-05-24T10:40:24Z</time>
      </trkpt>
      <trkpt lat="46.14784" lon="5.54254">
        <ele>559.9</ele>
        <time>2020-05-24T10:40:25Z</time>
      </trkpt>
      <trkpt lat="46.14785" lon="5.54254">
        <ele>560</ele>
        <time>2020-05-24T10:40:26Z</time>
      </trkpt>
      <trkpt lat="46.14788" lon="5.54255">
        <ele>560.2</ele>
        <time>2020-05-24T10:40:28Z</time>
      </trkpt>
      <trkpt lat="46.1479" lon="5.54256">
        <ele>560.3</ele>
        <time>2020-05-24T10:40:29Z</time>
      </trkpt>
      <trkpt lat="46.14792" lon="5.54256">
        <ele>560.5</ele>
        <time>2020-05-24T10:40:31Z</time>
      </trkpt>
      <trkpt lat="46.14793" lon="5.54257">
        <ele>560.6</ele>
        <time>2020-05-24T10:40:32Z</time>
      </trkpt>
      <trkpt lat="46.14795" lon="5.54258">
        <ele>560.8</ele>
        <time>2020-05-24T10:40:33Z</time>
      </trkpt>
      <trkpt lat="46.14796" lon="5.54258">
        <ele>560.9</ele>
        <time>2020-05-24T10:40:34Z</time>
      </trkpt>
      <trkpt lat="46.14797" lon="5.54258">
        <ele>561</ele>
        <time>2020-05-24T10:40:35Z</time>
      </trkpt>
      <trkpt lat="46.14799" lon="5.5426">
        <ele>561.2</ele>
        <time>2020-05-24T10:40:37Z</time>
      </trkpt>
      <trkpt lat="46.148" lon="5.5426">
        <ele>561.3</ele>
        <time>2020-05-24T10:40:38Z</time>
      </trkpt>
      <trkpt lat="46.14801" lon="5.54261">
        <ele>561.4</ele>
        <time>2020-05-24T10:40:39Z</time>
      </trkpt>
      <trkpt lat="46.14804" lon="5.54263">
        <ele>561.7</ele>
        <time>2020-05-24T10:40:41Z</time>
      </trkpt>
      <trkpt lat="46.14804" lon="5.54263">
        <ele>561.8</ele>
        <time>2020-05-24T10:40:42Z</time>
      </trkpt>
      <trkpt lat="46.14806" lon="5.54263">
        <ele>561.9</ele>
        <time>2020-05-24T10:40:43Z</time>
      </trkpt>
      <trkpt lat="46.14808" lon="5.54265">
        <ele>562.1</ele>
        <time>2020-05-24T10:40:45Z</time>
      </trkpt>
      <trkpt lat="46.14809" lon="5.54266">
        <ele>562.3</ele>
        <time>2020-05-24T10:40:46Z</time>
      </trkpt>
      <trkpt lat="46.14811" lon="5.54267">
        <ele>562.5</ele>
        <time>2020-05-24T10:40:47Z</time>
      </trkpt>
      <trkpt lat="46.14814" lon="5.54268">
        <ele>562.8</ele>
        <time>2020-05-24T10:40:49Z</time>
      </trkpt>
      <trkpt lat="46.14815" lon="5.54269">
        <ele>562.9</ele>
        <time>2020-05-24T10:40:50Z</time>
      </trkpt>
      <trkpt lat="46.14816" lon="5.54269">
        <ele>563.1</ele>
        <time>2020-05-24T10:40:51Z</time>
      </trkpt>
      <trkpt lat="46.1482" lon="5.5427">
        <ele>563.4</ele>
        <time>2020-05-24T10:40:53Z</time>
      </trkpt>
      <trkpt lat="46.14821" lon="5.5427">
        <ele>563.5</ele>
        <time>2020-05-24T10:40:55Z</time>
      </trkpt>
      <trkpt lat="46.14823" lon="5.54271">
        <ele>563.7</ele>
        <time>2020-05-24T10:40:56Z</time>
      </trkpt>
      <trkpt lat="46.14824" lon="5.54272">
        <ele>563.8</ele>
        <time>2020-05-24T10:40:57Z</time>
      </trkpt>
      <trkpt lat="46.14826" lon="5.54272">
        <ele>564</ele>
        <time>2020-05-24T10:40:58Z</time>
      </trkpt>
      <trkpt lat="46.14829" lon="5.54274">
        <ele>564.2</ele>
        <time>2020-05-24T10:41:00Z</time>
      </trkpt>
      <trkpt lat="46.1483" lon="5.54275">
        <ele>564.4</ele>
        <time>2020-05-24T10:41:01Z</time>
      </trkpt>
      <trkpt lat="46.14833" lon="5.54276">
        <ele>564.7</ele>
        <time>2020-05-24T10:41:03Z</time>
      </trkpt>
      <trkpt lat="46.14836" lon="5.54278">
        <ele>565</ele>
        <time>2020-05-24T10:41:04Z</time>
      </trkpt>
      <trkpt lat="46.14837" lon="5.54278">
        <ele>565.2</ele>
        <time>2020-05-24T10:41:06Z</time>
      </trkpt>
      <trkpt lat="46.14839" lon="5.54279">
        <ele>565.3</ele>
        <time>2020-05-24T10:41:07Z</time>
      </trkpt>
      <trkpt lat="46.14842" lon="5.54281">
        <ele>565.7</ele>
        <time>2020-05-24T10:41:09Z</time>
      </trkpt>
      <trkpt lat="46.14843" lon="5.54281">
        <ele>565.8</ele>
        <time>2020-05-24T10:41:10Z</time>
      </trkpt>
      <trkpt lat="46.14846" lon="5.54282">
        <ele>566.2</ele>
        <time>2020-05-24T10:41:12Z</time>
      </trkpt>
      <trkpt lat="46.14846" lon="5.54282">
        <ele>566.3</ele>
        <time>2020-05-24T10:41:13Z</time>
      </trkpt>
      <trkpt lat="46.14849" lon="5.54283">
        <ele>566.6</ele>
        <time>2020-05-24T10:41:14Z</time>
      </trkpt>
      <trkpt lat="46.1485" lon="5.54284">
        <ele>566.7</ele>
        <time>2020-05-24T10:41:15Z</time>
      </trkpt>
      <trkpt lat="46.14852" lon="5.54283">
        <ele>566.9</ele>
        <time>2020-05-24T10:41:17Z</time>
      </trkpt>
      <trkpt lat="46.14853" lon="5.54284">
        <ele>567</ele>
        <time>2020-05-24T10:41:18Z</time>
      </trkpt>
      <trkpt lat="46.14854" lon="5.54284">
        <ele>567.1</ele>
        <time>2020-05-24T10:41:19Z</time>
      </trkpt>
      <trkpt lat="46.14857" lon="5.54284">
        <ele>567.4</ele>
        <time>2020-05-24T10:41:21Z</time>
      </trkpt>
      <trkpt lat="46.14858" lon="5.54284">
        <ele>567.5</ele>
        <time>2020-05-24T10:41:22Z</time>
      </trkpt>
      <trkpt lat="46.14859" lon="5.54285">
        <ele>567.6</ele>
        <time>2020-05-24T10:41:24Z</time>
      </trkpt>
      <trkpt lat="46.14861" lon="5.54286">
        <ele>567.7</ele>
        <time>2020-05-24T10:41:25Z</time>
      </trkpt>
      <trkpt lat="46.14863" lon="5.54287">
        <ele>568</ele>
        <time>2020-05-24T10:41:26Z</time>
      </trkpt>
      <trkpt lat="46.14864" lon="5.54287">
        <ele>568</ele>
        <time>2020-05-24T10:41:27Z</time>
      </trkpt>
      <trkpt lat="46.14865" lon="5.54287">
        <ele>568.1</ele>
        <time>2020-05-24T10:41:29Z</time>
      </trkpt>
      <trkpt lat="46.14866" lon="5.54288">
        <ele>568.2</ele>
        <time>2020-05-24T10:41:30Z</time>
      </trkpt>
      <trkpt lat="46.14868" lon="5.54288">
        <ele>568.3</ele>
        <time>2020-05-24T10:41:31Z</time>
      </trkpt>
      <trkpt lat="46.14869" lon="5.54288">
        <ele>568.4</ele>
        <time>2020-05-24T10:41:33Z</time>
      </trkpt>
      <trkpt lat="46.14871" lon="5.54288">
        <ele>568.5</ele>
        <time>2020-05-24T10:41:34Z</time>
      </trkpt>
      <trkpt lat="46.14873" lon="5.54289">
        <ele>568.7</ele>
        <time>2020-05-24T10:41:35Z</time>
      </trkpt>
      <trkpt lat="46.14875" lon="5.54289">
        <ele>568.9</ele>
        <time>2020-05-24T10:41:37Z</time>
      </trkpt>
      <trkpt lat="46.14877" lon="5.54289">
        <ele>569</ele>
        <time>2020-05-24T10:41:38Z</time>
      </trkpt>
      <trkpt lat="46.14878" lon="5.54289">
        <ele>569.1</ele>
        <time>2020-05-24T10:41:39Z</time>
      </trkpt>
      <trkpt lat="46.14879" lon="5.54289">
        <ele>569.2</ele>
        <time>2020-05-24T10:41:41Z</time>
      </trkpt>
      <trkpt lat="46.1488" lon="5.54288">
        <ele>569.3</ele>
        <time>2020-05-24T10:41:42Z</time>
      </trkpt>
      <trkpt lat="46.14882" lon="5.54287">
        <ele>569.5</ele>
        <time>2020-05-24T10:41:44Z</time>
      </trkpt>
      <trkpt lat="46.14883" lon="5.54287">
        <ele>569.6</ele>
        <time>2020-05-24T10:41:45Z</time>
      </trkpt>
      <trkpt lat="46.14885" lon="5.54286">
        <ele>569.8</ele>
        <time>2020-05-24T10:41:46Z</time>
      </trkpt>
      <trkpt lat="46.14887" lon="5.54285">
        <ele>570.1</ele>
        <time>2020-05-24T10:41:48Z</time>
      </trkpt>
      <trkpt lat="46.14888" lon="5.54285">
        <ele>570.2</ele>
        <time>2020-05-24T10:41:49Z</time>
      </trkpt>
      <trkpt lat="46.14892" lon="5.54285">
        <ele>570.6</ele>
        <time>2020-05-24T10:41:51Z</time>
      </trkpt>
      <trkpt lat="46.14893" lon="5.54285">
        <ele>570.7</ele>
        <time>2020-05-24T10:41:52Z</time>
      </trkpt>
      <trkpt lat="46.14894" lon="5.54285">
        <ele>570.8</ele>
        <time>2020-05-24T10:41:54Z</time>
      </trkpt>
      <trkpt lat="46.14895" lon="5.54285">
        <ele>571</ele>
        <time>2020-05-24T10:41:55Z</time>
      </trkpt>
      <trkpt lat="46.14897" lon="5.54285">
        <ele>571.1</ele>
        <time>2020-05-24T10:41:56Z</time>
      </trkpt>
      <trkpt lat="46.14899" lon="5.54284">
        <ele>571.4</ele>
        <time>2020-05-24T10:41:58Z</time>
      </trkpt>
      <trkpt lat="46.149" lon="5.54283">
        <ele>571.6</ele>
        <time>2020-05-24T10:41:59Z</time>
      </trkpt>
      <trkpt lat="46.14902" lon="5.54283">
        <ele>571.8</ele>
        <time>2020-05-24T10:42:01Z</time>
      </trkpt>
      <trkpt lat="46.14903" lon="5.54282">
        <ele>571.9</ele>
        <time>2020-05-24T10:42:02Z</time>
      </trkpt>
      <trkpt lat="46.14905" lon="5.54281">
        <ele>572.1</ele>
        <time>2020-05-24T10:42:03Z</time>
      </trkpt>
      <trkpt lat="46.14905" lon="5.54281">
        <ele>572.1</ele>
        <time>2020-05-24T10:42:05Z</time>
      </trkpt>
      <trkpt lat="46.14905" lon="5.54281">
        <ele>572.1</ele>
        <time>2020-05-24T10:42:06Z</time>
      </trkpt>
      <trkpt lat="46.14905" lon="5.54282">
        <ele>572.2</ele>
        <time>2020-05-24T10:42:08Z</time>
      </trkpt>
      <trkpt lat="46.14906" lon="5.54282">
        <ele>572.2</ele>
        <time>2020-05-24T10:42:09Z</time>
      </trkpt>
      <trkpt lat="46.14906" lon="5.54282">
        <ele>572.2</ele>
        <time>2020-05-24T10:42:11Z</time>
      </trkpt>
      <trkpt lat="46.14907" lon="5.54282">
        <ele>572.3</ele>
        <time>2020-05-24T10:42:13Z</time>
      </trkpt>
      <trkpt lat="46.1491" lon="5.54283">
        <ele>572.6</ele>
        <time>2020-05-24T10:42:20Z</time>
      </trkpt>
      <trkpt lat="46.14911" lon="5.54283">
        <ele>572.8</ele>
        <time>2020-05-24T10:42:21Z</time>
      </trkpt>
      <trkpt lat="46.14913" lon="5.54283">
        <ele>572.9</ele>
        <time>2020-05-24T10:42:22Z</time>
      </trkpt>
      <trkpt lat="46.14915" lon="5.54283">
        <ele>573.1</ele>
        <time>2020-05-24T10:42:23Z</time>
      </trkpt>
      <trkpt lat="46.14917" lon="5.54282">
        <ele>573.3</ele>
        <time>2020-05-24T10:42:25Z</time>
      </trkpt>
      <trkpt lat="46.1492" lon="5.54282">
        <ele>573.6</ele>
        <time>2020-05-24T10:42:27Z</time>
      </trkpt>
      <trkpt lat="46.14922" lon="5.54282">
        <ele>573.8</ele>
        <time>2020-05-24T10:42:29Z</time>
      </trkpt>
      <trkpt lat="46.14923" lon="5.54282">
        <ele>574</ele>
        <time>2020-05-24T10:42:30Z</time>
      </trkpt>
      <trkpt lat="46.14926" lon="5.54282">
        <ele>574.3</ele>
        <time>2020-05-24T10:42:32Z</time>
      </trkpt>
      <trkpt lat="46.14927" lon="5.54281">
        <ele>574.4</ele>
        <time>2020-05-24T10:42:33Z</time>
      </trkpt>
      <trkpt lat="46.14928" lon="5.54281">
        <ele>574.5</ele>
        <time>2020-05-24T10:42:34Z</time>
      </trkpt>
      <trkpt lat="46.14929" lon="5.54282">
        <ele>574.6</ele>
        <time>2020-05-24T10:42:35Z</time>
      </trkpt>
      <trkpt lat="46.14932" lon="5.54282">
        <ele>574.9</ele>
        <time>2020-05-24T10:42:37Z</time>
      </trkpt>
      <trkpt lat="46.14933" lon="5.54282">
        <ele>575</ele>
        <time>2020-05-24T10:42:38Z</time>
      </trkpt>
      <trkpt lat="46.14934" lon="5.54282">
        <ele>575.2</ele>
        <time>2020-05-24T10:42:39Z</time>
      </trkpt>
      <trkpt lat="46.14935" lon="5.54282">
        <ele>575.3</ele>
        <time>2020-05-24T10:42:41Z</time>
      </trkpt>
      <trkpt lat="46.14936" lon="5.54283">
        <ele>575.4</ele>
        <time>2020-05-24T10:42:42Z</time>
      </trkpt>
      <trkpt lat="46.14938" lon="5.54283">
        <ele>575.6</ele>
        <time>2020-05-24T10:42:44Z</time>
      </trkpt>
      <trkpt lat="46.1494" lon="5.54283">
        <ele>575.8</ele>
        <time>2020-05-24T10:42:45Z</time>
      </trkpt>
      <trkpt lat="46.14941" lon="5.54283">
        <ele>575.9</ele>
        <time>2020-05-24T10:42:46Z</time>
      </trkpt>
      <trkpt lat="46.14942" lon="5.54282">
        <ele>576</ele>
        <time>2020-05-24T10:42:48Z</time>
      </trkpt>
      <trkpt lat="46.14943" lon="5.54282">
        <ele>576.1</ele>
        <time>2020-05-24T10:42:49Z</time>
      </trkpt>
      <trkpt lat="46.14945" lon="5.54282">
        <ele>576.3</ele>
        <time>2020-05-24T10:42:51Z</time>
      </trkpt>
      <trkpt lat="46.14946" lon="5.54282">
        <ele>576.4</ele>
        <time>2020-05-24T10:42:53Z</time>
      </trkpt>
      <trkpt lat="46.14948" lon="5.54281">
        <ele>576.6</ele>
        <time>2020-05-24T10:42:54Z</time>
      </trkpt>
      <trkpt lat="46.14949" lon="5.54281">
        <ele>576.7</ele>
        <time>2020-05-24T10:42:56Z</time>
      </trkpt>
      <trkpt lat="46.14951" lon="5.54281">
        <ele>576.9</ele>
        <time>2020-05-24T10:42:57Z</time>
      </trkpt>
      <trkpt lat="46.14953" lon="5.54281">
        <ele>577.1</ele>
        <time>2020-05-24T10:42:59Z</time>
      </trkpt>
      <trkpt lat="46.14955" lon="5.54281">
        <ele>577.2</ele>
        <time>2020-05-24T10:43:00Z</time>
      </trkpt>
      <trkpt lat="46.14957" lon="5.54281">
        <ele>577.4</ele>
        <time>2020-05-24T10:43:02Z</time>
      </trkpt>
      <trkpt lat="46.1496" lon="5.54281">
        <ele>577.6</ele>
        <time>2020-05-24T10:43:03Z</time>
      </trkpt>
      <trkpt lat="46.14961" lon="5.54281">
        <ele>577.7</ele>
        <time>2020-05-24T10:43:04Z</time>
      </trkpt>
      <trkpt lat="46.14963" lon="5.54281">
        <ele>577.9</ele>
        <time>2020-05-24T10:43:06Z</time>
      </trkpt>
      <trkpt lat="46.14964" lon="5.54281">
        <ele>577.9</ele>
        <time>2020-05-24T10:43:07Z</time>
      </trkpt>
      <trkpt lat="46.14966" lon="5.54282">
        <ele>578.1</ele>
        <time>2020-05-24T10:43:08Z</time>
      </trkpt>
      <trkpt lat="46.14969" lon="5.54282">
        <ele>578.2</ele>
        <time>2020-05-24T10:43:10Z</time>
      </trkpt>
      <trkpt lat="46.14972" lon="5.54282">
        <ele>578.4</ele>
        <time>2020-05-24T10:43:12Z</time>
      </trkpt>
      <trkpt lat="46.14973" lon="5.54282">
        <ele>578.5</ele>
        <time>2020-05-24T10:43:13Z</time>
      </trkpt>
      <trkpt lat="46.14975" lon="5.54282">
        <ele>578.6</ele>
        <time>2020-05-24T10:43:14Z</time>
      </trkpt>
      <trkpt lat="46.14977" lon="5.54283">
        <ele>578.8</ele>
        <time>2020-05-24T10:43:16Z</time>
      </trkpt>
      <trkpt lat="46.14979" lon="5.54283">
        <ele>578.9</ele>
        <time>2020-05-24T10:43:18Z</time>
      </trkpt>
      <trkpt lat="46.14981" lon="5.54283">
        <ele>579.1</ele>
        <time>2020-05-24T10:43:19Z</time>
      </trkpt>
      <trkpt lat="46.14983" lon="5.54283">
        <ele>579.4</ele>
        <time>2020-05-24T10:43:21Z</time>
      </trkpt>
      <trkpt lat="46.14984" lon="5.54283">
        <ele>579.5</ele>
        <time>2020-05-24T10:43:22Z</time>
      </trkpt>
      <trkpt lat="46.14989" lon="5.54284">
        <ele>580</ele>
        <time>2020-05-24T10:43:24Z</time>
      </trkpt>
      <trkpt lat="46.14991" lon="5.54284">
        <ele>580.1</ele>
        <time>2020-05-24T10:43:25Z</time>
      </trkpt>
      <trkpt lat="46.14992" lon="5.54284">
        <ele>580.3</ele>
        <time>2020-05-24T10:43:26Z</time>
      </trkpt>
      <trkpt lat="46.14995" lon="5.54285">
        <ele>580.5</ele>
        <time>2020-05-24T10:43:28Z</time>
      </trkpt>
      <trkpt lat="46.14996" lon="5.54285">
        <ele>580.7</ele>
        <time>2020-05-24T10:43:30Z</time>
      </trkpt>
      <trkpt lat="46.15" lon="5.54285">
        <ele>581</ele>
        <time>2020-05-24T10:43:31Z</time>
      </trkpt>
      <trkpt lat="46.15001" lon="5.54286">
        <ele>581.1</ele>
        <time>2020-05-24T10:43:32Z</time>
      </trkpt>
      <trkpt lat="46.15002" lon="5.54286">
        <ele>581.2</ele>
        <time>2020-05-24T10:43:33Z</time>
      </trkpt>
      <trkpt lat="46.15004" lon="5.54286">
        <ele>581.5</ele>
        <time>2020-05-24T10:43:35Z</time>
      </trkpt>
      <trkpt lat="46.15009" lon="5.54286">
        <ele>581.8</ele>
        <time>2020-05-24T10:43:36Z</time>
      </trkpt>
      <trkpt lat="46.1501" lon="5.54286">
        <ele>582</ele>
        <time>2020-05-24T10:43:37Z</time>
      </trkpt>
      <trkpt lat="46.15011" lon="5.54286">
        <ele>582.1</ele>
        <time>2020-05-24T10:43:38Z</time>
      </trkpt>
      <trkpt lat="46.15013" lon="5.54286">
        <ele>582.2</ele>
        <time>2020-05-24T10:43:40Z</time>
      </trkpt>
      <trkpt lat="46.15015" lon="5.54286">
        <ele>582.4</ele>
        <time>2020-05-24T10:43:42Z</time>
      </trkpt>
      <trkpt lat="46.15016" lon="5.54286">
        <ele>582.6</ele>
        <time>2020-05-24T10:43:43Z</time>
      </trkpt>
      <trkpt lat="46.15018" lon="5.54286">
        <ele>582.7</ele>
        <time>2020-05-24T10:43:45Z</time>
      </trkpt>
      <trkpt lat="46.15019" lon="5.54287">
        <ele>582.8</ele>
        <time>2020-05-24T10:43:46Z</time>
      </trkpt>
      <trkpt lat="46.15021" lon="5.54287">
        <ele>583.1</ele>
        <time>2020-05-24T10:43:48Z</time>
      </trkpt>
      <trkpt lat="46.15022" lon="5.54287">
        <ele>583.2</ele>
        <time>2020-05-24T10:43:49Z</time>
      </trkpt>
      <trkpt lat="46.15024" lon="5.54287">
        <ele>583.4</ele>
        <time>2020-05-24T10:43:50Z</time>
      </trkpt>
      <trkpt lat="46.15026" lon="5.54287">
        <ele>583.5</ele>
        <time>2020-05-24T10:43:51Z</time>
      </trkpt>
      <trkpt lat="46.15028" lon="5.54286">
        <ele>583.8</ele>
        <time>2020-05-24T10:43:53Z</time>
      </trkpt>
      <trkpt lat="46.15029" lon="5.54286">
        <ele>583.9</ele>
        <time>2020-05-24T10:43:54Z</time>
      </trkpt>
      <trkpt lat="46.1503" lon="5.54286">
        <ele>584.1</ele>
        <time>2020-05-24T10:43:56Z</time>
      </trkpt>
      <trkpt lat="46.15032" lon="5.54286">
        <ele>584.3</ele>
        <time>2020-05-24T10:43:57Z</time>
      </trkpt>
      <trkpt lat="46.15034" lon="5.54286">
        <ele>584.5</ele>
        <time>2020-05-24T10:43:59Z</time>
      </trkpt>
      <trkpt lat="46.15036" lon="5.54286">
        <ele>584.6</ele>
        <time>2020-05-24T10:44:00Z</time>
      </trkpt>
      <trkpt lat="46.15039" lon="5.54285">
        <ele>585</ele>
        <time>2020-05-24T10:44:02Z</time>
      </trkpt>
      <trkpt lat="46.1504" lon="5.54286">
        <ele>585</ele>
        <time>2020-05-24T10:44:03Z</time>
      </trkpt>
      <trkpt lat="46.15041" lon="5.54286">
        <ele>585.2</ele>
        <time>2020-05-24T10:44:05Z</time>
      </trkpt>
      <trkpt lat="46.15043" lon="5.54286">
        <ele>585.3</ele>
        <time>2020-05-24T10:44:06Z</time>
      </trkpt>
      <trkpt lat="46.15045" lon="5.54287">
        <ele>585.5</ele>
        <time>2020-05-24T10:44:07Z</time>
      </trkpt>
      <trkpt lat="46.15047" lon="5.54287">
        <ele>585.7</ele>
        <time>2020-05-24T10:44:09Z</time>
      </trkpt>
      <trkpt lat="46.1505" lon="5.54287">
        <ele>586</ele>
        <time>2020-05-24T10:44:10Z</time>
      </trkpt>
      <trkpt lat="46.15051" lon="5.54287">
        <ele>586.1</ele>
        <time>2020-05-24T10:44:11Z</time>
      </trkpt>
      <trkpt lat="46.15055" lon="5.54287">
        <ele>586.4</ele>
        <time>2020-05-24T10:44:13Z</time>
      </trkpt>
      <trkpt lat="46.15056" lon="5.54286">
        <ele>586.5</ele>
        <time>2020-05-24T10:44:14Z</time>
      </trkpt>
      <trkpt lat="46.15057" lon="5.54286">
        <ele>586.7</ele>
        <time>2020-05-24T10:44:15Z</time>
      </trkpt>
      <trkpt lat="46.1506" lon="5.54286">
        <ele>586.9</ele>
        <time>2020-05-24T10:44:17Z</time>
      </trkpt>
      <trkpt lat="46.15061" lon="5.54286">
        <ele>587</ele>
        <time>2020-05-24T10:44:18Z</time>
      </trkpt>
      <trkpt lat="46.15063" lon="5.54285">
        <ele>587.2</ele>
        <time>2020-05-24T10:44:20Z</time>
      </trkpt>
      <trkpt lat="46.15064" lon="5.54285">
        <ele>587.3</ele>
        <time>2020-05-24T10:44:21Z</time>
      </trkpt>
      <trkpt lat="46.15066" lon="5.54285">
        <ele>587.5</ele>
        <time>2020-05-24T10:44:23Z</time>
      </trkpt>
      <trkpt lat="46.15068" lon="5.54285">
        <ele>587.7</ele>
        <time>2020-05-24T10:44:24Z</time>
      </trkpt>
      <trkpt lat="46.1507" lon="5.54285">
        <ele>587.9</ele>
        <time>2020-05-24T10:44:26Z</time>
      </trkpt>
      <trkpt lat="46.15071" lon="5.54285">
        <ele>587.9</ele>
        <time>2020-05-24T10:44:27Z</time>
      </trkpt>
      <trkpt lat="46.15072" lon="5.54285">
        <ele>588</ele>
        <time>2020-05-24T10:44:28Z</time>
      </trkpt>
      <trkpt lat="46.15073" lon="5.54284">
        <ele>588.1</ele>
        <time>2020-05-24T10:44:29Z</time>
      </trkpt>
      <trkpt lat="46.15074" lon="5.54284">
        <ele>588.3</ele>
        <time>2020-05-24T10:44:31Z</time>
      </trkpt>
      <trkpt lat="46.15076" lon="5.54284">
        <ele>588.5</ele>
        <time>2020-05-24T10:44:32Z</time>
      </trkpt>
      <trkpt lat="46.15077" lon="5.54284">
        <ele>588.5</ele>
        <time>2020-05-24T10:44:33Z</time>
      </trkpt>
      <trkpt lat="46.15078" lon="5.54283">
        <ele>588.6</ele>
        <time>2020-05-24T10:44:34Z</time>
      </trkpt>
      <trkpt lat="46.1508" lon="5.54282">
        <ele>588.8</ele>
        <time>2020-05-24T10:44:36Z</time>
      </trkpt>
      <trkpt lat="46.15082" lon="5.54281">
        <ele>589.1</ele>
        <time>2020-05-24T10:44:37Z</time>
      </trkpt>
      <trkpt lat="46.15083" lon="5.54281">
        <ele>589.2</ele>
        <time>2020-05-24T10:44:38Z</time>
      </trkpt>
      <trkpt lat="46.15086" lon="5.5428">
        <ele>589.4</ele>
        <time>2020-05-24T10:44:40Z</time>
      </trkpt>
      <trkpt lat="46.15089" lon="5.54279">
        <ele>589.7</ele>
        <time>2020-05-24T10:44:42Z</time>
      </trkpt>
      <trkpt lat="46.15089" lon="5.54279">
        <ele>589.8</ele>
        <time>2020-05-24T10:44:43Z</time>
      </trkpt>
      <trkpt lat="46.15091" lon="5.54278">
        <ele>590</ele>
        <time>2020-05-24T10:44:44Z</time>
      </trkpt>
      <trkpt lat="46.15093" lon="5.54278">
        <ele>590.1</ele>
        <time>2020-05-24T10:44:45Z</time>
      </trkpt>
      <trkpt lat="46.15096" lon="5.54276">
        <ele>590.5</ele>
        <time>2020-05-24T10:44:47Z</time>
      </trkpt>
      <trkpt lat="46.15097" lon="5.54276">
        <ele>590.6</ele>
        <time>2020-05-24T10:44:48Z</time>
      </trkpt>
      <trkpt lat="46.15101" lon="5.54275">
        <ele>591</ele>
        <time>2020-05-24T10:44:50Z</time>
      </trkpt>
      <trkpt lat="46.15103" lon="5.54275">
        <ele>591.2</ele>
        <time>2020-05-24T10:44:51Z</time>
      </trkpt>
      <trkpt lat="46.15106" lon="5.54274">
        <ele>591.4</ele>
        <time>2020-05-24T10:44:53Z</time>
      </trkpt>
      <trkpt lat="46.15108" lon="5.54273">
        <ele>591.7</ele>
        <time>2020-05-24T10:44:55Z</time>
      </trkpt>
      <trkpt lat="46.15109" lon="5.54272">
        <ele>591.9</ele>
        <time>2020-05-24T10:44:56Z</time>
      </trkpt>
      <trkpt lat="46.15111" lon="5.54271">
        <ele>592</ele>
        <time>2020-05-24T10:44:58Z</time>
      </trkpt>
      <trkpt lat="46.15112" lon="5.5427">
        <ele>592.2</ele>
        <time>2020-05-24T10:44:59Z</time>
      </trkpt>
      <trkpt lat="46.15115" lon="5.54269">
        <ele>592.5</ele>
        <time>2020-05-24T10:45:00Z</time>
      </trkpt>
      <trkpt lat="46.15116" lon="5.54269">
        <ele>592.7</ele>
        <time>2020-05-24T10:45:01Z</time>
      </trkpt>
      <trkpt lat="46.15119" lon="5.54267">
        <ele>593.1</ele>
        <time>2020-05-24T10:45:03Z</time>
      </trkpt>
      <trkpt lat="46.1512" lon="5.54266">
        <ele>593.2</ele>
        <time>2020-05-24T10:45:04Z</time>
      </trkpt>
      <trkpt lat="46.15122" lon="5.54265">
        <ele>593.4</ele>
        <time>2020-05-24T10:45:06Z</time>
      </trkpt>
      <trkpt lat="46.15123" lon="5.54264">
        <ele>593.5</ele>
        <time>2020-05-24T10:45:07Z</time>
      </trkpt>
      <trkpt lat="46.15125" lon="5.54263">
        <ele>593.8</ele>
        <time>2020-05-24T10:45:08Z</time>
      </trkpt>
      <trkpt lat="46.15127" lon="5.54262">
        <ele>594</ele>
        <time>2020-05-24T10:45:10Z</time>
      </trkpt>
      <trkpt lat="46.15128" lon="5.54261">
        <ele>594.2</ele>
        <time>2020-05-24T10:45:11Z</time>
      </trkpt>
      <trkpt lat="46.1513" lon="5.5426">
        <ele>594.4</ele>
        <time>2020-05-24T10:45:12Z</time>
      </trkpt>
      <trkpt lat="46.15133" lon="5.54257">
        <ele>594.8</ele>
        <time>2020-05-24T10:45:14Z</time>
      </trkpt>
      <trkpt lat="46.15134" lon="5.54257">
        <ele>594.9</ele>
        <time>2020-05-24T10:45:15Z</time>
      </trkpt>
      <trkpt lat="46.15135" lon="5.54256">
        <ele>595</ele>
        <time>2020-05-24T10:45:16Z</time>
      </trkpt>
      <trkpt lat="46.15136" lon="5.54256">
        <ele>595.1</ele>
        <time>2020-05-24T10:45:17Z</time>
      </trkpt>
      <trkpt lat="46.15138" lon="5.54255">
        <ele>595.3</ele>
        <time>2020-05-24T10:45:18Z</time>
      </trkpt>
      <trkpt lat="46.15139" lon="5.54254">
        <ele>595.4</ele>
        <time>2020-05-24T10:45:19Z</time>
      </trkpt>
      <trkpt lat="46.1514" lon="5.54254">
        <ele>595.5</ele>
        <time>2020-05-24T10:45:20Z</time>
      </trkpt>
      <trkpt lat="46.15141" lon="5.54253">
        <ele>595.6</ele>
        <time>2020-05-24T10:45:21Z</time>
      </trkpt>
      <trkpt lat="46.15142" lon="5.54253">
        <ele>595.7</ele>
        <time>2020-05-24T10:45:22Z</time>
      </trkpt>
      <trkpt lat="46.15143" lon="5.54254">
        <ele>595.8</ele>
        <time>2020-05-24T10:45:23Z</time>
      </trkpt>
      <trkpt lat="46.15145" lon="5.54254">
        <ele>595.9</ele>
        <time>2020-05-24T10:45:24Z</time>
      </trkpt>
      <trkpt lat="46.15146" lon="5.54253">
        <ele>596</ele>
        <time>2020-05-24T10:45:25Z</time>
      </trkpt>
      <trkpt lat="46.15147" lon="5.54253">
        <ele>596.1</ele>
        <time>2020-05-24T10:45:27Z</time>
      </trkpt>
      <trkpt lat="46.15148" lon="5.54254">
        <ele>596.2</ele>
        <time>2020-05-24T10:45:28Z</time>
      </trkpt>
      <trkpt lat="46.1515" lon="5.54254">
        <ele>596.4</ele>
        <time>2020-05-24T10:45:30Z</time>
      </trkpt>
      <trkpt lat="46.15152" lon="5.54254">
        <ele>596.5</ele>
        <time>2020-05-24T10:45:31Z</time>
      </trkpt>
      <trkpt lat="46.15152" lon="5.54254">
        <ele>596.6</ele>
        <time>2020-05-24T10:45:32Z</time>
      </trkpt>
      <trkpt lat="46.15153" lon="5.54253">
        <ele>596.7</ele>
        <time>2020-05-24T10:45:33Z</time>
      </trkpt>
      <trkpt lat="46.15155" lon="5.54253">
        <ele>596.8</ele>
        <time>2020-05-24T10:45:34Z</time>
      </trkpt>
      <trkpt lat="46.15156" lon="5.54252">
        <ele>597</ele>
        <time>2020-05-24T10:45:35Z</time>
      </trkpt>
      <trkpt lat="46.15158" lon="5.54251">
        <ele>597.3</ele>
        <time>2020-05-24T10:45:37Z</time>
      </trkpt>
      <trkpt lat="46.15159" lon="5.5425">
        <ele>597.4</ele>
        <time>2020-05-24T10:45:38Z</time>
      </trkpt>
      <trkpt lat="46.15159" lon="5.54249">
        <ele>597.5</ele>
        <time>2020-05-24T10:45:39Z</time>
      </trkpt>
      <trkpt lat="46.1516" lon="5.54248">
        <ele>597.7</ele>
        <time>2020-05-24T10:45:41Z</time>
      </trkpt>
      <trkpt lat="46.15161" lon="5.54246">
        <ele>597.8</ele>
        <time>2020-05-24T10:45:42Z</time>
      </trkpt>
      <trkpt lat="46.15161" lon="5.54244">
        <ele>598</ele>
        <time>2020-05-24T10:45:43Z</time>
      </trkpt>
      <trkpt lat="46.1516" lon="5.54242">
        <ele>598.2</ele>
        <time>2020-05-24T10:45:45Z</time>
      </trkpt>
      <trkpt lat="46.15159" lon="5.5424">
        <ele>598.4</ele>
        <time>2020-05-24T10:45:47Z</time>
      </trkpt>
      <trkpt lat="46.15159" lon="5.54237">
        <ele>598.7</ele>
        <time>2020-05-24T10:45:48Z</time>
      </trkpt>
      <trkpt lat="46.15158" lon="5.54235">
        <ele>598.9</ele>
        <time>2020-05-24T10:45:50Z</time>
      </trkpt>
      <trkpt lat="46.15158" lon="5.54234">
        <ele>599</ele>
        <time>2020-05-24T10:45:51Z</time>
      </trkpt>
      <trkpt lat="46.15157" lon="5.54231">
        <ele>599.2</ele>
        <time>2020-05-24T10:45:53Z</time>
      </trkpt>
      <trkpt lat="46.15156" lon="5.5423">
        <ele>599.4</ele>
        <time>2020-05-24T10:45:54Z</time>
      </trkpt>
      <trkpt lat="46.15156" lon="5.54227">
        <ele>599.6</ele>
        <time>2020-05-24T10:45:56Z</time>
      </trkpt>
      <trkpt lat="46.15155" lon="5.54225">
        <ele>599.8</ele>
        <time>2020-05-24T10:45:57Z</time>
      </trkpt>
      <trkpt lat="46.15154" lon="5.54224">
        <ele>600</ele>
        <time>2020-05-24T10:45:58Z</time>
      </trkpt>
      <trkpt lat="46.15153" lon="5.54221">
        <ele>600.3</ele>
        <time>2020-05-24T10:46:00Z</time>
      </trkpt>
      <trkpt lat="46.15152" lon="5.5422">
        <ele>600.4</ele>
        <time>2020-05-24T10:46:01Z</time>
      </trkpt>
      <trkpt lat="46.1515" lon="5.54219">
        <ele>600.8</ele>
        <time>2020-05-24T10:46:02Z</time>
      </trkpt>
      <trkpt lat="46.15149" lon="5.54217">
        <ele>601</ele>
        <time>2020-05-24T10:46:04Z</time>
      </trkpt>
      <trkpt lat="46.15148" lon="5.54216">
        <ele>601.2</ele>
        <time>2020-05-24T10:46:06Z</time>
      </trkpt>
      <trkpt lat="46.15146" lon="5.54215">
        <ele>601.5</ele>
        <time>2020-05-24T10:46:07Z</time>
      </trkpt>
      <trkpt lat="46.15144" lon="5.54213">
        <ele>601.8</ele>
        <time>2020-05-24T10:46:09Z</time>
      </trkpt>
      <trkpt lat="46.15142" lon="5.54211">
        <ele>602.1</ele>
        <time>2020-05-24T10:46:11Z</time>
      </trkpt>
      <trkpt lat="46.1514" lon="5.54209">
        <ele>602.5</ele>
        <time>2020-05-24T10:46:12Z</time>
      </trkpt>
      <trkpt lat="46.15139" lon="5.54209">
        <ele>602.7</ele>
        <time>2020-05-24T10:46:13Z</time>
      </trkpt>
      <trkpt lat="46.15137" lon="5.54207">
        <ele>602.9</ele>
        <time>2020-05-24T10:46:15Z</time>
      </trkpt>
      <trkpt lat="46.15136" lon="5.54206">
        <ele>603.1</ele>
        <time>2020-05-24T10:46:17Z</time>
      </trkpt>
      <trkpt lat="46.15135" lon="5.54205">
        <ele>603.3</ele>
        <time>2020-05-24T10:46:18Z</time>
      </trkpt>
      <trkpt lat="46.15134" lon="5.54204">
        <ele>603.4</ele>
        <time>2020-05-24T10:46:19Z</time>
      </trkpt>
      <trkpt lat="46.15133" lon="5.54202">
        <ele>603.6</ele>
        <time>2020-05-24T10:46:21Z</time>
      </trkpt>
      <trkpt lat="46.15132" lon="5.54201">
        <ele>603.7</ele>
        <time>2020-05-24T10:46:22Z</time>
      </trkpt>
      <trkpt lat="46.15131" lon="5.54201">
        <ele>603.9</ele>
        <time>2020-05-24T10:46:23Z</time>
      </trkpt>
      <trkpt lat="46.15129" lon="5.54199">
        <ele>604.2</ele>
        <time>2020-05-24T10:46:25Z</time>
      </trkpt>
      <trkpt lat="46.15128" lon="5.54198">
        <ele>604.4</ele>
        <time>2020-05-24T10:46:26Z</time>
      </trkpt>
      <trkpt lat="46.15127" lon="5.54197">
        <ele>604.5</ele>
        <time>2020-05-24T10:46:27Z</time>
      </trkpt>
      <trkpt lat="46.15126" lon="5.54196">
        <ele>604.7</ele>
        <time>2020-05-24T10:46:28Z</time>
      </trkpt>
      <trkpt lat="46.15125" lon="5.54195">
        <ele>604.8</ele>
        <time>2020-05-24T10:46:29Z</time>
      </trkpt>
      <trkpt lat="46.15124" lon="5.54193">
        <ele>605</ele>
        <time>2020-05-24T10:46:31Z</time>
      </trkpt>
      <trkpt lat="46.15123" lon="5.54192">
        <ele>605.2</ele>
        <time>2020-05-24T10:46:32Z</time>
      </trkpt>
      <trkpt lat="46.15122" lon="5.54191">
        <ele>605.4</ele>
        <time>2020-05-24T10:46:33Z</time>
      </trkpt>
      <trkpt lat="46.15121" lon="5.54189">
        <ele>605.5</ele>
        <time>2020-05-24T10:46:34Z</time>
      </trkpt>
      <trkpt lat="46.15118" lon="5.54186">
        <ele>605.9</ele>
        <time>2020-05-24T10:46:36Z</time>
      </trkpt>
      <trkpt lat="46.15117" lon="5.54186">
        <ele>606</ele>
        <time>2020-05-24T10:46:37Z</time>
      </trkpt>
      <trkpt lat="46.15117" lon="5.54185">
        <ele>606.1</ele>
        <time>2020-05-24T10:46:38Z</time>
      </trkpt>
      <trkpt lat="46.15115" lon="5.54184">
        <ele>606.3</ele>
        <time>2020-05-24T10:46:39Z</time>
      </trkpt>
      <trkpt lat="46.15114" lon="5.54183">
        <ele>606.4</ele>
        <time>2020-05-24T10:46:41Z</time>
      </trkpt>
      <trkpt lat="46.15113" lon="5.54182">
        <ele>606.6</ele>
        <time>2020-05-24T10:46:42Z</time>
      </trkpt>
      <trkpt lat="46.15111" lon="5.5418">
        <ele>606.8</ele>
        <time>2020-05-24T10:46:43Z</time>
      </trkpt>
      <trkpt lat="46.1511" lon="5.54179">
        <ele>607</ele>
        <time>2020-05-24T10:46:45Z</time>
      </trkpt>
      <trkpt lat="46.15108" lon="5.54178">
        <ele>607.1</ele>
        <time>2020-05-24T10:46:46Z</time>
      </trkpt>
      <trkpt lat="46.15106" lon="5.54176">
        <ele>607.4</ele>
        <time>2020-05-24T10:46:47Z</time>
      </trkpt>
      <trkpt lat="46.15106" lon="5.54176">
        <ele>607.4</ele>
        <time>2020-05-24T10:46:48Z</time>
      </trkpt>
      <trkpt lat="46.15105" lon="5.54176">
        <ele>607.5</ele>
        <time>2020-05-24T10:46:49Z</time>
      </trkpt>
      <trkpt lat="46.15104" lon="5.54176">
        <ele>607.6</ele>
        <time>2020-05-24T10:46:50Z</time>
      </trkpt>
      <trkpt lat="46.15103" lon="5.54175">
        <ele>607.7</ele>
        <time>2020-05-24T10:46:52Z</time>
      </trkpt>
      <trkpt lat="46.15102" lon="5.54174">
        <ele>607.8</ele>
        <time>2020-05-24T10:46:53Z</time>
      </trkpt>
      <trkpt lat="46.15102" lon="5.54174">
        <ele>607.9</ele>
        <time>2020-05-24T10:46:54Z</time>
      </trkpt>
      <trkpt lat="46.15101" lon="5.54174">
        <ele>608</ele>
        <time>2020-05-24T10:46:56Z</time>
      </trkpt>
      <trkpt lat="46.151" lon="5.54171">
        <ele>608.2</ele>
        <time>2020-05-24T10:46:58Z</time>
      </trkpt>
      <trkpt lat="46.15098" lon="5.5417">
        <ele>608.3</ele>
        <time>2020-05-24T10:47:00Z</time>
      </trkpt>
      <trkpt lat="46.15098" lon="5.5417">
        <ele>608.4</ele>
        <time>2020-05-24T10:47:01Z</time>
      </trkpt>
      <trkpt lat="46.15098" lon="5.5417">
        <ele>608.4</ele>
        <time>2020-05-24T10:47:02Z</time>
      </trkpt>
      <trkpt lat="46.15097" lon="5.54169">
        <ele>608.5</ele>
        <time>2020-05-24T10:47:04Z</time>
      </trkpt>
      <trkpt lat="46.15097" lon="5.54169">
        <ele>608.5</ele>
        <time>2020-05-24T10:47:05Z</time>
      </trkpt>
      <trkpt lat="46.15096" lon="5.54169">
        <ele>608.6</ele>
        <time>2020-05-24T10:47:07Z</time>
      </trkpt>
      <trkpt lat="46.15096" lon="5.54169">
        <ele>608.6</ele>
        <time>2020-05-24T10:47:08Z</time>
      </trkpt>
      <trkpt lat="46.15096" lon="5.54169">
        <ele>608.6</ele>
        <time>2020-05-24T10:47:10Z</time>
      </trkpt>
      <trkpt lat="46.15096" lon="5.54169">
        <ele>608.6</ele>
        <time>2020-05-24T10:47:11Z</time>
      </trkpt>
      <trkpt lat="46.15095" lon="5.54168">
        <ele>608.7</ele>
        <time>2020-05-24T10:47:13Z</time>
      </trkpt>
      <trkpt lat="46.15094" lon="5.54168">
        <ele>608.8</ele>
        <time>2020-05-24T10:47:14Z</time>
      </trkpt>
      <trkpt lat="46.15093" lon="5.54167">
        <ele>608.9</ele>
        <time>2020-05-24T10:47:16Z</time>
      </trkpt>
      <trkpt lat="46.15091" lon="5.54168">
        <ele>609.1</ele>
        <time>2020-05-24T10:48:04Z</time>
      </trkpt>
      <trkpt lat="46.15091" lon="5.54168">
        <ele>609.2</ele>
        <time>2020-05-24T10:48:06Z</time>
      </trkpt>
      <trkpt lat="46.15091" lon="5.54168">
        <ele>609.2</ele>
        <time>2020-05-24T10:48:08Z</time>
      </trkpt>
      <trkpt lat="46.15091" lon="5.54168">
        <ele>609.2</ele>
        <time>2020-05-24T10:48:09Z</time>
      </trkpt>
      <trkpt lat="46.15091" lon="5.54168">
        <ele>609.2</ele>
        <time>2020-05-24T10:48:10Z</time>
      </trkpt>
      <trkpt lat="46.15091" lon="5.54167">
        <ele>609.3</ele>
        <time>2020-05-24T10:48:12Z</time>
      </trkpt>
      <trkpt lat="46.1509" lon="5.54166">
        <ele>609.3</ele>
        <time>2020-05-24T10:48:14Z</time>
      </trkpt>
      <trkpt lat="46.15091" lon="5.54167">
        <ele>609.4</ele>
        <time>2020-05-24T10:48:15Z</time>
      </trkpt>
      <trkpt lat="46.15091" lon="5.54167">
        <ele>609.4</ele>
        <time>2020-05-24T10:48:16Z</time>
      </trkpt>
      <trkpt lat="46.15092" lon="5.54167">
        <ele>609.5</ele>
        <time>2020-05-24T10:48:18Z</time>
      </trkpt>
      <trkpt lat="46.15092" lon="5.54167">
        <ele>609.5</ele>
        <time>2020-05-24T10:48:19Z</time>
      </trkpt>
      <trkpt lat="46.15092" lon="5.54167">
        <ele>609.5</ele>
        <time>2020-05-24T10:48:20Z</time>
      </trkpt>
      <trkpt lat="46.15092" lon="5.54168">
        <ele>609.6</ele>
        <time>2020-05-24T10:48:22Z</time>
      </trkpt>
      <trkpt lat="46.15092" lon="5.54168">
        <ele>609.6</ele>
        <time>2020-05-24T10:48:23Z</time>
      </trkpt>
      <trkpt lat="46.15092" lon="5.54168">
        <ele>609.6</ele>
        <time>2020-05-24T10:48:24Z</time>
      </trkpt>
      <trkpt lat="46.15092" lon="5.54169">
        <ele>609.7</ele>
        <time>2020-05-24T10:48:25Z</time>
      </trkpt>
      <trkpt lat="46.15092" lon="5.54169">
        <ele>609.7</ele>
        <time>2020-05-24T10:48:26Z</time>
      </trkpt>
      <trkpt lat="46.15092" lon="5.54169">
        <ele>609.7</ele>
        <time>2020-05-24T10:48:28Z</time>
      </trkpt>
      <trkpt lat="46.15092" lon="5.54169">
        <ele>609.7</ele>
        <time>2020-05-24T10:48:29Z</time>
      </trkpt>
      <trkpt lat="46.15091" lon="5.54169">
        <ele>609.7</ele>
        <time>2020-05-24T10:48:31Z</time>
      </trkpt>
      <trkpt lat="46.15093" lon="5.54171">
        <ele>609.9</ele>
        <time>2020-05-24T10:48:52Z</time>
      </trkpt>
      <trkpt lat="46.15094" lon="5.54171">
        <ele>609.9</ele>
        <time>2020-05-24T10:48:54Z</time>
      </trkpt>
      <trkpt lat="46.15094" lon="5.54171">
        <ele>609.9</ele>
        <time>2020-05-24T10:48:55Z</time>
      </trkpt>
      <trkpt lat="46.15094" lon="5.54171">
        <ele>609.9</ele>
        <time>2020-05-24T10:48:56Z</time>
      </trkpt>
      <trkpt lat="46.15094" lon="5.54171">
        <ele>609.9</ele>
        <time>2020-05-24T10:48:58Z</time>
      </trkpt>
      <trkpt lat="46.15094" lon="5.54171">
        <ele>609.9</ele>
        <time>2020-05-24T10:48:59Z</time>
      </trkpt>
      <trkpt lat="46.15094" lon="5.54171">
        <ele>609.9</ele>
        <time>2020-05-24T10:49:00Z</time>
      </trkpt>
      <trkpt lat="46.15094" lon="5.54171">
        <ele>609.9</ele>
        <time>2020-05-24T10:49:01Z</time>
      </trkpt>
      <trkpt lat="46.15094" lon="5.54171">
        <ele>609.9</ele>
        <time>2020-05-24T10:49:03Z</time>
      </trkpt>
      <trkpt lat="46.15094" lon="5.54171">
        <ele>609.9</ele>
        <time>2020-05-24T10:49:04Z</time>
      </trkpt>
      <trkpt lat="46.15094" lon="5.54171">
        <ele>610</ele>
        <time>2020-05-24T10:49:06Z</time>
      </trkpt>
      <trkpt lat="46.15094" lon="5.54172">
        <ele>610</ele>
        <time>2020-05-24T10:49:08Z</time>
      </trkpt>
      <trkpt lat="46.15094" lon="5.54172">
        <ele>610</ele>
        <time>2020-05-24T10:49:09Z</time>
      </trkpt>
      <trkpt lat="46.15094" lon="5.54172">
        <ele>610</ele>
        <time>2020-05-24T10:49:10Z</time>
      </trkpt>
      <trkpt lat="46.15094" lon="5.54172">
        <ele>610</ele>
        <time>2020-05-24T10:49:12Z</time>
      </trkpt>
      <trkpt lat="46.15094" lon="5.54172">
        <ele>610</ele>
        <time>2020-05-24T10:49:14Z</time>
      </trkpt>
      <trkpt lat="46.15094" lon="5.54172">
        <ele>610</ele>
        <time>2020-05-24T10:49:15Z</time>
      </trkpt>
      <trkpt lat="46.15094" lon="5.54172">
        <ele>610</ele>
        <time>2020-05-24T10:49:17Z</time>
      </trkpt>
      <trkpt lat="46.15094" lon="5.54172">
        <ele>610</ele>
        <time>2020-05-24T10:49:18Z</time>
      </trkpt>
      <trkpt lat="46.15094" lon="5.54172">
        <ele>610</ele>
        <time>2020-05-24T10:49:20Z</time>
      </trkpt>
      <trkpt lat="46.15094" lon="5.54172">
        <ele>610</ele>
        <time>2020-05-24T10:49:21Z</time>
      </trkpt>
      <trkpt lat="46.15094" lon="5.54172">
        <ele>610</ele>
        <time>2020-05-24T10:49:23Z</time>
      </trkpt>
      <trkpt lat="46.15094" lon="5.54172">
        <ele>610</ele>
        <time>2020-05-24T10:49:24Z</time>
      </trkpt>
      <trkpt lat="46.15094" lon="5.54172">
        <ele>610</ele>
        <time>2020-05-24T10:49:26Z</time>
      </trkpt>
      <trkpt lat="46.15094" lon="5.54172">
        <ele>610</ele>
        <time>2020-05-24T10:49:27Z</time>
      </trkpt>
      <trkpt lat="46.15094" lon="5.54172">
        <ele>610</ele>
        <time>2020-05-24T10:49:28Z</time>
      </trkpt>
      <trkpt lat="46.15094" lon="5.54172">
        <ele>610</ele>
        <time>2020-05-24T10:49:29Z</time>
      </trkpt>
      <trkpt lat="46.15094" lon="5.54172">
        <ele>610</ele>
        <time>2020-05-24T10:49:31Z</time>
      </trkpt>
      <trkpt lat="46.15094" lon="5.54172">
        <ele>610</ele>
        <time>2020-05-24T10:49:32Z</time>
      </trkpt>
      <trkpt lat="46.15094" lon="5.54172">
        <ele>610</ele>
        <time>2020-05-24T10:49:34Z</time>
      </trkpt>
      <trkpt lat="46.15094" lon="5.54173">
        <ele>610.1</ele>
        <time>2020-05-24T10:49:36Z</time>
      </trkpt>
      <trkpt lat="46.15094" lon="5.54173">
        <ele>610.1</ele>
        <time>2020-05-24T10:49:37Z</time>
      </trkpt>
      <trkpt lat="46.15095" lon="5.54173">
        <ele>610.1</ele>
        <time>2020-05-24T10:49:39Z</time>
      </trkpt>
      <trkpt lat="46.15095" lon="5.54172">
        <ele>610.1</ele>
        <time>2020-05-24T10:49:41Z</time>
      </trkpt>
      <trkpt lat="46.15095" lon="5.54172">
        <ele>610.1</ele>
        <time>2020-05-24T10:49:42Z</time>
      </trkpt>
      <trkpt lat="46.15095" lon="5.54172">
        <ele>610.1</ele>
        <time>2020-05-24T10:49:44Z</time>
      </trkpt>
      <trkpt lat="46.15095" lon="5.54172">
        <ele>610.1</ele>
        <time>2020-05-24T10:49:46Z</time>
      </trkpt>
      <trkpt lat="46.15095" lon="5.54172">
        <ele>610.1</ele>
        <time>2020-05-24T10:49:47Z</time>
      </trkpt>
      <trkpt lat="46.15095" lon="5.54172">
        <ele>610.1</ele>
        <time>2020-05-24T10:49:49Z</time>
      </trkpt>
      <trkpt lat="46.15095" lon="5.54172">
        <ele>610.1</ele>
        <time>2020-05-24T10:49:51Z</time>
      </trkpt>
      <trkpt lat="46.15095" lon="5.54172">
        <ele>610.1</ele>
        <time>2020-05-24T10:49:52Z</time>
      </trkpt>
      <trkpt lat="46.15095" lon="5.54172">
        <ele>610.1</ele>
        <time>2020-05-24T10:49:53Z</time>
      </trkpt>
      <trkpt lat="46.15095" lon="5.54172">
        <ele>610.1</ele>
        <time>2020-05-24T10:49:55Z</time>
      </trkpt>
      <trkpt lat="46.15095" lon="5.54173">
        <ele>610.1</ele>
        <time>2020-05-24T10:49:57Z</time>
      </trkpt>
      <trkpt lat="46.15095" lon="5.54173">
        <ele>610.2</ele>
        <time>2020-05-24T10:49:59Z</time>
      </trkpt>
      <trkpt lat="46.15095" lon="5.54174">
        <ele>610.2</ele>
        <time>2020-05-24T10:50:00Z</time>
      </trkpt>
      <trkpt lat="46.15094" lon="5.54174">
        <ele>610.3</ele>
        <time>2020-05-24T10:50:02Z</time>
      </trkpt>
      <trkpt lat="46.15093" lon="5.54175">
        <ele>610.4</ele>
        <time>2020-05-24T10:50:04Z</time>
      </trkpt>
      <trkpt lat="46.15092" lon="5.54175">
        <ele>610.5</ele>
        <time>2020-05-24T10:50:06Z</time>
      </trkpt>
      <trkpt lat="46.15092" lon="5.54175">
        <ele>610.5</ele>
        <time>2020-05-24T10:50:07Z</time>
      </trkpt>
      <trkpt lat="46.15092" lon="5.54175">
        <ele>610.5</ele>
        <time>2020-05-24T10:50:08Z</time>
      </trkpt>
      <trkpt lat="46.15092" lon="5.54175">
        <ele>610.5</ele>
        <time>2020-05-24T10:50:10Z</time>
      </trkpt>
      <trkpt lat="46.15092" lon="5.54175">
        <ele>610.5</ele>
        <time>2020-05-24T10:50:12Z</time>
      </trkpt>
      <trkpt lat="46.15092" lon="5.54175">
        <ele>610.5</ele>
        <time>2020-05-24T10:50:14Z</time>
      </trkpt>
      <trkpt lat="46.1509" lon="5.54176">
        <ele>610.7</ele>
        <time>2020-05-24T10:50:22Z</time>
      </trkpt>
      <trkpt lat="46.1509" lon="5.54176">
        <ele>610.7</ele>
        <time>2020-05-24T10:50:23Z</time>
      </trkpt>
      <trkpt lat="46.1509" lon="5.54176">
        <ele>610.7</ele>
        <time>2020-05-24T10:50:25Z</time>
      </trkpt>
      <trkpt lat="46.1509" lon="5.54177">
        <ele>610.8</ele>
        <time>2020-05-24T10:50:26Z</time>
      </trkpt>
      <trkpt lat="46.1509" lon="5.54179">
        <ele>610.9</ele>
        <time>2020-05-24T10:50:28Z</time>
      </trkpt>
      <trkpt lat="46.15089" lon="5.54179">
        <ele>610.9</ele>
        <time>2020-05-24T10:50:29Z</time>
      </trkpt>
      <trkpt lat="46.15089" lon="5.54179">
        <ele>610.9</ele>
        <time>2020-05-24T10:50:31Z</time>
      </trkpt>
      <trkpt lat="46.15089" lon="5.54179">
        <ele>610.9</ele>
        <time>2020-05-24T10:50:32Z</time>
      </trkpt>
      <trkpt lat="46.15089" lon="5.54179">
        <ele>610.9</ele>
        <time>2020-05-24T10:50:34Z</time>
      </trkpt>
      <trkpt lat="46.15089" lon="5.54179">
        <ele>610.9</ele>
        <time>2020-05-24T10:50:35Z</time>
      </trkpt>
      <trkpt lat="46.15089" lon="5.54179">
        <ele>610.9</ele>
        <time>2020-05-24T10:50:37Z</time>
      </trkpt>
      <trkpt lat="46.15089" lon="5.54179">
        <ele>610.9</ele>
        <time>2020-05-24T10:50:38Z</time>
      </trkpt>
      <trkpt lat="46.15089" lon="5.54176">
        <ele>611.1</ele>
        <time>2020-05-24T10:51:12Z</time>
      </trkpt>
      <trkpt lat="46.15088" lon="5.54175">
        <ele>611.2</ele>
        <time>2020-05-24T10:51:14Z</time>
      </trkpt>
      <trkpt lat="46.15088" lon="5.54175">
        <ele>611.2</ele>
        <time>2020-05-24T10:51:16Z</time>
      </trkpt>
      <trkpt lat="46.15088" lon="5.54175">
        <ele>611.2</ele>
        <time>2020-05-24T10:51:17Z</time>
      </trkpt>
      <trkpt lat="46.15088" lon="5.54175">
        <ele>611.3</ele>
        <time>2020-05-24T10:51:18Z</time>
      </trkpt>
      <trkpt lat="46.15087" lon="5.54176">
        <ele>611.3</ele>
        <time>2020-05-24T10:51:20Z</time>
      </trkpt>
      <trkpt lat="46.15087" lon="5.54175">
        <ele>611.4</ele>
        <time>2020-05-24T10:51:22Z</time>
      </trkpt>
      <trkpt lat="46.15086" lon="5.54174">
        <ele>611.5</ele>
        <time>2020-05-24T10:51:23Z</time>
      </trkpt>
      <trkpt lat="46.15084" lon="5.54171">
        <ele>611.7</ele>
        <time>2020-05-24T10:51:25Z</time>
      </trkpt>
      <trkpt lat="46.15084" lon="5.54171">
        <ele>611.8</ele>
        <time>2020-05-24T10:51:26Z</time>
      </trkpt>
      <trkpt lat="46.15083" lon="5.54171">
        <ele>611.8</ele>
        <time>2020-05-24T10:51:27Z</time>
      </trkpt>
      <trkpt lat="46.15082" lon="5.5417">
        <ele>611.9</ele>
        <time>2020-05-24T10:51:28Z</time>
      </trkpt>
      <trkpt lat="46.15081" lon="5.54169">
        <ele>612</ele>
        <time>2020-05-24T10:51:29Z</time>
      </trkpt>
      <trkpt lat="46.1508" lon="5.54167">
        <ele>612.2</ele>
        <time>2020-05-24T10:51:31Z</time>
      </trkpt>
      <trkpt lat="46.15079" lon="5.54163">
        <ele>612.6</ele>
        <time>2020-05-24T10:51:32Z</time>
      </trkpt>
      <trkpt lat="46.15078" lon="5.54162">
        <ele>612.5</ele>
        <time>2020-05-24T10:51:33Z</time>
      </trkpt>
      <trkpt lat="46.15077" lon="5.54161">
        <ele>613</ele>
        <time>2020-05-24T10:51:34Z</time>
      </trkpt>
      <trkpt lat="46.15074" lon="5.54158">
        <ele>612.8</ele>
        <time>2020-05-24T10:51:36Z</time>
      </trkpt>
      <trkpt lat="46.15073" lon="5.54157">
        <ele>613.2</ele>
        <time>2020-05-24T10:51:37Z</time>
      </trkpt>
      <trkpt lat="46.15071" lon="5.54154">
        <ele>613.1</ele>
        <time>2020-05-24T10:51:39Z</time>
      </trkpt>
      <trkpt lat="46.1507" lon="5.54154">
        <ele>613</ele>
        <time>2020-05-24T10:51:40Z</time>
      </trkpt>
      <trkpt lat="46.15068" lon="5.54152">
        <ele>613.4</ele>
        <time>2020-05-24T10:51:41Z</time>
      </trkpt>
      <trkpt lat="46.15066" lon="5.54149">
        <ele>613.3</ele>
        <time>2020-05-24T10:51:42Z</time>
      </trkpt>
      <trkpt lat="46.15064" lon="5.54148">
        <ele>613.6</ele>
        <time>2020-05-24T10:51:43Z</time>
      </trkpt>
      <trkpt lat="46.15063" lon="5.54147">
        <ele>613.6</ele>
        <time>2020-05-24T10:51:44Z</time>
      </trkpt>
      <trkpt lat="46.15062" lon="5.54145">
        <ele>613.5</ele>
        <time>2020-05-24T10:51:46Z</time>
      </trkpt>
      <trkpt lat="46.15061" lon="5.54144">
        <ele>613.4</ele>
        <time>2020-05-24T10:51:47Z</time>
      </trkpt>
      <trkpt lat="46.15059" lon="5.54144">
        <ele>613.9</ele>
        <time>2020-05-24T10:51:48Z</time>
      </trkpt>
      <trkpt lat="46.15056" lon="5.54142">
        <ele>613.7</ele>
        <time>2020-05-24T10:51:50Z</time>
      </trkpt>
      <trkpt lat="46.15056" lon="5.54141">
        <ele>613.7</ele>
        <time>2020-05-24T10:51:51Z</time>
      </trkpt>
      <trkpt lat="46.15054" lon="5.5414">
        <ele>614.1</ele>
        <time>2020-05-24T10:51:52Z</time>
      </trkpt>
      <trkpt lat="46.15053" lon="5.54139">
        <ele>614.1</ele>
        <time>2020-05-24T10:51:53Z</time>
      </trkpt>
      <trkpt lat="46.15052" lon="5.54137">
        <ele>614</ele>
        <time>2020-05-24T10:51:54Z</time>
      </trkpt>
      <trkpt lat="46.15049" lon="5.54135">
        <ele>614.4</ele>
        <time>2020-05-24T10:51:56Z</time>
      </trkpt>
      <trkpt lat="46.15048" lon="5.54134">
        <ele>614.4</ele>
        <time>2020-05-24T10:51:57Z</time>
      </trkpt>
      <trkpt lat="46.15047" lon="5.54133">
        <ele>614.4</ele>
        <time>2020-05-24T10:51:58Z</time>
      </trkpt>
      <trkpt lat="46.15044" lon="5.54131">
        <ele>614.8</ele>
        <time>2020-05-24T10:52:00Z</time>
      </trkpt>
      <trkpt lat="46.15043" lon="5.5413">
        <ele>614.8</ele>
        <time>2020-05-24T10:52:01Z</time>
      </trkpt>
      <trkpt lat="46.1504" lon="5.54128">
        <ele>614.8</ele>
        <time>2020-05-24T10:52:03Z</time>
      </trkpt>
      <trkpt lat="46.15038" lon="5.54125">
        <ele>615.2</ele>
        <time>2020-05-24T10:52:04Z</time>
      </trkpt>
      <trkpt lat="46.15037" lon="5.54124">
        <ele>615.3</ele>
        <time>2020-05-24T10:52:05Z</time>
      </trkpt>
      <trkpt lat="46.15033" lon="5.5412">
        <ele>615.8</ele>
        <time>2020-05-24T10:52:07Z</time>
      </trkpt>
      <trkpt lat="46.15032" lon="5.54119">
        <ele>615.7</ele>
        <time>2020-05-24T10:52:08Z</time>
      </trkpt>
      <trkpt lat="46.1503" lon="5.54117">
        <ele>616.2</ele>
        <time>2020-05-24T10:52:10Z</time>
      </trkpt>
      <trkpt lat="46.15029" lon="5.54116">
        <ele>616.1</ele>
        <time>2020-05-24T10:52:11Z</time>
      </trkpt>
      <trkpt lat="46.15027" lon="5.54114">
        <ele>616.2</ele>
        <time>2020-05-24T10:52:13Z</time>
      </trkpt>
      <trkpt lat="46.15024" lon="5.54112">
        <ele>616.7</ele>
        <time>2020-05-24T10:52:14Z</time>
      </trkpt>
      <trkpt lat="46.15023" lon="5.54111">
        <ele>616.6</ele>
        <time>2020-05-24T10:52:15Z</time>
      </trkpt>
      <trkpt lat="46.15021" lon="5.5411">
        <ele>617</ele>
        <time>2020-05-24T10:52:16Z</time>
      </trkpt>
      <trkpt lat="46.15018" lon="5.54107">
        <ele>617.1</ele>
        <time>2020-05-24T10:52:18Z</time>
      </trkpt>
      <trkpt lat="46.15015" lon="5.54105">
        <ele>617.6</ele>
        <time>2020-05-24T10:52:19Z</time>
      </trkpt>
      <trkpt lat="46.15014" lon="5.54104">
        <ele>617.5</ele>
        <time>2020-05-24T10:52:20Z</time>
      </trkpt>
      <trkpt lat="46.15011" lon="5.54101">
        <ele>618</ele>
        <time>2020-05-24T10:52:22Z</time>
      </trkpt>
      <trkpt lat="46.15009" lon="5.54099">
        <ele>618.1</ele>
        <time>2020-05-24T10:52:23Z</time>
      </trkpt>
      <trkpt lat="46.15005" lon="5.54095">
        <ele>618.6</ele>
        <time>2020-05-24T10:52:25Z</time>
      </trkpt>
      <trkpt lat="46.15004" lon="5.54094">
        <ele>618.7</ele>
        <time>2020-05-24T10:52:26Z</time>
      </trkpt>
      <trkpt lat="46.15002" lon="5.54093">
        <ele>619.1</ele>
        <time>2020-05-24T10:52:27Z</time>
      </trkpt>
      <trkpt lat="46.15" lon="5.54089">
        <ele>619.3</ele>
        <time>2020-05-24T10:52:28Z</time>
      </trkpt>
      <trkpt lat="46.14999" lon="5.54087">
        <ele>619.8</ele>
        <time>2020-05-24T10:52:29Z</time>
      </trkpt>
      <trkpt lat="46.14995" lon="5.54082">
        <ele>620.4</ele>
        <time>2020-05-24T10:52:31Z</time>
      </trkpt>
      <trkpt lat="46.14994" lon="5.54079">
        <ele>620.8</ele>
        <time>2020-05-24T10:52:32Z</time>
      </trkpt>
      <trkpt lat="46.14992" lon="5.54076">
        <ele>621</ele>
        <time>2020-05-24T10:52:34Z</time>
      </trkpt>
      <trkpt lat="46.1499" lon="5.54072">
        <ele>621.5</ele>
        <time>2020-05-24T10:52:35Z</time>
      </trkpt>
      <trkpt lat="46.14986" lon="5.54068">
        <ele>622.1</ele>
        <time>2020-05-24T10:52:37Z</time>
      </trkpt>
      <trkpt lat="46.14985" lon="5.54066">
        <ele>622.5</ele>
        <time>2020-05-24T10:52:38Z</time>
      </trkpt>
      <trkpt lat="46.14984" lon="5.54065">
        <ele>622.5</ele>
        <time>2020-05-24T10:52:39Z</time>
      </trkpt>
      <trkpt lat="46.14983" lon="5.54063">
        <ele>622.6</ele>
        <time>2020-05-24T10:52:40Z</time>
      </trkpt>
      <trkpt lat="46.14981" lon="5.54061">
        <ele>623.2</ele>
        <time>2020-05-24T10:52:42Z</time>
      </trkpt>
      <trkpt lat="46.14977" lon="5.54056">
        <ele>623.8</ele>
        <time>2020-05-24T10:52:43Z</time>
      </trkpt>
      <trkpt lat="46.14975" lon="5.54052">
        <ele>624.4</ele>
        <time>2020-05-24T10:52:44Z</time>
      </trkpt>
      <trkpt lat="46.14973" lon="5.54049">
        <ele>624.9</ele>
        <time>2020-05-24T10:52:45Z</time>
      </trkpt>
      <trkpt lat="46.14972" lon="5.54048">
        <ele>625</ele>
        <time>2020-05-24T10:52:46Z</time>
      </trkpt>
      <trkpt lat="46.14968" lon="5.54044">
        <ele>625.6</ele>
        <time>2020-05-24T10:52:48Z</time>
      </trkpt>
      <trkpt lat="46.14967" lon="5.54043">
        <ele>625.6</ele>
        <time>2020-05-24T10:52:50Z</time>
      </trkpt>
      <trkpt lat="46.14965" lon="5.54041">
        <ele>626.2</ele>
        <time>2020-05-24T10:52:51Z</time>
      </trkpt>
      <trkpt lat="46.14963" lon="5.54039">
        <ele>626.3</ele>
        <time>2020-05-24T10:52:53Z</time>
      </trkpt>
      <trkpt lat="46.14961" lon="5.54037">
        <ele>626.8</ele>
        <time>2020-05-24T10:52:54Z</time>
      </trkpt>
      <trkpt lat="46.14958" lon="5.54034">
        <ele>626.8</ele>
        <time>2020-05-24T10:52:56Z</time>
      </trkpt>
      <trkpt lat="46.14957" lon="5.54033">
        <ele>626.9</ele>
        <time>2020-05-24T10:52:57Z</time>
      </trkpt>
      <trkpt lat="46.14956" lon="5.54031">
        <ele>627.4</ele>
        <time>2020-05-24T10:52:58Z</time>
      </trkpt>
      <trkpt lat="46.14954" lon="5.54028">
        <ele>628</ele>
        <time>2020-05-24T10:53:00Z</time>
      </trkpt>
      <trkpt lat="46.14953" lon="5.54027">
        <ele>628</ele>
        <time>2020-05-24T10:53:01Z</time>
      </trkpt>
      <trkpt lat="46.14952" lon="5.54026">
        <ele>628</ele>
        <time>2020-05-24T10:53:02Z</time>
      </trkpt>
      <trkpt lat="46.14951" lon="5.54024">
        <ele>628.5</ele>
        <time>2020-05-24T10:53:03Z</time>
      </trkpt>
      <trkpt lat="46.1495" lon="5.5402">
        <ele>628.5</ele>
        <time>2020-05-24T10:53:05Z</time>
      </trkpt>
      <trkpt lat="46.14948" lon="5.54018">
        <ele>629</ele>
        <time>2020-05-24T10:53:07Z</time>
      </trkpt>
      <trkpt lat="46.14948" lon="5.54017">
        <ele>629</ele>
        <time>2020-05-24T10:53:09Z</time>
      </trkpt>
      <trkpt lat="46.14947" lon="5.54015">
        <ele>629.4</ele>
        <time>2020-05-24T10:53:10Z</time>
      </trkpt>
      <trkpt lat="46.14946" lon="5.54013">
        <ele>629.4</ele>
        <time>2020-05-24T10:53:11Z</time>
      </trkpt>
      <trkpt lat="46.14944" lon="5.5401">
        <ele>629.8</ele>
        <time>2020-05-24T10:53:13Z</time>
      </trkpt>
      <trkpt lat="46.14943" lon="5.54009">
        <ele>629.7</ele>
        <time>2020-05-24T10:53:14Z</time>
      </trkpt>
      <trkpt lat="46.14941" lon="5.54007">
        <ele>630.1</ele>
        <time>2020-05-24T10:53:15Z</time>
      </trkpt>
      <trkpt lat="46.14941" lon="5.54005">
        <ele>630</ele>
        <time>2020-05-24T10:53:17Z</time>
      </trkpt>
      <trkpt lat="46.1494" lon="5.54004">
        <ele>630</ele>
        <time>2020-05-24T10:53:19Z</time>
      </trkpt>
      <trkpt lat="46.14939" lon="5.54002">
        <ele>630.2</ele>
        <time>2020-05-24T10:53:20Z</time>
      </trkpt>
      <trkpt lat="46.14938" lon="5.54">
        <ele>630.2</ele>
        <time>2020-05-24T10:53:22Z</time>
      </trkpt>
      <trkpt lat="46.14937" lon="5.53998">
        <ele>630.5</ele>
        <time>2020-05-24T10:53:24Z</time>
      </trkpt>
      <trkpt lat="46.14935" lon="5.53997">
        <ele>630.4</ele>
        <time>2020-05-24T10:53:25Z</time>
      </trkpt>
      <trkpt lat="46.14935" lon="5.53995">
        <ele>630.4</ele>
        <time>2020-05-24T10:53:26Z</time>
      </trkpt>
      <trkpt lat="46.14933" lon="5.53992">
        <ele>630.6</ele>
        <time>2020-05-24T10:53:27Z</time>
      </trkpt>
      <trkpt lat="46.14932" lon="5.5399">
        <ele>630.6</ele>
        <time>2020-05-24T10:53:29Z</time>
      </trkpt>
      <trkpt lat="46.14931" lon="5.53989">
        <ele>630.8</ele>
        <time>2020-05-24T10:53:30Z</time>
      </trkpt>
      <trkpt lat="46.1493" lon="5.53987">
        <ele>630.7</ele>
        <time>2020-05-24T10:53:31Z</time>
      </trkpt>
      <trkpt lat="46.1493" lon="5.53986">
        <ele>630.7</ele>
        <time>2020-05-24T10:53:32Z</time>
      </trkpt>
      <trkpt lat="46.14929" lon="5.53985">
        <ele>630.9</ele>
        <time>2020-05-24T10:53:34Z</time>
      </trkpt>
      <trkpt lat="46.14927" lon="5.53983">
        <ele>630.9</ele>
        <time>2020-05-24T10:53:36Z</time>
      </trkpt>
      <trkpt lat="46.14926" lon="5.53983">
        <ele>630.8</ele>
        <time>2020-05-24T10:53:37Z</time>
      </trkpt>
      <trkpt lat="46.14923" lon="5.53981">
        <ele>630.8</ele>
        <time>2020-05-24T10:53:39Z</time>
      </trkpt>
      <trkpt lat="46.14921" lon="5.53979">
        <ele>630.9</ele>
        <time>2020-05-24T10:53:40Z</time>
      </trkpt>
      <trkpt lat="46.1492" lon="5.53979">
        <ele>630.9</ele>
        <time>2020-05-24T10:53:41Z</time>
      </trkpt>
      <trkpt lat="46.14917" lon="5.53976">
        <ele>631.1</ele>
        <time>2020-05-24T10:53:43Z</time>
      </trkpt>
      <trkpt lat="46.14916" lon="5.53975">
        <ele>631</ele>
        <time>2020-05-24T10:53:44Z</time>
      </trkpt>
      <trkpt lat="46.14915" lon="5.53974">
        <ele>631</ele>
        <time>2020-05-24T10:53:45Z</time>
      </trkpt>
      <trkpt lat="46.14914" lon="5.53974">
        <ele>630.9</ele>
        <time>2020-05-24T10:53:46Z</time>
      </trkpt>
      <trkpt lat="46.14911" lon="5.53974">
        <ele>630.8</ele>
        <time>2020-05-24T10:53:48Z</time>
      </trkpt>
      <trkpt lat="46.1491" lon="5.53973">
        <ele>631.1</ele>
        <time>2020-05-24T10:53:49Z</time>
      </trkpt>
      <trkpt lat="46.14908" lon="5.53972">
        <ele>630.9</ele>
        <time>2020-05-24T10:53:50Z</time>
      </trkpt>
      <trkpt lat="46.14907" lon="5.53971">
        <ele>630.7</ele>
        <time>2020-05-24T10:53:52Z</time>
      </trkpt>
      <trkpt lat="46.14905" lon="5.5397">
        <ele>630.7</ele>
        <time>2020-05-24T10:53:53Z</time>
      </trkpt>
      <trkpt lat="46.14903" lon="5.53966">
        <ele>630.8</ele>
        <time>2020-05-24T10:53:55Z</time>
      </trkpt>
      <trkpt lat="46.14903" lon="5.53965">
        <ele>630.8</ele>
        <time>2020-05-24T10:53:56Z</time>
      </trkpt>
      <trkpt lat="46.14902" lon="5.53962">
        <ele>631.1</ele>
        <time>2020-05-24T10:53:57Z</time>
      </trkpt>
      <trkpt lat="46.14901" lon="5.5396">
        <ele>631.1</ele>
        <time>2020-05-24T10:53:58Z</time>
      </trkpt>
      <trkpt lat="46.149" lon="5.53957">
        <ele>631.1</ele>
        <time>2020-05-24T10:54:00Z</time>
      </trkpt>
      <trkpt lat="46.14899" lon="5.53955">
        <ele>631.4</ele>
        <time>2020-05-24T10:54:01Z</time>
      </trkpt>
      <trkpt lat="46.14898" lon="5.53952">
        <ele>631.1</ele>
        <time>2020-05-24T10:54:03Z</time>
      </trkpt>
      <trkpt lat="46.14896" lon="5.53951">
        <ele>631.4</ele>
        <time>2020-05-24T10:54:04Z</time>
      </trkpt>
      <trkpt lat="46.14896" lon="5.53949">
        <ele>631.4</ele>
        <time>2020-05-24T10:54:05Z</time>
      </trkpt>
      <trkpt lat="46.14894" lon="5.53947">
        <ele>631.3</ele>
        <time>2020-05-24T10:54:07Z</time>
      </trkpt>
      <trkpt lat="46.14893" lon="5.53946">
        <ele>631.3</ele>
        <time>2020-05-24T10:54:09Z</time>
      </trkpt>
      <trkpt lat="46.14892" lon="5.53944">
        <ele>631</ele>
        <time>2020-05-24T10:54:10Z</time>
      </trkpt>
      <trkpt lat="46.14891" lon="5.53942">
        <ele>631.2</ele>
        <time>2020-05-24T10:54:12Z</time>
      </trkpt>
      <trkpt lat="46.1489" lon="5.5394">
        <ele>631.2</ele>
        <time>2020-05-24T10:54:13Z</time>
      </trkpt>
      <trkpt lat="46.14889" lon="5.53939">
        <ele>631.2</ele>
        <time>2020-05-24T10:54:14Z</time>
      </trkpt>
      <trkpt lat="46.14888" lon="5.53936">
        <ele>631.1</ele>
        <time>2020-05-24T10:54:16Z</time>
      </trkpt>
      <trkpt lat="46.14887" lon="5.53935">
        <ele>631.1</ele>
        <time>2020-05-24T10:54:18Z</time>
      </trkpt>
      <trkpt lat="46.14886" lon="5.53933">
        <ele>631</ele>
        <time>2020-05-24T10:54:19Z</time>
      </trkpt>
      <trkpt lat="46.14885" lon="5.53931">
        <ele>631</ele>
        <time>2020-05-24T10:54:20Z</time>
      </trkpt>
      <trkpt lat="46.14885" lon="5.53929">
        <ele>631.3</ele>
        <time>2020-05-24T10:54:22Z</time>
      </trkpt>
      <trkpt lat="46.14884" lon="5.53927">
        <ele>631.3</ele>
        <time>2020-05-24T10:54:23Z</time>
      </trkpt>
      <trkpt lat="46.14884" lon="5.53925">
        <ele>631.6</ele>
        <time>2020-05-24T10:54:24Z</time>
      </trkpt>
      <trkpt lat="46.14883" lon="5.53923">
        <ele>631.2</ele>
        <time>2020-05-24T10:54:26Z</time>
      </trkpt>
      <trkpt lat="46.14882" lon="5.53921">
        <ele>631.5</ele>
        <time>2020-05-24T10:54:27Z</time>
      </trkpt>
      <trkpt lat="46.14881" lon="5.53919">
        <ele>631.5</ele>
        <time>2020-05-24T10:54:28Z</time>
      </trkpt>
      <trkpt lat="46.14878" lon="5.53915">
        <ele>631.6</ele>
        <time>2020-05-24T10:54:30Z</time>
      </trkpt>
      <trkpt lat="46.14877" lon="5.53914">
        <ele>631.5</ele>
        <time>2020-05-24T10:54:31Z</time>
      </trkpt>
      <trkpt lat="46.14877" lon="5.53913">
        <ele>631.6</ele>
        <time>2020-05-24T10:54:32Z</time>
      </trkpt>
      <trkpt lat="46.14876" lon="5.5391">
        <ele>631.5</ele>
        <time>2020-05-24T10:54:34Z</time>
      </trkpt>
      <trkpt lat="46.14875" lon="5.53908">
        <ele>631.9</ele>
        <time>2020-05-24T10:54:35Z</time>
      </trkpt>
      <trkpt lat="46.14874" lon="5.53906">
        <ele>631.6</ele>
        <time>2020-05-24T10:54:37Z</time>
      </trkpt>
      <trkpt lat="46.14874" lon="5.53904">
        <ele>632</ele>
        <time>2020-05-24T10:54:38Z</time>
      </trkpt>
      <trkpt lat="46.14873" lon="5.53901">
        <ele>632</ele>
        <time>2020-05-24T10:54:39Z</time>
      </trkpt>
      <trkpt lat="46.14873" lon="5.53897">
        <ele>632.4</ele>
        <time>2020-05-24T10:54:41Z</time>
      </trkpt>
      <trkpt lat="46.14872" lon="5.53895">
        <ele>632.8</ele>
        <time>2020-05-24T10:54:42Z</time>
      </trkpt>
      <trkpt lat="46.14872" lon="5.53894">
        <ele>632.7</ele>
        <time>2020-05-24T10:54:43Z</time>
      </trkpt>
      <trkpt lat="46.14873" lon="5.53891">
        <ele>633.2</ele>
        <time>2020-05-24T10:54:45Z</time>
      </trkpt>
      <trkpt lat="46.14873" lon="5.53889">
        <ele>633.2</ele>
        <time>2020-05-24T10:54:46Z</time>
      </trkpt>
      <trkpt lat="46.14872" lon="5.53885">
        <ele>633.6</ele>
        <time>2020-05-24T10:54:48Z</time>
      </trkpt>
      <trkpt lat="46.14872" lon="5.53883">
        <ele>633.6</ele>
        <time>2020-05-24T10:54:49Z</time>
      </trkpt>
      <trkpt lat="46.14872" lon="5.5388">
        <ele>634.1</ele>
        <time>2020-05-24T10:54:51Z</time>
      </trkpt>
      <trkpt lat="46.14871" lon="5.53875">
        <ele>634.3</ele>
        <time>2020-05-24T10:54:53Z</time>
      </trkpt>
      <trkpt lat="46.1487" lon="5.53873">
        <ele>634.8</ele>
        <time>2020-05-24T10:54:54Z</time>
      </trkpt>
      <trkpt lat="46.1487" lon="5.53872">
        <ele>634.8</ele>
        <time>2020-05-24T10:54:55Z</time>
      </trkpt>
      <trkpt lat="46.1487" lon="5.5387">
        <ele>634.8</ele>
        <time>2020-05-24T10:54:56Z</time>
      </trkpt>
      <trkpt lat="46.1487" lon="5.53868">
        <ele>635.3</ele>
        <time>2020-05-24T10:54:57Z</time>
      </trkpt>
      <trkpt lat="46.1487" lon="5.53864">
        <ele>635.8</ele>
        <time>2020-05-24T10:54:59Z</time>
      </trkpt>
      <trkpt lat="46.1487" lon="5.53863">
        <ele>635.8</ele>
        <time>2020-05-24T10:55:00Z</time>
      </trkpt>
      <trkpt lat="46.1487" lon="5.5386">
        <ele>636.3</ele>
        <time>2020-05-24T10:55:02Z</time>
      </trkpt>
      <trkpt lat="46.1487" lon="5.53858">
        <ele>636.2</ele>
        <time>2020-05-24T10:55:03Z</time>
      </trkpt>
      <trkpt lat="46.1487" lon="5.53856">
        <ele>636.7</ele>
        <time>2020-05-24T10:55:04Z</time>
      </trkpt>
      <trkpt lat="46.1487" lon="5.53852">
        <ele>637.1</ele>
        <time>2020-05-24T10:55:06Z</time>
      </trkpt>
      <trkpt lat="46.14869" lon="5.53849">
        <ele>637.1</ele>
        <time>2020-05-24T10:55:08Z</time>
      </trkpt>
      <trkpt lat="46.14869" lon="5.53848">
        <ele>637.5</ele>
        <time>2020-05-24T10:55:09Z</time>
      </trkpt>
      <trkpt lat="46.14869" lon="5.53847">
        <ele>637.5</ele>
        <time>2020-05-24T10:55:10Z</time>
      </trkpt>
      <trkpt lat="46.14868" lon="5.53846">
        <ele>637.4</ele>
        <time>2020-05-24T10:55:12Z</time>
      </trkpt>
      <trkpt lat="46.14868" lon="5.53845">
        <ele>637.4</ele>
        <time>2020-05-24T10:55:13Z</time>
      </trkpt>
      <trkpt lat="46.14868" lon="5.53843">
        <ele>637.6</ele>
        <time>2020-05-24T10:55:14Z</time>
      </trkpt>
      <trkpt lat="46.14867" lon="5.5384">
        <ele>637.6</ele>
        <time>2020-05-24T10:55:16Z</time>
      </trkpt>
      <trkpt lat="46.14867" lon="5.53838">
        <ele>638</ele>
        <time>2020-05-24T10:55:18Z</time>
      </trkpt>
      <trkpt lat="46.14867" lon="5.53836">
        <ele>638</ele>
        <time>2020-05-24T10:55:19Z</time>
      </trkpt>
      <trkpt lat="46.14867" lon="5.53835">
        <ele>638.5</ele>
        <time>2020-05-24T10:55:20Z</time>
      </trkpt>
      <trkpt lat="46.14866" lon="5.53832">
        <ele>638.4</ele>
        <time>2020-05-24T10:55:22Z</time>
      </trkpt>
      <trkpt lat="46.14867" lon="5.5383">
        <ele>638.9</ele>
        <time>2020-05-24T10:55:23Z</time>
      </trkpt>
      <trkpt lat="46.14866" lon="5.53827">
        <ele>638.9</ele>
        <time>2020-05-24T10:55:24Z</time>
      </trkpt>
      <trkpt lat="46.14866" lon="5.53826">
        <ele>639.4</ele>
        <time>2020-05-24T10:55:26Z</time>
      </trkpt>
      <trkpt lat="46.14866" lon="5.53825">
        <ele>639.3</ele>
        <time>2020-05-24T10:55:27Z</time>
      </trkpt>
      <trkpt lat="46.14866" lon="5.53822">
        <ele>639.8</ele>
        <time>2020-05-24T10:55:28Z</time>
      </trkpt>
      <trkpt lat="46.14866" lon="5.5382">
        <ele>639.8</ele>
        <time>2020-05-24T10:55:29Z</time>
      </trkpt>
      <trkpt lat="46.14865" lon="5.53816">
        <ele>640.3</ele>
        <time>2020-05-24T10:55:31Z</time>
      </trkpt>
      <trkpt lat="46.14866" lon="5.53814">
        <ele>640.3</ele>
        <time>2020-05-24T10:55:32Z</time>
      </trkpt>
      <trkpt lat="46.14866" lon="5.53812">
        <ele>640.8</ele>
        <time>2020-05-24T10:55:34Z</time>
      </trkpt>
      <trkpt lat="46.14866" lon="5.5381">
        <ele>640.8</ele>
        <time>2020-05-24T10:55:35Z</time>
      </trkpt>
      <trkpt lat="46.14866" lon="5.53808">
        <ele>641.3</ele>
        <time>2020-05-24T10:55:36Z</time>
      </trkpt>
      <trkpt lat="46.14866" lon="5.53805">
        <ele>641.9</ele>
        <time>2020-05-24T10:55:38Z</time>
      </trkpt>
      <trkpt lat="46.14865" lon="5.53804">
        <ele>641.6</ele>
        <time>2020-05-24T10:55:40Z</time>
      </trkpt>
      <trkpt lat="46.14865" lon="5.53803">
        <ele>641.6</ele>
        <time>2020-05-24T10:55:41Z</time>
      </trkpt>
      <trkpt lat="46.14865" lon="5.53802">
        <ele>641.6</ele>
        <time>2020-05-24T10:55:42Z</time>
      </trkpt>
      <trkpt lat="46.14865" lon="5.53802">
        <ele>641.5</ele>
        <time>2020-05-24T10:55:44Z</time>
      </trkpt>
      <trkpt lat="46.14865" lon="5.53802">
        <ele>641.5</ele>
        <time>2020-05-24T10:55:45Z</time>
      </trkpt>
      <trkpt lat="46.14865" lon="5.53801">
        <ele>641.5</ele>
        <time>2020-05-24T10:55:47Z</time>
      </trkpt>
      <trkpt lat="46.14864" lon="5.53801">
        <ele>642.1</ele>
        <time>2020-05-24T10:55:49Z</time>
      </trkpt>
      <trkpt lat="46.14864" lon="5.53801">
        <ele>642</ele>
        <time>2020-05-24T10:55:51Z</time>
      </trkpt>
      <trkpt lat="46.14864" lon="5.53801">
        <ele>642</ele>
        <time>2020-05-24T10:55:52Z</time>
      </trkpt>
      <trkpt lat="46.14864" lon="5.538">
        <ele>642</ele>
        <time>2020-05-24T10:55:54Z</time>
      </trkpt>
      <trkpt lat="46.14864" lon="5.538">
        <ele>641.9</ele>
        <time>2020-05-24T10:55:55Z</time>
      </trkpt>
      <trkpt lat="46.14864" lon="5.53799">
        <ele>641.9</ele>
        <time>2020-05-24T10:55:57Z</time>
      </trkpt>
      <trkpt lat="46.14864" lon="5.53795">
        <ele>642.5</ele>
        <time>2020-05-24T10:55:59Z</time>
      </trkpt>
      <trkpt lat="46.14864" lon="5.53793">
        <ele>642.5</ele>
        <time>2020-05-24T10:56:00Z</time>
      </trkpt>
      <trkpt lat="46.14864" lon="5.5379">
        <ele>643.1</ele>
        <time>2020-05-24T10:56:02Z</time>
      </trkpt>
      <trkpt lat="46.14862" lon="5.53789">
        <ele>643.1</ele>
        <time>2020-05-24T10:56:03Z</time>
      </trkpt>
      <trkpt lat="46.14861" lon="5.53787">
        <ele>643.6</ele>
        <time>2020-05-24T10:56:04Z</time>
      </trkpt>
      <trkpt lat="46.1486" lon="5.53784">
        <ele>644.3</ele>
        <time>2020-05-24T10:56:06Z</time>
      </trkpt>
      <trkpt lat="46.14859" lon="5.53783">
        <ele>644.1</ele>
        <time>2020-05-24T10:56:07Z</time>
      </trkpt>
      <trkpt lat="46.14858" lon="5.53781">
        <ele>644.1</ele>
        <time>2020-05-24T10:56:08Z</time>
      </trkpt>
      <trkpt lat="46.14858" lon="5.5378">
        <ele>644</ele>
        <time>2020-05-24T10:56:09Z</time>
      </trkpt>
      <trkpt lat="46.14857" lon="5.53779">
        <ele>644.7</ele>
        <time>2020-05-24T10:56:11Z</time>
      </trkpt>
      <trkpt lat="46.14856" lon="5.53777">
        <ele>644.7</ele>
        <time>2020-05-24T10:56:12Z</time>
      </trkpt>
      <trkpt lat="46.14856" lon="5.53776">
        <ele>644.6</ele>
        <time>2020-05-24T10:56:13Z</time>
      </trkpt>
      <trkpt lat="46.14855" lon="5.53773">
        <ele>645.3</ele>
        <time>2020-05-24T10:56:14Z</time>
      </trkpt>
      <trkpt lat="46.14855" lon="5.53771">
        <ele>645.9</ele>
        <time>2020-05-24T10:56:16Z</time>
      </trkpt>
      <trkpt lat="46.14854" lon="5.53769">
        <ele>645.9</ele>
        <time>2020-05-24T10:56:17Z</time>
      </trkpt>
      <trkpt lat="46.14854" lon="5.53768">
        <ele>645.9</ele>
        <time>2020-05-24T10:56:18Z</time>
      </trkpt>
      <trkpt lat="46.14854" lon="5.53766">
        <ele>646.5</ele>
        <time>2020-05-24T10:56:20Z</time>
      </trkpt>
      <trkpt lat="46.14854" lon="5.53764">
        <ele>646.5</ele>
        <time>2020-05-24T10:56:21Z</time>
      </trkpt>
      <trkpt lat="46.14855" lon="5.53761">
        <ele>647</ele>
        <time>2020-05-24T10:56:23Z</time>
      </trkpt>
      <trkpt lat="46.14855" lon="5.53759">
        <ele>647</ele>
        <time>2020-05-24T10:56:24Z</time>
      </trkpt>
      <trkpt lat="46.14855" lon="5.53758">
        <ele>647.4</ele>
        <time>2020-05-24T10:56:25Z</time>
      </trkpt>
      <trkpt lat="46.14855" lon="5.53756">
        <ele>647.4</ele>
        <time>2020-05-24T10:56:26Z</time>
      </trkpt>
      <trkpt lat="46.14855" lon="5.53753">
        <ele>647.8</ele>
        <time>2020-05-24T10:56:28Z</time>
      </trkpt>
      <trkpt lat="46.14856" lon="5.53751">
        <ele>647.7</ele>
        <time>2020-05-24T10:56:29Z</time>
      </trkpt>
      <trkpt lat="46.14856" lon="5.5375">
        <ele>647.7</ele>
        <time>2020-05-24T10:56:30Z</time>
      </trkpt>
      <trkpt lat="46.14856" lon="5.53748">
        <ele>648</ele>
        <time>2020-05-24T10:56:32Z</time>
      </trkpt>
      <trkpt lat="46.14856" lon="5.53747">
        <ele>648</ele>
        <time>2020-05-24T10:56:33Z</time>
      </trkpt>
      <trkpt lat="46.14856" lon="5.53743">
        <ele>648.1</ele>
        <time>2020-05-24T10:56:35Z</time>
      </trkpt>
      <trkpt lat="46.14857" lon="5.53741">
        <ele>648.2</ele>
        <time>2020-05-24T10:56:36Z</time>
      </trkpt>
      <trkpt lat="46.14857" lon="5.53739">
        <ele>648.2</ele>
        <time>2020-05-24T10:56:37Z</time>
      </trkpt>
      <trkpt lat="46.14857" lon="5.53736">
        <ele>648.2</ele>
        <time>2020-05-24T10:56:39Z</time>
      </trkpt>
      <trkpt lat="46.14858" lon="5.53734">
        <ele>648.2</ele>
        <time>2020-05-24T10:56:40Z</time>
      </trkpt>
      <trkpt lat="46.14858" lon="5.53733">
        <ele>648.2</ele>
        <time>2020-05-24T10:56:41Z</time>
      </trkpt>
      <trkpt lat="46.14858" lon="5.53731">
        <ele>648.2</ele>
        <time>2020-05-24T10:56:42Z</time>
      </trkpt>
      <trkpt lat="46.14857" lon="5.5373">
        <ele>648.1</ele>
        <time>2020-05-24T10:56:44Z</time>
      </trkpt>
      <trkpt lat="46.14857" lon="5.53729">
        <ele>648.1</ele>
        <time>2020-05-24T10:56:45Z</time>
      </trkpt>
      <trkpt lat="46.14857" lon="5.53727">
        <ele>648</ele>
        <time>2020-05-24T10:56:47Z</time>
      </trkpt>
      <trkpt lat="46.14857" lon="5.53725">
        <ele>648</ele>
        <time>2020-05-24T10:56:48Z</time>
      </trkpt>
      <trkpt lat="46.14857" lon="5.53724">
        <ele>648</ele>
        <time>2020-05-24T10:56:49Z</time>
      </trkpt>
      <trkpt lat="46.14857" lon="5.53723">
        <ele>647.8</ele>
        <time>2020-05-24T10:56:50Z</time>
      </trkpt>
      <trkpt lat="46.14857" lon="5.53721">
        <ele>647.8</ele>
        <time>2020-05-24T10:56:52Z</time>
      </trkpt>
      <trkpt lat="46.14857" lon="5.53719">
        <ele>647.6</ele>
        <time>2020-05-24T10:56:53Z</time>
      </trkpt>
      <trkpt lat="46.14857" lon="5.53717">
        <ele>647.6</ele>
        <time>2020-05-24T10:56:54Z</time>
      </trkpt>
      <trkpt lat="46.14857" lon="5.53716">
        <ele>647.6</ele>
        <time>2020-05-24T10:56:56Z</time>
      </trkpt>
      <trkpt lat="46.14857" lon="5.53715">
        <ele>647.5</ele>
        <time>2020-05-24T10:56:57Z</time>
      </trkpt>
      <trkpt lat="46.14857" lon="5.53715">
        <ele>647.3</ele>
        <time>2020-05-24T10:56:58Z</time>
      </trkpt>
      <trkpt lat="46.14857" lon="5.53714">
        <ele>647.3</ele>
        <time>2020-05-24T10:57:00Z</time>
      </trkpt>
      <trkpt lat="46.14857" lon="5.53714">
        <ele>647.3</ele>
        <time>2020-05-24T10:57:01Z</time>
      </trkpt>
      <trkpt lat="46.14857" lon="5.53712">
        <ele>647.2</ele>
        <time>2020-05-24T10:57:03Z</time>
      </trkpt>
      <trkpt lat="46.14858" lon="5.53698">
        <ele>646.3</ele>
        <time>2020-05-24T10:57:20Z</time>
      </trkpt>
      <trkpt lat="46.14858" lon="5.53698">
        <ele>646.3</ele>
        <time>2020-05-24T10:57:22Z</time>
      </trkpt>
      <trkpt lat="46.14858" lon="5.53698">
        <ele>646.2</ele>
        <time>2020-05-24T10:57:24Z</time>
      </trkpt>
      <trkpt lat="46.14858" lon="5.53698">
        <ele>646.2</ele>
        <time>2020-05-24T10:57:25Z</time>
      </trkpt>
      <trkpt lat="46.14858" lon="5.53698">
        <ele>646.2</ele>
        <time>2020-05-24T10:57:27Z</time>
      </trkpt>
      <trkpt lat="46.14858" lon="5.53698">
        <ele>645.9</ele>
        <time>2020-05-24T10:57:28Z</time>
      </trkpt>
      <trkpt lat="46.14858" lon="5.53697">
        <ele>645.9</ele>
        <time>2020-05-24T10:57:30Z</time>
      </trkpt>
      <trkpt lat="46.14858" lon="5.53697">
        <ele>645.8</ele>
        <time>2020-05-24T10:57:32Z</time>
      </trkpt>
      <trkpt lat="46.14858" lon="5.53697">
        <ele>645.8</ele>
        <time>2020-05-24T10:57:33Z</time>
      </trkpt>
      <trkpt lat="46.14858" lon="5.53697">
        <ele>645.8</ele>
        <time>2020-05-24T10:57:35Z</time>
      </trkpt>
      <trkpt lat="46.14858" lon="5.53697">
        <ele>645.7</ele>
        <time>2020-05-24T10:57:37Z</time>
      </trkpt>
      <trkpt lat="46.14858" lon="5.53697">
        <ele>645.7</ele>
        <time>2020-05-24T10:57:38Z</time>
      </trkpt>
      <trkpt lat="46.14859" lon="5.53698">
        <ele>645.9</ele>
        <time>2020-05-24T10:57:40Z</time>
      </trkpt>
      <trkpt lat="46.14859" lon="5.53699">
        <ele>645.9</ele>
        <time>2020-05-24T10:57:41Z</time>
      </trkpt>
      <trkpt lat="46.14859" lon="5.53699">
        <ele>645.9</ele>
        <time>2020-05-24T10:57:43Z</time>
      </trkpt>
      <trkpt lat="46.14859" lon="5.53699">
        <ele>645.9</ele>
        <time>2020-05-24T10:57:44Z</time>
      </trkpt>
      <trkpt lat="46.14859" lon="5.53701">
        <ele>645.8</ele>
        <time>2020-05-24T10:57:46Z</time>
      </trkpt>
      <trkpt lat="46.14859" lon="5.53702">
        <ele>645.8</ele>
        <time>2020-05-24T10:57:47Z</time>
      </trkpt>
      <trkpt lat="46.14858" lon="5.53702">
        <ele>645.8</ele>
        <time>2020-05-24T10:57:48Z</time>
      </trkpt>
      <trkpt lat="46.14858" lon="5.53701">
        <ele>645.8</ele>
        <time>2020-05-24T10:57:50Z</time>
      </trkpt>
      <trkpt lat="46.14859" lon="5.53702">
        <ele>645.7</ele>
        <time>2020-05-24T10:57:52Z</time>
      </trkpt>
      <trkpt lat="46.14859" lon="5.53702">
        <ele>645.7</ele>
        <time>2020-05-24T10:57:53Z</time>
      </trkpt>
      <trkpt lat="46.14859" lon="5.53702">
        <ele>645.3</ele>
        <time>2020-05-24T10:57:55Z</time>
      </trkpt>
      <trkpt lat="46.14859" lon="5.53701">
        <ele>645.2</ele>
        <time>2020-05-24T10:57:56Z</time>
      </trkpt>
      <trkpt lat="46.14859" lon="5.53702">
        <ele>645.2</ele>
        <time>2020-05-24T10:57:58Z</time>
      </trkpt>
      <trkpt lat="46.14861" lon="5.53698">
        <ele>645.2</ele>
        <time>2020-05-24T10:58:04Z</time>
      </trkpt>
      <trkpt lat="46.1486" lon="5.53696">
        <ele>644.9</ele>
        <time>2020-05-24T10:58:05Z</time>
      </trkpt>
      <trkpt lat="46.14859" lon="5.53694">
        <ele>644.9</ele>
        <time>2020-05-24T10:58:06Z</time>
      </trkpt>
      <trkpt lat="46.14858" lon="5.53693">
        <ele>645</ele>
        <time>2020-05-24T10:58:08Z</time>
      </trkpt>
      <trkpt lat="46.14857" lon="5.53691">
        <ele>645</ele>
        <time>2020-05-24T10:58:09Z</time>
      </trkpt>
      <trkpt lat="46.14856" lon="5.53689">
        <ele>644.7</ele>
        <time>2020-05-24T10:58:11Z</time>
      </trkpt>
      <trkpt lat="46.14855" lon="5.53687">
        <ele>645</ele>
        <time>2020-05-24T10:58:12Z</time>
      </trkpt>
      <trkpt lat="46.14854" lon="5.53685">
        <ele>644.8</ele>
        <time>2020-05-24T10:58:13Z</time>
      </trkpt>
      <trkpt lat="46.14853" lon="5.53683">
        <ele>645.1</ele>
        <time>2020-05-24T10:58:15Z</time>
      </trkpt>
      <trkpt lat="46.1485" lon="5.53679">
        <ele>645.3</ele>
        <time>2020-05-24T10:58:16Z</time>
      </trkpt>
      <trkpt lat="46.14848" lon="5.53677">
        <ele>645.3</ele>
        <time>2020-05-24T10:58:18Z</time>
      </trkpt>
      <trkpt lat="46.14847" lon="5.53676">
        <ele>645.5</ele>
        <time>2020-05-24T10:58:19Z</time>
      </trkpt>
      <trkpt lat="46.14846" lon="5.53674">
        <ele>645.4</ele>
        <time>2020-05-24T10:58:21Z</time>
      </trkpt>
      <trkpt lat="46.14845" lon="5.53673">
        <ele>645.4</ele>
        <time>2020-05-24T10:58:22Z</time>
      </trkpt>
      <trkpt lat="46.14843" lon="5.53671">
        <ele>645.7</ele>
        <time>2020-05-24T10:58:23Z</time>
      </trkpt>
      <trkpt lat="46.14842" lon="5.53668">
        <ele>645.6</ele>
        <time>2020-05-24T10:58:25Z</time>
      </trkpt>
      <trkpt lat="46.14839" lon="5.53664">
        <ele>645.9</ele>
        <time>2020-05-24T10:58:27Z</time>
      </trkpt>
      <trkpt lat="46.14838" lon="5.53663">
        <ele>646.2</ele>
        <time>2020-05-24T10:58:28Z</time>
      </trkpt>
      <trkpt lat="46.14837" lon="5.53662">
        <ele>646.1</ele>
        <time>2020-05-24T10:58:30Z</time>
      </trkpt>
      <trkpt lat="46.14836" lon="5.5366">
        <ele>646.1</ele>
        <time>2020-05-24T10:58:31Z</time>
      </trkpt>
      <trkpt lat="46.14836" lon="5.53659">
        <ele>645.9</ele>
        <time>2020-05-24T10:58:32Z</time>
      </trkpt>
      <trkpt lat="46.14835" lon="5.53658">
        <ele>646.3</ele>
        <time>2020-05-24T10:58:33Z</time>
      </trkpt>
      <trkpt lat="46.14833" lon="5.53657">
        <ele>646.2</ele>
        <time>2020-05-24T10:58:35Z</time>
      </trkpt>
      <trkpt lat="46.14833" lon="5.53656">
        <ele>646.2</ele>
        <time>2020-05-24T10:58:36Z</time>
      </trkpt>
      <trkpt lat="46.14831" lon="5.53653">
        <ele>646.4</ele>
        <time>2020-05-24T10:58:38Z</time>
      </trkpt>
      <trkpt lat="46.14829" lon="5.53651">
        <ele>646.7</ele>
        <time>2020-05-24T10:58:39Z</time>
      </trkpt>
      <trkpt lat="46.14828" lon="5.5365">
        <ele>646.4</ele>
        <time>2020-05-24T10:58:41Z</time>
      </trkpt>
      <trkpt lat="46.14827" lon="5.53648">
        <ele>646.4</ele>
        <time>2020-05-24T10:58:42Z</time>
      </trkpt>
      <trkpt lat="46.14825" lon="5.53646">
        <ele>646.5</ele>
        <time>2020-05-24T10:58:43Z</time>
      </trkpt>
      <trkpt lat="46.14824" lon="5.53645">
        <ele>646.5</ele>
        <time>2020-05-24T10:58:44Z</time>
      </trkpt>
      <trkpt lat="46.14822" lon="5.53643">
        <ele>646.8</ele>
        <time>2020-05-24T10:58:46Z</time>
      </trkpt>
      <trkpt lat="46.14821" lon="5.53642">
        <ele>646.5</ele>
        <time>2020-05-24T10:58:47Z</time>
      </trkpt>
      <trkpt lat="46.1482" lon="5.5364">
        <ele>646.9</ele>
        <time>2020-05-24T10:58:48Z</time>
      </trkpt>
      <trkpt lat="46.14817" lon="5.53638">
        <ele>647.3</ele>
        <time>2020-05-24T10:58:50Z</time>
      </trkpt>
      <trkpt lat="46.14815" lon="5.53636">
        <ele>647.5</ele>
        <time>2020-05-24T10:58:51Z</time>
      </trkpt>
      <trkpt lat="46.14812" lon="5.53634">
        <ele>647.5</ele>
        <time>2020-05-24T10:58:53Z</time>
      </trkpt>
      <trkpt lat="46.14811" lon="5.53633">
        <ele>647.8</ele>
        <time>2020-05-24T10:58:54Z</time>
      </trkpt>
      <trkpt lat="46.14809" lon="5.53631">
        <ele>647.8</ele>
        <time>2020-05-24T10:58:55Z</time>
      </trkpt>
      <trkpt lat="46.14807" lon="5.5363">
        <ele>648.3</ele>
        <time>2020-05-24T10:58:57Z</time>
      </trkpt>
      <trkpt lat="46.14804" lon="5.53627">
        <ele>648.7</ele>
        <time>2020-05-24T10:58:58Z</time>
      </trkpt>
      <trkpt lat="46.14803" lon="5.53626">
        <ele>648.6</ele>
        <time>2020-05-24T10:58:59Z</time>
      </trkpt>
      <trkpt lat="46.14801" lon="5.53624">
        <ele>648.9</ele>
        <time>2020-05-24T10:59:01Z</time>
      </trkpt>
      <trkpt lat="46.14797" lon="5.5362">
        <ele>649.7</ele>
        <time>2020-05-24T10:59:03Z</time>
      </trkpt>
      <trkpt lat="46.14795" lon="5.53619">
        <ele>649.6</ele>
        <time>2020-05-24T10:59:04Z</time>
      </trkpt>
      <trkpt lat="46.14793" lon="5.53617">
        <ele>650.2</ele>
        <time>2020-05-24T10:59:06Z</time>
      </trkpt>
      <trkpt lat="46.14792" lon="5.53616">
        <ele>649.8</ele>
        <time>2020-05-24T10:59:07Z</time>
      </trkpt>
      <trkpt lat="46.14789" lon="5.53614">
        <ele>650.3</ele>
        <time>2020-05-24T10:59:09Z</time>
      </trkpt>
      <trkpt lat="46.14787" lon="5.53612">
        <ele>650.5</ele>
        <time>2020-05-24T10:59:10Z</time>
      </trkpt>
      <trkpt lat="46.14784" lon="5.53611">
        <ele>651.1</ele>
        <time>2020-05-24T10:59:12Z</time>
      </trkpt>
      <trkpt lat="46.14783" lon="5.5361">
        <ele>651.1</ele>
        <time>2020-05-24T10:59:13Z</time>
      </trkpt>
      <trkpt lat="46.14779" lon="5.53609">
        <ele>651.7</ele>
        <time>2020-05-24T10:59:15Z</time>
      </trkpt>
      <trkpt lat="46.14776" lon="5.53607">
        <ele>651.9</ele>
        <time>2020-05-24T10:59:16Z</time>
      </trkpt>
      <trkpt lat="46.14775" lon="5.53607">
        <ele>652.6</ele>
        <time>2020-05-24T10:59:18Z</time>
      </trkpt>
      <trkpt lat="46.14774" lon="5.53606">
        <ele>652.5</ele>
        <time>2020-05-24T10:59:20Z</time>
      </trkpt>
      <trkpt lat="46.14772" lon="5.53605">
        <ele>653.1</ele>
        <time>2020-05-24T10:59:21Z</time>
      </trkpt>
      <trkpt lat="46.1477" lon="5.53604">
        <ele>653.1</ele>
        <time>2020-05-24T10:59:22Z</time>
      </trkpt>
      <trkpt lat="46.14769" lon="5.53603">
        <ele>653.3</ele>
        <time>2020-05-24T10:59:24Z</time>
      </trkpt>
      <trkpt lat="46.14768" lon="5.53602">
        <ele>653.3</ele>
        <time>2020-05-24T10:59:25Z</time>
      </trkpt>
      <trkpt lat="46.14765" lon="5.53601">
        <ele>653.9</ele>
        <time>2020-05-24T10:59:26Z</time>
      </trkpt>
      <trkpt lat="46.14765" lon="5.536">
        <ele>653.8</ele>
        <time>2020-05-24T10:59:27Z</time>
      </trkpt>
      <trkpt lat="46.14763" lon="5.53599">
        <ele>654.4</ele>
        <time>2020-05-24T10:59:29Z</time>
      </trkpt>
      <trkpt lat="46.14762" lon="5.53599">
        <ele>654</ele>
        <time>2020-05-24T10:59:30Z</time>
      </trkpt>
      <trkpt lat="46.14759" lon="5.53598">
        <ele>654.5</ele>
        <time>2020-05-24T10:59:32Z</time>
      </trkpt>
      <trkpt lat="46.14758" lon="5.53597">
        <ele>654.5</ele>
        <time>2020-05-24T10:59:33Z</time>
      </trkpt>
      <trkpt lat="46.14755" lon="5.53595">
        <ele>655.7</ele>
        <time>2020-05-24T10:59:35Z</time>
      </trkpt>
      <trkpt lat="46.14754" lon="5.53594">
        <ele>655.3</ele>
        <time>2020-05-24T10:59:36Z</time>
      </trkpt>
      <trkpt lat="46.1475" lon="5.53592">
        <ele>655.9</ele>
        <time>2020-05-24T10:59:38Z</time>
      </trkpt>
      <trkpt lat="46.14749" lon="5.53591">
        <ele>656.5</ele>
        <time>2020-05-24T10:59:39Z</time>
      </trkpt>
      <trkpt lat="46.14747" lon="5.5359">
        <ele>656.1</ele>
        <time>2020-05-24T10:59:40Z</time>
      </trkpt>
      <trkpt lat="46.14746" lon="5.53589">
        <ele>656.7</ele>
        <time>2020-05-24T10:59:42Z</time>
      </trkpt>
      <trkpt lat="46.14744" lon="5.53588">
        <ele>656.7</ele>
        <time>2020-05-24T10:59:43Z</time>
      </trkpt>
      <trkpt lat="46.14742" lon="5.53587">
        <ele>657.2</ele>
        <time>2020-05-24T10:59:44Z</time>
      </trkpt>
      <trkpt lat="46.1474" lon="5.53586">
        <ele>656.8</ele>
        <time>2020-05-24T10:59:46Z</time>
      </trkpt>
      <trkpt lat="46.14739" lon="5.53585">
        <ele>657.3</ele>
        <time>2020-05-24T10:59:47Z</time>
      </trkpt>
      <trkpt lat="46.14736" lon="5.53584">
        <ele>657.8</ele>
        <time>2020-05-24T10:59:48Z</time>
      </trkpt>
      <trkpt lat="46.14735" lon="5.53583">
        <ele>657.8</ele>
        <time>2020-05-24T10:59:49Z</time>
      </trkpt>
      <trkpt lat="46.14733" lon="5.53582">
        <ele>657.9</ele>
        <time>2020-05-24T10:59:50Z</time>
      </trkpt>
      <trkpt lat="46.14731" lon="5.53581">
        <ele>658.4</ele>
        <time>2020-05-24T10:59:52Z</time>
      </trkpt>
      <trkpt lat="46.14728" lon="5.53579">
        <ele>659</ele>
        <time>2020-05-24T10:59:54Z</time>
      </trkpt>
      <trkpt lat="46.14727" lon="5.53578">
        <ele>658.9</ele>
        <time>2020-05-24T10:59:55Z</time>
      </trkpt>
      <trkpt lat="46.14725" lon="5.53578">
        <ele>659.2</ele>
        <time>2020-05-24T10:59:56Z</time>
      </trkpt>
      <trkpt lat="46.14723" lon="5.53577">
        <ele>659.1</ele>
        <time>2020-05-24T10:59:58Z</time>
      </trkpt>
      <trkpt lat="46.1472" lon="5.53576">
        <ele>659.6</ele>
        <time>2020-05-24T10:59:59Z</time>
      </trkpt>
      <trkpt lat="46.1472" lon="5.53575">
        <ele>659.6</ele>
        <time>2020-05-24T11:00:00Z</time>
      </trkpt>
      <trkpt lat="46.14718" lon="5.53575">
        <ele>660</ele>
        <time>2020-05-24T11:00:01Z</time>
      </trkpt>
      <trkpt lat="46.14715" lon="5.53574">
        <ele>660.5</ele>
        <time>2020-05-24T11:00:03Z</time>
      </trkpt>
      <trkpt lat="46.14713" lon="5.53574">
        <ele>660.8</ele>
        <time>2020-05-24T11:00:04Z</time>
      </trkpt>
      <trkpt lat="46.14712" lon="5.53574">
        <ele>660.6</ele>
        <time>2020-05-24T11:00:05Z</time>
      </trkpt>
      <trkpt lat="46.14709" lon="5.53573">
        <ele>661</ele>
        <time>2020-05-24T11:00:06Z</time>
      </trkpt>
      <trkpt lat="46.14708" lon="5.53572">
        <ele>661</ele>
        <time>2020-05-24T11:00:07Z</time>
      </trkpt>
      <trkpt lat="46.14705" lon="5.53572">
        <ele>661.4</ele>
        <time>2020-05-24T11:00:09Z</time>
      </trkpt>
      <trkpt lat="46.14704" lon="5.53572">
        <ele>661.7</ele>
        <time>2020-05-24T11:00:10Z</time>
      </trkpt>
      <trkpt lat="46.14701" lon="5.5357">
        <ele>662.1</ele>
        <time>2020-05-24T11:00:11Z</time>
      </trkpt>
      <trkpt lat="46.147" lon="5.5357">
        <ele>662.1</ele>
        <time>2020-05-24T11:00:12Z</time>
      </trkpt>
      <trkpt lat="46.14697" lon="5.53568">
        <ele>662.3</ele>
        <time>2020-05-24T11:00:14Z</time>
      </trkpt>
      <trkpt lat="46.14697" lon="5.53566">
        <ele>662.3</ele>
        <time>2020-05-24T11:00:15Z</time>
      </trkpt>
      <trkpt lat="46.14696" lon="5.53565">
        <ele>662.1</ele>
        <time>2020-05-24T11:00:16Z</time>
      </trkpt>
      <trkpt lat="46.14695" lon="5.53564">
        <ele>662.5</ele>
        <time>2020-05-24T11:00:17Z</time>
      </trkpt>
      <trkpt lat="46.14694" lon="5.53562">
        <ele>662.4</ele>
        <time>2020-05-24T11:00:18Z</time>
      </trkpt>
      <trkpt lat="46.14694" lon="5.53562">
        <ele>662.4</ele>
        <time>2020-05-24T11:00:19Z</time>
      </trkpt>
      <trkpt lat="46.14692" lon="5.5356">
        <ele>662.5</ele>
        <time>2020-05-24T11:00:21Z</time>
      </trkpt>
      <trkpt lat="46.14691" lon="5.53559">
        <ele>662.5</ele>
        <time>2020-05-24T11:00:23Z</time>
      </trkpt>
      <trkpt lat="46.14691" lon="5.53559">
        <ele>662.5</ele>
        <time>2020-05-24T11:00:24Z</time>
      </trkpt>
      <trkpt lat="46.1469" lon="5.53558">
        <ele>662.4</ele>
        <time>2020-05-24T11:00:25Z</time>
      </trkpt>
      <trkpt lat="46.14689" lon="5.53557">
        <ele>662.8</ele>
        <time>2020-05-24T11:00:26Z</time>
      </trkpt>
      <trkpt lat="46.14686" lon="5.53556">
        <ele>662.8</ele>
        <time>2020-05-24T11:00:28Z</time>
      </trkpt>
      <trkpt lat="46.14685" lon="5.53556">
        <ele>662.8</ele>
        <time>2020-05-24T11:00:30Z</time>
      </trkpt>
      <trkpt lat="46.14681" lon="5.53556">
        <ele>663</ele>
        <time>2020-05-24T11:00:34Z</time>
      </trkpt>
      <trkpt lat="46.1468" lon="5.53556">
        <ele>663.2</ele>
        <time>2020-05-24T11:00:35Z</time>
      </trkpt>
      <trkpt lat="46.1468" lon="5.53556">
        <ele>663.2</ele>
        <time>2020-05-24T11:00:36Z</time>
      </trkpt>
      <trkpt lat="46.14679" lon="5.53556">
        <ele>663.2</ele>
        <time>2020-05-24T11:00:37Z</time>
      </trkpt>
      <trkpt lat="46.14678" lon="5.53555">
        <ele>663.1</ele>
        <time>2020-05-24T11:00:39Z</time>
      </trkpt>
      <trkpt lat="46.14678" lon="5.53555">
        <ele>663.3</ele>
        <time>2020-05-24T11:00:40Z</time>
      </trkpt>
      <trkpt lat="46.14677" lon="5.53554">
        <ele>663.3</ele>
        <time>2020-05-24T11:00:41Z</time>
      </trkpt>
      <trkpt lat="46.14668" lon="5.5355">
        <ele>663.6</ele>
        <time>2020-05-24T11:00:43Z</time>
      </trkpt>
      <trkpt lat="46.14667" lon="5.53549">
        <ele>663.6</ele>
        <time>2020-05-24T11:00:45Z</time>
      </trkpt>
      <trkpt lat="46.14667" lon="5.53549">
        <ele>663.5</ele>
        <time>2020-05-24T11:00:47Z</time>
      </trkpt>
      <trkpt lat="46.14667" lon="5.53549">
        <ele>663.5</ele>
        <time>2020-05-24T11:00:49Z</time>
      </trkpt>
      <trkpt lat="46.14667" lon="5.53549">
        <ele>663.5</ele>
        <time>2020-05-24T11:00:50Z</time>
      </trkpt>
      <trkpt lat="46.14666" lon="5.53548">
        <ele>663.4</ele>
        <time>2020-05-24T11:00:51Z</time>
      </trkpt>
      <trkpt lat="46.14666" lon="5.53547">
        <ele>663.5</ele>
        <time>2020-05-24T11:00:52Z</time>
      </trkpt>
      <trkpt lat="46.14665" lon="5.53546">
        <ele>663.5</ele>
        <time>2020-05-24T11:00:53Z</time>
      </trkpt>
      <trkpt lat="46.14665" lon="5.53545">
        <ele>663.5</ele>
        <time>2020-05-24T11:00:55Z</time>
      </trkpt>
      <trkpt lat="46.14665" lon="5.53545">
        <ele>663.5</ele>
        <time>2020-05-24T11:00:57Z</time>
      </trkpt>
      <trkpt lat="46.14665" lon="5.53545">
        <ele>663.4</ele>
        <time>2020-05-24T11:00:58Z</time>
      </trkpt>
      <trkpt lat="46.14665" lon="5.53545">
        <ele>663.4</ele>
        <time>2020-05-24T11:01:00Z</time>
      </trkpt>
      <trkpt lat="46.14665" lon="5.53545">
        <ele>663.4</ele>
        <time>2020-05-24T11:01:01Z</time>
      </trkpt>
      <trkpt lat="46.14665" lon="5.53545">
        <ele>663.4</ele>
        <time>2020-05-24T11:01:03Z</time>
      </trkpt>
      <trkpt lat="46.14661" lon="5.53552">
        <ele>663.4</ele>
        <time>2020-05-24T11:01:17Z</time>
      </trkpt>
      <trkpt lat="46.1466" lon="5.53552">
        <ele>663.3</ele>
        <time>2020-05-24T11:01:19Z</time>
      </trkpt>
      <trkpt lat="46.1466" lon="5.53553">
        <ele>663.2</ele>
        <time>2020-05-24T11:01:21Z</time>
      </trkpt>
      <trkpt lat="46.14661" lon="5.53552">
        <ele>663.3</ele>
        <time>2020-05-24T11:01:23Z</time>
      </trkpt>
      <trkpt lat="46.14661" lon="5.53552">
        <ele>663.3</ele>
        <time>2020-05-24T11:01:24Z</time>
      </trkpt>
      <trkpt lat="46.14661" lon="5.53552">
        <ele>663.2</ele>
        <time>2020-05-24T11:01:26Z</time>
      </trkpt>
      <trkpt lat="46.14661" lon="5.53552">
        <ele>663.2</ele>
        <time>2020-05-24T11:01:27Z</time>
      </trkpt>
      <trkpt lat="46.1466" lon="5.5355">
        <ele>663.2</ele>
        <time>2020-05-24T11:01:29Z</time>
      </trkpt>
      <trkpt lat="46.1466" lon="5.53549">
        <ele>663.2</ele>
        <time>2020-05-24T11:01:30Z</time>
      </trkpt>
      <trkpt lat="46.14659" lon="5.5355">
        <ele>663.1</ele>
        <time>2020-05-24T11:01:31Z</time>
      </trkpt>
      <trkpt lat="46.14658" lon="5.53551">
        <ele>663.1</ele>
        <time>2020-05-24T11:01:33Z</time>
      </trkpt>
      <trkpt lat="46.14658" lon="5.53551">
        <ele>663.1</ele>
        <time>2020-05-24T11:01:35Z</time>
      </trkpt>
      <trkpt lat="46.14658" lon="5.53551">
        <ele>663</ele>
        <time>2020-05-24T11:01:36Z</time>
      </trkpt>
      <trkpt lat="46.14658" lon="5.53552">
        <ele>663</ele>
        <time>2020-05-24T11:01:38Z</time>
      </trkpt>
      <trkpt lat="46.14658" lon="5.53554">
        <ele>662.9</ele>
        <time>2020-05-24T11:01:39Z</time>
      </trkpt>
      <trkpt lat="46.14657" lon="5.53554">
        <ele>662.8</ele>
        <time>2020-05-24T11:01:40Z</time>
      </trkpt>
      <trkpt lat="46.14657" lon="5.53554">
        <ele>662.7</ele>
        <time>2020-05-24T11:01:41Z</time>
      </trkpt>
      <trkpt lat="46.14655" lon="5.5355">
        <ele>662.9</ele>
        <time>2020-05-24T11:01:43Z</time>
      </trkpt>
      <trkpt lat="46.14653" lon="5.53546">
        <ele>662.9</ele>
        <time>2020-05-24T11:01:45Z</time>
      </trkpt>
      <trkpt lat="46.14651" lon="5.53543">
        <ele>663</ele>
        <time>2020-05-24T11:01:46Z</time>
      </trkpt>
      <trkpt lat="46.14647" lon="5.53538">
        <ele>662.9</ele>
        <time>2020-05-24T11:01:47Z</time>
      </trkpt>
      <trkpt lat="46.14643" lon="5.53533">
        <ele>662.8</ele>
        <time>2020-05-24T11:01:48Z</time>
      </trkpt>
      <trkpt lat="46.14639" lon="5.53528">
        <ele>662.6</ele>
        <time>2020-05-24T11:01:49Z</time>
      </trkpt>
      <trkpt lat="46.14634" lon="5.53521">
        <ele>662.5</ele>
        <time>2020-05-24T11:01:50Z</time>
      </trkpt>
      <trkpt lat="46.14628" lon="5.5351">
        <ele>662</ele>
        <time>2020-05-24T11:01:52Z</time>
      </trkpt>
      <trkpt lat="46.14624" lon="5.53494">
        <ele>660.8</ele>
        <time>2020-05-24T11:01:53Z</time>
      </trkpt>
      <trkpt lat="46.14624" lon="5.53473">
        <ele>658.4</ele>
        <time>2020-05-24T11:01:55Z</time>
      </trkpt>
      <trkpt lat="46.14627" lon="5.53457">
        <ele>656</ele>
        <time>2020-05-24T11:01:57Z</time>
      </trkpt>
      <trkpt lat="46.14627" lon="5.53453">
        <ele>655.5</ele>
        <time>2020-05-24T11:01:58Z</time>
      </trkpt>
      <trkpt lat="46.14629" lon="5.53443">
        <ele>654.3</ele>
        <time>2020-05-24T11:02:00Z</time>
      </trkpt>
      <trkpt lat="46.14627" lon="5.53432">
        <ele>653.4</ele>
        <time>2020-05-24T11:02:02Z</time>
      </trkpt>
      <trkpt lat="46.14624" lon="5.53425">
        <ele>652.2</ele>
        <time>2020-05-24T11:02:03Z</time>
      </trkpt>
      <trkpt lat="46.14616" lon="5.53417">
        <ele>651.1</ele>
        <time>2020-05-24T11:02:05Z</time>
      </trkpt>
      <trkpt lat="46.1461" lon="5.53412">
        <ele>650.8</ele>
        <time>2020-05-24T11:02:06Z</time>
      </trkpt>
      <trkpt lat="46.14604" lon="5.53411">
        <ele>651</ele>
        <time>2020-05-24T11:02:07Z</time>
      </trkpt>
      <trkpt lat="46.14598" lon="5.53411">
        <ele>651</ele>
        <time>2020-05-24T11:02:08Z</time>
      </trkpt>
      <trkpt lat="46.14592" lon="5.53412">
        <ele>650.8</ele>
        <time>2020-05-24T11:02:10Z</time>
      </trkpt>
      <trkpt lat="46.14587" lon="5.53413">
        <ele>650.4</ele>
        <time>2020-05-24T11:02:11Z</time>
      </trkpt>
      <trkpt lat="46.14583" lon="5.53413">
        <ele>650.1</ele>
        <time>2020-05-24T11:02:12Z</time>
      </trkpt>
      <trkpt lat="46.14576" lon="5.53414">
        <ele>649.1</ele>
        <time>2020-05-24T11:02:14Z</time>
      </trkpt>
      <trkpt lat="46.14571" lon="5.53414">
        <ele>648.7</ele>
        <time>2020-05-24T11:02:15Z</time>
      </trkpt>
      <trkpt lat="46.14568" lon="5.53416">
        <ele>648.6</ele>
        <time>2020-05-24T11:02:16Z</time>
      </trkpt>
      <trkpt lat="46.14561" lon="5.53418">
        <ele>647.4</ele>
        <time>2020-05-24T11:02:18Z</time>
      </trkpt>
      <trkpt lat="46.14559" lon="5.53419">
        <ele>647.2</ele>
        <time>2020-05-24T11:02:20Z</time>
      </trkpt>
      <trkpt lat="46.14555" lon="5.53422">
        <ele>646.7</ele>
        <time>2020-05-24T11:02:21Z</time>
      </trkpt>
      <trkpt lat="46.14552" lon="5.53424">
        <ele>646.4</ele>
        <time>2020-05-24T11:02:22Z</time>
      </trkpt>
      <trkpt lat="46.14549" lon="5.53427">
        <ele>645.9</ele>
        <time>2020-05-24T11:02:24Z</time>
      </trkpt>
      <trkpt lat="46.14548" lon="5.53428">
        <ele>646.1</ele>
        <time>2020-05-24T11:02:25Z</time>
      </trkpt>
      <trkpt lat="46.14546" lon="5.53429">
        <ele>645.6</ele>
        <time>2020-05-24T11:02:26Z</time>
      </trkpt>
      <trkpt lat="46.14544" lon="5.53432">
        <ele>645.1</ele>
        <time>2020-05-24T11:02:28Z</time>
      </trkpt>
      <trkpt lat="46.14541" lon="5.53434">
        <ele>644.8</ele>
        <time>2020-05-24T11:02:29Z</time>
      </trkpt>
      <trkpt lat="46.14539" lon="5.53435">
        <ele>644.8</ele>
        <time>2020-05-24T11:02:30Z</time>
      </trkpt>
      <trkpt lat="46.14536" lon="5.53439">
        <ele>644.5</ele>
        <time>2020-05-24T11:02:31Z</time>
      </trkpt>
      <trkpt lat="46.14534" lon="5.53441">
        <ele>644.2</ele>
        <time>2020-05-24T11:02:32Z</time>
      </trkpt>
      <trkpt lat="46.14533" lon="5.53442">
        <ele>644.2</ele>
        <time>2020-05-24T11:02:33Z</time>
      </trkpt>
      <trkpt lat="46.1453" lon="5.53444">
        <ele>643.8</ele>
        <time>2020-05-24T11:02:35Z</time>
      </trkpt>
      <trkpt lat="46.14529" lon="5.53446">
        <ele>643.6</ele>
        <time>2020-05-24T11:02:36Z</time>
      </trkpt>
      <trkpt lat="46.14526" lon="5.53449">
        <ele>643.2</ele>
        <time>2020-05-24T11:02:38Z</time>
      </trkpt>
      <trkpt lat="46.14523" lon="5.53452">
        <ele>643.2</ele>
        <time>2020-05-24T11:02:39Z</time>
      </trkpt>
      <trkpt lat="46.14522" lon="5.53453">
        <ele>643.2</ele>
        <time>2020-05-24T11:02:40Z</time>
      </trkpt>
      <trkpt lat="46.1452" lon="5.53455">
        <ele>643.2</ele>
        <time>2020-05-24T11:02:41Z</time>
      </trkpt>
      <trkpt lat="46.14516" lon="5.53461">
        <ele>643.3</ele>
        <time>2020-05-24T11:02:43Z</time>
      </trkpt>
      <trkpt lat="46.1451" lon="5.53471">
        <ele>644</ele>
        <time>2020-05-24T11:02:44Z</time>
      </trkpt>
      <trkpt lat="46.14506" lon="5.53479">
        <ele>644.5</ele>
        <time>2020-05-24T11:02:45Z</time>
      </trkpt>
      <trkpt lat="46.14497" lon="5.53494">
        <ele>644.8</ele>
        <time>2020-05-24T11:02:47Z</time>
      </trkpt>
      <trkpt lat="46.14491" lon="5.53504">
        <ele>645.3</ele>
        <time>2020-05-24T11:02:48Z</time>
      </trkpt>
      <trkpt lat="46.14485" lon="5.53517">
        <ele>646.3</ele>
        <time>2020-05-24T11:02:50Z</time>
      </trkpt>
      <trkpt lat="46.14481" lon="5.53526">
        <ele>646.7</ele>
        <time>2020-05-24T11:02:51Z</time>
      </trkpt>
      <trkpt lat="46.14477" lon="5.53535">
        <ele>647.5</ele>
        <time>2020-05-24T11:02:52Z</time>
      </trkpt>
      <trkpt lat="46.14475" lon="5.53545">
        <ele>647.9</ele>
        <time>2020-05-24T11:02:54Z</time>
      </trkpt>
      <trkpt lat="46.14472" lon="5.53554">
        <ele>648.3</ele>
        <time>2020-05-24T11:02:55Z</time>
      </trkpt>
      <trkpt lat="46.1447" lon="5.5356">
        <ele>648.2</ele>
        <time>2020-05-24T11:02:56Z</time>
      </trkpt>
      <trkpt lat="46.14467" lon="5.53565">
        <ele>648.5</ele>
        <time>2020-05-24T11:02:57Z</time>
      </trkpt>
      <trkpt lat="46.14464" lon="5.5357">
        <ele>648.8</ele>
        <time>2020-05-24T11:02:59Z</time>
      </trkpt>
      <trkpt lat="46.14462" lon="5.53574">
        <ele>648.7</ele>
        <time>2020-05-24T11:03:01Z</time>
      </trkpt>
      <trkpt lat="46.14461" lon="5.53576">
        <ele>648.7</ele>
        <time>2020-05-24T11:03:02Z</time>
      </trkpt>
      <trkpt lat="46.14459" lon="5.5358">
        <ele>648.6</ele>
        <time>2020-05-24T11:03:03Z</time>
      </trkpt>
      <trkpt lat="46.14458" lon="5.53583">
        <ele>648.9</ele>
        <time>2020-05-24T11:03:04Z</time>
      </trkpt>
      <trkpt lat="46.14457" lon="5.53588">
        <ele>648.9</ele>
        <time>2020-05-24T11:03:06Z</time>
      </trkpt>
      <trkpt lat="46.14452" lon="5.53596">
        <ele>649.1</ele>
        <time>2020-05-24T11:03:07Z</time>
      </trkpt>
      <trkpt lat="46.14449" lon="5.53605">
        <ele>648.9</ele>
        <time>2020-05-24T11:03:08Z</time>
      </trkpt>
      <trkpt lat="46.14446" lon="5.53613">
        <ele>648.7</ele>
        <time>2020-05-24T11:03:09Z</time>
      </trkpt>
      <trkpt lat="46.14441" lon="5.53624">
        <ele>648.1</ele>
        <time>2020-05-24T11:03:11Z</time>
      </trkpt>
      <trkpt lat="46.14437" lon="5.53631">
        <ele>647.1</ele>
        <time>2020-05-24T11:03:12Z</time>
      </trkpt>
      <trkpt lat="46.14432" lon="5.53639">
        <ele>645.7</ele>
        <time>2020-05-24T11:03:14Z</time>
      </trkpt>
      <trkpt lat="46.14427" lon="5.53646">
        <ele>644.8</ele>
        <time>2020-05-24T11:03:15Z</time>
      </trkpt>
      <trkpt lat="46.14422" lon="5.53651">
        <ele>643.8</ele>
        <time>2020-05-24T11:03:16Z</time>
      </trkpt>
      <trkpt lat="46.14415" lon="5.53658">
        <ele>642</ele>
        <time>2020-05-24T11:03:18Z</time>
      </trkpt>
      <trkpt lat="46.14409" lon="5.53664">
        <ele>641.1</ele>
        <time>2020-05-24T11:03:19Z</time>
      </trkpt>
      <trkpt lat="46.14396" lon="5.53673">
        <ele>639.6</ele>
        <time>2020-05-24T11:03:20Z</time>
      </trkpt>
      <trkpt lat="46.14387" lon="5.53676">
        <ele>639.5</ele>
        <time>2020-05-24T11:03:21Z</time>
      </trkpt>
      <trkpt lat="46.14377" lon="5.53678">
        <ele>639.2</ele>
        <time>2020-05-24T11:03:23Z</time>
      </trkpt>
      <trkpt lat="46.14373" lon="5.53681">
        <ele>638.9</ele>
        <time>2020-05-24T11:03:24Z</time>
      </trkpt>
      <trkpt lat="46.14366" lon="5.53682">
        <ele>639</ele>
        <time>2020-05-24T11:03:25Z</time>
      </trkpt>
      <trkpt lat="46.1436" lon="5.53683">
        <ele>639</ele>
        <time>2020-05-24T11:03:27Z</time>
      </trkpt>
      <trkpt lat="46.14354" lon="5.53683">
        <ele>639</ele>
        <time>2020-05-24T11:03:28Z</time>
      </trkpt>
      <trkpt lat="46.14348" lon="5.53684">
        <ele>639</ele>
        <time>2020-05-24T11:03:29Z</time>
      </trkpt>
      <trkpt lat="46.14342" lon="5.53684">
        <ele>639.1</ele>
        <time>2020-05-24T11:03:31Z</time>
      </trkpt>
      <trkpt lat="46.14338" lon="5.53684">
        <ele>639.2</ele>
        <time>2020-05-24T11:03:32Z</time>
      </trkpt>
      <trkpt lat="46.14332" lon="5.53685">
        <ele>639.2</ele>
        <time>2020-05-24T11:03:33Z</time>
      </trkpt>
      <trkpt lat="46.14328" lon="5.53685">
        <ele>639.2</ele>
        <time>2020-05-24T11:03:34Z</time>
      </trkpt>
      <trkpt lat="46.14321" lon="5.53684">
        <ele>639.1</ele>
        <time>2020-05-24T11:03:36Z</time>
      </trkpt>
      <trkpt lat="46.14314" lon="5.53683">
        <ele>639</ele>
        <time>2020-05-24T11:03:37Z</time>
      </trkpt>
      <trkpt lat="46.14309" lon="5.53681">
        <ele>639.6</ele>
        <time>2020-05-24T11:03:38Z</time>
      </trkpt>
      <trkpt lat="46.14306" lon="5.53678">
        <ele>639.5</ele>
        <time>2020-05-24T11:03:39Z</time>
      </trkpt>
      <trkpt lat="46.143" lon="5.53676">
        <ele>640.1</ele>
        <time>2020-05-24T11:03:41Z</time>
      </trkpt>
      <trkpt lat="46.14298" lon="5.53675">
        <ele>639.9</ele>
        <time>2020-05-24T11:03:42Z</time>
      </trkpt>
      <trkpt lat="46.14296" lon="5.53674">
        <ele>639.8</ele>
        <time>2020-05-24T11:03:44Z</time>
      </trkpt>
      <trkpt lat="46.14295" lon="5.53673">
        <ele>639.8</ele>
        <time>2020-05-24T11:03:45Z</time>
      </trkpt>
      <trkpt lat="46.14293" lon="5.53672">
        <ele>639.7</ele>
        <time>2020-05-24T11:03:47Z</time>
      </trkpt>
      <trkpt lat="46.14292" lon="5.53672">
        <ele>640.3</ele>
        <time>2020-05-24T11:03:48Z</time>
      </trkpt>
      <trkpt lat="46.1429" lon="5.5367">
        <ele>640.2</ele>
        <time>2020-05-24T11:03:50Z</time>
      </trkpt>
      <trkpt lat="46.14289" lon="5.5367">
        <ele>640.2</ele>
        <time>2020-05-24T11:03:52Z</time>
      </trkpt>
      <trkpt lat="46.14289" lon="5.5367">
        <ele>640.2</ele>
        <time>2020-05-24T11:03:53Z</time>
      </trkpt>
      <trkpt lat="46.14288" lon="5.53669">
        <ele>640</ele>
        <time>2020-05-24T11:03:55Z</time>
      </trkpt>
      <trkpt lat="46.14286" lon="5.53668">
        <ele>640</ele>
        <time>2020-05-24T11:03:57Z</time>
      </trkpt>
      <trkpt lat="46.14285" lon="5.53668">
        <ele>640.6</ele>
        <time>2020-05-24T11:03:58Z</time>
      </trkpt>
      <trkpt lat="46.14284" lon="5.53667">
        <ele>640.6</ele>
        <time>2020-05-24T11:04:00Z</time>
      </trkpt>
      <trkpt lat="46.14282" lon="5.53667">
        <ele>640.4</ele>
        <time>2020-05-24T11:04:02Z</time>
      </trkpt>
      <trkpt lat="46.14279" lon="5.53665">
        <ele>640.3</ele>
        <time>2020-05-24T11:04:03Z</time>
      </trkpt>
      <trkpt lat="46.14277" lon="5.53663">
        <ele>641</ele>
        <time>2020-05-24T11:04:04Z</time>
      </trkpt>
      <trkpt lat="46.14274" lon="5.53662">
        <ele>640.9</ele>
        <time>2020-05-24T11:04:05Z</time>
      </trkpt>
      <trkpt lat="46.14273" lon="5.53662">
        <ele>640.7</ele>
        <time>2020-05-24T11:04:07Z</time>
      </trkpt>
      <trkpt lat="46.14272" lon="5.53662">
        <ele>640.7</ele>
        <time>2020-05-24T11:04:09Z</time>
      </trkpt>
      <trkpt lat="46.14271" lon="5.53664">
        <ele>640.7</ele>
        <time>2020-05-24T11:04:11Z</time>
      </trkpt>
      <trkpt lat="46.14271" lon="5.53664">
        <ele>640.7</ele>
        <time>2020-05-24T11:04:13Z</time>
      </trkpt>
      <trkpt lat="46.1427" lon="5.53662">
        <ele>640.5</ele>
        <time>2020-05-24T11:04:14Z</time>
      </trkpt>
      <trkpt lat="46.14269" lon="5.5366">
        <ele>640.5</ele>
        <time>2020-05-24T11:04:15Z</time>
      </trkpt>
      <trkpt lat="46.14266" lon="5.5366">
        <ele>640.4</ele>
        <time>2020-05-24T11:04:17Z</time>
      </trkpt>
      <trkpt lat="46.14262" lon="5.53661">
        <ele>640.3</ele>
        <time>2020-05-24T11:04:19Z</time>
      </trkpt>
      <trkpt lat="46.14259" lon="5.53663">
        <ele>640.2</ele>
        <time>2020-05-24T11:04:20Z</time>
      </trkpt>
      <trkpt lat="46.14257" lon="5.53664">
        <ele>640.2</ele>
        <time>2020-05-24T11:04:21Z</time>
      </trkpt>
      <trkpt lat="46.14252" lon="5.53664">
        <ele>640.1</ele>
        <time>2020-05-24T11:04:23Z</time>
      </trkpt>
      <trkpt lat="46.14247" lon="5.53662">
        <ele>640</ele>
        <time>2020-05-24T11:04:24Z</time>
      </trkpt>
      <trkpt lat="46.14242" lon="5.53661">
        <ele>639.9</ele>
        <time>2020-05-24T11:04:26Z</time>
      </trkpt>
      <trkpt lat="46.14236" lon="5.5366">
        <ele>639.8</ele>
        <time>2020-05-24T11:04:27Z</time>
      </trkpt>
      <trkpt lat="46.14232" lon="5.53658">
        <ele>640.6</ele>
        <time>2020-05-24T11:04:28Z</time>
      </trkpt>
      <trkpt lat="46.14225" lon="5.53657">
        <ele>640.2</ele>
        <time>2020-05-24T11:04:30Z</time>
      </trkpt>
      <trkpt lat="46.14218" lon="5.53655">
        <ele>640.6</ele>
        <time>2020-05-24T11:04:32Z</time>
      </trkpt>
      <trkpt lat="46.14213" lon="5.53655">
        <ele>640.2</ele>
        <time>2020-05-24T11:04:33Z</time>
      </trkpt>
      <trkpt lat="46.14204" lon="5.53655">
        <ele>639.6</ele>
        <time>2020-05-24T11:04:35Z</time>
      </trkpt>
      <trkpt lat="46.14198" lon="5.53656">
        <ele>638.6</ele>
        <time>2020-05-24T11:04:36Z</time>
      </trkpt>
      <trkpt lat="46.14192" lon="5.53657">
        <ele>638.1</ele>
        <time>2020-05-24T11:04:38Z</time>
      </trkpt>
      <trkpt lat="46.14188" lon="5.5366">
        <ele>637.2</ele>
        <time>2020-05-24T11:04:39Z</time>
      </trkpt>
      <trkpt lat="46.14187" lon="5.5366">
        <ele>636.9</ele>
        <time>2020-05-24T11:04:40Z</time>
      </trkpt>
      <trkpt lat="46.1418" lon="5.53666">
        <ele>635.8</ele>
        <time>2020-05-24T11:04:42Z</time>
      </trkpt>
      <trkpt lat="46.14176" lon="5.5367">
        <ele>634.9</ele>
        <time>2020-05-24T11:04:43Z</time>
      </trkpt>
      <trkpt lat="46.1417" lon="5.53677">
        <ele>633.3</ele>
        <time>2020-05-24T11:04:45Z</time>
      </trkpt>
      <trkpt lat="46.14165" lon="5.53682">
        <ele>632.4</ele>
        <time>2020-05-24T11:04:46Z</time>
      </trkpt>
      <trkpt lat="46.14161" lon="5.53687">
        <ele>631.6</ele>
        <time>2020-05-24T11:04:47Z</time>
      </trkpt>
      <trkpt lat="46.1416" lon="5.53701">
        <ele>628.9</ele>
        <time>2020-05-24T11:04:49Z</time>
      </trkpt>
      <trkpt lat="46.1417" lon="5.53716">
        <ele>624.7</ele>
        <time>2020-05-24T11:04:51Z</time>
      </trkpt>
      <trkpt lat="46.14176" lon="5.53723">
        <ele>623.8</ele>
        <time>2020-05-24T11:04:52Z</time>
      </trkpt>
      <trkpt lat="46.14188" lon="5.53736">
        <ele>621.1</ele>
        <time>2020-05-24T11:04:54Z</time>
      </trkpt>
      <trkpt lat="46.14199" lon="5.53749">
        <ele>618.3</ele>
        <time>2020-05-24T11:04:56Z</time>
      </trkpt>
      <trkpt lat="46.14202" lon="5.53754">
        <ele>616.3</ele>
        <time>2020-05-24T11:04:57Z</time>
      </trkpt>
      <trkpt lat="46.14203" lon="5.53757">
        <ele>616.4</ele>
        <time>2020-05-24T11:04:58Z</time>
      </trkpt>
      <trkpt lat="46.14206" lon="5.53767">
        <ele>614.3</ele>
        <time>2020-05-24T11:04:59Z</time>
      </trkpt>
      <trkpt lat="46.1421" lon="5.53777">
        <ele>610.6</ele>
        <time>2020-05-24T11:05:01Z</time>
      </trkpt>
      <trkpt lat="46.14212" lon="5.53784">
        <ele>609.3</ele>
        <time>2020-05-24T11:05:02Z</time>
      </trkpt>
      <trkpt lat="46.14224" lon="5.53795">
        <ele>606.3</ele>
        <time>2020-05-24T11:05:04Z</time>
      </trkpt>
      <trkpt lat="46.14235" lon="5.53809">
        <ele>603.6</ele>
        <time>2020-05-24T11:05:06Z</time>
      </trkpt>
      <trkpt lat="46.14239" lon="5.53813">
        <ele>602.6</ele>
        <time>2020-05-24T11:05:07Z</time>
      </trkpt>
      <trkpt lat="46.14242" lon="5.53816">
        <ele>601.6</ele>
        <time>2020-05-24T11:05:08Z</time>
      </trkpt>
      <trkpt lat="46.14248" lon="5.53821">
        <ele>601</ele>
        <time>2020-05-24T11:05:09Z</time>
      </trkpt>
      <trkpt lat="46.14261" lon="5.53827">
        <ele>601.1</ele>
        <time>2020-05-24T11:05:11Z</time>
      </trkpt>
      <trkpt lat="46.14269" lon="5.5383">
        <ele>600.6</ele>
        <time>2020-05-24T11:05:12Z</time>
      </trkpt>
      <trkpt lat="46.14282" lon="5.53839">
        <ele>598.9</ele>
        <time>2020-05-24T11:05:14Z</time>
      </trkpt>
      <trkpt lat="46.14288" lon="5.53844">
        <ele>596.9</ele>
        <time>2020-05-24T11:05:15Z</time>
      </trkpt>
      <trkpt lat="46.14294" lon="5.53849">
        <ele>596.2</ele>
        <time>2020-05-24T11:05:16Z</time>
      </trkpt>
      <trkpt lat="46.14305" lon="5.53857">
        <ele>596.2</ele>
        <time>2020-05-24T11:05:18Z</time>
      </trkpt>
      <trkpt lat="46.14316" lon="5.53864">
        <ele>594.7</ele>
        <time>2020-05-24T11:05:20Z</time>
      </trkpt>
      <trkpt lat="46.14328" lon="5.53873">
        <ele>592.8</ele>
        <time>2020-05-24T11:05:22Z</time>
      </trkpt>
      <trkpt lat="46.14333" lon="5.53876">
        <ele>592</ele>
        <time>2020-05-24T11:05:23Z</time>
      </trkpt>
      <trkpt lat="46.14345" lon="5.53883">
        <ele>590.3</ele>
        <time>2020-05-24T11:05:25Z</time>
      </trkpt>
      <trkpt lat="46.14351" lon="5.53887">
        <ele>590</ele>
        <time>2020-05-24T11:05:26Z</time>
      </trkpt>
      <trkpt lat="46.14365" lon="5.53897">
        <ele>588.7</ele>
        <time>2020-05-24T11:05:28Z</time>
      </trkpt>
      <trkpt lat="46.14381" lon="5.53909">
        <ele>585.4</ele>
        <time>2020-05-24T11:05:30Z</time>
      </trkpt>
      <trkpt lat="46.1439" lon="5.53915">
        <ele>584.1</ele>
        <time>2020-05-24T11:05:31Z</time>
      </trkpt>
      <trkpt lat="46.14398" lon="5.5392">
        <ele>582.8</ele>
        <time>2020-05-24T11:05:32Z</time>
      </trkpt>
      <trkpt lat="46.14404" lon="5.53925">
        <ele>581.5</ele>
        <time>2020-05-24T11:05:33Z</time>
      </trkpt>
      <trkpt lat="46.14415" lon="5.53932">
        <ele>579.4</ele>
        <time>2020-05-24T11:05:35Z</time>
      </trkpt>
      <trkpt lat="46.14428" lon="5.53939">
        <ele>577.8</ele>
        <time>2020-05-24T11:05:37Z</time>
      </trkpt>
      <trkpt lat="46.14439" lon="5.53946">
        <ele>577.3</ele>
        <time>2020-05-24T11:05:39Z</time>
      </trkpt>
      <trkpt lat="46.14449" lon="5.5395">
        <ele>576.7</ele>
        <time>2020-05-24T11:05:41Z</time>
      </trkpt>
      <trkpt lat="46.14457" lon="5.53953">
        <ele>576</ele>
        <time>2020-05-24T11:05:42Z</time>
      </trkpt>
      <trkpt lat="46.14468" lon="5.53958">
        <ele>575.6</ele>
        <time>2020-05-24T11:05:44Z</time>
      </trkpt>
      <trkpt lat="46.14475" lon="5.5396">
        <ele>576</ele>
        <time>2020-05-24T11:05:46Z</time>
      </trkpt>
      <trkpt lat="46.14479" lon="5.5396">
        <ele>575.2</ele>
        <time>2020-05-24T11:05:47Z</time>
      </trkpt>
      <trkpt lat="46.14485" lon="5.53966">
        <ele>574.5</ele>
        <time>2020-05-24T11:05:49Z</time>
      </trkpt>
      <trkpt lat="46.1449" lon="5.5397">
        <ele>573.5</ele>
        <time>2020-05-24T11:05:50Z</time>
      </trkpt>
      <trkpt lat="46.14495" lon="5.53974">
        <ele>572.9</ele>
        <time>2020-05-24T11:05:51Z</time>
      </trkpt>
      <trkpt lat="46.14504" lon="5.5398">
        <ele>572.3</ele>
        <time>2020-05-24T11:05:53Z</time>
      </trkpt>
      <trkpt lat="46.14513" lon="5.53986">
        <ele>570.7</ele>
        <time>2020-05-24T11:05:54Z</time>
      </trkpt>
      <trkpt lat="46.14521" lon="5.53992">
        <ele>570</ele>
        <time>2020-05-24T11:05:56Z</time>
      </trkpt>
      <trkpt lat="46.14527" lon="5.53996">
        <ele>569.3</ele>
        <time>2020-05-24T11:05:57Z</time>
      </trkpt>
      <trkpt lat="46.14532" lon="5.54002">
        <ele>568.4</ele>
        <time>2020-05-24T11:05:58Z</time>
      </trkpt>
      <trkpt lat="46.14539" lon="5.54012">
        <ele>565.7</ele>
        <time>2020-05-24T11:06:00Z</time>
      </trkpt>
      <trkpt lat="46.14546" lon="5.54019">
        <ele>564.8</ele>
        <time>2020-05-24T11:06:01Z</time>
      </trkpt>
      <trkpt lat="46.14558" lon="5.54032">
        <ele>561.9</ele>
        <time>2020-05-24T11:06:03Z</time>
      </trkpt>
      <trkpt lat="46.14566" lon="5.54038">
        <ele>559.8</ele>
        <time>2020-05-24T11:06:04Z</time>
      </trkpt>
      <trkpt lat="46.14573" lon="5.54045">
        <ele>558.7</ele>
        <time>2020-05-24T11:06:05Z</time>
      </trkpt>
      <trkpt lat="46.1458" lon="5.5405">
        <ele>556.5</ele>
        <time>2020-05-24T11:06:06Z</time>
      </trkpt>
      <trkpt lat="46.14593" lon="5.5406">
        <ele>554.5</ele>
        <time>2020-05-24T11:06:08Z</time>
      </trkpt>
      <trkpt lat="46.14599" lon="5.54065">
        <ele>553.7</ele>
        <time>2020-05-24T11:06:09Z</time>
      </trkpt>
      <trkpt lat="46.14606" lon="5.5407">
        <ele>552.9</ele>
        <time>2020-05-24T11:06:10Z</time>
      </trkpt>
      <trkpt lat="46.14621" lon="5.54083">
        <ele>551</ele>
        <time>2020-05-24T11:06:12Z</time>
      </trkpt>
      <trkpt lat="46.14628" lon="5.54091">
        <ele>549.5</ele>
        <time>2020-05-24T11:06:13Z</time>
      </trkpt>
      <trkpt lat="46.14635" lon="5.54099">
        <ele>547.7</ele>
        <time>2020-05-24T11:06:14Z</time>
      </trkpt>
      <trkpt lat="46.14647" lon="5.54115">
        <ele>545.2</ele>
        <time>2020-05-24T11:06:16Z</time>
      </trkpt>
      <trkpt lat="46.14658" lon="5.5413">
        <ele>546.6</ele>
        <time>2020-05-24T11:06:18Z</time>
      </trkpt>
      <trkpt lat="46.14669" lon="5.54146">
        <ele>547.8</ele>
        <time>2020-05-24T11:06:20Z</time>
      </trkpt>
      <trkpt lat="46.14674" lon="5.54155">
        <ele>548.4</ele>
        <time>2020-05-24T11:06:21Z</time>
      </trkpt>
      <trkpt lat="46.14684" lon="5.54172">
        <ele>550</ele>
        <time>2020-05-24T11:06:23Z</time>
      </trkpt>
      <trkpt lat="46.14691" lon="5.5418">
        <ele>550.9</ele>
        <time>2020-05-24T11:06:24Z</time>
      </trkpt>
      <trkpt lat="46.14697" lon="5.54188">
        <ele>552</ele>
        <time>2020-05-24T11:06:25Z</time>
      </trkpt>
      <trkpt lat="46.14704" lon="5.54196">
        <ele>552.9</ele>
        <time>2020-05-24T11:06:26Z</time>
      </trkpt>
      <trkpt lat="46.1471" lon="5.54203">
        <ele>553.7</ele>
        <time>2020-05-24T11:06:27Z</time>
      </trkpt>
      <trkpt lat="46.14719" lon="5.54213">
        <ele>554.7</ele>
        <time>2020-05-24T11:06:29Z</time>
      </trkpt>
      <trkpt lat="46.14726" lon="5.54219">
        <ele>555.3</ele>
        <time>2020-05-24T11:06:31Z</time>
      </trkpt>
      <trkpt lat="46.14728" lon="5.5422">
        <ele>555.5</ele>
        <time>2020-05-24T11:06:32Z</time>
      </trkpt>
      <trkpt lat="46.14732" lon="5.54225">
        <ele>556</ele>
        <time>2020-05-24T11:06:34Z</time>
      </trkpt>
      <trkpt lat="46.14733" lon="5.54226">
        <ele>556.1</ele>
        <time>2020-05-24T11:06:36Z</time>
      </trkpt>
      <trkpt lat="46.14733" lon="5.54226">
        <ele>556.1</ele>
        <time>2020-05-24T11:06:37Z</time>
      </trkpt>
      <trkpt lat="46.14734" lon="5.54226">
        <ele>556.2</ele>
        <time>2020-05-24T11:06:39Z</time>
      </trkpt>
      <trkpt lat="46.14734" lon="5.54227">
        <ele>556.2</ele>
        <time>2020-05-24T11:06:41Z</time>
      </trkpt>
      <trkpt lat="46.14734" lon="5.54227">
        <ele>556.2</ele>
        <time>2020-05-24T11:06:42Z</time>
      </trkpt>
      <trkpt lat="46.14734" lon="5.54227">
        <ele>556.3</ele>
        <time>2020-05-24T11:06:44Z</time>
      </trkpt>
      <trkpt lat="46.14735" lon="5.54227">
        <ele>556.3</ele>
        <time>2020-05-24T11:06:44Z</time>
      </trkpt>
      <trkpt lat="46.14735" lon="5.54228">
        <ele>556.3</ele>
        <time>2020-05-24T11:06:45Z</time>
      </trkpt>
      <trkpt lat="46.14737" lon="5.54229">
        <ele>556.5</ele>
        <time>2020-05-24T11:06:48Z</time>
      </trkpt>
      <trkpt lat="46.14737" lon="5.54229">
        <ele>556.5</ele>
        <time>2020-05-24T11:06:49Z</time>
      </trkpt>
      <trkpt lat="46.14737" lon="5.5423">
        <ele>556.5</ele>
        <time>2020-05-24T11:06:51Z</time>
      </trkpt>
      <trkpt lat="46.14738" lon="5.5423">
        <ele>556.6</ele>
        <time>2020-05-24T11:06:53Z</time>
      </trkpt>
      <trkpt lat="46.14738" lon="5.5423">
        <ele>556.6</ele>
        <time>2020-05-24T11:06:54Z</time>
      </trkpt>
      <trkpt lat="46.14741" lon="5.54234">
        <ele>557.1</ele>
        <time>2020-05-24T11:06:56Z</time>
      </trkpt>
      <trkpt lat="46.14743" lon="5.54237">
        <ele>556.9</ele>
        <time>2020-05-24T11:06:58Z</time>
      </trkpt>
      <trkpt lat="46.14742" lon="5.54237">
        <ele>556.8</ele>
        <time>2020-05-24T11:07:00Z</time>
      </trkpt>
      <trkpt lat="46.14742" lon="5.54238">
        <ele>556.8</ele>
        <time>2020-05-24T11:07:01Z</time>
      </trkpt>
      <trkpt lat="46.14741" lon="5.54238">
        <ele>556.7</ele>
        <time>2020-05-24T11:07:03Z</time>
      </trkpt>
      <trkpt lat="46.14741" lon="5.54239">
        <ele>556.7</ele>
        <time>2020-05-24T11:07:05Z</time>
      </trkpt>
      <trkpt lat="46.1474" lon="5.5424">
        <ele>556.6</ele>
        <time>2020-05-24T11:07:06Z</time>
      </trkpt>
      <trkpt lat="46.1474" lon="5.5424">
        <ele>556.6</ele>
        <time>2020-05-24T11:07:07Z</time>
      </trkpt>
      <trkpt lat="46.14739" lon="5.54241">
        <ele>556.5</ele>
        <time>2020-05-24T11:07:09Z</time>
      </trkpt>
      <trkpt lat="46.14739" lon="5.54242">
        <ele>556.5</ele>
        <time>2020-05-24T11:08:09Z</time>
      </trkpt>
      <trkpt lat="46.14738" lon="5.54242">
        <ele>556.4</ele>
        <time>2020-05-24T11:08:10Z</time>
      </trkpt>
      <trkpt lat="46.14729" lon="5.54241">
        <ele>555.6</ele>
        <time>2020-05-24T11:08:12Z</time>
      </trkpt>
      <trkpt lat="46.14717" lon="5.54235">
        <ele>554.5</ele>
        <time>2020-05-24T11:08:14Z</time>
      </trkpt>
      <trkpt lat="46.14704" lon="5.54226">
        <ele>553.2</ele>
        <time>2020-05-24T11:08:16Z</time>
      </trkpt>
      <trkpt lat="46.14698" lon="5.54221">
        <ele>552.5</ele>
        <time>2020-05-24T11:08:17Z</time>
      </trkpt>
      <trkpt lat="46.14686" lon="5.54209">
        <ele>550.8</ele>
        <time>2020-05-24T11:08:19Z</time>
      </trkpt>
      <trkpt lat="46.14674" lon="5.54196">
        <ele>549.2</ele>
        <time>2020-05-24T11:08:21Z</time>
      </trkpt>
      <trkpt lat="46.14661" lon="5.5418">
        <ele>547.6</ele>
        <time>2020-05-24T11:08:23Z</time>
      </trkpt>
      <trkpt lat="46.14653" lon="5.54172">
        <ele>546.9</ele>
        <time>2020-05-24T11:08:24Z</time>
      </trkpt>
      <trkpt lat="46.14637" lon="5.54159">
        <ele>545.4</ele>
        <time>2020-05-24T11:08:26Z</time>
      </trkpt>
      <trkpt lat="46.14629" lon="5.54154">
        <ele>544.6</ele>
        <time>2020-05-24T11:08:27Z</time>
      </trkpt>
      <trkpt lat="46.14617" lon="5.54148">
        <ele>543.4</ele>
        <time>2020-05-24T11:08:29Z</time>
      </trkpt>
      <trkpt lat="46.14615" lon="5.5415">
        <ele>543.1</ele>
        <time>2020-05-24T11:08:31Z</time>
      </trkpt>
      <trkpt lat="46.14615" lon="5.54155">
        <ele>542.8</ele>
        <time>2020-05-24T11:08:32Z</time>
      </trkpt>
      <trkpt lat="46.14617" lon="5.54164">
        <ele>542</ele>
        <time>2020-05-24T11:08:34Z</time>
      </trkpt>
      <trkpt lat="46.14621" lon="5.54169">
        <ele>541.4</ele>
        <time>2020-05-24T11:08:35Z</time>
      </trkpt>
      <trkpt lat="46.14631" lon="5.5418">
        <ele>540.1</ele>
        <time>2020-05-24T11:08:37Z</time>
      </trkpt>
      <trkpt lat="46.14636" lon="5.54184">
        <ele>539.6</ele>
        <time>2020-05-24T11:08:38Z</time>
      </trkpt>
      <trkpt lat="46.14645" lon="5.542">
        <ele>537.9</ele>
        <time>2020-05-24T11:08:40Z</time>
      </trkpt>
      <trkpt lat="46.14655" lon="5.54222">
        <ele>535.6</ele>
        <time>2020-05-24T11:08:42Z</time>
      </trkpt>
      <trkpt lat="46.14663" lon="5.54244">
        <ele>533.5</ele>
        <time>2020-05-24T11:08:44Z</time>
      </trkpt>
      <trkpt lat="46.14667" lon="5.54254">
        <ele>532.6</ele>
        <time>2020-05-24T11:08:45Z</time>
      </trkpt>
      <trkpt lat="46.14674" lon="5.54272">
        <ele>530.8</ele>
        <time>2020-05-24T11:08:47Z</time>
      </trkpt>
      <trkpt lat="46.14677" lon="5.5428">
        <ele>530.2</ele>
        <time>2020-05-24T11:08:48Z</time>
      </trkpt>
      <trkpt lat="46.1468" lon="5.54296">
        <ele>529</ele>
        <time>2020-05-24T11:08:50Z</time>
      </trkpt>
      <trkpt lat="46.14683" lon="5.54315">
        <ele>527.5</ele>
        <time>2020-05-24T11:08:52Z</time>
      </trkpt>
      <trkpt lat="46.14683" lon="5.54325">
        <ele>526.7</ele>
        <time>2020-05-24T11:08:53Z</time>
      </trkpt>
      <trkpt lat="46.14684" lon="5.54353">
        <ele>521.3</ele>
        <time>2020-05-24T11:08:55Z</time>
      </trkpt>
      <trkpt lat="46.14683" lon="5.54367">
        <ele>518.6</ele>
        <time>2020-05-24T11:08:56Z</time>
      </trkpt>
      <trkpt lat="46.14683" lon="5.54379">
        <ele>516.2</ele>
        <time>2020-05-24T11:08:57Z</time>
      </trkpt>
      <trkpt lat="46.14684" lon="5.54402">
        <ele>513.5</ele>
        <time>2020-05-24T11:08:59Z</time>
      </trkpt>
      <trkpt lat="46.14688" lon="5.54411">
        <ele>512.3</ele>
        <time>2020-05-24T11:09:00Z</time>
      </trkpt>
      <trkpt lat="46.14699" lon="5.54428">
        <ele>512.1</ele>
        <time>2020-05-24T11:09:02Z</time>
      </trkpt>
      <trkpt lat="46.14704" lon="5.54435">
        <ele>511.6</ele>
        <time>2020-05-24T11:09:03Z</time>
      </trkpt>
      <trkpt lat="46.14716" lon="5.54449">
        <ele>510.4</ele>
        <time>2020-05-24T11:09:05Z</time>
      </trkpt>
      <trkpt lat="46.14722" lon="5.54456">
        <ele>509.7</ele>
        <time>2020-05-24T11:09:06Z</time>
      </trkpt>
      <trkpt lat="46.14734" lon="5.5447">
        <ele>508.5</ele>
        <time>2020-05-24T11:09:08Z</time>
      </trkpt>
      <trkpt lat="46.14741" lon="5.5448">
        <ele>508</ele>
        <time>2020-05-24T11:09:10Z</time>
      </trkpt>
      <trkpt lat="46.14741" lon="5.54487">
        <ele>508.4</ele>
        <time>2020-05-24T11:09:12Z</time>
      </trkpt>
      <trkpt lat="46.14737" lon="5.54494">
        <ele>508.8</ele>
        <time>2020-05-24T11:09:14Z</time>
      </trkpt>
      <trkpt lat="46.1473" lon="5.545">
        <ele>509.3</ele>
        <time>2020-05-24T11:09:16Z</time>
      </trkpt>
      <trkpt lat="46.14724" lon="5.54501">
        <ele>509.7</ele>
        <time>2020-05-24T11:09:18Z</time>
      </trkpt>
      <trkpt lat="46.14721" lon="5.54502">
        <ele>510</ele>
        <time>2020-05-24T11:09:19Z</time>
      </trkpt>
      <trkpt lat="46.14717" lon="5.54501">
        <ele>510.2</ele>
        <time>2020-05-24T11:09:21Z</time>
      </trkpt>
      <trkpt lat="46.14714" lon="5.54499">
        <ele>510.4</ele>
        <time>2020-05-24T11:09:22Z</time>
      </trkpt>
      <trkpt lat="46.14712" lon="5.54497">
        <ele>510.6</ele>
        <time>2020-05-24T11:09:23Z</time>
      </trkpt>
      <trkpt lat="46.14709" lon="5.54493">
        <ele>510.8</ele>
        <time>2020-05-24T11:09:25Z</time>
      </trkpt>
      <trkpt lat="46.14706" lon="5.54491">
        <ele>511</ele>
        <time>2020-05-24T11:09:26Z</time>
      </trkpt>
      <trkpt lat="46.14703" lon="5.54488">
        <ele>511.3</ele>
        <time>2020-05-24T11:09:27Z</time>
      </trkpt>
      <trkpt lat="46.147" lon="5.54486">
        <ele>511.4</ele>
        <time>2020-05-24T11:09:28Z</time>
      </trkpt>
      <trkpt lat="46.14699" lon="5.54485">
        <ele>511.5</ele>
        <time>2020-05-24T11:09:29Z</time>
      </trkpt>
      <trkpt lat="46.14697" lon="5.54483">
        <ele>511.6</ele>
        <time>2020-05-24T11:09:31Z</time>
      </trkpt>
      <trkpt lat="46.14696" lon="5.54481">
        <ele>511.7</ele>
        <time>2020-05-24T11:09:32Z</time>
      </trkpt>
      <trkpt lat="46.14693" lon="5.54476">
        <ele>512</ele>
        <time>2020-05-24T11:09:35Z</time>
      </trkpt>
      <trkpt lat="46.14691" lon="5.54473">
        <ele>512.1</ele>
        <time>2020-05-24T11:09:36Z</time>
      </trkpt>
      <trkpt lat="46.1469" lon="5.54471">
        <ele>512.1</ele>
        <time>2020-05-24T11:09:37Z</time>
      </trkpt>
      <trkpt lat="46.14687" lon="5.54466">
        <ele>512.3</ele>
        <time>2020-05-24T11:09:39Z</time>
      </trkpt>
      <trkpt lat="46.14685" lon="5.54463">
        <ele>512.3</ele>
        <time>2020-05-24T11:09:40Z</time>
      </trkpt>
      <trkpt lat="46.14682" lon="5.54458">
        <ele>512.4</ele>
        <time>2020-05-24T11:09:41Z</time>
      </trkpt>
      <trkpt lat="46.14679" lon="5.54455">
        <ele>512.4</ele>
        <time>2020-05-24T11:09:42Z</time>
      </trkpt>
      <trkpt lat="46.14677" lon="5.54451">
        <ele>512.3</ele>
        <time>2020-05-24T11:09:44Z</time>
      </trkpt>
      <trkpt lat="46.14676" lon="5.5445">
        <ele>512.3</ele>
        <time>2020-05-24T11:09:45Z</time>
      </trkpt>
      <trkpt lat="46.14673" lon="5.54445">
        <ele>512.2</ele>
        <time>2020-05-24T11:09:47Z</time>
      </trkpt>
      <trkpt lat="46.14673" lon="5.54445">
        <ele>512.2</ele>
        <time>2020-05-24T11:09:48Z</time>
      </trkpt>
      <trkpt lat="46.14672" lon="5.54444">
        <ele>512.1</ele>
        <time>2020-05-24T11:09:49Z</time>
      </trkpt>
      <trkpt lat="46.14671" lon="5.54443">
        <ele>512.1</ele>
        <time>2020-05-24T11:09:51Z</time>
      </trkpt>
      <trkpt lat="46.1467" lon="5.54441">
        <ele>512</ele>
        <time>2020-05-24T11:09:52Z</time>
      </trkpt>
      <trkpt lat="46.14669" lon="5.5444">
        <ele>512</ele>
        <time>2020-05-24T11:09:53Z</time>
      </trkpt>
      <trkpt lat="46.14666" lon="5.54437">
        <ele>511.7</ele>
        <time>2020-05-24T11:09:55Z</time>
      </trkpt>
      <trkpt lat="46.14665" lon="5.54436">
        <ele>511.7</ele>
        <time>2020-05-24T11:09:56Z</time>
      </trkpt>
      <trkpt lat="46.14662" lon="5.54434">
        <ele>511.5</ele>
        <time>2020-05-24T11:09:57Z</time>
      </trkpt>
      <trkpt lat="46.14658" lon="5.54432">
        <ele>511.1</ele>
        <time>2020-05-24T11:09:59Z</time>
      </trkpt>
      <trkpt lat="46.14653" lon="5.54429">
        <ele>510.6</ele>
        <time>2020-05-24T11:10:00Z</time>
      </trkpt>
      <trkpt lat="46.14642" lon="5.54422">
        <ele>509.3</ele>
        <time>2020-05-24T11:10:02Z</time>
      </trkpt>
      <trkpt lat="46.14635" lon="5.54418">
        <ele>508.5</ele>
        <time>2020-05-24T11:10:03Z</time>
      </trkpt>
      <trkpt lat="46.14622" lon="5.54407">
        <ele>507</ele>
        <time>2020-05-24T11:10:05Z</time>
      </trkpt>
      <trkpt lat="46.14615" lon="5.54399">
        <ele>506.3</ele>
        <time>2020-05-24T11:10:06Z</time>
      </trkpt>
      <trkpt lat="46.14602" lon="5.54379">
        <ele>505.1</ele>
        <time>2020-05-24T11:10:08Z</time>
      </trkpt>
      <trkpt lat="46.14596" lon="5.54368">
        <ele>504.6</ele>
        <time>2020-05-24T11:10:09Z</time>
      </trkpt>
      <trkpt lat="46.14587" lon="5.54346">
        <ele>503.9</ele>
        <time>2020-05-24T11:10:11Z</time>
      </trkpt>
      <trkpt lat="46.14577" lon="5.54324">
        <ele>503.8</ele>
        <time>2020-05-24T11:10:13Z</time>
      </trkpt>
      <trkpt lat="46.14572" lon="5.54314">
        <ele>503.9</ele>
        <time>2020-05-24T11:10:14Z</time>
      </trkpt>
      <trkpt lat="46.14563" lon="5.54295">
        <ele>504.4</ele>
        <time>2020-05-24T11:10:16Z</time>
      </trkpt>
      <trkpt lat="46.1456" lon="5.54288">
        <ele>504.6</ele>
        <time>2020-05-24T11:10:17Z</time>
      </trkpt>
      <trkpt lat="46.14552" lon="5.54277">
        <ele>504.9</ele>
        <time>2020-05-24T11:10:19Z</time>
      </trkpt>
      <trkpt lat="46.14548" lon="5.54273">
        <ele>505</ele>
        <time>2020-05-24T11:10:20Z</time>
      </trkpt>
      <trkpt lat="46.14542" lon="5.54271">
        <ele>505</ele>
        <time>2020-05-24T11:10:22Z</time>
      </trkpt>
      <trkpt lat="46.14537" lon="5.54272">
        <ele>504.9</ele>
        <time>2020-05-24T11:10:24Z</time>
      </trkpt>
      <trkpt lat="46.14534" lon="5.54276">
        <ele>504.8</ele>
        <time>2020-05-24T11:10:26Z</time>
      </trkpt>
      <trkpt lat="46.14531" lon="5.54281">
        <ele>504.6</ele>
        <time>2020-05-24T11:10:28Z</time>
      </trkpt>
      <trkpt lat="46.14528" lon="5.54288">
        <ele>504.3</ele>
        <time>2020-05-24T11:10:29Z</time>
      </trkpt>
      <trkpt lat="46.14524" lon="5.54296">
        <ele>504</ele>
        <time>2020-05-24T11:10:30Z</time>
      </trkpt>
      <trkpt lat="46.14518" lon="5.5431">
        <ele>503.4</ele>
        <time>2020-05-24T11:10:32Z</time>
      </trkpt>
      <trkpt lat="46.14512" lon="5.54325">
        <ele>502.7</ele>
        <time>2020-05-24T11:10:34Z</time>
      </trkpt>
      <trkpt lat="46.14505" lon="5.54339">
        <ele>502</ele>
        <time>2020-05-24T11:10:36Z</time>
      </trkpt>
      <trkpt lat="46.14496" lon="5.54353">
        <ele>501.3</ele>
        <time>2020-05-24T11:10:38Z</time>
      </trkpt>
      <trkpt lat="46.14493" lon="5.54359">
        <ele>501</ele>
        <time>2020-05-24T11:10:39Z</time>
      </trkpt>
      <trkpt lat="46.14485" lon="5.54373">
        <ele>500</ele>
        <time>2020-05-24T11:10:41Z</time>
      </trkpt>
      <trkpt lat="46.14478" lon="5.5439">
        <ele>498.9</ele>
        <time>2020-05-24T11:10:43Z</time>
      </trkpt>
      <trkpt lat="46.14474" lon="5.54399">
        <ele>498.3</ele>
        <time>2020-05-24T11:10:44Z</time>
      </trkpt>
      <trkpt lat="46.14471" lon="5.54409">
        <ele>497.8</ele>
        <time>2020-05-24T11:10:45Z</time>
      </trkpt>
      <trkpt lat="46.14464" lon="5.54428">
        <ele>496.7</ele>
        <time>2020-05-24T11:10:47Z</time>
      </trkpt>
      <trkpt lat="46.14458" lon="5.54451">
        <ele>495.5</ele>
        <time>2020-05-24T11:10:49Z</time>
      </trkpt>
      <trkpt lat="46.14454" lon="5.54463">
        <ele>494.9</ele>
        <time>2020-05-24T11:10:50Z</time>
      </trkpt>
      <trkpt lat="46.14449" lon="5.54487">
        <ele>494</ele>
        <time>2020-05-24T11:10:52Z</time>
      </trkpt>
      <trkpt lat="46.14446" lon="5.545">
        <ele>493.7</ele>
        <time>2020-05-24T11:10:53Z</time>
      </trkpt>
      <trkpt lat="46.14441" lon="5.54524">
        <ele>493.1</ele>
        <time>2020-05-24T11:10:55Z</time>
      </trkpt>
      <trkpt lat="46.14438" lon="5.54535">
        <ele>492.8</ele>
        <time>2020-05-24T11:10:56Z</time>
      </trkpt>
      <trkpt lat="46.14433" lon="5.54545">
        <ele>492.5</ele>
        <time>2020-05-24T11:10:57Z</time>
      </trkpt>
      <trkpt lat="46.14427" lon="5.54566">
        <ele>492.1</ele>
        <time>2020-05-24T11:10:59Z</time>
      </trkpt>
      <trkpt lat="46.14424" lon="5.54576">
        <ele>491.9</ele>
        <time>2020-05-24T11:11:00Z</time>
      </trkpt>
      <trkpt lat="46.14418" lon="5.54595">
        <ele>491.8</ele>
        <time>2020-05-24T11:11:02Z</time>
      </trkpt>
      <trkpt lat="46.14416" lon="5.54605">
        <ele>491.8</ele>
        <time>2020-05-24T11:11:03Z</time>
      </trkpt>
      <trkpt lat="46.14414" lon="5.54622">
        <ele>491.8</ele>
        <time>2020-05-24T11:11:05Z</time>
      </trkpt>
      <trkpt lat="46.14413" lon="5.54639">
        <ele>491.9</ele>
        <time>2020-05-24T11:11:07Z</time>
      </trkpt>
      <trkpt lat="46.14412" lon="5.54647">
        <ele>491.9</ele>
        <time>2020-05-24T11:11:08Z</time>
      </trkpt>
      <trkpt lat="46.1441" lon="5.54659">
        <ele>492</ele>
        <time>2020-05-24T11:11:10Z</time>
      </trkpt>
      <trkpt lat="46.1441" lon="5.54664">
        <ele>492</ele>
        <time>2020-05-24T11:11:11Z</time>
      </trkpt>
      <trkpt lat="46.14409" lon="5.54677">
        <ele>492.2</ele>
        <time>2020-05-24T11:11:13Z</time>
      </trkpt>
      <trkpt lat="46.14409" lon="5.5469">
        <ele>492.3</ele>
        <time>2020-05-24T11:11:15Z</time>
      </trkpt>
      <trkpt lat="46.14408" lon="5.54702">
        <ele>492.4</ele>
        <time>2020-05-24T11:11:17Z</time>
      </trkpt>
      <trkpt lat="46.14408" lon="5.54711">
        <ele>492.5</ele>
        <time>2020-05-24T11:11:19Z</time>
      </trkpt>
      <trkpt lat="46.14407" lon="5.54718">
        <ele>492.6</ele>
        <time>2020-05-24T11:11:20Z</time>
      </trkpt>
      <trkpt lat="46.14406" lon="5.54724">
        <ele>492.7</ele>
        <time>2020-05-24T11:11:21Z</time>
      </trkpt>
      <trkpt lat="46.14403" lon="5.54735">
        <ele>492.8</ele>
        <time>2020-05-24T11:11:23Z</time>
      </trkpt>
      <trkpt lat="46.144" lon="5.54744">
        <ele>493</ele>
        <time>2020-05-24T11:11:25Z</time>
      </trkpt>
      <trkpt lat="46.14398" lon="5.5475">
        <ele>493.1</ele>
        <time>2020-05-24T11:11:26Z</time>
      </trkpt>
      <trkpt lat="46.14393" lon="5.5476">
        <ele>493.2</ele>
        <time>2020-05-24T11:11:28Z</time>
      </trkpt>
      <trkpt lat="46.14391" lon="5.54766">
        <ele>493.3</ele>
        <time>2020-05-24T11:11:29Z</time>
      </trkpt>
      <trkpt lat="46.14387" lon="5.54773">
        <ele>493.4</ele>
        <time>2020-05-24T11:11:31Z</time>
      </trkpt>
      <trkpt lat="46.14385" lon="5.54778">
        <ele>493.5</ele>
        <time>2020-05-24T11:11:32Z</time>
      </trkpt>
      <trkpt lat="46.14381" lon="5.54786">
        <ele>493.7</ele>
        <time>2020-05-24T11:11:34Z</time>
      </trkpt>
      <trkpt lat="46.14378" lon="5.54789">
        <ele>493.8</ele>
        <time>2020-05-24T11:11:35Z</time>
      </trkpt>
      <trkpt lat="46.14373" lon="5.54796">
        <ele>494</ele>
        <time>2020-05-24T11:11:37Z</time>
      </trkpt>
      <trkpt lat="46.1437" lon="5.54799">
        <ele>494.1</ele>
        <time>2020-05-24T11:11:38Z</time>
      </trkpt>
      <trkpt lat="46.14366" lon="5.54803">
        <ele>494.2</ele>
        <time>2020-05-24T11:11:39Z</time>
      </trkpt>
      <trkpt lat="46.1436" lon="5.54809">
        <ele>495</ele>
        <time>2020-05-24T11:11:41Z</time>
      </trkpt>
      <trkpt lat="46.14357" lon="5.54811">
        <ele>495.1</ele>
        <time>2020-05-24T11:11:42Z</time>
      </trkpt>
      <trkpt lat="46.14351" lon="5.54817">
        <ele>495.4</ele>
        <time>2020-05-24T11:11:44Z</time>
      </trkpt>
      <trkpt lat="46.14348" lon="5.54821">
        <ele>495.6</ele>
        <time>2020-05-24T11:11:46Z</time>
      </trkpt>
      <trkpt lat="46.14344" lon="5.54827">
        <ele>495.9</ele>
        <time>2020-05-24T11:11:47Z</time>
      </trkpt>
      <trkpt lat="46.14342" lon="5.54831">
        <ele>496</ele>
        <time>2020-05-24T11:11:48Z</time>
      </trkpt>
      <trkpt lat="46.1434" lon="5.54838">
        <ele>496.2</ele>
        <time>2020-05-24T11:11:50Z</time>
      </trkpt>
      <trkpt lat="46.14338" lon="5.54842">
        <ele>496.4</ele>
        <time>2020-05-24T11:11:51Z</time>
      </trkpt>
      <trkpt lat="46.14336" lon="5.54848">
        <ele>496.6</ele>
        <time>2020-05-24T11:11:53Z</time>
      </trkpt>
      <trkpt lat="46.14336" lon="5.54851">
        <ele>496.7</ele>
        <time>2020-05-24T11:11:54Z</time>
      </trkpt>
      <trkpt lat="46.14335" lon="5.54856">
        <ele>496.8</ele>
        <time>2020-05-24T11:11:55Z</time>
      </trkpt>
      <trkpt lat="46.14334" lon="5.54862">
        <ele>497</ele>
        <time>2020-05-24T11:11:57Z</time>
      </trkpt>
      <trkpt lat="46.14333" lon="5.54868">
        <ele>497.1</ele>
        <time>2020-05-24T11:11:58Z</time>
      </trkpt>
      <trkpt lat="46.14331" lon="5.54872">
        <ele>497.2</ele>
        <time>2020-05-24T11:11:59Z</time>
      </trkpt>
      <trkpt lat="46.1433" lon="5.54875">
        <ele>497.3</ele>
        <time>2020-05-24T11:12:00Z</time>
      </trkpt>
      <trkpt lat="46.14327" lon="5.54881">
        <ele>497.5</ele>
        <time>2020-05-24T11:12:02Z</time>
      </trkpt>
      <trkpt lat="46.14324" lon="5.54888">
        <ele>497.7</ele>
        <time>2020-05-24T11:12:04Z</time>
      </trkpt>
      <trkpt lat="46.14321" lon="5.54894">
        <ele>497.9</ele>
        <time>2020-05-24T11:12:05Z</time>
      </trkpt>
      <trkpt lat="46.14316" lon="5.54901">
        <ele>498.2</ele>
        <time>2020-05-24T11:12:07Z</time>
      </trkpt>
      <trkpt lat="46.14311" lon="5.54907">
        <ele>498.4</ele>
        <time>2020-05-24T11:12:09Z</time>
      </trkpt>
      <trkpt lat="46.14308" lon="5.54912">
        <ele>498.6</ele>
        <time>2020-05-24T11:12:10Z</time>
      </trkpt>
      <trkpt lat="46.14303" lon="5.54917">
        <ele>498.8</ele>
        <time>2020-05-24T11:12:12Z</time>
      </trkpt>
      <trkpt lat="46.14299" lon="5.54922">
        <ele>499</ele>
        <time>2020-05-24T11:12:14Z</time>
      </trkpt>
      <trkpt lat="46.14296" lon="5.54926">
        <ele>499.3</ele>
        <time>2020-05-24T11:12:15Z</time>
      </trkpt>
      <trkpt lat="46.14294" lon="5.5493">
        <ele>499.4</ele>
        <time>2020-05-24T11:12:16Z</time>
      </trkpt>
      <trkpt lat="46.14293" lon="5.54934">
        <ele>499.6</ele>
        <time>2020-05-24T11:12:17Z</time>
      </trkpt>
      <trkpt lat="46.14292" lon="5.5494">
        <ele>499.8</ele>
        <time>2020-05-24T11:12:19Z</time>
      </trkpt>
      <trkpt lat="46.1429" lon="5.54948">
        <ele>500.2</ele>
        <time>2020-05-24T11:12:21Z</time>
      </trkpt>
      <trkpt lat="46.14289" lon="5.54953">
        <ele>500.4</ele>
        <time>2020-05-24T11:12:22Z</time>
      </trkpt>
      <trkpt lat="46.14288" lon="5.54956">
        <ele>500.5</ele>
        <time>2020-05-24T11:12:23Z</time>
      </trkpt>
      <trkpt lat="46.14287" lon="5.5496">
        <ele>500.7</ele>
        <time>2020-05-24T11:12:25Z</time>
      </trkpt>
      <trkpt lat="46.14287" lon="5.54965">
        <ele>500.9</ele>
        <time>2020-05-24T11:12:27Z</time>
      </trkpt>
      <trkpt lat="46.14286" lon="5.54967">
        <ele>501</ele>
        <time>2020-05-24T11:12:28Z</time>
      </trkpt>
      <trkpt lat="46.14286" lon="5.54974">
        <ele>501.3</ele>
        <time>2020-05-24T11:12:30Z</time>
      </trkpt>
      <trkpt lat="46.14286" lon="5.54976">
        <ele>501.4</ele>
        <time>2020-05-24T11:12:31Z</time>
      </trkpt>
      <trkpt lat="46.14285" lon="5.54979">
        <ele>501.5</ele>
        <time>2020-05-24T11:12:32Z</time>
      </trkpt>
      <trkpt lat="46.14284" lon="5.54985">
        <ele>501.9</ele>
        <time>2020-05-24T11:12:34Z</time>
      </trkpt>
      <trkpt lat="46.14283" lon="5.54988">
        <ele>502</ele>
        <time>2020-05-24T11:12:35Z</time>
      </trkpt>
      <trkpt lat="46.14282" lon="5.5499">
        <ele>502.1</ele>
        <time>2020-05-24T11:12:36Z</time>
      </trkpt>
      <trkpt lat="46.14281" lon="5.54996">
        <ele>502.4</ele>
        <time>2020-05-24T11:12:38Z</time>
      </trkpt>
      <trkpt lat="46.1428" lon="5.55">
        <ele>502.7</ele>
        <time>2020-05-24T11:12:39Z</time>
      </trkpt>
      <trkpt lat="46.14278" lon="5.5501">
        <ele>503.3</ele>
        <time>2020-05-24T11:12:41Z</time>
      </trkpt>
      <trkpt lat="46.14277" lon="5.55016">
        <ele>503.6</ele>
        <time>2020-05-24T11:12:43Z</time>
      </trkpt>
      <trkpt lat="46.14277" lon="5.55018">
        <ele>503.8</ele>
        <time>2020-05-24T11:12:44Z</time>
      </trkpt>
      <trkpt lat="46.14277" lon="5.5502">
        <ele>503.9</ele>
        <time>2020-05-24T11:12:45Z</time>
      </trkpt>
      <trkpt lat="46.14277" lon="5.55022">
        <ele>504.1</ele>
        <time>2020-05-24T11:12:46Z</time>
      </trkpt>
      <trkpt lat="46.14277" lon="5.55026">
        <ele>504.3</ele>
        <time>2020-05-24T11:12:48Z</time>
      </trkpt>
      <trkpt lat="46.14277" lon="5.5503">
        <ele>504.6</ele>
        <time>2020-05-24T11:12:50Z</time>
      </trkpt>
      <trkpt lat="46.14277" lon="5.55035">
        <ele>504.8</ele>
        <time>2020-05-24T11:12:52Z</time>
      </trkpt>
      <trkpt lat="46.14277" lon="5.5504">
        <ele>505.2</ele>
        <time>2020-05-24T11:12:54Z</time>
      </trkpt>
      <trkpt lat="46.14277" lon="5.55041">
        <ele>505.2</ele>
        <time>2020-05-24T11:12:55Z</time>
      </trkpt>
      <trkpt lat="46.14277" lon="5.55043">
        <ele>505.3</ele>
        <time>2020-05-24T11:12:57Z</time>
      </trkpt>
      <trkpt lat="46.14278" lon="5.55055">
        <ele>506</ele>
        <time>2020-05-24T11:12:59Z</time>
      </trkpt>
      <trkpt lat="46.14278" lon="5.55059">
        <ele>506.2</ele>
        <time>2020-05-24T11:13:01Z</time>
      </trkpt>
      <trkpt lat="46.14278" lon="5.55059">
        <ele>506.2</ele>
        <time>2020-05-24T11:13:02Z</time>
      </trkpt>
      <trkpt lat="46.14278" lon="5.55061">
        <ele>506.3</ele>
        <time>2020-05-24T11:13:04Z</time>
      </trkpt>
      <trkpt lat="46.14278" lon="5.55066">
        <ele>506.5</ele>
        <time>2020-05-24T11:13:06Z</time>
      </trkpt>
      <trkpt lat="46.14278" lon="5.55069">
        <ele>506.7</ele>
        <time>2020-05-24T11:13:07Z</time>
      </trkpt>
      <trkpt lat="46.14279" lon="5.55073">
        <ele>506.8</ele>
        <time>2020-05-24T11:13:09Z</time>
      </trkpt>
      <trkpt lat="46.14279" lon="5.55075">
        <ele>506.9</ele>
        <time>2020-05-24T11:13:11Z</time>
      </trkpt>
      <trkpt lat="46.1428" lon="5.55076">
        <ele>506.9</ele>
        <time>2020-05-24T11:13:13Z</time>
      </trkpt>
      <trkpt lat="46.1428" lon="5.55078">
        <ele>507</ele>
        <time>2020-05-24T11:13:15Z</time>
      </trkpt>
      <trkpt lat="46.1428" lon="5.55079">
        <ele>507</ele>
        <time>2020-05-24T11:13:16Z</time>
      </trkpt>
      <trkpt lat="46.1428" lon="5.55081">
        <ele>507.1</ele>
        <time>2020-05-24T11:13:18Z</time>
      </trkpt>
      <trkpt lat="46.1428" lon="5.55082">
        <ele>507.1</ele>
        <time>2020-05-24T11:13:20Z</time>
      </trkpt>
      <trkpt lat="46.1428" lon="5.55084">
        <ele>507.1</ele>
        <time>2020-05-24T11:13:21Z</time>
      </trkpt>
      <trkpt lat="46.1428" lon="5.55085">
        <ele>507.2</ele>
        <time>2020-05-24T11:13:31Z</time>
      </trkpt>
      <trkpt lat="46.1428" lon="5.55087">
        <ele>507.2</ele>
        <time>2020-05-24T11:13:32Z</time>
      </trkpt>
      <trkpt lat="46.1428" lon="5.55088">
        <ele>507.2</ele>
        <time>2020-05-24T11:13:33Z</time>
      </trkpt>
      <trkpt lat="46.1428" lon="5.5509">
        <ele>507.3</ele>
        <time>2020-05-24T11:13:35Z</time>
      </trkpt>
      <trkpt lat="46.1428" lon="5.55091">
        <ele>507.3</ele>
        <time>2020-05-24T11:13:36Z</time>
      </trkpt>
      <trkpt lat="46.1428" lon="5.55093">
        <ele>507.3</ele>
        <time>2020-05-24T11:13:37Z</time>
      </trkpt>
      <trkpt lat="46.14292" lon="5.55105">
        <ele>506.1</ele>
        <time>2020-05-24T11:13:39Z</time>
      </trkpt>
      <trkpt lat="46.14297" lon="5.55112">
        <ele>505.8</ele>
        <time>2020-05-24T11:13:40Z</time>
      </trkpt>
      <trkpt lat="46.14306" lon="5.55124">
        <ele>505.3</ele>
        <time>2020-05-24T11:13:42Z</time>
      </trkpt>
      <trkpt lat="46.14314" lon="5.55137">
        <ele>505</ele>
        <time>2020-05-24T11:13:44Z</time>
      </trkpt>
      <trkpt lat="46.14322" lon="5.55149">
        <ele>504.8</ele>
        <time>2020-05-24T11:13:46Z</time>
      </trkpt>
      <trkpt lat="46.1433" lon="5.5516">
        <ele>504.8</ele>
        <time>2020-05-24T11:13:48Z</time>
      </trkpt>
      <trkpt lat="46.14334" lon="5.55165">
        <ele>504.8</ele>
        <time>2020-05-24T11:13:49Z</time>
      </trkpt>
      <trkpt lat="46.14338" lon="5.5517">
        <ele>504.8</ele>
        <time>2020-05-24T11:13:50Z</time>
      </trkpt>
      <trkpt lat="46.14343" lon="5.55174">
        <ele>504.8</ele>
        <time>2020-05-24T11:13:51Z</time>
      </trkpt>
      <trkpt lat="46.1435" lon="5.55184">
        <ele>504.9</ele>
        <time>2020-05-24T11:13:53Z</time>
      </trkpt>
      <trkpt lat="46.14357" lon="5.55193">
        <ele>505</ele>
        <time>2020-05-24T11:13:55Z</time>
      </trkpt>
      <trkpt lat="46.14364" lon="5.55203">
        <ele>505.1</ele>
        <time>2020-05-24T11:13:57Z</time>
      </trkpt>
      <trkpt lat="46.14368" lon="5.55208">
        <ele>505.2</ele>
        <time>2020-05-24T11:13:58Z</time>
      </trkpt>
      <trkpt lat="46.14369" lon="5.5521">
        <ele>505.2</ele>
        <time>2020-05-24T11:13:59Z</time>
      </trkpt>
      <trkpt lat="46.14374" lon="5.55219">
        <ele>505.3</ele>
        <time>2020-05-24T11:14:01Z</time>
      </trkpt>
      <trkpt lat="46.1438" lon="5.55231">
        <ele>505.4</ele>
        <time>2020-05-24T11:14:03Z</time>
      </trkpt>
      <trkpt lat="46.14381" lon="5.55238">
        <ele>505.5</ele>
        <time>2020-05-24T11:14:04Z</time>
      </trkpt>
      <trkpt lat="46.14386" lon="5.55243">
        <ele>505.6</ele>
        <time>2020-05-24T11:14:06Z</time>
      </trkpt>
      <trkpt lat="46.14386" lon="5.5525">
        <ele>505.7</ele>
        <time>2020-05-24T11:14:07Z</time>
      </trkpt>
      <trkpt lat="46.14387" lon="5.55257">
        <ele>505.8</ele>
        <time>2020-05-24T11:14:08Z</time>
      </trkpt>
      <trkpt lat="46.14388" lon="5.55276">
        <ele>506.1</ele>
        <time>2020-05-24T11:14:10Z</time>
      </trkpt>
      <trkpt lat="46.14389" lon="5.55289">
        <ele>506.3</ele>
        <time>2020-05-24T11:14:12Z</time>
      </trkpt>
      <trkpt lat="46.1439" lon="5.55297">
        <ele>506.4</ele>
        <time>2020-05-24T11:14:13Z</time>
      </trkpt>
      <trkpt lat="46.1439" lon="5.5531">
        <ele>506.5</ele>
        <time>2020-05-24T11:14:15Z</time>
      </trkpt>
      <trkpt lat="46.1439" lon="5.5532">
        <ele>506.7</ele>
        <time>2020-05-24T11:14:16Z</time>
      </trkpt>
      <trkpt lat="46.14389" lon="5.55331">
        <ele>506.8</ele>
        <time>2020-05-24T11:14:17Z</time>
      </trkpt>
      <trkpt lat="46.14387" lon="5.55348">
        <ele>507</ele>
        <time>2020-05-24T11:14:19Z</time>
      </trkpt>
      <trkpt lat="46.14386" lon="5.55358">
        <ele>507.2</ele>
        <time>2020-05-24T11:14:21Z</time>
      </trkpt>
      <trkpt lat="46.14385" lon="5.55365">
        <ele>507.3</ele>
        <time>2020-05-24T11:14:22Z</time>
      </trkpt>
      <trkpt lat="46.14384" lon="5.55371">
        <ele>507.4</ele>
        <time>2020-05-24T11:14:23Z</time>
      </trkpt>
      <trkpt lat="46.14383" lon="5.55379">
        <ele>507.6</ele>
        <time>2020-05-24T11:14:25Z</time>
      </trkpt>
      <trkpt lat="46.14383" lon="5.55384">
        <ele>507.6</ele>
        <time>2020-05-24T11:14:26Z</time>
      </trkpt>
      <trkpt lat="46.14383" lon="5.55389">
        <ele>507.7</ele>
        <time>2020-05-24T11:14:27Z</time>
      </trkpt>
      <trkpt lat="46.14385" lon="5.55394">
        <ele>507.7</ele>
        <time>2020-05-24T11:14:28Z</time>
      </trkpt>
      <trkpt lat="46.14395" lon="5.55406">
        <ele>506.3</ele>
        <time>2020-05-24T11:14:30Z</time>
      </trkpt>
      <trkpt lat="46.14404" lon="5.55417">
        <ele>504.7</ele>
        <time>2020-05-24T11:14:31Z</time>
      </trkpt>
      <trkpt lat="46.1442" lon="5.55438">
        <ele>501.2</ele>
        <time>2020-05-24T11:14:33Z</time>
      </trkpt>
      <trkpt lat="46.14437" lon="5.55453">
        <ele>498.8</ele>
        <time>2020-05-24T11:14:35Z</time>
      </trkpt>
      <trkpt lat="46.14456" lon="5.55463">
        <ele>496.8</ele>
        <time>2020-05-24T11:14:37Z</time>
      </trkpt>
      <trkpt lat="46.14473" lon="5.55475">
        <ele>494.9</ele>
        <time>2020-05-24T11:14:39Z</time>
      </trkpt>
      <trkpt lat="46.1449" lon="5.55484">
        <ele>493.3</ele>
        <time>2020-05-24T11:14:41Z</time>
      </trkpt>
      <trkpt lat="46.14506" lon="5.55488">
        <ele>491.7</ele>
        <time>2020-05-24T11:14:43Z</time>
      </trkpt>
      <trkpt lat="46.14515" lon="5.5549">
        <ele>491.3</ele>
        <time>2020-05-24T11:14:44Z</time>
      </trkpt>
      <trkpt lat="46.1453" lon="5.55499">
        <ele>490.4</ele>
        <time>2020-05-24T11:14:46Z</time>
      </trkpt>
      <trkpt lat="46.14542" lon="5.55502">
        <ele>489.8</ele>
        <time>2020-05-24T11:14:48Z</time>
      </trkpt>
      <trkpt lat="46.14548" lon="5.55503">
        <ele>489.6</ele>
        <time>2020-05-24T11:14:49Z</time>
      </trkpt>
      <trkpt lat="46.14553" lon="5.55505">
        <ele>489.4</ele>
        <time>2020-05-24T11:14:50Z</time>
      </trkpt>
      <trkpt lat="46.14559" lon="5.55506">
        <ele>489.2</ele>
        <time>2020-05-24T11:14:51Z</time>
      </trkpt>
      <trkpt lat="46.14572" lon="5.55509">
        <ele>488.9</ele>
        <time>2020-05-24T11:14:53Z</time>
      </trkpt>
      <trkpt lat="46.14578" lon="5.55511">
        <ele>488.8</ele>
        <time>2020-05-24T11:14:54Z</time>
      </trkpt>
      <trkpt lat="46.14591" lon="5.55513">
        <ele>488.7</ele>
        <time>2020-05-24T11:14:56Z</time>
      </trkpt>
      <trkpt lat="46.14602" lon="5.55515">
        <ele>488.6</ele>
        <time>2020-05-24T11:14:58Z</time>
      </trkpt>
      <trkpt lat="46.14608" lon="5.55516">
        <ele>488.5</ele>
        <time>2020-05-24T11:14:59Z</time>
      </trkpt>
      <trkpt lat="46.14618" lon="5.55519">
        <ele>488.5</ele>
        <time>2020-05-24T11:15:01Z</time>
      </trkpt>
      <trkpt lat="46.14628" lon="5.55521">
        <ele>488.4</ele>
        <time>2020-05-24T11:15:03Z</time>
      </trkpt>
      <trkpt lat="46.14632" lon="5.55522">
        <ele>488.4</ele>
        <time>2020-05-24T11:15:04Z</time>
      </trkpt>
      <trkpt lat="46.14636" lon="5.55523">
        <ele>488.4</ele>
        <time>2020-05-24T11:15:05Z</time>
      </trkpt>
      <trkpt lat="46.1464" lon="5.55524">
        <ele>488.4</ele>
        <time>2020-05-24T11:15:06Z</time>
      </trkpt>
      <trkpt lat="46.14643" lon="5.55526">
        <ele>488.4</ele>
        <time>2020-05-24T11:15:07Z</time>
      </trkpt>
      <trkpt lat="46.14651" lon="5.55528">
        <ele>488.4</ele>
        <time>2020-05-24T11:15:09Z</time>
      </trkpt>
      <trkpt lat="46.14659" lon="5.55529">
        <ele>488.4</ele>
        <time>2020-05-24T11:15:10Z</time>
      </trkpt>
      <trkpt lat="46.14664" lon="5.5553">
        <ele>488.4</ele>
        <time>2020-05-24T11:15:12Z</time>
      </trkpt>
      <trkpt lat="46.1467" lon="5.55531">
        <ele>488.4</ele>
        <time>2020-05-24T11:15:14Z</time>
      </trkpt>
      <trkpt lat="46.14674" lon="5.55532">
        <ele>488.4</ele>
        <time>2020-05-24T11:15:15Z</time>
      </trkpt>
      <trkpt lat="46.1468" lon="5.55533">
        <ele>488.4</ele>
        <time>2020-05-24T11:15:17Z</time>
      </trkpt>
      <trkpt lat="46.14685" lon="5.55534">
        <ele>488.5</ele>
        <time>2020-05-24T11:15:18Z</time>
      </trkpt>
      <trkpt lat="46.14689" lon="5.55536">
        <ele>488.5</ele>
        <time>2020-05-24T11:15:19Z</time>
      </trkpt>
      <trkpt lat="46.14697" lon="5.55539">
        <ele>488.5</ele>
        <time>2020-05-24T11:15:21Z</time>
      </trkpt>
      <trkpt lat="46.14701" lon="5.55541">
        <ele>488.5</ele>
        <time>2020-05-24T11:15:22Z</time>
      </trkpt>
      <trkpt lat="46.14708" lon="5.55544">
        <ele>488.5</ele>
        <time>2020-05-24T11:15:24Z</time>
      </trkpt>
      <trkpt lat="46.14716" lon="5.55548">
        <ele>488.5</ele>
        <time>2020-05-24T11:15:26Z</time>
      </trkpt>
      <trkpt lat="46.1472" lon="5.55551">
        <ele>488.5</ele>
        <time>2020-05-24T11:15:27Z</time>
      </trkpt>
      <trkpt lat="46.14725" lon="5.55554">
        <ele>488.5</ele>
        <time>2020-05-24T11:15:28Z</time>
      </trkpt>
      <trkpt lat="46.14732" lon="5.55557">
        <ele>488.5</ele>
        <time>2020-05-24T11:15:30Z</time>
      </trkpt>
      <trkpt lat="46.14739" lon="5.55561">
        <ele>488.5</ele>
        <time>2020-05-24T11:15:32Z</time>
      </trkpt>
      <trkpt lat="46.14746" lon="5.55565">
        <ele>488.4</ele>
        <time>2020-05-24T11:15:34Z</time>
      </trkpt>
      <trkpt lat="46.14752" lon="5.55568">
        <ele>488.3</ele>
        <time>2020-05-24T11:15:35Z</time>
      </trkpt>
      <trkpt lat="46.14756" lon="5.5557">
        <ele>488.3</ele>
        <time>2020-05-24T11:15:36Z</time>
      </trkpt>
      <trkpt lat="46.14764" lon="5.55575">
        <ele>488.2</ele>
        <time>2020-05-24T11:15:38Z</time>
      </trkpt>
      <trkpt lat="46.14768" lon="5.55578">
        <ele>488.2</ele>
        <time>2020-05-24T11:15:39Z</time>
      </trkpt>
      <trkpt lat="46.14775" lon="5.55582">
        <ele>488.2</ele>
        <time>2020-05-24T11:15:41Z</time>
      </trkpt>
      <trkpt lat="46.14779" lon="5.55585">
        <ele>488.1</ele>
        <time>2020-05-24T11:15:42Z</time>
      </trkpt>
      <trkpt lat="46.14785" lon="5.55589">
        <ele>488.1</ele>
        <time>2020-05-24T11:15:44Z</time>
      </trkpt>
      <trkpt lat="46.14789" lon="5.55592">
        <ele>488.1</ele>
        <time>2020-05-24T11:15:45Z</time>
      </trkpt>
      <trkpt lat="46.14793" lon="5.55595">
        <ele>488.1</ele>
        <time>2020-05-24T11:15:46Z</time>
      </trkpt>
      <trkpt lat="46.14798" lon="5.55598">
        <ele>488.1</ele>
        <time>2020-05-24T11:15:47Z</time>
      </trkpt>
      <trkpt lat="46.14803" lon="5.55601">
        <ele>488.1</ele>
        <time>2020-05-24T11:15:49Z</time>
      </trkpt>
      <trkpt lat="46.14808" lon="5.55604">
        <ele>488</ele>
        <time>2020-05-24T11:15:50Z</time>
      </trkpt>
      <trkpt lat="46.14812" lon="5.55606">
        <ele>488</ele>
        <time>2020-05-24T11:15:51Z</time>
      </trkpt>
      <trkpt lat="46.14817" lon="5.55609">
        <ele>488</ele>
        <time>2020-05-24T11:15:53Z</time>
      </trkpt>
      <trkpt lat="46.14822" lon="5.55612">
        <ele>487.9</ele>
        <time>2020-05-24T11:15:54Z</time>
      </trkpt>
      <trkpt lat="46.14828" lon="5.55615">
        <ele>487.9</ele>
        <time>2020-05-24T11:15:55Z</time>
      </trkpt>
      <trkpt lat="46.14834" lon="5.5562">
        <ele>487.8</ele>
        <time>2020-05-24T11:15:57Z</time>
      </trkpt>
      <trkpt lat="46.14838" lon="5.55623">
        <ele>487.8</ele>
        <time>2020-05-24T11:15:58Z</time>
      </trkpt>
      <trkpt lat="46.14842" lon="5.55626">
        <ele>487.7</ele>
        <time>2020-05-24T11:15:59Z</time>
      </trkpt>
      <trkpt lat="46.14848" lon="5.55631">
        <ele>487.7</ele>
        <time>2020-05-24T11:16:01Z</time>
      </trkpt>
      <trkpt lat="46.14851" lon="5.55634">
        <ele>487.6</ele>
        <time>2020-05-24T11:16:02Z</time>
      </trkpt>
      <trkpt lat="46.14856" lon="5.55639">
        <ele>487.5</ele>
        <time>2020-05-24T11:16:03Z</time>
      </trkpt>
      <trkpt lat="46.1486" lon="5.55643">
        <ele>487.4</ele>
        <time>2020-05-24T11:16:04Z</time>
      </trkpt>
      <trkpt lat="46.14863" lon="5.55651">
        <ele>487.4</ele>
        <time>2020-05-24T11:16:05Z</time>
      </trkpt>
      <trkpt lat="46.14868" lon="5.55664">
        <ele>487.3</ele>
        <time>2020-05-24T11:16:07Z</time>
      </trkpt>
      <trkpt lat="46.14869" lon="5.55671">
        <ele>487.3</ele>
        <time>2020-05-24T11:16:08Z</time>
      </trkpt>
      <trkpt lat="46.14871" lon="5.55685">
        <ele>487.2</ele>
        <time>2020-05-24T11:16:10Z</time>
      </trkpt>
      <trkpt lat="46.14872" lon="5.55691">
        <ele>487.2</ele>
        <time>2020-05-24T11:16:11Z</time>
      </trkpt>
      <trkpt lat="46.14873" lon="5.55695">
        <ele>487.2</ele>
        <time>2020-05-24T11:16:12Z</time>
      </trkpt>
      <trkpt lat="46.14874" lon="5.55704">
        <ele>487.2</ele>
        <time>2020-05-24T11:16:14Z</time>
      </trkpt>
      <trkpt lat="46.14881" lon="5.55712">
        <ele>487.2</ele>
        <time>2020-05-24T11:16:16Z</time>
      </trkpt>
      <trkpt lat="46.14885" lon="5.55716">
        <ele>487.2</ele>
        <time>2020-05-24T11:16:17Z</time>
      </trkpt>
      <trkpt lat="46.1489" lon="5.5572">
        <ele>487.2</ele>
        <time>2020-05-24T11:16:18Z</time>
      </trkpt>
      <trkpt lat="46.14896" lon="5.55724">
        <ele>487.2</ele>
        <time>2020-05-24T11:16:20Z</time>
      </trkpt>
      <trkpt lat="46.149" lon="5.55727">
        <ele>487.2</ele>
        <time>2020-05-24T11:16:21Z</time>
      </trkpt>
      <trkpt lat="46.14904" lon="5.55729">
        <ele>487.1</ele>
        <time>2020-05-24T11:16:22Z</time>
      </trkpt>
      <trkpt lat="46.1491" lon="5.55733">
        <ele>487.1</ele>
        <time>2020-05-24T11:16:24Z</time>
      </trkpt>
      <trkpt lat="46.14915" lon="5.55736">
        <ele>487.1</ele>
        <time>2020-05-24T11:16:25Z</time>
      </trkpt>
      <trkpt lat="46.1492" lon="5.5574">
        <ele>487</ele>
        <time>2020-05-24T11:16:26Z</time>
      </trkpt>
      <trkpt lat="46.14928" lon="5.55748">
        <ele>486.9</ele>
        <time>2020-05-24T11:16:28Z</time>
      </trkpt>
      <trkpt lat="46.14932" lon="5.55753">
        <ele>486.9</ele>
        <time>2020-05-24T11:16:29Z</time>
      </trkpt>
      <trkpt lat="46.1494" lon="5.55762">
        <ele>486.8</ele>
        <time>2020-05-24T11:16:31Z</time>
      </trkpt>
      <trkpt lat="46.14943" lon="5.55765">
        <ele>486.7</ele>
        <time>2020-05-24T11:16:32Z</time>
      </trkpt>
      <trkpt lat="46.14951" lon="5.55772">
        <ele>486.6</ele>
        <time>2020-05-24T11:16:34Z</time>
      </trkpt>
      <trkpt lat="46.1496" lon="5.55779">
        <ele>486.4</ele>
        <time>2020-05-24T11:16:36Z</time>
      </trkpt>
      <trkpt lat="46.14967" lon="5.55782">
        <ele>486.4</ele>
        <time>2020-05-24T11:16:38Z</time>
      </trkpt>
      <trkpt lat="46.14974" lon="5.55784">
        <ele>486.3</ele>
        <time>2020-05-24T11:16:39Z</time>
      </trkpt>
      <trkpt lat="46.14982" lon="5.55786">
        <ele>486.2</ele>
        <time>2020-05-24T11:16:41Z</time>
      </trkpt>
      <trkpt lat="46.14988" lon="5.55787">
        <ele>486.2</ele>
        <time>2020-05-24T11:16:43Z</time>
      </trkpt>
      <trkpt lat="46.14994" lon="5.55788">
        <ele>486.2</ele>
        <time>2020-05-24T11:16:44Z</time>
      </trkpt>
      <trkpt lat="46.14999" lon="5.55788">
        <ele>486.2</ele>
        <time>2020-05-24T11:16:45Z</time>
      </trkpt>
      <trkpt lat="46.15006" lon="5.55789">
        <ele>486.1</ele>
        <time>2020-05-24T11:16:47Z</time>
      </trkpt>
      <trkpt lat="46.15012" lon="5.5579">
        <ele>486.1</ele>
        <time>2020-05-24T11:16:48Z</time>
      </trkpt>
      <trkpt lat="46.15021" lon="5.55793">
        <ele>486.1</ele>
        <time>2020-05-24T11:16:50Z</time>
      </trkpt>
      <trkpt lat="46.15028" lon="5.55796">
        <ele>486.1</ele>
        <time>2020-05-24T11:16:52Z</time>
      </trkpt>
      <trkpt lat="46.15033" lon="5.55798">
        <ele>486</ele>
        <time>2020-05-24T11:16:53Z</time>
      </trkpt>
      <trkpt lat="46.1504" lon="5.55799">
        <ele>486</ele>
        <time>2020-05-24T11:16:55Z</time>
      </trkpt>
      <trkpt lat="46.15046" lon="5.55802">
        <ele>486</ele>
        <time>2020-05-24T11:16:57Z</time>
      </trkpt>
      <trkpt lat="46.15051" lon="5.55804">
        <ele>486</ele>
        <time>2020-05-24T11:16:58Z</time>
      </trkpt>
      <trkpt lat="46.15056" lon="5.55806">
        <ele>486</ele>
        <time>2020-05-24T11:16:59Z</time>
      </trkpt>
      <trkpt lat="46.1506" lon="5.55807">
        <ele>485.9</ele>
        <time>2020-05-24T11:17:00Z</time>
      </trkpt>
      <trkpt lat="46.15064" lon="5.5581">
        <ele>485.9</ele>
        <time>2020-05-24T11:17:01Z</time>
      </trkpt>
      <trkpt lat="46.15069" lon="5.55813">
        <ele>485.9</ele>
        <time>2020-05-24T11:17:03Z</time>
      </trkpt>
      <trkpt lat="46.15074" lon="5.55816">
        <ele>485.9</ele>
        <time>2020-05-24T11:17:04Z</time>
      </trkpt>
      <trkpt lat="46.15078" lon="5.5582">
        <ele>485.8</ele>
        <time>2020-05-24T11:17:05Z</time>
      </trkpt>
      <trkpt lat="46.15082" lon="5.55823">
        <ele>485.8</ele>
        <time>2020-05-24T11:17:06Z</time>
      </trkpt>
      <trkpt lat="46.15085" lon="5.55826">
        <ele>485.8</ele>
        <time>2020-05-24T11:17:07Z</time>
      </trkpt>
      <trkpt lat="46.15089" lon="5.55832">
        <ele>485.8</ele>
        <time>2020-05-24T11:17:08Z</time>
      </trkpt>
      <trkpt lat="46.15094" lon="5.55838">
        <ele>485.8</ele>
        <time>2020-05-24T11:17:10Z</time>
      </trkpt>
      <trkpt lat="46.15097" lon="5.55842">
        <ele>485.8</ele>
        <time>2020-05-24T11:17:11Z</time>
      </trkpt>
      <trkpt lat="46.15101" lon="5.55846">
        <ele>485.8</ele>
        <time>2020-05-24T11:17:12Z</time>
      </trkpt>
      <trkpt lat="46.15104" lon="5.5585">
        <ele>485.8</ele>
        <time>2020-05-24T11:17:13Z</time>
      </trkpt>
      <trkpt lat="46.15109" lon="5.55855">
        <ele>485.8</ele>
        <time>2020-05-24T11:17:15Z</time>
      </trkpt>
      <trkpt lat="46.15113" lon="5.55858">
        <ele>485.8</ele>
        <time>2020-05-24T11:17:16Z</time>
      </trkpt>
      <trkpt lat="46.15117" lon="5.55861">
        <ele>485.8</ele>
        <time>2020-05-24T11:17:17Z</time>
      </trkpt>
      <trkpt lat="46.15123" lon="5.55865">
        <ele>485.8</ele>
        <time>2020-05-24T11:17:19Z</time>
      </trkpt>
      <trkpt lat="46.15127" lon="5.55868">
        <ele>485.8</ele>
        <time>2020-05-24T11:17:20Z</time>
      </trkpt>
      <trkpt lat="46.15134" lon="5.55873">
        <ele>485.8</ele>
        <time>2020-05-24T11:17:22Z</time>
      </trkpt>
      <trkpt lat="46.15138" lon="5.55876">
        <ele>485.8</ele>
        <time>2020-05-24T11:17:23Z</time>
      </trkpt>
      <trkpt lat="46.15144" lon="5.5588">
        <ele>485.7</ele>
        <time>2020-05-24T11:17:25Z</time>
      </trkpt>
      <trkpt lat="46.15149" lon="5.55883">
        <ele>485.7</ele>
        <time>2020-05-24T11:17:27Z</time>
      </trkpt>
      <trkpt lat="46.15153" lon="5.55886">
        <ele>485.7</ele>
        <time>2020-05-24T11:17:28Z</time>
      </trkpt>
      <trkpt lat="46.15158" lon="5.55888">
        <ele>485.7</ele>
        <time>2020-05-24T11:17:29Z</time>
      </trkpt>
      <trkpt lat="46.15163" lon="5.55891">
        <ele>485.6</ele>
        <time>2020-05-24T11:17:31Z</time>
      </trkpt>
      <trkpt lat="46.15169" lon="5.55894">
        <ele>485.6</ele>
        <time>2020-05-24T11:17:32Z</time>
      </trkpt>
      <trkpt lat="46.15173" lon="5.55896">
        <ele>485.5</ele>
        <time>2020-05-24T11:17:33Z</time>
      </trkpt>
      <trkpt lat="46.15177" lon="5.55898">
        <ele>485.5</ele>
        <time>2020-05-24T11:17:34Z</time>
      </trkpt>
      <trkpt lat="46.15182" lon="5.55901">
        <ele>485.4</ele>
        <time>2020-05-24T11:17:35Z</time>
      </trkpt>
      <trkpt lat="46.15186" lon="5.55903">
        <ele>485.4</ele>
        <time>2020-05-24T11:17:37Z</time>
      </trkpt>
      <trkpt lat="46.15191" lon="5.55906">
        <ele>485.3</ele>
        <time>2020-05-24T11:17:38Z</time>
      </trkpt>
      <trkpt lat="46.15195" lon="5.55908">
        <ele>485.2</ele>
        <time>2020-05-24T11:17:39Z</time>
      </trkpt>
      <trkpt lat="46.15199" lon="5.55911">
        <ele>485.2</ele>
        <time>2020-05-24T11:17:40Z</time>
      </trkpt>
      <trkpt lat="46.15204" lon="5.55914">
        <ele>485.1</ele>
        <time>2020-05-24T11:17:42Z</time>
      </trkpt>
      <trkpt lat="46.1521" lon="5.55918">
        <ele>485.1</ele>
        <time>2020-05-24T11:17:43Z</time>
      </trkpt>
      <trkpt lat="46.15214" lon="5.55921">
        <ele>485</ele>
        <time>2020-05-24T11:17:44Z</time>
      </trkpt>
      <trkpt lat="46.1522" lon="5.55925">
        <ele>485</ele>
        <time>2020-05-24T11:17:46Z</time>
      </trkpt>
      <trkpt lat="46.15225" lon="5.55931">
        <ele>485.1</ele>
        <time>2020-05-24T11:17:48Z</time>
      </trkpt>
      <trkpt lat="46.15229" lon="5.55935">
        <ele>485.1</ele>
        <time>2020-05-24T11:17:49Z</time>
      </trkpt>
      <trkpt lat="46.15234" lon="5.5594">
        <ele>485.1</ele>
        <time>2020-05-24T11:17:50Z</time>
      </trkpt>
      <trkpt lat="46.15239" lon="5.55943">
        <ele>485</ele>
        <time>2020-05-24T11:17:52Z</time>
      </trkpt>
      <trkpt lat="46.15244" lon="5.55948">
        <ele>485</ele>
        <time>2020-05-24T11:17:53Z</time>
      </trkpt>
      <trkpt lat="46.15247" lon="5.55952">
        <ele>485</ele>
        <time>2020-05-24T11:17:54Z</time>
      </trkpt>
      <trkpt lat="46.15253" lon="5.55957">
        <ele>484.9</ele>
        <time>2020-05-24T11:17:56Z</time>
      </trkpt>
      <trkpt lat="46.15259" lon="5.55962">
        <ele>484.9</ele>
        <time>2020-05-24T11:17:58Z</time>
      </trkpt>
      <trkpt lat="46.15263" lon="5.55966">
        <ele>484.9</ele>
        <time>2020-05-24T11:17:59Z</time>
      </trkpt>
      <trkpt lat="46.15267" lon="5.55969">
        <ele>484.9</ele>
        <time>2020-05-24T11:18:00Z</time>
      </trkpt>
      <trkpt lat="46.1527" lon="5.55972">
        <ele>484.9</ele>
        <time>2020-05-24T11:18:01Z</time>
      </trkpt>
      <trkpt lat="46.15274" lon="5.55976">
        <ele>484.9</ele>
        <time>2020-05-24T11:18:02Z</time>
      </trkpt>
      <trkpt lat="46.15278" lon="5.55981">
        <ele>484.9</ele>
        <time>2020-05-24T11:18:04Z</time>
      </trkpt>
      <trkpt lat="46.15283" lon="5.55985">
        <ele>484.9</ele>
        <time>2020-05-24T11:18:05Z</time>
      </trkpt>
      <trkpt lat="46.15288" lon="5.5599">
        <ele>484.9</ele>
        <time>2020-05-24T11:18:07Z</time>
      </trkpt>
      <trkpt lat="46.15293" lon="5.55995">
        <ele>484.8</ele>
        <time>2020-05-24T11:18:08Z</time>
      </trkpt>
      <trkpt lat="46.15296" lon="5.55998">
        <ele>484.8</ele>
        <time>2020-05-24T11:18:09Z</time>
      </trkpt>
      <trkpt lat="46.15303" lon="5.56004">
        <ele>484.7</ele>
        <time>2020-05-24T11:18:11Z</time>
      </trkpt>
      <trkpt lat="46.15308" lon="5.5601">
        <ele>484.7</ele>
        <time>2020-05-24T11:18:13Z</time>
      </trkpt>
      <trkpt lat="46.15312" lon="5.56014">
        <ele>484.7</ele>
        <time>2020-05-24T11:18:14Z</time>
      </trkpt>
      <trkpt lat="46.15315" lon="5.56017">
        <ele>484.7</ele>
        <time>2020-05-24T11:18:15Z</time>
      </trkpt>
      <trkpt lat="46.15319" lon="5.56021">
        <ele>484.7</ele>
        <time>2020-05-24T11:18:16Z</time>
      </trkpt>
      <trkpt lat="46.15324" lon="5.56026">
        <ele>484.7</ele>
        <time>2020-05-24T11:18:18Z</time>
      </trkpt>
      <trkpt lat="46.15328" lon="5.5603">
        <ele>484.6</ele>
        <time>2020-05-24T11:18:19Z</time>
      </trkpt>
      <trkpt lat="46.15332" lon="5.56034">
        <ele>484.6</ele>
        <time>2020-05-24T11:18:20Z</time>
      </trkpt>
      <trkpt lat="46.15336" lon="5.56037">
        <ele>484.6</ele>
        <time>2020-05-24T11:18:21Z</time>
      </trkpt>
      <trkpt lat="46.15341" lon="5.56042">
        <ele>484.6</ele>
        <time>2020-05-24T11:18:22Z</time>
      </trkpt>
      <trkpt lat="46.15346" lon="5.56048">
        <ele>484.5</ele>
        <time>2020-05-24T11:18:24Z</time>
      </trkpt>
      <trkpt lat="46.1535" lon="5.56052">
        <ele>484.5</ele>
        <time>2020-05-24T11:18:25Z</time>
      </trkpt>
      <trkpt lat="46.15354" lon="5.56056">
        <ele>484.4</ele>
        <time>2020-05-24T11:18:26Z</time>
      </trkpt>
      <trkpt lat="46.1536" lon="5.56062">
        <ele>484.4</ele>
        <time>2020-05-24T11:18:28Z</time>
      </trkpt>
      <trkpt lat="46.15365" lon="5.56065">
        <ele>484.3</ele>
        <time>2020-05-24T11:18:29Z</time>
      </trkpt>
      <trkpt lat="46.15371" lon="5.56069">
        <ele>484.3</ele>
        <time>2020-05-24T11:18:31Z</time>
      </trkpt>
      <trkpt lat="46.15377" lon="5.56074">
        <ele>484.2</ele>
        <time>2020-05-24T11:18:32Z</time>
      </trkpt>
      <trkpt lat="46.15382" lon="5.56077">
        <ele>484.2</ele>
        <time>2020-05-24T11:18:33Z</time>
      </trkpt>
      <trkpt lat="46.15386" lon="5.5608">
        <ele>484.2</ele>
        <time>2020-05-24T11:18:34Z</time>
      </trkpt>
      <trkpt lat="46.15393" lon="5.56083">
        <ele>484.2</ele>
        <time>2020-05-24T11:18:36Z</time>
      </trkpt>
      <trkpt lat="46.15397" lon="5.56085">
        <ele>484.2</ele>
        <time>2020-05-24T11:18:37Z</time>
      </trkpt>
      <trkpt lat="46.15404" lon="5.5609">
        <ele>484.1</ele>
        <time>2020-05-24T11:18:39Z</time>
      </trkpt>
      <trkpt lat="46.15408" lon="5.56092">
        <ele>484.1</ele>
        <time>2020-05-24T11:18:40Z</time>
      </trkpt>
      <trkpt lat="46.15413" lon="5.56094">
        <ele>484.1</ele>
        <time>2020-05-24T11:18:41Z</time>
      </trkpt>
      <trkpt lat="46.15418" lon="5.56096">
        <ele>484.1</ele>
        <time>2020-05-24T11:18:43Z</time>
      </trkpt>
      <trkpt lat="46.15424" lon="5.56098">
        <ele>484.1</ele>
        <time>2020-05-24T11:18:44Z</time>
      </trkpt>
      <trkpt lat="46.15429" lon="5.56101">
        <ele>484.1</ele>
        <time>2020-05-24T11:18:46Z</time>
      </trkpt>
      <trkpt lat="46.15434" lon="5.56104">
        <ele>484.1</ele>
        <time>2020-05-24T11:18:47Z</time>
      </trkpt>
      <trkpt lat="46.15441" lon="5.56107">
        <ele>484.2</ele>
        <time>2020-05-24T11:18:49Z</time>
      </trkpt>
      <trkpt lat="46.15445" lon="5.56108">
        <ele>484.2</ele>
        <time>2020-05-24T11:18:50Z</time>
      </trkpt>
      <trkpt lat="46.15449" lon="5.5611">
        <ele>484.1</ele>
        <time>2020-05-24T11:18:51Z</time>
      </trkpt>
      <trkpt lat="46.15454" lon="5.56112">
        <ele>484.1</ele>
        <time>2020-05-24T11:18:52Z</time>
      </trkpt>
      <trkpt lat="46.15459" lon="5.56116">
        <ele>484.1</ele>
        <time>2020-05-24T11:18:54Z</time>
      </trkpt>
      <trkpt lat="46.15463" lon="5.56118">
        <ele>484.1</ele>
        <time>2020-05-24T11:18:55Z</time>
      </trkpt>
      <trkpt lat="46.15468" lon="5.56121">
        <ele>484</ele>
        <time>2020-05-24T11:18:56Z</time>
      </trkpt>
      <trkpt lat="46.15473" lon="5.56123">
        <ele>484</ele>
        <time>2020-05-24T11:18:57Z</time>
      </trkpt>
      <trkpt lat="46.15477" lon="5.56125">
        <ele>484</ele>
        <time>2020-05-24T11:18:58Z</time>
      </trkpt>
      <trkpt lat="46.15485" lon="5.56129">
        <ele>483.9</ele>
        <time>2020-05-24T11:19:00Z</time>
      </trkpt>
      <trkpt lat="46.1549" lon="5.56132">
        <ele>484</ele>
        <time>2020-05-24T11:19:01Z</time>
      </trkpt>
      <trkpt lat="46.15496" lon="5.56134">
        <ele>484</ele>
        <time>2020-05-24T11:19:03Z</time>
      </trkpt>
      <trkpt lat="46.15501" lon="5.56136">
        <ele>484</ele>
        <time>2020-05-24T11:19:04Z</time>
      </trkpt>
      <trkpt lat="46.15508" lon="5.5614">
        <ele>484</ele>
        <time>2020-05-24T11:19:06Z</time>
      </trkpt>
      <trkpt lat="46.15513" lon="5.56143">
        <ele>484</ele>
        <time>2020-05-24T11:19:07Z</time>
      </trkpt>
      <trkpt lat="46.15519" lon="5.56146">
        <ele>484</ele>
        <time>2020-05-24T11:19:09Z</time>
      </trkpt>
      <trkpt lat="46.15523" lon="5.56149">
        <ele>483.9</ele>
        <time>2020-05-24T11:19:10Z</time>
      </trkpt>
      <trkpt lat="46.15528" lon="5.56153">
        <ele>483.9</ele>
        <time>2020-05-24T11:19:12Z</time>
      </trkpt>
      <trkpt lat="46.15533" lon="5.56157">
        <ele>483.9</ele>
        <time>2020-05-24T11:19:13Z</time>
      </trkpt>
      <trkpt lat="46.15539" lon="5.56162">
        <ele>483.9</ele>
        <time>2020-05-24T11:19:15Z</time>
      </trkpt>
      <trkpt lat="46.15543" lon="5.56165">
        <ele>483.9</ele>
        <time>2020-05-24T11:19:16Z</time>
      </trkpt>
      <trkpt lat="46.15548" lon="5.5617">
        <ele>483.9</ele>
        <time>2020-05-24T11:19:18Z</time>
      </trkpt>
      <trkpt lat="46.15554" lon="5.56176">
        <ele>483.8</ele>
        <time>2020-05-24T11:19:19Z</time>
      </trkpt>
      <trkpt lat="46.1556" lon="5.56181">
        <ele>483.8</ele>
        <time>2020-05-24T11:19:21Z</time>
      </trkpt>
      <trkpt lat="46.15564" lon="5.56185">
        <ele>483.8</ele>
        <time>2020-05-24T11:19:22Z</time>
      </trkpt>
      <trkpt lat="46.15569" lon="5.56192">
        <ele>483.8</ele>
        <time>2020-05-24T11:19:24Z</time>
      </trkpt>
      <trkpt lat="46.15575" lon="5.562">
        <ele>483.8</ele>
        <time>2020-05-24T11:19:26Z</time>
      </trkpt>
      <trkpt lat="46.1558" lon="5.56205">
        <ele>483.8</ele>
        <time>2020-05-24T11:19:28Z</time>
      </trkpt>
      <trkpt lat="46.15584" lon="5.56209">
        <ele>483.8</ele>
        <time>2020-05-24T11:19:29Z</time>
      </trkpt>
      <trkpt lat="46.15588" lon="5.56216">
        <ele>483.8</ele>
        <time>2020-05-24T11:19:31Z</time>
      </trkpt>
      <trkpt lat="46.15592" lon="5.56221">
        <ele>483.8</ele>
        <time>2020-05-24T11:19:32Z</time>
      </trkpt>
      <trkpt lat="46.15596" lon="5.56227">
        <ele>483.8</ele>
        <time>2020-05-24T11:19:34Z</time>
      </trkpt>
      <trkpt lat="46.156" lon="5.56232">
        <ele>483.8</ele>
        <time>2020-05-24T11:19:35Z</time>
      </trkpt>
      <trkpt lat="46.15604" lon="5.56239">
        <ele>483.8</ele>
        <time>2020-05-24T11:19:37Z</time>
      </trkpt>
      <trkpt lat="46.15608" lon="5.56244">
        <ele>483.8</ele>
        <time>2020-05-24T11:19:38Z</time>
      </trkpt>
      <trkpt lat="46.15611" lon="5.56249">
        <ele>483.8</ele>
        <time>2020-05-24T11:19:39Z</time>
      </trkpt>
      <trkpt lat="46.15615" lon="5.56254">
        <ele>483.8</ele>
        <time>2020-05-24T11:19:41Z</time>
      </trkpt>
      <trkpt lat="46.15618" lon="5.56258">
        <ele>483.7</ele>
        <time>2020-05-24T11:19:42Z</time>
      </trkpt>
      <trkpt lat="46.15622" lon="5.56263">
        <ele>483.7</ele>
        <time>2020-05-24T11:19:43Z</time>
      </trkpt>
      <trkpt lat="46.15625" lon="5.56267">
        <ele>483.7</ele>
        <time>2020-05-24T11:19:44Z</time>
      </trkpt>
      <trkpt lat="46.15629" lon="5.5627">
        <ele>483.7</ele>
        <time>2020-05-24T11:19:45Z</time>
      </trkpt>
      <trkpt lat="46.15634" lon="5.56276">
        <ele>483.7</ele>
        <time>2020-05-24T11:19:47Z</time>
      </trkpt>
      <trkpt lat="46.15639" lon="5.56282">
        <ele>483.6</ele>
        <time>2020-05-24T11:19:49Z</time>
      </trkpt>
      <trkpt lat="46.15643" lon="5.56287">
        <ele>483.6</ele>
        <time>2020-05-24T11:19:50Z</time>
      </trkpt>
      <trkpt lat="46.15649" lon="5.56294">
        <ele>483.6</ele>
        <time>2020-05-24T11:19:52Z</time>
      </trkpt>
      <trkpt lat="46.15653" lon="5.56299">
        <ele>483.5</ele>
        <time>2020-05-24T11:19:54Z</time>
      </trkpt>
      <trkpt lat="46.15656" lon="5.56303">
        <ele>483.5</ele>
        <time>2020-05-24T11:19:55Z</time>
      </trkpt>
      <trkpt lat="46.1566" lon="5.56308">
        <ele>483.4</ele>
        <time>2020-05-24T11:19:56Z</time>
      </trkpt>
      <trkpt lat="46.15664" lon="5.56313">
        <ele>483.4</ele>
        <time>2020-05-24T11:19:57Z</time>
      </trkpt>
      <trkpt lat="46.15667" lon="5.56317">
        <ele>483.4</ele>
        <time>2020-05-24T11:19:58Z</time>
      </trkpt>
      <trkpt lat="46.15672" lon="5.56323">
        <ele>483.3</ele>
        <time>2020-05-24T11:20:00Z</time>
      </trkpt>
      <trkpt lat="46.15676" lon="5.56327">
        <ele>483.3</ele>
        <time>2020-05-24T11:20:01Z</time>
      </trkpt>
      <trkpt lat="46.15682" lon="5.56334">
        <ele>483.2</ele>
        <time>2020-05-24T11:20:03Z</time>
      </trkpt>
      <trkpt lat="46.15686" lon="5.56339">
        <ele>483.2</ele>
        <time>2020-05-24T11:20:05Z</time>
      </trkpt>
      <trkpt lat="46.15691" lon="5.56344">
        <ele>483.2</ele>
        <time>2020-05-24T11:20:06Z</time>
      </trkpt>
      <trkpt lat="46.15693" lon="5.56348">
        <ele>483.2</ele>
        <time>2020-05-24T11:20:07Z</time>
      </trkpt>
      <trkpt lat="46.15698" lon="5.56353">
        <ele>483.2</ele>
        <time>2020-05-24T11:20:09Z</time>
      </trkpt>
      <trkpt lat="46.15703" lon="5.5636">
        <ele>483.1</ele>
        <time>2020-05-24T11:20:10Z</time>
      </trkpt>
      <trkpt lat="46.15707" lon="5.56365">
        <ele>483.1</ele>
        <time>2020-05-24T11:20:12Z</time>
      </trkpt>
      <trkpt lat="46.1571" lon="5.56369">
        <ele>483.1</ele>
        <time>2020-05-24T11:20:13Z</time>
      </trkpt>
      <trkpt lat="46.15713" lon="5.56373">
        <ele>483</ele>
        <time>2020-05-24T11:20:14Z</time>
      </trkpt>
      <trkpt lat="46.15716" lon="5.56377">
        <ele>483</ele>
        <time>2020-05-24T11:20:15Z</time>
      </trkpt>
      <trkpt lat="46.15722" lon="5.56384">
        <ele>483</ele>
        <time>2020-05-24T11:20:17Z</time>
      </trkpt>
      <trkpt lat="46.15725" lon="5.56388">
        <ele>483</ele>
        <time>2020-05-24T11:20:18Z</time>
      </trkpt>
      <trkpt lat="46.15728" lon="5.56394">
        <ele>483</ele>
        <time>2020-05-24T11:20:19Z</time>
      </trkpt>
      <trkpt lat="46.15732" lon="5.56399">
        <ele>482.9</ele>
        <time>2020-05-24T11:20:20Z</time>
      </trkpt>
      <trkpt lat="46.15737" lon="5.56406">
        <ele>482.9</ele>
        <time>2020-05-24T11:20:22Z</time>
      </trkpt>
      <trkpt lat="46.1574" lon="5.5641">
        <ele>482.9</ele>
        <time>2020-05-24T11:20:23Z</time>
      </trkpt>
      <trkpt lat="46.15743" lon="5.56415">
        <ele>482.8</ele>
        <time>2020-05-24T11:20:24Z</time>
      </trkpt>
      <trkpt lat="46.15747" lon="5.5642">
        <ele>482.8</ele>
        <time>2020-05-24T11:20:25Z</time>
      </trkpt>
      <trkpt lat="46.1575" lon="5.56426">
        <ele>482.7</ele>
        <time>2020-05-24T11:20:27Z</time>
      </trkpt>
      <trkpt lat="46.15753" lon="5.56431">
        <ele>482.6</ele>
        <time>2020-05-24T11:20:28Z</time>
      </trkpt>
      <trkpt lat="46.15758" lon="5.56438">
        <ele>482.5</ele>
        <time>2020-05-24T11:20:29Z</time>
      </trkpt>
      <trkpt lat="46.15762" lon="5.56445">
        <ele>482.5</ele>
        <time>2020-05-24T11:20:31Z</time>
      </trkpt>
      <trkpt lat="46.15765" lon="5.56451">
        <ele>482.4</ele>
        <time>2020-05-24T11:20:32Z</time>
      </trkpt>
      <trkpt lat="46.15768" lon="5.56456">
        <ele>482.4</ele>
        <time>2020-05-24T11:20:33Z</time>
      </trkpt>
      <trkpt lat="46.15771" lon="5.5646">
        <ele>482.3</ele>
        <time>2020-05-24T11:20:34Z</time>
      </trkpt>
      <trkpt lat="46.15775" lon="5.56467">
        <ele>482.3</ele>
        <time>2020-05-24T11:20:36Z</time>
      </trkpt>
      <trkpt lat="46.15779" lon="5.56472">
        <ele>482.3</ele>
        <time>2020-05-24T11:20:37Z</time>
      </trkpt>
      <trkpt lat="46.15782" lon="5.56477">
        <ele>482.2</ele>
        <time>2020-05-24T11:20:38Z</time>
      </trkpt>
      <trkpt lat="46.15785" lon="5.56484">
        <ele>482.2</ele>
        <time>2020-05-24T11:20:39Z</time>
      </trkpt>
      <trkpt lat="46.15789" lon="5.56491">
        <ele>482.2</ele>
        <time>2020-05-24T11:20:41Z</time>
      </trkpt>
      <trkpt lat="46.15793" lon="5.565">
        <ele>482.1</ele>
        <time>2020-05-24T11:20:43Z</time>
      </trkpt>
      <trkpt lat="46.15796" lon="5.56504">
        <ele>482.1</ele>
        <time>2020-05-24T11:20:44Z</time>
      </trkpt>
      <trkpt lat="46.15799" lon="5.56509">
        <ele>482</ele>
        <time>2020-05-24T11:20:45Z</time>
      </trkpt>
      <trkpt lat="46.15802" lon="5.56516">
        <ele>482</ele>
        <time>2020-05-24T11:20:47Z</time>
      </trkpt>
      <trkpt lat="46.15806" lon="5.56523">
        <ele>481.9</ele>
        <time>2020-05-24T11:20:48Z</time>
      </trkpt>
      <trkpt lat="46.15808" lon="5.56528">
        <ele>481.9</ele>
        <time>2020-05-24T11:20:49Z</time>
      </trkpt>
      <trkpt lat="46.15812" lon="5.56534">
        <ele>481.9</ele>
        <time>2020-05-24T11:20:50Z</time>
      </trkpt>
      <trkpt lat="46.15816" lon="5.56541">
        <ele>481.8</ele>
        <time>2020-05-24T11:20:52Z</time>
      </trkpt>
      <trkpt lat="46.15819" lon="5.56545">
        <ele>481.8</ele>
        <time>2020-05-24T11:20:53Z</time>
      </trkpt>
      <trkpt lat="46.15822" lon="5.56551">
        <ele>481.7</ele>
        <time>2020-05-24T11:20:55Z</time>
      </trkpt>
      <trkpt lat="46.15826" lon="5.56557">
        <ele>481.7</ele>
        <time>2020-05-24T11:20:56Z</time>
      </trkpt>
      <trkpt lat="46.1583" lon="5.56562">
        <ele>481.6</ele>
        <time>2020-05-24T11:20:58Z</time>
      </trkpt>
      <trkpt lat="46.15834" lon="5.56567">
        <ele>481.6</ele>
        <time>2020-05-24T11:20:59Z</time>
      </trkpt>
      <trkpt lat="46.15837" lon="5.56572">
        <ele>481.5</ele>
        <time>2020-05-24T11:21:00Z</time>
      </trkpt>
      <trkpt lat="46.15841" lon="5.56577">
        <ele>481.4</ele>
        <time>2020-05-24T11:21:01Z</time>
      </trkpt>
      <trkpt lat="46.15846" lon="5.56583">
        <ele>481.4</ele>
        <time>2020-05-24T11:21:03Z</time>
      </trkpt>
      <trkpt lat="46.15848" lon="5.56587">
        <ele>481.3</ele>
        <time>2020-05-24T11:21:04Z</time>
      </trkpt>
      <trkpt lat="46.15852" lon="5.56592">
        <ele>481.3</ele>
        <time>2020-05-24T11:21:05Z</time>
      </trkpt>
      <trkpt lat="46.15857" lon="5.56598">
        <ele>481.2</ele>
        <time>2020-05-24T11:21:07Z</time>
      </trkpt>
      <trkpt lat="46.15862" lon="5.56606">
        <ele>481.2</ele>
        <time>2020-05-24T11:21:09Z</time>
      </trkpt>
      <trkpt lat="46.15866" lon="5.56612">
        <ele>481.1</ele>
        <time>2020-05-24T11:21:10Z</time>
      </trkpt>
      <trkpt lat="46.15869" lon="5.56617">
        <ele>481.1</ele>
        <time>2020-05-24T11:21:11Z</time>
      </trkpt>
      <trkpt lat="46.15873" lon="5.56623">
        <ele>481.1</ele>
        <time>2020-05-24T11:21:13Z</time>
      </trkpt>
      <trkpt lat="46.15877" lon="5.56628">
        <ele>481</ele>
        <time>2020-05-24T11:21:14Z</time>
      </trkpt>
      <trkpt lat="46.1588" lon="5.56632">
        <ele>481</ele>
        <time>2020-05-24T11:21:15Z</time>
      </trkpt>
      <trkpt lat="46.15884" lon="5.56637">
        <ele>481</ele>
        <time>2020-05-24T11:21:17Z</time>
      </trkpt>
      <trkpt lat="46.15887" lon="5.56643">
        <ele>481</ele>
        <time>2020-05-24T11:21:18Z</time>
      </trkpt>
      <trkpt lat="46.15891" lon="5.56649">
        <ele>480.9</ele>
        <time>2020-05-24T11:21:20Z</time>
      </trkpt>
      <trkpt lat="46.15895" lon="5.56654">
        <ele>480.9</ele>
        <time>2020-05-24T11:21:21Z</time>
      </trkpt>
      <trkpt lat="46.15901" lon="5.56661">
        <ele>480.8</ele>
        <time>2020-05-24T11:21:23Z</time>
      </trkpt>
      <trkpt lat="46.15905" lon="5.56666">
        <ele>480.8</ele>
        <time>2020-05-24T11:21:24Z</time>
      </trkpt>
      <trkpt lat="46.15908" lon="5.56669">
        <ele>480.7</ele>
        <time>2020-05-24T11:21:25Z</time>
      </trkpt>
      <trkpt lat="46.15915" lon="5.56674">
        <ele>480.7</ele>
        <time>2020-05-24T11:21:27Z</time>
      </trkpt>
      <trkpt lat="46.15919" lon="5.56677">
        <ele>480.6</ele>
        <time>2020-05-24T11:21:28Z</time>
      </trkpt>
      <trkpt lat="46.15927" lon="5.56681">
        <ele>480.5</ele>
        <time>2020-05-24T11:21:30Z</time>
      </trkpt>
      <trkpt lat="46.15931" lon="5.56684">
        <ele>480.5</ele>
        <time>2020-05-24T11:21:31Z</time>
      </trkpt>
      <trkpt lat="46.15937" lon="5.56687">
        <ele>480.4</ele>
        <time>2020-05-24T11:21:33Z</time>
      </trkpt>
      <trkpt lat="46.15942" lon="5.56691">
        <ele>480.4</ele>
        <time>2020-05-24T11:21:34Z</time>
      </trkpt>
      <trkpt lat="46.15948" lon="5.56696">
        <ele>480.3</ele>
        <time>2020-05-24T11:21:36Z</time>
      </trkpt>
      <trkpt lat="46.15955" lon="5.567">
        <ele>480.3</ele>
        <time>2020-05-24T11:21:38Z</time>
      </trkpt>
      <trkpt lat="46.15959" lon="5.56703">
        <ele>480.2</ele>
        <time>2020-05-24T11:21:39Z</time>
      </trkpt>
      <trkpt lat="46.15962" lon="5.56706">
        <ele>480.2</ele>
        <time>2020-05-24T11:21:40Z</time>
      </trkpt>
      <trkpt lat="46.15966" lon="5.56708">
        <ele>480.2</ele>
        <time>2020-05-24T11:21:41Z</time>
      </trkpt>
      <trkpt lat="46.15972" lon="5.56712">
        <ele>480.2</ele>
        <time>2020-05-24T11:21:43Z</time>
      </trkpt>
      <trkpt lat="46.15977" lon="5.56716">
        <ele>480.1</ele>
        <time>2020-05-24T11:21:44Z</time>
      </trkpt>
      <trkpt lat="46.15983" lon="5.5672">
        <ele>480.1</ele>
        <time>2020-05-24T11:21:46Z</time>
      </trkpt>
      <trkpt lat="46.15988" lon="5.56723">
        <ele>480</ele>
        <time>2020-05-24T11:21:47Z</time>
      </trkpt>
      <trkpt lat="46.15993" lon="5.56727">
        <ele>480</ele>
        <time>2020-05-24T11:21:48Z</time>
      </trkpt>
      <trkpt lat="46.15997" lon="5.5673">
        <ele>479.9</ele>
        <time>2020-05-24T11:21:50Z</time>
      </trkpt>
      <trkpt lat="46.16001" lon="5.56733">
        <ele>479.9</ele>
        <time>2020-05-24T11:21:51Z</time>
      </trkpt>
      <trkpt lat="46.16005" lon="5.56735">
        <ele>479.8</ele>
        <time>2020-05-24T11:21:52Z</time>
      </trkpt>
      <trkpt lat="46.1601" lon="5.56738">
        <ele>479.8</ele>
        <time>2020-05-24T11:21:54Z</time>
      </trkpt>
      <trkpt lat="46.16014" lon="5.56741">
        <ele>479.8</ele>
        <time>2020-05-24T11:21:55Z</time>
      </trkpt>
      <trkpt lat="46.16018" lon="5.56743">
        <ele>479.7</ele>
        <time>2020-05-24T11:21:56Z</time>
      </trkpt>
      <trkpt lat="46.16022" lon="5.56745">
        <ele>479.7</ele>
        <time>2020-05-24T11:21:57Z</time>
      </trkpt>
      <trkpt lat="46.16027" lon="5.56748">
        <ele>479.7</ele>
        <time>2020-05-24T11:21:59Z</time>
      </trkpt>
      <trkpt lat="46.1603" lon="5.5675">
        <ele>479.7</ele>
        <time>2020-05-24T11:22:00Z</time>
      </trkpt>
      <trkpt lat="46.16036" lon="5.56753">
        <ele>479.7</ele>
        <time>2020-05-24T11:22:01Z</time>
      </trkpt>
      <trkpt lat="46.16043" lon="5.56758">
        <ele>479.7</ele>
        <time>2020-05-24T11:22:03Z</time>
      </trkpt>
      <trkpt lat="46.16047" lon="5.5676">
        <ele>479.7</ele>
        <time>2020-05-24T11:22:04Z</time>
      </trkpt>
      <trkpt lat="46.16051" lon="5.56763">
        <ele>479.7</ele>
        <time>2020-05-24T11:22:06Z</time>
      </trkpt>
      <trkpt lat="46.16055" lon="5.56766">
        <ele>479.7</ele>
        <time>2020-05-24T11:22:07Z</time>
      </trkpt>
      <trkpt lat="46.16059" lon="5.56769">
        <ele>479.7</ele>
        <time>2020-05-24T11:22:08Z</time>
      </trkpt>
      <trkpt lat="46.16062" lon="5.56773">
        <ele>479.7</ele>
        <time>2020-05-24T11:22:09Z</time>
      </trkpt>
      <trkpt lat="46.16066" lon="5.56776">
        <ele>479.7</ele>
        <time>2020-05-24T11:22:11Z</time>
      </trkpt>
      <trkpt lat="46.16068" lon="5.56777">
        <ele>479.7</ele>
        <time>2020-05-24T11:22:13Z</time>
      </trkpt>
      <trkpt lat="46.16068" lon="5.56778">
        <ele>479.7</ele>
        <time>2020-05-24T11:22:15Z</time>
      </trkpt>
      <trkpt lat="46.16069" lon="5.5678">
        <ele>479.7</ele>
        <time>2020-05-24T11:22:16Z</time>
      </trkpt>
      <trkpt lat="46.16069" lon="5.56781">
        <ele>479.7</ele>
        <time>2020-05-24T11:22:17Z</time>
      </trkpt>
      <trkpt lat="46.16069" lon="5.56781">
        <ele>479.7</ele>
        <time>2020-05-24T11:22:18Z</time>
      </trkpt>
      <trkpt lat="46.16069" lon="5.56781">
        <ele>479.7</ele>
        <time>2020-05-24T11:22:19Z</time>
      </trkpt>
      <trkpt lat="46.16069" lon="5.56781">
        <ele>479.7</ele>
        <time>2020-05-24T11:22:21Z</time>
      </trkpt>
      <trkpt lat="46.16069" lon="5.56781">
        <ele>479.7</ele>
        <time>2020-05-24T11:22:23Z</time>
      </trkpt>
      <trkpt lat="46.16069" lon="5.56781">
        <ele>479.7</ele>
        <time>2020-05-24T11:22:24Z</time>
      </trkpt>
      <trkpt lat="46.16069" lon="5.5678">
        <ele>479.7</ele>
        <time>2020-05-24T11:22:26Z</time>
      </trkpt>
      <trkpt lat="46.16072" lon="5.56785">
        <ele>479.7</ele>
        <time>2020-05-24T11:22:55Z</time>
      </trkpt>
      <trkpt lat="46.16071" lon="5.56782">
        <ele>479.7</ele>
        <time>2020-05-24T11:22:57Z</time>
      </trkpt>
      <trkpt lat="46.1607" lon="5.56782">
        <ele>479.7</ele>
        <time>2020-05-24T11:22:58Z</time>
      </trkpt>
      <trkpt lat="46.1607" lon="5.56787">
        <ele>479.7</ele>
        <time>2020-05-24T11:22:59Z</time>
      </trkpt>
      <trkpt lat="46.16068" lon="5.568">
        <ele>479.7</ele>
        <time>2020-05-24T11:23:01Z</time>
      </trkpt>
      <trkpt lat="46.16065" lon="5.56809">
        <ele>479.8</ele>
        <time>2020-05-24T11:23:03Z</time>
      </trkpt>
      <trkpt lat="46.16064" lon="5.56813">
        <ele>479.8</ele>
        <time>2020-05-24T11:23:04Z</time>
      </trkpt>
      <trkpt lat="46.16063" lon="5.56819">
        <ele>479.8</ele>
        <time>2020-05-24T11:23:05Z</time>
      </trkpt>
      <trkpt lat="46.1606" lon="5.56826">
        <ele>479.9</ele>
        <time>2020-05-24T11:23:07Z</time>
      </trkpt>
      <trkpt lat="46.16058" lon="5.56831">
        <ele>479.9</ele>
        <time>2020-05-24T11:23:09Z</time>
      </trkpt>
      <trkpt lat="46.16056" lon="5.56837">
        <ele>479.9</ele>
        <time>2020-05-24T11:23:10Z</time>
      </trkpt>
      <trkpt lat="46.16053" lon="5.56845">
        <ele>480</ele>
        <time>2020-05-24T11:23:12Z</time>
      </trkpt>
      <trkpt lat="46.16051" lon="5.5685">
        <ele>480</ele>
        <time>2020-05-24T11:23:13Z</time>
      </trkpt>
      <trkpt lat="46.1605" lon="5.56856">
        <ele>480.1</ele>
        <time>2020-05-24T11:23:14Z</time>
      </trkpt>
      <trkpt lat="46.16048" lon="5.56864">
        <ele>480.1</ele>
        <time>2020-05-24T11:23:16Z</time>
      </trkpt>
      <trkpt lat="46.16046" lon="5.56871">
        <ele>480.2</ele>
        <time>2020-05-24T11:23:17Z</time>
      </trkpt>
      <trkpt lat="46.16044" lon="5.56877">
        <ele>480.3</ele>
        <time>2020-05-24T11:23:18Z</time>
      </trkpt>
      <trkpt lat="46.16041" lon="5.56886">
        <ele>480.4</ele>
        <time>2020-05-24T11:23:20Z</time>
      </trkpt>
      <trkpt lat="46.16039" lon="5.56892">
        <ele>480.4</ele>
        <time>2020-05-24T11:23:21Z</time>
      </trkpt>
      <trkpt lat="46.16035" lon="5.56902">
        <ele>480.6</ele>
        <time>2020-05-24T11:23:23Z</time>
      </trkpt>
      <trkpt lat="46.16032" lon="5.56909">
        <ele>480.6</ele>
        <time>2020-05-24T11:23:25Z</time>
      </trkpt>
      <trkpt lat="46.1603" lon="5.56915">
        <ele>480.7</ele>
        <time>2020-05-24T11:23:26Z</time>
      </trkpt>
      <trkpt lat="46.16029" lon="5.5692">
        <ele>480.8</ele>
        <time>2020-05-24T11:23:27Z</time>
      </trkpt>
      <trkpt lat="46.16026" lon="5.56926">
        <ele>480.9</ele>
        <time>2020-05-24T11:23:28Z</time>
      </trkpt>
      <trkpt lat="46.16023" lon="5.56935">
        <ele>481</ele>
        <time>2020-05-24T11:23:30Z</time>
      </trkpt>
      <trkpt lat="46.16021" lon="5.56941">
        <ele>481.1</ele>
        <time>2020-05-24T11:23:31Z</time>
      </trkpt>
      <trkpt lat="46.1602" lon="5.56946">
        <ele>481.2</ele>
        <time>2020-05-24T11:23:32Z</time>
      </trkpt>
      <trkpt lat="46.16017" lon="5.56954">
        <ele>481.4</ele>
        <time>2020-05-24T11:23:34Z</time>
      </trkpt>
      <trkpt lat="46.16016" lon="5.56958">
        <ele>481.5</ele>
        <time>2020-05-24T11:23:35Z</time>
      </trkpt>
      <trkpt lat="46.16014" lon="5.56964">
        <ele>481.6</ele>
        <time>2020-05-24T11:23:36Z</time>
      </trkpt>
      <trkpt lat="46.16012" lon="5.56973">
        <ele>481.8</ele>
        <time>2020-05-24T11:23:38Z</time>
      </trkpt>
      <trkpt lat="46.1601" lon="5.56977">
        <ele>481.9</ele>
        <time>2020-05-24T11:23:39Z</time>
      </trkpt>
      <trkpt lat="46.16009" lon="5.56981">
        <ele>482</ele>
        <time>2020-05-24T11:23:40Z</time>
      </trkpt>
      <trkpt lat="46.16007" lon="5.56989">
        <ele>482.3</ele>
        <time>2020-05-24T11:23:42Z</time>
      </trkpt>
      <trkpt lat="46.16006" lon="5.56995">
        <ele>482.5</ele>
        <time>2020-05-24T11:23:43Z</time>
      </trkpt>
      <trkpt lat="46.16003" lon="5.57001">
        <ele>482.7</ele>
        <time>2020-05-24T11:23:45Z</time>
      </trkpt>
      <trkpt lat="46.16003" lon="5.57004">
        <ele>482.8</ele>
        <time>2020-05-24T11:23:46Z</time>
      </trkpt>
      <trkpt lat="46.16002" lon="5.57011">
        <ele>483.2</ele>
        <time>2020-05-24T11:23:48Z</time>
      </trkpt>
      <trkpt lat="46.16002" lon="5.57017">
        <ele>483.3</ele>
        <time>2020-05-24T11:23:50Z</time>
      </trkpt>
      <trkpt lat="46.16005" lon="5.57024">
        <ele>483.3</ele>
        <time>2020-05-24T11:23:52Z</time>
      </trkpt>
      <trkpt lat="46.16007" lon="5.57029">
        <ele>483.3</ele>
        <time>2020-05-24T11:23:53Z</time>
      </trkpt>
      <trkpt lat="46.1601" lon="5.57033">
        <ele>483.3</ele>
        <time>2020-05-24T11:23:55Z</time>
      </trkpt>
      <trkpt lat="46.16013" lon="5.57036">
        <ele>483.3</ele>
        <time>2020-05-24T11:23:56Z</time>
      </trkpt>
      <trkpt lat="46.16016" lon="5.57039">
        <ele>483.3</ele>
        <time>2020-05-24T11:23:58Z</time>
      </trkpt>
      <trkpt lat="46.16021" lon="5.57043">
        <ele>483.3</ele>
        <time>2020-05-24T11:23:59Z</time>
      </trkpt>
      <trkpt lat="46.16025" lon="5.57047">
        <ele>483.2</ele>
        <time>2020-05-24T11:24:00Z</time>
      </trkpt>
      <trkpt lat="46.16029" lon="5.57053">
        <ele>483.2</ele>
        <time>2020-05-24T11:24:02Z</time>
      </trkpt>
      <trkpt lat="46.16033" lon="5.57059">
        <ele>483.1</ele>
        <time>2020-05-24T11:24:04Z</time>
      </trkpt>
      <trkpt lat="46.16036" lon="5.57062">
        <ele>483.1</ele>
        <time>2020-05-24T11:24:05Z</time>
      </trkpt>
      <trkpt lat="46.1604" lon="5.57067">
        <ele>483.1</ele>
        <time>2020-05-24T11:24:06Z</time>
      </trkpt>
      <trkpt lat="46.16043" lon="5.57073">
        <ele>483</ele>
        <time>2020-05-24T11:24:08Z</time>
      </trkpt>
      <trkpt lat="46.16046" lon="5.57076">
        <ele>483</ele>
        <time>2020-05-24T11:24:09Z</time>
      </trkpt>
      <trkpt lat="46.16048" lon="5.5708">
        <ele>483</ele>
        <time>2020-05-24T11:24:10Z</time>
      </trkpt>
      <trkpt lat="46.16051" lon="5.57083">
        <ele>483</ele>
        <time>2020-05-24T11:24:11Z</time>
      </trkpt>
      <trkpt lat="46.16055" lon="5.57088">
        <ele>482.9</ele>
        <time>2020-05-24T11:24:12Z</time>
      </trkpt>
      <trkpt lat="46.16059" lon="5.57094">
        <ele>482.9</ele>
        <time>2020-05-24T11:24:14Z</time>
      </trkpt>
      <trkpt lat="46.16064" lon="5.571">
        <ele>482.8</ele>
        <time>2020-05-24T11:24:15Z</time>
      </trkpt>
      <trkpt lat="46.16069" lon="5.57106">
        <ele>482.8</ele>
        <time>2020-05-24T11:24:17Z</time>
      </trkpt>
      <trkpt lat="46.16073" lon="5.5711">
        <ele>482.8</ele>
        <time>2020-05-24T11:24:18Z</time>
      </trkpt>
      <trkpt lat="46.1608" lon="5.57118">
        <ele>482.8</ele>
        <time>2020-05-24T11:24:20Z</time>
      </trkpt>
      <trkpt lat="46.16084" lon="5.57122">
        <ele>482.8</ele>
        <time>2020-05-24T11:24:21Z</time>
      </trkpt>
      <trkpt lat="46.1609" lon="5.57129">
        <ele>482.9</ele>
        <time>2020-05-24T11:24:23Z</time>
      </trkpt>
      <trkpt lat="46.16093" lon="5.57132">
        <ele>482.9</ele>
        <time>2020-05-24T11:24:24Z</time>
      </trkpt>
      <trkpt lat="46.16096" lon="5.57136">
        <ele>482.9</ele>
        <time>2020-05-24T11:24:25Z</time>
      </trkpt>
      <trkpt lat="46.16102" lon="5.57145">
        <ele>482.9</ele>
        <time>2020-05-24T11:24:27Z</time>
      </trkpt>
      <trkpt lat="46.16106" lon="5.57149">
        <ele>482.9</ele>
        <time>2020-05-24T11:24:28Z</time>
      </trkpt>
      <trkpt lat="46.16113" lon="5.57158">
        <ele>482.9</ele>
        <time>2020-05-24T11:24:30Z</time>
      </trkpt>
      <trkpt lat="46.16117" lon="5.57164">
        <ele>482.9</ele>
        <time>2020-05-24T11:24:31Z</time>
      </trkpt>
      <trkpt lat="46.16121" lon="5.57169">
        <ele>482.9</ele>
        <time>2020-05-24T11:24:33Z</time>
      </trkpt>
      <trkpt lat="46.16125" lon="5.57172">
        <ele>482.9</ele>
        <time>2020-05-24T11:24:34Z</time>
      </trkpt>
      <trkpt lat="46.16129" lon="5.57176">
        <ele>482.9</ele>
        <time>2020-05-24T11:24:36Z</time>
      </trkpt>
      <trkpt lat="46.16133" lon="5.5718">
        <ele>482.8</ele>
        <time>2020-05-24T11:24:37Z</time>
      </trkpt>
      <trkpt lat="46.16138" lon="5.57187">
        <ele>482.8</ele>
        <time>2020-05-24T11:24:39Z</time>
      </trkpt>
      <trkpt lat="46.16141" lon="5.57191">
        <ele>482.8</ele>
        <time>2020-05-24T11:24:40Z</time>
      </trkpt>
      <trkpt lat="46.16148" lon="5.57197">
        <ele>482.7</ele>
        <time>2020-05-24T11:24:42Z</time>
      </trkpt>
      <trkpt lat="46.16152" lon="5.57201">
        <ele>482.7</ele>
        <time>2020-05-24T11:24:43Z</time>
      </trkpt>
      <trkpt lat="46.16156" lon="5.57205">
        <ele>482.7</ele>
        <time>2020-05-24T11:24:44Z</time>
      </trkpt>
      <trkpt lat="46.16164" lon="5.57212">
        <ele>482.7</ele>
        <time>2020-05-24T11:24:46Z</time>
      </trkpt>
      <trkpt lat="46.16171" lon="5.5722">
        <ele>482.6</ele>
        <time>2020-05-24T11:24:48Z</time>
      </trkpt>
      <trkpt lat="46.16174" lon="5.57223">
        <ele>482.6</ele>
        <time>2020-05-24T11:24:49Z</time>
      </trkpt>
      <trkpt lat="46.16181" lon="5.5723">
        <ele>482.6</ele>
        <time>2020-05-24T11:24:51Z</time>
      </trkpt>
      <trkpt lat="46.16185" lon="5.57233">
        <ele>482.7</ele>
        <time>2020-05-24T11:24:52Z</time>
      </trkpt>
      <trkpt lat="46.16192" lon="5.5724">
        <ele>482.7</ele>
        <time>2020-05-24T11:24:54Z</time>
      </trkpt>
      <trkpt lat="46.16195" lon="5.57242">
        <ele>482.7</ele>
        <time>2020-05-24T11:24:55Z</time>
      </trkpt>
      <trkpt lat="46.16198" lon="5.57246">
        <ele>482.7</ele>
        <time>2020-05-24T11:24:56Z</time>
      </trkpt>
      <trkpt lat="46.16204" lon="5.57252">
        <ele>482.7</ele>
        <time>2020-05-24T11:24:58Z</time>
      </trkpt>
      <trkpt lat="46.16211" lon="5.57259">
        <ele>482.6</ele>
        <time>2020-05-24T11:25:00Z</time>
      </trkpt>
      <trkpt lat="46.16214" lon="5.57263">
        <ele>482.6</ele>
        <time>2020-05-24T11:25:01Z</time>
      </trkpt>
      <trkpt lat="46.16218" lon="5.57269">
        <ele>482.5</ele>
        <time>2020-05-24T11:25:02Z</time>
      </trkpt>
      <trkpt lat="46.1622" lon="5.57272">
        <ele>482.5</ele>
        <time>2020-05-24T11:25:03Z</time>
      </trkpt>
      <trkpt lat="46.16225" lon="5.57279">
        <ele>482.4</ele>
        <time>2020-05-24T11:25:05Z</time>
      </trkpt>
      <trkpt lat="46.16229" lon="5.57285">
        <ele>482.4</ele>
        <time>2020-05-24T11:25:06Z</time>
      </trkpt>
      <trkpt lat="46.16231" lon="5.57288">
        <ele>482.4</ele>
        <time>2020-05-24T11:25:07Z</time>
      </trkpt>
      <trkpt lat="46.16234" lon="5.57292">
        <ele>482.3</ele>
        <time>2020-05-24T11:25:08Z</time>
      </trkpt>
      <trkpt lat="46.16236" lon="5.57296">
        <ele>482.3</ele>
        <time>2020-05-24T11:25:09Z</time>
      </trkpt>
      <trkpt lat="46.1624" lon="5.57302">
        <ele>482.2</ele>
        <time>2020-05-24T11:25:11Z</time>
      </trkpt>
      <trkpt lat="46.16242" lon="5.57307">
        <ele>482.2</ele>
        <time>2020-05-24T11:25:12Z</time>
      </trkpt>
      <trkpt lat="46.16244" lon="5.5731">
        <ele>482.2</ele>
        <time>2020-05-24T11:25:13Z</time>
      </trkpt>
      <trkpt lat="46.16248" lon="5.57316">
        <ele>482.1</ele>
        <time>2020-05-24T11:25:15Z</time>
      </trkpt>
      <trkpt lat="46.16252" lon="5.57322">
        <ele>482</ele>
        <time>2020-05-24T11:25:16Z</time>
      </trkpt>
      <trkpt lat="46.16255" lon="5.57329">
        <ele>481.9</ele>
        <time>2020-05-24T11:25:18Z</time>
      </trkpt>
      <trkpt lat="46.16258" lon="5.57335">
        <ele>481.8</ele>
        <time>2020-05-24T11:25:19Z</time>
      </trkpt>
      <trkpt lat="46.16261" lon="5.57342">
        <ele>481.7</ele>
        <time>2020-05-24T11:25:20Z</time>
      </trkpt>
      <trkpt lat="46.16266" lon="5.57352">
        <ele>481.5</ele>
        <time>2020-05-24T11:25:22Z</time>
      </trkpt>
      <trkpt lat="46.16268" lon="5.57359">
        <ele>481.4</ele>
        <time>2020-05-24T11:25:23Z</time>
      </trkpt>
      <trkpt lat="46.1627" lon="5.57363">
        <ele>481.4</ele>
        <time>2020-05-24T11:25:24Z</time>
      </trkpt>
      <trkpt lat="46.16274" lon="5.57373">
        <ele>481.2</ele>
        <time>2020-05-24T11:25:26Z</time>
      </trkpt>
      <trkpt lat="46.16277" lon="5.5738">
        <ele>481.1</ele>
        <time>2020-05-24T11:25:27Z</time>
      </trkpt>
      <trkpt lat="46.16282" lon="5.57392">
        <ele>480.9</ele>
        <time>2020-05-24T11:25:29Z</time>
      </trkpt>
      <trkpt lat="46.16291" lon="5.57411">
        <ele>480.5</ele>
        <time>2020-05-24T11:25:31Z</time>
      </trkpt>
      <trkpt lat="46.16297" lon="5.57425">
        <ele>480.3</ele>
        <time>2020-05-24T11:25:33Z</time>
      </trkpt>
      <trkpt lat="46.16302" lon="5.57439">
        <ele>480.1</ele>
        <time>2020-05-24T11:25:35Z</time>
      </trkpt>
      <trkpt lat="46.16305" lon="5.57447">
        <ele>480.1</ele>
        <time>2020-05-24T11:25:36Z</time>
      </trkpt>
      <trkpt lat="46.16309" lon="5.57461">
        <ele>480</ele>
        <time>2020-05-24T11:25:38Z</time>
      </trkpt>
      <trkpt lat="46.16311" lon="5.57465">
        <ele>479.9</ele>
        <time>2020-05-24T11:25:39Z</time>
      </trkpt>
      <trkpt lat="46.16313" lon="5.57468">
        <ele>479.9</ele>
        <time>2020-05-24T11:25:40Z</time>
      </trkpt>
      <trkpt lat="46.16319" lon="5.57483">
        <ele>479.9</ele>
        <time>2020-05-24T11:25:42Z</time>
      </trkpt>
      <trkpt lat="46.1632" lon="5.57489">
        <ele>479.9</ele>
        <time>2020-05-24T11:25:43Z</time>
      </trkpt>
      <trkpt lat="46.16323" lon="5.57497">
        <ele>479.8</ele>
        <time>2020-05-24T11:25:45Z</time>
      </trkpt>
      <trkpt lat="46.16325" lon="5.57505">
        <ele>479.8</ele>
        <time>2020-05-24T11:25:46Z</time>
      </trkpt>
      <trkpt lat="46.16327" lon="5.57511">
        <ele>479.8</ele>
        <time>2020-05-24T11:25:47Z</time>
      </trkpt>
      <trkpt lat="46.1633" lon="5.57516">
        <ele>479.8</ele>
        <time>2020-05-24T11:25:48Z</time>
      </trkpt>
      <trkpt lat="46.16332" lon="5.57526">
        <ele>479.8</ele>
        <time>2020-05-24T11:25:50Z</time>
      </trkpt>
      <trkpt lat="46.16333" lon="5.57535">
        <ele>479.8</ele>
        <time>2020-05-24T11:25:52Z</time>
      </trkpt>
      <trkpt lat="46.16333" lon="5.57543">
        <ele>479.8</ele>
        <time>2020-05-24T11:25:53Z</time>
      </trkpt>
      <trkpt lat="46.16334" lon="5.57549">
        <ele>479.8</ele>
        <time>2020-05-24T11:25:54Z</time>
      </trkpt>
      <trkpt lat="46.16335" lon="5.57554">
        <ele>479.8</ele>
        <time>2020-05-24T11:25:55Z</time>
      </trkpt>
      <trkpt lat="46.16335" lon="5.57559">
        <ele>479.8</ele>
        <time>2020-05-24T11:25:56Z</time>
      </trkpt>
      <trkpt lat="46.16337" lon="5.57572">
        <ele>479.8</ele>
        <time>2020-05-24T11:25:58Z</time>
      </trkpt>
      <trkpt lat="46.16338" lon="5.57581">
        <ele>479.9</ele>
        <time>2020-05-24T11:25:59Z</time>
      </trkpt>
      <trkpt lat="46.16338" lon="5.57591">
        <ele>479.9</ele>
        <time>2020-05-24T11:26:01Z</time>
      </trkpt>
      <trkpt lat="46.16337" lon="5.57606">
        <ele>479.7</ele>
        <time>2020-05-24T11:26:03Z</time>
      </trkpt>
      <trkpt lat="46.16334" lon="5.5761">
        <ele>479.6</ele>
        <time>2020-05-24T11:26:04Z</time>
      </trkpt>
      <trkpt lat="46.16331" lon="5.57616">
        <ele>479.5</ele>
        <time>2020-05-24T11:26:06Z</time>
      </trkpt>
      <trkpt lat="46.16327" lon="5.57623">
        <ele>479.5</ele>
        <time>2020-05-24T11:26:07Z</time>
      </trkpt>
      <trkpt lat="46.16326" lon="5.57627">
        <ele>479.4</ele>
        <time>2020-05-24T11:26:08Z</time>
      </trkpt>
      <trkpt lat="46.16323" lon="5.57635">
        <ele>479.4</ele>
        <time>2020-05-24T11:26:10Z</time>
      </trkpt>
      <trkpt lat="46.1632" lon="5.57646">
        <ele>479.3</ele>
        <time>2020-05-24T11:26:12Z</time>
      </trkpt>
      <trkpt lat="46.16317" lon="5.57653">
        <ele>479.3</ele>
        <time>2020-05-24T11:26:13Z</time>
      </trkpt>
      <trkpt lat="46.16313" lon="5.57657">
        <ele>479.3</ele>
        <time>2020-05-24T11:26:15Z</time>
      </trkpt>
      <trkpt lat="46.16309" lon="5.5766">
        <ele>479.2</ele>
        <time>2020-05-24T11:26:17Z</time>
      </trkpt>
      <trkpt lat="46.16304" lon="5.57661">
        <ele>479.2</ele>
        <time>2020-05-24T11:26:18Z</time>
      </trkpt>
      <trkpt lat="46.16301" lon="5.5766">
        <ele>479.2</ele>
        <time>2020-05-24T11:26:19Z</time>
      </trkpt>
      <trkpt lat="46.16294" lon="5.57663">
        <ele>479.2</ele>
        <time>2020-05-24T11:26:21Z</time>
      </trkpt>
      <trkpt lat="46.16285" lon="5.57668">
        <ele>479.2</ele>
        <time>2020-05-24T11:26:23Z</time>
      </trkpt>
      <trkpt lat="46.16281" lon="5.5767">
        <ele>479.2</ele>
        <time>2020-05-24T11:26:24Z</time>
      </trkpt>
      <trkpt lat="46.16274" lon="5.57672">
        <ele>479.2</ele>
        <time>2020-05-24T11:26:26Z</time>
      </trkpt>
      <trkpt lat="46.16266" lon="5.57675">
        <ele>479.3</ele>
        <time>2020-05-24T11:26:28Z</time>
      </trkpt>
      <trkpt lat="46.16262" lon="5.57678">
        <ele>479.3</ele>
        <time>2020-05-24T11:26:29Z</time>
      </trkpt>
      <trkpt lat="46.16256" lon="5.57682">
        <ele>479.4</ele>
        <time>2020-05-24T11:26:31Z</time>
      </trkpt>
      <trkpt lat="46.16252" lon="5.57684">
        <ele>479.4</ele>
        <time>2020-05-24T11:26:32Z</time>
      </trkpt>
      <trkpt lat="46.16249" lon="5.57686">
        <ele>479.5</ele>
        <time>2020-05-24T11:26:33Z</time>
      </trkpt>
      <trkpt lat="46.16243" lon="5.57691">
        <ele>479.5</ele>
        <time>2020-05-24T11:26:35Z</time>
      </trkpt>
      <trkpt lat="46.16239" lon="5.57695">
        <ele>479.6</ele>
        <time>2020-05-24T11:26:37Z</time>
      </trkpt>
      <trkpt lat="46.16235" lon="5.57698">
        <ele>479.7</ele>
        <time>2020-05-24T11:26:38Z</time>
      </trkpt>
      <trkpt lat="46.16232" lon="5.577">
        <ele>479.7</ele>
        <time>2020-05-24T11:26:39Z</time>
      </trkpt>
      <trkpt lat="46.16229" lon="5.57702">
        <ele>479.7</ele>
        <time>2020-05-24T11:26:40Z</time>
      </trkpt>
      <trkpt lat="46.16227" lon="5.57704">
        <ele>479.8</ele>
        <time>2020-05-24T11:26:41Z</time>
      </trkpt>
      <trkpt lat="46.16221" lon="5.57707">
        <ele>479.9</ele>
        <time>2020-05-24T11:26:43Z</time>
      </trkpt>
      <trkpt lat="46.16219" lon="5.57709">
        <ele>480</ele>
        <time>2020-05-24T11:26:44Z</time>
      </trkpt>
      <trkpt lat="46.16215" lon="5.5771">
        <ele>480</ele>
        <time>2020-05-24T11:26:45Z</time>
      </trkpt>
      <trkpt lat="46.1621" lon="5.57714">
        <ele>480.2</ele>
        <time>2020-05-24T11:26:47Z</time>
      </trkpt>
      <trkpt lat="46.16207" lon="5.57716">
        <ele>480.3</ele>
        <time>2020-05-24T11:26:48Z</time>
      </trkpt>
      <trkpt lat="46.162" lon="5.5772">
        <ele>480.5</ele>
        <time>2020-05-24T11:26:50Z</time>
      </trkpt>
      <trkpt lat="46.16196" lon="5.57723">
        <ele>480.6</ele>
        <time>2020-05-24T11:26:52Z</time>
      </trkpt>
      <trkpt lat="46.16192" lon="5.57726">
        <ele>480.7</ele>
        <time>2020-05-24T11:26:53Z</time>
      </trkpt>
      <trkpt lat="46.16189" lon="5.57729">
        <ele>480.8</ele>
        <time>2020-05-24T11:26:54Z</time>
      </trkpt>
      <trkpt lat="46.16183" lon="5.57736">
        <ele>480.8</ele>
        <time>2020-05-24T11:26:56Z</time>
      </trkpt>
      <trkpt lat="46.1618" lon="5.57739">
        <ele>480.8</ele>
        <time>2020-05-24T11:26:57Z</time>
      </trkpt>
      <trkpt lat="46.16175" lon="5.57745">
        <ele>480.8</ele>
        <time>2020-05-24T11:26:59Z</time>
      </trkpt>
      <trkpt lat="46.16172" lon="5.57749">
        <ele>480.7</ele>
        <time>2020-05-24T11:27:00Z</time>
      </trkpt>
      <trkpt lat="46.16169" lon="5.57753">
        <ele>480.7</ele>
        <time>2020-05-24T11:27:01Z</time>
      </trkpt>
      <trkpt lat="46.16163" lon="5.57761">
        <ele>480.6</ele>
        <time>2020-05-24T11:27:03Z</time>
      </trkpt>
      <trkpt lat="46.16155" lon="5.5777">
        <ele>480.4</ele>
        <time>2020-05-24T11:27:04Z</time>
      </trkpt>
      <trkpt lat="46.16151" lon="5.57776">
        <ele>480.4</ele>
        <time>2020-05-24T11:27:05Z</time>
      </trkpt>
      <trkpt lat="46.16147" lon="5.57781">
        <ele>480.4</ele>
        <time>2020-05-24T11:27:06Z</time>
      </trkpt>
      <trkpt lat="46.16143" lon="5.57786">
        <ele>480.5</ele>
        <time>2020-05-24T11:27:08Z</time>
      </trkpt>
      <trkpt lat="46.1614" lon="5.5779">
        <ele>480.5</ele>
        <time>2020-05-24T11:27:10Z</time>
      </trkpt>
      <trkpt lat="46.16134" lon="5.57799">
        <ele>480.5</ele>
        <time>2020-05-24T11:27:12Z</time>
      </trkpt>
      <trkpt lat="46.16129" lon="5.57807">
        <ele>480.6</ele>
        <time>2020-05-24T11:27:14Z</time>
      </trkpt>
      <trkpt lat="46.16126" lon="5.57811">
        <ele>480.6</ele>
        <time>2020-05-24T11:27:15Z</time>
      </trkpt>
      <trkpt lat="46.16118" lon="5.57821">
        <ele>480.6</ele>
        <time>2020-05-24T11:27:17Z</time>
      </trkpt>
      <trkpt lat="46.16113" lon="5.57829">
        <ele>480.6</ele>
        <time>2020-05-24T11:27:19Z</time>
      </trkpt>
      <trkpt lat="46.16112" lon="5.57832">
        <ele>480.6</ele>
        <time>2020-05-24T11:27:20Z</time>
      </trkpt>
      <trkpt lat="46.16108" lon="5.57838">
        <ele>480.6</ele>
        <time>2020-05-24T11:27:21Z</time>
      </trkpt>
      <trkpt lat="46.16101" lon="5.57847">
        <ele>480.5</ele>
        <time>2020-05-24T11:27:23Z</time>
      </trkpt>
      <trkpt lat="46.16098" lon="5.57851">
        <ele>480.5</ele>
        <time>2020-05-24T11:27:24Z</time>
      </trkpt>
      <trkpt lat="46.16095" lon="5.57856">
        <ele>480.5</ele>
        <time>2020-05-24T11:27:25Z</time>
      </trkpt>
      <trkpt lat="46.16091" lon="5.57865">
        <ele>480.5</ele>
        <time>2020-05-24T11:27:27Z</time>
      </trkpt>
      <trkpt lat="46.16088" lon="5.5787">
        <ele>480.5</ele>
        <time>2020-05-24T11:27:28Z</time>
      </trkpt>
      <trkpt lat="46.16086" lon="5.57874">
        <ele>480.4</ele>
        <time>2020-05-24T11:27:29Z</time>
      </trkpt>
      <trkpt lat="46.16083" lon="5.57881">
        <ele>480.4</ele>
        <time>2020-05-24T11:27:31Z</time>
      </trkpt>
      <trkpt lat="46.1608" lon="5.57886">
        <ele>480.4</ele>
        <time>2020-05-24T11:27:32Z</time>
      </trkpt>
      <trkpt lat="46.16077" lon="5.57894">
        <ele>480.4</ele>
        <time>2020-05-24T11:27:34Z</time>
      </trkpt>
      <trkpt lat="46.16074" lon="5.579">
        <ele>480.3</ele>
        <time>2020-05-24T11:27:35Z</time>
      </trkpt>
      <trkpt lat="46.16072" lon="5.57905">
        <ele>480.3</ele>
        <time>2020-05-24T11:27:36Z</time>
      </trkpt>
      <trkpt lat="46.16069" lon="5.57914">
        <ele>480.3</ele>
        <time>2020-05-24T11:27:37Z</time>
      </trkpt>
      <trkpt lat="46.16067" lon="5.57921">
        <ele>480.3</ele>
        <time>2020-05-24T11:27:38Z</time>
      </trkpt>
      <trkpt lat="46.16064" lon="5.57928">
        <ele>480.2</ele>
        <time>2020-05-24T11:27:40Z</time>
      </trkpt>
      <trkpt lat="46.16061" lon="5.57935">
        <ele>480.2</ele>
        <time>2020-05-24T11:27:41Z</time>
      </trkpt>
      <trkpt lat="46.16057" lon="5.57951">
        <ele>480.2</ele>
        <time>2020-05-24T11:27:43Z</time>
      </trkpt>
      <trkpt lat="46.16054" lon="5.57959">
        <ele>480.2</ele>
        <time>2020-05-24T11:27:45Z</time>
      </trkpt>
      <trkpt lat="46.16051" lon="5.57966">
        <ele>480.2</ele>
        <time>2020-05-24T11:27:47Z</time>
      </trkpt>
      <trkpt lat="46.1605" lon="5.57971">
        <ele>480.2</ele>
        <time>2020-05-24T11:27:48Z</time>
      </trkpt>
      <trkpt lat="46.16048" lon="5.57983">
        <ele>480.2</ele>
        <time>2020-05-24T11:27:50Z</time>
      </trkpt>
      <trkpt lat="46.16046" lon="5.57997">
        <ele>480.2</ele>
        <time>2020-05-24T11:27:52Z</time>
      </trkpt>
      <trkpt lat="46.16044" lon="5.58006">
        <ele>480.2</ele>
        <time>2020-05-24T11:27:53Z</time>
      </trkpt>
      <trkpt lat="46.16043" lon="5.58017">
        <ele>480.3</ele>
        <time>2020-05-24T11:27:55Z</time>
      </trkpt>
      <trkpt lat="46.16042" lon="5.58025">
        <ele>480.3</ele>
        <time>2020-05-24T11:27:56Z</time>
      </trkpt>
      <trkpt lat="46.1604" lon="5.58033">
        <ele>480.3</ele>
        <time>2020-05-24T11:27:57Z</time>
      </trkpt>
      <trkpt lat="46.16039" lon="5.5804">
        <ele>480.4</ele>
        <time>2020-05-24T11:27:59Z</time>
      </trkpt>
      <trkpt lat="46.16038" lon="5.58045">
        <ele>480.4</ele>
        <time>2020-05-24T11:28:00Z</time>
      </trkpt>
      <trkpt lat="46.16038" lon="5.5805">
        <ele>480.4</ele>
        <time>2020-05-24T11:28:01Z</time>
      </trkpt>
      <trkpt lat="46.16036" lon="5.5806">
        <ele>480.5</ele>
        <time>2020-05-24T11:28:03Z</time>
      </trkpt>
      <trkpt lat="46.16035" lon="5.58067">
        <ele>480.6</ele>
        <time>2020-05-24T11:28:04Z</time>
      </trkpt>
      <trkpt lat="46.16034" lon="5.58075">
        <ele>480.6</ele>
        <time>2020-05-24T11:28:06Z</time>
      </trkpt>
      <trkpt lat="46.16033" lon="5.58083">
        <ele>480.7</ele>
        <time>2020-05-24T11:28:07Z</time>
      </trkpt>
      <trkpt lat="46.16032" lon="5.58089">
        <ele>480.8</ele>
        <time>2020-05-24T11:28:08Z</time>
      </trkpt>
      <trkpt lat="46.16031" lon="5.58101">
        <ele>480.9</ele>
        <time>2020-05-24T11:28:10Z</time>
      </trkpt>
      <trkpt lat="46.16029" lon="5.58112">
        <ele>480.9</ele>
        <time>2020-05-24T11:28:12Z</time>
      </trkpt>
      <trkpt lat="46.16028" lon="5.5812">
        <ele>481</ele>
        <time>2020-05-24T11:28:13Z</time>
      </trkpt>
      <trkpt lat="46.16027" lon="5.58128">
        <ele>481</ele>
        <time>2020-05-24T11:28:15Z</time>
      </trkpt>
      <trkpt lat="46.16026" lon="5.58135">
        <ele>481</ele>
        <time>2020-05-24T11:28:16Z</time>
      </trkpt>
      <trkpt lat="46.16026" lon="5.58141">
        <ele>481.1</ele>
        <time>2020-05-24T11:28:17Z</time>
      </trkpt>
      <trkpt lat="46.16027" lon="5.58147">
        <ele>481.1</ele>
        <time>2020-05-24T11:28:18Z</time>
      </trkpt>
      <trkpt lat="46.16028" lon="5.58153">
        <ele>481.2</ele>
        <time>2020-05-24T11:28:19Z</time>
      </trkpt>
      <trkpt lat="46.1603" lon="5.58161">
        <ele>481.2</ele>
        <time>2020-05-24T11:28:20Z</time>
      </trkpt>
      <trkpt lat="46.16034" lon="5.58179">
        <ele>481.3</ele>
        <time>2020-05-24T11:28:22Z</time>
      </trkpt>
      <trkpt lat="46.16035" lon="5.58186">
        <ele>481.3</ele>
        <time>2020-05-24T11:28:23Z</time>
      </trkpt>
      <trkpt lat="46.16034" lon="5.5819">
        <ele>481.5</ele>
        <time>2020-05-24T11:28:24Z</time>
      </trkpt>
      <trkpt lat="46.16037" lon="5.58203">
        <ele>481.9</ele>
        <time>2020-05-24T11:28:26Z</time>
      </trkpt>
      <trkpt lat="46.16038" lon="5.58208">
        <ele>482</ele>
        <time>2020-05-24T11:28:27Z</time>
      </trkpt>
      <trkpt lat="46.16037" lon="5.58221">
        <ele>482.2</ele>
        <time>2020-05-24T11:28:29Z</time>
      </trkpt>
      <trkpt lat="46.16036" lon="5.58226">
        <ele>482.3</ele>
        <time>2020-05-24T11:28:30Z</time>
      </trkpt>
      <trkpt lat="46.16036" lon="5.58231">
        <ele>482.4</ele>
        <time>2020-05-24T11:28:31Z</time>
      </trkpt>
      <trkpt lat="46.16036" lon="5.5824">
        <ele>482.6</ele>
        <time>2020-05-24T11:28:33Z</time>
      </trkpt>
      <trkpt lat="46.16035" lon="5.5825">
        <ele>482.8</ele>
        <time>2020-05-24T11:28:34Z</time>
      </trkpt>
      <trkpt lat="46.16033" lon="5.58262">
        <ele>483</ele>
        <time>2020-05-24T11:28:36Z</time>
      </trkpt>
      <trkpt lat="46.16031" lon="5.58274">
        <ele>483.2</ele>
        <time>2020-05-24T11:28:38Z</time>
      </trkpt>
      <trkpt lat="46.16028" lon="5.58284">
        <ele>483.4</ele>
        <time>2020-05-24T11:28:40Z</time>
      </trkpt>
      <trkpt lat="46.16025" lon="5.58292">
        <ele>483.5</ele>
        <time>2020-05-24T11:28:41Z</time>
      </trkpt>
      <trkpt lat="46.16022" lon="5.58303">
        <ele>483.7</ele>
        <time>2020-05-24T11:28:43Z</time>
      </trkpt>
      <trkpt lat="46.16019" lon="5.58308">
        <ele>483.8</ele>
        <time>2020-05-24T11:28:44Z</time>
      </trkpt>
      <trkpt lat="46.16017" lon="5.58313">
        <ele>483.9</ele>
        <time>2020-05-24T11:28:45Z</time>
      </trkpt>
      <trkpt lat="46.16012" lon="5.58322">
        <ele>484</ele>
        <time>2020-05-24T11:28:47Z</time>
      </trkpt>
      <trkpt lat="46.16007" lon="5.5833">
        <ele>484.2</ele>
        <time>2020-05-24T11:28:49Z</time>
      </trkpt>
      <trkpt lat="46.16004" lon="5.58335">
        <ele>484.2</ele>
        <time>2020-05-24T11:28:50Z</time>
      </trkpt>
      <trkpt lat="46.16002" lon="5.58339">
        <ele>484.3</ele>
        <time>2020-05-24T11:28:51Z</time>
      </trkpt>
      <trkpt lat="46.15999" lon="5.58349">
        <ele>484.4</ele>
        <time>2020-05-24T11:28:53Z</time>
      </trkpt>
      <trkpt lat="46.15997" lon="5.58354">
        <ele>484.5</ele>
        <time>2020-05-24T11:28:54Z</time>
      </trkpt>
      <trkpt lat="46.15993" lon="5.5836">
        <ele>484.6</ele>
        <time>2020-05-24T11:28:55Z</time>
      </trkpt>
      <trkpt lat="46.15989" lon="5.58369">
        <ele>484.7</ele>
        <time>2020-05-24T11:28:57Z</time>
      </trkpt>
      <trkpt lat="46.15984" lon="5.58378">
        <ele>484.8</ele>
        <time>2020-05-24T11:28:59Z</time>
      </trkpt>
      <trkpt lat="46.15979" lon="5.58387">
        <ele>484.9</ele>
        <time>2020-05-24T11:29:01Z</time>
      </trkpt>
      <trkpt lat="46.15975" lon="5.58393">
        <ele>484.9</ele>
        <time>2020-05-24T11:29:02Z</time>
      </trkpt>
      <trkpt lat="46.15972" lon="5.58398">
        <ele>484.9</ele>
        <time>2020-05-24T11:29:03Z</time>
      </trkpt>
      <trkpt lat="46.1597" lon="5.58403">
        <ele>484.9</ele>
        <time>2020-05-24T11:29:04Z</time>
      </trkpt>
      <trkpt lat="46.15964" lon="5.58413">
        <ele>484.9</ele>
        <time>2020-05-24T11:29:06Z</time>
      </trkpt>
      <trkpt lat="46.15961" lon="5.58418">
        <ele>484.9</ele>
        <time>2020-05-24T11:29:07Z</time>
      </trkpt>
      <trkpt lat="46.15955" lon="5.58425">
        <ele>484.9</ele>
        <time>2020-05-24T11:29:09Z</time>
      </trkpt>
      <trkpt lat="46.15949" lon="5.58431">
        <ele>484.7</ele>
        <time>2020-05-24T11:29:10Z</time>
      </trkpt>
      <trkpt lat="46.15943" lon="5.58438">
        <ele>484.6</ele>
        <time>2020-05-24T11:29:11Z</time>
      </trkpt>
      <trkpt lat="46.15939" lon="5.58444">
        <ele>484.4</ele>
        <time>2020-05-24T11:29:12Z</time>
      </trkpt>
      <trkpt lat="46.15931" lon="5.58454">
        <ele>484</ele>
        <time>2020-05-24T11:29:14Z</time>
      </trkpt>
      <trkpt lat="46.15927" lon="5.5846">
        <ele>483.7</ele>
        <time>2020-05-24T11:29:15Z</time>
      </trkpt>
      <trkpt lat="46.15918" lon="5.58472">
        <ele>483.3</ele>
        <time>2020-05-24T11:29:17Z</time>
      </trkpt>
      <trkpt lat="46.15911" lon="5.58486">
        <ele>483</ele>
        <time>2020-05-24T11:29:19Z</time>
      </trkpt>
      <trkpt lat="46.15905" lon="5.58501">
        <ele>482.7</ele>
        <time>2020-05-24T11:29:21Z</time>
      </trkpt>
      <trkpt lat="46.15898" lon="5.58515">
        <ele>482.6</ele>
        <time>2020-05-24T11:29:23Z</time>
      </trkpt>
      <trkpt lat="46.15895" lon="5.58522">
        <ele>482.6</ele>
        <time>2020-05-24T11:29:24Z</time>
      </trkpt>
      <trkpt lat="46.15892" lon="5.58539">
        <ele>482.5</ele>
        <time>2020-05-24T11:29:26Z</time>
      </trkpt>
      <trkpt lat="46.1589" lon="5.58547">
        <ele>482.5</ele>
        <time>2020-05-24T11:29:27Z</time>
      </trkpt>
      <trkpt lat="46.15887" lon="5.58562">
        <ele>482.5</ele>
        <time>2020-05-24T11:29:29Z</time>
      </trkpt>
      <trkpt lat="46.15884" lon="5.58574">
        <ele>482.5</ele>
        <time>2020-05-24T11:29:31Z</time>
      </trkpt>
      <trkpt lat="46.15882" lon="5.5858">
        <ele>482.5</ele>
        <time>2020-05-24T11:29:32Z</time>
      </trkpt>
      <trkpt lat="46.15879" lon="5.5859">
        <ele>482.5</ele>
        <time>2020-05-24T11:29:34Z</time>
      </trkpt>
      <trkpt lat="46.15878" lon="5.58597">
        <ele>482.5</ele>
        <time>2020-05-24T11:29:35Z</time>
      </trkpt>
      <trkpt lat="46.15876" lon="5.58606">
        <ele>482.5</ele>
        <time>2020-05-24T11:29:36Z</time>
      </trkpt>
      <trkpt lat="46.15875" lon="5.58611">
        <ele>482.4</ele>
        <time>2020-05-24T11:29:37Z</time>
      </trkpt>
      <trkpt lat="46.15874" lon="5.58614">
        <ele>482.4</ele>
        <time>2020-05-24T11:29:38Z</time>
      </trkpt>
      <trkpt lat="46.15872" lon="5.58621">
        <ele>482.4</ele>
        <time>2020-05-24T11:29:40Z</time>
      </trkpt>
      <trkpt lat="46.1587" lon="5.58628">
        <ele>482.3</ele>
        <time>2020-05-24T11:29:41Z</time>
      </trkpt>
      <trkpt lat="46.15867" lon="5.58643">
        <ele>482.2</ele>
        <time>2020-05-24T11:29:43Z</time>
      </trkpt>
      <trkpt lat="46.15865" lon="5.58651">
        <ele>482.1</ele>
        <time>2020-05-24T11:29:45Z</time>
      </trkpt>
      <trkpt lat="46.15863" lon="5.58659">
        <ele>482.1</ele>
        <time>2020-05-24T11:29:46Z</time>
      </trkpt>
      <trkpt lat="46.15859" lon="5.58669">
        <ele>482</ele>
        <time>2020-05-24T11:29:47Z</time>
      </trkpt>
      <trkpt lat="46.15856" lon="5.58677">
        <ele>482</ele>
        <time>2020-05-24T11:29:48Z</time>
      </trkpt>
      <trkpt lat="46.15852" lon="5.58687">
        <ele>482</ele>
        <time>2020-05-24T11:29:50Z</time>
      </trkpt>
      <trkpt lat="46.1585" lon="5.58691">
        <ele>481.9</ele>
        <time>2020-05-24T11:29:51Z</time>
      </trkpt>
      <trkpt lat="46.15848" lon="5.58699">
        <ele>481.9</ele>
        <time>2020-05-24T11:29:52Z</time>
      </trkpt>
      <trkpt lat="46.15843" lon="5.58714">
        <ele>481.7</ele>
        <time>2020-05-24T11:29:54Z</time>
      </trkpt>
      <trkpt lat="46.1584" lon="5.58722">
        <ele>481.7</ele>
        <time>2020-05-24T11:29:55Z</time>
      </trkpt>
      <trkpt lat="46.15836" lon="5.58738">
        <ele>481.5</ele>
        <time>2020-05-24T11:29:57Z</time>
      </trkpt>
      <trkpt lat="46.15834" lon="5.58746">
        <ele>481.5</ele>
        <time>2020-05-24T11:29:58Z</time>
      </trkpt>
      <trkpt lat="46.1583" lon="5.58762">
        <ele>481.4</ele>
        <time>2020-05-24T11:30:00Z</time>
      </trkpt>
      <trkpt lat="46.15827" lon="5.58777">
        <ele>481.2</ele>
        <time>2020-05-24T11:30:02Z</time>
      </trkpt>
      <trkpt lat="46.15823" lon="5.58792">
        <ele>481.2</ele>
        <time>2020-05-24T11:30:04Z</time>
      </trkpt>
      <trkpt lat="46.15821" lon="5.58802">
        <ele>481.2</ele>
        <time>2020-05-24T11:30:06Z</time>
      </trkpt>
      <trkpt lat="46.15818" lon="5.58817">
        <ele>481</ele>
        <time>2020-05-24T11:30:08Z</time>
      </trkpt>
      <trkpt lat="46.15817" lon="5.58823">
        <ele>480.9</ele>
        <time>2020-05-24T11:30:09Z</time>
      </trkpt>
      <trkpt lat="46.15815" lon="5.58839">
        <ele>480.7</ele>
        <time>2020-05-24T11:30:11Z</time>
      </trkpt>
      <trkpt lat="46.15815" lon="5.58847">
        <ele>480.6</ele>
        <time>2020-05-24T11:30:12Z</time>
      </trkpt>
      <trkpt lat="46.15813" lon="5.58861">
        <ele>480.5</ele>
        <time>2020-05-24T11:30:14Z</time>
      </trkpt>
      <trkpt lat="46.15811" lon="5.58877">
        <ele>480.3</ele>
        <time>2020-05-24T11:30:16Z</time>
      </trkpt>
      <trkpt lat="46.15807" lon="5.58893">
        <ele>480.3</ele>
        <time>2020-05-24T11:30:18Z</time>
      </trkpt>
      <trkpt lat="46.15805" lon="5.589">
        <ele>480.2</ele>
        <time>2020-05-24T11:30:19Z</time>
      </trkpt>
      <trkpt lat="46.15802" lon="5.58907">
        <ele>480.2</ele>
        <time>2020-05-24T11:30:20Z</time>
      </trkpt>
      <trkpt lat="46.158" lon="5.58915">
        <ele>480.2</ele>
        <time>2020-05-24T11:30:21Z</time>
      </trkpt>
      <trkpt lat="46.15798" lon="5.58922">
        <ele>480.1</ele>
        <time>2020-05-24T11:30:22Z</time>
      </trkpt>
      <trkpt lat="46.15794" lon="5.58937">
        <ele>480.1</ele>
        <time>2020-05-24T11:30:24Z</time>
      </trkpt>
      <trkpt lat="46.15792" lon="5.58944">
        <ele>480</ele>
        <time>2020-05-24T11:30:25Z</time>
      </trkpt>
      <trkpt lat="46.15788" lon="5.58958">
        <ele>480</ele>
        <time>2020-05-24T11:30:27Z</time>
      </trkpt>
      <trkpt lat="46.15784" lon="5.58973">
        <ele>479.9</ele>
        <time>2020-05-24T11:30:29Z</time>
      </trkpt>
      <trkpt lat="46.15782" lon="5.5898">
        <ele>479.9</ele>
        <time>2020-05-24T11:30:30Z</time>
      </trkpt>
      <trkpt lat="46.15778" lon="5.58991">
        <ele>479.9</ele>
        <time>2020-05-24T11:30:32Z</time>
      </trkpt>
      <trkpt lat="46.15777" lon="5.58999">
        <ele>479.9</ele>
        <time>2020-05-24T11:30:33Z</time>
      </trkpt>
      <trkpt lat="46.15775" lon="5.59004">
        <ele>479.9</ele>
        <time>2020-05-24T11:30:34Z</time>
      </trkpt>
      <trkpt lat="46.15772" lon="5.59013">
        <ele>479.9</ele>
        <time>2020-05-24T11:30:35Z</time>
      </trkpt>
      <trkpt lat="46.15767" lon="5.59024">
        <ele>479.8</ele>
        <time>2020-05-24T11:30:37Z</time>
      </trkpt>
      <trkpt lat="46.15765" lon="5.5903">
        <ele>479.8</ele>
        <time>2020-05-24T11:30:39Z</time>
      </trkpt>
      <trkpt lat="46.15763" lon="5.59035">
        <ele>479.8</ele>
        <time>2020-05-24T11:30:40Z</time>
      </trkpt>
      <trkpt lat="46.15762" lon="5.5904">
        <ele>479.8</ele>
        <time>2020-05-24T11:30:41Z</time>
      </trkpt>
      <trkpt lat="46.15757" lon="5.59063">
        <ele>479.8</ele>
        <time>2020-05-24T11:30:43Z</time>
      </trkpt>
      <trkpt lat="46.15755" lon="5.59073">
        <ele>479.8</ele>
        <time>2020-05-24T11:30:44Z</time>
      </trkpt>
      <trkpt lat="46.15753" lon="5.59083">
        <ele>479.7</ele>
        <time>2020-05-24T11:30:45Z</time>
      </trkpt>
      <trkpt lat="46.15751" lon="5.59091">
        <ele>479.7</ele>
        <time>2020-05-24T11:30:46Z</time>
      </trkpt>
      <trkpt lat="46.15747" lon="5.59108">
        <ele>479.7</ele>
        <time>2020-05-24T11:30:48Z</time>
      </trkpt>
      <trkpt lat="46.15743" lon="5.59122">
        <ele>479.7</ele>
        <time>2020-05-24T11:30:50Z</time>
      </trkpt>
      <trkpt lat="46.15741" lon="5.5913">
        <ele>479.7</ele>
        <time>2020-05-24T11:30:51Z</time>
      </trkpt>
      <trkpt lat="46.15738" lon="5.59146">
        <ele>479.7</ele>
        <time>2020-05-24T11:30:53Z</time>
      </trkpt>
      <trkpt lat="46.15735" lon="5.59155">
        <ele>479.7</ele>
        <time>2020-05-24T11:30:54Z</time>
      </trkpt>
      <trkpt lat="46.15731" lon="5.5917">
        <ele>479.7</ele>
        <time>2020-05-24T11:30:56Z</time>
      </trkpt>
      <trkpt lat="46.1573" lon="5.59176">
        <ele>479.8</ele>
        <time>2020-05-24T11:30:57Z</time>
      </trkpt>
      <trkpt lat="46.15728" lon="5.5918">
        <ele>479.8</ele>
        <time>2020-05-24T11:30:58Z</time>
      </trkpt>
      <trkpt lat="46.15724" lon="5.59198">
        <ele>479.7</ele>
        <time>2020-05-24T11:31:00Z</time>
      </trkpt>
      <trkpt lat="46.15722" lon="5.59214">
        <ele>479.7</ele>
        <time>2020-05-24T11:31:02Z</time>
      </trkpt>
      <trkpt lat="46.1572" lon="5.59221">
        <ele>479.7</ele>
        <time>2020-05-24T11:31:03Z</time>
      </trkpt>
      <trkpt lat="46.15719" lon="5.59229">
        <ele>479.8</ele>
        <time>2020-05-24T11:31:04Z</time>
      </trkpt>
      <trkpt lat="46.15716" lon="5.59244">
        <ele>479.8</ele>
        <time>2020-05-24T11:31:06Z</time>
      </trkpt>
      <trkpt lat="46.15714" lon="5.5925">
        <ele>479.8</ele>
        <time>2020-05-24T11:31:07Z</time>
      </trkpt>
      <trkpt lat="46.15713" lon="5.59255">
        <ele>479.8</ele>
        <time>2020-05-24T11:31:08Z</time>
      </trkpt>
      <trkpt lat="46.15711" lon="5.5927">
        <ele>479.7</ele>
        <time>2020-05-24T11:31:10Z</time>
      </trkpt>
      <trkpt lat="46.15709" lon="5.59277">
        <ele>479.7</ele>
        <time>2020-05-24T11:31:11Z</time>
      </trkpt>
      <trkpt lat="46.15706" lon="5.59293">
        <ele>479.7</ele>
        <time>2020-05-24T11:31:13Z</time>
      </trkpt>
      <trkpt lat="46.15704" lon="5.59302">
        <ele>479.7</ele>
        <time>2020-05-24T11:31:14Z</time>
      </trkpt>
      <trkpt lat="46.15703" lon="5.59318">
        <ele>479.7</ele>
        <time>2020-05-24T11:31:16Z</time>
      </trkpt>
      <trkpt lat="46.15701" lon="5.59331">
        <ele>479.6</ele>
        <time>2020-05-24T11:31:18Z</time>
      </trkpt>
      <trkpt lat="46.15697" lon="5.59335">
        <ele>479.6</ele>
        <time>2020-05-24T11:31:20Z</time>
      </trkpt>
      <trkpt lat="46.15696" lon="5.59339">
        <ele>479.6</ele>
        <time>2020-05-24T11:31:21Z</time>
      </trkpt>
      <trkpt lat="46.15692" lon="5.59345">
        <ele>479.6</ele>
        <time>2020-05-24T11:31:23Z</time>
      </trkpt>
      <trkpt lat="46.15688" lon="5.59351">
        <ele>479.6</ele>
        <time>2020-05-24T11:31:24Z</time>
      </trkpt>
      <trkpt lat="46.15683" lon="5.59358">
        <ele>479.7</ele>
        <time>2020-05-24T11:31:26Z</time>
      </trkpt>
      <trkpt lat="46.15678" lon="5.59365">
        <ele>479.6</ele>
        <time>2020-05-24T11:31:27Z</time>
      </trkpt>
      <trkpt lat="46.15672" lon="5.59373">
        <ele>479.6</ele>
        <time>2020-05-24T11:31:29Z</time>
      </trkpt>
      <trkpt lat="46.15664" lon="5.59396">
        <ele>479.5</ele>
        <time>2020-05-24T11:31:31Z</time>
      </trkpt>
      <trkpt lat="46.15662" lon="5.59403">
        <ele>479.5</ele>
        <time>2020-05-24T11:31:32Z</time>
      </trkpt>
      <trkpt lat="46.15657" lon="5.59408">
        <ele>479.5</ele>
        <time>2020-05-24T11:31:34Z</time>
      </trkpt>
      <trkpt lat="46.15657" lon="5.59419">
        <ele>479.4</ele>
        <time>2020-05-24T11:31:36Z</time>
      </trkpt>
      <trkpt lat="46.15653" lon="5.59426">
        <ele>479.4</ele>
        <time>2020-05-24T11:31:38Z</time>
      </trkpt>
      <trkpt lat="46.15649" lon="5.59431">
        <ele>479.4</ele>
        <time>2020-05-24T11:31:40Z</time>
      </trkpt>
      <trkpt lat="46.15647" lon="5.59435">
        <ele>479.4</ele>
        <time>2020-05-24T11:31:41Z</time>
      </trkpt>
      <trkpt lat="46.15647" lon="5.59436">
        <ele>479.4</ele>
        <time>2020-05-24T11:31:42Z</time>
      </trkpt>
      <trkpt lat="46.15646" lon="5.59438">
        <ele>479.4</ele>
        <time>2020-05-24T11:31:43Z</time>
      </trkpt>
      <trkpt lat="46.15643" lon="5.59446">
        <ele>479.4</ele>
        <time>2020-05-24T11:31:45Z</time>
      </trkpt>
      <trkpt lat="46.15641" lon="5.59451">
        <ele>479.4</ele>
        <time>2020-05-24T11:31:46Z</time>
      </trkpt>
      <trkpt lat="46.15637" lon="5.59461">
        <ele>479.3</ele>
        <time>2020-05-24T11:31:48Z</time>
      </trkpt>
      <trkpt lat="46.15633" lon="5.59468">
        <ele>479.3</ele>
        <time>2020-05-24T11:31:49Z</time>
      </trkpt>
      <trkpt lat="46.1563" lon="5.59474">
        <ele>479.4</ele>
        <time>2020-05-24T11:31:50Z</time>
      </trkpt>
      <trkpt lat="46.15628" lon="5.59478">
        <ele>479.4</ele>
        <time>2020-05-24T11:31:51Z</time>
      </trkpt>
      <trkpt lat="46.15625" lon="5.59484">
        <ele>479.4</ele>
        <time>2020-05-24T11:31:52Z</time>
      </trkpt>
      <trkpt lat="46.15619" lon="5.59495">
        <ele>479.3</ele>
        <time>2020-05-24T11:31:54Z</time>
      </trkpt>
      <trkpt lat="46.15617" lon="5.59499">
        <ele>479.3</ele>
        <time>2020-05-24T11:31:55Z</time>
      </trkpt>
      <trkpt lat="46.15615" lon="5.59503">
        <ele>479.3</ele>
        <time>2020-05-24T11:31:56Z</time>
      </trkpt>
      <trkpt lat="46.15611" lon="5.59509">
        <ele>479.4</ele>
        <time>2020-05-24T11:31:57Z</time>
      </trkpt>
      <trkpt lat="46.15605" lon="5.59514">
        <ele>479.4</ele>
        <time>2020-05-24T11:31:59Z</time>
      </trkpt>
      <trkpt lat="46.15599" lon="5.59521">
        <ele>479.4</ele>
        <time>2020-05-24T11:32:00Z</time>
      </trkpt>
      <trkpt lat="46.15591" lon="5.59528">
        <ele>479.4</ele>
        <time>2020-05-24T11:32:02Z</time>
      </trkpt>
      <trkpt lat="46.15587" lon="5.59533">
        <ele>479.3</ele>
        <time>2020-05-24T11:32:03Z</time>
      </trkpt>
      <trkpt lat="46.15579" lon="5.5954">
        <ele>479.3</ele>
        <time>2020-05-24T11:32:05Z</time>
      </trkpt>
      <trkpt lat="46.15575" lon="5.59544">
        <ele>479.3</ele>
        <time>2020-05-24T11:32:06Z</time>
      </trkpt>
      <trkpt lat="46.15567" lon="5.59553">
        <ele>479.2</ele>
        <time>2020-05-24T11:32:08Z</time>
      </trkpt>
      <trkpt lat="46.15559" lon="5.59561">
        <ele>479.2</ele>
        <time>2020-05-24T11:32:09Z</time>
      </trkpt>
      <trkpt lat="46.15553" lon="5.59567">
        <ele>479.2</ele>
        <time>2020-05-24T11:32:10Z</time>
      </trkpt>
      <trkpt lat="46.15544" lon="5.59576">
        <ele>479.2</ele>
        <time>2020-05-24T11:32:12Z</time>
      </trkpt>
      <trkpt lat="46.1554" lon="5.59581">
        <ele>479.2</ele>
        <time>2020-05-24T11:32:13Z</time>
      </trkpt>
      <trkpt lat="46.15537" lon="5.59586">
        <ele>479.2</ele>
        <time>2020-05-24T11:32:14Z</time>
      </trkpt>
      <trkpt lat="46.15529" lon="5.59594">
        <ele>479.2</ele>
        <time>2020-05-24T11:32:16Z</time>
      </trkpt>
      <trkpt lat="46.15525" lon="5.59598">
        <ele>479.2</ele>
        <time>2020-05-24T11:32:17Z</time>
      </trkpt>
      <trkpt lat="46.15522" lon="5.59601">
        <ele>479.2</ele>
        <time>2020-05-24T11:32:18Z</time>
      </trkpt>
      <trkpt lat="46.15517" lon="5.59605">
        <ele>479.1</ele>
        <time>2020-05-24T11:32:19Z</time>
      </trkpt>
      <trkpt lat="46.15516" lon="5.59607">
        <ele>479.1</ele>
        <time>2020-05-24T11:32:20Z</time>
      </trkpt>
      <trkpt lat="46.1551" lon="5.59621">
        <ele>479.1</ele>
        <time>2020-05-24T11:32:22Z</time>
      </trkpt>
      <trkpt lat="46.15507" lon="5.5963">
        <ele>479</ele>
        <time>2020-05-24T11:32:24Z</time>
      </trkpt>
      <trkpt lat="46.15504" lon="5.59631">
        <ele>479</ele>
        <time>2020-05-24T11:32:25Z</time>
      </trkpt>
      <trkpt lat="46.15503" lon="5.59634">
        <ele>478.9</ele>
        <time>2020-05-24T11:32:26Z</time>
      </trkpt>
      <trkpt lat="46.155" lon="5.59641">
        <ele>478.9</ele>
        <time>2020-05-24T11:32:27Z</time>
      </trkpt>
      <trkpt lat="46.15494" lon="5.59654">
        <ele>478.7</ele>
        <time>2020-05-24T11:32:29Z</time>
      </trkpt>
      <trkpt lat="46.15487" lon="5.59675">
        <ele>478.6</ele>
        <time>2020-05-24T11:32:31Z</time>
      </trkpt>
      <trkpt lat="46.15483" lon="5.59683">
        <ele>478.5</ele>
        <time>2020-05-24T11:32:32Z</time>
      </trkpt>
      <trkpt lat="46.1548" lon="5.5969">
        <ele>478.4</ele>
        <time>2020-05-24T11:32:33Z</time>
      </trkpt>
      <trkpt lat="46.15475" lon="5.59701">
        <ele>478.3</ele>
        <time>2020-05-24T11:32:35Z</time>
      </trkpt>
      <trkpt lat="46.15473" lon="5.59708">
        <ele>478.3</ele>
        <time>2020-05-24T11:32:36Z</time>
      </trkpt>
      <trkpt lat="46.15471" lon="5.5972">
        <ele>478.3</ele>
        <time>2020-05-24T11:32:38Z</time>
      </trkpt>
      <trkpt lat="46.1547" lon="5.59726">
        <ele>478.3</ele>
        <time>2020-05-24T11:32:39Z</time>
      </trkpt>
      <trkpt lat="46.15468" lon="5.59731">
        <ele>478.3</ele>
        <time>2020-05-24T11:32:40Z</time>
      </trkpt>
      <trkpt lat="46.15463" lon="5.5974">
        <ele>478.2</ele>
        <time>2020-05-24T11:32:41Z</time>
      </trkpt>
      <trkpt lat="46.15459" lon="5.59749">
        <ele>478.2</ele>
        <time>2020-05-24T11:32:42Z</time>
      </trkpt>
      <trkpt lat="46.15454" lon="5.59766">
        <ele>478</ele>
        <time>2020-05-24T11:32:44Z</time>
      </trkpt>
      <trkpt lat="46.15453" lon="5.59772">
        <ele>478</ele>
        <time>2020-05-24T11:32:45Z</time>
      </trkpt>
      <trkpt lat="46.15452" lon="5.59777">
        <ele>477.9</ele>
        <time>2020-05-24T11:32:46Z</time>
      </trkpt>
      <trkpt lat="46.15452" lon="5.59785">
        <ele>477.9</ele>
        <time>2020-05-24T11:32:47Z</time>
      </trkpt>
      <trkpt lat="46.15452" lon="5.59801">
        <ele>477.9</ele>
        <time>2020-05-24T11:32:49Z</time>
      </trkpt>
      <trkpt lat="46.15452" lon="5.5981">
        <ele>477.9</ele>
        <time>2020-05-24T11:32:50Z</time>
      </trkpt>
      <trkpt lat="46.15454" lon="5.59828">
        <ele>477.8</ele>
        <time>2020-05-24T11:32:52Z</time>
      </trkpt>
      <trkpt lat="46.15456" lon="5.59836">
        <ele>477.8</ele>
        <time>2020-05-24T11:32:54Z</time>
      </trkpt>
      <trkpt lat="46.15458" lon="5.5984">
        <ele>477.7</ele>
        <time>2020-05-24T11:32:55Z</time>
      </trkpt>
      <trkpt lat="46.1546" lon="5.59848">
        <ele>477.7</ele>
        <time>2020-05-24T11:32:56Z</time>
      </trkpt>
      <trkpt lat="46.15461" lon="5.59856">
        <ele>477.7</ele>
        <time>2020-05-24T11:32:58Z</time>
      </trkpt>
      <trkpt lat="46.15462" lon="5.59866">
        <ele>477.7</ele>
        <time>2020-05-24T11:32:59Z</time>
      </trkpt>
      <trkpt lat="46.15462" lon="5.59874">
        <ele>477.6</ele>
        <time>2020-05-24T11:33:01Z</time>
      </trkpt>
      <trkpt lat="46.15463" lon="5.59881">
        <ele>477.6</ele>
        <time>2020-05-24T11:33:02Z</time>
      </trkpt>
      <trkpt lat="46.15467" lon="5.5989">
        <ele>477.6</ele>
        <time>2020-05-24T11:33:03Z</time>
      </trkpt>
      <trkpt lat="46.15473" lon="5.59904">
        <ele>477.5</ele>
        <time>2020-05-24T11:33:05Z</time>
      </trkpt>
      <trkpt lat="46.15476" lon="5.59912">
        <ele>477.5</ele>
        <time>2020-05-24T11:33:06Z</time>
      </trkpt>
      <trkpt lat="46.1548" lon="5.59924">
        <ele>477.4</ele>
        <time>2020-05-24T11:33:08Z</time>
      </trkpt>
      <trkpt lat="46.15478" lon="5.59928">
        <ele>477.4</ele>
        <time>2020-05-24T11:33:09Z</time>
      </trkpt>
      <trkpt lat="46.15484" lon="5.59935">
        <ele>477.4</ele>
        <time>2020-05-24T11:33:10Z</time>
      </trkpt>
      <trkpt lat="46.1549" lon="5.59943">
        <ele>477.5</ele>
        <time>2020-05-24T11:33:12Z</time>
      </trkpt>
      <trkpt lat="46.15496" lon="5.5995">
        <ele>477.5</ele>
        <time>2020-05-24T11:33:13Z</time>
      </trkpt>
      <trkpt lat="46.15499" lon="5.59954">
        <ele>477.5</ele>
        <time>2020-05-24T11:33:14Z</time>
      </trkpt>
      <trkpt lat="46.15502" lon="5.59962">
        <ele>477.6</ele>
        <time>2020-05-24T11:33:16Z</time>
      </trkpt>
      <trkpt lat="46.15506" lon="5.59967">
        <ele>477.6</ele>
        <time>2020-05-24T11:33:17Z</time>
      </trkpt>
      <trkpt lat="46.1551" lon="5.59971">
        <ele>477.6</ele>
        <time>2020-05-24T11:33:18Z</time>
      </trkpt>
      <trkpt lat="46.15515" lon="5.59978">
        <ele>477.6</ele>
        <time>2020-05-24T11:33:20Z</time>
      </trkpt>
      <trkpt lat="46.15521" lon="5.59985">
        <ele>477.6</ele>
        <time>2020-05-24T11:33:21Z</time>
      </trkpt>
      <trkpt lat="46.15528" lon="5.59992">
        <ele>477.7</ele>
        <time>2020-05-24T11:33:22Z</time>
      </trkpt>
      <trkpt lat="46.15534" lon="5.59997">
        <ele>477.6</ele>
        <time>2020-05-24T11:33:23Z</time>
      </trkpt>
      <trkpt lat="46.15538" lon="5.60001">
        <ele>477.6</ele>
        <time>2020-05-24T11:33:24Z</time>
      </trkpt>
      <trkpt lat="46.15541" lon="5.60004">
        <ele>477.6</ele>
        <time>2020-05-24T11:33:25Z</time>
      </trkpt>
      <trkpt lat="46.1555" lon="5.60017">
        <ele>477.7</ele>
        <time>2020-05-24T11:33:27Z</time>
      </trkpt>
      <trkpt lat="46.15557" lon="5.6003">
        <ele>477.7</ele>
        <time>2020-05-24T11:33:29Z</time>
      </trkpt>
      <trkpt lat="46.1556" lon="5.60035">
        <ele>477.7</ele>
        <time>2020-05-24T11:33:30Z</time>
      </trkpt>
      <trkpt lat="46.15564" lon="5.60041">
        <ele>477.7</ele>
        <time>2020-05-24T11:33:31Z</time>
      </trkpt>
      <trkpt lat="46.15567" lon="5.60047">
        <ele>477.7</ele>
        <time>2020-05-24T11:33:32Z</time>
      </trkpt>
      <trkpt lat="46.15572" lon="5.6006">
        <ele>477.6</ele>
        <time>2020-05-24T11:33:34Z</time>
      </trkpt>
      <trkpt lat="46.15574" lon="5.60064">
        <ele>477.6</ele>
        <time>2020-05-24T11:33:35Z</time>
      </trkpt>
      <trkpt lat="46.15577" lon="5.60073">
        <ele>477.6</ele>
        <time>2020-05-24T11:33:37Z</time>
      </trkpt>
      <trkpt lat="46.1558" lon="5.60079">
        <ele>477.1</ele>
        <time>2020-05-24T11:33:38Z</time>
      </trkpt>
      <trkpt lat="46.15583" lon="5.60088">
        <ele>477.2</ele>
        <time>2020-05-24T11:33:40Z</time>
      </trkpt>
      <trkpt lat="46.15586" lon="5.60101">
        <ele>477.3</ele>
        <time>2020-05-24T11:33:41Z</time>
      </trkpt>
      <trkpt lat="46.15588" lon="5.6011">
        <ele>477.3</ele>
        <time>2020-05-24T11:33:42Z</time>
      </trkpt>
      <trkpt lat="46.1559" lon="5.60118">
        <ele>477.3</ele>
        <time>2020-05-24T11:33:43Z</time>
      </trkpt>
      <trkpt lat="46.15591" lon="5.60126">
        <ele>477.2</ele>
        <time>2020-05-24T11:33:44Z</time>
      </trkpt>
      <trkpt lat="46.15594" lon="5.60141">
        <ele>477.2</ele>
        <time>2020-05-24T11:33:46Z</time>
      </trkpt>
      <trkpt lat="46.15597" lon="5.60155">
        <ele>477.2</ele>
        <time>2020-05-24T11:33:48Z</time>
      </trkpt>
      <trkpt lat="46.156" lon="5.60168">
        <ele>477.2</ele>
        <time>2020-05-24T11:33:50Z</time>
      </trkpt>
      <trkpt lat="46.15604" lon="5.60181">
        <ele>477.2</ele>
        <time>2020-05-24T11:33:52Z</time>
      </trkpt>
      <trkpt lat="46.15607" lon="5.60191">
        <ele>477.2</ele>
        <time>2020-05-24T11:33:54Z</time>
      </trkpt>
      <trkpt lat="46.1561" lon="5.60203">
        <ele>477.2</ele>
        <time>2020-05-24T11:33:56Z</time>
      </trkpt>
      <trkpt lat="46.15611" lon="5.60208">
        <ele>477.2</ele>
        <time>2020-05-24T11:33:58Z</time>
      </trkpt>
      <trkpt lat="46.15611" lon="5.60214">
        <ele>477.2</ele>
        <time>2020-05-24T11:34:00Z</time>
      </trkpt>
      <trkpt lat="46.15613" lon="5.60221">
        <ele>477.2</ele>
        <time>2020-05-24T11:34:01Z</time>
      </trkpt>
      <trkpt lat="46.15617" lon="5.60229">
        <ele>477.2</ele>
        <time>2020-05-24T11:34:02Z</time>
      </trkpt>
      <trkpt lat="46.1562" lon="5.60238">
        <ele>477.2</ele>
        <time>2020-05-24T11:34:04Z</time>
      </trkpt>
      <trkpt lat="46.15623" lon="5.60246">
        <ele>477.2</ele>
        <time>2020-05-24T11:34:05Z</time>
      </trkpt>
      <trkpt lat="46.15625" lon="5.6025">
        <ele>477.2</ele>
        <time>2020-05-24T11:34:06Z</time>
      </trkpt>
      <trkpt lat="46.15627" lon="5.60257">
        <ele>477.2</ele>
        <time>2020-05-24T11:34:08Z</time>
      </trkpt>
      <trkpt lat="46.1563" lon="5.60262">
        <ele>477.2</ele>
        <time>2020-05-24T11:34:09Z</time>
      </trkpt>
      <trkpt lat="46.15634" lon="5.60269">
        <ele>477.2</ele>
        <time>2020-05-24T11:34:11Z</time>
      </trkpt>
      <trkpt lat="46.15639" lon="5.60275">
        <ele>477.2</ele>
        <time>2020-05-24T11:34:13Z</time>
      </trkpt>
      <trkpt lat="46.15643" lon="5.60281">
        <ele>477.1</ele>
        <time>2020-05-24T11:34:14Z</time>
      </trkpt>
      <trkpt lat="46.15645" lon="5.60284">
        <ele>477.1</ele>
        <time>2020-05-24T11:34:15Z</time>
      </trkpt>
      <trkpt lat="46.15648" lon="5.60288">
        <ele>477.1</ele>
        <time>2020-05-24T11:34:17Z</time>
      </trkpt>
      <trkpt lat="46.15648" lon="5.6029">
        <ele>477.1</ele>
        <time>2020-05-24T11:34:18Z</time>
      </trkpt>
      <trkpt lat="46.15649" lon="5.6029">
        <ele>477.1</ele>
        <time>2020-05-24T11:34:19Z</time>
      </trkpt>
      <trkpt lat="46.1565" lon="5.60291">
        <ele>477.1</ele>
        <time>2020-05-24T11:34:21Z</time>
      </trkpt>
      <trkpt lat="46.15648" lon="5.60291">
        <ele>477.1</ele>
        <time>2020-05-24T11:34:23Z</time>
      </trkpt>
      <trkpt lat="46.15648" lon="5.60291">
        <ele>477.1</ele>
        <time>2020-05-24T11:34:24Z</time>
      </trkpt>
      <trkpt lat="46.15649" lon="5.6029">
        <ele>477.1</ele>
        <time>2020-05-24T11:34:26Z</time>
      </trkpt>
      <trkpt lat="46.15649" lon="5.60288">
        <ele>477.1</ele>
        <time>2020-05-24T11:34:27Z</time>
      </trkpt>
      <trkpt lat="46.15649" lon="5.60287">
        <ele>477.1</ele>
        <time>2020-05-24T11:34:28Z</time>
      </trkpt>
      <trkpt lat="46.1565" lon="5.60288">
        <ele>477.1</ele>
        <time>2020-05-24T11:34:30Z</time>
      </trkpt>
      <trkpt lat="46.15651" lon="5.60289">
        <ele>477.1</ele>
        <time>2020-05-24T11:34:31Z</time>
      </trkpt>
      <trkpt lat="46.15652" lon="5.60291">
        <ele>477.1</ele>
        <time>2020-05-24T11:34:33Z</time>
      </trkpt>
      <trkpt lat="46.15653" lon="5.60291">
        <ele>477.1</ele>
        <time>2020-05-24T11:34:35Z</time>
      </trkpt>
      <trkpt lat="46.15653" lon="5.60292">
        <ele>477.1</ele>
        <time>2020-05-24T11:34:36Z</time>
      </trkpt>
      <trkpt lat="46.15653" lon="5.60292">
        <ele>477.1</ele>
        <time>2020-05-24T11:34:38Z</time>
      </trkpt>
      <trkpt lat="46.15653" lon="5.60292">
        <ele>477.1</ele>
        <time>2020-05-24T11:34:39Z</time>
      </trkpt>
      <trkpt lat="46.15654" lon="5.60293">
        <ele>477.1</ele>
        <time>2020-05-24T11:34:41Z</time>
      </trkpt>
      <trkpt lat="46.15655" lon="5.60295">
        <ele>477.1</ele>
        <time>2020-05-24T11:34:43Z</time>
      </trkpt>
      <trkpt lat="46.15663" lon="5.60301">
        <ele>477.1</ele>
        <time>2020-05-24T11:34:45Z</time>
      </trkpt>
      <trkpt lat="46.1567" lon="5.60305">
        <ele>477</ele>
        <time>2020-05-24T11:34:47Z</time>
      </trkpt>
      <trkpt lat="46.15677" lon="5.6031">
        <ele>477.1</ele>
        <time>2020-05-24T11:34:48Z</time>
      </trkpt>
      <trkpt lat="46.15684" lon="5.60314">
        <ele>477.1</ele>
        <time>2020-05-24T11:34:50Z</time>
      </trkpt>
      <trkpt lat="46.15691" lon="5.60318">
        <ele>477.1</ele>
        <time>2020-05-24T11:34:52Z</time>
      </trkpt>
      <trkpt lat="46.15698" lon="5.60323">
        <ele>477.1</ele>
        <time>2020-05-24T11:34:53Z</time>
      </trkpt>
      <trkpt lat="46.15705" lon="5.60327">
        <ele>477.1</ele>
        <time>2020-05-24T11:34:55Z</time>
      </trkpt>
      <trkpt lat="46.15712" lon="5.60331">
        <ele>478.4</ele>
        <time>2020-05-24T11:34:57Z</time>
      </trkpt>
      <trkpt lat="46.15719" lon="5.60335">
        <ele>479.6</ele>
        <time>2020-05-24T11:35:25Z</time>
      </trkpt>
      <trkpt lat="46.15726" lon="5.6034">
        <ele>480.3</ele>
        <time>2020-05-24T11:35:26Z</time>
      </trkpt>
      <trkpt lat="46.15733" lon="5.60344">
        <ele>481</ele>
        <time>2020-05-24T11:35:27Z</time>
      </trkpt>
      <trkpt lat="46.15657" lon="5.60307">
        <ele>477.1</ele>
        <time>2020-05-24T11:35:28Z</time>
      </trkpt>
      <trkpt lat="46.15656" lon="5.60306">
        <ele>477.1</ele>
        <time>2020-05-24T11:35:30Z</time>
      </trkpt>
      <trkpt lat="46.15654" lon="5.60305">
        <ele>477.1</ele>
        <time>2020-05-24T11:35:31Z</time>
      </trkpt>
      <trkpt lat="46.15654" lon="5.60304">
        <ele>477.1</ele>
        <time>2020-05-24T11:35:33Z</time>
      </trkpt>
      <trkpt lat="46.15654" lon="5.60305">
        <ele>477.1</ele>
        <time>2020-05-24T11:35:34Z</time>
      </trkpt>
      <trkpt lat="46.15654" lon="5.60304">
        <ele>477.1</ele>
        <time>2020-05-24T11:35:35Z</time>
      </trkpt>
      <trkpt lat="46.15654" lon="5.60304">
        <ele>477.1</ele>
        <time>2020-05-24T11:35:37Z</time>
      </trkpt>
      <trkpt lat="46.15654" lon="5.60304">
        <ele>477.1</ele>
        <time>2020-05-24T11:35:39Z</time>
      </trkpt>
      <trkpt lat="46.15654" lon="5.60304">
        <ele>477.1</ele>
        <time>2020-05-24T11:35:40Z</time>
      </trkpt>
      <trkpt lat="46.15654" lon="5.60305">
        <ele>477.1</ele>
        <time>2020-05-24T11:35:41Z</time>
      </trkpt>
      <trkpt lat="46.15655" lon="5.60306">
        <ele>477.1</ele>
        <time>2020-05-24T11:35:42Z</time>
      </trkpt>
      <trkpt lat="46.15656" lon="5.60307">
        <ele>477.1</ele>
        <time>2020-05-24T11:35:44Z</time>
      </trkpt>
      <trkpt lat="46.1566" lon="5.60312">
        <ele>477.1</ele>
        <time>2020-05-24T11:35:53Z</time>
      </trkpt>
      <trkpt lat="46.15662" lon="5.60315">
        <ele>477.1</ele>
        <time>2020-05-24T11:35:54Z</time>
      </trkpt>
      <trkpt lat="46.15664" lon="5.60317">
        <ele>477.1</ele>
        <time>2020-05-24T11:35:55Z</time>
      </trkpt>
      <trkpt lat="46.15665" lon="5.60318">
        <ele>477.1</ele>
        <time>2020-05-24T11:35:57Z</time>
      </trkpt>
      <trkpt lat="46.15663" lon="5.60316">
        <ele>477.1</ele>
        <time>2020-05-24T11:35:59Z</time>
      </trkpt>
      <trkpt lat="46.15656" lon="5.60303">
        <ele>477.1</ele>
        <time>2020-05-24T11:36:01Z</time>
      </trkpt>
      <trkpt lat="46.15654" lon="5.60302">
        <ele>477.1</ele>
        <time>2020-05-24T11:36:02Z</time>
      </trkpt>
      <trkpt lat="46.15654" lon="5.60302">
        <ele>477.1</ele>
        <time>2020-05-24T11:36:03Z</time>
      </trkpt>
      <trkpt lat="46.15654" lon="5.60302">
        <ele>477.1</ele>
        <time>2020-05-24T11:36:05Z</time>
      </trkpt>
      <trkpt lat="46.15653" lon="5.60301">
        <ele>477.1</ele>
        <time>2020-05-24T11:36:07Z</time>
      </trkpt>
      <trkpt lat="46.15653" lon="5.60301">
        <ele>477.1</ele>
        <time>2020-05-24T11:36:07Z</time>
      </trkpt>
      <trkpt lat="46.15653" lon="5.60301">
        <ele>477.1</ele>
        <time>2020-05-24T11:36:08Z</time>
      </trkpt>
      <trkpt lat="46.15654" lon="5.60303">
        <ele>477.1</ele>
        <time>2020-05-24T11:36:09Z</time>
      </trkpt>
      <trkpt lat="46.15655" lon="5.60305">
        <ele>477.1</ele>
        <time>2020-05-24T11:36:11Z</time>
      </trkpt>
      <trkpt lat="46.15656" lon="5.60306">
        <ele>477.1</ele>
        <time>2020-05-24T11:36:12Z</time>
      </trkpt>
      <trkpt lat="46.15656" lon="5.60306">
        <ele>477.1</ele>
        <time>2020-05-24T11:36:13Z</time>
      </trkpt>
      <trkpt lat="46.15656" lon="5.60305">
        <ele>477.1</ele>
        <time>2020-05-24T11:36:15Z</time>
      </trkpt>
      <trkpt lat="46.15656" lon="5.60305">
        <ele>477.1</ele>
        <time>2020-05-24T11:36:16Z</time>
      </trkpt>
      <trkpt lat="46.15657" lon="5.60305">
        <ele>477.1</ele>
        <time>2020-05-24T11:36:17Z</time>
      </trkpt>
      <trkpt lat="46.15657" lon="5.60306">
        <ele>477.1</ele>
        <time>2020-05-24T11:36:18Z</time>
      </trkpt>
      <trkpt lat="46.15658" lon="5.60306">
        <ele>477.1</ele>
        <time>2020-05-24T11:36:19Z</time>
      </trkpt>
      <trkpt lat="46.15658" lon="5.60307">
        <ele>477.1</ele>
        <time>2020-05-24T11:36:20Z</time>
      </trkpt>
      <trkpt lat="46.15657" lon="5.60305">
        <ele>477.1</ele>
        <time>2020-05-24T11:36:22Z</time>
      </trkpt>
      <trkpt lat="46.15657" lon="5.60305">
        <ele>477.1</ele>
        <time>2020-05-24T11:36:24Z</time>
      </trkpt>
      <trkpt lat="46.15657" lon="5.60305">
        <ele>477.1</ele>
        <time>2020-05-24T11:36:25Z</time>
      </trkpt>
      <trkpt lat="46.15657" lon="5.60305">
        <ele>477.1</ele>
        <time>2020-05-24T11:36:27Z</time>
      </trkpt>
      <trkpt lat="46.15657" lon="5.60305">
        <ele>477.1</ele>
        <time>2020-05-24T11:36:29Z</time>
      </trkpt>
      <trkpt lat="46.15658" lon="5.60306">
        <ele>477.1</ele>
        <time>2020-05-24T11:36:30Z</time>
      </trkpt>
      <trkpt lat="46.15658" lon="5.60306">
        <ele>477.1</ele>
        <time>2020-05-24T11:36:32Z</time>
      </trkpt>
      <trkpt lat="46.15654" lon="5.60303">
        <ele>477.1</ele>
        <time>2020-05-24T11:36:34Z</time>
      </trkpt>
      <trkpt lat="46.15654" lon="5.60303">
        <ele>477.1</ele>
        <time>2020-05-24T11:36:35Z</time>
      </trkpt>
      <trkpt lat="46.15654" lon="5.60303">
        <ele>477.1</ele>
        <time>2020-05-24T11:36:37Z</time>
      </trkpt>
      <trkpt lat="46.15654" lon="5.60303">
        <ele>477.1</ele>
        <time>2020-05-24T11:36:39Z</time>
      </trkpt>
      <trkpt lat="46.15654" lon="5.60303">
        <ele>477.1</ele>
        <time>2020-05-24T11:36:40Z</time>
      </trkpt>
      <trkpt lat="46.15654" lon="5.60303">
        <ele>477.1</ele>
        <time>2020-05-24T11:36:41Z</time>
      </trkpt>
      <trkpt lat="46.15655" lon="5.60303">
        <ele>477.1</ele>
        <time>2020-05-24T11:36:42Z</time>
      </trkpt>
      <trkpt lat="46.15655" lon="5.60303">
        <ele>477.1</ele>
        <time>2020-05-24T11:36:44Z</time>
      </trkpt>
      <trkpt lat="46.15655" lon="5.60304">
        <ele>477.1</ele>
        <time>2020-05-24T11:36:45Z</time>
      </trkpt>
      <trkpt lat="46.15655" lon="5.60304">
        <ele>477.1</ele>
        <time>2020-05-24T11:36:47Z</time>
      </trkpt>
      <trkpt lat="46.15655" lon="5.60304">
        <ele>477.1</ele>
        <time>2020-05-24T11:36:48Z</time>
      </trkpt>
      <trkpt lat="46.15655" lon="5.60304">
        <ele>477.1</ele>
        <time>2020-05-24T11:36:50Z</time>
      </trkpt>
      <trkpt lat="46.15655" lon="5.60304">
        <ele>477.1</ele>
        <time>2020-05-24T11:36:51Z</time>
      </trkpt>
      <trkpt lat="46.15655" lon="5.60304">
        <ele>477.1</ele>
        <time>2020-05-24T11:37:23Z</time>
      </trkpt>
      <trkpt lat="46.15655" lon="5.60304">
        <ele>477.1</ele>
        <time>2020-05-24T11:37:25Z</time>
      </trkpt>
      <trkpt lat="46.15655" lon="5.60304">
        <ele>477.1</ele>
        <time>2020-05-24T11:37:27Z</time>
      </trkpt>
      <trkpt lat="46.15656" lon="5.60305">
        <ele>477.1</ele>
        <time>2020-05-24T11:37:29Z</time>
      </trkpt>
      <trkpt lat="46.15656" lon="5.60305">
        <ele>477.1</ele>
        <time>2020-05-24T11:37:30Z</time>
      </trkpt>
      <trkpt lat="46.15656" lon="5.60305">
        <ele>477.1</ele>
        <time>2020-05-24T11:37:32Z</time>
      </trkpt>
      <trkpt lat="46.15656" lon="5.60305">
        <ele>477.1</ele>
        <time>2020-05-24T11:37:33Z</time>
      </trkpt>
      <trkpt lat="46.15656" lon="5.60305">
        <ele>477.1</ele>
        <time>2020-05-24T11:37:34Z</time>
      </trkpt>
      <trkpt lat="46.15656" lon="5.60305">
        <ele>477.1</ele>
        <time>2020-05-24T11:37:35Z</time>
      </trkpt>
      <trkpt lat="46.15656" lon="5.60305">
        <ele>477.1</ele>
        <time>2020-05-24T11:37:37Z</time>
      </trkpt>
      <trkpt lat="46.15656" lon="5.60306">
        <ele>477.1</ele>
        <time>2020-05-24T11:37:38Z</time>
      </trkpt>
      <trkpt lat="46.15656" lon="5.60306">
        <ele>477.1</ele>
        <time>2020-05-24T11:37:40Z</time>
      </trkpt>
      <trkpt lat="46.15656" lon="5.60306">
        <ele>477.1</ele>
        <time>2020-05-24T11:37:42Z</time>
      </trkpt>
      <trkpt lat="46.15657" lon="5.60306">
        <ele>477.1</ele>
        <time>2020-05-24T11:37:43Z</time>
      </trkpt>
      <trkpt lat="46.15657" lon="5.60306">
        <ele>477.1</ele>
        <time>2020-05-24T11:37:45Z</time>
      </trkpt>
      <trkpt lat="46.15657" lon="5.60306">
        <ele>477.1</ele>
        <time>2020-05-24T11:37:46Z</time>
      </trkpt>
      <trkpt lat="46.15657" lon="5.60306">
        <ele>477.1</ele>
        <time>2020-05-24T11:37:47Z</time>
      </trkpt>
      <trkpt lat="46.15657" lon="5.60307">
        <ele>477.1</ele>
        <time>2020-05-24T11:37:49Z</time>
      </trkpt>
      <trkpt lat="46.15657" lon="5.60307">
        <ele>477.1</ele>
        <time>2020-05-24T11:37:50Z</time>
      </trkpt>
      <trkpt lat="46.15657" lon="5.60307">
        <ele>477.1</ele>
        <time>2020-05-24T11:37:51Z</time>
      </trkpt>
      <trkpt lat="46.15657" lon="5.60307">
        <ele>477.1</ele>
        <time>2020-05-24T11:37:52Z</time>
      </trkpt>
      <trkpt lat="46.15657" lon="5.60307">
        <ele>477.1</ele>
        <time>2020-05-24T11:37:54Z</time>
      </trkpt>
      <trkpt lat="46.15657" lon="5.60307">
        <ele>477.1</ele>
        <time>2020-05-24T11:37:55Z</time>
      </trkpt>
      <trkpt lat="46.15658" lon="5.60307">
        <ele>477.1</ele>
        <time>2020-05-24T11:37:57Z</time>
      </trkpt>
      <trkpt lat="46.15658" lon="5.60308">
        <ele>477.1</ele>
        <time>2020-05-24T11:37:58Z</time>
      </trkpt>
      <trkpt lat="46.15658" lon="5.60308">
        <ele>477.1</ele>
        <time>2020-05-24T11:38:00Z</time>
      </trkpt>
      <trkpt lat="46.15658" lon="5.60308">
        <ele>477.1</ele>
        <time>2020-05-24T11:38:02Z</time>
      </trkpt>
      <trkpt lat="46.15658" lon="5.60308">
        <ele>477.1</ele>
        <time>2020-05-24T11:38:03Z</time>
      </trkpt>
      <trkpt lat="46.15658" lon="5.60308">
        <ele>477.1</ele>
        <time>2020-05-24T11:38:04Z</time>
      </trkpt>
      <trkpt lat="46.15658" lon="5.60308">
        <ele>477.1</ele>
        <time>2020-05-24T11:38:06Z</time>
      </trkpt>
      <trkpt lat="46.15658" lon="5.60308">
        <ele>477.1</ele>
        <time>2020-05-24T11:38:08Z</time>
      </trkpt>
      <trkpt lat="46.15658" lon="5.60308">
        <ele>477.1</ele>
        <time>2020-05-24T11:38:09Z</time>
      </trkpt>
      <trkpt lat="46.15658" lon="5.60309">
        <ele>477.1</ele>
        <time>2020-05-24T11:38:11Z</time>
      </trkpt>
      <trkpt lat="46.15659" lon="5.60309">
        <ele>477.1</ele>
        <time>2020-05-24T11:38:12Z</time>
      </trkpt>
      <trkpt lat="46.15659" lon="5.60309">
        <ele>477.1</ele>
        <time>2020-05-24T11:38:14Z</time>
      </trkpt>
      <trkpt lat="46.15659" lon="5.60309">
        <ele>477.1</ele>
        <time>2020-05-24T11:38:16Z</time>
      </trkpt>
      <trkpt lat="46.15659" lon="5.60309">
        <ele>477.1</ele>
        <time>2020-05-24T11:38:18Z</time>
      </trkpt>
      <trkpt lat="46.15659" lon="5.60309">
        <ele>477.1</ele>
        <time>2020-05-24T11:38:20Z</time>
      </trkpt>
      <trkpt lat="46.15659" lon="5.60309">
        <ele>477.1</ele>
        <time>2020-05-24T11:38:22Z</time>
      </trkpt>
      <trkpt lat="46.15659" lon="5.6031">
        <ele>477.1</ele>
        <time>2020-05-24T11:38:23Z</time>
      </trkpt>
      <trkpt lat="46.15659" lon="5.6031">
        <ele>477.1</ele>
        <time>2020-05-24T11:38:25Z</time>
      </trkpt>
      <trkpt lat="46.15659" lon="5.6031">
        <ele>477.1</ele>
        <time>2020-05-24T11:38:26Z</time>
      </trkpt>
      <trkpt lat="46.15659" lon="5.6031">
        <ele>477.1</ele>
        <time>2020-05-24T11:38:28Z</time>
      </trkpt>
      <trkpt lat="46.1566" lon="5.6031">
        <ele>477.1</ele>
        <time>2020-05-24T11:38:29Z</time>
      </trkpt>
      <trkpt lat="46.1566" lon="5.6031">
        <ele>477.1</ele>
        <time>2020-05-24T11:38:31Z</time>
      </trkpt>
      <trkpt lat="46.1566" lon="5.6031">
        <ele>477.1</ele>
        <time>2020-05-24T11:38:32Z</time>
      </trkpt>
      <trkpt lat="46.1566" lon="5.60311">
        <ele>477.1</ele>
        <time>2020-05-24T11:38:34Z</time>
      </trkpt>
      <trkpt lat="46.1566" lon="5.60311">
        <ele>477.1</ele>
        <time>2020-05-24T11:38:36Z</time>
      </trkpt>
      <trkpt lat="46.1566" lon="5.60311">
        <ele>477.1</ele>
        <time>2020-05-24T11:38:38Z</time>
      </trkpt>
      <trkpt lat="46.1566" lon="5.60311">
        <ele>477.1</ele>
        <time>2020-05-24T11:38:39Z</time>
      </trkpt>
      <trkpt lat="46.1566" lon="5.60311">
        <ele>477.1</ele>
        <time>2020-05-24T11:38:41Z</time>
      </trkpt>
      <trkpt lat="46.1566" lon="5.60311">
        <ele>477.1</ele>
        <time>2020-05-24T11:38:43Z</time>
      </trkpt>
      <trkpt lat="46.1566" lon="5.60311">
        <ele>477.1</ele>
        <time>2020-05-24T11:38:45Z</time>
      </trkpt>
      <trkpt lat="46.15661" lon="5.60311">
        <ele>477.1</ele>
        <time>2020-05-24T11:38:46Z</time>
      </trkpt>
      <trkpt lat="46.15661" lon="5.60312">
        <ele>477.1</ele>
        <time>2020-05-24T11:38:48Z</time>
      </trkpt>
      <trkpt lat="46.15661" lon="5.60312">
        <ele>477.1</ele>
        <time>2020-05-24T11:38:50Z</time>
      </trkpt>
      <trkpt lat="46.15661" lon="5.60312">
        <ele>477.1</ele>
        <time>2020-05-24T11:38:51Z</time>
      </trkpt>
      <trkpt lat="46.15661" lon="5.60312">
        <ele>477.1</ele>
        <time>2020-05-24T11:38:52Z</time>
      </trkpt>
      <trkpt lat="46.15661" lon="5.60312">
        <ele>477.1</ele>
        <time>2020-05-24T11:38:53Z</time>
      </trkpt>
      <trkpt lat="46.1567" lon="5.60327">
        <ele>477.1</ele>
        <time>2020-05-24T11:38:55Z</time>
      </trkpt>
      <trkpt lat="46.1566" lon="5.6031">
        <ele>477.1</ele>
        <time>2020-05-24T11:38:56Z</time>
      </trkpt>
      <trkpt lat="46.15657" lon="5.60304">
        <ele>477.1</ele>
        <time>2020-05-24T11:38:58Z</time>
      </trkpt>
      <trkpt lat="46.15657" lon="5.60303">
        <ele>477.1</ele>
        <time>2020-05-24T11:39:00Z</time>
      </trkpt>
      <trkpt lat="46.15657" lon="5.60301">
        <ele>477.1</ele>
        <time>2020-05-24T11:39:02Z</time>
      </trkpt>
      <trkpt lat="46.15657" lon="5.60301">
        <ele>477.1</ele>
        <time>2020-05-24T11:39:03Z</time>
      </trkpt>
      <trkpt lat="46.15657" lon="5.603">
        <ele>477.1</ele>
        <time>2020-05-24T11:39:04Z</time>
      </trkpt>
      <trkpt lat="46.15657" lon="5.603">
        <ele>477.1</ele>
        <time>2020-05-24T11:39:05Z</time>
      </trkpt>
    </trkseg>
  </trk>
</gpx>